
Distance (Route):
Temperature : 17.5°C
Humidity : 61.2%
Pressure : 953.8hPa| Receiver | Frames | First received | Last received |
|---|---|---|---|
| DK7TD | 497 | 2026-09-04 22:48:03 | 2026-09-05 00:50:33 |
| DO3MHA-12 | 467 | 2026-09-04 23:10:18 | 2026-09-05 01:01:47 |
| DM0DOS-11 | 397 | 2026-09-04 23:10:17 | 2026-09-05 00:43:13 |
| DO3MHA-11 | 391 | 2026-09-04 23:13:26 | 2026-09-05 01:01:47 |
| DL1NUX | 329 | 2026-09-04 23:27:42 | 2026-09-05 00:46:13 |
| HSKMA3-T | 244 | 2026-09-04 23:44:45 | 2026-09-05 00:31:53 |
| BIOWL1-15 | 127 | 2026-09-04 23:11:55 | 2026-09-05 00:43:41 |
| DL1XH-west | 123 | 2026-09-05 00:05:14 | 2026-09-05 00:28:22 |
| DF8AY | 113 | 2026-09-05 00:01:08 | 2026-09-05 00:30:42 |
| DB0NH | 106 | 2026-09-04 23:18:47 | 2026-09-05 01:00:53 |
| NBG1-10 | 103 | 2026-09-04 23:13:40 | 2026-09-05 01:01:14 |
| DJ8HS-15 | 102 | 2026-09-04 23:13:25 | 2026-09-05 00:44:22 |
| DK5PH-5 | 93 | 2026-09-04 22:47:41 | 2026-09-05 00:55:13 |
| AZAK | 79 | 2026-09-04 22:45:31 | 2026-09-05 00:36:29 |
| DL1XH1-15 | 73 | 2026-09-05 00:05:12 | 2026-09-05 00:28:13 |
| DB0UT-7 | 68 | 2026-09-04 23:11:22 | 2026-09-05 00:54:43 |
| DB0ND-19 | 65 | 2026-09-04 22:47:45 | 2026-09-05 00:46:47 |
| DO9HM | 65 | 2026-09-04 23:14:53 | 2026-09-05 00:52:15 |
| DL6DJ-15 | 62 | 2026-09-04 23:14:37 | 2026-09-05 00:56:37 |
| DM7RM-13 | 61 | 2026-09-04 23:13:59 | 2026-09-05 00:44:49 |
| OE5DRO-10 | 59 | 2026-09-04 23:27:06 | 2026-09-05 00:43:14 |
| PG1ADW-2 | 58 | 2026-09-04 23:28:04 | 2026-09-05 00:41:52 |
| OE5WHR-10 | 57 | 2026-09-04 23:38:09 | 2026-09-05 00:38:24 |
| DL1ZP-14 | 54 | 2026-09-04 23:03:45 | 2026-09-05 00:44:50 |
| HARRO8 | 53 | 2026-09-04 22:57:45 | 2026-09-05 00:45:56 |
| DF1GD-15 | 52 | 2026-09-04 23:10:28 | 2026-09-05 00:37:32 |
| DF3TZ-5 | 50 | 2026-09-04 22:46:23 | 2026-09-05 00:55:46 |
| DF7PN | 50 | 2026-09-04 22:52:47 | 2026-09-05 00:50:50 |
| OE5DXL-15 | 44 | 2026-09-04 23:23:46 | 2026-09-05 00:44:16 |
| SO1NDE-10 | 44 | 2026-09-04 23:28:20 | 2026-09-05 00:45:53 |
| DF2AP-13 | 35 | 2026-09-04 23:46:41 | 2026-09-05 00:42:25 |
| SONDE2-11 | 32 | 2026-09-04 23:40:56 | 2026-09-05 00:31:12 |
| SONCRA | 31 | 2026-09-04 23:35:14 | 2026-09-05 00:34:14 |
| AM1SDL-15 | 23 | 2026-09-04 23:31:15 | 2026-09-05 00:38:15 |
| DC4HF-4 | 23 | 2026-09-04 23:37:14 | 2026-09-05 00:37:21 |
| EDDB2-11 | 18 | 2026-09-04 23:57:54 | 2026-09-05 00:33:37 |
| IW2NTF | 17 | 2026-09-05 00:00:04 | 2026-09-05 00:28:50 |
| BIOWL9-15 | 13 | 2026-09-04 23:59:13 | 2026-09-05 00:33:54 |
| OE5MMP-10 | 13 | 2026-09-05 00:11:34 | 2026-09-05 00:26:24 |
| PETON7-10 | 10 | 2026-09-05 00:17:18 | 2026-09-05 00:25:51 |
| DH7VM-15 | 9 | 2026-09-04 23:22:06 | 2026-09-05 00:45:55 |
| DJTTGO | 6 | 2026-09-04 23:27:15 | 2026-09-05 00:32:01 |
| S52SK | 6 | 2026-09-05 00:08:15 | 2026-09-05 00:14:45 |
| DD1CC3-15 | 5 | 2026-09-05 00:30:13 | 2026-09-05 00:35:10 |
| AA1-15 | 4 | 2026-09-05 00:20:28 | 2026-09-05 00:23:37 |
| DF9NV-10 | 1 | 2026-09-04 23:15:24 | 2026-09-04 23:15:24 |
| OE9MKV-15 | 1 | 2026-09-04 23:43:43 | 2026-09-04 23:43:43 |
| HEMX73-6 | 1 | 2026-09-05 00:22:50 | 2026-09-05 00:22:50 |
| Receiver | Date | Latitude | Longitude | Direction | Speed | Altitude | Climb | Temperature | Humidity | Pressure | Voltage | Killtimer | Uptime | BKT | XDATA |
|---|---|---|---|---|---|---|---|---|---|---|---|---|---|---|---|
| DO3MHA-11 | 2026-09-05 01:01:47 | 48.90380 | 11.24393 | 162° | 22km/h | 592m | -3.5m/s | 17.5°C | 61.2% | 953.8hPa | 2.7V | 00:00:00 | 02:32:25 | 00:00:00 | |
| DO3MHA-12 | 2026-09-05 01:01:47 | 48.90380 | 11.24393 | 162° | 22km/h | 592m | -3.5m/s | 17.5°C | 61.2% | 953.8hPa | 2.7V | 00:00:00 | 02:32:25 | 00:00:00 | |
| DO3MHA-11 | 2026-09-05 01:01:45 | 48.90391 | 11.24388 | 167° | 27km/h | 599m | -4.3m/s | 17.4°C | 61.4% | 952.8hPa | 2.7V | 00:00:00 | 02:32:23 | 00:00:00 | |
| DO3MHA-12 | 2026-09-05 01:01:45 | 48.90391 | 11.24388 | 167° | 27km/h | 599m | -4.3m/s | 17.4°C | 61.4% | 952.8hPa | 2.7V | 00:00:00 | 02:32:23 | 00:00:00 | |
| DO3MHA-11 | 2026-09-05 01:01:43 | 48.90404 | 11.24382 | 160° | 26km/h | 607m | -4.3m/s | 17.5°C | 60.8% | 952.0hPa | 2.7V | 00:00:00 | 02:32:21 | 00:00:00 | |
| DO3MHA-12 | 2026-09-05 01:01:43 | 48.90404 | 11.24382 | 160° | 26km/h | 607m | -4.3m/s | 17.5°C | 60.8% | 952.0hPa | 2.7V | 07:53:00 | 02:32:21 | 00:00:00 | |
| DO3MHA-11 | 2026-09-05 01:01:41 | 48.90416 | 11.24373 | 146° | 27km/h | 617m | -4.7m/s | 17.4°C | 61.0% | 950.9hPa | 2.7V | 00:00:00 | 02:32:19 | 00:00:00 | |
| DO3MHA-12 | 2026-09-05 01:01:41 | 48.90416 | 11.24373 | 146° | 27km/h | 617m | -4.7m/s | 17.4°C | 61.0% | 950.9hPa | 2.7V | 00:00:00 | 02:32:19 | 00:00:00 | |
| DO3MHA-11 | 2026-09-05 01:01:39 | 48.90428 | 11.24361 | 151° | 35km/h | 626m | -4.8m/s | 17.3°C | 61.4% | 949.8hPa | 2.7V | 00:00:00 | 02:32:17 | 00:00:00 | |
| DO3MHA-12 | 2026-09-05 01:01:39 | 48.90428 | 11.24361 | 151° | 35km/h | 626m | -4.8m/s | 17.3°C | 61.4% | 949.8hPa | 2.7V | 00:00:00 | 02:32:17 | 00:00:00 | |
| DO3MHA-11 | 2026-09-05 01:01:37 | 48.90443 | 11.24348 | 153° | 40km/h | 636m | -4.5m/s | 17.4°C | 61.4% | 948.9hPa | 2.7V | 00:00:00 | 02:32:15 | 00:00:00 | |
| DO3MHA-12 | 2026-09-05 01:01:37 | 48.90443 | 11.24348 | 153° | 40km/h | 636m | -4.5m/s | 17.4°C | 61.4% | 948.9hPa | 2.7V | 00:00:00 | 02:32:15 | 00:00:00 | |
| DO3MHA-11 | 2026-09-05 01:01:35 | 48.90461 | 11.24334 | 152° | 40km/h | 643m | -4.1m/s | 17.3°C | 61.5% | 948.0hPa | 2.7V | 07:53:00 | 02:32:13 | 00:00:00 | |
| DO3MHA-12 | 2026-09-05 01:01:35 | 48.90461 | 11.24334 | 152° | 40km/h | 643m | -4.1m/s | 17.3°C | 61.5% | 948.0hPa | 2.7V | 00:00:00 | 02:32:13 | 00:00:00 | |
| DO3MHA-11 | 2026-09-05 01:01:34 | 48.90479 | 11.24319 | 153° | 42km/h | 651m | -3.9m/s | 17.4°C | 61.6% | 947.0hPa | 2.7V | 00:00:00 | 02:32:11 | 00:00:00 | |
| DO3MHA-12 | 2026-09-05 01:01:33 | 48.90479 | 11.24319 | 153° | 42km/h | 651m | -3.9m/s | 17.4°C | 61.6% | 947.0hPa | 2.7V | 00:00:00 | 02:32:11 | 00:00:00 | |
| DO3MHA-11 | 2026-09-05 01:01:31 | 48.90499 | 11.24304 | 152° | 46km/h | 661m | -4.6m/s | 17.7°C | 60.5% | 946.2hPa | 2.7V | 00:00:00 | 02:32:09 | 00:00:00 | |
| DO3MHA-12 | 2026-09-05 01:01:31 | 48.90499 | 11.24304 | 152° | 46km/h | 661m | -4.6m/s | 17.7°C | 60.5% | 946.2hPa | 2.7V | 00:00:00 | 02:32:09 | 00:00:00 | |
| DO3MHA-11 | 2026-09-05 01:01:29 | 48.90519 | 11.24286 | 150° | 49km/h | 671m | -4.8m/s | 17.5°C | 61.7% | 945.0hPa | 2.7V | 00:00:00 | 02:32:07 | 00:00:00 | |
| DO3MHA-12 | 2026-09-05 01:01:29 | 48.90519 | 11.24286 | 150° | 49km/h | 671m | -4.8m/s | 17.5°C | 61.7% | 945.0hPa | 2.7V | 00:00:00 | 02:32:07 | 00:00:00 | |
| DO3MHA-12 | 2026-09-05 01:01:27 | 48.90541 | 11.24268 | 154° | 49km/h | 683m | -6.8m/s | 17.4°C | 62.3% | 943.7hPa | 2.7V | 07:53:00 | 02:32:05 | 00:00:00 | |
| DO3MHA-11 | 2026-09-05 01:01:27 | 48.90541 | 11.24268 | 154° | 49km/h | 683m | -6.8m/s | 17.4°C | 62.3% | 943.7hPa | 2.7V | 00:00:00 | 02:32:05 | 00:00:00 | |
| DO3MHA-11 | 2026-09-05 01:01:25 | 48.90563 | 11.24252 | 154° | 51km/h | 696m | -6.6m/s | 17.3°C | 62.0% | 942.6hPa | 2.7V | 00:00:00 | 02:32:03 | 00:00:00 | |
| DO3MHA-12 | 2026-09-05 01:01:25 | 48.90563 | 11.24252 | 154° | 51km/h | 696m | -6.6m/s | 17.3°C | 62.0% | 942.6hPa | 2.7V | 00:00:00 | 02:32:03 | 00:00:00 | |
| DO3MHA-11 | 2026-09-05 01:01:23 | 48.90586 | 11.24234 | 151° | 53km/h | 707m | -5.9m/s | 17.4°C | 61.5% | 941.1hPa | 2.7V | 00:00:00 | 02:32:01 | 00:00:00 | |
| DO3MHA-12 | 2026-09-05 01:01:23 | 48.90586 | 11.24234 | 151° | 53km/h | 707m | -5.9m/s | 17.4°C | 61.5% | 941.1hPa | 2.7V | 00:00:00 | 02:32:01 | 00:00:00 | |
| DO3MHA-11 | 2026-09-05 01:01:21 | 48.90609 | 11.24213 | 150° | 53km/h | 720m | -5.4m/s | 17.3°C | 61.4% | 939.8hPa | 2.6V | 00:00:00 | 02:31:59 | 00:00:00 | |
| DO3MHA-12 | 2026-09-05 01:01:21 | 48.90609 | 11.24213 | 150° | 53km/h | 720m | -5.4m/s | 17.3°C | 61.4% | 939.8hPa | 2.7V | 00:00:00 | 02:31:59 | 00:00:00 | |
| DO3MHA-11 | 2026-09-05 01:01:19 | 48.90632 | 11.24193 | 150° | 53km/h | 730m | -5.0m/s | 17.2°C | 61.8% | 938.5hPa | 2.7V | 07:53:00 | 02:31:57 | 00:00:00 | |
| DO3MHA-12 | 2026-09-05 01:01:19 | 48.90632 | 11.24193 | 150° | 53km/h | 730m | -5.0m/s | 17.2°C | 61.8% | 938.5hPa | 2.7V | 00:00:00 | 02:31:57 | 00:00:00 | |
| DO3MHA-11 | 2026-09-05 01:01:17 | 48.90655 | 11.24173 | 155° | 53km/h | 741m | -5.4m/s | 17.0°C | 62.8% | 937.3hPa | 2.7V | 00:00:00 | 02:31:55 | 00:00:00 | |
| DO3MHA-12 | 2026-09-05 01:01:17 | 48.90655 | 11.24173 | 155° | 53km/h | 741m | -5.4m/s | 17.0°C | 62.8% | 937.3hPa | 2.7V | 00:00:00 | 02:31:55 | 00:00:00 | |
| DO3MHA-11 | 2026-09-05 01:01:15 | 48.90679 | 11.24156 | 155° | 51km/h | 752m | -5.2m/s | 16.9°C | 63.4% | 936.2hPa | 2.7V | 00:00:00 | 02:31:53 | 00:00:00 | |
| DO3MHA-12 | 2026-09-05 01:01:15 | 48.90679 | 11.24156 | 155° | 51km/h | 752m | -5.2m/s | 16.9°C | 63.4% | 936.2hPa | 2.7V | 00:00:00 | 02:31:53 | 00:00:00 | |
| NBG1-10 | 2026-09-05 01:01:14 | 48.90691 | 11.24148 | 155° | 51km/h | 758m | -6.4m/s | 16.9°C | 63.0% | 935.6hPa | 2.7V | 00:00:00 | 02:31:52 | 00:00:00 | |
| DO3MHA-11 | 2026-09-05 01:01:13 | 48.90703 | 11.24140 | 155° | 51km/h | 764m | -5.5m/s | 16.8°C | 63.6% | 935.0hPa | 2.7V | 00:00:00 | 02:31:51 | 00:00:00 | |
| DO3MHA-12 | 2026-09-05 01:01:13 | 48.90703 | 11.24140 | 155° | 51km/h | 764m | -5.5m/s | 16.8°C | 63.6% | 935.0hPa | 2.7V | 00:00:00 | 02:31:51 | 00:00:00 | |
| NBG1-10 | 2026-09-05 01:01:12 | 48.90714 | 11.24131 | 153° | 51km/h | 770m | -6.0m/s | 16.7°C | 64.1% | 934.3hPa | 2.7V | 00:00:00 | 02:31:50 | 00:00:00 | |
| DO3MHA-11 | 2026-09-05 01:01:11 | 48.90726 | 11.24122 | 153° | 51km/h | 775m | -6.0m/s | 16.6°C | 64.4% | 933.6hPa | 2.7V | 00:00:00 | 02:31:49 | 00:00:00 | |
| DO3MHA-12 | 2026-09-05 01:01:11 | 48.90726 | 11.24122 | 153° | 51km/h | 775m | -6.0m/s | 16.6°C | 64.4% | 933.6hPa | 2.7V | 07:53:00 | 02:31:49 | 00:00:00 | |
| NBG1-10 | 2026-09-05 01:01:10 | 48.90737 | 11.24112 | 151° | 51km/h | 782m | -6.6m/s | 16.6°C | 64.3% | 933.0hPa | 2.7V | 00:00:00 | 02:31:48 | 00:00:00 | |
| DO3MHA-11 | 2026-09-05 01:01:09 | 48.90748 | 11.24102 | 148° | 53km/h | 789m | -6.5m/s | 16.7°C | 63.7% | 932.3hPa | 2.7V | 00:00:00 | 02:31:47 | 00:00:00 | |
| DO3MHA-12 | 2026-09-05 01:01:09 | 48.90748 | 11.24102 | 148° | 53km/h | 789m | -6.5m/s | 16.7°C | 63.7% | 932.3hPa | 2.7V | 00:00:00 | 02:31:47 | 00:00:00 | |
| NBG1-10 | 2026-09-05 01:01:08 | 48.90759 | 11.24092 | 147° | 53km/h | 795m | -6.2m/s | 16.7°C | 62.8% | 931.4hPa | 2.7V | 07:53:00 | 02:31:46 | 00:00:00 | |
| DO3MHA-11 | 2026-09-05 01:01:07 | 48.90770 | 11.24080 | 148° | 53km/h | 801m | -5.7m/s | 16.6°C | 63.0% | 930.9hPa | 2.7V | 00:00:00 | 02:31:45 | 00:00:00 | |
| DO3MHA-12 | 2026-09-05 01:01:07 | 48.90770 | 11.24080 | 148° | 53km/h | 801m | -5.7m/s | 16.6°C | 63.0% | 930.9hPa | 2.7V | 00:00:00 | 02:31:45 | 00:00:00 | |
| NBG1-10 | 2026-09-05 01:01:06 | 48.90782 | 11.24069 | 149° | 53km/h | 807m | -5.2m/s | 16.5°C | 63.4% | 930.2hPa | 2.7V | 00:00:00 | 02:31:44 | 00:00:00 | |
| DO3MHA-11 | 2026-09-05 01:01:05 | 48.90793 | 11.24059 | 149° | 55km/h | 812m | -6.1m/s | 16.5°C | 63.4% | 929.6hPa | 2.7V | 00:00:00 | 02:31:43 | 00:00:00 | |
| DO3MHA-12 | 2026-09-05 01:01:05 | 48.90793 | 11.24059 | 149° | 55km/h | 812m | -6.1m/s | 16.5°C | 63.4% | 929.6hPa | 2.7V | 00:00:00 | 02:31:43 | 00:00:00 | |
| NBG1-10 | 2026-09-05 01:01:04 | 48.90805 | 11.24048 | 149° | 55km/h | 819m | -7.2m/s | 16.4°C | 63.5% | 929.0hPa | 2.7V | 00:00:00 | 02:31:42 | 00:00:00 | |
| DO3MHA-11 | 2026-09-05 01:01:03 | 48.90817 | 11.24037 | 150° | 55km/h | 826m | -6.5m/s | 16.4°C | 63.6% | 928.2hPa | 2.7V | 07:53:00 | 02:31:41 | 00:00:00 | |
| DO3MHA-12 | 2026-09-05 01:01:03 | 48.90817 | 11.24037 | 150° | 55km/h | 826m | -6.5m/s | 16.4°C | 63.6% | 928.2hPa | 2.7V | 00:00:00 | 02:31:41 | 00:00:00 | |
| NBG1-10 | 2026-09-05 01:01:02 | 48.90829 | 11.24025 | 149° | 55km/h | 832m | -6.8m/s | 16.4°C | 63.2% | 927.4hPa | 2.7V | 00:00:00 | 02:31:40 | 00:00:00 | |
| DO3MHA-11 | 2026-09-05 01:01:01 | 48.90840 | 11.24014 | 148° | 55km/h | 839m | -6.7m/s | 16.3°C | 63.2% | 926.7hPa | 2.7V | 00:00:00 | 02:31:39 | 00:00:00 | |
| DO3MHA-12 | 2026-09-05 01:01:01 | 48.90840 | 11.24014 | 148° | 55km/h | 839m | -6.7m/s | 16.3°C | 63.2% | 926.7hPa | 2.7V | 00:00:00 | 02:31:39 | 00:00:00 | |
| NBG1-10 | 2026-09-05 01:01:00 | 48.90853 | 11.24003 | 149° | 55km/h | 846m | -7.6m/s | 16.2°C | 63.4% | 926.0hPa | 2.7V | 00:00:00 | 02:31:38 | 00:00:00 | |
| DO3MHA-11 | 2026-09-05 01:00:59 | 48.90864 | 11.23992 | 149° | 55km/h | 854m | -7.0m/s | 16.2°C | 62.4% | 925.2hPa | 2.7V | 00:00:00 | 02:31:37 | 00:00:00 | |
| DO3MHA-12 | 2026-09-05 01:00:59 | 48.90864 | 11.23992 | 149° | 55km/h | 854m | -7.0m/s | 16.2°C | 62.4% | 925.2hPa | 2.7V | 00:00:00 | 02:31:37 | 00:00:00 | |
| NBG1-10 | 2026-09-05 01:00:58 | 48.90876 | 11.23981 | 149° | 55km/h | 861m | -6.7m/s | 16.1°C | 62.8% | 924.5hPa | 2.7V | 00:00:00 | 02:31:36 | 00:00:00 | |
| DO3MHA-11 | 2026-09-05 01:00:57 | 48.90888 | 11.23970 | 149° | 55km/h | 868m | -6.9m/s | 16.0°C | 63.8% | 923.7hPa | 2.7V | 00:00:00 | 02:31:35 | 00:00:00 | |
| DO3MHA-12 | 2026-09-05 01:00:57 | 48.90888 | 11.23970 | 149° | 55km/h | 868m | -6.9m/s | 16.0°C | 63.8% | 923.7hPa | 2.6V | 00:00:00 | 02:31:35 | 00:00:00 | |
| NBG1-10 | 2026-09-05 01:00:56 | 48.90900 | 11.23960 | 151° | 55km/h | 875m | -7.6m/s | 16.0°C | 64.1% | 922.8hPa | 2.6V | 00:00:00 | 02:31:34 | 00:00:00 | |
| DO3MHA-11 | 2026-09-05 01:00:55 | 48.90912 | 11.23949 | 151° | 57km/h | 882m | -6.6m/s | 15.9°C | 63.8% | 922.2hPa | 2.6V | 00:00:00 | 02:31:33 | 00:00:00 | |
| DO3MHA-12 | 2026-09-05 01:00:55 | 48.90912 | 11.23949 | 151° | 57km/h | 882m | -6.6m/s | 15.9°C | 63.8% | 922.2hPa | 2.6V | 07:54:00 | 02:31:33 | 00:00:00 | |
| NBG1-10 | 2026-09-05 01:00:54 | 48.90925 | 11.23939 | 152° | 58km/h | 888m | -5.7m/s | 15.8°C | 64.4% | 921.6hPa | 2.6V | 00:00:00 | 02:31:32 | 00:00:00 | |
| DO3MHA-11 | 2026-09-05 01:00:53 | 48.90938 | 11.23928 | 151° | 58km/h | 894m | -5.5m/s | 15.8°C | 64.7% | 920.7hPa | 2.6V | 00:00:00 | 02:31:31 | 00:00:00 | |
| DB0NH | 2026-09-05 01:00:53 | 48.90938 | 11.23928 | 151° | 58km/h | 894m | -5.5m/s | 15.8°C | 64.7% | 920.7hPa | 2.6V | 00:00:00 | 02:31:31 | 00:00:00 | |
| DO3MHA-12 | 2026-09-05 01:00:53 | 48.90938 | 11.23928 | 151° | 58km/h | 894m | -5.5m/s | 15.8°C | 64.7% | 920.7hPa | 2.6V | 00:00:00 | 02:31:31 | 00:00:00 | |
| NBG1-10 | 2026-09-05 01:00:52 | 48.90951 | 11.23917 | 150° | 58km/h | 899m | -6.4m/s | 15.7°C | 65.6% | 920.0hPa | 2.7V | 07:54:00 | 02:31:30 | 00:00:00 | |
| DO3MHA-11 | 2026-09-05 01:00:51 | 48.90963 | 11.23905 | 148° | 58km/h | 906m | -6.1m/s | 15.6°C | 65.9% | 919.6hPa | 2.7V | 00:00:00 | 02:31:29 | 00:00:00 | |
| DO3MHA-12 | 2026-09-05 01:00:51 | 48.90963 | 11.23905 | 148° | 58km/h | 906m | -6.1m/s | 15.6°C | 65.9% | 919.6hPa | 2.7V | 00:00:00 | 02:31:29 | 00:00:00 | |
| DO3MHA-11 | 2026-09-05 01:00:49 | 48.90987 | 11.23880 | 146° | 58km/h | 918m | -5.6m/s | 15.5°C | 66.4% | 918.3hPa | 2.7V | 00:00:00 | 02:31:27 | 00:00:00 | |
| DO3MHA-12 | 2026-09-05 01:00:49 | 48.90987 | 11.23880 | 146° | 58km/h | 918m | -5.6m/s | 15.5°C | 66.4% | 918.3hPa | 2.7V | 00:00:00 | 02:31:27 | 00:00:00 | |
| NBG1-10 | 2026-09-05 01:00:48 | 48.91000 | 11.23867 | 147° | 60km/h | 923m | -5.6m/s | 15.4°C | 66.4% | 917.7hPa | 2.7V | 00:00:00 | 02:31:26 | 00:00:00 | |
| DB0NH | 2026-09-05 01:00:48 | 48.91000 | 11.23867 | 147° | 60km/h | 923m | -5.6m/s | 15.4°C | 66.4% | 917.7hPa | 2.7V | 00:00:00 | 02:31:26 | 00:00:00 | |
| DO3MHA-11 | 2026-09-05 01:00:46 | 48.91038 | 11.23830 | 150° | 60km/h | 940m | -5.5m/s | 15.3°C | 65.9% | 915.7hPa | 2.7V | 00:00:00 | 02:31:23 | 00:00:00 | |
| DO3MHA-12 | 2026-09-05 01:00:45 | 48.91038 | 11.23830 | 150° | 60km/h | 940m | -5.5m/s | 15.3°C | 65.9% | 915.7hPa | 2.7V | 00:00:00 | 02:31:23 | 00:00:00 | |
| DO3MHA-11 | 2026-09-05 01:00:43 | 48.91064 | 11.23807 | 149° | 60km/h | 950m | -5.2m/s | 15.2°C | 66.9% | 914.6hPa | 2.7V | 00:00:00 | 02:31:21 | 00:00:00 | |
| DO3MHA-12 | 2026-09-05 01:00:43 | 48.91064 | 11.23807 | 149° | 60km/h | 950m | -5.2m/s | 15.2°C | 66.9% | 914.6hPa | 2.7V | 00:00:00 | 02:31:21 | 00:00:00 | |
| DB0NH | 2026-09-05 01:00:43 | 48.91064 | 11.23807 | 149° | 58km/h | 950m | -5.2m/s | 15.2°C | 66.9% | 914.6hPa | 2.7V | 00:00:00 | 02:31:21 | 00:00:00 | |
| DO3MHA-11 | 2026-09-05 01:00:41 | 48.91090 | 11.23783 | 149° | 58km/h | 961m | -5.5m/s | 15.1°C | 68.0% | 913.5hPa | 2.7V | 00:00:00 | 02:31:19 | 00:00:00 | |
| NBG1-10 | 2026-09-05 01:00:41 | 48.91090 | 11.23783 | 149° | 58km/h | 961m | -5.5m/s | 15.1°C | 68.0% | 913.5hPa | 2.7V | 00:00:00 | 02:31:19 | 00:00:00 | |
| DO3MHA-12 | 2026-09-05 01:00:41 | 48.91090 | 11.23783 | 149° | 58km/h | 961m | -5.5m/s | 15.1°C | 68.0% | 913.5hPa | 2.7V | 00:00:00 | 02:31:19 | 00:00:00 | |
| DO3MHA-11 | 2026-09-05 01:00:39 | 48.91115 | 11.23759 | 148° | 58km/h | 972m | -4.7m/s | 15.0°C | 68.8% | 912.3hPa | 2.6V | 00:00:00 | 02:31:17 | 00:00:00 | |
| DO3MHA-12 | 2026-09-05 01:00:39 | 48.91115 | 11.23759 | 148° | 58km/h | 972m | -4.7m/s | 15.0°C | 68.8% | 912.3hPa | 2.7V | 07:54:00 | 02:31:17 | 00:00:00 | |
| DB0NH | 2026-09-05 01:00:38 | 48.91127 | 11.23747 | 147° | 58km/h | 976m | -4.4m/s | 14.9°C | 68.3% | 911.9hPa | 2.7V | 00:00:00 | 02:31:16 | 00:00:00 | |
| DO3MHA-11 | 2026-09-05 01:00:37 | 48.91140 | 11.23735 | 147° | 58km/h | 981m | -5.1m/s | 14.9°C | 69.0% | 911.3hPa | 2.7V | 00:00:00 | 02:31:15 | 00:00:00 | |
| DO3MHA-12 | 2026-09-05 01:00:37 | 48.91140 | 11.23735 | 147° | 58km/h | 981m | -5.1m/s | 14.9°C | 69.0% | 911.3hPa | 2.7V | 00:00:00 | 02:31:15 | 00:00:00 | |
| DO3MHA-11 | 2026-09-05 01:00:35 | 48.91164 | 11.23711 | 148° | 58km/h | 990m | -4.6m/s | 14.8°C | 69.5% | 910.2hPa | 2.7V | 00:00:00 | 02:31:13 | 00:00:00 | |
| DO3MHA-12 | 2026-09-05 01:00:35 | 48.91164 | 11.23711 | 148° | 58km/h | 990m | -4.6m/s | 14.8°C | 69.5% | 910.2hPa | 2.7V | 00:00:00 | 02:31:13 | 00:00:00 | |
| NBG1-10 | 2026-09-05 01:00:34 | 48.91177 | 11.23699 | 148° | 60km/h | 995m | -4.6m/s | 14.7°C | 69.7% | 909.8hPa | 2.7V | 00:00:00 | 02:31:12 | 00:00:00 | |
| DO3MHA-11 | 2026-09-05 01:00:33 | 48.91190 | 11.23687 | 148° | 60km/h | 999m | -4.8m/s | 14.7°C | 69.2% | 909.2hPa | 2.6V | 00:00:00 | 02:31:11 | 00:00:00 | |
| DB0NH | 2026-09-05 01:00:33 | 48.91190 | 11.23687 | 148° | 62km/h | 999m | -4.8m/s | 14.7°C | 69.2% | 909.2hPa | 2.7V | 00:00:00 | 02:31:11 | 00:00:00 | |
| DO3MHA-12 | 2026-09-05 01:00:33 | 48.91190 | 11.23687 | 148° | 60km/h | 999m | -4.8m/s | 14.7°C | 69.2% | 909.2hPa | 2.7V | 00:00:00 | 02:31:11 | 00:00:00 | |
| DO3MHA-12 | 2026-09-05 01:00:31 | 48.91216 | 11.23662 | 148° | 62km/h | 1009m | -4.4m/s | 14.6°C | 70.1% | 908.1hPa | 2.7V | 00:00:00 | 02:31:09 | 00:00:00 | |
| DO3MHA-11 | 2026-09-05 01:00:31 | 48.91216 | 11.23662 | 148° | 62km/h | 1009m | -4.4m/s | 14.6°C | 70.1% | 908.1hPa | 2.7V | 07:54:00 | 02:31:09 | 00:00:00 | |
| DO3MHA-11 | 2026-09-05 01:00:29 | 48.91242 | 11.23636 | 148° | 60km/h | 1018m | -4.9m/s | 14.5°C | 70.4% | 907.2hPa | 2.7V | 00:00:00 | 02:31:07 | 00:00:00 | |
| DO3MHA-12 | 2026-09-05 01:00:29 | 48.91242 | 11.23636 | 148° | 60km/h | 1018m | -4.9m/s | 14.5°C | 70.4% | 907.2hPa | 2.7V | 00:00:00 | 02:31:07 | 00:00:00 | |
| DB0NH | 2026-09-05 01:00:28 | 48.91255 | 11.23624 | 147° | 62km/h | 1023m | -5.1m/s | 14.4°C | 70.6% | 906.6hPa | 2.7V | 00:00:00 | 02:31:06 | 00:00:00 | |
| DO3MHA-11 | 2026-09-05 01:00:27 | 48.91268 | 11.23611 | 146° | 62km/h | 1028m | -5.0m/s | 14.4°C | 70.2% | 906.1hPa | 2.7V | 00:00:00 | 02:31:05 | 00:00:00 | |
| NBG1-10 | 2026-09-05 01:00:27 | 48.91268 | 11.23611 | 146° | 62km/h | 1028m | -5.0m/s | 14.4°C | 70.2% | 906.1hPa | 2.7V | 00:00:00 | 02:31:05 | 00:00:00 | |
| DO3MHA-12 | 2026-09-05 01:00:27 | 48.91268 | 11.23611 | 146° | 62km/h | 1028m | -5.0m/s | 14.4°C | 70.2% | 906.1hPa | 2.7V | 00:00:00 | 02:31:05 | 00:00:00 | |
| DO3MHA-11 | 2026-09-05 01:00:26 | 48.91293 | 11.23583 | 145° | 62km/h | 1039m | -5.2m/s | 14.3°C | 71.3% | 905.1hPa | 2.7V | 00:00:00 | 02:31:03 | 00:00:00 | |
| DO3MHA-12 | 2026-09-05 01:00:25 | 48.91293 | 11.23583 | 145° | 62km/h | 1039m | -5.2m/s | 14.3°C | 71.3% | 905.1hPa | 2.7V | 00:00:00 | 02:31:03 | 00:00:00 | |
| DO3MHA-11 | 2026-09-05 01:00:23 | 48.91318 | 11.23555 | 143° | 62km/h | 1050m | -5.7m/s | 14.3°C | 70.7% | 903.9hPa | 2.7V | 00:00:00 | 02:31:01 | 00:00:00 | |
| DO3MHA-12 | 2026-09-05 01:00:23 | 48.91318 | 11.23555 | 143° | 62km/h | 1050m | -5.7m/s | 14.3°C | 70.7% | 903.9hPa | 2.7V | 07:54:00 | 02:31:01 | 00:00:00 | |
| DO3MHA-11 | 2026-09-05 01:00:21 | 48.91343 | 11.23527 | 145° | 60km/h | 1062m | -5.7m/s | 14.1°C | 71.3% | 902.8hPa | 2.6V | 00:00:00 | 02:30:59 | 00:00:00 | |
| DO3MHA-12 | 2026-09-05 01:00:21 | 48.91343 | 11.23527 | 145° | 60km/h | 1062m | -5.7m/s | 14.1°C | 71.3% | 902.8hPa | 2.7V | 00:00:00 | 02:30:59 | 00:00:00 | |
| NBG1-10 | 2026-09-05 01:00:20 | 48.91356 | 11.23513 | 145° | 62km/h | 1067m | -5.3m/s | 14.1°C | 71.5% | 902.2hPa | 2.7V | 00:00:00 | 02:30:58 | 00:00:00 | |
| DO3MHA-11 | 2026-09-05 01:00:19 | 48.91369 | 11.23499 | 146° | 62km/h | 1073m | -5.3m/s | 14.0°C | 71.1% | 901.5hPa | 2.7V | 00:00:00 | 02:30:57 | 00:00:00 | |
| DO3MHA-12 | 2026-09-05 01:00:19 | 48.91369 | 11.23499 | 146° | 62km/h | 1073m | -5.3m/s | 14.0°C | 71.1% | 901.5hPa | 2.7V | 00:00:00 | 02:30:57 | 00:00:00 | |
| DB0NH | 2026-09-05 01:00:18 | 48.91381 | 11.23486 | 146° | 60km/h | 1078m | -5.5m/s | 14.0°C | 70.7% | 901.0hPa | 2.7V | 07:54:00 | 02:30:56 | 00:00:00 | |
| DO3MHA-11 | 2026-09-05 01:00:18 | 48.91394 | 11.23473 | 147° | 62km/h | 1084m | -5.0m/s | 13.9°C | 71.0% | 900.3hPa | 2.7V | 00:00:00 | 02:30:55 | 00:00:00 | |
| DO3MHA-12 | 2026-09-05 01:00:18 | 48.91394 | 11.23473 | 147° | 62km/h | 1084m | -5.0m/s | 13.9°C | 71.0% | 900.3hPa | 2.7V | 00:00:00 | 02:30:55 | 00:00:00 | |
| DO3MHA-11 | 2026-09-05 01:00:15 | 48.91420 | 11.23447 | 147° | 60km/h | 1094m | -5.6m/s | 14.0°C | 66.0% | 899.3hPa | 2.7V | 07:54:00 | 02:30:53 | 00:00:00 | |
| DO3MHA-12 | 2026-09-05 01:00:15 | 48.91420 | 11.23447 | 147° | 60km/h | 1094m | -5.6m/s | 14.0°C | 66.0% | 899.3hPa | 2.7V | 00:00:00 | 02:30:53 | 00:00:00 | |
| NBG1-10 | 2026-09-05 01:00:13 | 48.91446 | 11.23421 | 146° | 62km/h | 1106m | -5.3m/s | 14.0°C | 65.8% | 898.1hPa | 2.7V | 00:00:00 | 02:30:51 | 00:00:00 | |
| DO3MHA-11 | 2026-09-05 01:00:13 | 48.91446 | 11.23421 | 146° | 60km/h | 1106m | -5.3m/s | 14.0°C | 65.8% | 898.1hPa | 2.7V | 00:00:00 | 02:30:51 | 00:00:00 | |
| DO3MHA-12 | 2026-09-05 01:00:13 | 48.91446 | 11.23421 | 146° | 60km/h | 1106m | -5.3m/s | 14.0°C | 65.8% | 898.1hPa | 2.7V | 00:00:00 | 02:30:51 | 00:00:00 | |
| DO3MHA-11 | 2026-09-05 01:00:11 | 48.91471 | 11.23395 | 146° | 62km/h | 1116m | -5.0m/s | 14.1°C | 57.1% | 897.1hPa | 2.7V | 00:00:00 | 02:30:49 | 00:00:00 | |
| DO3MHA-12 | 2026-09-05 01:00:11 | 48.91471 | 11.23395 | 146° | 62km/h | 1116m | -5.0m/s | 14.1°C | 57.1% | 897.1hPa | 2.7V | 00:00:00 | 02:30:49 | 00:00:00 | |
| DO3MHA-11 | 2026-09-05 01:00:09 | 48.91497 | 11.23368 | 146° | 62km/h | 1126m | -5.3m/s | 14.1°C | 54.6% | 895.8hPa | 2.7V | 00:00:00 | 02:30:47 | 00:00:00 | |
| DO3MHA-12 | 2026-09-05 01:00:09 | 48.91497 | 11.23368 | 146° | 62km/h | 1126m | -5.3m/s | 14.1°C | 54.6% | 895.8hPa | 2.7V | 00:00:00 | 02:30:47 | 00:00:00 | |
| DO3MHA-11 | 2026-09-05 01:00:07 | 48.91523 | 11.23341 | 146° | 64km/h | 1138m | -5.5m/s | 14.0°C | 54.5% | 894.7hPa | 2.7V | 00:00:00 | 02:30:45 | 00:00:00 | |
| DO3MHA-12 | 2026-09-05 01:00:07 | 48.91523 | 11.23341 | 146° | 64km/h | 1138m | -5.5m/s | 14.0°C | 54.5% | 894.7hPa | 2.7V | 07:54:00 | 02:30:45 | 00:00:00 | |
| NBG1-10 | 2026-09-05 01:00:06 | 48.91536 | 11.23327 | 146° | 64km/h | 1143m | -5.3m/s | 14.0°C | 54.4% | 894.0hPa | 2.7V | 00:00:00 | 02:30:44 | 00:00:00 | |
| DO3MHA-11 | 2026-09-05 01:00:05 | 48.91550 | 11.23313 | 146° | 66km/h | 1148m | -4.9m/s | 14.0°C | 54.6% | 893.4hPa | 2.7V | 00:00:00 | 02:30:43 | 00:00:00 | |
| DO3MHA-12 | 2026-09-05 01:00:05 | 48.91550 | 11.23313 | 146° | 66km/h | 1148m | -4.9m/s | 14.0°C | 54.6% | 893.4hPa | 2.7V | 00:00:00 | 02:30:43 | 00:00:00 | |
| DO3MHA-11 | 2026-09-05 01:00:01 | 48.91604 | 11.23257 | 145° | 64km/h | 1169m | -4.8m/s | 13.8°C | 57.8% | 891.4hPa | 2.7V | 00:00:00 | 02:30:39 | 00:00:00 | |
| DO3MHA-12 | 2026-09-05 01:00:01 | 48.91604 | 11.23257 | 145° | 64km/h | 1169m | -4.8m/s | 13.8°C | 57.8% | 891.4hPa | 2.7V | 00:00:00 | 02:30:39 | 00:00:00 | |
| NBG1-10 | 2026-09-05 00:59:59 | 48.91630 | 11.23229 | 145° | 58km/h | 1179m | -4.8m/s | 13.8°C | 58.3% | 890.2hPa | 2.7V | 07:55:00 | 02:30:37 | 00:00:00 | |
| DO3MHA-11 | 2026-09-05 00:59:59 | 48.91630 | 11.23229 | 145° | 60km/h | 1179m | -4.8m/s | 13.8°C | 58.3% | 890.2hPa | 2.7V | 07:55:00 | 02:30:37 | 00:00:00 | |
| DO3MHA-12 | 2026-09-05 00:59:59 | 48.91630 | 11.23229 | 145° | 60km/h | 1179m | -4.8m/s | 13.8°C | 58.3% | 890.2hPa | 2.7V | 00:00:00 | 02:30:37 | 00:00:00 | |
| DB0NH | 2026-09-05 00:59:58 | 48.91642 | 11.23216 | 145° | 57km/h | 1184m | -5.2m/s | 13.7°C | 58.8% | 889.9hPa | 2.6V | 00:00:00 | 02:30:36 | 00:00:00 | |
| DO3MHA-11 | 2026-09-05 00:59:57 | 48.91655 | 11.23202 | 144° | 58km/h | 1189m | -5.9m/s | 13.7°C | 59.7% | 889.3hPa | 2.6V | 00:00:00 | 02:30:35 | 00:00:00 | |
| DO3MHA-12 | 2026-09-05 00:59:57 | 48.91655 | 11.23202 | 144° | 58km/h | 1189m | -5.9m/s | 13.7°C | 59.7% | 889.3hPa | 2.7V | 00:00:00 | 02:30:35 | 00:00:00 | |
| DO3MHA-11 | 2026-09-05 00:59:55 | 48.91678 | 11.23175 | 143° | 57km/h | 1201m | -5.2m/s | 13.5°C | 61.5% | 887.9hPa | 2.7V | 00:00:00 | 02:30:33 | 00:00:00 | |
| DO3MHA-12 | 2026-09-05 00:59:55 | 48.91678 | 11.23175 | 143° | 57km/h | 1201m | -5.2m/s | 13.5°C | 61.5% | 887.9hPa | 2.7V | 00:00:00 | 02:30:33 | 00:00:00 | |
| DO3MHA-11 | 2026-09-05 00:59:53 | 48.91701 | 11.23148 | 142° | 57km/h | 1212m | -6.1m/s | 13.5°C | 63.9% | 886.9hPa | 2.7V | 00:00:00 | 02:30:31 | 00:00:00 | |
| DO3MHA-12 | 2026-09-05 00:59:53 | 48.91701 | 11.23148 | 142° | 57km/h | 1212m | -6.1m/s | 13.5°C | 63.9% | 886.9hPa | 2.7V | 00:00:00 | 02:30:31 | 00:00:00 | |
| NBG1-10 | 2026-09-05 00:59:52 | 48.91712 | 11.23134 | 140° | 57km/h | 1218m | -5.7m/s | 13.5°C | 66.2% | 886.4hPa | 2.7V | 00:00:00 | 02:30:30 | 00:00:00 | |
| DO3MHA-12 | 2026-09-05 00:59:51 | 48.91723 | 11.23120 | 139° | 57km/h | 1224m | -5.5m/s | 13.4°C | 66.0% | 885.6hPa | 2.7V | 07:55:00 | 02:30:29 | 00:00:00 | |
| DO3MHA-11 | 2026-09-05 00:59:50 | 48.91733 | 11.23105 | 139° | 57km/h | 1229m | -5.0m/s | 13.4°C | 67.3% | 885.2hPa | 2.7V | 00:00:00 | 02:30:28 | 00:00:00 | |
| DO3MHA-12 | 2026-09-05 00:59:49 | 48.91744 | 11.23091 | 139° | 57km/h | 1234m | -4.8m/s | 13.3°C | 67.6% | 884.6hPa | 2.6V | 00:00:00 | 02:30:27 | 00:00:00 | |
| DB0NH | 2026-09-05 00:59:48 | 48.91755 | 11.23076 | 139° | 55km/h | 1239m | -5.4m/s | 13.3°C | 67.9% | 884.0hPa | 2.6V | 00:00:00 | 02:30:26 | 00:00:00 | |
| DO3MHA-11 | 2026-09-05 00:59:48 | 48.91755 | 11.23076 | 139° | 58km/h | 1239m | -5.4m/s | 13.3°C | 67.9% | 884.0hPa | 2.6V | 00:00:00 | 02:30:26 | 00:00:00 | |
| DO3MHA-12 | 2026-09-05 00:59:47 | 48.91766 | 11.23061 | 139° | 58km/h | 1245m | -5.9m/s | 13.2°C | 68.1% | 883.3hPa | 2.6V | 00:00:00 | 02:30:25 | 00:00:00 | |
| DO3MHA-11 | 2026-09-05 00:59:46 | 48.91777 | 11.23046 | 137° | 57km/h | 1250m | -5.3m/s | 13.2°C | 68.3% | 882.9hPa | 2.7V | 00:00:00 | 02:30:24 | 00:00:00 | |
| NBG1-10 | 2026-09-05 00:59:45 | 48.91787 | 11.23031 | 137° | 55km/h | 1256m | -5.0m/s | 13.1°C | 68.0% | 882.3hPa | 2.7V | 00:00:00 | 02:30:23 | 00:00:00 | |
| DO3MHA-12 | 2026-09-05 00:59:45 | 48.91787 | 11.23031 | 137° | 57km/h | 1256m | -5.0m/s | 13.1°C | 68.0% | 882.3hPa | 2.7V | 00:00:00 | 02:30:23 | 00:00:00 | |
| DO3MHA-11 | 2026-09-05 00:59:44 | 48.91797 | 11.23016 | 138° | 57km/h | 1261m | -6.1m/s | 13.1°C | 68.5% | 881.9hPa | 2.7V | 00:00:00 | 02:30:22 | 00:00:00 | |
| DO3MHA-12 | 2026-09-05 00:59:43 | 48.91808 | 11.23001 | 136° | 57km/h | 1267m | -5.1m/s | 13.0°C | 68.7% | 881.1hPa | 2.7V | 00:00:00 | 02:30:21 | 00:00:00 | |
| DO3MHA-11 | 2026-09-05 00:59:42 | 48.91818 | 11.22985 | 134° | 55km/h | 1272m | -5.1m/s | 13.0°C | 68.2% | 880.4hPa | 2.7V | 07:55:00 | 02:30:20 | 00:00:00 | |
| DO3MHA-12 | 2026-09-05 00:59:41 | 48.91827 | 11.22970 | 132° | 51km/h | 1277m | -5.3m/s | 13.2°C | 71.1% | 879.8hPa | 2.7V | 00:00:00 | 02:30:19 | 00:00:00 | |
| DO3MHA-11 | 2026-09-05 00:59:40 | 48.91836 | 11.22955 | 129° | 49km/h | 1282m | -4.7m/s | 13.1°C | 71.3% | 879.3hPa | 2.7V | 00:00:00 | 02:30:18 | 00:00:00 | |
| DO3MHA-12 | 2026-09-05 00:59:39 | 48.91843 | 11.22940 | 130° | 49km/h | 1287m | -4.8m/s | 13.1°C | 73.9% | 878.7hPa | 2.7V | 00:00:00 | 02:30:17 | 00:00:00 | |
| DB0NH | 2026-09-05 00:59:38 | 48.91851 | 11.22925 | 131° | 47km/h | 1291m | -4.8m/s | 13.1°C | 69.4% | 878.4hPa | 2.7V | 00:00:00 | 02:30:16 | 00:00:00 | |
| DO3MHA-11 | 2026-09-05 00:59:38 | 48.91851 | 11.22925 | 131° | 51km/h | 1291m | -4.8m/s | 13.1°C | 69.4% | 878.4hPa | 2.7V | 00:00:00 | 02:30:16 | 00:00:00 | |
| NBG1-10 | 2026-09-05 00:59:38 | 48.91851 | 11.22925 | 131° | 49km/h | 1291m | -4.8m/s | 13.1°C | 69.4% | 878.4hPa | 2.6V | 00:00:00 | 02:30:16 | 00:00:00 | |
| DO3MHA-12 | 2026-09-05 00:59:37 | 48.91860 | 11.22911 | 132° | 51km/h | 1296m | -4.9m/s | 13.2°C | 72.2% | 877.9hPa | 2.6V | 00:00:00 | 02:30:15 | 00:00:00 | |
| DO3MHA-11 | 2026-09-05 00:59:36 | 48.91869 | 11.22896 | 134° | 51km/h | 1301m | -5.4m/s | 13.2°C | 70.6% | 877.5hPa | 2.6V | 00:00:00 | 02:30:14 | 00:00:00 | |
| DO3MHA-12 | 2026-09-05 00:59:35 | 48.91878 | 11.22882 | 134° | 49km/h | 1306m | -4.2m/s | 13.0°C | 72.2% | 876.8hPa | 2.6V | 07:55:00 | 02:30:13 | 00:00:00 | |
| DO3MHA-11 | 2026-09-05 00:59:34 | 48.91886 | 11.22869 | 135° | 49km/h | 1310m | -3.4m/s | 12.9°C | 70.9% | 876.4hPa | 2.7V | 00:00:00 | 02:30:12 | 00:00:00 | |
| DO3MHA-12 | 2026-09-05 00:59:33 | 48.91895 | 11.22855 | 134° | 47km/h | 1314m | -4.5m/s | 13.2°C | 73.0% | 875.9hPa | 2.7V | 00:00:00 | 02:30:11 | 00:00:00 | |
| DO3MHA-11 | 2026-09-05 00:59:32 | 48.91903 | 11.22842 | 135° | 46km/h | 1319m | -4.3m/s | 13.4°C | 74.9% | 875.5hPa | 2.7V | 00:00:00 | 02:30:10 | 00:00:00 | |
| DO3MHA-12 | 2026-09-05 00:59:31 | 48.91911 | 11.22829 | 134° | 46km/h | 1323m | -3.6m/s | 13.3°C | 75.5% | 875.3hPa | 2.7V | 00:00:00 | 02:30:09 | 00:00:00 | |
| NBG1-10 | 2026-09-05 00:59:31 | 48.91911 | 11.22829 | 134° | 46km/h | 1323m | -3.6m/s | 13.3°C | 75.5% | 875.3hPa | 2.7V | 00:00:00 | 02:30:09 | 00:00:00 | |
| DO3MHA-11 | 2026-09-05 00:59:30 | 48.91919 | 11.22817 | 133° | 46km/h | 1326m | -3.8m/s | 13.2°C | 75.2% | 874.8hPa | 2.7V | 00:00:00 | 02:30:08 | 00:00:00 | |
| DO3MHA-12 | 2026-09-05 00:59:29 | 48.91927 | 11.22803 | 131° | 47km/h | 1330m | -4.1m/s | 13.1°C | 74.0% | 874.4hPa | 2.7V | 00:00:00 | 02:30:07 | 00:00:00 | |
| DO3MHA-11 | 2026-09-05 00:59:28 | 48.91934 | 11.22790 | 131° | 47km/h | 1334m | -4.1m/s | 13.1°C | 77.1% | 873.9hPa | 2.7V | 00:00:00 | 02:30:06 | 00:00:00 | |
| DB0NH | 2026-09-05 00:59:28 | 48.91934 | 11.22790 | 131° | 42km/h | 1334m | -4.1m/s | 13.1°C | 77.1% | 873.9hPa | 2.7V | 00:00:00 | 02:30:06 | 00:00:00 | |
| DO3MHA-12 | 2026-09-05 00:59:27 | 48.91942 | 11.22776 | 130° | 46km/h | 1338m | -3.5m/s | 12.9°C | 74.7% | 873.5hPa | 2.7V | 00:00:00 | 02:30:05 | 00:00:00 | |
| DO3MHA-11 | 2026-09-05 00:59:26 | 48.91949 | 11.22762 | 129° | 44km/h | 1342m | -4.1m/s | 12.9°C | 73.3% | 873.1hPa | 2.7V | 07:55:00 | 02:30:04 | 00:00:00 | |
| DO3MHA-12 | 2026-09-05 00:59:25 | 48.91956 | 11.22749 | 128° | 42km/h | 1346m | -4.0m/s | 13.7°C | 80.5% | 872.7hPa | 2.7V | 00:00:00 | 02:30:03 | 00:00:00 | |
| DO3MHA-11 | 2026-09-05 00:59:24 | 48.91962 | 11.22736 | 125° | 42km/h | 1350m | -4.2m/s | 13.8°C | 84.7% | 872.1hPa | 2.7V | 00:00:00 | 02:30:02 | 00:00:00 | |
| NBG1-10 | 2026-09-05 00:59:24 | 48.91962 | 11.22736 | 125° | 40km/h | 1350m | -4.2m/s | 13.8°C | 84.7% | 872.1hPa | 2.7V | 00:00:00 | 02:30:02 | 00:00:00 | |
| DO3MHA-12 | 2026-09-05 00:59:23 | 48.91968 | 11.22723 | 125° | 42km/h | 1355m | -4.4m/s | 13.7°C | 83.7% | 871.8hPa | 2.7V | 00:00:00 | 02:30:01 | 00:00:00 | |
| DO3MHA-11 | 2026-09-05 00:59:22 | 48.91975 | 11.22710 | 127° | 40km/h | 1359m | -4.8m/s | 13.7°C | 84.5% | 871.1hPa | 2.7V | 00:00:00 | 02:30:00 | 00:00:00 | |
| DO3MHA-12 | 2026-09-05 00:59:21 | 48.91980 | 11.22697 | 125° | 40km/h | 1364m | -5.1m/s | 13.7°C | 86.6% | 870.8hPa | 2.7V | 00:00:00 | 02:29:59 | 00:00:00 | |
| DO3MHA-11 | 2026-09-05 00:59:20 | 48.91986 | 11.22685 | 126° | 38km/h | 1369m | -4.5m/s | 13.7°C | 87.5% | 870.3hPa | 2.7V | 00:00:00 | 02:29:58 | 00:00:00 | |
| DO3MHA-12 | 2026-09-05 00:59:19 | 48.91992 | 11.22672 | 125° | 38km/h | 1373m | -4.5m/s | 13.6°C | 87.2% | 869.8hPa | 2.7V | 07:55:00 | 02:29:57 | 00:00:00 | |
| DB0NH | 2026-09-05 00:59:18 | 48.91997 | 11.22660 | 125° | 38km/h | 1378m | -4.7m/s | 13.6°C | 87.7% | 869.3hPa | 2.7V | 00:00:00 | 02:29:56 | 00:00:00 | |
| DO3MHA-11 | 2026-09-05 00:59:18 | 48.91997 | 11.22660 | 125° | 38km/h | 1378m | -4.7m/s | 13.6°C | 87.7% | 869.3hPa | 2.7V | 00:00:00 | 02:29:56 | 00:00:00 | |
| NBG1-10 | 2026-09-05 00:59:17 | 48.92003 | 11.22648 | 124° | 37km/h | 1383m | -4.8m/s | 13.6°C | 88.1% | 868.8hPa | 2.7V | 00:00:00 | 02:29:55 | 00:00:00 | |
| DO3MHA-12 | 2026-09-05 00:59:17 | 48.92003 | 11.22648 | 124° | 38km/h | 1383m | -4.8m/s | 13.6°C | 88.1% | 868.8hPa | 2.7V | 00:00:00 | 02:29:55 | 00:00:00 | |
| DO3MHA-11 | 2026-09-05 00:59:16 | 48.92008 | 11.22636 | 124° | 37km/h | 1387m | -4.5m/s | 13.5°C | 88.3% | 868.3hPa | 2.7V | 00:00:00 | 02:29:54 | 00:00:00 | |
| DO3MHA-12 | 2026-09-05 00:59:15 | 48.92013 | 11.22624 | 124° | 37km/h | 1392m | -4.6m/s | 13.5°C | 88.8% | 867.6hPa | 2.7V | 00:00:00 | 02:29:53 | 00:00:00 | |
| DO3MHA-11 | 2026-09-05 00:59:14 | 48.92018 | 11.22612 | 123° | 37km/h | 1397m | -4.5m/s | 13.5°C | 89.3% | 867.4hPa | 2.7V | 00:00:00 | 02:29:52 | 00:00:00 | |
| DO3MHA-12 | 2026-09-05 00:59:13 | 48.92023 | 11.22600 | 123° | 37km/h | 1401m | -4.0m/s | 13.4°C | 89.5% | 866.8hPa | 2.7V | 00:00:00 | 02:29:51 | 00:00:00 | |
| DO3MHA-11 | 2026-09-05 00:59:12 | 48.92029 | 11.22588 | 124° | 37km/h | 1405m | -4.1m/s | 13.4°C | 89.8% | 866.4hPa | 2.7V | 00:00:00 | 02:29:50 | 00:00:00 | |
| DO3MHA-12 | 2026-09-05 00:59:11 | 48.92034 | 11.22576 | 122° | 38km/h | 1409m | -4.4m/s | 13.3°C | 89.9% | 866.2hPa | 2.7V | 00:00:00 | 02:29:49 | 00:00:00 | |
| NBG1-10 | 2026-09-05 00:59:10 | 48.92039 | 11.22564 | 122° | 37km/h | 1413m | -4.4m/s | 13.3°C | 90.3% | 865.7hPa | 2.7V | 00:00:00 | 02:29:48 | 00:00:00 | |
| DO3MHA-11 | 2026-09-05 00:59:10 | 48.92039 | 11.22564 | 122° | 38km/h | 1413m | -4.4m/s | 13.3°C | 90.3% | 865.7hPa | 2.6V | 07:55:00 | 02:29:48 | 00:00:00 | |
| DO3MHA-12 | 2026-09-05 00:59:09 | 48.92044 | 11.22551 | 122° | 38km/h | 1417m | -3.9m/s | 13.3°C | 91.0% | 865.2hPa | 2.6V | 00:00:00 | 02:29:47 | 00:00:00 | |
| DB0NH | 2026-09-05 00:59:08 | 48.92049 | 11.22539 | 125° | 35km/h | 1421m | -3.8m/s | 13.3°C | 91.3% | 864.9hPa | 2.6V | 00:00:00 | 02:29:46 | 00:00:00 | |
| DO3MHA-11 | 2026-09-05 00:59:08 | 48.92049 | 11.22539 | 125° | 37km/h | 1421m | -3.8m/s | 13.3°C | 91.3% | 864.9hPa | 2.6V | 00:00:00 | 02:29:46 | 00:00:00 | |
| DO3MHA-12 | 2026-09-05 00:59:07 | 48.92055 | 11.22527 | 126° | 37km/h | 1425m | -4.2m/s | 13.2°C | 91.4% | 864.4hPa | 2.7V | 00:00:00 | 02:29:45 | 00:00:00 | |
| DO3MHA-11 | 2026-09-05 00:59:06 | 48.92060 | 11.22516 | 126° | 37km/h | 1429m | -3.5m/s | 13.2°C | 91.5% | 864.1hPa | 2.7V | 00:00:00 | 02:29:44 | 00:00:00 | |
| DO3MHA-11 | 2026-09-05 00:59:04 | 48.92070 | 11.22493 | 125° | 35km/h | 1437m | -4.0m/s | 13.2°C | 92.3% | 863.1hPa | 2.7V | 00:00:00 | 02:29:42 | 00:00:00 | |
| DO3MHA-12 | 2026-09-05 00:59:03 | 48.92075 | 11.22482 | 124° | 35km/h | 1440m | -4.2m/s | 13.1°C | 92.7% | 862.8hPa | 2.7V | 07:55:00 | 02:29:41 | 00:00:00 | |
| NBG1-10 | 2026-09-05 00:59:03 | 48.92075 | 11.22482 | 124° | 33km/h | 1440m | -4.2m/s | 13.1°C | 92.7% | 862.8hPa | 2.7V | 07:55:00 | 02:29:41 | 00:00:00 | |
| DO3MHA-11 | 2026-09-05 00:59:02 | 48.92080 | 11.22471 | 122° | 35km/h | 1444m | -4.4m/s | 13.1°C | 92.8% | 862.3hPa | 2.7V | 00:00:00 | 02:29:40 | 00:00:00 | |
| DO3MHA-12 | 2026-09-05 00:59:01 | 48.92084 | 11.22460 | 121° | 33km/h | 1449m | -4.3m/s | 13.1°C | 93.2% | 862.0hPa | 2.6V | 00:00:00 | 02:29:39 | 00:00:00 | |
| DO3MHA-11 | 2026-09-05 00:59:00 | 48.92088 | 11.22449 | 119° | 33km/h | 1453m | -4.2m/s | 13.1°C | 93.8% | 861.5hPa | 2.6V | 00:00:00 | 02:29:38 | 00:00:00 | |
| DO3MHA-12 | 2026-09-05 00:59:00 | 48.92093 | 11.22437 | 119° | 33km/h | 1457m | -4.3m/s | 13.0°C | 94.0% | 861.0hPa | 2.6V | 00:00:00 | 02:29:37 | 00:00:00 | |
| DO3MHA-11 | 2026-09-05 00:58:59 | 48.92097 | 11.22426 | 118° | 33km/h | 1461m | -4.0m/s | 13.0°C | 94.2% | 860.7hPa | 2.6V | 00:00:00 | 02:29:36 | 00:00:00 | |
| DB0NH | 2026-09-05 00:58:58 | 48.92097 | 11.22426 | 118° | 33km/h | 1461m | -4.0m/s | 13.0°C | 94.2% | 860.7hPa | 2.6V | 07:56:00 | 02:29:36 | 00:00:00 | |
| DO3MHA-12 | 2026-09-05 00:58:58 | 48.92100 | 11.22415 | 116° | 33km/h | 1465m | -4.3m/s | 12.9°C | 94.4% | 860.2hPa | 2.7V | 00:00:00 | 02:29:35 | 00:00:00 | |
| DO3MHA-11 | 2026-09-05 00:58:57 | 48.92104 | 11.22404 | 114° | 33km/h | 1470m | -4.2m/s | 12.9°C | 94.7% | 859.7hPa | 2.7V | 00:00:00 | 02:29:34 | 00:00:00 | |
| NBG1-10 | 2026-09-05 00:58:57 | 48.92104 | 11.22404 | 114° | 33km/h | 1470m | -4.2m/s | 12.9°C | 94.7% | 859.7hPa | 2.7V | 00:00:00 | 02:29:34 | 00:00:00 | |
| DO3MHA-12 | 2026-09-05 00:58:56 | 48.92107 | 11.22392 | 114° | 33km/h | 1474m | -4.7m/s | 12.8°C | 94.9% | 859.2hPa | 2.7V | 00:00:00 | 02:29:33 | 00:00:00 | |
| DO3MHA-11 | 2026-09-05 00:58:54 | 48.92110 | 11.22380 | 112° | 33km/h | 1478m | -4.3m/s | 12.8°C | 94.9% | 858.7hPa | 2.7V | 07:56:00 | 02:29:32 | 00:00:00 | |
| DO3MHA-12 | 2026-09-05 00:58:53 | 48.92114 | 11.22368 | 114° | 33km/h | 1483m | -4.7m/s | 12.7°C | 95.0% | 858.3hPa | 2.7V | 00:00:00 | 02:29:31 | 00:00:00 | |
| DO3MHA-11 | 2026-09-05 00:58:51 | 48.92120 | 11.22345 | 111° | 29km/h | 1491m | -4.0m/s | 12.7°C | 95.7% | 857.6hPa | 2.6V | 00:00:00 | 02:29:29 | 00:00:00 | |
| DO3MHA-12 | 2026-09-05 00:58:51 | 48.92120 | 11.22345 | 111° | 29km/h | 1491m | -4.0m/s | 12.7°C | 95.7% | 857.6hPa | 2.6V | 00:00:00 | 02:29:29 | 00:00:00 | |
| NBG1-10 | 2026-09-05 00:58:49 | 48.92125 | 11.22323 | 108° | 31km/h | 1499m | -4.3m/s | 12.6°C | 95.9% | 856.5hPa | 2.6V | 00:00:00 | 02:29:27 | 00:00:00 | |
| DO3MHA-11 | 2026-09-05 00:58:49 | 48.92125 | 11.22323 | 108° | 33km/h | 1499m | -4.3m/s | 12.6°C | 95.9% | 856.5hPa | 2.6V | 00:00:00 | 02:29:27 | 00:00:00 | |
| DO3MHA-12 | 2026-09-05 00:58:49 | 48.92125 | 11.22323 | 108° | 33km/h | 1499m | -4.3m/s | 12.6°C | 95.9% | 856.5hPa | 2.7V | 00:00:00 | 02:29:27 | 00:00:00 | |
| DB0NH | 2026-09-05 00:58:48 | 48.92128 | 11.22311 | 107° | 33km/h | 1504m | -4.5m/s | 12.6°C | 96.3% | 856.1hPa | 2.7V | 00:00:00 | 02:29:26 | 00:00:00 | |
| DO3MHA-11 | 2026-09-05 00:58:47 | 48.92130 | 11.22299 | 110° | 33km/h | 1508m | -4.0m/s | 12.5°C | 96.6% | 855.7hPa | 2.7V | 00:00:00 | 02:29:25 | 00:00:00 | |
| DO3MHA-12 | 2026-09-05 00:58:47 | 48.92130 | 11.22299 | 110° | 33km/h | 1508m | -4.0m/s | 12.5°C | 96.6% | 855.7hPa | 2.7V | 07:56:00 | 02:29:25 | 00:00:00 | |
| DO3MHA-11 | 2026-09-05 00:58:45 | 48.92135 | 11.22275 | 106° | 33km/h | 1517m | -5.4m/s | 12.5°C | 96.8% | 855.1hPa | 2.7V | 00:00:00 | 02:29:23 | 00:00:00 | |
| DO3MHA-12 | 2026-09-05 00:58:45 | 48.92135 | 11.22275 | 106° | 33km/h | 1517m | -5.4m/s | 12.5°C | 96.8% | 855.1hPa | 2.7V | 00:00:00 | 02:29:23 | 00:00:00 | |
| DO3MHA-11 | 2026-09-05 00:58:43 | 48.92139 | 11.22250 | 106° | 33km/h | 1526m | -5.1m/s | 12.4°C | 96.8% | 854.1hPa | 2.7V | 00:00:00 | 02:29:21 | 00:00:00 | |
| DO3MHA-12 | 2026-09-05 00:58:43 | 48.92139 | 11.22250 | 106° | 33km/h | 1526m | -5.1m/s | 12.4°C | 96.8% | 854.1hPa | 2.7V | 00:00:00 | 02:29:21 | 00:00:00 | |
| DO3MHA-11 | 2026-09-05 00:58:41 | 48.92143 | 11.22226 | 105° | 31km/h | 1535m | -3.7m/s | 12.4°C | 97.6% | 853.2hPa | 2.7V | 00:00:00 | 02:29:19 | 00:00:00 | |
| DO3MHA-12 | 2026-09-05 00:58:41 | 48.92143 | 11.22226 | 105° | 31km/h | 1535m | -3.7m/s | 12.4°C | 97.6% | 853.2hPa | 2.7V | 00:00:00 | 02:29:19 | 00:00:00 | |
| DO3MHA-11 | 2026-09-05 00:58:39 | 48.92147 | 11.22203 | 102° | 29km/h | 1544m | -4.4m/s | 12.5°C | 97.2% | 852.3hPa | 2.6V | 00:00:00 | 02:29:17 | 00:00:00 | |
| DO3MHA-12 | 2026-09-05 00:58:39 | 48.92147 | 11.22203 | 102° | 29km/h | 1544m | -4.4m/s | 12.5°C | 97.2% | 852.3hPa | 2.6V | 00:00:00 | 02:29:17 | 00:00:00 | |
| DB0NH | 2026-09-05 00:58:38 | 48.92148 | 11.22192 | 98° | 31km/h | 1547m | -4.0m/s | 12.6°C | 96.9% | 851.9hPa | 2.6V | 00:00:00 | 02:29:16 | 00:00:00 | |
| DO3MHA-11 | 2026-09-05 00:58:37 | 48.92149 | 11.22181 | 97° | 27km/h | 1552m | -4.5m/s | 12.7°C | 96.4% | 851.4hPa | 2.6V | 07:56:00 | 02:29:15 | 00:00:00 | |
| DO3MHA-12 | 2026-09-05 00:58:37 | 48.92149 | 11.22181 | 97° | 27km/h | 1552m | -4.5m/s | 12.7°C | 96.4% | 851.4hPa | 2.7V | 00:00:00 | 02:29:15 | 00:00:00 | |
| DO3MHA-11 | 2026-09-05 00:58:35 | 48.92150 | 11.22159 | 93° | 29km/h | 1560m | -4.3m/s | 12.6°C | 96.8% | 850.6hPa | 2.7V | 00:00:00 | 02:29:13 | 00:00:00 | |
| DO3MHA-12 | 2026-09-05 00:58:35 | 48.92150 | 11.22159 | 93° | 29km/h | 1560m | -4.3m/s | 12.6°C | 96.8% | 850.6hPa | 2.7V | 00:00:00 | 02:29:13 | 00:00:00 | |
| DO3MHA-11 | 2026-09-05 00:58:33 | 48.92151 | 11.22137 | 90° | 31km/h | 1569m | -4.2m/s | 12.5°C | 97.0% | 850.0hPa | 2.7V | 00:00:00 | 02:29:11 | 00:00:00 | |
| DO3MHA-12 | 2026-09-05 00:58:33 | 48.92151 | 11.22137 | 90° | 31km/h | 1569m | -4.2m/s | 12.5°C | 97.0% | 850.0hPa | 2.7V | 00:00:00 | 02:29:11 | 00:00:00 | |
| NBG1-10 | 2026-09-05 00:58:32 | 48.92150 | 11.22125 | 87° | 35km/h | 1573m | -4.1m/s | 12.5°C | 96.9% | 849.3hPa | 2.7V | 00:00:00 | 02:29:10 | 00:00:00 | |
| DO3MHA-11 | 2026-09-05 00:58:31 | 48.92150 | 11.22113 | 87° | 35km/h | 1577m | -3.5m/s | 12.6°C | 96.7% | 849.1hPa | 2.7V | 00:00:00 | 02:29:09 | 00:00:00 | |
| DO3MHA-12 | 2026-09-05 00:58:31 | 48.92150 | 11.22113 | 87° | 35km/h | 1577m | -3.5m/s | 12.6°C | 96.7% | 849.1hPa | 2.7V | 07:56:00 | 02:29:09 | 00:00:00 | |
| DO3MHA-11 | 2026-09-05 00:58:29 | 48.92149 | 11.22087 | 90° | 35km/h | 1583m | -3.2m/s | 12.7°C | 95.6% | 848.4hPa | 2.7V | 00:00:00 | 02:29:07 | 00:00:00 | |
| DO3MHA-12 | 2026-09-05 00:58:29 | 48.92149 | 11.22087 | 90° | 35km/h | 1583m | -3.2m/s | 12.7°C | 95.6% | 848.4hPa | 2.7V | 00:00:00 | 02:29:07 | 00:00:00 | |
| DB0NH | 2026-09-05 00:58:28 | 48.92149 | 11.22073 | 90° | 35km/h | 1587m | -4.2m/s | 12.7°C | 95.6% | 848.2hPa | 2.7V | 00:00:00 | 02:29:06 | 00:00:00 | |
| DO3MHA-12 | 2026-09-05 00:58:27 | 48.92149 | 11.22060 | 88° | 35km/h | 1591m | -4.1m/s | 12.7°C | 95.8% | 847.7hPa | 2.7V | 00:00:00 | 02:29:05 | 00:00:00 | |
| DO3MHA-11 | 2026-09-05 00:58:27 | 48.92149 | 11.22060 | 88° | 35km/h | 1591m | -4.1m/s | 12.7°C | 95.8% | 847.7hPa | 2.7V | 00:00:00 | 02:29:05 | 00:00:00 | |
| DO3MHA-11 | 2026-09-05 00:58:25 | 48.92148 | 11.22034 | 85° | 35km/h | 1599m | -3.9m/s | 12.7°C | 95.5% | 846.8hPa | 2.7V | 00:00:00 | 02:29:03 | 00:00:00 | |
| DO3MHA-12 | 2026-09-05 00:58:25 | 48.92148 | 11.22034 | 85° | 35km/h | 1599m | -3.9m/s | 12.7°C | 95.5% | 846.8hPa | 2.7V | 00:00:00 | 02:29:03 | 00:00:00 | |
| DO3MHA-11 | 2026-09-05 00:58:23 | 48.92146 | 11.22008 | 84° | 35km/h | 1608m | -4.5m/s | 12.8°C | 94.3% | 846.0hPa | 2.7V | 00:00:00 | 02:29:01 | 00:00:00 | |
| DO3MHA-12 | 2026-09-05 00:58:23 | 48.92146 | 11.22008 | 84° | 35km/h | 1608m | -4.5m/s | 12.8°C | 94.3% | 846.0hPa | 2.7V | 00:00:00 | 02:29:01 | 00:00:00 | |
| DO3MHA-11 | 2026-09-05 00:58:21 | 48.92144 | 11.21982 | 84° | 35km/h | 1616m | -4.4m/s | 12.7°C | 94.6% | 845.1hPa | 2.6V | 07:56:00 | 02:28:59 | 00:00:00 | |
| DO3MHA-12 | 2026-09-05 00:58:21 | 48.92144 | 11.21982 | 84° | 35km/h | 1616m | -4.4m/s | 12.7°C | 94.6% | 845.1hPa | 2.6V | 00:00:00 | 02:28:59 | 00:00:00 | |
| DO3MHA-11 | 2026-09-05 00:58:19 | 48.92142 | 11.21955 | 84° | 37km/h | 1625m | -4.4m/s | 12.6°C | 95.3% | 844.1hPa | 2.6V | 00:00:00 | 02:28:57 | 00:00:00 | |
| DO3MHA-12 | 2026-09-05 00:58:19 | 48.92142 | 11.21955 | 84° | 37km/h | 1625m | -4.4m/s | 12.6°C | 95.3% | 844.1hPa | 2.7V | 00:00:00 | 02:28:57 | 00:00:00 | |
| DB0NH | 2026-09-05 00:58:19 | 48.92141 | 11.21942 | 84° | 37km/h | 1630m | -4.6m/s | 12.6°C | 95.4% | 843.7hPa | 2.7V | 00:00:00 | 02:28:56 | 00:00:00 | |
| DO3MHA-11 | 2026-09-05 00:58:17 | 48.92140 | 11.21928 | 84° | 37km/h | 1634m | -4.3m/s | 12.6°C | 95.3% | 843.4hPa | 2.7V | 00:00:00 | 02:28:55 | 00:00:00 | |
| DO3MHA-12 | 2026-09-05 00:58:17 | 48.92140 | 11.21928 | 84° | 37km/h | 1634m | -4.3m/s | 12.6°C | 95.3% | 843.4hPa | 2.7V | 00:00:00 | 02:28:55 | 00:00:00 | |
| DO3MHA-11 | 2026-09-05 00:58:15 | 48.92139 | 11.21900 | 85° | 37km/h | 1643m | -4.1m/s | 12.6°C | 94.9% | 842.4hPa | 2.7V | 00:00:00 | 02:28:53 | 00:00:00 | |
| DO3MHA-12 | 2026-09-05 00:58:15 | 48.92139 | 11.21900 | 85° | 37km/h | 1643m | -4.1m/s | 12.6°C | 94.9% | 842.4hPa | 2.7V | 07:56:00 | 02:28:53 | 00:00:00 | |
| DO3MHA-11 | 2026-09-05 00:58:13 | 48.92137 | 11.21872 | 85° | 37km/h | 1652m | -4.4m/s | 12.7°C | 94.6% | 841.6hPa | 2.7V | 00:00:00 | 02:28:51 | 00:00:00 | |
| DO3MHA-12 | 2026-09-05 00:58:13 | 48.92137 | 11.21872 | 85° | 37km/h | 1652m | -4.4m/s | 12.7°C | 94.6% | 841.6hPa | 2.7V | 00:00:00 | 02:28:51 | 00:00:00 | |
| DO3MHA-11 | 2026-09-05 00:58:11 | 48.92135 | 11.21843 | 86° | 38km/h | 1661m | -4.2m/s | 12.7°C | 94.3% | 840.7hPa | 2.7V | 00:00:00 | 02:28:49 | 00:00:00 | |
| DO3MHA-12 | 2026-09-05 00:58:11 | 48.92135 | 11.21843 | 86° | 38km/h | 1661m | -4.2m/s | 12.7°C | 94.3% | 840.7hPa | 2.7V | 00:00:00 | 02:28:49 | 00:00:00 | |
| NBG1-10 | 2026-09-05 00:58:10 | 48.92134 | 11.21828 | 86° | 42km/h | 1665m | -4.3m/s | 12.7°C | 94.2% | 840.2hPa | 2.7V | 00:00:00 | 02:28:48 | 00:00:00 | |
| DO3MHA-11 | 2026-09-05 00:58:09 | 48.92134 | 11.21814 | 85° | 38km/h | 1669m | -4.3m/s | 12.6°C | 94.2% | 839.7hPa | 2.7V | 00:00:00 | 02:28:47 | 00:00:00 | |
| DO3MHA-12 | 2026-09-05 00:58:09 | 48.92134 | 11.21814 | 85° | 38km/h | 1669m | -4.3m/s | 12.6°C | 94.2% | 839.7hPa | 2.7V | 00:00:00 | 02:28:47 | 00:00:00 | |
| DB0NH | 2026-09-05 00:58:08 | 48.92133 | 11.21799 | 84° | 42km/h | 1673m | -4.0m/s | 12.6°C | 94.4% | 839.4hPa | 2.7V | 00:00:00 | 02:28:46 | 00:00:00 | |
| DO3MHA-11 | 2026-09-05 00:58:07 | 48.92132 | 11.21783 | 84° | 40km/h | 1678m | -4.6m/s | 12.6°C | 94.5% | 839.1hPa | 2.7V | 00:00:00 | 02:28:45 | 00:00:00 | |
| DO3MHA-12 | 2026-09-05 00:58:07 | 48.92132 | 11.21783 | 84° | 40km/h | 1678m | -4.6m/s | 12.6°C | 94.5% | 839.1hPa | 2.7V | 00:00:00 | 02:28:45 | 00:00:00 | |
| DO3MHA-11 | 2026-09-05 00:58:05 | 48.92129 | 11.21752 | 81° | 42km/h | 1687m | -4.3m/s | 12.5°C | 95.0% | 838.1hPa | 2.7V | 07:56:00 | 02:28:43 | 00:00:00 | |
| DO3MHA-12 | 2026-09-05 00:58:05 | 48.92129 | 11.21752 | 81° | 42km/h | 1687m | -4.3m/s | 12.5°C | 95.0% | 838.1hPa | 2.7V | 00:00:00 | 02:28:43 | 00:00:00 | |
| DO3MHA-12 | 2026-09-05 00:58:03 | 48.92126 | 11.21721 | 82° | 42km/h | 1696m | -4.8m/s | 12.5°C | 94.8% | 837.1hPa | 2.6V | 00:00:00 | 02:28:41 | 00:00:00 | |
| DO3MHA-11 | 2026-09-05 00:58:03 | 48.92126 | 11.21721 | 82° | 42km/h | 1696m | -4.8m/s | 12.5°C | 94.8% | 837.1hPa | 2.6V | 00:00:00 | 02:28:41 | 00:00:00 | |
| DO3MHA-11 | 2026-09-05 00:58:01 | 48.92123 | 11.21688 | 83° | 42km/h | 1705m | -4.8m/s | 12.4°C | 94.9% | 836.3hPa | 2.6V | 00:00:00 | 02:28:39 | 00:00:00 | |
| DO3MHA-12 | 2026-09-05 00:58:01 | 48.92123 | 11.21688 | 83° | 42km/h | 1705m | -4.8m/s | 12.4°C | 94.9% | 836.3hPa | 2.7V | 00:00:00 | 02:28:39 | 00:00:00 | |
| DO3MHA-11 | 2026-09-05 00:57:59 | 48.92120 | 11.21657 | 82° | 42km/h | 1714m | -4.1m/s | 12.4°C | 95.3% | 835.3hPa | 2.7V | 00:00:00 | 02:28:37 | 00:00:00 | |
| DO3MHA-12 | 2026-09-05 00:57:59 | 48.92120 | 11.21657 | 82° | 42km/h | 1714m | -4.1m/s | 12.4°C | 95.3% | 835.3hPa | 2.7V | 07:57:00 | 02:28:37 | 00:00:00 | |
| DB0NH | 2026-09-05 00:57:58 | 48.92119 | 11.21641 | 83° | 44km/h | 1718m | -4.8m/s | 12.3°C | 95.5% | 835.0hPa | 2.7V | 00:00:00 | 02:28:36 | 00:00:00 | |
| DO3MHA-11 | 2026-09-05 00:57:57 | 48.92117 | 11.21625 | 83° | 42km/h | 1723m | -4.6m/s | 12.3°C | 95.6% | 834.7hPa | 2.7V | 00:00:00 | 02:28:35 | 00:00:00 | |
| DO3MHA-12 | 2026-09-05 00:57:57 | 48.92117 | 11.21625 | 83° | 42km/h | 1723m | -4.6m/s | 12.3°C | 95.6% | 834.7hPa | 2.7V | 00:00:00 | 02:28:35 | 00:00:00 | |
| DO3MHA-11 | 2026-09-05 00:57:55 | 48.92114 | 11.21592 | 82° | 44km/h | 1732m | -4.4m/s | 12.3°C | 95.8% | 833.6hPa | 2.7V | 00:00:00 | 02:28:33 | 00:00:00 | |
| DO3MHA-12 | 2026-09-05 00:57:55 | 48.92114 | 11.21592 | 82° | 44km/h | 1732m | -4.4m/s | 12.3°C | 95.8% | 833.6hPa | 2.7V | 00:00:00 | 02:28:33 | 00:00:00 | |
| DO3MHA-11 | 2026-09-05 00:57:53 | 48.92112 | 11.21559 | 84° | 44km/h | 1741m | -4.7m/s | 12.3°C | 95.7% | 832.6hPa | 2.7V | 00:00:00 | 02:28:31 | 00:00:00 | |
| DO3MHA-12 | 2026-09-05 00:57:53 | 48.92112 | 11.21559 | 84° | 44km/h | 1741m | -4.7m/s | 12.3°C | 95.7% | 832.6hPa | 2.7V | 00:00:00 | 02:28:31 | 00:00:00 | |
| DO3MHA-11 | 2026-09-05 00:57:51 | 48.92109 | 11.21525 | 84° | 46km/h | 1751m | -4.9m/s | 12.2°C | 95.8% | 831.7hPa | 2.7V | 00:00:00 | 02:28:29 | 00:00:00 | |
| DO3MHA-12 | 2026-09-05 00:57:51 | 48.92109 | 11.21525 | 84° | 46km/h | 1751m | -4.9m/s | 12.2°C | 95.8% | 831.7hPa | 2.7V | 00:00:00 | 02:28:29 | 00:00:00 | |
| DO3MHA-11 | 2026-09-05 00:57:49 | 48.92107 | 11.21490 | 85° | 46km/h | 1761m | -4.8m/s | 12.1°C | 96.3% | 830.8hPa | 2.7V | 07:57:00 | 02:28:27 | 00:00:00 | |
| DO3MHA-12 | 2026-09-05 00:57:49 | 48.92107 | 11.21490 | 85° | 46km/h | 1761m | -4.8m/s | 12.1°C | 96.3% | 830.8hPa | 2.7V | 00:00:00 | 02:28:27 | 00:00:00 | |
| DB0NH | 2026-09-05 00:57:48 | 48.92106 | 11.21473 | 85° | 46km/h | 1766m | -5.0m/s | 12.1°C | 96.4% | 830.2hPa | 2.7V | 00:00:00 | 02:28:26 | 00:00:00 | |
| NBG1-10 | 2026-09-05 00:57:48 | 48.92106 | 11.21473 | 85° | 47km/h | 1766m | -5.0m/s | 12.1°C | 96.4% | 830.2hPa | 2.7V | 00:00:00 | 02:28:26 | 00:00:00 | |
| DO3MHA-11 | 2026-09-05 00:57:48 | 48.92104 | 11.21455 | 84° | 46km/h | 1771m | -5.2m/s | 12.0°C | 96.5% | 829.9hPa | 2.7V | 00:00:00 | 02:28:25 | 00:00:00 | |
| DO3MHA-12 | 2026-09-05 00:57:47 | 48.92104 | 11.21455 | 84° | 46km/h | 1771m | -5.2m/s | 12.0°C | 96.5% | 829.9hPa | 2.7V | 00:00:00 | 02:28:25 | 00:00:00 | |
| DO3MHA-11 | 2026-09-05 00:57:45 | 48.92101 | 11.21421 | 83° | 46km/h | 1781m | -4.9m/s | 11.9°C | 97.2% | 828.8hPa | 2.6V | 00:00:00 | 02:28:23 | 00:00:00 | |
| DO3MHA-12 | 2026-09-05 00:57:45 | 48.92101 | 11.21421 | 83° | 46km/h | 1781m | -4.9m/s | 11.9°C | 97.2% | 828.8hPa | 2.6V | 00:00:00 | 02:28:23 | 00:00:00 | |
| DO3MHA-11 | 2026-09-05 00:57:43 | 48.92099 | 11.21386 | 83° | 46km/h | 1791m | -5.0m/s | 11.9°C | 97.2% | 827.8hPa | 2.6V | 00:00:00 | 02:28:21 | 00:00:00 | |
| DO3MHA-12 | 2026-09-05 00:57:43 | 48.92099 | 11.21386 | 83° | 46km/h | 1791m | -5.0m/s | 11.9°C | 97.2% | 827.8hPa | 2.7V | 07:57:00 | 02:28:21 | 00:00:00 | |
| DO3MHA-11 | 2026-09-05 00:57:41 | 48.92096 | 11.21351 | 83° | 47km/h | 1801m | -5.3m/s | 11.9°C | 96.9% | 826.7hPa | 2.7V | 00:00:00 | 02:28:19 | 00:00:00 | |
| DO3MHA-12 | 2026-09-05 00:57:41 | 48.92096 | 11.21351 | 83° | 47km/h | 1801m | -5.3m/s | 11.9°C | 96.9% | 826.7hPa | 2.7V | 00:00:00 | 02:28:19 | 00:00:00 | |
| DO3MHA-11 | 2026-09-05 00:57:39 | 48.92092 | 11.21315 | 84° | 49km/h | 1811m | -4.9m/s | 11.8°C | 97.0% | 825.7hPa | 2.6V | 00:00:00 | 02:28:17 | 00:00:00 | |
| DO3MHA-12 | 2026-09-05 00:57:39 | 48.92092 | 11.21315 | 84° | 49km/h | 1811m | -4.9m/s | 11.8°C | 97.0% | 825.7hPa | 2.6V | 00:00:00 | 02:28:17 | 00:00:00 | |
| DB0NH | 2026-09-05 00:57:38 | 48.92091 | 11.21296 | 84° | 49km/h | 1816m | -5.0m/s | 11.8°C | 97.1% | 825.3hPa | 2.6V | 07:57:00 | 02:28:16 | 00:00:00 | |
| DO3MHA-11 | 2026-09-05 00:57:37 | 48.92090 | 11.21278 | 85° | 49km/h | 1821m | -5.3m/s | 11.8°C | 96.9% | 824.8hPa | 2.6V | 00:00:00 | 02:28:15 | 00:00:00 | |
| DO3MHA-12 | 2026-09-05 00:57:37 | 48.92090 | 11.21278 | 85° | 49km/h | 1821m | -5.3m/s | 11.8°C | 96.9% | 824.8hPa | 2.7V | 00:00:00 | 02:28:15 | 00:00:00 | |
| DO3MHA-11 | 2026-09-05 00:57:35 | 48.92088 | 11.21240 | 87° | 49km/h | 1832m | -5.1m/s | 11.7°C | 97.0% | 823.8hPa | 2.7V | 00:00:00 | 02:28:13 | 00:00:00 | |
| DO3MHA-12 | 2026-09-05 00:57:35 | 48.92088 | 11.21240 | 87° | 49km/h | 1832m | -5.1m/s | 11.7°C | 97.0% | 823.8hPa | 2.7V | 00:00:00 | 02:28:13 | 00:00:00 | |
| DO3MHA-11 | 2026-09-05 00:57:33 | 48.92087 | 11.21203 | 89° | 47km/h | 1842m | -5.5m/s | 11.6°C | 97.5% | 822.7hPa | 2.7V | 07:57:00 | 02:28:11 | 00:00:00 | |
| DO3MHA-12 | 2026-09-05 00:57:33 | 48.92087 | 11.21203 | 89° | 47km/h | 1842m | -5.5m/s | 11.6°C | 97.5% | 822.7hPa | 2.7V | 00:00:00 | 02:28:11 | 00:00:00 | |
| DO3MHA-11 | 2026-09-05 00:57:31 | 48.92086 | 11.21166 | 90° | 49km/h | 1852m | -4.8m/s | 11.5°C | 97.6% | 821.8hPa | 2.7V | 00:00:00 | 02:28:09 | 00:00:00 | |
| DO3MHA-12 | 2026-09-05 00:57:31 | 48.92086 | 11.21166 | 90° | 49km/h | 1852m | -4.8m/s | 11.5°C | 97.6% | 821.8hPa | 2.6V | 00:00:00 | 02:28:09 | 00:00:00 | |
| DO3MHA-11 | 2026-09-05 00:57:29 | 48.92086 | 11.21128 | 91° | 49km/h | 1862m | -5.0m/s | 11.5°C | 97.6% | 820.8hPa | 2.6V | 00:00:00 | 02:28:07 | 00:00:00 | |
| DO3MHA-12 | 2026-09-05 00:57:29 | 48.92086 | 11.21128 | 91° | 49km/h | 1862m | -5.0m/s | 11.5°C | 97.6% | 820.8hPa | 2.6V | 00:00:00 | 02:28:07 | 00:00:00 | |
| DB0NH | 2026-09-05 00:57:28 | 48.92086 | 11.21110 | 90° | 53km/h | 1867m | -5.0m/s | 11.5°C | 97.4% | 820.2hPa | 2.7V | 00:00:00 | 02:28:06 | 00:00:00 | |
| DO3MHA-11 | 2026-09-05 00:57:27 | 48.92086 | 11.21090 | 88° | 51km/h | 1872m | -4.2m/s | 11.4°C | 97.6% | 819.8hPa | 2.7V | 00:00:00 | 02:28:05 | 00:00:00 | |
| DO3MHA-12 | 2026-09-05 00:57:27 | 48.92086 | 11.21090 | 88° | 51km/h | 1872m | -4.2m/s | 11.4°C | 97.6% | 819.8hPa | 2.7V | 07:57:00 | 02:28:05 | 00:00:00 | |
| NBG1-10 | 2026-09-05 00:57:26 | 48.92086 | 11.21071 | 87° | 57km/h | 1877m | -4.5m/s | 11.4°C | 97.4% | 819.3hPa | 2.7V | 00:00:00 | 02:28:04 | 00:00:00 | |
| DO3MHA-11 | 2026-09-05 00:57:25 | 48.92085 | 11.21050 | 86° | 55km/h | 1881m | -4.8m/s | 11.4°C | 97.5% | 818.9hPa | 2.7V | 00:00:00 | 02:28:03 | 00:00:00 | |
| DO3MHA-12 | 2026-09-05 00:57:25 | 48.92085 | 11.21050 | 86° | 55km/h | 1881m | -4.8m/s | 11.4°C | 97.5% | 818.9hPa | 2.7V | 00:00:00 | 02:28:03 | 00:00:00 | |
| DO3MHA-11 | 2026-09-05 00:57:23 | 48.92083 | 11.21008 | 90° | 55km/h | 1892m | -5.7m/s | 11.3°C | 97.8% | 817.8hPa | 2.7V | 00:00:00 | 02:28:01 | 00:00:00 | |
| DO3MHA-12 | 2026-09-05 00:57:23 | 48.92083 | 11.21008 | 90° | 55km/h | 1892m | -5.7m/s | 11.3°C | 97.8% | 817.8hPa | 2.7V | 00:00:00 | 02:28:01 | 00:00:00 | |
| DO3MHA-12 | 2026-09-05 00:57:21 | 48.92084 | 11.20966 | 93° | 53km/h | 1903m | -5.7m/s | 11.2°C | 98.4% | 816.7hPa | 2.7V | 00:00:00 | 02:27:59 | 00:00:00 | |
| DO3MHA-11 | 2026-09-05 00:57:21 | 48.92084 | 11.20966 | 93° | 53km/h | 1903m | -5.7m/s | 11.2°C | 98.4% | 816.7hPa | 2.7V | 00:00:00 | 02:27:59 | 00:00:00 | |
| DO3MHA-11 | 2026-09-05 00:57:19 | 48.92085 | 11.20925 | 92° | 55km/h | 1914m | -4.7m/s | 11.1°C | 98.7% | 815.8hPa | 2.7V | 00:00:00 | 02:27:57 | 00:00:00 | |
| DO3MHA-12 | 2026-09-05 00:57:19 | 48.92085 | 11.20925 | 92° | 55km/h | 1914m | -4.7m/s | 11.1°C | 98.7% | 815.8hPa | 2.6V | 00:00:00 | 02:27:57 | 00:00:00 | |
| DB0NH | 2026-09-05 00:57:18 | 48.92085 | 11.20904 | 91° | 57km/h | 1918m | -4.6m/s | 11.1°C | 98.9% | 815.3hPa | 2.6V | 00:00:00 | 02:27:56 | 00:00:00 | |
| DO3MHA-11 | 2026-09-05 00:57:17 | 48.92085 | 11.20883 | 89° | 55km/h | 1923m | -5.0m/s | 11.0°C | 99.2% | 814.8hPa | 2.6V | 07:57:00 | 02:27:55 | 00:00:00 | |
| DO3MHA-12 | 2026-09-05 00:57:17 | 48.92085 | 11.20883 | 89° | 55km/h | 1923m | -5.0m/s | 11.0°C | 99.2% | 814.8hPa | 2.6V | 00:00:00 | 02:27:55 | 00:00:00 | |
| DO3MHA-11 | 2026-09-05 00:57:15 | 48.92084 | 11.20841 | 88° | 57km/h | 1934m | -5.7m/s | 11.0°C | 98.8% | 813.9hPa | 2.7V | 00:00:00 | 02:27:53 | 00:00:00 | |
| DO3MHA-12 | 2026-09-05 00:57:15 | 48.92084 | 11.20841 | 88° | 57km/h | 1934m | -5.7m/s | 11.0°C | 98.8% | 813.9hPa | 2.7V | 00:00:00 | 02:27:53 | 00:00:00 | |
| DO3MHA-11 | 2026-09-05 00:57:13 | 48.92083 | 11.20798 | 90° | 57km/h | 1945m | -5.3m/s | 10.9°C | 98.9% | 813.0hPa | 2.7V | 00:00:00 | 02:27:51 | 00:00:00 | |
| DO3MHA-12 | 2026-09-05 00:57:13 | 48.92083 | 11.20798 | 90° | 57km/h | 1945m | -5.3m/s | 10.9°C | 98.9% | 813.0hPa | 2.7V | 00:00:00 | 02:27:51 | 00:00:00 | |
| DO3MHA-11 | 2026-09-05 00:57:11 | 48.92083 | 11.20754 | 90° | 58km/h | 1956m | -5.3m/s | 10.8°C | 99.2% | 811.8hPa | 2.7V | 00:00:00 | 02:27:49 | 00:00:00 | |
| DO3MHA-12 | 2026-09-05 00:57:11 | 48.92083 | 11.20754 | 90° | 58km/h | 1956m | -5.3m/s | 10.8°C | 99.2% | 811.8hPa | 2.7V | 07:57:00 | 02:27:49 | 00:00:00 | |
| DO3MHA-11 | 2026-09-05 00:57:09 | 48.92084 | 11.20708 | 93° | 60km/h | 1967m | -5.8m/s | 10.8°C | 98.0% | 810.7hPa | 2.7V | 00:00:00 | 02:27:47 | 00:00:00 | |
| DO3MHA-12 | 2026-09-05 00:57:09 | 48.92084 | 11.20708 | 93° | 60km/h | 1967m | -5.8m/s | 10.8°C | 98.0% | 810.7hPa | 2.7V | 00:00:00 | 02:27:47 | 00:00:00 | |
| DB0NH | 2026-09-05 00:57:08 | 48.92084 | 11.20685 | 93° | 62km/h | 1973m | -6.0m/s | 10.8°C | 97.3% | 810.2hPa | 2.7V | 00:00:00 | 02:27:46 | 00:00:00 | |
| DO3MHA-11 | 2026-09-05 00:57:07 | 48.92085 | 11.20662 | 93° | 62km/h | 1979m | -6.0m/s | 10.7°C | 97.7% | 809.4hPa | 2.7V | 00:00:00 | 02:27:45 | 00:00:00 | |
| DO3MHA-12 | 2026-09-05 00:57:07 | 48.92085 | 11.20662 | 93° | 62km/h | 1979m | -6.0m/s | 10.7°C | 97.7% | 809.4hPa | 2.7V | 00:00:00 | 02:27:45 | 00:00:00 | |
| DO3MHA-11 | 2026-09-05 00:57:05 | 48.92086 | 11.20615 | 92° | 60km/h | 1990m | -5.3m/s | 10.7°C | 97.2% | 808.6hPa | 2.7V | 00:00:00 | 02:27:43 | 00:00:00 | |
| DO3MHA-12 | 2026-09-05 00:57:05 | 48.92086 | 11.20615 | 92° | 60km/h | 1990m | -5.3m/s | 10.7°C | 97.2% | 808.6hPa | 2.7V | 00:00:00 | 02:27:43 | 00:00:00 | |
| NBG1-10 | 2026-09-05 00:57:04 | 48.92086 | 11.20592 | 91° | 64km/h | 1996m | -5.4m/s | 10.6°C | 97.6% | 808.1hPa | 2.7V | 00:00:00 | 02:27:42 | 00:00:00 | |
| DO3MHA-12 | 2026-09-05 00:57:03 | 48.92086 | 11.20568 | 90° | 62km/h | 2001m | -5.6m/s | 10.6°C | 98.1% | 807.5hPa | 2.7V | 00:00:00 | 02:27:41 | 00:00:00 | |
| DO3MHA-12 | 2026-09-05 00:57:01 | 48.92086 | 11.20521 | 91° | 62km/h | 2013m | -6.2m/s | 10.5°C | 97.7% | 806.2hPa | 2.7V | 00:00:00 | 02:27:39 | 00:00:00 | |
| DO3MHA-12 | 2026-09-05 00:56:59 | 48.92086 | 11.20473 | 92° | 62km/h | 2025m | -6.0m/s | 10.4°C | 98.5% | 805.3hPa | 2.7V | 00:00:00 | 02:27:37 | 00:00:00 | |
| DB0NH | 2026-09-05 00:56:58 | 48.92087 | 11.20449 | 92° | 64km/h | 2031m | -6.0m/s | 10.3°C | 98.4% | 804.7hPa | 2.7V | 00:00:00 | 02:27:36 | 00:00:00 | |
| DO3MHA-12 | 2026-09-05 00:56:57 | 48.92087 | 11.20425 | 92° | 62km/h | 2037m | -6.0m/s | 10.3°C | 98.5% | 803.9hPa | 2.7V | 00:00:00 | 02:27:35 | 00:00:00 | |
| DO3MHA-12 | 2026-09-05 00:56:55 | 48.92088 | 11.20377 | 92° | 64km/h | 2049m | -5.6m/s | 10.1°C | 0% | 802.9hPa | 2.7V | 07:58:00 | 02:27:33 | 00:00:00 | |
| DO3MHA-12 | 2026-09-05 00:56:50 | 48.92090 | 11.20255 | 90° | 66km/h | 2079m | -6.0m/s | 9.9°C | 0% | 799.9hPa | 2.7V | 00:00:00 | 02:27:28 | 00:00:00 | |
| DO3MHA-11 | 2026-09-05 00:56:45 | 48.92090 | 11.20130 | 93° | 66km/h | 2109m | -6.0m/s | 9.7°C | 0% | 797.0hPa | 2.7V | 00:00:00 | 02:27:23 | 00:00:00 | |
| DO3MHA-12 | 2026-09-05 00:56:40 | 48.92092 | 11.20005 | 90° | 66km/h | 2136m | -5.5m/s | 9.6°C | 0% | 794.4hPa | 2.7V | 00:00:00 | 02:27:18 | 00:00:00 | |
| DL6DJ-15 | 2026-09-05 00:56:37 | 48.92091 | 11.19903 | 89° | 68km/h | 2158m | -5.2m/s | 9.5°C | 100.0% | 792.5hPa | 2.7V | 00:00:00 | 00:00:00 | 00:00:00 | |
| DO3MHA-12 | 2026-09-05 00:56:35 | 48.92090 | 11.19876 | 90° | 71km/h | 2163m | -5.2m/s | 9.4°C | 0% | 791.8hPa | 2.7V | 00:00:00 | 02:27:13 | 00:00:00 | |
| DO3MHA-12 | 2026-09-05 00:56:30 | 48.92091 | 11.19740 | 91° | 69km/h | 2189m | -5.1m/s | 9.3°C | 98.8% | 789.2hPa | 2.6V | 00:00:00 | 02:27:08 | 00:00:00 | |
| DO3MHA-12 | 2026-09-05 00:56:25 | 48.92093 | 11.19606 | 91° | 69km/h | 2218m | -5.4m/s | 9.0°C | 0% | 786.5hPa | 2.6V | 00:00:00 | 02:27:03 | 00:00:00 | |
| DO3MHA-12 | 2026-09-05 00:56:20 | 48.92096 | 11.19472 | 93° | 71km/h | 2246m | -4.9m/s | 8.8°C | 0% | 783.9hPa | 2.6V | 00:00:00 | 02:26:58 | 00:00:00 | |
| DB0NH | 2026-09-05 00:56:18 | 48.92097 | 11.19418 | 92° | 73km/h | 2256m | -5.2m/s | 8.8°C | 0% | 782.9hPa | 2.7V | 00:00:00 | 02:26:56 | 00:00:00 | |
| DO3MHA-12 | 2026-09-05 00:56:15 | 48.92099 | 11.19335 | 91° | 73km/h | 2272m | -5.4m/s | 8.7°C | 0% | 781.3hPa | 2.7V | 07:58:00 | 02:26:53 | 00:00:00 | |
| DO3MHA-12 | 2026-09-05 00:56:10 | 48.92099 | 11.19194 | 90° | 75km/h | 2300m | -5.5m/s | 8.6°C | 0% | 778.9hPa | 2.7V | 00:00:00 | 02:26:48 | 00:00:00 | |
| DL6DJ-15 | 2026-09-05 00:56:06 | 48.92099 | 11.19051 | 88° | 73km/h | 2327m | -5.5m/s | 8.4°C | 100.0% | 776.3hPa | 2.7V | 00:00:00 | 00:00:00 | 00:00:00 | |
| DO3MHA-12 | 2026-09-05 00:56:05 | 48.92099 | 11.19051 | 89° | 75km/h | 2327m | -5.5m/s | 8.4°C | 0% | 776.3hPa | 2.7V | 00:00:00 | 02:26:43 | 00:00:00 | |
| DF3TZ-5 | 2026-09-05 00:55:46 | 48.92071 | 11.18486 | 84° | 77km/h | 2425m | -5.3m/s | 8.3°C | 88.6% | 767.2hPa | 2.7V | 00:00:00 | 00:00:00 | 00:00:00 | |
| DO3MHA-12 | 2026-09-05 00:55:45 | 48.92069 | 11.18456 | 85° | 78km/h | 2430m | -5.2m/s | 8.3°C | 89.3% | 766.6hPa | 2.7V | 00:00:00 | 02:26:23 | 00:00:00 | |
| DO3MHA-12 | 2026-09-05 00:55:40 | 48.92059 | 11.18305 | 84° | 82km/h | 2455m | -5.2m/s | 8.4°C | 86.4% | 764.4hPa | 2.7V | 00:00:00 | 02:26:18 | 00:00:00 | |
| DB0NH | 2026-09-05 00:55:38 | 48.92054 | 11.18243 | 84° | 84km/h | 2465m | -5.2m/s | 8.4°C | 84.2% | 763.4hPa | 2.7V | 07:59:00 | 02:26:16 | 00:00:00 | |
| NBG1-10 | 2026-09-05 00:55:36 | 48.92049 | 11.18181 | 84° | 84km/h | 2475m | -5.5m/s | 8.3°C | 84.2% | 762.5hPa | 2.7V | 00:00:00 | 02:26:14 | 00:00:00 | |
| DL6DJ-15 | 2026-09-05 00:55:35 | 48.92045 | 11.18118 | 83° | 80km/h | 2486m | -5.1m/s | 8.3°C | 83.1% | 761.6hPa | 2.6V | 00:00:00 | 00:00:00 | 00:00:00 | |
| DO3MHA-12 | 2026-09-05 00:55:30 | 48.92035 | 11.17993 | 83° | 82km/h | 2506m | -4.8m/s | 8.2°C | 81.9% | 759.5hPa | 2.6V | 00:00:00 | 02:26:08 | 00:00:00 | |
| DO3MHA-11 | 2026-09-05 00:55:25 | 48.92022 | 11.17835 | 83° | 86km/h | 2531m | -5.3m/s | 8.1°C | 78.9% | 757.4hPa | 2.6V | 00:00:00 | 02:26:03 | 00:00:00 | |
| DO3MHA-12 | 2026-09-05 00:55:20 | 48.92009 | 11.17671 | 86° | 86km/h | 2556m | -5.3m/s | 7.9°C | 78.4% | 755.0hPa | 2.7V | 00:00:00 | 02:25:58 | 00:00:00 | |
| DO3MHA-11 | 2026-09-05 00:55:19 | 48.92007 | 11.17637 | 87° | 86km/h | 2561m | -4.8m/s | 7.8°C | 78.5% | 754.5hPa | 2.6V | 00:00:00 | 02:25:57 | 00:00:00 | |
| DB0NH | 2026-09-05 00:55:18 | 48.92006 | 11.17604 | 87° | 84km/h | 2566m | -4.7m/s | 7.8°C | 78.7% | 754.1hPa | 2.6V | 00:00:00 | 02:25:56 | 00:00:00 | |
| DO3MHA-12 | 2026-09-05 00:55:15 | 48.92002 | 11.17507 | 85° | 84km/h | 2579m | -4.5m/s | 7.6°C | 79.4% | 752.9hPa | 2.6V | 00:00:00 | 02:25:53 | 00:00:00 | |
| NBG1-10 | 2026-09-05 00:55:14 | 48.91999 | 11.17475 | 84° | 84km/h | 2584m | -4.9m/s | 7.6°C | 79.5% | 752.5hPa | 2.6V | 00:00:00 | 02:25:52 | 00:00:00 | |
| DK5PH-5 | 2026-09-05 00:55:13 | 48.91997 | 11.17442 | 83° | 84km/h | 2588m | -3.9m/s | 7.6°C | 79.6% | 752.0hPa | 2.6V | 00:00:00 | 02:25:51 | 00:00:00 | |
| DO3MHA-11 | 2026-09-05 00:55:12 | 48.91994 | 11.17410 | 83° | 84km/h | 2593m | -5.0m/s | 7.5°C | 79.9% | 751.6hPa | 2.6V | 00:00:00 | 02:25:50 | 00:00:00 | |
| DO3MHA-12 | 2026-09-05 00:55:10 | 48.91988 | 11.17346 | 83° | 82km/h | 2606m | -7.7m/s | 7.4°C | 79.9% | 750.6hPa | 2.6V | 00:00:00 | 02:25:48 | 00:00:00 | |
| DO3MHA-11 | 2026-09-05 00:55:07 | 48.91980 | 11.17251 | 82° | 82km/h | 2628m | -7.6m/s | 7.3°C | 79.7% | 748.6hPa | 2.6V | 07:59:00 | 02:25:45 | 00:00:00 | |
| DO3MHA-12 | 2026-09-05 00:55:05 | 48.91975 | 11.17188 | 81° | 82km/h | 2644m | -8.3m/s | 7.1°C | 80.2% | 747.3hPa | 2.6V | 00:00:00 | 02:25:43 | 00:00:00 | |
| DL6DJ-15 | 2026-09-05 00:55:03 | 48.91968 | 11.17126 | 79° | 82km/h | 2658m | -6.8m/s | 7.0°C | 80.0% | 746.0hPa | 2.6V | 00:00:00 | 00:00:00 | 00:00:00 | |
| DO3MHA-11 | 2026-09-05 00:55:02 | 48.91964 | 11.17095 | 80° | 84km/h | 2666m | -7.3m/s | 6.9°C | 80.9% | 745.2hPa | 2.6V | 00:00:00 | 02:25:40 | 00:00:00 | |
| DF3TZ-5 | 2026-09-05 00:54:44 | 48.91893 | 11.16525 | 78° | 82km/h | 2797m | -8.4m/s | 5.8°C | 86.2% | 733.4hPa | 2.6V | 00:00:00 | 00:00:00 | 00:00:00 | |
| DB0UT-7 | 2026-09-05 00:54:43 | 48.91888 | 11.16493 | 79° | 84km/h | 2806m | -9.1m/s | 5.7°C | 87.2% | 732.7hPa | 2.6V | 08:00:00 | 00:00:00 | 00:00:00 | |
| DO3MHA-11 | 2026-09-05 00:54:41 | 48.91880 | 11.16430 | 79° | 82km/h | 2821m | -7.4m/s | 5.5°C | 88.3% | 731.3hPa | 2.6V | 00:00:00 | 02:25:19 | 00:00:00 | |
| DO3MHA-12 | 2026-09-05 00:54:40 | 48.91876 | 11.16399 | 81° | 82km/h | 2829m | -6.7m/s | 5.5°C | 88.1% | 730.7hPa | 2.6V | 00:00:00 | 02:25:18 | 00:00:00 | |
| DB0NH | 2026-09-05 00:54:38 | 48.91869 | 11.16336 | 80° | 84km/h | 2843m | -7.3m/s | 5.4°C | 88.7% | 729.4hPa | 2.6V | 00:00:00 | 02:25:16 | 00:00:00 | |
| DO3MHA-11 | 2026-09-05 00:54:36 | 48.91861 | 11.16274 | 79° | 82km/h | 2859m | -6.8m/s | 5.2°C | 89.1% | 728.1hPa | 2.6V | 00:00:00 | 02:25:14 | 00:00:00 | |
| DO3MHA-12 | 2026-09-05 00:54:35 | 48.91857 | 11.16243 | 81° | 84km/h | 2865m | -6.7m/s | 5.2°C | 89.8% | 727.5hPa | 2.6V | 08:00:00 | 02:25:13 | 00:00:00 | |
| DL6DJ-15 | 2026-09-05 00:54:33 | 48.91846 | 11.16148 | 80° | 84km/h | 2887m | -7.2m/s | 5.0°C | 88.8% | 725.6hPa | 2.6V | 00:00:00 | 00:00:00 | 00:00:00 | |
| DO3MHA-11 | 2026-09-05 00:54:31 | 48.91842 | 11.16117 | 81° | 86km/h | 2894m | -6.5m/s | 4.9°C | 89.9% | 725.0hPa | 2.6V | 00:00:00 | 02:25:09 | 00:00:00 | |
| DO3MHA-12 | 2026-09-05 00:54:30 | 48.91839 | 11.16084 | 81° | 86km/h | 2901m | -7.7m/s | 4.9°C | 89.8% | 724.2hPa | 2.6V | 00:00:00 | 02:25:08 | 00:00:00 | |
| DO3MHA-11 | 2026-09-05 00:54:26 | 48.91824 | 11.15955 | 81° | 86km/h | 2932m | -7.0m/s | 4.6°C | 91.0% | 721.6hPa | 2.6V | 00:00:00 | 02:25:04 | 00:00:00 | |
| DO3MHA-12 | 2026-09-05 00:54:25 | 48.91821 | 11.15923 | 82° | 86km/h | 2938m | -6.7m/s | 4.5°C | 91.1% | 720.9hPa | 2.6V | 00:00:00 | 02:25:03 | 00:00:00 | |
| DB0UT-7 | 2026-09-05 00:54:23 | 48.91814 | 11.15859 | 81° | 86km/h | 2952m | -8.5m/s | 4.4°C | 91.2% | 719.6hPa | 2.6V | 00:00:00 | 02:25:01 | 00:00:00 | |
| DO3MHA-11 | 2026-09-05 00:54:21 | 48.91806 | 11.15793 | 80° | 86km/h | 2969m | -7.6m/s | 4.3°C | 91.9% | 718.1hPa | 2.6V | 00:00:00 | 02:24:59 | 00:00:00 | |
| DO3MHA-12 | 2026-09-05 00:54:20 | 48.91802 | 11.15761 | 80° | 86km/h | 2976m | -7.7m/s | 4.2°C | 92.5% | 717.6hPa | 2.6V | 00:00:00 | 02:24:58 | 00:00:00 | |
| DB0NH | 2026-09-05 00:54:18 | 48.91795 | 11.15696 | 80° | 86km/h | 2993m | -7.9m/s | 4.1°C | 95.4% | 716.2hPa | 2.6V | 00:00:00 | 02:24:56 | 00:00:00 | |
| DO3MHA-11 | 2026-09-05 00:54:16 | 48.91787 | 11.15631 | 81° | 86km/h | 3008m | -8.1m/s | 4.1°C | 96.3% | 714.9hPa | 2.6V | 00:00:00 | 02:24:54 | 00:00:00 | |
| DO3MHA-12 | 2026-09-05 00:54:15 | 48.91783 | 11.15598 | 80° | 86km/h | 3016m | -6.1m/s | 4.0°C | 96.0% | 714.3hPa | 2.6V | 00:00:00 | 02:24:53 | 00:00:00 | |
| DK5PH-5 | 2026-09-05 00:54:13 | 48.91775 | 11.15534 | 79° | 84km/h | 3030m | -6.5m/s | 4.1°C | 93.8% | 713.1hPa | 2.6V | 00:00:00 | 02:24:51 | 00:00:00 | |
| DO3MHA-12 | 2026-09-05 00:54:10 | 48.91762 | 11.15436 | 81° | 86km/h | 3050m | -7.1m/s | 4.9°C | 90.2% | 711.3hPa | 2.6V | 00:00:00 | 02:24:48 | 00:00:00 | |
| NBG1-10 | 2026-09-05 00:54:08 | 48.91755 | 11.15372 | 81° | 84km/h | 3063m | -6.6m/s | 4.9°C | 86.2% | 710.1hPa | 2.6V | 00:00:00 | 02:24:46 | 00:00:00 | |
| DO3MHA-12 | 2026-09-05 00:54:05 | 48.91744 | 11.15276 | 80° | 86km/h | 3085m | -8.5m/s | 4.8°C | 85.4% | 708.1hPa | 2.6V | 00:00:00 | 02:24:43 | 00:00:00 | |
| DB0UT-7 | 2026-09-05 00:54:03 | 48.91735 | 11.15212 | 79° | 84km/h | 3101m | -7.5m/s | 4.8°C | 83.7% | 706.8hPa | 2.6V | 00:00:00 | 00:00:00 | 00:00:00 | |
| DL6DJ-15 | 2026-09-05 00:54:02 | 48.91726 | 11.15148 | 77° | 84km/h | 3114m | -7.4m/s | 4.8°C | 81.8% | 705.6hPa | 2.6V | 00:00:00 | 00:00:00 | 00:00:00 | |
| DO3MHA-12 | 2026-09-05 00:54:00 | 48.91721 | 11.15115 | 78° | 84km/h | 3122m | -7.6m/s | 4.8°C | 81.9% | 704.9hPa | 2.6V | 00:00:00 | 02:24:38 | 00:00:00 | |
| DO3MHA-11 | 2026-09-05 00:53:58 | 48.91712 | 11.15051 | 78° | 84km/h | 3138m | -8.2m/s | 4.7°C | 80.6% | 703.6hPa | 2.6V | 00:00:00 | 02:24:36 | 00:00:00 | |
| DO3MHA-12 | 2026-09-05 00:53:55 | 48.91698 | 11.14958 | 78° | 84km/h | 3161m | -6.9m/s | 4.6°C | 79.4% | 701.8hPa | 2.6V | 00:00:00 | 02:24:33 | 00:00:00 | |
| DB0NH | 2026-09-05 00:53:53 | 48.91688 | 11.14894 | 77° | 84km/h | 3175m | -7.2m/s | 4.6°C | 78.3% | 700.2hPa | 2.6V | 08:01:00 | 02:24:31 | 00:00:00 | |
| DO3MHA-11 | 2026-09-05 00:53:52 | 48.91684 | 11.14863 | 78° | 82km/h | 3182m | -6.3m/s | 4.6°C | 77.6% | 699.7hPa | 2.6V | 00:00:00 | 02:24:30 | 00:00:00 | |
| DO3MHA-12 | 2026-09-05 00:53:50 | 48.91674 | 11.14800 | 77° | 82km/h | 3196m | -6.8m/s | 4.5°C | 79.4% | 698.5hPa | 2.6V | 08:01:00 | 02:24:28 | 00:00:00 | |
| DO3MHA-11 | 2026-09-05 00:53:47 | 48.91659 | 11.14708 | 78° | 84km/h | 3218m | -8.1m/s | 4.3°C | 82.6% | 696.6hPa | 2.6V | 00:00:00 | 02:24:25 | 00:00:00 | |
| NBG1-10 | 2026-09-05 00:53:46 | 48.91654 | 11.14677 | 77° | 84km/h | 3225m | -7.5m/s | 4.3°C | 82.4% | 696.1hPa | 2.6V | 00:00:00 | 02:24:24 | 00:00:00 | |
| DO3MHA-12 | 2026-09-05 00:53:45 | 48.91649 | 11.14646 | 76° | 84km/h | 3233m | -7.9m/s | 4.2°C | 82.5% | 695.2hPa | 2.6V | 00:00:00 | 02:24:23 | 00:00:00 | |
| DK5PH-5 | 2026-09-05 00:53:43 | 48.91640 | 11.14584 | 77° | 84km/h | 3249m | -7.3m/s | 4.1°C | 83.0% | 694.1hPa | 2.6V | 00:00:00 | 02:24:21 | 00:00:00 | |
| DO3MHA-11 | 2026-09-05 00:53:42 | 48.91635 | 11.14553 | 77° | 84km/h | 3256m | -6.9m/s | 4.0°C | 82.8% | 693.4hPa | 2.6V | 00:00:00 | 02:24:20 | 00:00:00 | |
| DO3MHA-12 | 2026-09-05 00:53:40 | 48.91624 | 11.14491 | 77° | 84km/h | 3272m | -7.7m/s | 3.9°C | 81.9% | 692.2hPa | 2.6V | 00:00:00 | 02:24:18 | 00:00:00 | |
| DO3MHA-11 | 2026-09-05 00:53:37 | 48.91609 | 11.14396 | 78° | 82km/h | 3295m | -7.6m/s | 3.8°C | 81.5% | 690.2hPa | 2.6V | 00:00:00 | 02:24:15 | 00:00:00 | |
| DO3MHA-12 | 2026-09-05 00:53:35 | 48.91599 | 11.14334 | 77° | 84km/h | 3310m | -6.6m/s | 3.7°C | 81.9% | 688.8hPa | 2.6V | 00:00:00 | 02:24:13 | 00:00:00 | |
| DO3MHA-11 | 2026-09-05 00:53:32 | 48.91583 | 11.14241 | 76° | 84km/h | 3334m | -7.7m/s | 3.5°C | 82.2% | 686.9hPa | 2.5V | 00:00:00 | 02:24:10 | 00:00:00 | |
| DO3MHA-12 | 2026-09-05 00:53:30 | 48.91573 | 11.14179 | 75° | 84km/h | 3348m | -7.8m/s | 3.4°C | 82.2% | 685.6hPa | 2.5V | 00:00:00 | 02:24:08 | 00:00:00 | |
| DO3MHA-12 | 2026-09-05 00:53:25 | 48.91548 | 11.14023 | 77° | 84km/h | 3386m | -7.4m/s | 3.1°C | 84.9% | 682.4hPa | 2.5V | 00:00:00 | 02:24:03 | 00:00:00 | |
| DB0NH | 2026-09-05 00:53:23 | 48.91538 | 11.13961 | 77° | 84km/h | 3400m | -6.6m/s | 3.0°C | 84.6% | 681.5hPa | 2.5V | 00:00:00 | 02:24:01 | 00:00:00 | |
| DO3MHA-11 | 2026-09-05 00:53:22 | 48.91534 | 11.13930 | 78° | 84km/h | 3407m | -7.4m/s | 3.0°C | 84.7% | 680.8hPa | 2.5V | 00:00:00 | 02:24:00 | 00:00:00 | |
| DO3MHA-12 | 2026-09-05 00:53:20 | 48.91525 | 11.13868 | 77° | 84km/h | 3422m | -6.8m/s | 2.8°C | 85.4% | 679.4hPa | 2.5V | 00:00:00 | 02:23:58 | 00:00:00 | |
| DO3MHA-11 | 2026-09-05 00:53:17 | 48.91510 | 11.13774 | 79° | 84km/h | 3445m | -7.0m/s | 2.7°C | 85.5% | 677.7hPa | 2.6V | 08:01:00 | 02:23:55 | 00:00:00 | |
| DO3MHA-12 | 2026-09-05 00:53:15 | 48.91501 | 11.13711 | 77° | 84km/h | 3458m | -8.0m/s | 2.6°C | 82.9% | 676.5hPa | 2.6V | 00:00:00 | 02:23:53 | 00:00:00 | |
| NBG1-10 | 2026-09-05 00:53:13 | 48.91492 | 11.13649 | 78° | 86km/h | 3474m | -8.4m/s | 2.5°C | 82.8% | 675.1hPa | 2.6V | 08:01:00 | 02:23:51 | 00:00:00 | |
| DO3MHA-11 | 2026-09-05 00:53:12 | 48.91488 | 11.13618 | 77° | 84km/h | 3483m | -8.2m/s | 2.5°C | 81.4% | 674.5hPa | 2.6V | 00:00:00 | 02:23:50 | 00:00:00 | |
| DF3TZ-5 | 2026-09-05 00:53:11 | 48.91478 | 11.13556 | 77° | 82km/h | 3499m | -7.6m/s | 2.6°C | 78.4% | 673.3hPa | 2.6V | 00:00:00 | 00:00:00 | 00:00:00 | |
| DO3MHA-12 | 2026-09-05 00:53:10 | 48.91478 | 11.13556 | 78° | 84km/h | 3500m | -7.5m/s | 2.5°C | 79.5% | 673.2hPa | 2.6V | 00:00:00 | 02:23:48 | 00:00:00 | |
| DO3MHA-11 | 2026-09-05 00:53:07 | 48.91466 | 11.13462 | 79° | 84km/h | 3521m | -7.4m/s | 2.6°C | 74.4% | 671.5hPa | 2.6V | 00:00:00 | 02:23:45 | 00:00:00 | |
| DO3MHA-12 | 2026-09-05 00:53:05 | 48.91457 | 11.13397 | 80° | 84km/h | 3537m | -8.0m/s | 2.6°C | 70.9% | 670.1hPa | 2.6V | 08:01:00 | 02:23:43 | 00:00:00 | |
| DO3MHA-11 | 2026-09-05 00:53:02 | 48.91445 | 11.13302 | 81° | 86km/h | 3559m | -6.3m/s | 2.4°C | 70.4% | 668.3hPa | 2.6V | 00:00:00 | 02:23:40 | 00:00:00 | |
| DL6DJ-15 | 2026-09-05 00:52:59 | 48.91434 | 11.13205 | 81° | 84km/h | 3579m | -7.4m/s | 2.4°C | 67.8% | 666.5hPa | 2.6V | 00:00:00 | 00:00:00 | 00:00:00 | |
| DO3MHA-11 | 2026-09-05 00:52:57 | 48.91427 | 11.13139 | 83° | 86km/h | 3594m | -7.7m/s | 2.3°C | 67.1% | 665.2hPa | 2.6V | 00:00:00 | 02:23:35 | 00:00:00 | |
| DO3MHA-12 | 2026-09-05 00:52:55 | 48.91421 | 11.13073 | 82° | 86km/h | 3609m | -7.5m/s | 2.2°C | 64.7% | 664.0hPa | 2.6V | 00:00:00 | 02:23:33 | 00:00:00 | |
| DB0UT-7 | 2026-09-05 00:52:54 | 48.91418 | 11.13040 | 83° | 86km/h | 3617m | -7.9m/s | 2.2°C | 64.3% | 663.5hPa | 2.6V | 00:00:00 | 02:23:32 | 00:00:00 | |
| DB0NH | 2026-09-05 00:52:53 | 48.91415 | 11.13007 | 83° | 86km/h | 3624m | -8.4m/s | 2.2°C | 61.4% | 662.7hPa | 2.6V | 00:00:00 | 02:23:31 | 00:00:00 | |
| DO3MHA-11 | 2026-09-05 00:52:52 | 48.91412 | 11.12974 | 81° | 86km/h | 3633m | -8.1m/s | 2.2°C | 60.5% | 662.1hPa | 2.6V | 00:00:00 | 02:23:30 | 00:00:00 | |
| DO3MHA-12 | 2026-09-05 00:52:50 | 48.91405 | 11.12908 | 82° | 88km/h | 3648m | -8.4m/s | 2.1°C | 59.9% | 660.8hPa | 2.6V | 00:00:00 | 02:23:28 | 00:00:00 | |
| DO3MHA-11 | 2026-09-05 00:52:47 | 48.91397 | 11.12810 | 84° | 88km/h | 3673m | -7.7m/s | 1.9°C | 64.7% | 658.7hPa | 2.5V | 00:00:00 | 02:23:25 | 00:00:00 | |
| DO3MHA-12 | 2026-09-05 00:52:45 | 48.91391 | 11.12743 | 83° | 88km/h | 3689m | -8.3m/s | 1.7°C | 65.5% | 657.5hPa | 2.6V | 00:00:00 | 02:23:23 | 00:00:00 | |
| DK5PH-5 | 2026-09-05 00:52:43 | 48.91386 | 11.12675 | 84° | 86km/h | 3705m | -7.6m/s | 1.6°C | 66.8% | 656.0hPa | 2.6V | 00:00:00 | 02:23:21 | 00:00:00 | |
| DO3MHA-11 | 2026-09-05 00:52:42 | 48.91384 | 11.12641 | 85° | 86km/h | 3713m | -8.7m/s | 1.5°C | 67.1% | 655.3hPa | 2.6V | 00:00:00 | 02:23:20 | 00:00:00 | |
| NBG1-10 | 2026-09-05 00:52:40 | 48.91379 | 11.12575 | 84° | 88km/h | 3730m | -7.4m/s | 1.3°C | 67.6% | 653.9hPa | 2.6V | 00:00:00 | 02:23:18 | 00:00:00 | |
| DO3MHA-11 | 2026-09-05 00:52:37 | 48.91373 | 11.12475 | 84° | 86km/h | 3754m | -8.6m/s | 1.1°C | 68.1% | 652.0hPa | 2.6V | 00:00:00 | 02:23:15 | 00:00:00 | |
| DO3MHA-12 | 2026-09-05 00:52:35 | 48.91369 | 11.12410 | 85° | 88km/h | 3771m | -7.9m/s | 1.0°C | 68.6% | 650.7hPa | 2.6V | 00:00:00 | 02:23:13 | 00:00:00 | |
| DO3MHA-11 | 2026-09-05 00:52:33 | 48.91362 | 11.12310 | 84° | 88km/h | 3795m | -8.0m/s | 0.8°C | 69.2% | 648.7hPa | 2.6V | 08:02:00 | 02:23:10 | 00:00:00 | |
| DO3MHA-12 | 2026-09-05 00:52:30 | 48.91357 | 11.12244 | 85° | 86km/h | 3813m | -10.3m/s | 0.6°C | 71.3% | 647.3hPa | 2.5V | 00:00:00 | 02:23:08 | 00:00:00 | |
| DL6DJ-15 | 2026-09-05 00:52:28 | 48.91353 | 11.12178 | 83° | 88km/h | 3831m | -8.3m/s | 0.5°C | 71.1% | 646.0hPa | 2.5V | 00:00:00 | 00:00:00 | 00:00:00 | |
| DO3MHA-11 | 2026-09-05 00:52:27 | 48.91351 | 11.12145 | 84° | 86km/h | 3839m | -7.3m/s | 0.4°C | 71.7% | 645.1hPa | 2.5V | 00:00:00 | 02:23:05 | 00:00:00 | |
| DO3MHA-12 | 2026-09-05 00:52:25 | 48.91346 | 11.12079 | 84° | 86km/h | 3855m | -8.7m/s | 0.2°C | 72.1% | 643.9hPa | 2.5V | 00:00:00 | 02:23:03 | 00:00:00 | |
| DB0UT-7 | 2026-09-05 00:52:24 | 48.91344 | 11.12047 | 85° | 86km/h | 3863m | -6.1m/s | 0.1°C | 71.8% | 643.2hPa | 2.5V | 00:00:00 | 00:00:00 | 00:00:00 | |
| DB0NH | 2026-09-05 00:52:23 | 48.91342 | 11.12014 | 84° | 89km/h | 3870m | -8.6m/s | 0.1°C | 71.9% | 642.6hPa | 2.5V | 00:00:00 | 02:23:01 | 00:00:00 | |
| DO3MHA-11 | 2026-09-05 00:52:22 | 48.91340 | 11.11981 | 84° | 86km/h | 3878m | -8.0m/s | 0.0°C | 72.8% | 642.0hPa | 2.6V | 00:00:00 | 02:23:00 | 00:00:00 | |
| DO3MHA-12 | 2026-09-05 00:52:20 | 48.91336 | 11.11915 | 84° | 88km/h | 3895m | -10.2m/s | -0.1°C | 73.1% | 640.6hPa | 2.6V | 08:02:00 | 02:22:58 | 00:00:00 | |
| DO3MHA-11 | 2026-09-05 00:52:17 | 48.91330 | 11.11815 | 87° | 88km/h | 3921m | -8.7m/s | -0.3°C | 74.7% | 638.5hPa | 2.5V | 00:00:00 | 02:22:55 | 00:00:00 | |
| DO9HM | 2026-09-05 00:52:15 | 48.91327 | 11.11747 | 86° | 88km/h | 3938m | -9.3m/s | -0.5°C | 73.9% | 637.2hPa | 2.6V | 00:00:00 | 00:00:00 | 00:00:00 | |
| DK5PH-5 | 2026-09-05 00:52:13 | 48.91323 | 11.11680 | 85° | 91km/h | 3956m | -8.9m/s | -0.5°C | 73.7% | 635.8hPa | 2.6V | 00:00:00 | 02:22:51 | 00:00:00 | |
| DO3MHA-11 | 2026-09-05 00:52:12 | 48.91321 | 11.11647 | 86° | 88km/h | 3965m | -9.9m/s | -0.6°C | 74.0% | 635.1hPa | 2.6V | 00:00:00 | 02:22:50 | 00:00:00 | |
| DO3MHA-12 | 2026-09-05 00:52:10 | 48.91318 | 11.11579 | 86° | 88km/h | 3984m | -9.3m/s | -0.8°C | 74.6% | 633.6hPa | 2.6V | 00:00:00 | 02:22:48 | 00:00:00 | |
| DF3TZ-5 | 2026-09-05 00:52:09 | 48.91315 | 11.11512 | 87° | 88km/h | 4003m | -8.4m/s | -1.0°C | 73.4% | 632.3hPa | 2.6V | 00:00:00 | 00:00:00 | 00:00:00 | |
| NBG1-10 | 2026-09-05 00:52:07 | 48.91314 | 11.11478 | 87° | 93km/h | 4012m | -10.0m/s | -1.1°C | 74.6% | 631.6hPa | 2.6V | 00:00:00 | 02:22:45 | 00:00:00 | |
| DO3MHA-12 | 2026-09-05 00:52:05 | 48.91312 | 11.11410 | 87° | 91km/h | 4030m | -9.1m/s | -1.2°C | 74.3% | 630.3hPa | 2.6V | 00:00:00 | 02:22:43 | 00:00:00 | |
| DO3MHA-11 | 2026-09-05 00:52:02 | 48.91308 | 11.11305 | 87° | 91km/h | 4058m | -8.1m/s | -1.2°C | 69.2% | 628.0hPa | 2.5V | 00:00:00 | 02:22:40 | 00:00:00 | |
| DO3MHA-12 | 2026-09-05 00:52:00 | 48.91306 | 11.11235 | 87° | 93km/h | 4077m | -10.5m/s | -1.4°C | 66.2% | 626.7hPa | 2.6V | 00:00:00 | 02:22:38 | 00:00:00 | |
| DO3MHA-11 | 2026-09-05 00:51:57 | 48.91302 | 11.11129 | 87° | 93km/h | 4108m | -10.4m/s | -1.6°C | 66.8% | 624.2hPa | 2.6V | 00:00:00 | 02:22:35 | 00:00:00 | |
| DO3MHA-12 | 2026-09-05 00:51:55 | 48.91299 | 11.11058 | 86° | 93km/h | 4127m | -9.4m/s | -1.8°C | 66.8% | 622.6hPa | 2.6V | 00:00:00 | 02:22:33 | 00:00:00 | |
| DB0NH | 2026-09-05 00:51:53 | 48.91296 | 11.10987 | 86° | 93km/h | 4145m | -7.9m/s | -1.9°C | 68.0% | 621.1hPa | 2.6V | 00:00:00 | 02:22:31 | 00:00:00 | |
| DO3MHA-11 | 2026-09-05 00:51:52 | 48.91295 | 11.10951 | 86° | 93km/h | 4153m | -9.2m/s | -2.0°C | 68.3% | 620.5hPa | 2.6V | 00:00:00 | 02:22:30 | 00:00:00 | |
| DO3MHA-12 | 2026-09-05 00:51:50 | 48.91291 | 11.10880 | 86° | 95km/h | 4171m | -9.7m/s | -2.2°C | 70.2% | 619.0hPa | 2.6V | 00:00:00 | 02:22:28 | 00:00:00 | |
| DO3MHA-12 | 2026-09-05 00:51:45 | 48.91282 | 11.10699 | 87° | 93km/h | 4218m | -10.1m/s | -2.6°C | 71.4% | 615.4hPa | 2.5V | 00:00:00 | 02:22:23 | 00:00:00 | |
| DK5PH-5 | 2026-09-05 00:51:43 | 48.91279 | 11.10627 | 86° | 93km/h | 4236m | -10.2m/s | -2.8°C | 70.9% | 613.9hPa | 2.5V | 08:03:00 | 02:22:21 | 00:00:00 | |
| DO3MHA-11 | 2026-09-05 00:51:42 | 48.91277 | 11.10592 | 86° | 95km/h | 4247m | -11.8m/s | -2.8°C | 70.0% | 613.3hPa | 2.6V | 00:00:00 | 02:22:20 | 00:00:00 | |
| DO3MHA-12 | 2026-09-05 00:51:40 | 48.91273 | 11.10519 | 87° | 95km/h | 4267m | -9.1m/s | -3.0°C | 70.3% | 611.6hPa | 2.6V | 00:00:00 | 02:22:18 | 00:00:00 | |
| DF3TZ-5 | 2026-09-05 00:51:38 | 48.91268 | 11.10411 | 85° | 95km/h | 4296m | -8.6m/s | -3.3°C | 70.8% | 609.2hPa | 2.6V | 00:00:00 | 00:00:00 | 00:00:00 | |
| DO3MHA-11 | 2026-09-05 00:51:37 | 48.91268 | 11.10411 | 86° | 95km/h | 4296m | -8.6m/s | -3.3°C | 72.2% | 609.2hPa | 2.6V | 00:00:00 | 02:22:15 | 00:00:00 | |
| DO3MHA-12 | 2026-09-05 00:51:35 | 48.91264 | 11.10339 | 85° | 93km/h | 4316m | -10.2m/s | -3.4°C | 72.5% | 607.9hPa | 2.6V | 08:03:00 | 02:22:13 | 00:00:00 | |
| NBG1-10 | 2026-09-05 00:51:34 | 48.91262 | 11.10303 | 85° | 95km/h | 4326m | -9.6m/s | -3.5°C | 72.5% | 607.2hPa | 2.6V | 00:00:00 | 02:22:12 | 00:00:00 | |
| DO3MHA-11 | 2026-09-05 00:51:32 | 48.91257 | 11.10230 | 85° | 93km/h | 4346m | -8.6m/s | -3.7°C | 72.8% | 605.7hPa | 2.5V | 00:00:00 | 02:22:10 | 00:00:00 | |
| DO9HM | 2026-09-05 00:51:31 | 48.91253 | 11.10160 | 86° | 93km/h | 4363m | -8.8m/s | -3.9°C | 71.9% | 604.4hPa | 2.5V | 00:00:00 | 00:00:00 | 00:00:00 | |
| DO3MHA-12 | 2026-09-05 00:51:30 | 48.91253 | 11.10160 | 86° | 93km/h | 4363m | -8.7m/s | -3.8°C | 73.4% | 604.4hPa | 2.5V | 00:00:00 | 02:22:08 | 00:00:00 | |
| DB0UT-7 | 2026-09-05 00:51:29 | 48.91251 | 11.10124 | 85° | 95km/h | 4372m | -9.5m/s | -3.9°C | 73.8% | 603.6hPa | 2.5V | 00:00:00 | 02:22:07 | 00:00:00 | |
| DO3MHA-11 | 2026-09-05 00:51:27 | 48.91247 | 11.10052 | 85° | 93km/h | 4391m | -10.0m/s | -4.0°C | 71.5% | 602.1hPa | 2.5V | 00:00:00 | 02:22:05 | 00:00:00 | |
| DL6DJ-15 | 2026-09-05 00:51:26 | 48.91244 | 11.10016 | 83° | 91km/h | 4401m | -10.6m/s | -4.1°C | 69.0% | 601.4hPa | 2.5V | 00:00:00 | 00:00:00 | 00:00:00 | |
| DO3MHA-12 | 2026-09-05 00:51:25 | 48.91241 | 11.09981 | 83° | 93km/h | 4411m | -9.5m/s | -4.1°C | 69.7% | 600.6hPa | 2.5V | 00:00:00 | 02:22:03 | 00:00:00 | |
| DB0NH | 2026-09-05 00:51:23 | 48.91236 | 11.09910 | 84° | 97km/h | 4430m | -10.2m/s | -4.2°C | 68.5% | 599.0hPa | 2.5V | 00:00:00 | 02:22:01 | 00:00:00 | |
| DO3MHA-11 | 2026-09-05 00:51:22 | 48.91234 | 11.09874 | 84° | 95km/h | 4441m | -10.5m/s | -4.2°C | 68.8% | 598.3hPa | 2.5V | 00:00:00 | 02:22:00 | 00:00:00 | |
| DO3MHA-12 | 2026-09-05 00:51:20 | 48.91228 | 11.09803 | 84° | 95km/h | 4460m | -9.1m/s | -4.4°C | 68.8% | 596.9hPa | 2.5V | 00:00:00 | 02:21:58 | 00:00:00 | |
| DO3MHA-11 | 2026-09-05 00:51:17 | 48.91219 | 11.09695 | 84° | 93km/h | 4490m | -8.8m/s | -4.6°C | 65.2% | 594.6hPa | 2.6V | 00:00:00 | 02:21:55 | 00:00:00 | |
| DO3MHA-12 | 2026-09-05 00:51:15 | 48.91213 | 11.09623 | 83° | 95km/h | 4510m | -8.9m/s | -4.6°C | 55.2% | 593.0hPa | 2.6V | 00:00:00 | 02:21:53 | 00:00:00 | |
| DK5PH-5 | 2026-09-05 00:51:13 | 48.91207 | 11.09551 | 81° | 99km/h | 4529m | -9.8m/s | -4.7°C | 46.7% | 591.7hPa | 2.6V | 00:00:00 | 02:21:51 | 00:00:00 | |
| DO3MHA-11 | 2026-09-05 00:51:12 | 48.91203 | 11.09516 | 82° | 95km/h | 4538m | -9.6m/s | -4.7°C | 44.3% | 590.9hPa | 2.6V | 00:00:00 | 02:21:50 | 00:00:00 | |
| DO3MHA-12 | 2026-09-05 00:51:10 | 48.91196 | 11.09444 | 82° | 95km/h | 4559m | -10.1m/s | -4.9°C | 43.9% | 589.5hPa | 2.6V | 00:00:00 | 02:21:48 | 00:00:00 | |
| DF3TZ-5 | 2026-09-05 00:51:07 | 48.91180 | 11.09300 | 79° | 95km/h | 4598m | -9.7m/s | -5.3°C | 41.2% | 586.5hPa | 2.6V | 00:00:00 | 00:00:00 | 00:00:00 | |
| DO3MHA-12 | 2026-09-05 00:51:05 | 48.91176 | 11.09264 | 80° | 97km/h | 4608m | -9.9m/s | -5.3°C | 40.3% | 585.9hPa | 2.6V | 00:00:00 | 02:21:43 | 00:00:00 | |
| DO3MHA-11 | 2026-09-05 00:51:02 | 48.91163 | 11.09155 | 80° | 99km/h | 4637m | -9.5m/s | -5.3°C | 22.9% | 583.7hPa | 2.5V | 08:03:00 | 02:21:40 | 00:00:00 | |
| DL6DJ-15 | 2026-09-05 00:50:55 | 48.91134 | 11.08896 | 79° | 100km/h | 4709m | -10.1m/s | -6.0°C | 17.9% | 578.4hPa | 2.6V | 00:00:00 | 00:00:00 | 00:00:00 | |
| DF7PN | 2026-09-05 00:50:50 | 48.91113 | 11.08703 | 82° | 104km/h | 4757m | -9.0m/s | -6.3°C | 15.0% | 575.0hPa | 2.6V | 00:00:00 | 00:00:00 | 00:00:00 | |
| DK7TD | 2026-09-05 00:50:33 | 48.91070 | 11.08001 | 87° | 111km/h | 4912m | -9.2m/s | -6.2°C | 16.7% | 563.6hPa | 2.6V | 08:04:33 | 02:21:11 | 00:00:00 | |
| DK7TD | 2026-09-05 00:50:22 | 48.91051 | 11.07539 | 86° | 108km/h | 5013m | -10.3m/s | -7.2°C | 36.2% | 556.1hPa | 2.5V | 08:05:24 | 02:21:00 | 00:00:00 | |
| DK7TD | 2026-09-05 00:50:12 | 48.91029 | 11.07114 | 85° | 111km/h | 5106m | -9.3m/s | -8°C | 46.8% | 549.5hPa | 2.5V | 08:05:24 | 02:20:50 | 00:00:00 | |
| DK7TD | 2026-09-05 00:50:02 | 48.91008 | 11.06683 | 87° | 115km/h | 5198m | -9.6m/s | -8°C | 29.7% | 543.1hPa | 2.5V | 08:05:24 | 02:20:40 | 00:00:00 | |
| DK7TD | 2026-09-05 00:49:51 | 48.90991 | 11.06198 | 87° | 115km/h | 5306m | -10m/s | -8.6°C | 27.7% | 535.5hPa | 2.5V | 08:05:24 | 02:20:29 | 00:00:00 | |
| DF7PN | 2026-09-05 00:49:48 | 48.90984 | 11.06022 | 86° | 113km/h | 5345m | -9.5m/s | -8.9°C | 22.6% | 533.0hPa | 2.5V | 00:00:00 | 00:00:00 | 00:00:00 | |
| DK7TD | 2026-09-05 00:49:41 | 48.90970 | 11.05761 | 85° | 113km/h | 5399m | -9.8m/s | -9.3°C | 26.7% | 529.5hPa | 2.5V | 08:05:24 | 02:20:19 | 00:00:00 | |
| DK7TD | 2026-09-05 00:49:31 | 48.90947 | 11.05330 | 86° | 113km/h | 5492m | -10.2m/s | -10.1°C | 29.6% | 523.2hPa | 2.6V | 08:06:15 | 02:20:09 | 00:00:00 | |
| DK7TD | 2026-09-05 00:49:20 | 48.90929 | 11.04858 | 87° | 111km/h | 5588m | -9.8m/s | -10.9°C | 33.2% | 516.5hPa | 2.5V | 08:06:15 | 02:19:58 | 00:00:00 | |
| DK7TD | 2026-09-05 00:49:10 | 48.90921 | 11.04429 | 90° | 111km/h | 5680m | -9.3m/s | -11.4°C | 31% | 510.4hPa | 2.6V | 08:06:15 | 02:19:48 | 00:00:00 | |
| DK7TD | 2026-09-05 00:48:59 | 48.90916 | 11.03960 | 88° | 110km/h | 5792m | -9.2m/s | -12.2°C | 27.9% | 502.9hPa | 2.6V | 08:06:15 | 02:19:37 | 00:00:00 | |
| DK7TD | 2026-09-05 00:48:48 | 48.90909 | 11.03489 | 90° | 111km/h | 5895m | -10.5m/s | -13°C | 29.4% | 496hPa | 2.5V | 08:06:15 | 02:19:26 | 00:00:00 | |
| DF7PN | 2026-09-05 00:48:46 | 48.90908 | 11.03361 | 88° | 110km/h | 5925m | -11.3m/s | -13.3°C | 24.8% | 494.1hPa | 2.5V | 00:00:00 | 00:00:00 | 00:00:00 | |
| DK7TD | 2026-09-05 00:48:38 | 48.90902 | 11.03067 | 88° | 108km/h | 5995m | -11.5m/s | -13.9°C | 30.9% | 489.6hPa | 2.5V | 08:07:06 | 02:19:16 | 00:00:00 | |
| DK7TD | 2026-09-05 00:48:27 | 48.90898 | 11.02606 | 88° | 106km/h | 6110m | -10.7m/s | -14.6°C | 28% | 482.2hPa | 2.6V | 08:07:06 | 02:19:05 | 00:00:00 | |
| DK7TD | 2026-09-05 00:48:17 | 48.90891 | 11.02192 | 89° | 113km/h | 6219m | -10.9m/s | -15.5°C | 40.5% | 475.4hPa | 2.6V | 08:07:06 | 02:18:55 | 00:00:00 | |
| DK7TD | 2026-09-05 00:48:07 | 48.90876 | 11.01762 | 85° | 111km/h | 6333m | -12m/s | -16.2°C | 29.3% | 468.2hPa | 2.5V | 08:07:06 | 02:18:45 | 00:00:00 | |
| DK7TD | 2026-09-05 00:47:56 | 48.90850 | 11.01292 | 84° | 110km/h | 6451m | -12m/s | -16.8°C | 39.9% | 460.9hPa | 2.6V | 08:07:06 | 02:18:34 | 00:00:00 | |
| DK7TD | 2026-09-05 00:47:46 | 48.90818 | 11.00869 | 84° | 111km/h | 6552m | -10.8m/s | -16.4°C | 21.7% | 454.6hPa | 2.6V | 08:07:57 | 02:18:24 | 00:00:00 | |
| DK7TD | 2026-09-05 00:47:35 | 48.90787 | 11.00390 | 86° | 113km/h | 6668m | -10.1m/s | -16°C | 27.8% | 447.7hPa | 2.6V | 08:07:57 | 02:18:13 | 00:00:00 | |
| DK7TD | 2026-09-05 00:47:24 | 48.90765 | 10.99902 | 88° | 117km/h | 6784m | -10.6m/s | -16.4°C | 26.7% | 440.9hPa | 2.6V | 08:07:57 | 02:18:02 | 00:00:00 | |
| DK7TD | 2026-09-05 00:47:14 | 48.90747 | 10.99453 | 85° | 115km/h | 6884m | -10.2m/s | -17.3°C | 28.4% | 435hPa | 2.6V | 08:07:57 | 02:17:52 | 00:00:00 | |
| DK7TD | 2026-09-05 00:47:04 | 48.90729 | 10.99004 | 86° | 117km/h | 6995m | -11.4m/s | -18.3°C | 25.5% | 428.8hPa | 2.6V | 08:07:57 | 02:17:42 | 00:00:00 | |
| DK7TD | 2026-09-05 00:46:54 | 48.90705 | 10.98546 | 86° | 120km/h | 7104m | -10.7m/s | -19°C | 20.3% | 422.8hPa | 2.6V | 08:08:48 | 02:17:32 | 00:00:00 | |
| DB0ND-19 | 2026-09-05 00:46:47 | 48.90691 | 10.98215 | 86° | 122km/h | 7173m | -10.3m/s | -19.4°C | 14.9% | 418.7hPa | 2.5V | 00:00:00 | 00:00:00 | 00:00:00 | |
| DL6DJ-15 | 2026-09-05 00:46:46 | 48.90689 | 10.98167 | 87° | 122km/h | 7183m | -10.3m/s | -19.3°C | 14.2% | 418.1hPa | 2.5V | 00:00:00 | 00:00:00 | 00:00:00 | |
| DK7TD | 2026-09-05 00:46:43 | 48.90684 | 10.98024 | 88° | 124km/h | 7215m | -11.4m/s | -19.4°C | 16.2% | 416.3hPa | 2.5V | 08:08:48 | 02:17:21 | 00:00:00 | |
| DK7TD | 2026-09-05 00:46:32 | 48.90663 | 10.97495 | 86° | 124km/h | 7332m | -12.7m/s | -19.9°C | 15.7% | 409.8hPa | 2.5V | 08:08:48 | 02:17:10 | 00:00:00 | |
| DK7TD | 2026-09-05 00:46:21 | 48.90642 | 10.96969 | 87° | 124km/h | 7458m | -11.4m/s | -20.4°C | 14.4% | 403.1hPa | 2.6V | 08:08:48 | 02:16:59 | 00:00:00 | |
| DO3MHA-11 | 2026-09-05 00:46:21 | 48.90642 | 10.96969 | 87° | 126km/h | 7458m | -11.4m/s | -20.4°C | 12.7% | 403.1hPa | 2.5V | 00:00:00 | 02:16:59 | 00:00:00 | |
| DO3MHA-12 | 2026-09-05 00:46:18 | 48.90638 | 10.96824 | 88° | 128km/h | 7491m | -10.7m/s | -20.7°C | 12.4% | 401.2hPa | 2.5V | 08:08:00 | 02:16:56 | 00:00:00 | |
| DB0NH | 2026-09-05 00:46:17 | 48.90636 | 10.96776 | 88° | 128km/h | 7501m | -9.4m/s | -20.8°C | 12.4% | 400.6hPa | 2.5V | 00:00:00 | 02:16:55 | 00:00:00 | |
| DB0ND-19 | 2026-09-05 00:46:16 | 48.90635 | 10.96728 | 88° | 126km/h | 7511m | -9.7m/s | -20.9°C | 11.5% | 400.2hPa | 2.6V | 00:00:00 | 00:00:00 | 00:00:00 | |
| DB0UT-7 | 2026-09-05 00:46:15 | 48.90635 | 10.96679 | 89° | 128km/h | 7520m | -9.7m/s | -20.9°C | 12.5% | 399.7hPa | 2.6V | 00:00:00 | 00:00:00 | 00:00:00 | |
| DL1NUX | 2026-09-05 00:46:13 | 48.90631 | 10.96336 | 90° | 128km/h | 7593m | -10.3m/s | -21.5°C | 13.3% | 395.7hPa | 2.6V | 08:08:53 | 02:16:46 | 00:00:00 | |
| DK7TD | 2026-09-05 00:46:11 | 48.90632 | 10.96484 | 89° | 128km/h | 7562m | -10.1m/s | -21.2°C | 14.5% | 397.5hPa | 2.5V | 08:09:39 | 02:16:49 | 00:00:00 | |
| DK7TD | 2026-09-05 00:46:01 | 48.90635 | 10.95993 | 91° | 130km/h | 7668m | -9.4m/s | -21.9°C | 12.7% | 391.8hPa | 2.6V | 08:09:39 | 02:16:39 | 00:00:00 | |
| HARRO8 | 2026-09-05 00:45:56 | 48.90639 | 10.95745 | 91° | 128km/h | 7719m | -8.8m/s | -22.1°C | 9.3% | 389.0hPa | 2.5V | 00:00:00 | 00:00:00 | 00:00:00 | |
| DH7VM-15 | 2026-09-05 00:45:55 | 48.90639 | 10.95745 | 92° | 130km/h | 7719m | -8.8m/s | -22.1°C | 9.3% | 389.0hPa | 2.5V | 00:00:00 | 00:00:00 | 00:00:00 | |
| SO1NDE-10 | 2026-09-05 00:45:53 | 48.90640 | 10.95599 | 91° | 124km/h | 7749m | -10.5m/s | -22.2°C | 10.2% | 387.3hPa | 2.5V | 00:00:00 | 02:16:31 | 00:00:00 | |
| DL1NUX | 2026-09-05 00:45:52 | 48.90641 | 10.95503 | 90° | 124km/h | 7771m | -12.2m/s | -22.4°C | 10.2% | 386.2hPa | 2.5V | 08:09:10 | 02:16:29 | 00:00:00 | |
| DK7TD | 2026-09-05 00:45:50 | 48.90641 | 10.95455 | 91° | 126km/h | 7782m | -10.9m/s | -22.5°C | 11.6% | 385.6hPa | 2.5V | 08:09:39 | 02:16:28 | 00:00:00 | |
| DB0ND-19 | 2026-09-05 00:45:45 | 48.90641 | 10.95214 | 89° | 124km/h | 7835m | -10.9m/s | -23.0°C | 9.7% | 382.8hPa | 2.6V | 00:00:00 | 00:00:00 | 00:00:00 | |
| DL6DJ-15 | 2026-09-05 00:45:44 | 48.90641 | 10.95166 | 89° | 124km/h | 7846m | -11.5m/s | -23.1°C | 9.8% | 382.2hPa | 2.6V | 00:00:00 | 00:00:00 | 00:00:00 | |
| DK5PH-5 | 2026-09-05 00:45:43 | 48.90641 | 10.95117 | 91° | 124km/h | 7856m | -9.7m/s | -23.2°C | 10.9% | 381.6hPa | 2.6V | 00:00:00 | 02:16:21 | 00:00:00 | |
| DL1NUX | 2026-09-05 00:45:41 | 48.90644 | 10.94780 | 89° | 126km/h | 7929m | -11.8m/s | -23.9°C | 11.4% | 377.9hPa | 2.5V | 08:09:25 | 02:16:14 | 00:00:00 | |
| DK7TD | 2026-09-05 00:45:39 | 48.90643 | 10.94924 | 91° | 124km/h | 7897m | -11.8m/s | -23.6°C | 12.7% | 379.5hPa | 2.5V | 08:09:39 | 02:16:17 | 00:00:00 | |
| DK7TD | 2026-09-05 00:45:29 | 48.90639 | 10.94444 | 89° | 124km/h | 8002m | -11.8m/s | -24.6°C | 13.3% | 374.3hPa | 2.5V | 08:09:39 | 02:16:07 | 00:00:00 | |
| DO3MHA-12 | 2026-09-05 00:45:28 | 48.90638 | 10.94397 | 89° | 122km/h | 8013m | -11.1m/s | -24.7°C | 11.5% | 373.7hPa | 2.6V | 00:00:00 | 02:16:06 | 00:00:00 | |
| DF3TZ-5 | 2026-09-05 00:45:25 | 48.90635 | 10.94257 | 87° | 119km/h | 8044m | -9.5m/s | -25.0°C | 10.2% | 372.1hPa | 2.6V | 00:00:00 | 00:00:00 | 00:00:00 | |
| DL1NUX | 2026-09-05 00:45:24 | 48.90633 | 10.94164 | 86° | 120km/h | 8065m | -10.9m/s | -25.2°C | 11.4% | 371hPa | 2.6V | 08:09:38 | 02:16:01 | 00:00:00 | |
| DK7TD | 2026-09-05 00:45:19 | 48.90625 | 10.93977 | 86° | 122km/h | 8106m | -10.8m/s | -25.5°C | 12% | 368.9hPa | 2.5V | 08:10:30 | 02:15:57 | 00:00:00 | |
| DK7TD | 2026-09-05 00:45:08 | 48.90605 | 10.93457 | 89° | 120km/h | 8218m | -11.7m/s | -26.1°C | 10.4% | 363.2hPa | 2.6V | 08:10:30 | 02:15:46 | 00:00:00 | |
| DO3MHA-12 | 2026-09-05 00:45:08 | 48.90605 | 10.93457 | 89° | 124km/h | 8218m | -11.6m/s | -26.1°C | 9.3% | 363.2hPa | 2.6V | 00:00:00 | 02:15:46 | 00:00:00 | |
| DL1NUX | 2026-09-05 00:45:07 | 48.90602 | 10.93174 | 89° | 122km/h | 8283m | -11.7m/s | -26.6°C | 9.2% | 359.9hPa | 2.6V | 08:09:59 | 02:15:40 | 00:00:00 | |
| DK7TD | 2026-09-05 00:44:57 | 48.90603 | 10.92934 | 90° | 124km/h | 8337m | -11.3m/s | -27°C | 12.5% | 357.3hPa | 2.5V | 08:10:30 | 02:15:35 | 00:00:00 | |
| HARRO8 | 2026-09-05 00:44:54 | 48.90602 | 10.92791 | 89° | 122km/h | 8372m | -11.2m/s | -27.3°C | 10.9% | 355.6hPa | 2.5V | 00:00:00 | 00:00:00 | 00:00:00 | |
| DL1ZP-14 | 2026-09-05 00:44:50 | 48.90604 | 10.92556 | 91° | 120km/h | 8428m | -12.2m/s | -27.6°C | 12.8% | 352.8hPa | 2.5V | 00:00:00 | 00:00:00 | 00:00:00 | |
| DM7RM-13 | 2026-09-05 00:44:49 | 48.90603 | 10.92602 | 92° | 120km/h | 8417m | -11.7m/s | -27.6°C | 13.1% | 353.4hPa | 2.4V | 08:10:00 | 00:00:00 | 00:00:00 | |
| DO3MHA-12 | 2026-09-05 00:44:48 | 48.90604 | 10.92510 | 91° | 122km/h | 8440m | -11.8m/s | -27.7°C | 14.3% | 352.2hPa | 2.4V | 08:10:00 | 02:15:26 | 00:00:00 | |
| DB0NH | 2026-09-05 00:44:47 | 48.90604 | 10.92464 | 92° | 120km/h | 8452m | -12.3m/s | -27.7°C | 14.3% | 351.6hPa | 2.5V | 08:10:00 | 02:15:25 | 00:00:00 | |
| DK7TD | 2026-09-05 00:44:47 | 48.90604 | 10.92464 | 91° | 120km/h | 8452m | -12.4m/s | -27.8°C | 16.5% | 351.6hPa | 2.5V | 08:10:30 | 02:15:25 | 00:00:00 | |
| DL1NUX | 2026-09-05 00:44:44 | 48.90605 | 10.92227 | 90° | 122km/h | 8508m | -12.5m/s | -28.3°C | 16.1% | 348.9hPa | 2.4V | 08:10:19 | 02:15:20 | 00:00:00 | |
| DK7TD | 2026-09-05 00:44:36 | 48.90603 | 10.91946 | 89° | 120km/h | 8576m | -10.4m/s | -28.9°C | 19.7% | 345.6hPa | 2.4V | 08:10:30 | 02:15:14 | 00:00:00 | |
| DK7TD | 2026-09-05 00:44:25 | 48.90592 | 10.91441 | 88° | 122km/h | 8690m | -12.1m/s | -29.3°C | 15.6% | 340.1hPa | 2.4V | 08:11:21 | 02:15:03 | 00:00:00 | |
| NBG1-10 | 2026-09-05 00:44:25 | 48.90592 | 10.91441 | 88° | 119km/h | 8690m | -12.0m/s | -29.2°C | 13.5% | 340.1hPa | 2.4V | 00:00:00 | 02:15:03 | 00:00:00 | |
| DF3TZ-5 | 2026-09-05 00:44:23 | 48.90590 | 10.91348 | 88° | 120km/h | 8713m | -12.8m/s | -29.5°C | 12.0% | 339.1hPa | 2.4V | 00:00:00 | 00:00:00 | 00:00:00 | |
| DJ8HS-15 | 2026-09-05 00:44:22 | 48.90588 | 10.91301 | 87° | 119km/h | 8726m | -13.5m/s | -29.5°C | 13.6% | 338.4hPa | 2.4V | 00:00:00 | 02:15:00 | 00:00:00 | |
| DO3MHA-12 | 2026-09-05 00:44:18 | 48.90583 | 10.91117 | 89° | 117km/h | 8774m | -10.8m/s | -30.0°C | 14.3% | 336.1hPa | 2.4V | 00:00:00 | 02:14:56 | 00:00:00 | |
| DB0NH | 2026-09-05 00:44:17 | 48.90582 | 10.91071 | 89° | 119km/h | 8785m | -12.0m/s | -30.1°C | 14.4% | 335.5hPa | 2.5V | 00:00:00 | 02:14:55 | 00:00:00 | |
| OE5DXL-15 | 2026-09-05 00:44:16 | 48.90582 | 10.91025 | 90° | 119km/h | 8796m | -11.9m/s | -30.1°C | 14.4% | 335.0hPa | 2.5V | 00:00:00 | 00:00:00 | 00:00:00 | |
| DL1NUX | 2026-09-05 00:44:15 | 48.90580 | 10.90757 | 89° | 119km/h | 8862m | -12.1m/s | -30.5°C | 15.8% | 332.1hPa | 2.5V | 08:10:51 | 02:14:48 | 00:00:00 | |
| DK7TD | 2026-09-05 00:44:14 | 48.90581 | 10.90935 | 89° | 115km/h | 8818m | -11.6m/s | -30.3°C | 17.1% | 334.1hPa | 2.5V | 08:11:21 | 02:14:52 | 00:00:00 | |
| DK5PH-5 | 2026-09-05 00:44:13 | 48.90580 | 10.90891 | 89° | 119km/h | 8829m | -10.6m/s | -30.3°C | 15.5% | 333.4hPa | 2.4V | 00:00:00 | 02:14:51 | 00:00:00 | |
| DB0ND-19 | 2026-09-05 00:44:12 | 48.90580 | 10.90847 | 89° | 115km/h | 8840m | -11.3m/s | -30.5°C | 14.1% | 333.0hPa | 2.6V | 00:00:00 | 00:00:00 | 00:00:00 | |
| DO3MHA-11 | 2026-09-05 00:44:11 | 48.90580 | 10.90802 | 89° | 119km/h | 8851m | -11.3m/s | -30.4°C | 15.8% | 332.5hPa | 2.6V | 00:00:00 | 02:14:49 | 00:00:00 | |
| SO1NDE-10 | 2026-09-05 00:44:09 | 48.90579 | 10.90710 | 90° | 120km/h | 8873m | -11.2m/s | -30.5°C | 16.4% | 331.5hPa | 2.5V | 00:00:00 | 02:14:47 | 00:00:00 | |
| DO3MHA-12 | 2026-09-05 00:44:08 | 48.90580 | 10.90664 | 91° | 119km/h | 8884m | -11.4m/s | -30.6°C | 17.3% | 330.9hPa | 2.5V | 00:00:00 | 02:14:46 | 00:00:00 | |
| DM7RM-13 | 2026-09-05 00:44:07 | 48.90580 | 10.90664 | 92° | 119km/h | 8884m | -11.5m/s | -30.7°C | 15.5% | 331.0hPa | 2.5V | 08:11:00 | 00:00:00 | 00:00:00 | |
| DB0UT-7 | 2026-09-05 00:44:06 | 48.90580 | 10.90572 | 91° | 120km/h | 8905m | -9.9m/s | -30.7°C | 20.9% | 329.9hPa | 2.5V | 08:10:00 | 00:00:00 | 00:00:00 | |
| DL1NUX | 2026-09-05 00:44:04 | 48.90581 | 10.90298 | 90° | 119km/h | 8970m | -11.7m/s | -30.8°C | 33.8% | 327.1hPa | 2.5V | 08:11:01 | 02:14:38 | 00:00:00 | |
| DK7TD | 2026-09-05 00:44:04 | 48.90580 | 10.90481 | 90° | 119km/h | 8926m | -10.9m/s | -30.7°C | 29.7% | 329hPa | 2.4V | 08:11:21 | 02:14:42 | 00:00:00 | |
| DJ8HS-15 | 2026-09-05 00:44:02 | 48.90580 | 10.90390 | 90° | 120km/h | 8948m | -11.8m/s | -30.7°C | 32.5% | 328.0hPa | 2.5V | 00:00:00 | 02:14:40 | 00:00:00 | |
| DO3MHA-11 | 2026-09-05 00:44:01 | 48.90580 | 10.90344 | 91° | 120km/h | 8959m | -11.7m/s | -30.7°C | 33.6% | 327.5hPa | 2.5V | 00:00:00 | 02:14:39 | 00:00:00 | |
| DO3MHA-12 | 2026-09-05 00:43:58 | 48.90582 | 10.90207 | 92° | 120km/h | 8993m | -11.8m/s | -30.9°C | 33.9% | 326.0hPa | 2.5V | 00:00:00 | 02:14:36 | 00:00:00 | |
| DL1NUX | 2026-09-05 00:43:53 | 48.90591 | 10.89789 | 90° | 122km/h | 9093m | -10.7m/s | -31.9°C | 37.7% | 321.4hPa | 2.5V | 08:11:12 | 02:14:27 | 00:00:00 | |
| DK7TD | 2026-09-05 00:43:53 | 48.90587 | 10.89976 | 92° | 119km/h | 9050m | -11.4m/s | -31.5°C | 39.6% | 323.4hPa | 2.4V | 08:11:21 | 02:14:31 | 00:00:00 | |
| DF3TZ-5 | 2026-09-05 00:43:52 | 48.90589 | 10.89930 | 91° | 119km/h | 9061m | -12.3m/s | -31.6°C | 33.4% | 322.9hPa | 2.4V | 00:00:00 | 00:00:00 | 00:00:00 | |
| DL1ZP-14 | 2026-09-05 00:43:47 | 48.90592 | 10.89697 | 90° | 122km/h | 9117m | -12.0m/s | -32.1°C | 35.6% | 320.4hPa | 2.4V | 00:00:00 | 00:00:00 | 00:00:00 | |
| DK7TD | 2026-09-05 00:43:43 | 48.90594 | 10.89511 | 91° | 119km/h | 9167m | -13.1m/s | -32.6°C | 46.7% | 318.2hPa | 2.5V | 08:11:21 | 02:14:21 | 00:00:00 | |
| BIOWL1-15 | 2026-09-05 00:43:41 | 48.90595 | 10.89418 | 90° | 122km/h | 9191m | -11.5m/s | 0°C | 0% | 0hPa | 2.4V | 18:12:15 | 02:14:19 | 00:00:00 | |
| DK7TD | 2026-09-05 00:43:32 | 48.90597 | 10.89002 | 90° | 124km/h | 9300m | -12.5m/s | -33.5°C | 53.9% | 312.2hPa | 2.5V | 08:12:12 | 02:14:10 | 00:00:00 | |
| BIOWL1-15 | 2026-09-05 00:43:28 | 48.90599 | 10.88813 | 91° | 122km/h | 9348m | -12.4m/s | 0°C | 0% | 0hPa | 2.5V | 18:12:15 | 02:14:06 | 00:00:00 | |
| DK7TD | 2026-09-05 00:43:22 | 48.90602 | 10.88534 | 90° | 119km/h | 9417m | -12.3m/s | -34.5°C | 45.9% | 307hPa | 2.5V | 08:12:12 | 02:14:00 | 00:00:00 | |
| BIOWL1-15 | 2026-09-05 00:43:18 | 48.90601 | 10.88350 | 89° | 122km/h | 9465m | -11.2m/s | 0°C | 0% | 0hPa | 2.5V | 18:12:15 | 02:13:56 | 00:00:00 | |
| DO9HM | 2026-09-05 00:43:18 | 48.90601 | 10.88350 | 90° | 122km/h | 9465m | -11.2m/s | -35.0°C | 35.1% | 304.9hPa | 2.5V | 08:12:00 | 00:00:00 | 00:00:00 | |
| DB0NH | 2026-09-05 00:43:17 | 48.90600 | 10.88303 | 91° | 120km/h | 9476m | -11.4m/s | -35.0°C | 37.6% | 304.3hPa | 2.5V | 00:00:00 | 02:13:55 | 00:00:00 | |
| OE5DXL-15 | 2026-09-05 00:43:16 | 48.90600 | 10.88257 | 91° | 120km/h | 9488m | -11.6m/s | -35.1°C | 36.0% | 303.9hPa | 2.4V | 00:00:00 | 00:00:00 | 00:00:00 | |
| OE5DRO-10 | 2026-09-05 00:43:14 | 48.90601 | 10.88164 | 91° | 120km/h | 9512m | -13.4m/s | -35.3°C | 32.3% | 302.9hPa | 2.4V | 08:11:00 | 00:00:00 | 00:00:00 | |
| DM0DOS-11 | 2026-09-05 00:43:13 | 48.90599 | 10.88023 | 88° | 122km/h | 9548m | -12m/s | -35.6°C | 25.6% | 301.3hPa | 2.5V | 08:11:50 | 02:13:49 | 00:00:00 | |
| DK7TD | 2026-09-05 00:43:11 | 48.90600 | 10.88023 | 89° | 122km/h | 9548m | -12m/s | -35.6°C | 29.4% | 301.3hPa | 2.5V | 08:12:12 | 02:13:49 | 00:00:00 | |
| DB0ND-19 | 2026-09-05 00:43:10 | 48.90598 | 10.87976 | 88° | 120km/h | 9559m | -11.7m/s | -35.7°C | 22.3% | 300.8hPa | 2.5V | 00:00:00 | 00:00:00 | 00:00:00 | |
| DL6DJ-15 | 2026-09-05 00:43:09 | 48.90596 | 10.87884 | 87° | 119km/h | 9583m | -13.2m/s | -36.0°C | 22.3% | 299.8hPa | 2.5V | 00:00:00 | 00:00:00 | 00:00:00 | |
| DO3MHA-12 | 2026-09-05 00:43:08 | 48.90596 | 10.87884 | 88° | 119km/h | 9583m | -13.2m/s | -35.9°C | 25.0% | 299.7hPa | 2.5V | 00:00:00 | 02:13:46 | 00:00:00 | |
| DM7RM-13 | 2026-09-05 00:43:07 | 48.90596 | 10.87884 | 89° | 119km/h | 9583m | -13.2m/s | -36.0°C | 22.3% | 299.8hPa | 2.5V | 08:12:00 | 00:00:00 | 00:00:00 | |
| DB0UT-7 | 2026-09-05 00:43:06 | 48.90593 | 10.87793 | 88° | 119km/h | 9609m | -14.2m/s | -36.2°C | 26.2% | 298.6hPa | 2.5V | 00:00:00 | 00:00:00 | 00:00:00 | |
| DF7PN | 2026-09-05 00:43:04 | 48.90590 | 10.87703 | 87° | 117km/h | 9635m | -12.4m/s | -36.5°C | 25.4% | 297.6hPa | 2.5V | 00:00:00 | 00:00:00 | 00:00:00 | |
| DL1NUX | 2026-09-05 00:43:02 | 48.90580 | 10.87385 | 86° | 119km/h | 9719m | -13.4m/s | -37.3°C | 52.6% | 293.9hPa | 2.5V | 08:12:04 | 02:13:35 | 00:00:00 | |
| DK7TD | 2026-09-05 00:43:01 | 48.90586 | 10.87568 | 88° | 117km/h | 9669m | -13.1m/s | -36.8°C | 37.4% | 296.1hPa | 2.4V | 08:12:12 | 02:13:39 | 00:00:00 | |
| DO3MHA-12 | 2026-09-05 00:42:58 | 48.90581 | 10.87430 | 88° | 120km/h | 9707m | -12.5m/s | -37.1°C | 47.4% | 294.5hPa | 2.5V | 00:00:00 | 02:13:36 | 00:00:00 | |
| DM0DOS-11 | 2026-09-05 00:42:57 | 48.90575 | 10.87248 | 85° | 120km/h | 9758m | -14.1m/s | -37.6°C | 54.3% | 292.3hPa | 2.5V | 08:12:07 | 02:13:32 | 00:00:00 | |
| DK7TD | 2026-09-05 00:42:51 | 48.90567 | 10.87109 | 85° | 120km/h | 9796m | -12.6m/s | -38°C | 53.7% | 290.6hPa | 2.4V | 08:12:12 | 02:13:29 | 00:00:00 | |
| DF3TZ-5 | 2026-09-05 00:42:50 | 48.90554 | 10.86881 | 87° | 117km/h | 9854m | -13.3m/s | -38.5°C | 55.4% | 288.3hPa | 2.4V | 00:00:00 | 00:00:00 | 00:00:00 | |
| DO3MHA-12 | 2026-09-05 00:42:48 | 48.90559 | 10.86972 | 86° | 117km/h | 9832m | -11.3m/s | -38.3°C | 61.5% | 289.1hPa | 2.4V | 00:00:00 | 02:13:26 | 00:00:00 | |
| DL1NUX | 2026-09-05 00:42:47 | 48.90554 | 10.86881 | 87° | 119km/h | 9854m | -13.2m/s | -38.5°C | 60.3% | 288.3hPa | 2.5V | 08:12:15 | 02:13:24 | 00:00:00 | |
| DL1ZP-14 | 2026-09-05 00:42:45 | 48.90553 | 10.86836 | 86° | 119km/h | 9868m | -14.3m/s | -38.7°C | 55.7% | 287.9hPa | 2.4V | 00:00:00 | 00:00:00 | 00:00:00 | |
| DK7TD | 2026-09-05 00:42:40 | 48.90543 | 10.86612 | 86° | 115km/h | 9928m | -12.6m/s | -39.1°C | 66.7% | 285.2hPa | 2.5V | 08:13:03 | 02:13:18 | 00:00:00 | |
| DB0ND-19 | 2026-09-05 00:42:39 | 48.90541 | 10.86568 | 86° | 113km/h | 9940m | -12.2m/s | -39.2°C | 62.6% | 284.7hPa | 2.5V | 00:00:00 | 00:00:00 | 00:00:00 | |
| DO9HM | 2026-09-05 00:42:38 | 48.90540 | 10.86525 | 88° | 113km/h | 9953m | -14.1m/s | -39.1°C | 63.8% | 284.2hPa | 2.5V | 08:13:00 | 00:00:00 | 00:00:00 | |
| DL1NUX | 2026-09-05 00:42:37 | 48.90537 | 10.86438 | 87° | 115km/h | 9978m | -12.6m/s | -38.9°C | 68.1% | 283.1hPa | 2.5V | 08:12:25 | 02:13:14 | 00:00:00 | |
| DJ8HS-15 | 2026-09-05 00:42:36 | 48.90537 | 10.86438 | 88° | 115km/h | 9978m | -12.5m/s | -38.9°C | 68.1% | 283.0hPa | 2.5V | 08:12:00 | 02:13:14 | 00:00:00 | |
| OE5DRO-10 | 2026-09-05 00:42:35 | 48.90536 | 10.86393 | 88° | 117km/h | 9990m | -11.6m/s | -39.0°C | 68.3% | 282.6hPa | 2.5V | 00:00:00 | 00:00:00 | 00:00:00 | |
| DO3MHA-11 | 2026-09-05 00:42:34 | 48.90534 | 10.86349 | 87° | 113km/h | 10001m | -12.9m/s | -39.1°C | 68.0% | 282.1hPa | 2.5V | 00:00:00 | 02:13:12 | 00:00:00 | |
| DF7PN | 2026-09-05 00:42:33 | 48.90532 | 10.86263 | 88° | 113km/h | 10026m | -12.9m/s | -39.3°C | 63.2% | 281.1hPa | 2.4V | 00:00:00 | 00:00:00 | 00:00:00 | |
| DL1NUX | 2026-09-05 00:42:30 | 48.90523 | 10.86000 | 86° | 117km/h | 10099m | -11.6m/s | -40°C | 70.4% | 278.2hPa | 2.4V | 08:12:35 | 02:13:04 | 00:00:00 | |
| DK7TD | 2026-09-05 00:42:29 | 48.90527 | 10.86131 | 87° | 113km/h | 10064m | -12.2m/s | -39.7°C | 71.6% | 279.6hPa | 2.6V | 08:13:03 | 02:13:07 | 00:00:00 | |
| SO1NDE-10 | 2026-09-05 00:42:27 | 48.90524 | 10.86044 | 88° | 120km/h | 10088m | -11.3m/s | -39.8°C | 70.3% | 278.6hPa | 2.5V | 00:00:00 | 02:13:05 | 00:00:00 | |
| DF2AP-13 | 2026-09-05 00:42:25 | 48.90521 | 10.85956 | 87° | 120km/h | 10111m | -11.9m/s | -40.1°C | 70.5% | 277.7hPa | 2.5V | 00:00:00 | 02:13:03 | 00:00:00 | |
| DO3MHA-11 | 2026-09-05 00:42:24 | 48.90520 | 10.85912 | 87° | 117km/h | 10123m | -12.6m/s | -40.2°C | 70.6% | 277.2hPa | 2.5V | 00:00:00 | 02:13:02 | 00:00:00 | |
| DL1NUX | 2026-09-05 00:42:20 | 48.90511 | 10.85552 | 88° | 120km/h | 10223m | -12.2m/s | -41.1°C | 68.2% | 273.2hPa | 2.5V | 08:12:45 | 02:12:54 | 00:00:00 | |
| DK7TD | 2026-09-05 00:42:19 | 48.90513 | 10.85689 | 88° | 120km/h | 10186m | -13.3m/s | -40.8°C | 73.5% | 274.7hPa | 2.5V | 08:13:03 | 02:12:57 | 00:00:00 | |
| HARRO8 | 2026-09-05 00:42:19 | 48.90513 | 10.85689 | 87° | 119km/h | 10186m | -13.3m/s | -40.8°C | 64.2% | 274.7hPa | 2.5V | 00:00:00 | 00:00:00 | 00:00:00 | |
| DO3MHA-12 | 2026-09-05 00:42:18 | 48.90512 | 10.85643 | 88° | 122km/h | 10199m | -12.0m/s | -40.8°C | 69.5% | 274.1hPa | 2.5V | 00:00:00 | 02:12:56 | 00:00:00 | |
| DB0NH | 2026-09-05 00:42:17 | 48.90511 | 10.85598 | 89° | 122km/h | 10211m | -12.3m/s | -40.9°C | 68.8% | 273.7hPa | 2.5V | 00:00:00 | 02:12:55 | 00:00:00 | |
| DJ8HS-15 | 2026-09-05 00:42:16 | 48.90511 | 10.85551 | 89° | 122km/h | 10223m | -12.2m/s | -41.0°C | 68.2% | 273.2hPa | 2.5V | 00:00:00 | 02:12:54 | 00:00:00 | |
| DO3MHA-11 | 2026-09-05 00:42:14 | 48.90509 | 10.85458 | 90° | 122km/h | 10247m | -11.9m/s | -41.3°C | 68.4% | 272.1hPa | 2.5V | 00:00:00 | 02:12:52 | 00:00:00 | |
| DK5PH-5 | 2026-09-05 00:42:13 | 48.90509 | 10.85412 | 90° | 122km/h | 10260m | -12.3m/s | -41.4°C | 67.4% | 271.7hPa | 2.5V | 00:00:00 | 02:12:51 | 00:00:00 | |
| DL1NUX | 2026-09-05 00:42:10 | 48.90509 | 10.85082 | 88° | 120km/h | 10342m | -12.5m/s | -42.1°C | 66.1% | 268.4hPa | 2.5V | 08:12:55 | 02:12:44 | 00:00:00 | |
| DK7TD | 2026-09-05 00:42:09 | 48.90510 | 10.85223 | 90° | 124km/h | 10307m | -11.8m/s | -41.8°C | 69.5% | 269.8hPa | 2.4V | 08:13:03 | 02:12:47 | 00:00:00 | |
| DO3MHA-12 | 2026-09-05 00:42:08 | 48.90510 | 10.85175 | 90° | 120km/h | 10318m | -12.2m/s | -41.8°C | 65.9% | 269.3hPa | 2.5V | 00:00:00 | 02:12:46 | 00:00:00 | |
| DL6DJ-15 | 2026-09-05 00:42:07 | 48.90509 | 10.85082 | 88° | 119km/h | 10342m | -12.5m/s | -42.1°C | 60.4% | 268.4hPa | 2.5V | 00:00:00 | 00:00:00 | 00:00:00 | |
| DB0UT-7 | 2026-09-05 00:42:06 | 48.90509 | 10.85082 | 89° | 120km/h | 10342m | -12.4m/s | -42.0°C | 66.1% | 268.3hPa | 2.5V | 00:00:00 | 00:00:00 | 00:00:00 | |
| DM7RM-13 | 2026-09-05 00:42:05 | 48.90508 | 10.85036 | 89° | 120km/h | 10354m | -11.7m/s | -42.2°C | 60.5% | 267.9hPa | 2.5V | 08:13:00 | 00:00:00 | 00:00:00 | |
| OE5DRO-10 | 2026-09-05 00:42:04 | 48.90508 | 10.84990 | 90° | 120km/h | 10365m | -12.3m/s | -42.2°C | 66.4% | 267.3hPa | 2.5V | 00:00:00 | 00:00:00 | 00:00:00 | |
| DF7PN | 2026-09-05 00:42:02 | 48.90506 | 10.84851 | 88° | 117km/h | 10403m | -12.8m/s | -42.7°C | 60.3% | 266.0hPa | 2.5V | 00:00:00 | 00:00:00 | 00:00:00 | |
| DL1NUX | 2026-09-05 00:42:00 | 48.90503 | 10.84620 | 89° | 122km/h | 10475m | -14.9m/s | -43.3°C | 65.2% | 263.2hPa | 2.5V | 08:13:05 | 02:12:34 | 00:00:00 | |
| DK7TD | 2026-09-05 00:41:59 | 48.90505 | 10.84759 | 89° | 117km/h | 10431m | -15.5m/s | -42.9°C | 70% | 265hPa | 2.6V | 08:13:03 | 02:12:37 | 00:00:00 | |
| DO3MHA-12 | 2026-09-05 00:41:58 | 48.90504 | 10.84713 | 90° | 122km/h | 10445m | -15.4m/s | -43.0°C | 65.5% | 264.4hPa | 2.4V | 00:00:00 | 02:12:36 | 00:00:00 | |
| SO1NDE-10 | 2026-09-05 00:41:57 | 48.90503 | 10.84667 | 89° | 120km/h | 10460m | -14.9m/s | -43.1°C | 65.3% | 263.7hPa | 2.4V | 00:00:00 | 02:12:35 | 00:00:00 | |
| DJ8HS-15 | 2026-09-05 00:41:56 | 48.90503 | 10.84620 | 90° | 120km/h | 10475m | -14.9m/s | -43.3°C | 65.2% | 263.2hPa | 2.5V | 00:00:00 | 02:12:34 | 00:00:00 | |
| DF2AP-13 | 2026-09-05 00:41:55 | 48.90503 | 10.84574 | 89° | 120km/h | 10490m | -15.8m/s | -43.4°C | 64.7% | 262.7hPa | 2.5V | 08:13:00 | 02:12:33 | 00:00:00 | |
| DO3MHA-11 | 2026-09-05 00:41:54 | 48.90502 | 10.84527 | 89° | 122km/h | 10506m | -15.0m/s | -43.5°C | 64.0% | 262.1hPa | 2.5V | 00:00:00 | 02:12:32 | 00:00:00 | |
| PG1ADW-2 | 2026-09-05 00:41:52 | 48.90501 | 10.84433 | 89° | 120km/h | 10536m | -15.2m/s | -43.8°C | 63.5% | 260.9hPa | 2.5V | 00:00:00 | 00:00:00 | 00:00:00 | |
| DL1NUX | 2026-09-05 00:41:50 | 48.90504 | 10.84105 | 91° | 122km/h | 10639m | -13.2m/s | -44.8°C | 64.4% | 256.9hPa | 2.5V | 08:13:16 | 02:12:23 | 00:00:00 | |
| DK7TD | 2026-09-05 00:41:49 | 48.90502 | 10.84292 | 91° | 124km/h | 10582m | -15.8m/s | -44.3°C | 67.6% | 259.1hPa | 2.5V | 08:13:54 | 02:12:27 | 00:00:00 | |
| DO3MHA-12 | 2026-09-05 00:41:48 | 48.90502 | 10.84244 | 91° | 120km/h | 10598m | -15.9m/s | -44.4°C | 63.7% | 258.5hPa | 2.5V | 08:13:00 | 02:12:26 | 00:00:00 | |
| DB0NH | 2026-09-05 00:41:47 | 48.90502 | 10.84198 | 91° | 120km/h | 10612m | -13.7m/s | -44.5°C | 64.3% | 257.9hPa | 2.6V | 00:00:00 | 02:12:25 | 00:00:00 | |
| OE5DXL-15 | 2026-09-05 00:41:46 | 48.90503 | 10.84151 | 93° | 120km/h | 10626m | -13.5m/s | -44.7°C | 64.5% | 257.3hPa | 2.5V | 00:00:00 | 00:00:00 | 00:00:00 | |
| DO3MHA-11 | 2026-09-05 00:41:44 | 48.90505 | 10.84058 | 91° | 120km/h | 10652m | -13.9m/s | -44.9°C | 64.0% | 256.4hPa | 2.5V | 00:00:00 | 02:12:22 | 00:00:00 | |
| DK5PH-5 | 2026-09-05 00:41:43 | 48.90505 | 10.84012 | 91° | 120km/h | 10666m | -14.6m/s | -45.0°C | 63.5% | 255.8hPa | 2.5V | 00:00:00 | 02:12:21 | 00:00:00 | |
| DL1NUX | 2026-09-05 00:41:40 | 48.90507 | 10.83689 | 89° | 120km/h | 10758m | -11.6m/s | -46°C | 63.9% | 252.2hPa | 2.5V | 08:13:25 | 02:12:14 | 00:00:00 | |
| DK7TD | 2026-09-05 00:41:38 | 48.90507 | 10.83782 | 90° | 120km/h | 10733m | -13m/s | -45.7°C | 67.9% | 253.2hPa | 2.4V | 08:13:54 | 02:12:16 | 00:00:00 | |
| DO3MHA-12 | 2026-09-05 00:41:38 | 48.90507 | 10.83782 | 91° | 120km/h | 10733m | -13.0m/s | -45.7°C | 63.5% | 253.2hPa | 2.5V | 00:00:00 | 02:12:16 | 00:00:00 | |
| DB0ND-19 | 2026-09-05 00:41:37 | 48.90507 | 10.83735 | 89° | 120km/h | 10746m | -13.9m/s | -45.9°C | 57.3% | 252.8hPa | 2.5V | 00:00:00 | 00:00:00 | 00:00:00 | |
| DB0UT-7 | 2026-09-05 00:41:36 | 48.90507 | 10.83689 | 90° | 120km/h | 10759m | -11.5m/s | -45.9°C | 63.9% | 252.2hPa | 2.5V | 00:00:00 | 02:12:14 | 00:00:00 | |
| DO9HM | 2026-09-05 00:41:35 | 48.90507 | 10.83689 | 91° | 120km/h | 10759m | -11.6m/s | -46.0°C | 57.6% | 252.2hPa | 2.5V | 08:13:00 | 00:00:00 | 00:00:00 | |
| DO3MHA-11 | 2026-09-05 00:41:34 | 48.90507 | 10.83596 | 90° | 120km/h | 10780m | -10.7m/s | -46.1°C | 64.4% | 251.3hPa | 2.5V | 00:00:00 | 02:12:12 | 00:00:00 | |
| DL1NUX | 2026-09-05 00:41:32 | 48.90501 | 10.83226 | 88° | 122km/h | 10862m | -9.7m/s | -47°C | 65.6% | 248.3hPa | 2.5V | 08:13:35 | 02:12:04 | 00:00:00 | |
| DK7TD | 2026-09-05 00:41:28 | 48.90503 | 10.83318 | 88° | 119km/h | 10841m | -10.6m/s | -46.8°C | 67.9% | 249.1hPa | 2.5V | 08:13:54 | 02:12:06 | 00:00:00 | |
| DO3MHA-12 | 2026-09-05 00:41:28 | 48.90503 | 10.83318 | 88° | 120km/h | 10841m | -10.5m/s | -46.7°C | 64.6% | 249.1hPa | 2.5V | 00:00:00 | 02:12:06 | 00:00:00 | |
| SO1NDE-10 | 2026-09-05 00:41:27 | 48.90502 | 10.83272 | 89° | 120km/h | 10852m | -11.5m/s | -46.8°C | 64.9% | 248.7hPa | 2.5V | 00:00:00 | 02:12:05 | 00:00:00 | |
| DF2AP-13 | 2026-09-05 00:41:25 | 48.90500 | 10.83179 | 89° | 120km/h | 10871m | -8.6m/s | -47.0°C | 66.2% | 247.9hPa | 2.5V | 00:00:00 | 02:12:03 | 00:00:00 | |
| DM0DOS-11 | 2026-09-05 00:41:24 | 48.90496 | 10.82902 | 88° | 120km/h | 10923m | -8m/s | -47.5°C | 65.3% | 246hPa | 2.5V | 08:13:42 | 02:11:57 | 00:00:00 | |
| DO3MHA-11 | 2026-09-05 00:41:24 | 48.90500 | 10.83133 | 89° | 120km/h | 10879m | -7.5m/s | -47.1°C | 66.2% | 247.6hPa | 2.6V | 00:00:00 | 02:12:02 | 00:00:00 | |
| DM7RM-13 | 2026-09-05 00:41:23 | 48.90500 | 10.83133 | 90° | 120km/h | 10879m | -7.6m/s | -47.1°C | 59.5% | 247.6hPa | 2.6V | 08:13:00 | 00:00:00 | 00:00:00 | |
| DL1NUX | 2026-09-05 00:41:20 | 48.90493 | 10.82762 | 87° | 122km/h | 10951m | -9m/s | -47.8°C | 66% | 245hPa | 2.6V | 08:13:45 | 02:11:54 | 00:00:00 | |
| DK7TD | 2026-09-05 00:41:18 | 48.90495 | 10.82855 | 88° | 120km/h | 10931m | -10.6m/s | -47.6°C | 68.9% | 245.7hPa | 2.5V | 08:13:54 | 02:11:56 | 00:00:00 | |
| DO3MHA-12 | 2026-09-05 00:41:18 | 48.90495 | 10.82855 | 88° | 122km/h | 10932m | -10.6m/s | -47.6°C | 65.3% | 245.7hPa | 2.5V | 00:00:00 | 02:11:56 | 00:00:00 | |
| DB0NH | 2026-09-05 00:41:17 | 48.90494 | 10.82809 | 89° | 119km/h | 10942m | -10.2m/s | -47.7°C | 65.7% | 245.3hPa | 2.5V | 00:00:00 | 02:11:55 | 00:00:00 | |
| DO9HM | 2026-09-05 00:41:16 | 48.90493 | 10.82762 | 89° | 122km/h | 10951m | -9.0m/s | -47.8°C | 59.2% | 245.0hPa | 2.5V | 08:13:00 | 00:00:00 | 00:00:00 | |
| DO3MHA-11 | 2026-09-05 00:41:14 | 48.90491 | 10.82668 | 88° | 120km/h | 10969m | -9.1m/s | -47.9°C | 66.5% | 244.3hPa | 2.5V | 00:00:00 | 02:11:52 | 00:00:00 | |
| DK5PH-5 | 2026-09-05 00:41:13 | 48.90490 | 10.82621 | 88° | 119km/h | 10978m | -8.4m/s | -48.0°C | 66.9% | 243.9hPa | 2.5V | 00:00:00 | 02:11:51 | 00:00:00 | |
| PG1ADW-2 | 2026-09-05 00:41:12 | 48.90488 | 10.82574 | 88° | 119km/h | 10986m | -7.5m/s | -48.1°C | 66.9% | 243.6hPa | 2.5V | 08:13:00 | 00:00:00 | 00:00:00 | |
| DL1NUX | 2026-09-05 00:41:10 | 48.90481 | 10.82295 | 88° | 120km/h | 11038m | -9.7m/s | -48.6°C | 65.2% | 241.8hPa | 2.5V | 08:13:55 | 02:11:44 | 00:00:00 | |
| DM0DOS-11 | 2026-09-05 00:41:10 | 48.90484 | 10.82434 | 87° | 120km/h | 11011m | -10.5m/s | -48.3°C | 66.2% | 242.8hPa | 2.5V | 08:13:52 | 02:11:47 | 00:00:00 | |
| DK7TD | 2026-09-05 00:41:07 | 48.90482 | 10.82341 | 88° | 120km/h | 11029m | -8.9m/s | -48.5°C | 68.1% | 242.1hPa | 2.5V | 08:13:54 | 02:11:45 | 00:00:00 | |
| NBG1-10 | 2026-09-05 00:41:07 | 48.90482 | 10.82341 | 89° | 117km/h | 11029m | -8.8m/s | -48.5°C | 66.0% | 242.1hPa | 2.5V | 00:00:00 | 02:11:45 | 00:00:00 | |
| DB0ND-19 | 2026-09-05 00:41:06 | 48.90481 | 10.82295 | 88° | 119km/h | 11038m | -9.7m/s | -48.6°C | 58.2% | 241.8hPa | 2.5V | 00:00:00 | 00:00:00 | 00:00:00 | |
| DM0DOS-11 | 2026-09-05 00:41:04 | 48.90472 | 10.81975 | 85° | 117km/h | 11109m | -10.8m/s | -49.2°C | 63.1% | 239.4hPa | 2.5V | 08:14:02 | 02:11:37 | 00:00:00 | |
| DO3MHA-11 | 2026-09-05 00:41:04 | 48.90479 | 10.82203 | 89° | 119km/h | 11058m | -9.3m/s | -48.7°C | 64.4% | 241.1hPa | 2.6V | 00:00:00 | 02:11:42 | 00:00:00 | |
| DB0UT-7 | 2026-09-05 00:41:02 | 48.90477 | 10.82112 | 87° | 117km/h | 11077m | -10.3m/s | -48.9°C | 64.0% | 240.4hPa | 2.5V | 00:00:00 | 00:00:00 | 00:00:00 | |
| DL1NUX | 2026-09-05 00:41:00 | 48.90466 | 10.81839 | 85° | 119km/h | 11141m | -11.6m/s | -49.5°C | 63% | 238.1hPa | 2.5V | 08:14:05 | 02:11:34 | 00:00:00 | |
| DK7TD | 2026-09-05 00:40:56 | 48.90466 | 10.81839 | 86° | 119km/h | 11141m | -11.6m/s | -49.5°C | 66.6% | 238.1hPa | 2.5V | 08:14:45 | 02:11:34 | 00:00:00 | |
| DJ8HS-15 | 2026-09-05 00:40:56 | 48.90466 | 10.81839 | 86° | 115km/h | 11141m | -11.6m/s | -49.5°C | 63.0% | 238.0hPa | 2.6V | 00:00:00 | 02:11:34 | 00:00:00 | |
| DF2AP-13 | 2026-09-05 00:40:55 | 48.90463 | 10.81794 | 86° | 115km/h | 11153m | -12.8m/s | -49.6°C | 63.1% | 237.7hPa | 2.6V | 00:00:00 | 02:11:33 | 00:00:00 | |
| DO9HM | 2026-09-05 00:40:54 | 48.90463 | 10.81794 | 86° | 117km/h | 11153m | -12.8m/s | -49.6°C | 56.2% | 237.7hPa | 2.6V | 08:14:00 | 00:00:00 | 00:00:00 | |
| PG1ADW-2 | 2026-09-05 00:40:52 | 48.90456 | 10.81660 | 86° | 115km/h | 11186m | -10.5m/s | -49.8°C | 63.5% | 236.5hPa | 2.6V | 00:00:00 | 02:11:30 | 00:00:00 | |
| DL1NUX | 2026-09-05 00:40:50 | 48.90444 | 10.81394 | 85° | 115km/h | 11252m | -11.5m/s | -50.5°C | 63.5% | 234.1hPa | 2.6V | 08:14:15 | 02:11:24 | 00:00:00 | |
| DM0DOS-11 | 2026-09-05 00:40:50 | 48.90450 | 10.81527 | 85° | 117km/h | 11218m | -12m/s | -50.2°C | 63.4% | 235.4hPa | 2.5V | 08:14:12 | 02:11:27 | 00:00:00 | |
| DK7TD | 2026-09-05 00:40:46 | 48.90444 | 10.81395 | 86° | 115km/h | 11252m | -11.5m/s | -50.5°C | 67.1% | 234.1hPa | 2.6V | 08:14:45 | 02:11:24 | 00:00:00 | |
| DF3TZ-5 | 2026-09-05 00:40:46 | 48.90441 | 10.81350 | 85° | 115km/h | 11264m | -12.3m/s | -50.6°C | 56.0% | 233.7hPa | 2.5V | 00:00:00 | 00:00:00 | 00:00:00 | |
| DM0DOS-11 | 2026-09-05 00:40:44 | 48.90425 | 10.81086 | 85° | 115km/h | 11333m | -9.2m/s | -51.3°C | 62.5% | 231.3hPa | 2.5V | 08:14:22 | 02:11:17 | 00:00:00 | |
| DK5PH-5 | 2026-09-05 00:40:43 | 48.90436 | 10.81262 | 85° | 113km/h | 11288m | -12.6m/s | -50.8°C | 63.0% | 232.8hPa | 2.5V | 00:00:00 | 02:11:21 | 00:00:00 | |
| OE5DRO-10 | 2026-09-05 00:40:41 | 48.90431 | 10.81174 | 85° | 113km/h | 11312m | -10.8m/s | -51.0°C | 63.2% | 231.9hPa | 2.5V | 00:00:00 | 00:00:00 | 00:00:00 | |
| DL1NUX | 2026-09-05 00:40:40 | 48.90417 | 10.80955 | 83° | 113km/h | 11364m | -11.1m/s | -51.6°C | 61.1% | 230.2hPa | 2.5V | 08:14:25 | 02:11:14 | 00:00:00 | |
| DK7TD | 2026-09-05 00:40:35 | 48.90414 | 10.80912 | 85° | 113km/h | 11375m | -10.1m/s | -51.6°C | 63.6% | 229.7hPa | 2.5V | 08:14:45 | 02:11:13 | 00:00:00 | |
| BIOWL1-15 | 2026-09-05 00:40:32 | 48.90397 | 10.80653 | 84° | 113km/h | 11435m | -8.9m/s | 0°C | 0% | 0hPa | 2.5V | 18:12:15 | 02:11:07 | 00:00:00 | |
| DM0DOS-11 | 2026-09-05 00:40:31 | 48.90397 | 10.80653 | 83° | 113km/h | 11435m | -8.9m/s | -52.2°C | 61.2% | 227.6hPa | 2.5V | 08:14:32 | 02:11:07 | 00:00:00 | |
| DL1NUX | 2026-09-05 00:40:31 | 48.90388 | 10.80523 | 83° | 115km/h | 11460m | -7.8m/s | -52.4°C | 61.4% | 226.7hPa | 2.6V | 08:14:35 | 02:11:04 | 00:00:00 | |
| DK7TD | 2026-09-05 00:40:25 | 48.90384 | 10.80479 | 83° | 115km/h | 11468m | -8.3m/s | -52.4°C | 62.7% | 226.4hPa | 2.5V | 08:14:45 | 02:11:03 | 00:00:00 | |
| DF2AP-13 | 2026-09-05 00:40:25 | 48.90384 | 10.80479 | 83° | 110km/h | 11468m | -8.3m/s | -52.4°C | 61.1% | 226.4hPa | 2.5V | 00:00:00 | 02:11:03 | 00:00:00 | |
| DM0DOS-11 | 2026-09-05 00:40:24 | 48.90353 | 10.80182 | 78° | 108km/h | 11530m | -8.5m/s | -52.9°C | 62.3% | 224.3hPa | 2.5V | 08:14:43 | 02:10:56 | 00:00:00 | |
| BIOWL1-15 | 2026-09-05 00:40:21 | 48.90368 | 10.80306 | 81° | 113km/h | 11504m | -9.6m/s | 0°C | 0% | 0hPa | 2.6V | 18:12:15 | 02:10:59 | 00:00:00 | |
| DM7RM-13 | 2026-09-05 00:40:20 | 48.90368 | 10.80306 | 82° | 113km/h | 11504m | -9.6m/s | -52.7°C | 53.8% | 225.2hPa | 2.5V | 08:14:00 | 00:00:00 | 00:00:00 | |
| DO3MHA-12 | 2026-09-05 00:40:18 | 48.90353 | 10.80182 | 79° | 110km/h | 11530m | -8.4m/s | -52.8°C | 62.3% | 224.2hPa | 2.5V | 08:14:00 | 02:10:56 | 00:00:00 | |
| DL1NUX | 2026-09-05 00:40:17 | 48.90342 | 10.80100 | 77° | 108km/h | 11547m | -8.2m/s | -53°C | 61.8% | 223.6hPa | 2.5V | 08:14:45 | 02:10:54 | 00:00:00 | |
| DK7TD | 2026-09-05 00:40:14 | 48.90330 | 10.80018 | 78° | 110km/h | 11565m | -10.4m/s | -53.1°C | 63.4% | 223hPa | 2.5V | 08:15:36 | 02:10:52 | 00:00:00 | |
| DM0DOS-11 | 2026-09-05 00:40:13 | 48.90292 | 10.79773 | 76° | 111km/h | 11631m | -10.5m/s | -53.5°C | 60.9% | 220.8hPa | 2.5V | 08:14:53 | 02:10:46 | 00:00:00 | |
| DK5PH-5 | 2026-09-05 00:40:13 | 48.90324 | 10.79977 | 78° | 110km/h | 11575m | -9.6m/s | -53.1°C | 61.1% | 222.7hPa | 2.5V | 00:00:00 | 02:10:51 | 00:00:00 | |
| PG1ADW-2 | 2026-09-05 00:40:12 | 48.90318 | 10.79936 | 78° | 106km/h | 11585m | -11.2m/s | -53.2°C | 60.7% | 222.3hPa | 2.5V | 00:00:00 | 00:00:00 | 00:00:00 | |
| DL1NUX | 2026-09-05 00:40:10 | 48.90278 | 10.79690 | 75° | 111km/h | 11652m | -11m/s | -53.7°C | 60.9% | 220.1hPa | 2.5V | 08:14:55 | 02:10:44 | 00:00:00 | |
| DK7TD | 2026-09-05 00:40:04 | 48.90264 | 10.79608 | 75° | 110km/h | 11674m | -11.9m/s | -53.9°C | 64.9% | 219.4hPa | 2.5V | 08:15:36 | 02:10:42 | 00:00:00 | |
| DB0ND-19 | 2026-09-05 00:40:04 | 48.90243 | 10.79486 | 74° | 108km/h | 11705m | -10.0m/s | -54.2°C | 53.2% | 218.3hPa | 2.5V | 00:00:00 | 00:00:00 | 00:00:00 | |
| DM0DOS-11 | 2026-09-05 00:40:03 | 48.90220 | 10.79365 | 74° | 110km/h | 11736m | -10.6m/s | -54.5°C | 62% | 217.2hPa | 2.5V | 08:15:03 | 02:10:36 | 00:00:00 | |
| DO3MHA-11 | 2026-09-05 00:40:03 | 48.90257 | 10.79567 | 76° | 110km/h | 11685m | -11.1m/s | -53.9°C | 61.2% | 218.9hPa | 2.5V | 00:00:00 | 02:10:41 | 00:00:00 | |
| DB0UT-7 | 2026-09-05 00:40:02 | 48.90250 | 10.79526 | 76° | 110km/h | 11695m | -8.9m/s | -54.0°C | 61.2% | 218.6hPa | 2.6V | 00:00:00 | 00:00:00 | 00:00:00 | |
| NBG1-10 | 2026-09-05 00:40:01 | 48.90243 | 10.79486 | 75° | 110km/h | 11705m | -10.0m/s | -54.1°C | 61.1% | 218.2hPa | 2.6V | 00:00:00 | 02:10:39 | 00:00:00 | |
| DL1NUX | 2026-09-05 00:40:00 | 48.90205 | 10.79284 | 74° | 110km/h | 11756m | -9.6m/s | -54.6°C | 62.6% | 216.5hPa | 2.6V | 08:15:05 | 02:10:34 | 00:00:00 | |
| DK7TD | 2026-09-05 00:39:54 | 48.90191 | 10.79203 | 76° | 110km/h | 11776m | -10m/s | -54.8°C | 64.7% | 216hPa | 2.5V | 08:15:36 | 02:10:32 | 00:00:00 | |
| DM0DOS-11 | 2026-09-05 00:39:53 | 48.90149 | 10.78953 | 74° | 111km/h | 11842m | -14.9m/s | -55.4°C | 59.1% | 213.8hPa | 2.5V | 08:15:13 | 02:10:26 | 00:00:00 | |
| DO3MHA-11 | 2026-09-05 00:39:53 | 48.90183 | 10.79162 | 76° | 110km/h | 11786m | -10.0m/s | -54.9°C | 62.9% | 215.5hPa | 2.5V | 00:00:00 | 02:10:31 | 00:00:00 | |
| DL1NUX | 2026-09-05 00:39:51 | 48.90135 | 10.78872 | 74° | 110km/h | 11873m | -16.1m/s | -55.7°C | 58.9% | 212.9hPa | 2.5V | 08:15:15 | 02:10:24 | 00:00:00 | |
| DK7TD | 2026-09-05 00:39:43 | 48.90114 | 10.78751 | 75° | 110km/h | 11916m | -12.7m/s | -56.2°C | 63.2% | 211.3hPa | 2.6V | 08:15:36 | 02:10:21 | 00:00:00 | |
| DO3MHA-11 | 2026-09-05 00:39:43 | 48.90114 | 10.78751 | 75° | 110km/h | 11916m | -12.7m/s | -56.1°C | 60.2% | 211.3hPa | 2.5V | 00:00:00 | 02:10:21 | 00:00:00 | |
| DL1NUX | 2026-09-05 00:39:40 | 48.90064 | 10.78469 | 75° | 110km/h | 11991m | -9.8m/s | -56.9°C | 60.9% | 208.8hPa | 2.5V | 08:15:25 | 02:10:14 | 00:00:00 | |
| DL1ZP-14 | 2026-09-05 00:39:39 | 48.90085 | 10.78590 | 75° | 108km/h | 11960m | -10.2m/s | -56.6°C | 52.5% | 209.7hPa | 2.5V | 00:00:00 | 00:00:00 | 00:00:00 | |
| DO3MHA-12 | 2026-09-05 00:39:38 | 48.90078 | 10.78550 | 76° | 110km/h | 11971m | -10.0m/s | -56.6°C | 60.9% | 209.4hPa | 2.5V | 00:00:00 | 02:10:16 | 00:00:00 | |
| DJ8HS-15 | 2026-09-05 00:39:36 | 48.90064 | 10.78469 | 76° | 108km/h | 11991m | -9.8m/s | -56.8°C | 60.9% | 208.7hPa | 2.5V | 08:15:00 | 02:10:14 | 00:00:00 | |
| DM0DOS-11 | 2026-09-05 00:39:35 | 48.90021 | 10.78223 | 74° | 110km/h | 12049m | -10.1m/s | -57.4°C | 59.3% | 206.8hPa | 2.5V | 08:15:31 | 02:10:08 | 00:00:00 | |
| DK7TD | 2026-09-05 00:39:33 | 48.90043 | 10.78346 | 75° | 111km/h | 12020m | -10.3m/s | -57.1°C | 61.2% | 207.8hPa | 2.5V | 08:15:36 | 02:10:11 | 00:00:00 | |
| DO3MHA-11 | 2026-09-05 00:39:33 | 48.90042 | 10.78346 | 75° | 108km/h | 12020m | -10.2m/s | -57.1°C | 59.7% | 207.7hPa | 2.5V | 00:00:00 | 02:10:11 | 00:00:00 | |
| DB0UT-7 | 2026-09-05 00:39:32 | 48.90035 | 10.78305 | 75° | 108km/h | 12030m | -9.7m/s | -57.2°C | 59.7% | 207.5hPa | 2.6V | 08:15:00 | 02:10:10 | 00:00:00 | |
| DL1NUX | 2026-09-05 00:39:31 | 48.89990 | 10.78065 | 72° | 108km/h | 12089m | -10.2m/s | -57.8°C | 58.5% | 205.6hPa | 2.5V | 08:15:35 | 02:10:04 | 00:00:00 | |
| DL6DJ-15 | 2026-09-05 00:39:31 | 48.90028 | 10.78264 | 75° | 110km/h | 12040m | -9.3m/s | -57.3°C | 50.8% | 207.2hPa | 2.5V | 00:00:00 | 00:00:00 | 00:00:00 | |
| NBG1-10 | 2026-09-05 00:39:28 | 48.90005 | 10.78143 | 74° | 108km/h | 12069m | -9.9m/s | -57.5°C | 58.8% | 206.1hPa | 2.5V | 00:00:00 | 02:10:06 | 00:00:00 | |
| SO1NDE-10 | 2026-09-05 00:39:27 | 48.89998 | 10.78104 | 75° | 108km/h | 12080m | -10.2m/s | -57.6°C | 58.6% | 205.8hPa | 2.5V | 00:00:00 | 02:10:05 | 00:00:00 | |
| DF7PN | 2026-09-05 00:39:26 | 48.89990 | 10.78065 | 72° | 106km/h | 12089m | -10.2m/s | -57.8°C | 49.8% | 205.6hPa | 2.5V | 00:00:00 | 00:00:00 | 00:00:00 | |
| DM0DOS-11 | 2026-09-05 00:39:25 | 48.89938 | 10.77830 | 70° | 108km/h | 12149m | -10.2m/s | -58°C | 56.7% | 203.6hPa | 2.5V | 08:15:41 | 02:09:58 | 00:00:00 | |
| DK7TD | 2026-09-05 00:39:23 | 48.89965 | 10.77947 | 71° | 108km/h | 12119m | -10.3m/s | -57.9°C | 58.3% | 204.6hPa | 2.5V | 08:16:27 | 02:10:01 | 00:00:00 | |
| DO3MHA-11 | 2026-09-05 00:39:23 | 48.89965 | 10.77947 | 72° | 106km/h | 12119m | -10.3m/s | -57.8°C | 57.3% | 204.5hPa | 2.5V | 00:00:00 | 02:10:01 | 00:00:00 | |
| DL1NUX | 2026-09-05 00:39:20 | 48.89903 | 10.77675 | 71° | 106km/h | 12190m | -9.9m/s | -58.4°C | 56.5% | 202.3hPa | 2.5V | 08:15:45 | 02:09:54 | 00:00:00 | |
| DO3MHA-12 | 2026-09-05 00:39:18 | 48.89920 | 10.77753 | 71° | 106km/h | 12171m | -9.6m/s | -58.2°C | 56.8% | 202.9hPa | 2.6V | 00:00:00 | 02:09:56 | 00:00:00 | |
| DB0NH | 2026-09-05 00:39:17 | 48.89912 | 10.77714 | 72° | 110km/h | 12181m | -9.7m/s | -58.2°C | 56.7% | 202.6hPa | 2.5V | 00:00:00 | 02:09:55 | 00:00:00 | |
| DJ8HS-15 | 2026-09-05 00:39:16 | 48.89903 | 10.77675 | 72° | 128km/h | 12190m | -9.8m/s | -58.3°C | 56.5% | 202.3hPa | 2.5V | 00:00:00 | 02:09:54 | 00:00:00 | |
| DM0DOS-11 | 2026-09-05 00:39:15 | 48.89853 | 10.77444 | 70° | 106km/h | 12253m | -11m/s | -58.9°C | 57% | 200.3hPa | 2.5V | 08:15:51 | 02:09:48 | 00:00:00 | |
| DK7TD | 2026-09-05 00:39:13 | 48.89878 | 10.77560 | 72° | 106km/h | 12220m | -9.8m/s | -58.6°C | 57.4% | 201.3hPa | 2.6V | 08:16:27 | 02:09:51 | 00:00:00 | |
| DO3MHA-11 | 2026-09-05 00:39:13 | 48.89878 | 10.77560 | 73° | 108km/h | 12220m | -9.7m/s | -58.5°C | 56.9% | 201.3hPa | 2.6V | 00:00:00 | 02:09:51 | 00:00:00 | |
| DH7VM-15 | 2026-09-05 00:39:12 | 48.89878 | 10.77560 | 73° | 106km/h | 12220m | -9.8m/s | -58.6°C | 48.2% | 201.3hPa | 2.6V | 00:00:00 | 00:00:00 | 00:00:00 | |
| DL1NUX | 2026-09-05 00:39:10 | 48.89813 | 10.77291 | 68° | 108km/h | 12297m | -10.5m/s | -59.2°C | 56% | 198.9hPa | 2.6V | 08:15:55 | 02:09:44 | 00:00:00 | |
| DO3MHA-12 | 2026-09-05 00:39:08 | 48.89833 | 10.77367 | 69° | 110km/h | 12275m | -11.4m/s | -59.0°C | 56.7% | 199.5hPa | 2.6V | 00:00:00 | 02:09:46 | 00:00:00 | |
| OE5DRO-10 | 2026-09-05 00:39:06 | 48.89813 | 10.77291 | 69° | 110km/h | 12297m | -10.5m/s | -59.2°C | 56.0% | 198.8hPa | 2.6V | 00:00:00 | 00:00:00 | 00:00:00 | |
| DM0DOS-11 | 2026-09-05 00:39:05 | 48.89752 | 10.77058 | 68° | 111km/h | 12361m | -10.9m/s | -59.7°C | 52.9% | 196.8hPa | 2.6V | 08:16:01 | 02:09:38 | 00:00:00 | |
| DK7TD | 2026-09-05 00:39:03 | 48.89782 | 10.77175 | 69° | 108km/h | 12329m | -10.9m/s | -59.5°C | 54.3% | 197.9hPa | 2.5V | 08:16:27 | 02:09:41 | 00:00:00 | |
| DO3MHA-11 | 2026-09-05 00:39:03 | 48.89782 | 10.77175 | 69° | 111km/h | 12329m | -10.8m/s | -59.5°C | 54.6% | 197.8hPa | 2.5V | 08:15:00 | 02:09:41 | 00:00:00 | |
| DB0ND-19 | 2026-09-05 00:39:02 | 48.89762 | 10.77097 | 68° | 108km/h | 12351m | -10.6m/s | -59.7°C | 44.6% | 197.2hPa | 2.5V | 00:00:00 | 00:00:00 | 00:00:00 | |
| DL1NUX | 2026-09-05 00:39:00 | 48.89711 | 10.76898 | 69° | 111km/h | 12404m | -10.8m/s | -60°C | 50% | 195.5hPa | 2.5V | 08:16:05 | 02:09:34 | 00:00:00 | |
| DM7RM-13 | 2026-09-05 00:38:58 | 48.89731 | 10.76978 | 70° | 111km/h | 12383m | -10.8m/s | -59.9°C | 42.9% | 196.1hPa | 2.5V | 08:16:00 | 00:00:00 | 00:00:00 | |
| SO1NDE-10 | 2026-09-05 00:38:57 | 48.89721 | 10.76938 | 69° | 113km/h | 12394m | -10.6m/s | -60.0°C | 50.9% | 195.8hPa | 2.5V | 08:16:00 | 02:09:35 | 00:00:00 | |
| NBG1-10 | 2026-09-05 00:38:55 | 48.89701 | 10.76858 | 70° | 115km/h | 12415m | -11.3m/s | -59.9°C | 48.8% | 195.1hPa | 2.5V | 00:00:00 | 02:09:33 | 00:00:00 | |
| DM0DOS-11 | 2026-09-05 00:38:54 | 48.89655 | 10.76658 | 71° | 110km/h | 12469m | -10.6m/s | -59.9°C | 45.2% | 193.5hPa | 2.5V | 08:16:11 | 02:09:28 | 00:00:00 | |
| DK7TD | 2026-09-05 00:38:53 | 48.89682 | 10.76778 | 71° | 111km/h | 12437m | -10m/s | -60°C | 47.1% | 194.4hPa | 2.5V | 08:16:27 | 02:09:31 | 00:00:00 | |
| DO9HM | 2026-09-05 00:38:52 | 48.89682 | 10.76778 | 72° | 111km/h | 12437m | -10.0m/s | -60.0°C | 38.8% | 194.4hPa | 2.5V | 08:16:00 | 00:00:00 | 00:00:00 | |
| DL1NUX | 2026-09-05 00:38:50 | 48.89618 | 10.76498 | 70° | 111km/h | 12512m | -10.7m/s | -60.1°C | 43.2% | 192.1hPa | 2.5V | 08:16:15 | 02:09:24 | 00:00:00 | |
| DK7TD | 2026-09-05 00:38:42 | 48.89580 | 10.76336 | 71° | 113km/h | 12555m | -11.2m/s | -60.5°C | 42.8% | 190.8hPa | 2.6V | 08:16:27 | 02:09:20 | 00:00:00 | |
| DK7TD | 2026-09-05 00:38:31 | 48.89488 | 10.75868 | 76° | 119km/h | 12678m | -11.8m/s | 0°C | 0% | 187.2hPa | 2.6V | 18:12:15 | 02:09:09 | 00:00:00 | |
| DM0DOS-11 | 2026-09-05 00:38:30 | 48.89474 | 10.75778 | 77° | 120km/h | 12702m | -12.3m/s | -61.6°C | 37.1% | 186.4hPa | 2.5V | 08:16:32 | 02:09:07 | 00:00:00 | |
| DL1NUX | 2026-09-05 00:38:30 | 48.89457 | 10.75642 | 79° | 124km/h | 12739m | -11.9m/s | -61.6°C | 35.7% | 185.3hPa | 2.5V | 08:16:35 | 02:09:04 | 00:00:00 | |
| DL6DJ-15 | 2026-09-05 00:38:29 | 48.89474 | 10.75778 | 77° | 119km/h | 12702m | -12.3m/s | -61.6°C | 29.3% | 186.4hPa | 2.6V | 00:00:00 | 00:00:00 | 00:00:00 | |
| DO3MHA-12 | 2026-09-05 00:38:28 | 48.89468 | 10.75733 | 80° | 122km/h | 12714m | -12.3m/s | -61.6°C | 36.7% | 186.0hPa | 2.6V | 00:00:00 | 02:09:06 | 00:00:00 | |
| SO1NDE-10 | 2026-09-05 00:38:27 | 48.89462 | 10.75688 | 79° | 124km/h | 12727m | -12.5m/s | -61.6°C | 36.3% | 185.6hPa | 2.6V | 00:00:00 | 02:09:05 | 00:00:00 | |
| DF2AP-13 | 2026-09-05 00:38:25 | 48.89451 | 10.75595 | 81° | 124km/h | 12750m | -11.9m/s | -61.6°C | 35.1% | 184.9hPa | 2.6V | 00:00:00 | 02:09:03 | 00:00:00 | |
| OE5WHR-10 | 2026-09-05 00:38:24 | 48.89447 | 10.75548 | 82° | 124km/h | 12762m | -11.5m/s | -61.5°C | 34.7% | 184.5hPa | 2.6V | 00:00:00 | 00:00:00 | 00:00:00 | |
| DM0DOS-11 | 2026-09-05 00:38:23 | 48.89424 | 10.75313 | 82° | 124km/h | 12814m | -9.9m/s | -61.9°C | 34.2% | 182.9hPa | 2.6V | 08:16:42 | 02:08:57 | 00:00:00 | |
| DK7TD | 2026-09-05 00:38:20 | 48.89429 | 10.75360 | 82° | 124km/h | 12804m | -10.3m/s | 0°C | 0% | 0hPa | 2.5V | 18:12:15 | 02:08:58 | 00:00:00 | |
| DL1NUX | 2026-09-05 00:38:20 | 48.89410 | 10.75172 | 80° | 124km/h | 12843m | -10.7m/s | -61.9°C | 32.9% | 182.1hPa | 2.5V | 08:16:45 | 02:08:54 | 00:00:00 | |
| DO3MHA-12 | 2026-09-05 00:38:18 | 48.89420 | 10.75266 | 82° | 124km/h | 12824m | -10.0m/s | -61.8°C | 33.6% | 182.6hPa | 2.6V | 00:00:00 | 02:08:56 | 00:00:00 | |
| DB0NH | 2026-09-05 00:38:17 | 48.89415 | 10.75219 | 82° | 124km/h | 12834m | -9.3m/s | -61.9°C | 33.4% | 182.3hPa | 2.5V | 00:00:00 | 02:08:55 | 00:00:00 | |
| OE5DXL-15 | 2026-09-05 00:38:16 | 48.89410 | 10.75172 | 81° | 126km/h | 12844m | -10.6m/s | -61.9°C | 32.9% | 182.1hPa | 2.5V | 00:00:00 | 00:00:00 | 00:00:00 | |
| AM1SDL-15 | 2026-09-05 00:38:15 | 48.89405 | 10.75125 | 81° | 124km/h | 12855m | -11.2m/s | -61.8°C | 32.3% | 181.8hPa | 2.5V | 00:00:00 | 02:08:53 | 00:00:00 | |
| DK5PH-5 | 2026-09-05 00:38:13 | 48.89394 | 10.75030 | 80° | 126km/h | 12878m | -12.0m/s | -61.5°C | 30.8% | 181.1hPa | 2.6V | 08:16:00 | 02:08:51 | 00:00:00 | |
| DO9HM | 2026-09-05 00:38:11 | 48.89388 | 10.74983 | 80° | 124km/h | 12890m | -12.9m/s | -61.5°C | 23.2% | 180.8hPa | 2.6V | 08:17:00 | 00:00:00 | 00:00:00 | |
| DL1NUX | 2026-09-05 00:38:10 | 48.89348 | 10.74706 | 76° | 122km/h | 12966m | -12.9m/s | -61.8°C | 29.8% | 178.6hPa | 2.6V | 08:16:55 | 02:08:44 | 00:00:00 | |
| DK7TD | 2026-09-05 00:38:09 | 48.89369 | 10.74845 | 78° | 122km/h | 12928m | -12.7m/s | 0°C | 0% | 0hPa | 2.5V | 18:12:15 | 02:08:47 | 00:00:00 | |
| OE5DRO-10 | 2026-09-05 00:38:09 | 48.89369 | 10.74845 | 79° | 124km/h | 12929m | -12.6m/s | -61.6°C | 29.9% | 179.7hPa | 2.5V | 00:00:00 | 00:00:00 | 00:00:00 | |
| DO3MHA-12 | 2026-09-05 00:38:08 | 48.89362 | 10.74798 | 78° | 122km/h | 12942m | -12.8m/s | -61.7°C | 29.9% | 179.3hPa | 2.5V | 00:00:00 | 02:08:46 | 00:00:00 | |
| DL1ZP-14 | 2026-09-05 00:38:06 | 48.89341 | 10.74660 | 76° | 120km/h | 12979m | -12.8m/s | -61.8°C | 22.6% | 178.3hPa | 2.5V | 00:00:00 | 00:00:00 | 00:00:00 | |
| OE5WHR-10 | 2026-09-05 00:38:03 | 48.89327 | 10.74568 | 77° | 128km/h | 13005m | -12.8m/s | -62.0°C | 29.6% | 177.5hPa | 2.5V | 00:00:00 | 02:08:41 | 00:00:00 | |
| DL1NUX | 2026-09-05 00:38:00 | 48.89280 | 10.74244 | 77° | 124km/h | 13090m | -12.7m/s | -62.2°C | 27.6% | 175.1hPa | 2.5V | 08:17:05 | 02:08:34 | 00:00:00 | |
| DB0ND-19 | 2026-09-05 00:38:00 | 48.89300 | 10.74385 | 78° | 122km/h | 13055m | -11.0m/s | -62.2°C | 21.9% | 176.0hPa | 2.5V | 00:00:00 | 00:00:00 | 00:00:00 | |
| DO3MHA-12 | 2026-09-05 00:37:58 | 48.89293 | 10.74338 | 79° | 128km/h | 13066m | -11.4m/s | -62.1°C | 28.4% | 175.7hPa | 2.5V | 00:00:00 | 02:08:36 | 00:00:00 | |
| SO1NDE-10 | 2026-09-05 00:37:57 | 48.89286 | 10.74291 | 78° | 128km/h | 13078m | -11.6m/s | -62.0°C | 27.8% | 175.4hPa | 2.5V | 00:00:00 | 02:08:35 | 00:00:00 | |
| DM7RM-13 | 2026-09-05 00:37:56 | 48.89286 | 10.74291 | 79° | 126km/h | 13078m | -11.7m/s | -62.1°C | 20.9% | 175.5hPa | 2.5V | 08:17:00 | 00:00:00 | 00:00:00 | |
| DF2AP-13 | 2026-09-05 00:37:55 | 48.89273 | 10.74197 | 79° | 128km/h | 13103m | -12.5m/s | -62.2°C | 27.4% | 174.7hPa | 2.5V | 00:00:00 | 02:08:33 | 00:00:00 | |
| DO3MHA-11 | 2026-09-05 00:37:53 | 48.89260 | 10.74101 | 79° | 130km/h | 13128m | -12.9m/s | -62.3°C | 27.3% | 174.0hPa | 2.5V | 00:00:00 | 02:08:31 | 00:00:00 | |
| DO9HM | 2026-09-05 00:37:52 | 48.89253 | 10.74053 | 79° | 128km/h | 13141m | -13.0m/s | -62.4°C | 20.5% | 173.7hPa | 2.5V | 08:17:00 | 00:00:00 | 00:00:00 | |
| AM1SDL-15 | 2026-09-05 00:37:51 | 48.89247 | 10.74005 | 80° | 130km/h | 13154m | -12.8m/s | -62.4°C | 27.5% | 173.3hPa | 2.5V | 00:00:00 | 02:08:29 | 00:00:00 | |
| OE5DRO-10 | 2026-09-05 00:37:50 | 48.89241 | 10.73957 | 80° | 130km/h | 13167m | -12.8m/s | -62.3°C | 27.4% | 172.9hPa | 2.5V | 00:00:00 | 00:00:00 | 00:00:00 | |
| NBG1-10 | 2026-09-05 00:37:49 | 48.89236 | 10.73908 | 80° | 130km/h | 13179m | -12.7m/s | -62.1°C | 26.6% | 172.5hPa | 2.6V | 00:00:00 | 02:08:27 | 00:00:00 | |
| DO3MHA-12 | 2026-09-05 00:37:48 | 48.89229 | 10.73858 | 80° | 130km/h | 13192m | -12.4m/s | -62.0°C | 26.4% | 172.2hPa | 2.6V | 00:00:00 | 02:08:26 | 00:00:00 | |
| DL1NUX | 2026-09-05 00:37:47 | 48.89217 | 10.73761 | 78° | 130km/h | 13217m | -12.3m/s | -62°C | 26.2% | 171.6hPa | 2.5V | 08:17:15 | 02:08:24 | 00:00:00 | |
| DB0NH | 2026-09-05 00:37:47 | 48.89223 | 10.73809 | 79° | 128km/h | 13204m | -12.4m/s | -62.0°C | 26.3% | 171.9hPa | 2.5V | 00:00:00 | 02:08:25 | 00:00:00 | |
| OE5DXL-15 | 2026-09-05 00:37:46 | 48.89217 | 10.73761 | 79° | 128km/h | 13217m | -12.3m/s | -62.0°C | 26.2% | 171.5hPa | 2.5V | 00:00:00 | 00:00:00 | 00:00:00 | |
| DM0DOS-11 | 2026-09-05 00:37:43 | 48.89192 | 10.73566 | 79° | 128km/h | 13268m | -13.3m/s | -61.8°C | 23.8% | 170.2hPa | 2.6V | 08:17:19 | 02:08:20 | 00:00:00 | |
| DO3MHA-11 | 2026-09-05 00:37:43 | 48.89198 | 10.73614 | 79° | 128km/h | 13255m | -13.9m/s | -61.7°C | 24.1% | 170.5hPa | 2.5V | 00:00:00 | 02:08:21 | 00:00:00 | |
| OE5WHR-10 | 2026-09-05 00:37:41 | 48.89186 | 10.73518 | 80° | 128km/h | 13282m | -13.7m/s | -61.8°C | 23.6% | 169.8hPa | 2.5V | 08:17:00 | 00:00:00 | 00:00:00 | |
| AM1SDL-15 | 2026-09-05 00:37:39 | 48.89175 | 10.73421 | 81° | 117km/h | 13308m | -12.7m/s | -62.1°C | 23.3% | 169.0hPa | 2.5V | 08:17:00 | 02:08:17 | 00:00:00 | |
| DO3MHA-12 | 2026-09-05 00:37:38 | 48.89169 | 10.73372 | 82° | 128km/h | 13321m | -12.1m/s | -62.2°C | 23.1% | 168.7hPa | 2.6V | 00:00:00 | 02:08:16 | 00:00:00 | |
| DL1NUX | 2026-09-05 00:37:37 | 48.89161 | 10.73274 | 82° | 128km/h | 13346m | -12.9m/s | -62.5°C | 23.1% | 168.1hPa | 2.6V | 08:17:25 | 02:08:14 | 00:00:00 | |
| DM0DOS-11 | 2026-09-05 00:37:36 | 48.89145 | 10.73031 | 85° | 128km/h | 13400m | -9.4m/s | -62.9°C | 22.5% | 166.5hPa | 2.6V | 08:17:30 | 02:08:09 | 00:00:00 | |
| DL1ZP-14 | 2026-09-05 00:37:34 | 48.89153 | 10.73177 | 83° | 126km/h | 13369m | -10.7m/s | -62.7°C | 16.5% | 167.4hPa | 2.5V | 00:00:00 | 00:00:00 | 00:00:00 | |
| DO3MHA-11 | 2026-09-05 00:37:33 | 48.89150 | 10.73129 | 85° | 130km/h | 13380m | -10.9m/s | -62.7°C | 22.8% | 167.0hPa | 2.5V | 08:17:00 | 02:08:11 | 00:00:00 | |
| DF1GD-15 | 2026-09-05 00:37:32 | 48.89150 | 10.73129 | 85° | 128km/h | 13380m | -11.0m/s | -62.8°C | 16.4% | 167.0hPa | 2.5V | 08:18:00 | 00:00:00 | 00:00:00 | |
| DO9HM | 2026-09-05 00:37:30 | 48.89145 | 10.73031 | 87° | 128km/h | 13400m | -9.4m/s | -62.9°C | 16.0% | 166.5hPa | 2.5V | 00:00:00 | 00:00:00 | 00:00:00 | |
| DB0ND-19 | 2026-09-05 00:37:29 | 48.89137 | 10.72883 | 85° | 128km/h | 13427m | -9.8m/s | -63.1°C | 15.2% | 165.8hPa | 2.5V | 00:00:00 | 00:00:00 | 00:00:00 | |
| DO3MHA-12 | 2026-09-05 00:37:28 | 48.89137 | 10.72883 | 86° | 130km/h | 13427m | -9.7m/s | -63.0°C | 21.6% | 165.7hPa | 2.5V | 00:00:00 | 02:08:06 | 00:00:00 | |
| DL1NUX | 2026-09-05 00:37:27 | 48.89133 | 10.72783 | 85° | 130km/h | 13446m | -9.2m/s | -63°C | 21.1% | 165.3hPa | 2.5V | 08:17:35 | 02:08:04 | 00:00:00 | |
| SO1NDE-10 | 2026-09-05 00:37:27 | 48.89135 | 10.72833 | 86° | 131km/h | 13437m | -9.5m/s | -63.0°C | 21.5% | 165.5hPa | 2.5V | 00:00:00 | 02:08:05 | 00:00:00 | |
| DF2AP-13 | 2026-09-05 00:37:25 | 48.89130 | 10.72734 | 85° | 130km/h | 13455m | -8.8m/s | -62.8°C | 20.8% | 164.9hPa | 2.6V | 08:17:00 | 02:08:03 | 00:00:00 | |
| DM0DOS-11 | 2026-09-05 00:37:23 | 48.89118 | 10.72538 | 85° | 128km/h | 13490m | -9.2m/s | -62.5°C | 19.5% | 164hPa | 2.5V | 08:17:40 | 02:07:59 | 00:00:00 | |
| DO3MHA-11 | 2026-09-05 00:37:23 | 48.89124 | 10.72636 | 85° | 128km/h | 13472m | -8.8m/s | -62.5°C | 19.9% | 164.5hPa | 2.6V | 00:00:00 | 02:08:01 | 00:00:00 | |
| DF7PN | 2026-09-05 00:37:22 | 48.89121 | 10.72587 | 84° | 128km/h | 13481m | -8.9m/s | -62.5°C | 13.6% | 164.3hPa | 2.6V | 00:00:00 | 00:00:00 | 00:00:00 | |
| DC4HF-4 | 2026-09-05 00:37:21 | 48.89115 | 10.72489 | 85° | 128km/h | 13499m | -8.6m/s | -62.5°C | 13.3% | 163.8hPa | 2.6V | 00:00:00 | 00:00:00 | 00:00:00 | |
| OE5WHR-10 | 2026-09-05 00:37:20 | 48.89115 | 10.72488 | 86° | 131km/h | 13499m | -8.6m/s | -62.4°C | 19.3% | 163.8hPa | 2.6V | 00:00:00 | 00:00:00 | 00:00:00 | |
| DO3MHA-12 | 2026-09-05 00:37:18 | 48.89110 | 10.72390 | 86° | 130km/h | 13517m | -9.1m/s | -62.3°C | 18.5% | 163.3hPa | 2.6V | 08:17:00 | 02:07:56 | 00:00:00 | |
| DL1NUX | 2026-09-05 00:37:17 | 48.89106 | 10.72292 | 85° | 130km/h | 13535m | -9.7m/s | -62.1°C | 17.8% | 162.9hPa | 2.5V | 08:17:45 | 02:07:54 | 00:00:00 | |
| DB0NH | 2026-09-05 00:37:17 | 48.89108 | 10.72341 | 87° | 128km/h | 13526m | -9.3m/s | -62.2°C | 18.2% | 163.1hPa | 2.5V | 00:00:00 | 02:07:55 | 00:00:00 | |
| DM0DOS-11 | 2026-09-05 00:37:16 | 48.89090 | 10.72044 | 84° | 131km/h | 13586m | -10.1m/s | -62.4°C | 17.2% | 161.6hPa | 2.5V | 08:17:50 | 02:07:49 | 00:00:00 | |
| NBG1-10 | 2026-09-05 00:37:16 | 48.89105 | 10.72292 | 86° | 126km/h | 13536m | -9.6m/s | -62.1°C | 17.8% | 162.8hPa | 2.6V | 00:00:00 | 02:07:54 | 00:00:00 | |
| DM7RM-13 | 2026-09-05 00:37:15 | 48.89106 | 10.72292 | 87° | 130km/h | 13536m | -9.7m/s | -62.1°C | 12.2% | 162.9hPa | 2.6V | 08:18:00 | 00:00:00 | 00:00:00 | |
| DO3MHA-11 | 2026-09-05 00:37:13 | 48.89097 | 10.72143 | 85° | 133km/h | 13565m | -10.4m/s | -62.2°C | 17.4% | 162.1hPa | 2.6V | 00:00:00 | 02:07:51 | 00:00:00 | |
| DF1GD-15 | 2026-09-05 00:37:12 | 48.89097 | 10.72143 | 85° | 130km/h | 13565m | -10.4m/s | -62.3°C | 11.8% | 162.1hPa | 2.6V | 08:18:00 | 00:00:00 | 00:00:00 | |
| DO9HM | 2026-09-05 00:37:09 | 48.89087 | 10.71994 | 85° | 131km/h | 13596m | -10.0m/s | -62.5°C | 11.5% | 161.3hPa | 2.6V | 00:00:00 | 00:00:00 | 00:00:00 | |
| DO3MHA-12 | 2026-09-05 00:37:08 | 48.89081 | 10.71893 | 86° | 133km/h | 13616m | -9.6m/s | -62.6°C | 16.9% | 160.7hPa | 2.6V | 00:00:00 | 02:07:46 | 00:00:00 | |
| DL1NUX | 2026-09-05 00:37:07 | 48.89075 | 10.71790 | 85° | 135km/h | 13636m | -10.2m/s | -62.8°C | 16.6% | 160.3hPa | 2.6V | 08:17:55 | 02:07:44 | 00:00:00 | |
| DM0DOS-11 | 2026-09-05 00:37:03 | 48.89065 | 10.71534 | 88° | 131km/h | 13689m | -10.2m/s | -63.3°C | 16.1% | 158.9hPa | 2.6V | 08:18:00 | 02:07:39 | 00:00:00 | |
| DO3MHA-11 | 2026-09-05 00:37:03 | 48.89068 | 10.71636 | 88° | 128km/h | 13668m | -10.5m/s | -63.1°C | 16.4% | 159.4hPa | 2.5V | 00:00:00 | 02:07:41 | 00:00:00 | |
| DB0ND-19 | 2026-09-05 00:36:58 | 48.89063 | 10.71336 | 89° | 126km/h | 13730m | -9.9m/s | -63.3°C | 9.3% | 157.8hPa | 2.5V | 00:00:00 | 00:00:00 | 00:00:00 | |
| DL1NUX | 2026-09-05 00:36:57 | 48.89063 | 10.71287 | 90° | 124km/h | 13740m | -10.2m/s | -63.2°C | 14.7% | 157.6hPa | 2.5V | 08:18:05 | 02:07:34 | 00:00:00 | |
| DL6DJ-15 | 2026-09-05 00:36:56 | 48.89063 | 10.71287 | 90° | 124km/h | 13740m | -10.2m/s | -63.2°C | 8.9% | 157.6hPa | 2.5V | 00:00:00 | 00:00:00 | 00:00:00 | |
| DF2AP-13 | 2026-09-05 00:36:55 | 48.89063 | 10.71240 | 91° | 117km/h | 13750m | -11.1m/s | -63.1°C | 14.4% | 157.2hPa | 2.5V | 00:00:00 | 02:07:33 | 00:00:00 | |
| DM7RM-13 | 2026-09-05 00:36:54 | 48.89063 | 10.71240 | 91° | 122km/h | 13750m | -11.2m/s | -63.2°C | 8.7% | 157.3hPa | 2.5V | 08:18:00 | 00:00:00 | 00:00:00 | |
| DM0DOS-11 | 2026-09-05 00:36:53 | 48.89061 | 10.71057 | 87° | 117km/h | 13793m | -9.9m/s | -62.8°C | 13% | 156.2hPa | 2.5V | 08:18:10 | 02:07:29 | 00:00:00 | |
| DF7PN | 2026-09-05 00:36:51 | 48.89061 | 10.71057 | 87° | 117km/h | 13793m | -9.9m/s | -62.8°C | 7.6% | 156.2hPa | 2.5V | 00:00:00 | 00:00:00 | 00:00:00 | |
| OE5DRO-10 | 2026-09-05 00:36:49 | 48.89058 | 10.70969 | 87° | 119km/h | 13814m | -10.0m/s | -62.4°C | 12.2% | 155.7hPa | 2.5V | 00:00:00 | 00:00:00 | 00:00:00 | |
| DL1NUX | 2026-09-05 00:36:48 | 48.89051 | 10.70837 | 84° | 117km/h | 13845m | -11.1m/s | -62.3°C | 11.8% | 154.9hPa | 2.5V | 08:18:15 | 02:07:24 | 00:00:00 | |
| DB0NH | 2026-09-05 00:36:47 | 48.89054 | 10.70881 | 86° | 117km/h | 13835m | -10.5m/s | -62.4°C | 12.0% | 155.1hPa | 2.6V | 00:00:00 | 02:07:25 | 00:00:00 | |
| OE5DXL-15 | 2026-09-05 00:36:46 | 48.89051 | 10.70837 | 85° | 117km/h | 13846m | -11.0m/s | -62.3°C | 11.8% | 154.9hPa | 2.6V | 00:00:00 | 00:00:00 | 00:00:00 | |
| DC4HF-4 | 2026-09-05 00:36:45 | 48.89042 | 10.70703 | 83° | 119km/h | 13878m | -11.0m/s | -61.6°C | 6.2% | 154.1hPa | 2.6V | 00:00:00 | 00:00:00 | 00:00:00 | |
| DK5PH-5 | 2026-09-05 00:36:43 | 48.89042 | 10.70703 | 84° | 117km/h | 13878m | -11.0m/s | -61.6°C | 11.4% | 154.0hPa | 2.6V | 00:00:00 | 02:07:21 | 00:00:00 | |
| DM0DOS-11 | 2026-09-05 00:36:42 | 48.89035 | 10.70611 | 83° | 120km/h | 13899m | -10.8m/s | -60.7°C | 10.5% | 153.5hPa | 2.5V | 08:18:20 | 02:07:19 | 00:00:00 | |
| DO3MHA-12 | 2026-09-05 00:36:38 | 48.89024 | 10.70472 | 84° | 120km/h | 13934m | -15.3m/s | -60.4°C | 9.7% | 152.7hPa | 2.5V | 00:00:00 | 02:07:16 | 00:00:00 | |
| DL1NUX | 2026-09-05 00:36:37 | 48.89018 | 10.70379 | 84° | 124km/h | 13966m | -16.3m/s | -60.5°C | 9.7% | 152.1hPa | 2.5V | 08:18:25 | 02:07:14 | 00:00:00 | |
| OE5WHR-10 | 2026-09-05 00:36:37 | 48.89021 | 10.70426 | 85° | 113km/h | 13950m | -16.2m/s | -60.5°C | 9.8% | 152.4hPa | 2.5V | 00:00:00 | 00:00:00 | 00:00:00 | |
| DJ8HS-15 | 2026-09-05 00:36:36 | 48.89018 | 10.70379 | 85° | 117km/h | 13966m | -16.3m/s | -60.5°C | 9.7% | 152.0hPa | 2.5V | 00:00:00 | 02:07:14 | 00:00:00 | |
| DO3MHA-11 | 2026-09-05 00:36:33 | 48.89010 | 10.70240 | 86° | 117km/h | 14018m | -19.3m/s | -59.7°C | 8.6% | 150.8hPa | 2.5V | 00:00:00 | 02:07:11 | 00:00:00 | |
| DM0DOS-11 | 2026-09-05 00:36:32 | 48.89005 | 10.70149 | 86° | 120km/h | 14056m | -18.7m/s | -59.4°C | 8.3% | 149.9hPa | 2.6V | 08:18:30 | 02:07:09 | 00:00:00 | |
| OE5DRO-10 | 2026-09-05 00:36:30 | 48.89003 | 10.70104 | 86° | 113km/h | 14075m | -19.5m/s | -59.2°C | 8.1% | 149.5hPa | 2.5V | 08:18:00 | 00:00:00 | 00:00:00 | |
| AZAK | 2026-09-05 00:36:29 | 48.89003 | 10.70104 | 86° | 117km/h | 14075m | -19.5m/s | -59.3°C | 4.1% | 149.5hPa | 2.6V | 08:19:00 | 00:00:00 | 00:00:00 | |
| DO3MHA-12 | 2026-09-05 00:36:28 | 48.88998 | 10.70016 | 86° | 113km/h | 14113m | -17.3m/s | -58.7°C | 7.6% | 148.5hPa | 2.6V | 00:00:00 | 02:07:06 | 00:00:00 | |
| DL1NUX | 2026-09-05 00:36:27 | 48.88993 | 10.69927 | 83° | 115km/h | 14145m | -17.5m/s | -58.4°C | 7.1% | 147.8hPa | 2.6V | 08:18:35 | 02:07:04 | 00:00:00 | |
| DB0ND-19 | 2026-09-05 00:36:27 | 48.88993 | 10.69927 | 83° | 115km/h | 14145m | -17.5m/s | -58.4°C | 3.6% | 147.8hPa | 2.5V | 00:00:00 | 00:00:00 | 00:00:00 | |
| DF2AP-13 | 2026-09-05 00:36:25 | 48.88990 | 10.69883 | 84° | 104km/h | 14163m | -19.2m/s | -58.1°C | 7.0% | 147.4hPa | 2.5V | 00:00:00 | 02:07:03 | 00:00:00 | |
| DH7VM-15 | 2026-09-05 00:36:24 | 48.88990 | 10.69883 | 84° | 115km/h | 14163m | -19.3m/s | -58.2°C | 3.5% | 147.4hPa | 2.5V | 00:00:00 | 00:00:00 | 00:00:00 | |
| DO3MHA-11 | 2026-09-05 00:36:23 | 48.88982 | 10.69797 | 83° | 111km/h | 14199m | -16.8m/s | -58.1°C | 6.9% | 146.4hPa | 2.5V | 00:00:00 | 02:07:01 | 00:00:00 | |
| DM0DOS-11 | 2026-09-05 00:36:22 | 48.88976 | 10.69711 | 83° | 110km/h | 14233m | -16.8m/s | -58.2°C | 7% | 145.7hPa | 2.5V | 08:18:40 | 02:06:59 | 00:00:00 | |
| DF7PN | 2026-09-05 00:36:20 | 48.88973 | 10.69669 | 82° | 110km/h | 14249m | -15.6m/s | -57.7°C | 3.3% | 145.3hPa | 2.5V | 00:00:00 | 00:00:00 | 00:00:00 | |
| DO3MHA-12 | 2026-09-05 00:36:18 | 48.88967 | 10.69585 | 84° | 108km/h | 14276m | -13.5m/s | -57.2°C | 6.5% | 144.5hPa | 2.5V | 00:00:00 | 02:06:56 | 00:00:00 | |
| DL1NUX | 2026-09-05 00:36:17 | 48.88961 | 10.69500 | 83° | 111km/h | 14302m | -12.5m/s | -57.3°C | 6.6% | 143.9hPa | 2.5V | 08:18:45 | 02:06:54 | 00:00:00 | |
| OE5DXL-15 | 2026-09-05 00:36:17 | 48.88961 | 10.69499 | 84° | 100km/h | 14302m | -12.5m/s | -57.2°C | 6.6% | 143.9hPa | 2.5V | 08:18:00 | 00:00:00 | 00:00:00 | |
| DM0DOS-11 | 2026-09-05 00:36:17 | 48.88948 | 10.69291 | 85° | 106km/h | 14360m | -11.7m/s | -57.5°C | 6.8% | 142.6hPa | 2.5V | 08:18:50 | 02:06:49 | 00:00:00 | |
| DJ8HS-15 | 2026-09-05 00:36:16 | 48.88961 | 10.69499 | 84° | 104km/h | 14302m | -12.5m/s | -57.2°C | 6.6% | 143.9hPa | 2.5V | 00:00:00 | 02:06:54 | 00:00:00 | |
| DK5PH-5 | 2026-09-05 00:36:13 | 48.88953 | 10.69374 | 85° | 99km/h | 14338m | -11.6m/s | -57.4°C | 6.7% | 143.0hPa | 2.5V | 00:00:00 | 02:06:51 | 00:00:00 | |
| OE5DRO-10 | 2026-09-05 00:36:11 | 48.88948 | 10.69291 | 86° | 100km/h | 14360m | -11.7m/s | -57.5°C | 6.8% | 142.5hPa | 2.5V | 00:00:00 | 00:00:00 | 00:00:00 | |
| NBG1-10 | 2026-09-05 00:36:10 | 48.88946 | 10.69251 | 86° | 97km/h | 14373m | -13.6m/s | -57.6°C | 6.8% | 142.3hPa | 2.5V | 00:00:00 | 02:06:48 | 00:00:00 | |
| DF1GD-15 | 2026-09-05 00:36:09 | 48.88947 | 10.69251 | 86° | 104km/h | 14373m | -13.7m/s | -57.6°C | 3.3% | 142.3hPa | 2.5V | 08:19:00 | 00:00:00 | 00:00:00 | |
| DO3MHA-12 | 2026-09-05 00:36:08 | 48.88942 | 10.69172 | 86° | 102km/h | 14402m | -17.0m/s | -57.6°C | 6.6% | 141.7hPa | 2.5V | 00:00:00 | 02:06:46 | 00:00:00 | |
| DL1NUX | 2026-09-05 00:36:07 | 48.88939 | 10.69094 | 85° | 102km/h | 14434m | -15m/s | -57.8°C | 6.6% | 141hPa | 2.5V | 08:18:55 | 02:06:44 | 00:00:00 | |
| DM0DOS-11 | 2026-09-05 00:36:06 | 48.88931 | 10.68901 | 87° | 102km/h | 14523m | -20.2m/s | -57.8°C | 6.3% | 139.2hPa | 2.5V | 08:19:00 | 02:06:39 | 00:00:00 | |
| PG1ADW-2 | 2026-09-05 00:36:04 | 48.88936 | 10.69017 | 86° | 97km/h | 14466m | -17.5m/s | -58.0°C | 6.5% | 140.3hPa | 2.6V | 00:00:00 | 00:00:00 | 00:00:00 | |
| DO3MHA-11 | 2026-09-05 00:36:03 | 48.88934 | 10.68978 | 86° | 100km/h | 14484m | -18.7m/s | -58.1°C | 6.5% | 140.0hPa | 2.6V | 08:18:00 | 02:06:41 | 00:00:00 | |
| DL1ZP-14 | 2026-09-05 00:36:01 | 48.88931 | 10.68901 | 87° | 100km/h | 14523m | -20.3m/s | -57.8°C | 2.9% | 139.2hPa | 2.5V | 00:00:00 | 00:00:00 | 00:00:00 | |
| DO3MHA-12 | 2026-09-05 00:35:58 | 48.88928 | 10.68785 | 89° | 97km/h | 14579m | -17.4m/s | -57.6°C | 6.3% | 137.9hPa | 2.6V | 00:00:00 | 02:06:36 | 00:00:00 | |
| DL1NUX | 2026-09-05 00:35:57 | 48.88928 | 10.68709 | 89° | 100km/h | 14614m | -17.7m/s | -57.5°C | 6.3% | 137.1hPa | 2.6V | 08:19:05 | 02:06:34 | 00:00:00 | |
| SO1NDE-10 | 2026-09-05 00:35:57 | 48.88928 | 10.68747 | 91° | 93km/h | 14597m | -16.8m/s | -57.6°C | 6.3% | 137.5hPa | 2.6V | 00:00:00 | 02:06:35 | 00:00:00 | |
| DM0DOS-11 | 2026-09-05 00:35:56 | 48.88929 | 10.68523 | 91° | 91km/h | 14711m | -21.7m/s | -57°C | 5.8% | 135.1hPa | 2.6V | 08:19:10 | 02:06:29 | 00:00:00 | |
| DL6DJ-15 | 2026-09-05 00:35:54 | 48.88928 | 10.68597 | 89° | 95km/h | 14670m | -19.1m/s | -57.0°C | 2.7% | 136.0hPa | 2.5V | 00:00:00 | 00:00:00 | 00:00:00 | |
| DF7PN | 2026-09-05 00:35:49 | 48.88929 | 10.68451 | 91° | 89km/h | 14754m | -20.6m/s | -57.3°C | 2.7% | 134.3hPa | 2.5V | 00:00:00 | 00:00:00 | 00:00:00 | |
| DO3MHA-12 | 2026-09-05 00:35:48 | 48.88929 | 10.68416 | 91° | 95km/h | 14775m | -20.1m/s | -57.4°C | 6.0% | 133.8hPa | 2.5V | 08:19:00 | 02:06:26 | 00:00:00 | |
| DL1NUX | 2026-09-05 00:35:47 | 48.88930 | 10.68344 | 90° | 95km/h | 14814m | -19.3m/s | -57.8°C | 6.1% | 132.9hPa | 2.5V | 08:19:15 | 02:06:24 | 00:00:00 | |
| DB0UT-7 | 2026-09-05 00:35:47 | 48.88930 | 10.68380 | 91° | 88km/h | 14794m | -19.9m/s | -57.6°C | 6.1% | 133.3hPa | 2.5V | 00:00:00 | 02:06:25 | 00:00:00 | |
| DM0DOS-11 | 2026-09-05 00:35:46 | 48.88931 | 10.68162 | 90° | 95km/h | 14913m | -19.1m/s | -58.1°C | 6.3% | 130.9hPa | 2.5V | 08:19:20 | 02:06:19 | 00:00:00 | |
| OE5WHR-10 | 2026-09-05 00:35:46 | 48.88930 | 10.68344 | 91° | 91km/h | 14814m | -19.3m/s | -57.7°C | 6.1% | 132.9hPa | 2.5V | 00:00:00 | 02:06:24 | 00:00:00 | |
| PG1ADW-2 | 2026-09-05 00:35:44 | 48.88930 | 10.68271 | 91° | 89km/h | 14854m | -20.2m/s | -57.9°C | 6.2% | 132.1hPa | 2.5V | 00:00:00 | 02:06:22 | 00:00:00 | |
| DO3MHA-11 | 2026-09-05 00:35:43 | 48.88930 | 10.68235 | 91° | 93km/h | 14874m | -19.9m/s | -57.9°C | 6.2% | 131.7hPa | 2.5V | 00:00:00 | 02:06:21 | 00:00:00 | |
| DO9HM | 2026-09-05 00:35:42 | 48.88930 | 10.68235 | 91° | 97km/h | 14874m | -20.0m/s | -58.0°C | 2.8% | 131.7hPa | 2.5V | 08:19:00 | 00:00:00 | 00:00:00 | |
| DO3MHA-12 | 2026-09-05 00:35:38 | 48.88929 | 10.68053 | 90° | 89km/h | 14970m | -20.0m/s | -58.2°C | 6.2% | 129.7hPa | 2.5V | 00:00:00 | 02:06:16 | 00:00:00 | |
| DL1NUX | 2026-09-05 00:35:37 | 48.88928 | 10.67983 | 89° | 93km/h | 15012m | -20.8m/s | -58.1°C | 6.1% | 128.9hPa | 2.5V | 08:19:25 | 02:06:14 | 00:00:00 | |
| NBG1-10 | 2026-09-05 00:35:37 | 48.88928 | 10.68018 | 89° | 82km/h | 14991m | -20.9m/s | -58.2°C | 6.2% | 129.3hPa | 2.5V | 00:00:00 | 02:06:15 | 00:00:00 | |
| DM0DOS-11 | 2026-09-05 00:35:36 | 48.88926 | 10.67810 | 88° | 86km/h | 15123m | -22.3m/s | -57.7°C | 5.8% | 126.7hPa | 2.5V | 08:19:30 | 02:06:09 | 00:00:00 | |
| DJ8HS-15 | 2026-09-05 00:35:36 | 48.88928 | 10.67983 | 90° | 86km/h | 15012m | -20.7m/s | -58.1°C | 6.1% | 128.9hPa | 2.5V | 00:00:00 | 02:06:14 | 00:00:00 | |
| HARRO8 | 2026-09-05 00:35:35 | 48.88928 | 10.67947 | 90° | 89km/h | 15033m | -21.8m/s | -57.9°C | 2.6% | 128.5hPa | 2.6V | 00:00:00 | 00:00:00 | 00:00:00 | |
| DO3MHA-11 | 2026-09-05 00:35:33 | 48.88927 | 10.67877 | 89° | 84km/h | 15078m | -22.6m/s | -57.7°C | 5.8% | 127.6hPa | 2.6V | 00:00:00 | 02:06:11 | 00:00:00 | |
| DM7RM-13 | 2026-09-05 00:35:32 | 48.88927 | 10.67877 | 90° | 88km/h | 15078m | -22.6m/s | -57.7°C | 2.6% | 127.7hPa | 2.5V | 08:19:00 | 00:00:00 | 00:00:00 | |
| DL1ZP-14 | 2026-09-05 00:35:30 | 48.88925 | 10.67777 | 88° | 86km/h | 15146m | -22.5m/s | -57.6°C | 2.5% | 126.3hPa | 2.5V | 00:00:00 | 00:00:00 | 00:00:00 | |
| DO3MHA-12 | 2026-09-05 00:35:28 | 48.88924 | 10.67713 | 89° | 84km/h | 15190m | -22.2m/s | -57.6°C | 5.6% | 125.3hPa | 2.5V | 00:00:00 | 02:06:06 | 00:00:00 | |
| DL1NUX | 2026-09-05 00:35:27 | 48.88923 | 10.67649 | 89° | 84km/h | 15233m | -20.6m/s | -57.8°C | 5.7% | 124.5hPa | 2.5V | 08:19:35 | 02:06:04 | 00:00:00 | |
| SO1NDE-10 | 2026-09-05 00:35:27 | 48.88923 | 10.67681 | 89° | 77km/h | 15211m | -21.8m/s | -57.6°C | 5.7% | 124.8hPa | 2.6V | 00:00:00 | 02:06:05 | 00:00:00 | |
| DM0DOS-11 | 2026-09-05 00:35:26 | 48.88921 | 10.67489 | 89° | 86km/h | 15344m | -22.1m/s | -58.2°C | 5.9% | 122.3hPa | 2.6V | 08:19:40 | 02:05:59 | 00:00:00 | |
| OE5WHR-10 | 2026-09-05 00:35:25 | 48.88922 | 10.67617 | 91° | 77km/h | 15254m | -21.7m/s | -57.9°C | 5.8% | 124.1hPa | 2.5V | 00:00:00 | 00:00:00 | 00:00:00 | |
| DO9HM | 2026-09-05 00:35:24 | 48.88922 | 10.67553 | 91° | 84km/h | 15299m | -22.6m/s | -58.1°C | 2.6% | 123.3hPa | 2.5V | 08:19:00 | 00:00:00 | 00:00:00 | |
| DL6DJ-15 | 2026-09-05 00:35:23 | 48.88922 | 10.67521 | 88° | 82km/h | 15322m | -22.4m/s | -58.1°C | 2.5% | 122.8hPa | 2.5V | 00:00:00 | 00:00:00 | 00:00:00 | |
| DO3MHA-12 | 2026-09-05 00:35:18 | 48.88920 | 10.67392 | 92° | 78km/h | 15411m | -22.5m/s | -58.8°C | 6.2% | 121.0hPa | 2.5V | 00:00:00 | 02:05:56 | 00:00:00 | |
| DL1NUX | 2026-09-05 00:35:17 | 48.88920 | 10.67330 | 89° | 82km/h | 15456m | -23.8m/s | -59°C | 6.2% | 120.3hPa | 2.6V | 08:19:45 | 02:05:54 | 00:00:00 | |
| DB0UT-7 | 2026-09-05 00:35:17 | 48.88920 | 10.67361 | 90° | 75km/h | 15433m | -23.0m/s | -58.9°C | 6.2% | 120.6hPa | 2.6V | 00:00:00 | 00:00:00 | 00:00:00 | |
| DM0DOS-11 | 2026-09-05 00:35:16 | 48.88919 | 10.67176 | 88° | 75km/h | 15576m | -23.3m/s | -59.3°C | 6.2% | 118hPa | 2.6V | 08:19:50 | 02:05:49 | 00:00:00 | |
| DJ8HS-15 | 2026-09-05 00:35:16 | 48.88920 | 10.67330 | 90° | 73km/h | 15456m | -23.8m/s | -59.0°C | 6.2% | 120.2hPa | 2.5V | 00:00:00 | 02:05:54 | 00:00:00 | |
| OE5DRO-10 | 2026-09-05 00:35:14 | 48.88921 | 10.67267 | 90° | 73km/h | 15504m | -23.1m/s | -59.1°C | 6.2% | 119.3hPa | 2.5V | 00:00:00 | 00:00:00 | 00:00:00 | |
| DK5PH-5 | 2026-09-05 00:35:13 | 48.88921 | 10.67236 | 89° | 71km/h | 15527m | -24.5m/s | -59.1°C | 6.2% | 118.8hPa | 2.5V | 00:00:00 | 02:05:51 | 00:00:00 | |
| DM7RM-13 | 2026-09-05 00:35:11 | 48.88920 | 10.67206 | 91° | 78km/h | 15552m | -24.3m/s | -59.2°C | 2.6% | 118.5hPa | 2.5V | 08:19:00 | 00:00:00 | 00:00:00 | |
| DD1CC3-15 | 2026-09-05 00:35:10 | 48.88919 | 10.67176 | 90° | 75km/h | 15576m | -23.3m/s | -59.3°C | 2.6% | 118.0hPa | 2.5V | 00:00:00 | 00:00:00 | 00:00:00 | |
| DO3MHA-12 | 2026-09-05 00:35:08 | 48.88917 | 10.67089 | 88° | 69km/h | 15646m | -23.3m/s | -59.0°C | 6.2% | 116.7hPa | 2.5V | 00:00:00 | 02:05:46 | 00:00:00 | |
| DL1NUX | 2026-09-05 00:35:07 | 48.88915 | 10.67034 | 86° | 71km/h | 15692m | -22.6m/s | -58.9°C | 6.1% | 115.8hPa | 2.5V | 08:19:55 | 02:05:44 | 00:00:00 | |
| DM0DOS-11 | 2026-09-05 00:35:06 | 48.88905 | 10.66904 | 81° | 68km/h | 15797m | -20.1m/s | -58.3°C | 5.7% | 113.8hPa | 2.5V | 08:20:00 | 02:05:39 | 00:00:00 | |
| NBG1-10 | 2026-09-05 00:35:04 | 48.88911 | 10.66981 | 85° | 71km/h | 15736m | -20.9m/s | -58.8°C | 6.0% | 114.9hPa | 2.6V | 00:00:00 | 02:05:42 | 00:00:00 | |
| DO3MHA-11 | 2026-09-05 00:35:03 | 48.88909 | 10.66955 | 83° | 69km/h | 15757m | -20.6m/s | -58.7°C | 6.1% | 114.5hPa | 2.5V | 00:00:00 | 02:05:41 | 00:00:00 | |
| DO9HM | 2026-09-05 00:35:01 | 48.88907 | 10.66930 | 85° | 69km/h | 15777m | -20.2m/s | -58.5°C | 2.4% | 114.2hPa | 2.6V | 08:20:00 | 00:00:00 | 00:00:00 | |
| DL1ZP-14 | 2026-09-05 00:34:59 | 48.88901 | 10.66852 | 84° | 69km/h | 15838m | -20.5m/s | -58.2°C | 2.3% | 113.1hPa | 2.6V | 00:00:00 | 00:00:00 | 00:00:00 | |
| DO3MHA-12 | 2026-09-05 00:34:58 | 48.88899 | 10.66825 | 85° | 69km/h | 15859m | -21.5m/s | -58.2°C | 5.6% | 112.7hPa | 2.5V | 00:00:00 | 02:05:36 | 00:00:00 | |
| DL1NUX | 2026-09-05 00:34:57 | 48.88896 | 10.66772 | 85° | 68km/h | 15902m | -21.2m/s | -58.2°C | 5.6% | 111.9hPa | 2.5V | 08:20:05 | 02:05:34 | 00:00:00 | |
| SO1NDE-10 | 2026-09-05 00:34:57 | 48.88897 | 10.66799 | 86° | 73km/h | 15881m | -22.1m/s | -58.1°C | 5.6% | 112.3hPa | 2.5V | 00:00:00 | 02:05:35 | 00:00:00 | |
| DM0DOS-11 | 2026-09-05 00:34:56 | 48.88892 | 10.66638 | 86° | 71km/h | 15991m | -16.9m/s | -58.6°C | 5.8% | 110.2hPa | 2.5V | 08:20:10 | 02:05:29 | 00:00:00 | |
| DJ8HS-15 | 2026-09-05 00:34:56 | 48.88896 | 10.66772 | 86° | 71km/h | 15903m | -21.2m/s | -58.2°C | 5.6% | 111.9hPa | 2.6V | 00:00:00 | 02:05:34 | 00:00:00 | |
| OE5DRO-10 | 2026-09-05 00:34:55 | 48.88895 | 10.66746 | 88° | 71km/h | 15923m | -19.1m/s | -58.2°C | 5.7% | 111.5hPa | 2.6V | 00:00:00 | 00:00:00 | 00:00:00 | |
| DO3MHA-11 | 2026-09-05 00:34:53 | 48.88893 | 10.66692 | 89° | 71km/h | 15958m | -16.8m/s | -58.4°C | 5.7% | 110.7hPa | 2.6V | 00:00:00 | 02:05:31 | 00:00:00 | |
| DF2AP-13 | 2026-09-05 00:34:52 | 48.88893 | 10.66665 | 88° | 73km/h | 15975m | -17.2m/s | -58.5°C | 5.8% | 110.5hPa | 2.6V | 00:00:00 | 02:05:30 | 00:00:00 | |
| DM7RM-13 | 2026-09-05 00:34:51 | 48.88893 | 10.66665 | 88° | 71km/h | 15975m | -17.2m/s | -58.5°C | 2.4% | 110.5hPa | 2.6V | 08:20:00 | 00:00:00 | 00:00:00 | |
| DD1CC3-15 | 2026-09-05 00:34:50 | 48.88891 | 10.66610 | 87° | 69km/h | 16009m | -17.4m/s | -58.6°C | 2.4% | 109.9hPa | 2.6V | 08:20:00 | 00:00:00 | 00:00:00 | |
| DO3MHA-12 | 2026-09-05 00:34:48 | 48.88888 | 10.66557 | 89° | 71km/h | 16043m | -16.9m/s | -58.6°C | 5.8% | 109.3hPa | 2.6V | 00:00:00 | 02:05:26 | 00:00:00 | |
| DL1NUX | 2026-09-05 00:34:47 | 48.88887 | 10.66502 | 86° | 71km/h | 16075m | -17m/s | -58.5°C | 5.8% | 108.7hPa | 2.5V | 08:20:15 | 02:05:24 | 00:00:00 | |
| DB0NH | 2026-09-05 00:34:47 | 48.88888 | 10.66530 | 88° | 73km/h | 16059m | -16.7m/s | -58.6°C | 5.8% | 109.0hPa | 2.6V | 00:00:00 | 02:05:25 | 00:00:00 | |
| DM0DOS-11 | 2026-09-05 00:34:46 | 48.88886 | 10.66365 | 90° | 73km/h | 16158m | -16.4m/s | -58.8°C | 5.8% | 107.4hPa | 2.6V | 08:20:20 | 02:05:19 | 00:00:00 | |
| BIOWL1-15 | 2026-09-05 00:34:45 | 48.88889 | 10.66223 | 96° | 75km/h | 16238m | -15.4m/s | 0°C | 0% | 0hPa | 2.6V | 08:20:42 | 02:05:14 | 00:00:00 | |
| PG1ADW-2 | 2026-09-05 00:34:42 | 48.88886 | 10.66393 | 90° | 75km/h | 16143m | -16.3m/s | -58.7°C | 5.7% | 107.6hPa | 2.6V | 00:00:00 | 00:00:00 | 00:00:00 | |
| DO9HM | 2026-09-05 00:34:39 | 48.88886 | 10.66336 | 91° | 73km/h | 16175m | -16.5m/s | -58.9°C | 2.3% | 107.1hPa | 2.6V | 08:20:00 | 00:00:00 | 00:00:00 | |
| DO3MHA-12 | 2026-09-05 00:34:38 | 48.88887 | 10.66280 | 92° | 75km/h | 16207m | -16.0m/s | -58.8°C | 5.7% | 106.5hPa | 2.6V | 00:00:00 | 02:05:16 | 00:00:00 | |
| DL1NUX | 2026-09-05 00:34:37 | 48.88889 | 10.66223 | 95° | 75km/h | 16238m | -15.4m/s | -59°C | 5.8% | 106hPa | 2.6V | 08:20:25 | 02:05:14 | 00:00:00 | |
| DM0DOS-11 | 2026-09-05 00:34:36 | 48.88899 | 10.66078 | 95° | 75km/h | 16313m | -15m/s | -58.8°C | 5.8% | 104.7hPa | 2.6V | 08:20:30 | 02:05:09 | 00:00:00 | |
| BIOWL1-15 | 2026-09-05 00:34:30 | 48.88904 | 10.65992 | 94° | 75km/h | 16358m | -15.4m/s | 0°C | 0% | 0hPa | 2.5V | 08:20:42 | 02:05:06 | 00:00:00 | |
| DO3MHA-12 | 2026-09-05 00:34:28 | 48.88904 | 10.65992 | 94° | 71km/h | 16358m | -15.4m/s | -58.4°C | 5.4% | 103.9hPa | 2.5V | 00:00:00 | 02:05:06 | 00:00:00 | |
| DL1NUX | 2026-09-05 00:34:27 | 48.88906 | 10.65936 | 92° | 73km/h | 16389m | -15.7m/s | -58.6°C | 5.5% | 103.4hPa | 2.5V | 08:20:35 | 02:05:04 | 00:00:00 | |
| BIOWL1-15 | 2026-09-05 00:34:17 | 48.88915 | 10.65690 | 96° | 71km/h | 16530m | -15.7m/s | 0°C | 0% | 0hPa | 2.5V | 18:12:15 | 02:04:55 | 00:00:00 | |
| DL1NUX | 2026-09-05 00:34:17 | 48.88916 | 10.65663 | 95° | 69km/h | 16546m | -16.6m/s | -59.1°C | 5.7% | 101hPa | 2.5V | 08:20:45 | 02:04:54 | 00:00:00 | |
| DB0NH | 2026-09-05 00:34:17 | 48.88915 | 10.65690 | 96° | 69km/h | 16530m | -15.6m/s | -59.0°C | 5.8% | 101.1hPa | 2.5V | 00:00:00 | 02:04:55 | 00:00:00 | |
| DM0DOS-11 | 2026-09-05 00:34:16 | 48.88926 | 10.65508 | 95° | 68km/h | 16649m | -17.9m/s | -59.1°C | 5.6% | 99.3hPa | 2.5V | 08:20:51 | 02:04:48 | 00:00:00 | |
| DJ8HS-15 | 2026-09-05 00:34:16 | 48.88916 | 10.65663 | 96° | 69km/h | 16546m | -16.5m/s | -59.0°C | 5.7% | 100.9hPa | 2.5V | 00:00:00 | 02:04:54 | 00:00:00 | |
| OE5WHR-10 | 2026-09-05 00:34:15 | 48.88918 | 10.65637 | 98° | 69km/h | 16563m | -16.3m/s | -59.1°C | 5.7% | 100.6hPa | 2.5V | 08:20:00 | 00:00:00 | 00:00:00 | |
| SONCRA | 2026-09-05 00:34:14 | 48.88920 | 10.65611 | 98° | 69km/h | 16580m | -16.6m/s | -59.2°C | 2.0% | 100.5hPa | 2.5V | 00:00:00 | 00:00:00 | 00:00:00 | |
| DK5PH-5 | 2026-09-05 00:34:13 | 48.88921 | 10.65584 | 97° | 71km/h | 16597m | -17.9m/s | -59.2°C | 5.7% | 100.1hPa | 2.5V | 00:00:00 | 02:04:51 | 00:00:00 | |
| DM7RM-13 | 2026-09-05 00:34:09 | 48.88926 | 10.65508 | 96° | 68km/h | 16650m | -17.9m/s | -59.1°C | 2.0% | 99.3hPa | 2.5V | 08:21:00 | 00:00:00 | 00:00:00 | |
| DO3MHA-12 | 2026-09-05 00:34:08 | 48.88928 | 10.65456 | 92° | 69km/h | 16684m | -16.9m/s | -58.8°C | 5.5% | 98.7hPa | 2.5V | 00:00:00 | 02:04:46 | 00:00:00 | |
| DL1NUX | 2026-09-05 00:34:07 | 48.88927 | 10.65404 | 87° | 69km/h | 16716m | -16m/s | -58.9°C | 5.6% | 98.2hPa | 2.5V | 08:20:55 | 02:04:44 | 00:00:00 | |
| BIOWL1-15 | 2026-09-05 00:34:05 | 48.88927 | 10.65378 | 86° | 69km/h | 16732m | -14.4m/s | 0°C | 0% | 0hPa | 2.5V | 18:12:15 | 02:04:43 | 00:00:00 | |
| DM0DOS-11 | 2026-09-05 00:34:05 | 48.88917 | 10.65243 | 82° | 69km/h | 16808m | -18.4m/s | -58.2°C | 5.1% | 96.8hPa | 2.5V | 08:21:01 | 02:04:38 | 00:00:00 | |
| AZAK | 2026-09-05 00:34:04 | 48.88927 | 10.65378 | 87° | 69km/h | 16732m | -14.4m/s | -58.7°C | 2.0% | 98.0hPa | 2.6V | 08:21:00 | 00:00:00 | 00:00:00 | |
| DO3MHA-11 | 2026-09-05 00:34:03 | 48.88923 | 10.65324 | 82° | 69km/h | 16759m | -15.3m/s | -58.2°C | 5.2% | 97.5hPa | 2.6V | 00:00:00 | 02:04:41 | 00:00:00 | |
| PG1ADW-2 | 2026-09-05 00:34:02 | 48.88921 | 10.65297 | 84° | 73km/h | 16775m | -15.3m/s | -58.2°C | 5.1% | 97.2hPa | 2.6V | 00:00:00 | 00:00:00 | 00:00:00 | |
| DO9HM | 2026-09-05 00:33:59 | 48.88914 | 10.65216 | 85° | 69km/h | 16828m | -20.3m/s | -58.3°C | 1.8% | 96.6hPa | 2.6V | 08:21:00 | 00:00:00 | 00:00:00 | |
| DO3MHA-12 | 2026-09-05 00:33:58 | 48.88912 | 10.65189 | 86° | 71km/h | 16848m | -19.9m/s | -58.3°C | 5.1% | 96.2hPa | 2.6V | 00:00:00 | 02:04:36 | 00:00:00 | |
| DL1NUX | 2026-09-05 00:33:57 | 48.88910 | 10.65135 | 84° | 69km/h | 16883m | -15.5m/s | -58.6°C | 5.3% | 95.6hPa | 2.6V | 08:21:05 | 02:04:34 | 00:00:00 | |
| SO1NDE-10 | 2026-09-05 00:33:57 | 48.88911 | 10.65162 | 86° | 68km/h | 16867m | -17.9m/s | -58.5°C | 5.2% | 95.9hPa | 2.5V | 00:00:00 | 02:04:35 | 00:00:00 | |
| DJ8HS-15 | 2026-09-05 00:33:56 | 48.88910 | 10.65135 | 85° | 73km/h | 16883m | -15.5m/s | -58.5°C | 5.3% | 95.6hPa | 2.5V | 00:00:00 | 02:04:34 | 00:00:00 | |
| DM0DOS-11 | 2026-09-05 00:33:55 | 48.88900 | 10.64975 | 86° | 71km/h | 16981m | -15.3m/s | -59.1°C | 5.7% | 94.1hPa | 2.5V | 08:21:11 | 02:04:28 | 00:00:00 | |
| BIOWL1-15 | 2026-09-05 00:33:54 | 48.88907 | 10.65083 | 84° | 68km/h | 16914m | -16.4m/s | 0°C | 0% | 0hPa | 2.5V | 18:12:15 | 02:04:32 | 00:00:00 | |
| BIOWL9-15 | 2026-09-05 00:33:54 | 48.88905 | 10.65057 | 84° | 68km/h | 16931m | -17.4m/s | -58.8°C | 1.9% | 94.9hPa | 2.5V | 00:00:00 | 00:00:00 | 00:00:00 | |
| DB0ND-19 | 2026-09-05 00:33:51 | 48.88901 | 10.65003 | 85° | 71km/h | 16965m | -16.7m/s | -59.0°C | 1.9% | 94.4hPa | 2.5V | 00:00:00 | 00:00:00 | 00:00:00 | |
| DL6DJ-15 | 2026-09-05 00:33:49 | 48.88899 | 10.64948 | 86° | 73km/h | 16997m | -17.1m/s | -59.0°C | 1.9% | 93.9hPa | 2.5V | 00:00:00 | 00:00:00 | 00:00:00 | |
| DO3MHA-12 | 2026-09-05 00:33:48 | 48.88898 | 10.64919 | 86° | 77km/h | 17014m | -16.3m/s | -58.8°C | 5.5% | 93.6hPa | 2.5V | 00:00:00 | 02:04:26 | 00:00:00 | |
| DL1NUX | 2026-09-05 00:33:47 | 48.88896 | 10.64860 | 88° | 77km/h | 17050m | -19.1m/s | -59°C | 5.6% | 93.1hPa | 2.6V | 08:21:15 | 02:04:24 | 00:00:00 | |
| DB0NH | 2026-09-05 00:33:47 | 48.88896 | 10.64890 | 88° | 60km/h | 17032m | -18.9m/s | -58.9°C | 5.5% | 93.4hPa | 2.6V | 00:00:00 | 02:04:25 | 00:00:00 | |
| OE5DXL-15 | 2026-09-05 00:33:46 | 48.88896 | 10.64860 | 89° | 60km/h | 17051m | -19.1m/s | -59.0°C | 5.6% | 93.1hPa | 2.6V | 00:00:00 | 00:00:00 | 00:00:00 | |
| DM0DOS-11 | 2026-09-05 00:33:45 | 48.88902 | 10.64685 | 96° | 73km/h | 17152m | -14.6m/s | -59.4°C | 6.1% | 91.6hPa | 2.6V | 08:21:21 | 02:04:18 | 00:00:00 | |
| DF7PN | 2026-09-05 00:33:45 | 48.88895 | 10.64801 | 90° | 75km/h | 17087m | -18.2m/s | -59.2°C | 1.9% | 92.6hPa | 2.5V | 00:00:00 | 00:00:00 | 00:00:00 | |
| BIOWL1-15 | 2026-09-05 00:33:42 | 48.88898 | 10.64742 | 95° | 77km/h | 17122m | -16.6m/s | 0°C | 0% | 0hPa | 2.5V | 18:12:15 | 02:04:20 | 00:00:00 | |
| PG1ADW-2 | 2026-09-05 00:33:42 | 48.88897 | 10.64742 | 95° | 58km/h | 17122m | -16.5m/s | -59.2°C | 5.9% | 92.0hPa | 2.6V | 00:00:00 | 00:00:00 | 00:00:00 | |
| OE5DRO-10 | 2026-09-05 00:33:39 | 48.88903 | 10.64657 | 97° | 55km/h | 17167m | -14.5m/s | -59.3°C | 6.1% | 91.3hPa | 2.6V | 08:21:00 | 00:00:00 | 00:00:00 | |
| DO3MHA-12 | 2026-09-05 00:33:38 | 48.88905 | 10.64630 | 95° | 58km/h | 17181m | -15.0m/s | -59.2°C | 6.1% | 91.1hPa | 2.5V | 00:00:00 | 02:04:16 | 00:00:00 | |
| DL1NUX | 2026-09-05 00:33:37 | 48.88908 | 10.64579 | 95° | 64km/h | 17210m | -13.4m/s | -58.6°C | 5.8% | 90.8hPa | 2.5V | 08:21:25 | 02:04:14 | 00:00:00 | |
| EDDB2-11 | 2026-09-05 00:33:37 | 48.88908 | 10.64579 | 95° | 64km/h | 17211m | -13.4m/s | -58.6°C | 1.9% | 90.8hPa | 2.5V | 00:00:00 | 00:00:00 | 00:00:00 | |
| DO9HM | 2026-09-05 00:33:36 | 48.88908 | 10.64579 | 96° | 64km/h | 17211m | -13.4m/s | -58.6°C | 2.0% | 90.8hPa | 2.5V | 08:21:00 | 00:00:00 | 00:00:00 | |
| DM0DOS-11 | 2026-09-05 00:33:35 | 48.88907 | 10.64449 | 80° | 49km/h | 17300m | -16.3m/s | -57.4°C | 5.1% | 89.5hPa | 2.5V | 08:21:31 | 02:04:08 | 00:00:00 | |
| BIOWL1-15 | 2026-09-05 00:33:31 | 48.88908 | 10.64468 | 84° | 51km/h | 17284m | -17m/s | 0°C | 0% | 0hPa | 2.5V | 18:12:15 | 02:04:09 | 00:00:00 | |
| DL1NUX | 2026-09-05 00:33:28 | 48.88897 | 10.64377 | 77° | 47km/h | 17365m | -16.4m/s | -56.5°C | 4.6% | 88.6hPa | 2.5V | 08:21:35 | 02:04:04 | 00:00:00 | |
| DM7RM-13 | 2026-09-05 00:33:28 | 48.88903 | 10.64412 | 80° | 47km/h | 17334m | -16.4m/s | -56.7°C | 1.6% | 89.0hPa | 2.5V | 08:21:00 | 00:00:00 | 00:00:00 | |
| SO1NDE-10 | 2026-09-05 00:33:27 | 48.88900 | 10.64395 | 77° | 58km/h | 17350m | -15.6m/s | -56.6°C | 4.7% | 88.7hPa | 2.5V | 00:00:00 | 02:04:05 | 00:00:00 | |
| DL1ZP-14 | 2026-09-05 00:33:26 | 48.88897 | 10.64377 | 77° | 47km/h | 17366m | -16.4m/s | -56.5°C | 1.6% | 88.6hPa | 2.5V | 00:00:00 | 00:00:00 | 00:00:00 | |
| DM0DOS-11 | 2026-09-05 00:33:25 | 48.88873 | 10.64267 | 65° | 57km/h | 17462m | -15.1m/s | -56.3°C | 4.5% | 87.2hPa | 2.5V | 08:21:41 | 02:03:58 | 00:00:00 | |
| NBG1-10 | 2026-09-05 00:33:25 | 48.88894 | 10.64359 | 75° | 60km/h | 17382m | -17.2m/s | -56.2°C | 4.5% | 88.3hPa | 2.5V | 08:21:00 | 02:04:03 | 00:00:00 | |
| AZAK | 2026-09-05 00:33:24 | 48.88887 | 10.64324 | 73° | 51km/h | 17415m | -16.3m/s | -56.3°C | 1.5% | 87.9hPa | 2.5V | 08:22:00 | 00:00:00 | 00:00:00 | |
| DO3MHA-11 | 2026-09-05 00:33:23 | 48.88887 | 10.64324 | 73° | 55km/h | 17415m | -16.2m/s | -56.2°C | 4.5% | 87.9hPa | 2.5V | 00:00:00 | 02:04:01 | 00:00:00 | |
| PG1ADW-2 | 2026-09-05 00:33:22 | 48.88883 | 10.64305 | 71° | 60km/h | 17431m | -15.9m/s | -56.2°C | 4.5% | 87.6hPa | 2.5V | 00:00:00 | 00:00:00 | 00:00:00 | |
| DF2AP-13 | 2026-09-05 00:33:21 | 48.88879 | 10.64286 | 68° | 62km/h | 17447m | -15.6m/s | -56.2°C | 4.5% | 87.4hPa | 2.6V | 00:00:00 | 02:03:59 | 00:00:00 | |
| OE5DRO-10 | 2026-09-05 00:33:20 | 48.88873 | 10.64267 | 66° | 60km/h | 17463m | -15.1m/s | -56.3°C | 4.5% | 87.2hPa | 2.6V | 00:00:00 | 00:00:00 | 00:00:00 | |
| DO3MHA-12 | 2026-09-05 00:33:18 | 48.88862 | 10.64227 | 70° | 58km/h | 17490m | -13.1m/s | -56.5°C | 4.6% | 86.7hPa | 2.6V | 00:00:00 | 02:03:56 | 00:00:00 | |
| DL1NUX | 2026-09-05 00:33:17 | 48.88852 | 10.64187 | 68° | 57km/h | 17517m | -14m/s | -56.4°C | 4.5% | 86.4hPa | 2.5V | 08:21:45 | 02:03:54 | 00:00:00 | |
| DB0NH | 2026-09-05 00:33:17 | 48.88857 | 10.64207 | 70° | 64km/h | 17503m | -14.0m/s | -56.4°C | 4.6% | 86.6hPa | 2.5V | 00:00:00 | 02:03:55 | 00:00:00 | |
| DJ8HS-15 | 2026-09-05 00:33:16 | 48.88852 | 10.64187 | 69° | 64km/h | 17517m | -14.0m/s | -56.4°C | 4.5% | 86.4hPa | 2.5V | 00:00:00 | 02:03:54 | 00:00:00 | |
| DM0DOS-11 | 2026-09-05 00:33:15 | 48.88825 | 10.64060 | 76° | 60km/h | 17600m | -14.1m/s | -56.8°C | 4.7% | 85.4hPa | 2.5V | 08:21:51 | 02:03:48 | 00:00:00 | |
| BIOWL1-15 | 2026-09-05 00:33:13 | 48.88833 | 10.64104 | 73° | 58km/h | 17571m | -13.9m/s | 0°C | 0% | 0hPa | 2.6V | 18:12:15 | 02:03:50 | 00:00:00 | |
| OE5WHR-10 | 2026-09-05 00:33:12 | 48.88833 | 10.64104 | 73° | 64km/h | 17571m | -13.9m/s | -56.5°C | 4.6% | 85.7hPa | 2.6V | 00:00:00 | 00:00:00 | 00:00:00 | |
| DO3MHA-12 | 2026-09-05 00:33:08 | 48.88819 | 10.64014 | 81° | 66km/h | 17630m | -15.9m/s | -57.0°C | 4.8% | 84.9hPa | 2.6V | 00:00:00 | 02:03:46 | 00:00:00 | |
| DL1NUX | 2026-09-05 00:33:07 | 48.88814 | 10.63965 | 81° | 64km/h | 17663m | -19.1m/s | -57.2°C | 4.9% | 84.6hPa | 2.6V | 08:21:55 | 02:03:44 | 00:00:00 | |
| DM7RM-13 | 2026-09-05 00:33:07 | 48.88816 | 10.63990 | 82° | 64km/h | 17646m | -15.7m/s | -57.2°C | 1.6% | 84.7hPa | 2.6V | 08:22:00 | 00:00:00 | 00:00:00 | |
| DF1GD-15 | 2026-09-05 00:33:06 | 48.88814 | 10.63965 | 83° | 64km/h | 17663m | -19.1m/s | -57.2°C | 1.6% | 84.6hPa | 2.6V | 08:22:00 | 00:00:00 | 00:00:00 | |
| DM0DOS-11 | 2026-09-05 00:33:05 | 48.88807 | 10.63812 | 90° | 66km/h | 17765m | -18.4m/s | -58.1°C | 5.2% | 83.2hPa | 2.6V | 08:22:01 | 02:03:38 | 00:00:00 | |
| DD1CC3-15 | 2026-09-05 00:33:04 | 48.88812 | 10.63940 | 84° | 66km/h | 17682m | -18.1m/s | -57.4°C | 1.7% | 84.3hPa | 2.5V | 00:00:00 | 00:00:00 | 00:00:00 | |
| DO3MHA-11 | 2026-09-05 00:33:03 | 48.88808 | 10.63890 | 86° | 68km/h | 17714m | -15.1m/s | -57.7°C | 5.0% | 83.8hPa | 2.5V | 08:21:00 | 02:03:41 | 00:00:00 | |
| PG1ADW-2 | 2026-09-05 00:33:02 | 48.88807 | 10.63863 | 88° | 62km/h | 17729m | -15.8m/s | -57.8°C | 5.1% | 83.6hPa | 2.6V | 00:00:00 | 02:03:40 | 00:00:00 | |
| DF3TZ-5 | 2026-09-05 00:33:00 | 48.88807 | 10.63786 | 90° | 68km/h | 17783m | -17.3m/s | -58.3°C | 1.7% | 83.0hPa | 2.6V | 00:00:00 | 00:00:00 | 00:00:00 | |
| DO3MHA-12 | 2026-09-05 00:32:58 | 48.88808 | 10.63760 | 93° | 64km/h | 17800m | -16.4m/s | -58.0°C | 5.3% | 82.7hPa | 2.6V | 00:00:00 | 02:03:36 | 00:00:00 | |
| DL1NUX | 2026-09-05 00:32:57 | 48.88811 | 10.63708 | 99° | 66km/h | 17834m | -17.8m/s | -57.1°C | 4.9% | 82.3hPa | 2.6V | 08:22:05 | 02:03:34 | 00:00:00 | |
| SO1NDE-10 | 2026-09-05 00:32:57 | 48.88809 | 10.63734 | 98° | 51km/h | 17817m | -17.8m/s | -57.2°C | 4.9% | 82.5hPa | 2.5V | 00:00:00 | 02:03:35 | 00:00:00 | |
| DJ8HS-15 | 2026-09-05 00:32:56 | 48.88811 | 10.63708 | 100° | 53km/h | 17834m | -17.7m/s | -57.0°C | 4.9% | 82.2hPa | 2.6V | 00:00:00 | 02:03:34 | 00:00:00 | |
| DM0DOS-11 | 2026-09-05 00:32:55 | 48.88834 | 10.63563 | 105° | 62km/h | 17926m | -15.3m/s | -57.3°C | 5% | 81.1hPa | 2.6V | 08:22:11 | 02:03:28 | 00:00:00 | |
| DL1ZP-14 | 2026-09-05 00:32:55 | 48.88814 | 10.63683 | 101° | 66km/h | 17851m | -15.2m/s | -57.1°C | 1.5% | 82.1hPa | 2.6V | 00:00:00 | 00:00:00 | 00:00:00 | |
| DB0ND-19 | 2026-09-05 00:32:49 | 48.88837 | 10.63540 | 103° | 58km/h | 17942m | -16.0m/s | -57.2°C | 1.5% | 80.9hPa | 2.5V | 00:00:00 | 00:00:00 | 00:00:00 | |
| DO3MHA-12 | 2026-09-05 00:32:48 | 48.88841 | 10.63519 | 106° | 49km/h | 17958m | -15.9m/s | -57.2°C | 4.9% | 80.6hPa | 2.5V | 08:22:00 | 02:03:26 | 00:00:00 | |
| DL1NUX | 2026-09-05 00:32:47 | 48.88848 | 10.63476 | 102° | 55km/h | 17989m | -16.1m/s | -57.1°C | 4.8% | 80.3hPa | 2.5V | 08:22:15 | 02:03:24 | 00:00:00 | |
| DB0NH | 2026-09-05 00:32:47 | 48.88845 | 10.63497 | 104° | 47km/h | 17973m | -15.6m/s | -57.2°C | 4.9% | 80.4hPa | 2.5V | 00:00:00 | 02:03:25 | 00:00:00 | |
| OE5DXL-15 | 2026-09-05 00:32:46 | 48.88848 | 10.63476 | 103° | 47km/h | 17989m | -16.1m/s | -57.1°C | 4.8% | 80.2hPa | 2.5V | 00:00:00 | 00:00:00 | 00:00:00 | |
| DM0DOS-11 | 2026-09-05 00:32:45 | 48.88867 | 10.63371 | 108° | 40km/h | 18085m | -15.7m/s | -57.1°C | 4.8% | 79.1hPa | 2.5V | 08:22:21 | 02:03:18 | 00:00:00 | |
| AZAK | 2026-09-05 00:32:43 | 48.88857 | 10.63419 | 107° | 46km/h | 18037m | -16.1m/s | -57.1°C | 1.5% | 79.7hPa | 2.5V | 08:22:00 | 00:00:00 | 00:00:00 | |
| PG1ADW-2 | 2026-09-05 00:32:42 | 48.88860 | 10.63402 | 110° | 46km/h | 18054m | -17.1m/s | -57.0°C | 4.8% | 79.5hPa | 2.5V | 00:00:00 | 00:00:00 | 00:00:00 | |
| SONCRA | 2026-09-05 00:32:41 | 48.88867 | 10.63371 | 108° | 40km/h | 18085m | -15.7m/s | -57.1°C | 1.5% | 79.1hPa | 2.5V | 00:00:00 | 00:00:00 | 00:00:00 | |
| DB0UT-7 | 2026-09-05 00:32:39 | 48.88870 | 10.63357 | 106° | 49km/h | 18101m | -16.7m/s | -57.0°C | 4.8% | 78.8hPa | 2.5V | 00:00:00 | 00:00:00 | 00:00:00 | |
| DO3MHA-12 | 2026-09-05 00:32:38 | 48.88873 | 10.63343 | 105° | 42km/h | 18117m | -14.9m/s | -57.0°C | 4.8% | 78.6hPa | 2.5V | 00:00:00 | 02:03:16 | 00:00:00 | |
| DL1NUX | 2026-09-05 00:32:37 | 48.88877 | 10.63316 | 100° | 38km/h | 18147m | -16.2m/s | -57°C | 4.9% | 78.3hPa | 2.5V | 08:22:25 | 02:03:14 | 00:00:00 | |
| DJ8HS-15 | 2026-09-05 00:32:36 | 48.88877 | 10.63316 | 101° | 49km/h | 18147m | -16.1m/s | -57.0°C | 4.9% | 78.2hPa | 2.5V | 00:00:00 | 02:03:14 | 00:00:00 | |
| DM0DOS-11 | 2026-09-05 00:32:35 | 48.88883 | 10.63219 | 93° | 47km/h | 18240m | -16.6m/s | -57.1°C | 4.9% | 77.2hPa | 2.5V | 08:22:31 | 02:03:08 | 00:00:00 | |
| BIOWL1-15 | 2026-09-05 00:32:29 | 48.88887 | 10.63160 | 99° | 53km/h | 18289m | -16.3m/s | 0°C | 0% | 0hPa | 2.6V | 18:12:15 | 02:03:05 | 00:00:00 | |
| DO3MHA-12 | 2026-09-05 00:32:28 | 48.88886 | 10.63180 | 96° | 53km/h | 18274m | -16.0m/s | -57.0°C | 5.0% | 76.7hPa | 2.5V | 00:00:00 | 02:03:06 | 00:00:00 | |
| DL1NUX | 2026-09-05 00:32:27 | 48.88889 | 10.63140 | 99° | 53km/h | 18304m | -14.7m/s | -57.1°C | 5% | 76.4hPa | 2.5V | 08:22:35 | 02:03:04 | 00:00:00 | |
| SO1NDE-10 | 2026-09-05 00:32:27 | 48.88887 | 10.63160 | 99° | 49km/h | 18289m | -16.2m/s | -56.9°C | 4.9% | 76.5hPa | 2.5V | 00:00:00 | 02:03:05 | 00:00:00 | |
| AM1SDL-15 | 2026-09-05 00:32:26 | 48.88889 | 10.63140 | 100° | 53km/h | 18305m | -14.7m/s | -57.0°C | 5.0% | 76.3hPa | 2.5V | 00:00:00 | 02:03:04 | 00:00:00 | |
| DM0DOS-11 | 2026-09-05 00:32:25 | 48.88905 | 10.63003 | 98° | 53km/h | 18414m | -15.5m/s | -57.5°C | 5.4% | 75hPa | 2.5V | 08:22:42 | 02:02:57 | 00:00:00 | |
| DL1ZP-14 | 2026-09-05 00:32:24 | 48.88896 | 10.63080 | 102° | 51km/h | 18352m | -15.6m/s | -57.5°C | 1.7% | 75.8hPa | 2.6V | 00:00:00 | 00:00:00 | 00:00:00 | |
| DO3MHA-11 | 2026-09-05 00:32:23 | 48.88896 | 10.63080 | 103° | 53km/h | 18352m | -15.5m/s | -57.4°C | 5.3% | 75.8hPa | 2.6V | 00:00:00 | 02:03:01 | 00:00:00 | |
| PG1ADW-2 | 2026-09-05 00:32:22 | 48.88898 | 10.63061 | 100° | 53km/h | 18367m | -15.0m/s | -57.5°C | 5.3% | 75.6hPa | 2.6V | 00:00:00 | 00:00:00 | 00:00:00 | |
| DF2AP-13 | 2026-09-05 00:32:21 | 48.88901 | 10.63042 | 100° | 44km/h | 18383m | -16.4m/s | -57.6°C | 5.4% | 75.4hPa | 2.5V | 00:00:00 | 02:02:59 | 00:00:00 | |
| NBG1-10 | 2026-09-05 00:32:19 | 48.88905 | 10.63003 | 99° | 40km/h | 18414m | -15.4m/s | -57.5°C | 5.4% | 75.0hPa | 2.5V | 00:00:00 | 02:02:57 | 00:00:00 | |
| DO3MHA-12 | 2026-09-05 00:32:18 | 48.88906 | 10.62983 | 97° | 57km/h | 18430m | -16.8m/s | -57.2°C | 5.2% | 74.8hPa | 2.5V | 00:00:00 | 02:02:56 | 00:00:00 | |
| DL1NUX | 2026-09-05 00:32:17 | 48.88910 | 10.62942 | 98° | 57km/h | 18464m | -17.1m/s | -57.1°C | 5.2% | 74.5hPa | 2.6V | 08:22:45 | 02:02:54 | 00:00:00 | |
| BIOWL1-15 | 2026-09-05 00:32:13 | 48.88924 | 10.62834 | 104° | 58km/h | 18545m | -16.8m/s | 0°C | 0% | 0hPa | 2.6V | 18:12:15 | 02:02:49 | 00:00:00 | |
| DK5PH-5 | 2026-09-05 00:32:13 | 48.88918 | 10.62877 | 102° | 37km/h | 18513m | -16.2m/s | -56.9°C | 5.3% | 73.8hPa | 2.5V | 00:00:00 | 02:02:51 | 00:00:00 | |
| DO9HM | 2026-09-05 00:32:12 | 48.88918 | 10.62877 | 102° | 58km/h | 18513m | -16.3m/s | -56.9°C | 1.7% | 73.9hPa | 2.5V | 08:23:00 | 00:00:00 | 00:00:00 | |
| DF7PN | 2026-09-05 00:32:11 | 48.88924 | 10.62834 | 104° | 57km/h | 18545m | -16.8m/s | -56.4°C | 1.6% | 73.5hPa | 2.5V | 00:00:00 | 00:00:00 | 00:00:00 | |
| SONCRA | 2026-09-05 00:32:10 | 48.88930 | 10.62792 | 103° | 57km/h | 18578m | -16.9m/s | -56.1°C | 1.6% | 73.2hPa | 2.5V | 00:00:00 | 00:00:00 | 00:00:00 | |
| OE5WHR-10 | 2026-09-05 00:32:09 | 48.88930 | 10.62792 | 104° | 38km/h | 18579m | -16.8m/s | -56.0°C | 5.1% | 73.1hPa | 2.5V | 00:00:00 | 00:00:00 | 00:00:00 | |
| DO3MHA-12 | 2026-09-05 00:32:08 | 48.88934 | 10.62771 | 105° | 42km/h | 18595m | -17.4m/s | -55.7°C | 4.9% | 72.9hPa | 2.6V | 00:00:00 | 02:02:46 | 00:00:00 | |
| DL1NUX | 2026-09-05 00:32:07 | 48.88941 | 10.62733 | 109° | 49km/h | 18630m | -18.1m/s | -55.1°C | 4.6% | 72.5hPa | 2.6V | 08:22:55 | 02:02:44 | 00:00:00 | |
| AZAK | 2026-09-05 00:32:07 | 48.88954 | 10.62685 | 117° | 40km/h | 18683m | -17.0m/s | -54.9°C | 1.4% | 72.0hPa | 2.5V | 08:23:00 | 00:00:00 | 00:00:00 | |
| DM0DOS-11 | 2026-09-05 00:32:04 | 48.88968 | 10.62639 | 115° | 29km/h | 18757m | -18.4m/s | -54.7°C | 4.4% | 71.1hPa | 2.5V | 08:23:02 | 02:02:37 | 00:00:00 | |
| BIOWL1-15 | 2026-09-05 00:32:03 | 48.88958 | 10.62672 | 115° | 35km/h | 18700m | -17.1m/s | 0°C | 0% | 0hPa | 2.5V | 18:12:15 | 02:02:40 | 00:00:00 | |
| PG1ADW-2 | 2026-09-05 00:32:02 | 48.88958 | 10.62672 | 115° | 26km/h | 18701m | -17.1m/s | -54.9°C | 4.5% | 71.7hPa | 2.6V | 00:00:00 | 00:00:00 | 00:00:00 | |
| DJTTGO | 2026-09-05 00:32:01 | 48.88958 | 10.62672 | 116° | 35km/h | 18701m | -17.1m/s | -54.9°C | 1.4% | 71.8hPa | 2.6V | 00:00:00 | 00:00:00 | 00:00:00 | |
| DH7VM-15 | 2026-09-05 00:31:59 | 48.88965 | 10.62649 | 116° | 31km/h | 18738m | -18.8m/s | -54.8°C | 1.3% | 71.3hPa | 2.6V | 00:00:00 | 00:00:00 | 00:00:00 | |
| DO3MHA-12 | 2026-09-05 00:31:58 | 48.88971 | 10.62629 | 114° | 26km/h | 18775m | -18.5m/s | -54.6°C | 4.3% | 70.9hPa | 2.6V | 00:00:00 | 02:02:36 | 00:00:00 | |
| SO1NDE-10 | 2026-09-05 00:31:57 | 48.88974 | 10.62619 | 109° | 24km/h | 18793m | -18.2m/s | -54.3°C | 4.2% | 70.7hPa | 2.6V | 00:00:00 | 02:02:35 | 00:00:00 | |
| DJ8HS-15 | 2026-09-05 00:31:56 | 48.88976 | 10.62610 | 102° | 22km/h | 18812m | -18.7m/s | -54.0°C | 4.1% | 70.5hPa | 2.6V | 00:00:00 | 02:02:34 | 00:00:00 | |
| DM0DOS-11 | 2026-09-05 00:31:54 | 48.88975 | 10.62544 | 78° | 24km/h | 18940m | -18.6m/s | -53.6°C | 3.8% | 69.1hPa | 2.6V | 08:23:12 | 02:02:27 | 00:00:00 | |
| HSKMA3-T | 2026-09-05 00:31:53 | 48.88977 | 10.62582 | 86° | 26km/h | 18867m | -17.4m/s | -53.3°C | 0.6% | 69.9hPa | 2.5V | 08:24:57 | 02:02:31 | 00:00:00 | |
| BIOWL1-15 | 2026-09-05 00:31:52 | 48.88977 | 10.62573 | 87° | 26km/h | 18885m | -18.6m/s | 0°C | 0% | 0hPa | 2.5V | 18:12:15 | 02:02:30 | 00:00:00 | |
| DF2AP-13 | 2026-09-05 00:31:51 | 48.88976 | 10.62563 | 84° | 24km/h | 18904m | -18.6m/s | -53.3°C | 3.7% | 69.5hPa | 2.5V | 00:00:00 | 02:02:29 | 00:00:00 | |
| AM1SDL-15 | 2026-09-05 00:31:50 | 48.88975 | 10.62553 | 86° | 20km/h | 18922m | -18.4m/s | -53.4°C | 3.8% | 69.3hPa | 2.5V | 00:00:00 | 02:02:28 | 00:00:00 | |
| OE5WHR-10 | 2026-09-05 00:31:48 | 48.88973 | 10.62535 | 79° | 22km/h | 18959m | -19.8m/s | -53.6°C | 3.8% | 68.9hPa | 2.5V | 00:00:00 | 00:00:00 | 00:00:00 | |
| DL1NUX | 2026-09-05 00:31:47 | 48.88971 | 10.62521 | 78° | 18km/h | 18997m | -18.1m/s | -54°C | 3.9% | 68.5hPa | 2.5V | 08:23:15 | 02:02:24 | 00:00:00 | |
| DL6DJ-15 | 2026-09-05 00:31:45 | 48.88970 | 10.62514 | 66° | 16km/h | 19015m | -18.3m/s | -54.1°C | 1.2% | 68.3hPa | 2.5V | 00:00:00 | 00:00:00 | 00:00:00 | |
| HSKMA3-T | 2026-09-05 00:31:40 | 48.88956 | 10.62487 | 49° | 20km/h | 19110m | -19.3m/s | -54.8°C | 0.8% | 67.3hPa | 2.5V | 08:24:57 | 02:02:18 | 00:00:00 | |
| DM0DOS-11 | 2026-09-05 00:31:39 | 48.88948 | 10.62476 | 43° | 20km/h | 19150m | -20.2m/s | -55°C | 4.2% | 66.9hPa | 2.6V | 08:23:23 | 02:02:16 | 00:00:00 | |
| SONCRA | 2026-09-05 00:31:39 | 48.88948 | 10.62476 | 43° | 18km/h | 19150m | -20.2m/s | -55.0°C | 1.3% | 66.9hPa | 2.5V | 00:00:00 | 00:00:00 | 00:00:00 | |
| DO3MHA-12 | 2026-09-05 00:31:38 | 48.88948 | 10.62476 | 44° | 26km/h | 19150m | -20.2m/s | -55.0°C | 4.2% | 66.9hPa | 2.5V | 00:00:00 | 02:02:16 | 00:00:00 | |
| DL1NUX | 2026-09-05 00:31:37 | 48.88940 | 10.62464 | 43° | 26km/h | 19194m | -23.1m/s | -55.3°C | 4.3% | 66.5hPa | 2.5V | 08:23:25 | 02:02:14 | 00:00:00 | |
| BIOWL1-15 | 2026-09-05 00:31:36 | 48.88940 | 10.62464 | 44° | 26km/h | 19194m | -23.1m/s | 0°C | 0% | 0hPa | 2.5V | 18:12:15 | 02:02:14 | 00:00:00 | |
| DJ8HS-15 | 2026-09-05 00:31:36 | 48.88940 | 10.62464 | 44° | 26km/h | 19194m | -23.1m/s | -55.3°C | 4.3% | 66.4hPa | 2.5V | 08:23:00 | 02:02:14 | 00:00:00 | |
| DO9HM | 2026-09-05 00:31:32 | 48.88923 | 10.62436 | 51° | 26km/h | 19296m | -26.9m/s | -56.0°C | 1.4% | 65.6hPa | 2.6V | 00:00:00 | 00:00:00 | 00:00:00 | |
| DM0DOS-11 | 2026-09-05 00:31:29 | 48.88908 | 10.62401 | 67° | 29km/h | 19400m | -24.7m/s | -56.2°C | 4.7% | 64.4hPa | 2.6V | 08:23:33 | 02:02:06 | 00:00:00 | |
| HSKMA3-T | 2026-09-05 00:31:29 | 48.88911 | 10.62411 | 66° | 27km/h | 19375m | -25m/s | -56.3°C | 1.2% | 64.7hPa | 2.5V | 08:24:57 | 02:02:07 | 00:00:00 | |
| DO3MHA-12 | 2026-09-05 00:31:28 | 48.88907 | 10.62401 | 68° | 27km/h | 19401m | -24.7m/s | -56.2°C | 4.7% | 64.4hPa | 2.5V | 00:00:00 | 02:02:06 | 00:00:00 | |
| DL1NUX | 2026-09-05 00:31:27 | 48.88903 | 10.62380 | 80° | 29km/h | 19451m | -24.3m/s | -56.3°C | 4.7% | 63.9hPa | 2.5V | 08:23:35 | 02:02:04 | 00:00:00 | |
| BIOWL1-15 | 2026-09-05 00:31:21 | 48.88924 | 10.62273 | 119° | 13km/h | 19716m | -16.9m/s | 0°C | 0% | 0hPa | 2.5V | 18:12:15 | 02:01:51 | 00:00:00 | |
| AM1SDL-15 | 2026-09-05 00:31:20 | 48.88906 | 10.62319 | 108° | 20km/h | 19581m | -18.9m/s | -56.6°C | 4.9% | 62.6hPa | 2.5V | 00:00:00 | 02:01:58 | 00:00:00 | |
| DM0DOS-11 | 2026-09-05 00:31:19 | 48.88911 | 10.62302 | 117° | 22km/h | 19621m | -20.1m/s | -56.8°C | 4.9% | 62.2hPa | 2.5V | 08:23:43 | 02:01:56 | 00:00:00 | |
| HSKMA3-T | 2026-09-05 00:31:18 | 48.88911 | 10.62302 | 117° | 22km/h | 19621m | -20.2m/s | -56.8°C | 1.3% | 62.2hPa | 2.5V | 08:24:57 | 02:01:56 | 00:00:00 | |
| DO3MHA-12 | 2026-09-05 00:31:18 | 48.88911 | 10.62302 | 118° | 15km/h | 19621m | -20.1m/s | -56.8°C | 4.9% | 62.2hPa | 2.5V | 08:23:00 | 02:01:56 | 00:00:00 | |
| DL1NUX | 2026-09-05 00:31:17 | 48.88917 | 10.62289 | 128° | 20km/h | 19661m | -20.3m/s | -56.5°C | 4.9% | 61.8hPa | 2.6V | 08:23:45 | 02:01:54 | 00:00:00 | |
| DB0NH | 2026-09-05 00:31:17 | 48.88914 | 10.62295 | 122° | 20km/h | 19641m | -20.7m/s | -56.6°C | 4.8% | 62.0hPa | 2.6V | 08:23:00 | 02:01:55 | 00:00:00 | |
| DJ8HS-15 | 2026-09-05 00:31:16 | 48.88917 | 10.62289 | 129° | 15km/h | 19662m | -20.2m/s | -56.5°C | 4.9% | 61.8hPa | 2.5V | 00:00:00 | 02:01:54 | 00:00:00 | |
| DD1CC3-15 | 2026-09-05 00:31:15 | 48.88917 | 10.62289 | 130° | 20km/h | 19662m | -20.3m/s | -56.5°C | 1.5% | 61.8hPa | 2.5V | 00:00:00 | 00:00:00 | 00:00:00 | |
| DL6DJ-15 | 2026-09-05 00:31:14 | 48.88922 | 10.62278 | 122° | 16km/h | 19699m | -17.2m/s | -56.1°C | 1.4% | 61.4hPa | 2.5V | 00:00:00 | 00:00:00 | 00:00:00 | |
| DM0DOS-11 | 2026-09-05 00:31:13 | 48.88926 | 10.62255 | 63° | 9km/h | 19800m | -17.7m/s | -55.5°C | 4.5% | 60.5hPa | 2.5V | 08:23:53 | 02:01:46 | 00:00:00 | |
| NBG1-10 | 2026-09-05 00:31:13 | 48.88924 | 10.62273 | 119° | 22km/h | 19716m | -16.8m/s | -56.0°C | 4.6% | 61.2hPa | 2.6V | 00:00:00 | 02:01:51 | 00:00:00 | |
| SONDE2-11 | 2026-09-05 00:31:12 | 48.88925 | 10.62269 | 117° | 11km/h | 19732m | -16.8m/s | -55.8°C | 1.4% | 61.1hPa | 2.6V | 00:00:00 | 00:00:00 | 00:00:00 | |
| DO3MHA-11 | 2026-09-05 00:31:10 | 48.88927 | 10.62262 | 96° | 13km/h | 19766m | -15.8m/s | -55.5°C | 4.5% | 60.7hPa | 2.6V | 00:00:00 | 02:01:48 | 00:00:00 | |
| DB0UT-7 | 2026-09-05 00:31:09 | 48.88927 | 10.62258 | 81° | 22km/h | 19782m | -17.1m/s | -55.5°C | 4.4% | 60.6hPa | 2.6V | 00:00:00 | 02:01:47 | 00:00:00 | |
| DL1NUX | 2026-09-05 00:31:07 | 48.88923 | 10.62248 | 44° | 11km/h | 19834m | -17.6m/s | -55.6°C | 4.6% | 60.1hPa | 2.6V | 08:23:55 | 02:01:44 | 00:00:00 | |
| BIOWL1-15 | 2026-09-05 00:31:03 | 48.88915 | 10.62240 | 28° | 15km/h | 19882m | -15.7m/s | 0°C | 0% | 0hPa | 2.5V | 18:12:15 | 02:01:41 | 00:00:00 | |
| PG1ADW-2 | 2026-09-05 00:31:02 | 48.88911 | 10.62237 | 30° | 26km/h | 19899m | -16.0m/s | -56.0°C | 4.8% | 59.4hPa | 2.5V | 00:00:00 | 00:00:00 | 00:00:00 | |
| EDDB2-11 | 2026-09-05 00:31:01 | 48.88907 | 10.62234 | 31° | 16km/h | 19916m | -17.4m/s | -56.1°C | 1.4% | 59.4hPa | 2.5V | 00:00:00 | 00:00:00 | 00:00:00 | |
| DM0DOS-11 | 2026-09-05 00:31:00 | 48.88897 | 10.62218 | 53° | 22km/h | 19970m | -18.4m/s | -55.9°C | 4.7% | 58.8hPa | 2.5V | 08:24:03 | 02:01:36 | 00:00:00 | |
| DO3MHA-11 | 2026-09-05 00:31:00 | 48.88904 | 10.62230 | 39° | 29km/h | 19934m | -17.6m/s | -56.0°C | 4.8% | 59.2hPa | 2.6V | 00:00:00 | 02:01:38 | 00:00:00 | |
| DJTTGO | 2026-09-05 00:30:59 | 48.88904 | 10.62230 | 40° | 18km/h | 19934m | -17.7m/s | -56.0°C | 1.4% | 59.2hPa | 2.5V | 00:00:00 | 00:00:00 | 00:00:00 | |
| DO3MHA-12 | 2026-09-05 00:30:58 | 48.88897 | 10.62218 | 54° | 29km/h | 19970m | -18.3m/s | -55.8°C | 4.7% | 58.8hPa | 2.5V | 00:00:00 | 02:01:36 | 00:00:00 | |
| DL1NUX | 2026-09-05 00:30:57 | 48.88890 | 10.62203 | 56° | 27km/h | 20007m | -18.8m/s | -55.8°C | 4.7% | 58.5hPa | 2.5V | 08:24:05 | 02:01:34 | 00:00:00 | |
| HSKMA3-T | 2026-09-05 00:30:54 | 48.88883 | 10.62184 | 66° | 31km/h | 20048m | -20.7m/s | -56.1°C | 1.2% | 58.2hPa | 2.6V | 08:24:57 | 02:01:32 | 00:00:00 | |
| BIOWL1-15 | 2026-09-05 00:30:53 | 48.88874 | 10.62149 | 68° | 33km/h | 20108m | -19.8m/s | 0°C | 0% | 0hPa | 2.5V | 18:12:15 | 02:01:29 | 00:00:00 | |
| DF2AP-13 | 2026-09-05 00:30:51 | 48.88874 | 10.62149 | 68° | 29km/h | 20108m | -19.7m/s | -55.9°C | 4.9% | 57.5hPa | 2.6V | 00:00:00 | 02:01:29 | 00:00:00 | |
| DM0DOS-11 | 2026-09-05 00:30:50 | 48.88866 | 10.62114 | 77° | 31km/h | 20165m | -19.1m/s | -55.8°C | 4.8% | 57.1hPa | 2.6V | 08:24:13 | 02:01:26 | 00:00:00 | |
| DO3MHA-11 | 2026-09-05 00:30:49 | 48.88868 | 10.62126 | 73° | 27km/h | 20146m | -18.9m/s | -55.8°C | 4.9% | 57.2hPa | 2.6V | 00:00:00 | 02:01:27 | 00:00:00 | |
| DO3MHA-12 | 2026-09-05 00:30:48 | 48.88866 | 10.62114 | 78° | 27km/h | 20165m | -19.0m/s | -55.8°C | 4.8% | 57.0hPa | 2.6V | 00:00:00 | 02:01:26 | 00:00:00 | |
| DL1NUX | 2026-09-05 00:30:47 | 48.88863 | 10.62094 | 85° | 26km/h | 20203m | -19.5m/s | -55.4°C | 4.6% | 56.7hPa | 2.5V | 08:24:15 | 02:01:24 | 00:00:00 | |
| DB0ND-19 | 2026-09-05 00:30:45 | 48.88863 | 10.62084 | 90° | 24km/h | 20223m | -19.8m/s | -55.2°C | 1.4% | 56.6hPa | 2.6V | 00:00:00 | 00:00:00 | 00:00:00 | |
| DC4HF-4 | 2026-09-05 00:30:44 | 48.88863 | 10.62075 | 95° | 24km/h | 20243m | -19.5m/s | -55.0°C | 1.4% | 56.4hPa | 2.6V | 00:00:00 | 00:00:00 | 00:00:00 | |
| HSKMA3-T | 2026-09-05 00:30:43 | 48.88864 | 10.62065 | 98° | 26km/h | 20262m | -19.7m/s | -54.9°C | 1% | 56.2hPa | 2.6V | 08:24:57 | 02:01:21 | 00:00:00 | |
| DF8AY | 2026-09-05 00:30:42 | 48.88869 | 10.62002 | 91° | 31km/h | 20372m | -17m/s | -54.8°C | 1% | 55.2hPa | 2.6V | 08:25:48 | 02:01:15 | 00:00:00 | |
| PG1ADW-2 | 2026-09-05 00:30:42 | 48.88865 | 10.62056 | 101° | 29km/h | 20282m | -20.3m/s | -54.7°C | 4.4% | 56.0hPa | 2.5V | 00:00:00 | 00:00:00 | 00:00:00 | |
| DL1NUX | 2026-09-05 00:30:41 | 48.88869 | 10.61990 | 88° | 31km/h | 20390m | -18.4m/s | -54.9°C | 4.4% | 55.1hPa | 2.5V | 08:24:25 | 02:01:14 | 00:00:00 | |
| HSKMA3-T | 2026-09-05 00:30:31 | 48.88866 | 10.61932 | 81° | 26km/h | 20484m | -20.4m/s | -54.4°C | 0.9% | 54.3hPa | 2.5V | 08:24:57 | 02:01:09 | 00:00:00 | |
| EDDB2-11 | 2026-09-05 00:30:30 | 48.88865 | 10.61922 | 84° | 26km/h | 20503m | -18.2m/s | -54.3°C | 1.3% | 54.1hPa | 2.5V | 00:00:00 | 00:00:00 | 00:00:00 | |
| DM0DOS-11 | 2026-09-05 00:30:30 | 48.88863 | 10.61902 | 83° | 27km/h | 20538m | -17.7m/s | -54.2°C | 4.1% | 53.8hPa | 2.6V | 08:24:33 | 02:01:06 | 00:00:00 | |
| OE5DRO-10 | 2026-09-05 00:30:29 | 48.88864 | 10.61912 | 81° | 27km/h | 20521m | -16.8m/s | -54.2°C | 4.2% | 53.9hPa | 2.5V | 00:00:00 | 00:00:00 | 00:00:00 | |
| SO1NDE-10 | 2026-09-05 00:30:28 | 48.88862 | 10.61892 | 84° | 31km/h | 20556m | -17.5m/s | -54.1°C | 4.1% | 53.6hPa | 2.5V | 00:00:00 | 02:01:05 | 00:00:00 | |
| DF3TZ-5 | 2026-09-05 00:30:25 | 48.88859 | 10.61859 | 82° | 33km/h | 20610m | -18.2m/s | -54.4°C | 1.2% | 53.2hPa | 2.5V | 00:00:00 | 00:00:00 | 00:00:00 | |
| DM0DOS-11 | 2026-09-05 00:30:23 | 48.88856 | 10.61774 | 90° | 40km/h | 20716m | -18.1m/s | -55°C | 4.5% | 52.4hPa | 2.5V | 08:24:43 | 02:00:56 | 00:00:00 | |
| DF8AY | 2026-09-05 00:30:22 | 48.88857 | 10.61834 | 85° | 35km/h | 20645m | -17.7m/s | -54.6°C | 1% | 52.9hPa | 2.6V | 08:25:48 | 02:01:00 | 00:00:00 | |
| HSKMA3-T | 2026-09-05 00:30:21 | 48.88856 | 10.61819 | 88° | 38km/h | 20662m | -18.1m/s | -54.7°C | 0.9% | 52.7hPa | 2.6V | 08:24:57 | 02:00:59 | 00:00:00 | |
| DF2AP-13 | 2026-09-05 00:30:21 | 48.88856 | 10.61819 | 88° | 31km/h | 20663m | -18.0m/s | -54.7°C | 4.3% | 52.7hPa | 2.5V | 00:00:00 | 02:00:59 | 00:00:00 | |
| DL1ZP-14 | 2026-09-05 00:30:20 | 48.88856 | 10.61789 | 89° | 40km/h | 20698m | -17.6m/s | -54.9°C | 1.3% | 52.5hPa | 2.5V | 00:00:00 | 00:00:00 | 00:00:00 | |
| DL1NUX | 2026-09-05 00:30:18 | 48.88856 | 10.61744 | 92° | 37km/h | 20752m | -17.4m/s | -55.3°C | 4.6% | 52hPa | 2.6V | 08:24:45 | 02:00:54 | 00:00:00 | |
| DO3MHA-11 | 2026-09-05 00:30:17 | 48.88856 | 10.61744 | 93° | 33km/h | 20752m | -17.3m/s | -55.3°C | 4.6% | 51.9hPa | 2.6V | 00:00:00 | 02:00:54 | 00:00:00 | |
| OE5DXL-15 | 2026-09-05 00:30:16 | 48.88856 | 10.61744 | 93° | 29km/h | 20752m | -17.3m/s | -55.3°C | 4.6% | 51.9hPa | 2.6V | 00:00:00 | 00:00:00 | 00:00:00 | |
| DB0ND-19 | 2026-09-05 00:30:14 | 48.88857 | 10.61716 | 94° | 35km/h | 20786m | -16.4m/s | -55.5°C | 1.4% | 51.7hPa | 2.5V | 00:00:00 | 00:00:00 | 00:00:00 | |
| DD1CC3-15 | 2026-09-05 00:30:13 | 48.88857 | 10.61716 | 95° | 37km/h | 20786m | -16.4m/s | -55.5°C | 1.4% | 51.7hPa | 2.5V | 08:24:00 | 00:00:00 | 00:00:00 | |
| DM0DOS-11 | 2026-09-05 00:30:12 | 48.88864 | 10.61644 | 111° | 29km/h | 20895m | -17.8m/s | -55°C | 4.6% | 50.9hPa | 2.5V | 08:24:53 | 02:00:46 | 00:00:00 | |
| DF8AY | 2026-09-05 00:30:11 | 48.88859 | 10.61677 | 102° | 31km/h | 20839m | -19.2m/s | -55.2°C | 1.1% | 51.4hPa | 2.6V | 08:25:48 | 02:00:49 | 00:00:00 | |
| HSKMA3-T | 2026-09-05 00:30:10 | 48.88860 | 10.61665 | 103° | 29km/h | 20858m | -18.4m/s | -55.1°C | 1.1% | 51.2hPa | 2.6V | 08:24:57 | 02:00:48 | 00:00:00 | |
| DF8AY | 2026-09-05 00:30:01 | 48.88884 | 10.61583 | 116° | 27km/h | 21027m | -23m/s | -54.7°C | 1% | 49.9hPa | 2.6V | 08:25:48 | 02:00:39 | 00:00:00 | |
| DM0DOS-11 | 2026-09-05 00:30:00 | 48.88895 | 10.61555 | 123° | 29km/h | 21097m | -24.4m/s | -54.4°C | 4.3% | 49.4hPa | 2.5V | 08:25:03 | 02:00:36 | 00:00:00 | |
| HSKMA3-T | 2026-09-05 00:29:57 | 48.88900 | 10.61546 | 132° | 29km/h | 21123m | -25.7m/s | -54.2°C | 0.9% | 49.2hPa | 2.5V | 08:25:48 | 02:00:35 | 00:00:00 | |
| DF8AY | 2026-09-05 00:29:50 | 48.88944 | 10.61512 | 176° | 27km/h | 21278m | -19.1m/s | -54.6°C | 1% | 48hPa | 2.6V | 08:25:48 | 02:00:28 | 00:00:00 | |
| DM0DOS-11 | 2026-09-05 00:29:49 | 48.88958 | 10.61511 | 182° | 27km/h | 21317m | -19.8m/s | -54.4°C | 4.3% | 47.7hPa | 2.5V | 08:25:13 | 02:00:26 | 00:00:00 | |
| DO3MHA-12 | 2026-09-05 00:29:48 | 48.88958 | 10.61511 | 183° | 18km/h | 21317m | -19.7m/s | -54.4°C | 4.3% | 47.6hPa | 2.5V | 08:25:00 | 02:00:26 | 00:00:00 | |
| DL1NUX | 2026-09-05 00:29:47 | 48.88971 | 10.61513 | 186° | 24km/h | 21357m | -21.7m/s | -53.9°C | 4.1% | 47.4hPa | 2.5V | 08:25:15 | 02:00:24 | 00:00:00 | |
| HSKMA3-T | 2026-09-05 00:29:45 | 48.88976 | 10.61514 | 191° | 22km/h | 21380m | -23.5m/s | -54°C | 0.8% | 47.2hPa | 2.6V | 08:25:48 | 02:00:23 | 00:00:00 | |
| DF8AY | 2026-09-05 00:29:40 | 48.88995 | 10.61522 | 202° | 11km/h | 21484m | -20.1m/s | -54.4°C | 1% | 46.4hPa | 2.5V | 08:25:48 | 02:00:18 | 00:00:00 | |
| SONDE2-11 | 2026-09-05 00:29:39 | 48.88997 | 10.61524 | 209° | 9km/h | 21504m | -19.7m/s | -54.4°C | 1.2% | 46.3hPa | 2.5V | 00:00:00 | 00:00:00 | 00:00:00 | |
| DO3MHA-12 | 2026-09-05 00:29:38 | 48.88999 | 10.61525 | 193° | 5km/h | 21524m | -19.6m/s | -54.5°C | 4.2% | 46.1hPa | 2.5V | 00:00:00 | 02:00:16 | 00:00:00 | |
| DL1NUX | 2026-09-05 00:29:37 | 48.89004 | 10.61526 | 180° | 9km/h | 21567m | -21.4m/s | -54.6°C | 4.3% | 45.8hPa | 2.5V | 08:25:25 | 02:00:14 | 00:00:00 | |
| DK7TD | 2026-09-05 00:29:37 | 48.89001 | 10.61526 | 187° | 9km/h | 21545m | -22.7m/s | -54.6°C | 1% | 46hPa | 2.5V | 08:26:39 | 02:00:15 | 00:00:00 | |
| HSKMA3-T | 2026-09-05 00:29:33 | 48.89008 | 10.61527 | 180° | 4km/h | 21627m | -20.3m/s | -54.9°C | 1% | 45.4hPa | 2.6V | 08:25:48 | 02:00:11 | 00:00:00 | |
| DF8AY | 2026-09-05 00:29:29 | 48.89008 | 10.61524 | 62° | 5km/h | 21716m | -25.4m/s | -55.4°C | 1.2% | 44.9hPa | 2.6V | 08:25:48 | 02:00:07 | 00:00:00 | |
| DM0DOS-11 | 2026-09-05 00:29:29 | 48.89008 | 10.61521 | 59° | 9km/h | 21741m | -24.7m/s | -55.5°C | 4.7% | 44.6hPa | 2.6V | 08:25:33 | 02:00:06 | 00:00:00 | |
| EDDB2-11 | 2026-09-05 00:29:28 | 48.89008 | 10.61521 | 59° | 7km/h | 21741m | -24.7m/s | -55.5°C | 1.4% | 44.6hPa | 2.5V | 00:00:00 | 00:00:00 | 00:00:00 | |
| DL1NUX | 2026-09-05 00:29:27 | 48.89005 | 10.61515 | 59° | 11km/h | 21788m | -22.8m/s | -55.3°C | 4.7% | 44.3hPa | 2.5V | 08:25:35 | 02:00:04 | 00:00:00 | |
| DK7TD | 2026-09-05 00:29:26 | 48.89005 | 10.61515 | 59° | 11km/h | 21789m | -22.8m/s | -55.3°C | 1.1% | 44.3hPa | 2.5V | 08:26:39 | 02:00:04 | 00:00:00 | |
| DO3MHA-11 | 2026-09-05 00:29:26 | 48.89005 | 10.61515 | 60° | 16km/h | 21789m | -22.7m/s | -55.3°C | 4.7% | 44.2hPa | 2.5V | 00:00:00 | 02:00:04 | 00:00:00 | |
| DM0DOS-11 | 2026-09-05 00:29:24 | 48.89008 | 10.61468 | 122° | 24km/h | 21961m | -23.6m/s | -54.5°C | 4.3% | 43.1hPa | 2.6V | 08:25:43 | 01:59:56 | 00:00:00 | |
| HSKMA3-T | 2026-09-05 00:29:22 | 48.89002 | 10.61497 | 102° | 15km/h | 21872m | -20.7m/s | -54.8°C | 1% | 43.7hPa | 2.6V | 08:25:48 | 02:00:00 | 00:00:00 | |
| DF8AY | 2026-09-05 00:29:19 | 48.89008 | 10.61468 | 122° | 24km/h | 21961m | -23.6m/s | -54.5°C | 1% | 43.1hPa | 2.6V | 08:25:48 | 01:59:56 | 00:00:00 | |
| DO3MHA-12 | 2026-09-05 00:29:18 | 48.89008 | 10.61468 | 123° | 15km/h | 21962m | -23.5m/s | -54.4°C | 4.3% | 43.1hPa | 2.6V | 00:00:00 | 01:59:56 | 00:00:00 | |
| DL1NUX | 2026-09-05 00:29:17 | 48.89015 | 10.61454 | 129° | 22km/h | 22008m | -25m/s | -54.5°C | 4.4% | 42.8hPa | 2.5V | 08:25:45 | 01:59:54 | 00:00:00 | |
| DB0NH | 2026-09-05 00:29:17 | 48.89012 | 10.61461 | 128° | 13km/h | 21984m | -23.1m/s | -54.4°C | 4.3% | 42.9hPa | 2.5V | 00:00:00 | 01:59:55 | 00:00:00 | |
| DJ8HS-15 | 2026-09-05 00:29:16 | 48.89015 | 10.61454 | 130° | 11km/h | 22008m | -25.0m/s | -54.5°C | 4.4% | 42.8hPa | 2.5V | 00:00:00 | 01:59:54 | 00:00:00 | |
| AZAK | 2026-09-05 00:29:15 | 48.89015 | 10.61454 | 131° | 22km/h | 22008m | -25.0m/s | -54.5°C | 1.3% | 42.8hPa | 2.5V | 08:25:00 | 00:00:00 | 00:00:00 | |
| DM0DOS-11 | 2026-09-05 00:29:13 | 48.89032 | 10.61433 | 275° | 2km/h | 22186m | -23.6m/s | -54.1°C | 4.4% | 41.6hPa | 2.5V | 08:25:53 | 01:59:46 | 00:00:00 | |
| HSKMA3-T | 2026-09-05 00:29:11 | 48.89030 | 10.61434 | 151° | 9km/h | 22116m | -22.1m/s | -54.6°C | 1.1% | 42.1hPa | 2.5V | 08:26:39 | 01:59:49 | 00:00:00 | |
| DF8AY | 2026-09-05 00:29:09 | 48.89032 | 10.61432 | 202° | 4km/h | 22162m | -23.6m/s | -54.2°C | 1% | 41.8hPa | 2.5V | 08:26:39 | 01:59:47 | 00:00:00 | |
| DO3MHA-12 | 2026-09-05 00:29:08 | 48.89032 | 10.61433 | 276° | 9km/h | 22186m | -23.6m/s | -54.0°C | 4.4% | 41.6hPa | 2.6V | 00:00:00 | 01:59:46 | 00:00:00 | |
| DL1NUX | 2026-09-05 00:29:07 | 48.89030 | 10.61435 | 315° | 7km/h | 22232m | -21.6m/s | -54°C | 4.3% | 41.3hPa | 2.6V | 08:25:55 | 01:59:44 | 00:00:00 | |
| DK7TD | 2026-09-05 00:29:05 | 48.89029 | 10.61437 | 337° | 9km/h | 22254m | -20.9m/s | -54.1°C | 1% | 41.2hPa | 2.5V | 08:26:39 | 01:59:43 | 00:00:00 | |
| AM1SDL-15 | 2026-09-05 00:29:04 | 48.89027 | 10.61437 | 4° | 13km/h | 22276m | -21.8m/s | -54.1°C | 4.4% | 41.0hPa | 2.5V | 00:00:00 | 01:59:42 | 00:00:00 | |
| DM0DOS-11 | 2026-09-05 00:29:03 | 48.89016 | 10.61416 | 62° | 16km/h | 22412m | -23.2m/s | -54.2°C | 4.6% | 40.2hPa | 2.5V | 08:26:03 | 01:59:36 | 00:00:00 | |
| HSKMA3-T | 2026-09-05 00:29:01 | 48.89021 | 10.61431 | 45° | 13km/h | 22344m | -23.9m/s | -54.5°C | 1.2% | 40.6hPa | 2.6V | 08:26:39 | 01:59:39 | 00:00:00 | |
| DF8AY | 2026-09-05 00:28:59 | 48.89017 | 10.61422 | 65° | 16km/h | 22390m | -22.4m/s | -54.3°C | 1.1% | 40.3hPa | 2.6V | 08:26:39 | 01:59:37 | 00:00:00 | |
| DB0UT-7 | 2026-09-05 00:28:59 | 48.89017 | 10.61422 | 65° | 15km/h | 22390m | -22.4m/s | -54.2°C | 4.6% | 40.2hPa | 2.5V | 00:00:00 | 00:00:00 | 00:00:00 | |
| DO3MHA-12 | 2026-09-05 00:28:58 | 48.89016 | 10.61416 | 63° | 15km/h | 22413m | -23.1m/s | -54.2°C | 4.6% | 40.1hPa | 2.5V | 00:00:00 | 01:59:36 | 00:00:00 | |
| DL1NUX | 2026-09-05 00:28:57 | 48.89013 | 10.61405 | 66° | 15km/h | 22455m | -21.2m/s | -54.4°C | 4.7% | 39.9hPa | 2.5V | 08:26:05 | 01:59:34 | 00:00:00 | |
| DK7TD | 2026-09-05 00:28:54 | 48.89011 | 10.61394 | 86° | 15km/h | 22500m | -24.5m/s | -54.5°C | 1.2% | 39.6hPa | 2.5V | 08:26:39 | 01:59:32 | 00:00:00 | |
| DK5PH-5 | 2026-09-05 00:28:54 | 48.89011 | 10.61394 | 87° | 13km/h | 22500m | -24.4m/s | -54.4°C | 4.7% | 39.6hPa | 2.6V | 00:00:00 | 01:59:32 | 00:00:00 | |
| DH7VM-15 | 2026-09-05 00:28:52 | 48.89012 | 10.61384 | 124° | 15km/h | 22549m | -23.7m/s | -54.4°C | 1.4% | 39.3hPa | 2.6V | 00:00:00 | 00:00:00 | 00:00:00 | |
| DF2AP-13 | 2026-09-05 00:28:51 | 48.89014 | 10.61380 | 132° | 16km/h | 22573m | -21.8m/s | -54.0°C | 4.7% | 39.1hPa | 2.6V | 00:00:00 | 01:59:29 | 00:00:00 | |
| IW2NTF | 2026-09-05 00:28:50 | 48.89031 | 10.61351 | 124° | 20km/h | 22697m | -21.5m/s | -52.2°C | 0% | 38.4hPa | 2.6V | 00:00:00 | 01:59:23 | 00:00:00 | |
| HSKMA3-T | 2026-09-05 00:28:49 | 48.89019 | 10.61371 | 137° | 15km/h | 22613m | -19.2m/s | -53.4°C | 1% | 38.9hPa | 2.5V | 08:26:39 | 01:59:27 | 00:00:00 | |
| DF8AY | 2026-09-05 00:28:48 | 48.89022 | 10.61367 | 135° | 16km/h | 22632m | -20m/s | -53°C | 0.9% | 38.8hPa | 2.5V | 08:26:39 | 01:59:26 | 00:00:00 | |
| DO3MHA-12 | 2026-09-05 00:28:48 | 48.89022 | 10.61367 | 135° | 16km/h | 22632m | -19.9m/s | -53.0°C | 4.3% | 38.7hPa | 2.5V | 00:00:00 | 01:59:26 | 00:00:00 | |
| DL1NUX | 2026-09-05 00:28:47 | 48.89028 | 10.61357 | 123° | 18km/h | 22675m | -22.7m/s | -52.4°C | 4.1% | 38.5hPa | 2.6V | 08:26:15 | 01:59:24 | 00:00:00 | |
| DL1ZP-14 | 2026-09-05 00:28:46 | 48.89028 | 10.61357 | 123° | 16km/h | 22675m | -22.7m/s | -52.4°C | 1.2% | 38.5hPa | 2.6V | 00:00:00 | 00:00:00 | 00:00:00 | |
| DK7TD | 2026-09-05 00:28:43 | 48.89036 | 10.61339 | 130° | 18km/h | 22740m | -20.5m/s | -52°C | 0.8% | 38.1hPa | 2.5V | 08:26:39 | 01:59:21 | 00:00:00 | |
| DF8AY | 2026-09-05 00:28:38 | 48.89050 | 10.61318 | 155° | 16km/h | 22837m | -20m/s | -51.7°C | 0.7% | 37.6hPa | 2.6V | 08:26:39 | 01:59:16 | 00:00:00 | |
| DO3MHA-12 | 2026-09-05 00:28:38 | 48.89050 | 10.61318 | 155° | 13km/h | 22838m | -19.9m/s | -51.7°C | 3.8% | 37.6hPa | 2.5V | 00:00:00 | 01:59:16 | 00:00:00 | |
| DL1NUX | 2026-09-05 00:28:37 | 48.89058 | 10.61312 | 152° | 18km/h | 22881m | -21.3m/s | -51.7°C | 3.8% | 37.3hPa | 2.5V | 08:26:25 | 01:59:14 | 00:00:00 | |
| IW2NTF | 2026-09-05 00:28:35 | 48.89062 | 10.61309 | 148° | 18km/h | 22902m | -21.5m/s | -51.7°C | 0% | 37.2hPa | 2.5V | 00:00:00 | 01:59:13 | 00:00:00 | |
| DK7TD | 2026-09-05 00:28:32 | 48.89071 | 10.61301 | 157° | 9km/h | 22962m | -20.5m/s | -51.9°C | 0.7% | 36.9hPa | 2.6V | 08:26:39 | 01:59:10 | 00:00:00 | |
| HSKMA3-T | 2026-09-05 00:28:27 | 48.89074 | 10.61304 | 275° | 7km/h | 23072m | -22.9m/s | -51.9°C | 0.7% | 36.3hPa | 2.5V | 08:26:39 | 01:59:05 | 00:00:00 | |
| DL1NUX | 2026-09-05 00:28:27 | 48.89074 | 10.61307 | 287° | 9km/h | 23093m | -20.1m/s | -51.6°C | 3.9% | 36.1hPa | 2.5V | 08:26:35 | 01:59:04 | 00:00:00 | |
| DL1XH-west | 2026-09-05 00:28:22 | 48.89073 | 10.61316 | 191° | 4km/h | 23175m | -20.9m/s | -51.5°C | 0.6% | 35.7hPa | 2.5V | 08:26:39 | 01:59:00 | 00:00:00 | |
| DK7TD | 2026-09-05 00:28:21 | 48.89074 | 10.61315 | 148° | 7km/h | 23197m | -24.2m/s | -51.6°C | 0.6% | 35.5hPa | 2.5V | 08:27:30 | 01:58:59 | 00:00:00 | |
| DC4HF-4 | 2026-09-05 00:28:20 | 48.89076 | 10.61313 | 130° | 9km/h | 23222m | -25.6m/s | -51.6°C | 1.1% | 35.5hPa | 2.6V | 00:00:00 | 00:00:00 | 00:00:00 | |
| DM0DOS-11 | 2026-09-05 00:28:19 | 48.89079 | 10.61306 | 126° | 13km/h | 23273m | -26.4m/s | -51.7°C | 3.7% | 35.2hPa | 2.6V | 08:26:43 | 01:58:56 | 00:00:00 | |
| HSKMA3-T | 2026-09-05 00:28:16 | 48.89083 | 10.61299 | 129° | 13km/h | 23327m | -27.1m/s | -51.8°C | 0.7% | 34.9hPa | 2.5V | 08:27:30 | 01:58:54 | 00:00:00 | |
| DJ8HS-15 | 2026-09-05 00:28:16 | 48.89083 | 10.61299 | 130° | 7km/h | 23327m | -27.0m/s | -51.8°C | 3.7% | 34.8hPa | 2.5V | 00:00:00 | 01:58:54 | 00:00:00 | |
| DL1ZP-14 | 2026-09-05 00:28:15 | 48.89085 | 10.61295 | 143° | 11km/h | 23356m | -29.6m/s | -51.9°C | 1.1% | 34.7hPa | 2.5V | 00:00:00 | 00:00:00 | 00:00:00 | |
| DM0DOS-11 | 2026-09-05 00:28:13 | 48.89090 | 10.61290 | 271° | 4km/h | 23532m | -19.7m/s | -51.9°C | 3.8% | 33.8hPa | 2.5V | 08:26:53 | 01:58:46 | 00:00:00 | |
| DL1XH1-15 | 2026-09-05 00:28:13 | 48.89091 | 10.61288 | 277° | 2km/h | 23488m | -24.6m/s | -51.8°C | 3.7% | 34hPa | 2.5V | 08:26:51 | 01:58:48 | 00:00:00 | |
| DL1XH-west | 2026-09-05 00:28:12 | 48.89090 | 10.61289 | 140° | 5km/h | 23437m | -25.2m/s | -51.9°C | 0.6% | 34.3hPa | 2.6V | 08:27:30 | 01:58:50 | 00:00:00 | |
| DK7TD | 2026-09-05 00:28:11 | 48.89091 | 10.61288 | 162° | 2km/h | 23463m | -26.1m/s | -51.7°C | 0.6% | 34.2hPa | 2.6V | 08:27:30 | 01:58:49 | 00:00:00 | |
| DF8AY | 2026-09-05 00:28:06 | 48.89090 | 10.61293 | 250° | 4km/h | 23573m | -20.7m/s | -52°C | 0.7% | 33.5hPa | 2.6V | 08:28:21 | 01:58:44 | 00:00:00 | |
| HSKMA3-T | 2026-09-05 00:28:05 | 48.89090 | 10.61295 | 257° | 7km/h | 23594m | -20.6m/s | -52.1°C | 0.8% | 33.5hPa | 2.6V | 08:27:30 | 01:58:43 | 00:00:00 | |
| OE5WHR-10 | 2026-09-05 00:28:04 | 48.89090 | 10.61297 | 271° | 13km/h | 23616m | -22.7m/s | -52.2°C | 3.9% | 33.3hPa | 2.6V | 00:00:00 | 01:58:42 | 00:00:00 | |
| DF7PN | 2026-09-05 00:28:03 | 48.89090 | 10.61300 | 282° | 5km/h | 23638m | -20.9m/s | -52.4°C | 1.1% | 33.2hPa | 2.6V | 00:00:00 | 00:00:00 | 00:00:00 | |
| PG1ADW-2 | 2026-09-05 00:28:02 | 48.89089 | 10.61302 | 285° | 15km/h | 23660m | -23.5m/s | -52.4°C | 4.0% | 33.1hPa | 2.6V | 00:00:00 | 00:00:00 | 00:00:00 | |
| DM0DOS-11 | 2026-09-05 00:28:01 | 48.89080 | 10.61310 | 348° | 15km/h | 23759m | -22.6m/s | -52.7°C | 4.2% | 32.6hPa | 2.6V | 08:27:03 | 01:58:36 | 00:00:00 | |
| DL1XH-west | 2026-09-05 00:28:01 | 48.89088 | 10.61305 | 321° | 11km/h | 23684m | -26.7m/s | -52.6°C | 0.8% | 33hPa | 2.5V | 08:27:30 | 01:58:39 | 00:00:00 | |
| DK7TD | 2026-09-05 00:28:00 | 48.89086 | 10.61307 | 336° | 11km/h | 23711m | -25.1m/s | -52.7°C | 0.8% | 32.9hPa | 2.5V | 08:27:30 | 01:58:38 | 00:00:00 | |
| DO9HM | 2026-09-05 00:27:59 | 48.89083 | 10.61308 | 344° | 13km/h | 23735m | -24.6m/s | -52.7°C | 1.3% | 32.7hPa | 2.6V | 08:27:00 | 00:00:00 | 00:00:00 | |
| DO3MHA-12 | 2026-09-05 00:27:58 | 48.89080 | 10.61310 | 349° | 16km/h | 23759m | -22.6m/s | -52.7°C | 4.2% | 32.6hPa | 2.6V | 00:00:00 | 01:58:36 | 00:00:00 | |
| DL1NUX | 2026-09-05 00:27:57 | 48.89071 | 10.61310 | 8° | 20km/h | 23801m | -21.2m/s | -52.8°C | 4.2% | 32.4hPa | 2.6V | 08:27:05 | 01:58:34 | 00:00:00 | |
| HSKMA3-T | 2026-09-05 00:27:55 | 48.89066 | 10.61309 | 10° | 20km/h | 23823m | -21.9m/s | -52.9°C | 0.9% | 32.3hPa | 2.5V | 08:27:30 | 01:58:33 | 00:00:00 | |
| NBG1-10 | 2026-09-05 00:27:55 | 48.89066 | 10.61309 | 10° | 15km/h | 23823m | -21.9m/s | -52.9°C | 4.3% | 32.2hPa | 2.6V | 00:00:00 | 01:58:33 | 00:00:00 | |
| DL1XH1-15 | 2026-09-05 00:27:54 | 48.89050 | 10.61292 | 65° | 13km/h | 23952m | -25.7m/s | -52.7°C | 4.2% | 31.7hPa | 2.6V | 08:27:11 | 01:58:28 | 00:00:00 | |
| AZAK | 2026-09-05 00:27:54 | 48.89058 | 10.61304 | 27° | 16km/h | 23870m | -24.5m/s | -52.9°C | 1.2% | 32.1hPa | 2.5V | 08:27:00 | 00:00:00 | 00:00:00 | |
| OE5DRO-10 | 2026-09-05 00:27:53 | 48.89057 | 10.61304 | 27° | 15km/h | 23870m | -24.4m/s | -52.9°C | 4.3% | 32.1hPa | 2.5V | 00:00:00 | 00:00:00 | 00:00:00 | |
| DM0DOS-11 | 2026-09-05 00:27:51 | 48.89048 | 10.61281 | 92° | 16km/h | 24009m | -28.8m/s | -52°C | 3.9% | 31.4hPa | 2.5V | 08:27:13 | 01:58:26 | 00:00:00 | |
| DL1XH-west | 2026-09-05 00:27:51 | 48.89052 | 10.61297 | 64° | 11km/h | 23925m | -28.1m/s | -52.9°C | 1% | 31.8hPa | 2.6V | 08:27:30 | 01:58:29 | 00:00:00 | |
| DK7TD | 2026-09-05 00:27:50 | 48.89050 | 10.61292 | 66° | 13km/h | 23953m | -25.7m/s | -52.7°C | 0.8% | 31.7hPa | 2.6V | 08:27:30 | 01:58:28 | 00:00:00 | |
| BIOWL1-15 | 2026-09-05 00:27:47 | 48.89050 | 10.61270 | 99° | 15km/h | 24066m | -28m/s | -52°C | 0.8% | 31.2hPa | 2.5V | 18:12:15 | 01:58:24 | 00:00:00 | |
| DB0NH | 2026-09-05 00:27:47 | 48.89049 | 10.61275 | 99° | 15km/h | 24038m | -28.3m/s | -51.8°C | 3.9% | 31.2hPa | 2.5V | 00:00:00 | 01:58:25 | 00:00:00 | |
| OE5DXL-15 | 2026-09-05 00:27:46 | 48.89050 | 10.61270 | 100° | 15km/h | 24066m | -28.0m/s | -51.9°C | 3.9% | 31.1hPa | 2.5V | 00:00:00 | 00:00:00 | 00:00:00 | |
| DL1XH1-15 | 2026-09-05 00:27:44 | 48.89048 | 10.61239 | 61° | 16km/h | 24218m | -23.5m/s | -51.7°C | 3.8% | 30.4hPa | 2.5V | 08:27:21 | 01:58:18 | 00:00:00 | |
| HSKMA3-T | 2026-09-05 00:27:44 | 48.89051 | 10.61260 | 90° | 13km/h | 24121m | -26.3m/s | -52°C | 0.8% | 30.9hPa | 2.6V | 08:27:30 | 01:58:22 | 00:00:00 | |
| DC4HF-4 | 2026-09-05 00:27:44 | 48.89050 | 10.61255 | 90° | 13km/h | 24147m | -24.7m/s | -51.9°C | 1.1% | 30.7hPa | 2.5V | 00:00:00 | 00:00:00 | 00:00:00 | |
| OE5WHR-10 | 2026-09-05 00:27:42 | 48.89050 | 10.61249 | 83° | 13km/h | 24171m | -23.8m/s | -51.7°C | 3.9% | 30.6hPa | 2.5V | 00:00:00 | 00:00:00 | 00:00:00 | |
| DM0DOS-11 | 2026-09-05 00:27:41 | 48.89043 | 10.61231 | 37° | 15km/h | 24271m | -28.7m/s | -51.6°C | 3.8% | 30.2hPa | 2.6V | 08:27:23 | 01:58:16 | 00:00:00 | |
| DL1XH-west | 2026-09-05 00:27:41 | 48.89049 | 10.61244 | 74° | 13km/h | 24194m | -23.7m/s | -51.7°C | 0.7% | 30.5hPa | 2.5V | 08:27:30 | 01:58:19 | 00:00:00 | |
| DK7TD | 2026-09-05 00:27:39 | 48.89046 | 10.61234 | 48° | 16km/h | 24243m | -27.1m/s | -51.6°C | 0.7% | 30.3hPa | 2.5V | 08:27:30 | 01:58:17 | 00:00:00 | |
| HSKMA3-T | 2026-09-05 00:27:33 | 48.89026 | 10.61213 | 33° | 16km/h | 24407m | -26m/s | -51.7°C | 0.8% | 29.5hPa | 2.5V | 08:27:30 | 01:58:11 | 00:00:00 | |
| BIOWL1-15 | 2026-09-05 00:27:30 | 48.89014 | 10.61196 | 86° | 11km/h | 24543m | -30.5m/s | -51.7°C | 0.8% | 28.9hPa | 2.5V | 18:12:15 | 01:58:06 | 00:00:00 | |
| DL1XH-west | 2026-09-05 00:27:30 | 48.89017 | 10.61204 | 42° | 15km/h | 24484m | -28.8m/s | -51.6°C | 0.7% | 29.2hPa | 2.6V | 08:28:21 | 01:58:08 | 00:00:00 | |
| DK7TD | 2026-09-05 00:27:29 | 48.89015 | 10.61200 | 54° | 11km/h | 24513m | -29.8m/s | -51.6°C | 0.8% | 29.1hPa | 2.5V | 08:28:21 | 01:58:07 | 00:00:00 | |
| DO3MHA-12 | 2026-09-05 00:27:28 | 48.89014 | 10.61196 | 86° | 15km/h | 24543m | -30.5m/s | -51.6°C | 4.0% | 28.9hPa | 2.5V | 00:00:00 | 01:58:06 | 00:00:00 | |
| DL1NUX | 2026-09-05 00:27:27 | 48.89015 | 10.61187 | 116° | 16km/h | 24603m | -30.7m/s | -51.9°C | 4.1% | 28.6hPa | 2.5V | 08:27:35 | 01:58:04 | 00:00:00 | |
| HSKMA3-T | 2026-09-05 00:27:23 | 48.89022 | 10.61171 | 126° | 16km/h | 24692m | -27.6m/s | -52°C | 0.9% | 28.2hPa | 2.5V | 08:28:21 | 01:58:01 | 00:00:00 | |
| DK5PH-5 | 2026-09-05 00:27:22 | 48.89025 | 10.61166 | 130° | 11km/h | 24719m | -26.0m/s | -52.0°C | 4.3% | 28.0hPa | 2.6V | 00:00:00 | 01:58:00 | 00:00:00 | |
| DM0DOS-11 | 2026-09-05 00:27:21 | 48.89033 | 10.61151 | 143° | 7km/h | 24831m | -28.3m/s | -51.5°C | 4.2% | 27.6hPa | 2.6V | 08:27:43 | 01:57:56 | 00:00:00 | |
| DL1XH-west | 2026-09-05 00:27:20 | 48.89029 | 10.61156 | 130° | 13km/h | 24774m | -27.6m/s | -52°C | 1% | 27.9hPa | 2.5V | 08:28:21 | 01:57:58 | 00:00:00 | |
| DK7TD | 2026-09-05 00:27:18 | 48.89033 | 10.61151 | 144° | 7km/h | 24831m | -28.3m/s | -51.5°C | 0.9% | 27.7hPa | 2.6V | 08:28:21 | 01:57:56 | 00:00:00 | |
| DF1GD-15 | 2026-09-05 00:27:18 | 48.89033 | 10.61151 | 145° | 9km/h | 24831m | -28.3m/s | -51.5°C | 1.2% | 27.7hPa | 2.5V | 08:28:00 | 00:00:00 | 00:00:00 | |
| DL1NUX | 2026-09-05 00:27:17 | 48.89034 | 10.61147 | 133° | 4km/h | 24887m | -30.2m/s | -51.1°C | 4.1% | 27.4hPa | 2.5V | 08:27:45 | 01:57:54 | 00:00:00 | |
| DF8AY | 2026-09-05 00:27:12 | 48.89032 | 10.61140 | 51° | 7km/h | 25000m | -27m/s | -50.8°C | 0.8% | 26.9hPa | 2.6V | 08:28:21 | 01:57:50 | 00:00:00 | |
| DM0DOS-11 | 2026-09-05 00:27:11 | 48.89021 | 10.61127 | 34° | 18km/h | 25135m | -36.4m/s | -50.2°C | 3.7% | 26.4hPa | 2.5V | 08:27:53 | 01:57:46 | 00:00:00 | |
| DK7TD | 2026-09-05 00:27:07 | 48.89017 | 10.61123 | 43° | 16km/h | 25171m | -33.8m/s | -50.3°C | 0.7% | 26.3hPa | 2.5V | 08:28:21 | 01:57:45 | 00:00:00 | |
| HSKMA3-T | 2026-09-05 00:27:01 | 48.89005 | 10.61093 | 84° | 11km/h | 25347m | -31.4m/s | -49.7°C | 0.6% | 25.5hPa | 2.5V | 08:28:21 | 01:57:39 | 00:00:00 | |
| DM0DOS-11 | 2026-09-05 00:27:01 | 48.89005 | 10.61082 | 87° | 7km/h | 25436m | -26.6m/s | -49.2°C | 3.5% | 25.2hPa | 2.6V | 08:28:03 | 01:57:36 | 00:00:00 | |
| BIOWL1-15 | 2026-09-05 00:26:59 | 48.89004 | 10.61075 | 74° | 5km/h | 25509m | -24.5m/s | -48.9°C | 0.5% | 24.9hPa | 2.5V | 18:12:15 | 01:57:33 | 00:00:00 | |
| SONCRA | 2026-09-05 00:26:59 | 48.89005 | 10.61085 | 81° | 7km/h | 25408m | -30.1m/s | -49.4°C | 1.0% | 25.3hPa | 2.5V | 00:00:00 | 00:00:00 | 00:00:00 | |
| DO3MHA-12 | 2026-09-05 00:26:58 | 48.89005 | 10.61082 | 88° | 9km/h | 25437m | -26.6m/s | -49.1°C | 3.5% | 25.2hPa | 2.5V | 00:00:00 | 01:57:36 | 00:00:00 | |
| DL1NUX | 2026-09-05 00:26:57 | 48.89004 | 10.61077 | 95° | 5km/h | 25486m | -23m/s | -49°C | 3.4% | 25hPa | 2.5V | 08:28:05 | 01:57:34 | 00:00:00 | |
| DK7TD | 2026-09-05 00:26:57 | 48.89004 | 10.61080 | 86° | 5km/h | 25462m | -25.5m/s | -49°C | 0.4% | 25.1hPa | 2.5V | 08:28:21 | 01:57:35 | 00:00:00 | |
| DL1XH-west | 2026-09-05 00:26:54 | 48.89004 | 10.61073 | 77° | 7km/h | 25534m | -25.7m/s | -48.9°C | 0.4% | 24.8hPa | 2.6V | 08:28:21 | 01:57:32 | 00:00:00 | |
| EDDB2-11 | 2026-09-05 00:26:53 | 48.89003 | 10.61071 | 57° | 7km/h | 25561m | -26.8m/s | -49.0°C | 0.9% | 24.7hPa | 2.5V | 00:00:00 | 00:00:00 | 00:00:00 | |
| DK5PH-5 | 2026-09-05 00:26:52 | 48.89002 | 10.61068 | 68° | 11km/h | 25589m | -29.4m/s | -49.0°C | 3.4% | 24.6hPa | 2.5V | 00:00:00 | 01:57:30 | 00:00:00 | |
| DM0DOS-11 | 2026-09-05 00:26:51 | 48.89000 | 10.61049 | 89° | 15km/h | 25701m | -28m/s | -48.9°C | 3.4% | 24.2hPa | 2.6V | 08:28:13 | 01:57:26 | 00:00:00 | |
| DF8AY | 2026-09-05 00:26:51 | 48.89001 | 10.61064 | 72° | 13km/h | 25616m | -27.7m/s | -49°C | 0.4% | 24.5hPa | 2.5V | 08:28:21 | 01:57:29 | 00:00:00 | |
| HSKMA3-T | 2026-09-05 00:26:50 | 48.89000 | 10.61059 | 73° | 13km/h | 25644m | -28.4m/s | -49°C | 0.5% | 24.4hPa | 2.5V | 08:28:21 | 01:57:28 | 00:00:00 | |
| DK7TD | 2026-09-05 00:26:46 | 48.89000 | 10.61036 | 100° | 18km/h | 25754m | -26.4m/s | -48.9°C | 0.4% | 23.9hPa | 2.5V | 08:28:21 | 01:57:24 | 00:00:00 | |
| BIOWL1-15 | 2026-09-05 00:26:45 | 48.89004 | 10.61017 | 111° | 15km/h | 25841m | -31.7m/s | -49.2°C | 0.5% | 23.7hPa | 2.6V | 18:12:15 | 01:57:21 | 00:00:00 | |
| DL1XH-west | 2026-09-05 00:26:44 | 48.89003 | 10.61023 | 114° | 16km/h | 25811m | -29.6m/s | -49.1°C | 0.5% | 23.7hPa | 2.5V | 08:28:21 | 01:57:22 | 00:00:00 | |
| DM0DOS-11 | 2026-09-05 00:26:43 | 48.89012 | 10.60998 | 129° | 7km/h | 25986m | -29.1m/s | -49°C | 3.4% | 23.2hPa | 2.6V | 08:28:23 | 01:57:16 | 00:00:00 | |
| DF8AY | 2026-09-05 00:26:40 | 48.89013 | 10.60996 | 142° | 4km/h | 26016m | -31.4m/s | -49.1°C | 0.5% | 23.1hPa | 2.6V | 08:29:12 | 01:57:15 | 00:00:00 | |
| HSKMA3-T | 2026-09-05 00:26:39 | 48.89011 | 10.61000 | 132° | 9km/h | 25957m | -28.8m/s | -49.1°C | 0.5% | 23.2hPa | 2.5V | 08:29:12 | 01:57:17 | 00:00:00 | |
| DK7TD | 2026-09-05 00:26:35 | 48.89015 | 10.60995 | 170° | 2km/h | 26076m | -29.3m/s | -49.2°C | 0.5% | 22.8hPa | 2.5V | 08:29:12 | 01:57:13 | 00:00:00 | |
| DL6DJ-15 | 2026-09-05 00:26:35 | 48.89015 | 10.60995 | 225° | 2km/h | 26105m | -27.8m/s | -49.3°C | 1.0% | 22.7hPa | 2.5V | 00:00:00 | 00:00:00 | 00:00:00 | |
| DL1XH1-15 | 2026-09-05 00:26:34 | 48.89015 | 10.60996 | 8° | 4km/h | 26246m | -28.7m/s | -49.4°C | 3.5% | 22.3hPa | 2.5V | 08:30:00 | 01:57:07 | 00:00:00 | |
| DL1XH-west | 2026-09-05 00:26:33 | 48.89015 | 10.60995 | 236° | 2km/h | 26133m | -28.9m/s | -49.4°C | 0.5% | 22.6hPa | 2.5V | 08:29:12 | 01:57:11 | 00:00:00 | |
| BIOWL1-15 | 2026-09-05 00:26:33 | 48.89002 | 10.60984 | 77° | 9km/h | 26483m | -28.3m/s | -50°C | 0.7% | 21.4hPa | 2.5V | 18:12:15 | 01:56:59 | 00:00:00 | |
| DF8AY | 2026-09-05 00:26:30 | 48.89016 | 10.60996 | 6° | 2km/h | 26218m | -27.7m/s | -49.4°C | 0.5% | 22.3hPa | 2.6V | 08:29:12 | 01:57:08 | 00:00:00 | |
| HSKMA3-T | 2026-09-05 00:26:29 | 48.89015 | 10.60996 | 9° | 4km/h | 26246m | -28.7m/s | -49.4°C | 0.5% | 22.3hPa | 2.5V | 08:29:12 | 01:57:07 | 00:00:00 | |
| DO3MHA-12 | 2026-09-05 00:26:28 | 48.89014 | 10.60995 | 11° | 9km/h | 26276m | -31.8m/s | -49.3°C | 3.5% | 22.1hPa | 2.5V | 00:00:00 | 01:57:06 | 00:00:00 | |
| DL1NUX | 2026-09-05 00:26:27 | 48.89009 | 10.60994 | 8° | 11km/h | 26338m | -31m/s | -49.2°C | 3.4% | 21.9hPa | 2.5V | 08:28:35 | 01:57:04 | 00:00:00 | |
| DK7TD | 2026-09-05 00:26:25 | 48.89008 | 10.60993 | 23° | 9km/h | 26369m | -29.6m/s | -49.4°C | 0.5% | 21.9hPa | 2.5V | 08:29:12 | 01:57:03 | 00:00:00 | |
| OE5MMP-10 | 2026-09-05 00:26:24 | 48.89006 | 10.60992 | 21° | 15km/h | 26398m | -29.2m/s | -49.6°C | 3.6% | 21.7hPa | 2.5V | 00:00:00 | 01:57:02 | 00:00:00 | |
| DM0DOS-11 | 2026-09-05 00:26:23 | 48.89005 | 10.60976 | 161° | 11km/h | 26575m | -30.4m/s | -49.9°C | 3.8% | 21.1hPa | 2.5V | 08:28:43 | 01:56:56 | 00:00:00 | |
| DL1XH-west | 2026-09-05 00:26:23 | 48.89004 | 10.60990 | 45° | 9km/h | 26427m | -27.7m/s | -49.8°C | 0.7% | 21.7hPa | 2.6V | 08:29:12 | 01:57:01 | 00:00:00 | |
| DL1XH1-15 | 2026-09-05 00:26:22 | 48.89003 | 10.60978 | 140° | 11km/h | 26543m | -32.1m/s | -50°C | 3.8% | 21.2hPa | 2.5V | 08:30:00 | 01:56:57 | 00:00:00 | |
| DF8AY | 2026-09-05 00:26:20 | 48.89001 | 10.60981 | 107° | 7km/h | 26512m | -29.8m/s | -50°C | 0.7% | 21.4hPa | 2.5V | 08:29:12 | 01:56:58 | 00:00:00 | |
| HSKMA3-T | 2026-09-05 00:26:18 | 48.89005 | 10.60976 | 161° | 11km/h | 26575m | -30.4m/s | -49.9°C | 0.7% | 21.2hPa | 2.5V | 08:29:12 | 01:56:56 | 00:00:00 | |
| DO3MHA-12 | 2026-09-05 00:26:18 | 48.89005 | 10.60976 | 162° | 16km/h | 26575m | -30.3m/s | -49.9°C | 3.8% | 21.1hPa | 2.5V | 00:00:00 | 01:56:56 | 00:00:00 | |
| DL1NUX | 2026-09-05 00:26:17 | 48.89010 | 10.60973 | 167° | 16km/h | 26634m | -31.1m/s | -49.8°C | 3.8% | 21hPa | 2.6V | 08:28:45 | 01:56:54 | 00:00:00 | |
| DK7TD | 2026-09-05 00:26:15 | 48.89014 | 10.60971 | 174° | 16km/h | 26666m | -31.2m/s | -49.7°C | 0.7% | 20.9hPa | 2.5V | 08:29:12 | 01:56:53 | 00:00:00 | |
| DM0DOS-11 | 2026-09-05 00:26:13 | 48.89044 | 10.60961 | 146° | 15km/h | 26876m | -28.3m/s | -49.6°C | 3.8% | 20.2hPa | 2.5V | 08:28:53 | 01:56:46 | 00:00:00 | |
| DL1XH1-15 | 2026-09-05 00:26:12 | 48.89041 | 10.60964 | 152° | 13km/h | 26848m | -28.1m/s | -49.6°C | 3.8% | 20.3hPa | 2.6V | 08:30:00 | 01:56:47 | 00:00:00 | |
| DL1XH-west | 2026-09-05 00:26:12 | 48.89028 | 10.60969 | 170° | 20km/h | 26759m | -31m/s | -49.6°C | 0.7% | 20.6hPa | 2.5V | 08:29:12 | 01:56:50 | 00:00:00 | |
| BIOWL1-15 | 2026-09-05 00:26:10 | 48.89049 | 10.60956 | 142° | 11km/h | 26932m | -28.7m/s | -49.5°C | 0.7% | 20hPa | 2.5V | 18:12:15 | 01:56:44 | 00:00:00 | |
| DF8AY | 2026-09-05 00:26:09 | 48.89041 | 10.60964 | 152° | 13km/h | 26848m | -28.2m/s | -49.6°C | 0.7% | 20.3hPa | 2.6V | 08:29:12 | 01:56:47 | 00:00:00 | |
| AZAK | 2026-09-05 00:26:09 | 48.89041 | 10.60964 | 153° | 13km/h | 26848m | -28.2m/s | -49.6°C | 1.1% | 20.3hPa | 2.5V | 08:29:00 | 00:00:00 | 00:00:00 | |
| DO3MHA-12 | 2026-09-05 00:26:08 | 48.89044 | 10.60961 | 147° | 13km/h | 26876m | -28.2m/s | -49.5°C | 3.8% | 20.1hPa | 2.5V | 00:00:00 | 01:56:46 | 00:00:00 | |
| DL1NUX | 2026-09-05 00:26:07 | 48.89049 | 10.60956 | 141° | 11km/h | 26932m | -28.7m/s | -49.5°C | 3.8% | 20hPa | 2.5V | 08:28:55 | 01:56:44 | 00:00:00 | |
| HSKMA3-T | 2026-09-05 00:26:07 | 48.89047 | 10.60958 | 134° | 13km/h | 26904m | -28.2m/s | -49.6°C | 0.7% | 20.1hPa | 2.5V | 08:29:12 | 01:56:45 | 00:00:00 | |
| DK7TD | 2026-09-05 00:26:05 | 48.89051 | 10.60954 | 151° | 9km/h | 26962m | -29.7m/s | -49.4°C | 0.8% | 19.9hPa | 2.5V | 08:29:12 | 01:56:43 | 00:00:00 | |
| DL6DJ-15 | 2026-09-05 00:26:04 | 48.89055 | 10.60953 | 185° | 11km/h | 27021m | -30.0m/s | -49.3°C | 1.1% | 19.8hPa | 2.6V | 00:00:00 | 00:00:00 | 00:00:00 | |
| DM0DOS-11 | 2026-09-05 00:26:03 | 48.89067 | 10.60972 | 251° | 20km/h | 27170m | -27.8m/s | -48.6°C | 3.7% | 19.3hPa | 2.6V | 08:29:03 | 01:56:36 | 00:00:00 | |
| DL1XH-west | 2026-09-05 00:26:01 | 48.89061 | 10.60956 | 212° | 15km/h | 27080m | -28.3m/s | -49.2°C | 0.7% | 19.6hPa | 2.5V | 08:29:12 | 01:56:39 | 00:00:00 | |
| DF8AY | 2026-09-05 00:25:59 | 48.89066 | 10.60966 | 241° | 18km/h | 27141m | -29.6m/s | -48.8°C | 0.7% | 19.4hPa | 2.6V | 08:29:12 | 01:56:37 | 00:00:00 | |
| HSKMA3-T | 2026-09-05 00:25:56 | 48.89070 | 10.60985 | 276° | 15km/h | 27229m | -30.6m/s | -48.2°C | 0.5% | 19.1hPa | 2.5V | 08:29:12 | 01:56:34 | 00:00:00 | |
| DK7TD | 2026-09-05 00:25:54 | 48.89069 | 10.60996 | 293° | 11km/h | 27286m | -29.7m/s | -48°C | 0.6% | 19hPa | 2.6V | 08:29:12 | 01:56:32 | 00:00:00 | |
| DL1XH-west | 2026-09-05 00:25:51 | 48.89066 | 10.61003 | 349° | 4km/h | 27385m | -34.6m/s | -47.6°C | 0.4% | 18.7hPa | 2.5V | 08:29:12 | 01:56:29 | 00:00:00 | |
| PETON7-10 | 2026-09-05 00:25:51 | 48.89066 | 10.61003 | 349° | 5km/h | 27386m | -34.6m/s | -47.6°C | 3.4% | 18.7hPa | 2.5V | 00:00:00 | 00:00:00 | 08:30:00 | |
| OE5WHR-10 | 2026-09-05 00:25:50 | 48.89065 | 10.61003 | 19° | 2km/h | 27420m | -35.0m/s | -47.5°C | 3.4% | 18.6hPa | 2.6V | 00:00:00 | 00:00:00 | 00:00:00 | |
| AZAK | 2026-09-05 00:25:49 | 48.89064 | 10.61003 | 10° | 5km/h | 27455m | -33.3m/s | -47.5°C | 0.9% | 18.5hPa | 2.6V | 08:29:00 | 00:00:00 | 00:00:00 | |
| DL1XH1-15 | 2026-09-05 00:25:48 | 48.89062 | 10.61001 | 33° | 5km/h | 27513m | -25.2m/s | -47.3°C | 3.4% | 18.3hPa | 2.6V | 08:30:00 | 01:56:25 | 00:00:00 | |
| HSKMA3-T | 2026-09-05 00:25:46 | 48.89061 | 10.61000 | 48° | 4km/h | 27540m | -28.4m/s | -47.2°C | 0.4% | 18.2hPa | 2.5V | 18:12:15 | 01:56:24 | 00:00:00 | |
| HARRO8 | 2026-09-05 00:25:45 | 48.89060 | 10.60999 | 24° | 7km/h | 27568m | -27.3m/s | -47.2°C | 0.9% | 18.1hPa | 2.6V | 00:00:00 | 00:00:00 | 00:00:00 | |
| DK7TD | 2026-09-05 00:25:43 | 48.89058 | 10.60997 | 21° | 7km/h | 27623m | -27.4m/s | -47.1°C | 0.4% | 18hPa | 2.6V | 18:12:15 | 01:56:21 | 00:00:00 | |
| DL1XH-west | 2026-09-05 00:25:40 | 48.89055 | 10.60996 | 13° | 2km/h | 27705m | -26.3m/s | -46.8°C | 0.4% | 17.8hPa | 2.5V | 18:12:15 | 01:56:18 | 00:00:00 | |
| BIOWL1-15 | 2026-09-05 00:25:37 | 48.89057 | 10.60990 | 126° | 9km/h | 27788m | -23.3m/s | -46.7°C | 0.3% | 17.6hPa | 2.6V | 18:12:15 | 01:56:15 | 00:00:00 | |
| HSKMA3-T | 2026-09-05 00:25:35 | 48.89058 | 10.60984 | 117° | 9km/h | 27838m | -30m/s | -46.6°C | 0.3% | 17.4hPa | 2.5V | 18:12:15 | 01:56:13 | 00:00:00 | |
| DO9HM | 2026-09-05 00:25:35 | 48.89058 | 10.60984 | 118° | 9km/h | 27838m | -30.0m/s | -46.6°C | 0.9% | 17.4hPa | 2.5V | 00:00:00 | 00:00:00 | 00:00:00 | |
| DM0DOS-11 | 2026-09-05 00:25:33 | 48.89058 | 10.60979 | 206° | 4km/h | 28062m | -32.9m/s | -46.5°C | 3.1% | 16.9hPa | 2.5V | 08:30:00 | 01:56:06 | 00:00:00 | |
| DK7TD | 2026-09-05 00:25:33 | 48.89059 | 10.60980 | 74° | 2km/h | 27903m | -33.8m/s | -46.5°C | 0.3% | 17.3hPa | 2.5V | 18:12:15 | 01:56:11 | 00:00:00 | |
| DF8AY | 2026-09-05 00:25:32 | 48.89059 | 10.60979 | 85° | 2km/h | 27936m | -32.8m/s | -46.5°C | 0.3% | 17.2hPa | 2.6V | 18:12:15 | 01:56:10 | 00:00:00 | |
| DL1XH-west | 2026-09-05 00:25:30 | 48.89059 | 10.60979 | 339° | 2km/h | 27998m | -30.4m/s | -46.6°C | 0.3% | 17hPa | 2.5V | 18:12:15 | 01:56:08 | 00:00:00 | |
| DO3MHA-12 | 2026-09-05 00:25:28 | 48.89058 | 10.60979 | 207° | 7km/h | 28062m | -32.9m/s | -46.4°C | 3.1% | 16.8hPa | 2.6V | 00:00:00 | 01:56:06 | 00:00:00 | |
| DL1NUX | 2026-09-05 00:25:27 | 48.89059 | 10.60979 | 151° | 4km/h | 28125m | -31.3m/s | -46.6°C | 3.2% | 16.7hPa | 2.6V | 08:30:00 | 01:56:04 | 00:00:00 | |
| HSKMA3-T | 2026-09-05 00:25:25 | 48.89060 | 10.60979 | 137° | 4km/h | 28156m | -29.9m/s | -46.6°C | 0.3% | 16.6hPa | 2.6V | 18:12:15 | 01:56:03 | 00:00:00 | |
| DM0DOS-11 | 2026-09-05 00:25:23 | 48.89059 | 10.60951 | 76° | 15km/h | 28356m | -24m/s | -46.1°C | 3.1% | 16.1hPa | 2.6V | 08:30:00 | 01:55:56 | 00:00:00 | |
| DK7TD | 2026-09-05 00:25:22 | 48.89061 | 10.60970 | 86° | 11km/h | 28250m | -30m/s | -46.4°C | 0.3% | 16.4hPa | 2.5V | 18:12:15 | 01:56:00 | 00:00:00 | |
| DL1XH1-15 | 2026-09-05 00:25:22 | 48.89058 | 10.60946 | 77° | 11km/h | 28381m | -26.3m/s | -46.1°C | 3.1% | 16.1hPa | 2.5V | 08:30:00 | 01:55:55 | 00:00:00 | |
| DF8AY | 2026-09-05 00:25:21 | 48.89061 | 10.60966 | 84° | 11km/h | 28279m | -26.6m/s | -46.4°C | 0.3% | 16.3hPa | 2.5V | 18:12:15 | 01:55:59 | 00:00:00 | |
| DL1XH-west | 2026-09-05 00:25:20 | 48.89061 | 10.60962 | 76° | 13km/h | 28305m | -27m/s | -46.3°C | 0.3% | 16.2hPa | 2.5V | 18:12:15 | 01:55:58 | 00:00:00 | |
| BIOWL1-15 | 2026-09-05 00:25:14 | 48.89056 | 10.60951 | 331° | 15km/h | 28685m | -24.3m/s | -46.3°C | 0.3% | 15.3hPa | 2.5V | 18:12:15 | 01:55:44 | 00:00:00 | |
| HSKMA3-T | 2026-09-05 00:25:14 | 48.89060 | 10.60937 | 170° | 5km/h | 28465m | -28.1m/s | -46.6°C | 0.4% | 15.8hPa | 2.5V | 18:12:15 | 01:55:52 | 00:00:00 | |
| DM0DOS-11 | 2026-09-05 00:25:13 | 48.89062 | 10.60946 | 324° | 11km/h | 28632m | -28.4m/s | -46.5°C | 3.2% | 15.4hPa | 2.5V | 08:30:00 | 01:55:46 | 00:00:00 | |
| DL1XH1-15 | 2026-09-05 00:25:12 | 48.89059 | 10.60948 | 329° | 13km/h | 28659m | -26.9m/s | -46.4°C | 3.2% | 15.3hPa | 2.5V | 08:30:00 | 01:55:45 | 00:00:00 | |
| DK7TD | 2026-09-05 00:25:11 | 48.89064 | 10.60939 | 238° | 4km/h | 28548m | -30.6m/s | -46.6°C | 0.3% | 15.6hPa | 2.6V | 18:12:15 | 01:55:49 | 00:00:00 | |
| DL1XH-west | 2026-09-05 00:25:09 | 48.89063 | 10.60943 | 303° | 7km/h | 28604m | -27m/s | -46.6°C | 0.3% | 15.5hPa | 2.5V | 18:12:15 | 01:55:47 | 00:00:00 | |
| HSKMA3-T | 2026-09-05 00:25:04 | 48.89048 | 10.60956 | 344° | 20km/h | 28733m | -24.1m/s | -46°C | 0.3% | 15.2hPa | 2.6V | 18:12:15 | 01:55:42 | 00:00:00 | |
| OE5WHR-10 | 2026-09-05 00:25:04 | 48.89048 | 10.60956 | 344° | 13km/h | 28734m | -24.1m/s | -46.0°C | 3.1% | 15.2hPa | 2.6V | 00:00:00 | 00:00:00 | 00:00:00 | |
| DM0DOS-11 | 2026-09-05 00:25:03 | 48.89021 | 10.60966 | 3° | 11km/h | 28871m | -25.5m/s | -45.8°C | 3% | 14.9hPa | 2.6V | 08:30:00 | 01:55:36 | 00:00:00 | |
| DK7TD | 2026-09-05 00:25:00 | 48.89029 | 10.60965 | 350° | 18km/h | 28822m | -22.8m/s | -45.7°C | 0.2% | 15hPa | 2.5V | 18:12:15 | 01:55:38 | 00:00:00 | |
| DF8AY | 2026-09-05 00:24:59 | 48.89024 | 10.60966 | 355° | 15km/h | 28846m | -24.4m/s | -45.7°C | 0.2% | 14.9hPa | 2.5V | 18:12:15 | 01:55:37 | 00:00:00 | |
| DL1XH1-15 | 2026-09-05 00:24:58 | 48.89019 | 10.60966 | 7° | 11km/h | 28896m | -24.7m/s | -45.9°C | 3.1% | 14.8hPa | 2.6V | 08:30:00 | 01:55:35 | 00:00:00 | |
| DL1XH-west | 2026-09-05 00:24:58 | 48.89021 | 10.60966 | 4° | 11km/h | 28871m | -25.5m/s | -45.8°C | 0.2% | 14.9hPa | 2.6V | 18:12:15 | 01:55:36 | 00:00:00 | |
| DO3MHA-12 | 2026-09-05 00:24:58 | 48.89021 | 10.60966 | 4° | 9km/h | 28872m | -25.5m/s | -45.8°C | 3.0% | 14.8hPa | 2.5V | 00:00:00 | 01:55:36 | 00:00:00 | |
| DL1NUX | 2026-09-05 00:24:57 | 48.89016 | 10.60965 | 24° | 7km/h | 28921m | -24.5m/s | -46°C | 3% | 14.8hPa | 2.5V | 08:30:00 | 01:55:34 | 00:00:00 | |
| HSKMA3-T | 2026-09-05 00:24:53 | 48.89010 | 10.60962 | 14° | 11km/h | 28997m | -24.9m/s | -46.1°C | 0.2% | 14.6hPa | 2.6V | 18:12:15 | 01:55:31 | 00:00:00 | |
| DK7TD | 2026-09-05 00:24:50 | 48.89003 | 10.60960 | 23° | 7km/h | 29067m | -22.1m/s | -46°C | 0.3% | 14.4hPa | 2.5V | 18:12:15 | 01:55:28 | 00:00:00 | |
| EDDB2-11 | 2026-09-05 00:24:49 | 48.89002 | 10.60956 | 93° | 7km/h | 29112m | -22.3m/s | -45.9°C | 0.8% | 14.3hPa | 2.6V | 00:00:00 | 00:00:00 | 00:00:00 | |
| DF8AY | 2026-09-05 00:24:49 | 48.89002 | 10.60959 | 59° | 7km/h | 29089m | -22.3m/s | -46°C | 0.2% | 14.4hPa | 2.5V | 18:12:15 | 01:55:27 | 00:00:00 | |
| DL1XH1-15 | 2026-09-05 00:24:48 | 48.89002 | 10.60952 | 107° | 11km/h | 29133m | -21.7m/s | -45.9°C | 3.1% | 14.3hPa | 2.6V | 08:30:00 | 01:55:25 | 00:00:00 | |
| DL1XH-west | 2026-09-05 00:24:48 | 48.89002 | 10.60956 | 93° | 7km/h | 29111m | -22.3m/s | -45.9°C | 0.2% | 14.3hPa | 2.6V | 18:12:15 | 01:55:26 | 00:00:00 | |
| DO3MHA-12 | 2026-09-05 00:24:48 | 48.89002 | 10.60956 | 94° | 11km/h | 29112m | -22.3m/s | -45.9°C | 3.1% | 14.3hPa | 2.6V | 00:00:00 | 01:55:26 | 00:00:00 | |
| DL1NUX | 2026-09-05 00:24:47 | 48.89003 | 10.60948 | 113° | 13km/h | 29156m | -23.3m/s | -45.9°C | 3% | 14.2hPa | 2.5V | 08:30:00 | 01:55:24 | 00:00:00 | |
| DB0NH | 2026-09-05 00:24:47 | 48.89002 | 10.60952 | 108° | 13km/h | 29134m | -21.6m/s | -45.8°C | 3.1% | 14.2hPa | 2.5V | 00:00:00 | 01:55:25 | 00:00:00 | |
| OE5MMP-10 | 2026-09-05 00:24:46 | 48.89003 | 10.60948 | 114° | 13km/h | 29156m | -23.3m/s | -45.8°C | 3.0% | 14.2hPa | 2.5V | 00:00:00 | 01:55:24 | 00:00:00 | |
| AZAK | 2026-09-05 00:24:45 | 48.89003 | 10.60948 | 114° | 13km/h | 29156m | -23.3m/s | -45.9°C | 0.8% | 14.2hPa | 2.5V | 00:00:00 | 00:00:00 | 00:00:00 | |
| DM0DOS-11 | 2026-09-05 00:24:43 | 48.88995 | 10.60929 | 0° | 18km/h | 29326m | -19.5m/s | -45.9°C | 3% | 13.8hPa | 2.5V | 08:30:00 | 01:55:16 | 00:00:00 | |
| HSKMA3-T | 2026-09-05 00:24:43 | 48.89007 | 10.60935 | 103° | 9km/h | 29222m | -19.3m/s | -45.9°C | 0.2% | 14.1hPa | 2.5V | 18:12:15 | 01:55:21 | 00:00:00 | |
| DF8AY | 2026-09-05 00:24:39 | 48.88999 | 10.60929 | 0° | 16km/h | 29306m | -21.2m/s | -45.9°C | 0.2% | 13.9hPa | 2.5V | 18:12:15 | 01:55:17 | 00:00:00 | |
| DO3MHA-12 | 2026-09-05 00:24:38 | 48.88994 | 10.60929 | 1° | 15km/h | 29327m | -19.4m/s | -45.9°C | 3.0% | 13.8hPa | 2.6V | 00:00:00 | 01:55:16 | 00:00:00 | |
| DL1NUX | 2026-09-05 00:24:37 | 48.88985 | 10.60928 | 7° | 20km/h | 29364m | -15.8m/s | -45.8°C | 3% | 13.8hPa | 2.6V | 08:30:00 | 01:55:14 | 00:00:00 | |
| DL1XH-west | 2026-09-05 00:24:37 | 48.88990 | 10.60929 | 6° | 20km/h | 29346m | -20.1m/s | -45.9°C | 0.1% | 13.8hPa | 2.6V | 18:12:15 | 01:55:15 | 00:00:00 | |
| HSKMA3-T | 2026-09-05 00:24:32 | 48.88973 | 10.60917 | 74° | 13km/h | 29426m | -10.6m/s | -45.7°C | 0.2% | 13.7hPa | 2.6V | 18:12:15 | 01:55:10 | 00:00:00 | |
| DM7RM-13 | 2026-09-05 00:24:31 | 48.88973 | 10.60917 | 75° | 13km/h | 29426m | -10.6m/s | -45.7°C | 0.9% | 13.6hPa | 2.5V | 00:00:00 | 00:00:00 | 00:00:00 | |
| DL6DJ-15 | 2026-09-05 00:24:30 | 48.88971 | 10.60908 | 74° | 11km/h | 29428m | 8.7m/s | -45.7°C | 0.8% | 13.6hPa | 2.5V | 00:00:00 | 00:00:00 | 00:00:00 | |
| DM0DOS-11 | 2026-09-05 00:24:29 | 48.88969 | 10.60903 | 30° | 5km/h | 29414m | 5.6m/s | -45.8°C | 3% | 13.7hPa | 2.5V | 08:30:00 | 01:55:06 | 00:00:00 | |
| DK7TD | 2026-09-05 00:24:28 | 48.88969 | 10.60903 | 31° | 5km/h | 29415m | 5.6m/s | -45.8°C | 0.2% | 13.7hPa | 2.5V | 18:12:15 | 01:55:06 | 00:00:00 | |
| DO3MHA-12 | 2026-09-05 00:24:28 | 48.88969 | 10.60903 | 31° | 11km/h | 29415m | 5.6m/s | -45.8°C | 3.0% | 13.6hPa | 2.6V | 00:00:00 | 01:55:06 | 00:00:00 | |
| DL1NUX | 2026-09-05 00:24:27 | 48.88967 | 10.60902 | 19° | 5km/h | 29403m | 6.6m/s | -45.9°C | 3% | 13.7hPa | 2.6V | 08:30:00 | 01:55:04 | 00:00:00 | |
| BIOWL1-15 | 2026-09-05 00:24:26 | 48.88961 | 10.60900 | 356° | 11km/h | 29386m | 5.5m/s | 0°C | 0% | 13.7hPa | 2.5V | 18:12:15 | 01:55:01 | 00:00:00 | |
| DO3MHA-11 | 2026-09-05 00:24:26 | 48.88967 | 10.60901 | 20° | 13km/h | 29403m | 6.5m/s | -45.9°C | 3.0% | 13.6hPa | 2.6V | 00:00:00 | 01:55:04 | 00:00:00 | |
| DL1XH-west | 2026-09-05 00:24:26 | 48.88967 | 10.60902 | 20° | 5km/h | 29403m | 6.6m/s | -45.9°C | 0.2% | 13.7hPa | 2.6V | 18:12:15 | 01:55:04 | 00:00:00 | |
| AZAK | 2026-09-05 00:24:25 | 48.88967 | 10.60901 | 21° | 5km/h | 29403m | 6.6m/s | -45.9°C | 0.8% | 13.7hPa | 2.5V | 00:00:00 | 00:00:00 | 00:00:00 | |
| SONCRA | 2026-09-05 00:24:24 | 48.88961 | 10.60900 | 355° | 11km/h | 29387m | 5.5m/s | -46.0°C | 0.8% | 13.7hPa | 2.5V | 00:00:00 | 00:00:00 | 00:00:00 | |
| DM0DOS-11 | 2026-09-05 00:24:23 | 48.88942 | 10.60904 | 19° | 15km/h | 29357m | 6.9m/s | -46°C | 3.1% | 13.8hPa | 2.5V | 08:30:00 | 01:54:56 | 00:00:00 | |
| HSKMA3-T | 2026-09-05 00:24:21 | 48.88954 | 10.60902 | 342° | 18km/h | 29374m | 6m/s | -46.1°C | 0.2% | 13.7hPa | 2.6V | 18:12:15 | 01:54:59 | 00:00:00 | |
| DK7TD | 2026-09-05 00:24:17 | 48.88939 | 10.60901 | 45° | 15km/h | 29350m | 5.9m/s | -46°C | 0.2% | 13.8hPa | 2.5V | 18:12:15 | 01:54:55 | 00:00:00 | |
| DL1NUX | 2026-09-05 00:24:17 | 48.88937 | 10.60897 | 53° | 16km/h | 29345m | 4.9m/s | -46°C | 3.1% | 13.8hPa | 2.6V | 08:30:00 | 01:54:54 | 00:00:00 | |
| DL1XH-west | 2026-09-05 00:24:16 | 48.88936 | 10.60897 | 54° | 16km/h | 29345m | 4.9m/s | -46°C | 0.2% | 13.8hPa | 2.6V | 18:12:15 | 01:54:54 | 00:00:00 | |
| BIOWL1-15 | 2026-09-05 00:24:14 | 48.88932 | 10.60888 | 39° | 15km/h | 29335m | 6.1m/s | 0°C | 0% | 13.8hPa | 2.5V | 18:12:15 | 01:54:52 | 00:00:00 | |
| DM0DOS-11 | 2026-09-05 00:24:14 | 48.88912 | 10.60884 | 31° | 11km/h | 29300m | 5.8m/s | -46°C | 3.1% | 13.9hPa | 2.5V | 08:30:00 | 01:54:46 | 00:00:00 | |
| HSKMA3-T | 2026-09-05 00:24:11 | 48.88922 | 10.60885 | 353° | 15km/h | 29317m | 4.9m/s | -46°C | 0.3% | 13.8hPa | 2.5V | 18:12:15 | 01:54:49 | 00:00:00 | |
| OE5MMP-10 | 2026-09-05 00:24:10 | 48.88918 | 10.60886 | 358° | 13km/h | 29313m | 5.3m/s | -46.0°C | 3.1% | 13.8hPa | 2.5V | 00:00:00 | 01:54:48 | 00:00:00 | |
| DL1XH1-15 | 2026-09-05 00:24:08 | 48.88910 | 10.60881 | 44° | 11km/h | 29295m | 5.1m/s | -46°C | 3.1% | 13.9hPa | 2.5V | 08:30:00 | 01:54:45 | 00:00:00 | |
| DK7TD | 2026-09-05 00:24:07 | 48.88910 | 10.60881 | 44° | 11km/h | 29295m | 5.1m/s | -46°C | 0.2% | 13.9hPa | 2.5V | 18:12:15 | 01:54:45 | 00:00:00 | |
| DL1XH-west | 2026-09-05 00:24:05 | 48.88905 | 10.60875 | 29° | 11km/h | 29284m | 6m/s | -46°C | 0.3% | 13.9hPa | 2.6V | 18:12:15 | 01:54:43 | 00:00:00 | |
| BIOWL9-15 | 2026-09-05 00:24:04 | 48.88896 | 10.60872 | 13° | 15km/h | 29267m | 5.2m/s | -46.0°C | 0.9% | 13.9hPa | 2.5V | 00:00:00 | 00:00:00 | 00:00:00 | |
| DM0DOS-11 | 2026-09-05 00:24:03 | 48.88884 | 10.60860 | 40° | 11km/h | 29244m | 4.9m/s | -46.1°C | 3.1% | 14hPa | 2.5V | 08:30:00 | 01:54:36 | 00:00:00 | |
| DK5PH-5 | 2026-09-05 00:24:03 | 48.88899 | 10.60873 | 8° | 9km/h | 29272m | 5.5m/s | -46.0°C | 3.1% | 13.9hPa | 2.5V | 00:00:00 | 01:54:41 | 00:00:00 | |
| DL1XH1-15 | 2026-09-05 00:24:02 | 48.88882 | 10.60858 | 23° | 9km/h | 29238m | 6.7m/s | -46°C | 3.1% | 14hPa | 2.5V | 08:30:00 | 01:54:35 | 00:00:00 | |
| HSKMA3-T | 2026-09-05 00:24:01 | 48.88892 | 10.60870 | 25° | 15km/h | 29261m | 6.5m/s | -46.1°C | 0.2% | 14hPa | 2.5V | 18:12:15 | 01:54:39 | 00:00:00 | |
| DL6DJ-15 | 2026-09-05 00:23:59 | 48.88886 | 10.60863 | 44° | 13km/h | 29249m | 4.8m/s | -46.1°C | 0.9% | 14.0hPa | 2.5V | 00:00:00 | 00:00:00 | 00:00:00 | |
| DO3MHA-12 | 2026-09-05 00:23:58 | 48.88884 | 10.60860 | 41° | 9km/h | 29244m | 4.9m/s | -46.0°C | 3.1% | 13.9hPa | 2.5V | 00:00:00 | 01:54:36 | 00:00:00 | |
| DL1NUX | 2026-09-05 00:23:57 | 48.88880 | 10.60857 | 353° | 7km/h | 29232m | 6m/s | -46°C | 3.1% | 14hPa | 2.5V | 08:30:00 | 01:54:34 | 00:00:00 | |
| DK7TD | 2026-09-05 00:23:57 | 48.88882 | 10.60858 | 24° | 9km/h | 29238m | 6.7m/s | -46°C | 0.3% | 14hPa | 2.5V | 18:12:15 | 01:54:35 | 00:00:00 | |
| DF8AY | 2026-09-05 00:23:56 | 48.88880 | 10.60857 | 353° | 7km/h | 29232m | 6m/s | -46°C | 0.2% | 14hPa | 2.5V | 18:12:15 | 01:54:34 | 00:00:00 | |
| DL1XH-west | 2026-09-05 00:23:55 | 48.88879 | 10.60858 | 333° | 7km/h | 29227m | 4.9m/s | -46.1°C | 0.2% | 14hPa | 2.5V | 18:12:15 | 01:54:33 | 00:00:00 | |
| DF7PN | 2026-09-05 00:23:54 | 48.88877 | 10.60859 | 337° | 4km/h | 29222m | 4.9m/s | -46.0°C | 0.8% | 14.1hPa | 2.6V | 00:00:00 | 00:00:00 | 00:00:00 | |
| DM0DOS-11 | 2026-09-05 00:23:53 | 48.88869 | 10.60842 | 32° | 13km/h | 29186m | 6.3m/s | -46°C | 3.1% | 14.1hPa | 2.6V | 08:30:00 | 01:54:26 | 00:00:00 | |
| HSKMA3-T | 2026-09-05 00:23:50 | 48.88873 | 10.60849 | 62° | 13km/h | 29199m | 4.8m/s | -46°C | 0.3% | 14.1hPa | 2.5V | 18:12:15 | 01:54:28 | 00:00:00 | |
| OE5MMP-10 | 2026-09-05 00:23:50 | 48.88873 | 10.60849 | 63° | 9km/h | 29199m | 4.8m/s | -46.0°C | 3.1% | 14.0hPa | 2.5V | 00:00:00 | 01:54:28 | 00:00:00 | |
| DL1XH1-15 | 2026-09-05 00:23:48 | 48.88866 | 10.60840 | 21° | 13km/h | 29180m | 5.7m/s | -46°C | 3.1% | 14.1hPa | 2.5V | 08:30:00 | 01:54:25 | 00:00:00 | |
| DO3MHA-12 | 2026-09-05 00:23:48 | 48.88869 | 10.60842 | 33° | 7km/h | 29187m | 6.3m/s | -46.0°C | 3.1% | 14.1hPa | 2.6V | 00:00:00 | 01:54:26 | 08:30:00 | |
| DL1NUX | 2026-09-05 00:23:47 | 48.88864 | 10.60838 | 21° | 11km/h | 29175m | 5.3m/s | -46°C | 3.1% | 14.2hPa | 2.5V | 08:30:00 | 01:54:24 | 00:00:00 | |
| DK7TD | 2026-09-05 00:23:46 | 48.88864 | 10.60838 | 21° | 11km/h | 29175m | 5.4m/s | -46.1°C | 0.2% | 14.2hPa | 2.5V | 18:12:15 | 01:54:24 | 00:00:00 | |
| DL1XH-west | 2026-09-05 00:23:45 | 48.88862 | 10.60837 | 34° | 7km/h | 29169m | 6.7m/s | -46.1°C | 0.3% | 14.2hPa | 2.5V | 18:12:15 | 01:54:23 | 00:00:00 | |
| AZAK | 2026-09-05 00:23:44 | 48.88862 | 10.60837 | 35° | 7km/h | 29169m | 6.7m/s | -46.1°C | 0.9% | 14.2hPa | 2.6V | 00:00:00 | 00:00:00 | 00:00:00 | |
| DM0DOS-11 | 2026-09-05 00:23:43 | 48.88855 | 10.60827 | 55° | 9km/h | 29128m | 6.7m/s | -46.1°C | 3.1% | 14.2hPa | 2.6V | 08:30:00 | 01:54:16 | 00:00:00 | |
| HSKMA3-T | 2026-09-05 00:23:39 | 48.88856 | 10.60829 | 32° | 7km/h | 29134m | 5.1m/s | -46.1°C | 0.2% | 14.2hPa | 2.5V | 18:12:15 | 01:54:17 | 00:00:00 | |
| DL1XH1-15 | 2026-09-05 00:23:38 | 48.88854 | 10.60824 | 72° | 11km/h | 29122m | 6.1m/s | -46.1°C | 3.1% | 14.3hPa | 2.6V | 08:30:00 | 01:54:15 | 00:00:00 | |
| AA1-15 | 2026-09-05 00:23:37 | 48.88854 | 10.60824 | 72° | 11km/h | 29122m | 6.1m/s | 0°C | 0% | 0hPa | 2.6V | 18:12:15 | 01:54:15 | 00:00:00 | |
| DL1NUX | 2026-09-05 00:23:37 | 48.88853 | 10.60819 | 74° | 15km/h | 29116m | 5m/s | -46.1°C | 3.1% | 14.3hPa | 2.5V | 08:30:00 | 01:54:14 | 00:00:00 | |
| DK7TD | 2026-09-05 00:23:36 | 48.88853 | 10.60819 | 75° | 15km/h | 29116m | 5m/s | -46.1°C | 0.2% | 14.3hPa | 2.5V | 18:12:15 | 01:54:14 | 00:00:00 | |
| DF8AY | 2026-09-05 00:23:35 | 48.88852 | 10.60814 | 71° | 13km/h | 29111m | 4.9m/s | -46.1°C | 0.3% | 14.3hPa | 2.5V | 18:12:15 | 01:54:13 | 00:00:00 | |
| DL1XH-west | 2026-09-05 00:23:34 | 48.88851 | 10.60810 | 58° | 11km/h | 29105m | 6.6m/s | -46.1°C | 0.2% | 14.3hPa | 2.5V | 18:12:15 | 01:54:12 | 00:00:00 | |
| DM0DOS-11 | 2026-09-05 00:23:33 | 48.88846 | 10.60803 | 94° | 5km/h | 29069m | 5m/s | -46.3°C | 3.1% | 14.4hPa | 2.6V | 08:30:00 | 01:54:06 | 00:00:00 | |
| DK5PH-5 | 2026-09-05 00:23:33 | 48.88849 | 10.60808 | 37° | 11km/h | 29099m | 6.3m/s | -46.1°C | 3.1% | 14.3hPa | 2.6V | 00:00:00 | 01:54:11 | 08:30:00 | |
| DF1GD-15 | 2026-09-05 00:23:32 | 48.88849 | 10.60808 | 38° | 7km/h | 29099m | 6.3m/s | -46.2°C | 0.9% | 14.3hPa | 2.6V | 00:00:00 | 00:00:00 | 00:00:00 | |
| DB0ND-19 | 2026-09-05 00:23:31 | 48.88846 | 10.60806 | 47° | 2km/h | 29081m | 6.9m/s | -46.2°C | 0.9% | 14.3hPa | 2.6V | 00:00:00 | 00:00:00 | 00:00:00 | |
| DM7RM-13 | 2026-09-05 00:23:29 | 48.88846 | 10.60806 | 48° | 2km/h | 29082m | 6.9m/s | -46.2°C | 0.9% | 14.3hPa | 2.6V | 00:00:00 | 00:00:00 | 00:00:00 | |
| DL1XH1-15 | 2026-09-05 00:23:28 | 48.88846 | 10.60802 | 77° | 4km/h | 29064m | 5.2m/s | -46.3°C | 3.2% | 14.4hPa | 2.6V | 08:30:00 | 01:54:05 | 00:00:00 | |
| HSKMA3-T | 2026-09-05 00:23:28 | 48.88846 | 10.60803 | 95° | 5km/h | 29069m | 5m/s | -46.3°C | 0.3% | 14.4hPa | 2.6V | 18:12:15 | 01:54:06 | 00:00:00 | |
| DO3MHA-12 | 2026-09-05 00:23:28 | 48.88846 | 10.60803 | 95° | 9km/h | 29070m | 4.9m/s | -46.2°C | 3.1% | 14.4hPa | 2.5V | 00:00:00 | 01:54:06 | 00:00:00 | |
| DL1NUX | 2026-09-05 00:23:27 | 48.88845 | 10.60801 | 10° | 4km/h | 29058m | 6.6m/s | -46.3°C | 3.1% | 14.4hPa | 2.5V | 08:30:00 | 01:54:04 | 00:00:00 | |
| DK7TD | 2026-09-05 00:23:26 | 48.88845 | 10.60801 | 10° | 4km/h | 29058m | 6.6m/s | -46.3°C | 0.3% | 14.4hPa | 2.5V | 18:12:15 | 01:54:04 | 00:00:00 | |
| DL1XH-west | 2026-09-05 00:23:24 | 48.88842 | 10.60802 | 349° | 11km/h | 29046m | 5.5m/s | -46.4°C | 0.3% | 14.4hPa | 2.5V | 18:12:15 | 01:54:02 | 00:00:00 | |
| DM0DOS-11 | 2026-09-05 00:23:23 | 48.88825 | 10.60788 | 32° | 9km/h | 29012m | 6.8m/s | -46.3°C | 3.2% | 14.5hPa | 2.5V | 08:30:00 | 01:53:56 | 00:00:00 | |
| SONCRA | 2026-09-05 00:23:22 | 48.88833 | 10.60798 | 36° | 15km/h | 29029m | 6.4m/s | -46.3°C | 0.9% | 14.5hPa | 2.6V | 00:00:00 | 00:00:00 | 00:00:00 | |
| PETON7-10 | 2026-09-05 00:23:21 | 48.88833 | 10.60798 | 37° | 13km/h | 29029m | 6.3m/s | -46.3°C | 3.1% | 14.5hPa | 2.6V | 00:00:00 | 00:00:00 | 00:00:00 | |
| DL1XH1-15 | 2026-09-05 00:23:18 | 48.88823 | 10.60787 | 2° | 7km/h | 29005m | 5.7m/s | -46.3°C | 3.2% | 14.5hPa | 2.6V | 08:30:00 | 01:53:55 | 00:00:00 | |
| HSKMA3-T | 2026-09-05 00:23:17 | 48.88823 | 10.60787 | 3° | 7km/h | 29005m | 5.7m/s | -46.3°C | 0.3% | 14.5hPa | 2.6V | 18:12:15 | 01:53:55 | 00:00:00 | |
| DK7TD | 2026-09-05 00:23:15 | 48.88819 | 10.60788 | 348° | 9km/h | 28995m | 5.6m/s | -46.3°C | 0.3% | 14.6hPa | 2.5V | 18:12:15 | 01:53:53 | 00:00:00 | |
| DL1XH-west | 2026-09-05 00:23:14 | 48.88817 | 10.60788 | 0° | 9km/h | 28988m | 6.8m/s | -46.3°C | 0.3% | 14.6hPa | 2.5V | 18:12:15 | 01:53:52 | 00:00:00 | |
| DM0DOS-11 | 2026-09-05 00:23:13 | 48.88795 | 10.60789 | 341° | 18km/h | 28953m | 5.3m/s | -46.2°C | 3.2% | 14.6hPa | 2.5V | 08:30:00 | 01:53:46 | 00:00:00 | |
| DF8AY | 2026-09-05 00:23:13 | 48.88814 | 10.60788 | 13° | 11km/h | 28982m | 5.9m/s | -46.3°C | 0.3% | 14.6hPa | 2.5V | 18:12:15 | 01:53:51 | 00:00:00 | |
| DB0UT-7 | 2026-09-05 00:23:12 | 48.88811 | 10.60787 | 13° | 18km/h | 28977m | 5.1m/s | -46.2°C | 3.2% | 14.6hPa | 2.5V | 00:00:00 | 01:53:50 | 00:00:00 | |
| DF1GD-15 | 2026-09-05 00:23:11 | 48.88811 | 10.60787 | 14° | 13km/h | 28977m | 5.2m/s | -46.3°C | 0.9% | 14.6hPa | 2.5V | 00:00:00 | 00:00:00 | 00:00:00 | |
| HARRO8 | 2026-09-05 00:23:10 | 48.88804 | 10.60786 | 352° | 15km/h | 28965m | 6.9m/s | -46.3°C | 0.9% | 14.6hPa | 2.5V | 00:00:00 | 00:00:00 | 00:00:00 | |
| DL1XH1-15 | 2026-09-05 00:23:08 | 48.88791 | 10.60791 | 348° | 18km/h | 28947m | 5.9m/s | -46.2°C | 3.2% | 14.7hPa | 2.5V | 08:30:00 | 01:53:45 | 00:00:00 | |
| DO3MHA-12 | 2026-09-05 00:23:08 | 48.88795 | 10.60790 | 342° | 18km/h | 28953m | 5.2m/s | -46.2°C | 3.2% | 14.6hPa | 2.6V | 00:00:00 | 01:53:46 | 00:00:00 | |
| DL1NUX | 2026-09-05 00:23:07 | 48.88787 | 10.60792 | 0° | 16km/h | 28941m | 6.6m/s | -46.1°C | 3.2% | 14.7hPa | 2.6V | 08:30:00 | 01:53:44 | 00:00:00 | |
| HSKMA3-T | 2026-09-05 00:23:06 | 48.88787 | 10.60792 | 1° | 16km/h | 28941m | 6.6m/s | -46.1°C | 0.3% | 14.7hPa | 2.6V | 18:12:15 | 01:53:44 | 00:00:00 | |
| DK7TD | 2026-09-05 00:23:04 | 48.88778 | 10.60790 | 10° | 18km/h | 28930m | 5m/s | -46.1°C | 0.3% | 14.7hPa | 2.5V | 18:12:15 | 01:53:42 | 00:00:00 | |
| DM0DOS-11 | 2026-09-05 00:23:03 | 48.88748 | 10.60794 | 2° | 20km/h | 28895m | 6.5m/s | -45.9°C | 3.1% | 14.8hPa | 2.6V | 08:30:00 | 01:53:36 | 00:00:00 | |
| DL1XH-west | 2026-09-05 00:23:03 | 48.88774 | 10.60789 | 3° | 18km/h | 28924m | 6.5m/s | -46°C | 0.2% | 14.7hPa | 2.5V | 18:12:15 | 01:53:41 | 00:00:00 | |
| DF8AY | 2026-09-05 00:23:00 | 48.88759 | 10.60793 | 348° | 22km/h | 28907m | 4.8m/s | -46°C | 0.3% | 14.8hPa | 2.6V | 18:12:15 | 01:53:38 | 00:00:00 | |
| DB0ND-19 | 2026-09-05 00:23:00 | 48.88753 | 10.60794 | 353° | 20km/h | 28902m | 6.0m/s | -45.9°C | 0.8% | 14.8hPa | 2.5V | 00:00:00 | 00:00:00 | 00:00:00 | |
| DL1XH1-15 | 2026-09-05 00:22:58 | 48.88743 | 10.60794 | 8° | 20km/h | 28890m | 5.6m/s | -45.9°C | 3% | 14.8hPa | 2.5V | 08:30:00 | 01:53:35 | 00:00:00 | |
| DO3MHA-12 | 2026-09-05 00:22:58 | 48.88748 | 10.60794 | 3° | 20km/h | 28896m | 6.5m/s | -45.9°C | 3.1% | 14.7hPa | 2.5V | 00:00:00 | 01:53:36 | 00:00:00 | |
| DL1NUX | 2026-09-05 00:22:57 | 48.88738 | 10.60793 | 5° | 20km/h | 28884m | 4.8m/s | -45.9°C | 3% | 14.8hPa | 2.5V | 08:30:00 | 01:53:34 | 00:00:00 | |
| HSKMA3-T | 2026-09-05 00:22:55 | 48.88733 | 10.60792 | 356° | 20km/h | 28879m | 6.1m/s | -45.9°C | 0.2% | 14.8hPa | 2.5V | 18:12:15 | 01:53:33 | 00:00:00 | |
| DF8AY | 2026-09-05 00:22:54 | 48.88705 | 10.60809 | 344° | 18km/h | 28844m | 4.9m/s | -45.9°C | 0.3% | 14.9hPa | 2.5V | 18:12:15 | 01:53:27 | 00:00:00 | |
| DK7TD | 2026-09-05 00:22:54 | 48.88729 | 10.60794 | 343° | 20km/h | 28873m | 6.4m/s | -45.9°C | 0.2% | 14.8hPa | 2.5V | 18:12:15 | 01:53:32 | 00:00:00 | |
| DL1XH-west | 2026-09-05 00:22:53 | 48.88724 | 10.60797 | 334° | 22km/h | 28867m | 5.7m/s | -45.9°C | 0.2% | 14.8hPa | 2.5V | 18:12:15 | 01:53:31 | 00:00:00 | |
| OE5MMP-10 | 2026-09-05 00:22:52 | 48.88719 | 10.60800 | 333° | 15km/h | 28862m | 5.3m/s | -45.8°C | 3.0% | 14.8hPa | 2.6V | 00:00:00 | 01:53:30 | 00:00:00 | |
| PETON7-10 | 2026-09-05 00:22:51 | 48.88714 | 10.60804 | 336° | 15km/h | 28856m | 6.4m/s | -45.8°C | 3.0% | 14.8hPa | 2.6V | 00:00:00 | 00:00:00 | 00:00:00 | |
| HEMX73-6 | 2026-09-05 00:22:50 | 48.88710 | 10.60806 | 342° | 11km/h | 28850m | 5.7m/s | 0°C | 0% | 0hPa | 2.5V | 00:00:00 | 01:53:28 | 00:00:00 | |
| DL1XH1-15 | 2026-09-05 00:22:48 | 48.88697 | 10.60814 | 333° | 16km/h | 28833m | 6.7m/s | -46°C | 3% | 14.9hPa | 2.5V | 08:30:00 | 01:53:25 | 00:00:00 | |
| DO3MHA-12 | 2026-09-05 00:22:48 | 48.88701 | 10.60811 | 341° | 13km/h | 28839m | 5.4m/s | -45.9°C | 3.0% | 14.9hPa | 2.5V | 00:00:00 | 01:53:26 | 00:00:00 | |
| DL1NUX | 2026-09-05 00:22:47 | 48.88693 | 10.60817 | 327° | 16km/h | 28826m | 5.7m/s | -46°C | 3% | 14.9hPa | 2.5V | 08:30:00 | 01:53:24 | 00:00:00 | |
| DK7TD | 2026-09-05 00:22:44 | 48.88687 | 10.60822 | 338° | 11km/h | 28815m | 6.5m/s | -46°C | 0.2% | 14.9hPa | 2.6V | 18:12:15 | 01:53:22 | 00:00:00 | |
| DM0DOS-11 | 2026-09-05 00:22:44 | 48.88673 | 10.60830 | 316° | 18km/h | 28779m | 5.5m/s | -46.1°C | 3% | 15hPa | 2.5V | 08:30:00 | 01:53:16 | 00:00:00 | |
| DL1XH-west | 2026-09-05 00:22:43 | 48.88685 | 10.60823 | 0° | 9km/h | 28808m | 6.8m/s | -46°C | 0.2% | 15hPa | 2.5V | 18:12:15 | 01:53:21 | 00:00:00 | |
| DF8AY | 2026-09-05 00:22:39 | 48.88676 | 10.60826 | 320° | 15km/h | 28785m | 6.1m/s | -46.1°C | 0.2% | 15hPa | 2.6V | 18:12:15 | 01:53:17 | 00:00:00 | |
| DF3TZ-5 | 2026-09-05 00:22:39 | 48.88673 | 10.60830 | 316° | 16km/h | 28779m | 5.5m/s | -46.1°C | 0.8% | 15.1hPa | 2.5V | 00:00:00 | 00:00:00 | 00:00:00 | |
| DO3MHA-12 | 2026-09-05 00:22:38 | 48.88673 | 10.60830 | 317° | 16km/h | 28780m | 5.4m/s | -46.1°C | 3.0% | 15.0hPa | 2.5V | 00:00:00 | 01:53:16 | 00:00:00 | |
| DL1NUX | 2026-09-05 00:22:37 | 48.88666 | 10.60839 | 322° | 18km/h | 28766m | 6.2m/s | -46.2°C | 3% | 15.1hPa | 2.5V | 08:30:00 | 01:53:14 | 00:00:00 | |
| DK7TD | 2026-09-05 00:22:34 | 48.88658 | 10.60849 | 318° | 20km/h | 28755m | 5.7m/s | -46.3°C | 0.2% | 15.1hPa | 2.6V | 18:12:15 | 01:53:12 | 00:00:00 | |
| DL1XH-west | 2026-09-05 00:22:32 | 48.88651 | 10.60860 | 305° | 18km/h | 28743m | 5.3m/s | -46.4°C | 0.3% | 15.1hPa | 2.5V | 18:12:15 | 01:53:10 | 00:00:00 | |
| DF8AY | 2026-09-05 00:22:28 | 48.88643 | 10.60870 | 33° | 9km/h | 28720m | 6.4m/s | -46.5°C | 0.2% | 15.2hPa | 2.6V | 18:12:15 | 01:53:06 | 00:00:00 | |
| DL1XH1-15 | 2026-09-05 00:22:28 | 48.88641 | 10.60868 | 42° | 11km/h | 28715m | 4.7m/s | -46.5°C | 3.1% | 15.2hPa | 2.5V | 08:30:00 | 01:53:05 | 00:00:00 | |
| DO3MHA-12 | 2026-09-05 00:22:28 | 48.88643 | 10.60870 | 33° | 15km/h | 28721m | 6.4m/s | -46.4°C | 3.1% | 15.1hPa | 2.5V | 00:00:00 | 01:53:06 | 00:00:00 | |
| SO1NDE-10 | 2026-09-05 00:22:27 | 48.88641 | 10.60868 | 43° | 11km/h | 28715m | 4.7m/s | -46.5°C | 3.1% | 15.1hPa | 2.5V | 00:00:00 | 01:53:05 | 00:00:00 | |
| DO3MHA-11 | 2026-09-05 00:22:26 | 48.88639 | 10.60865 | 35° | 15km/h | 28710m | 4.4m/s | -46.5°C | 3.1% | 15.2hPa | 2.5V | 00:00:00 | 01:53:04 | 08:30:00 | |
| NBG1-10 | 2026-09-05 00:22:25 | 48.88636 | 10.60864 | 8° | 11km/h | 28705m | 5.8m/s | -46.5°C | 3.1% | 15.2hPa | 2.6V | 00:00:00 | 01:53:03 | 00:00:00 | |
| SONDE2-11 | 2026-09-05 00:22:24 | 48.88634 | 10.60864 | 324° | 11km/h | 28699m | 6.6m/s | -46.6°C | 0.9% | 15.2hPa | 2.6V | 00:00:00 | 00:00:00 | 00:00:00 | |
| DM0DOS-11 | 2026-09-05 00:22:23 | 48.88623 | 10.60901 | 291° | 11km/h | 28664m | 5.1m/s | -46.7°C | 3.2% | 15.3hPa | 2.6V | 08:30:00 | 01:52:56 | 00:00:00 | |
| DK7TD | 2026-09-05 00:22:23 | 48.88632 | 10.60868 | 301° | 16km/h | 28692m | 6.5m/s | -46.6°C | 0.3% | 15.2hPa | 2.6V | 18:12:15 | 01:53:01 | 00:00:00 | |
| DL1XH-west | 2026-09-05 00:22:21 | 48.88628 | 10.60882 | 290° | 22km/h | 28681m | 5.2m/s | -46.6°C | 0.3% | 15.2hPa | 2.5V | 18:12:15 | 01:52:59 | 00:00:00 | |
| DF8AY | 2026-09-05 00:22:17 | 48.88622 | 10.60904 | 280° | 9km/h | 28658m | 5.5m/s | -46.7°C | 0.3% | 15.3hPa | 2.6V | 18:12:15 | 01:52:55 | 00:00:00 | |
| HSKMA3-T | 2026-09-05 00:22:13 | 48.88626 | 10.60914 | 190° | 7km/h | 28636m | 5.1m/s | -46.9°C | 0.3% | 15.4hPa | 2.6V | 18:12:15 | 01:52:51 | 00:00:00 | |
| DK7TD | 2026-09-05 00:22:12 | 48.88628 | 10.60914 | 156° | 5km/h | 28630m | 7.1m/s | -46.9°C | 0.3% | 15.4hPa | 2.6V | 18:12:15 | 01:52:50 | 00:00:00 | |
| DL1XH-west | 2026-09-05 00:22:10 | 48.88630 | 10.60910 | 118° | 5km/h | 28617m | 5.2m/s | -46.9°C | 0.4% | 15.4hPa | 2.5V | 18:12:15 | 01:52:48 | 00:00:00 | |
| DL1XH1-15 | 2026-09-05 00:22:08 | 48.88631 | 10.60913 | 263° | 9km/h | 28599m | 5.8m/s | -47°C | 3.3% | 15.4hPa | 2.6V | 08:30:00 | 01:52:45 | 00:00:00 | |
| DF8AY | 2026-09-05 00:22:06 | 48.88631 | 10.60917 | 264° | 11km/h | 28593m | 5.8m/s | -47°C | 0.4% | 15.5hPa | 2.5V | 18:12:15 | 01:52:44 | 00:00:00 | |
| AA1-15 | 2026-09-05 00:22:05 | 48.88631 | 10.60921 | 266° | 11km/h | 28587m | 6.6m/s | 0°C | 0% | 0hPa | 2.5V | 18:12:15 | 01:52:43 | 00:00:00 | |
| HSKMA3-T | 2026-09-05 00:22:03 | 48.88632 | 10.60926 | 219° | 4km/h | 28575m | 5.1m/s | -47°C | 0.4% | 15.5hPa | 2.5V | 18:12:15 | 01:52:41 | 00:00:00 | |
| DK7TD | 2026-09-05 00:22:01 | 48.88635 | 10.60926 | 171° | 7km/h | 28564m | 6.8m/s | -46.9°C | 0.4% | 15.5hPa | 2.6V | 18:12:15 | 01:52:39 | 00:00:00 | |
| DL1XH-west | 2026-09-05 00:22:00 | 48.88637 | 10.60925 | 161° | 11km/h | 28557m | 5.7m/s | -46.9°C | 0.4% | 15.6hPa | 2.5V | 18:12:15 | 01:52:38 | 00:00:00 | |
| BIOWL9-15 | 2026-09-05 00:21:59 | 48.88655 | 10.60900 | 212° | 7km/h | 28506m | 4.9m/s | -46.8°C | 0.9% | 15.7hPa | 2.6V | 00:00:00 | 00:00:00 | 00:00:00 | |
| DL1XH1-15 | 2026-09-05 00:21:58 | 48.88644 | 10.60914 | 118° | 16km/h | 28539m | 6.5m/s | -46.8°C | 3.3% | 15.6hPa | 2.6V | 08:30:00 | 01:52:35 | 00:00:00 | |
| DF8AY | 2026-09-05 00:21:55 | 48.88648 | 10.60903 | 117° | 13km/h | 28529m | 4.9m/s | -46.8°C | 0.4% | 15.6hPa | 2.5V | 18:12:15 | 01:52:33 | 00:00:00 | |
| HSKMA3-T | 2026-09-05 00:21:52 | 48.88653 | 10.60899 | 208° | 9km/h | 28511m | 5.2m/s | -46.8°C | 0.3% | 15.7hPa | 2.6V | 18:12:15 | 01:52:30 | 00:00:00 | |
| DL1XH-west | 2026-09-05 00:21:50 | 48.88656 | 10.60901 | 191° | 5km/h | 28500m | 6.2m/s | -46.8°C | 0.4% | 15.7hPa | 2.5V | 18:12:15 | 01:52:28 | 00:00:00 | |
| DL1XH1-15 | 2026-09-05 00:21:48 | 48.88661 | 10.60893 | 120° | 15km/h | 28483m | 5.5m/s | -46.7°C | 3.3% | 15.7hPa | 2.5V | 08:30:00 | 01:52:25 | 00:00:00 | |
| DO3MHA-12 | 2026-09-05 00:21:48 | 48.88659 | 10.60898 | 123° | 16km/h | 28489m | 5.2m/s | -46.7°C | 3.3% | 15.7hPa | 2.5V | 00:00:00 | 01:52:26 | 00:00:00 | |
| DL1NUX | 2026-09-05 00:21:47 | 48.88663 | 10.60888 | 123° | 18km/h | 28477m | 6.2m/s | -46.7°C | 3.2% | 15.7hPa | 2.6V | 08:30:00 | 01:52:24 | 00:00:00 | |
| AA1-15 | 2026-09-05 00:21:44 | 48.88668 | 10.60877 | 124° | 18km/h | 28466m | 5.2m/s | 0°C | 0% | 0hPa | 2.5V | 18:12:15 | 01:52:22 | 00:00:00 | |
| HSKMA3-T | 2026-09-05 00:21:42 | 48.88672 | 10.60865 | 99° | 16km/h | 28456m | 6.5m/s | -46.6°C | 0.3% | 15.8hPa | 2.5V | 18:12:15 | 01:52:20 | 00:00:00 | |
| DL1XH-west | 2026-09-05 00:21:40 | 48.88671 | 10.60853 | 75° | 15km/h | 28443m | 4.9m/s | -46.5°C | 0.3% | 15.8hPa | 2.6V | 18:12:15 | 01:52:18 | 00:00:00 | |
| DK7TD | 2026-09-05 00:21:39 | 48.88670 | 10.60847 | 81° | 13km/h | 28438m | 4.7m/s | -46.5°C | 0.3% | 15.8hPa | 2.6V | 18:12:15 | 01:52:17 | 00:00:00 | |
| DL1XH1-15 | 2026-09-05 00:21:38 | 48.88671 | 10.60841 | 142° | 9km/h | 28426m | 5.8m/s | -46.4°C | 3.1% | 15.9hPa | 2.5V | 08:30:00 | 01:52:15 | 00:00:00 | |
| DO3MHA-12 | 2026-09-05 00:21:38 | 48.88670 | 10.60843 | 103° | 15km/h | 28433m | 6.6m/s | -46.4°C | 3.2% | 15.8hPa | 2.5V | 00:00:00 | 01:52:16 | 00:00:00 | |
| DL1NUX | 2026-09-05 00:21:37 | 48.88674 | 10.60839 | 155° | 13km/h | 28421m | 4.9m/s | -46.4°C | 3.1% | 15.9hPa | 2.5V | 08:30:00 | 01:52:14 | 00:00:00 | |
| DF8AY | 2026-09-05 00:21:33 | 48.88684 | 10.60829 | 128° | 18km/h | 28404m | 6.1m/s | -46.3°C | 0.3% | 15.9hPa | 2.5V | 18:12:15 | 01:52:11 | 00:00:00 | |
| HSKMA3-T | 2026-09-05 00:21:32 | 48.88686 | 10.60823 | 117° | 18km/h | 28398m | 5.6m/s | -46.3°C | 0.2% | 15.9hPa | 2.6V | 18:12:15 | 01:52:10 | 00:00:00 | |
| DL1XH-west | 2026-09-05 00:21:29 | 48.88692 | 10.60805 | 119° | 13km/h | 28381m | 6.3m/s | -46.2°C | 0.3% | 16hPa | 2.5V | 18:12:15 | 01:52:07 | 00:00:00 | |
| BIOWL1-15 | 2026-09-05 00:21:28 | 48.88693 | 10.60801 | 118° | 9km/h | 28374m | 5.5m/s | 0°C | 0% | 0hPa | 2.5V | 18:12:15 | 01:52:06 | 00:00:00 | |
| DO3MHA-12 | 2026-09-05 00:21:28 | 48.88693 | 10.60801 | 118° | 7km/h | 28375m | 5.5m/s | -46.1°C | 3.1% | 16.0hPa | 2.5V | 00:00:00 | 01:52:06 | 00:00:00 | |
| DL1NUX | 2026-09-05 00:21:27 | 48.88694 | 10.60796 | 69° | 5km/h | 28363m | 6.8m/s | -46.1°C | 3.1% | 16hPa | 2.5V | 08:30:00 | 01:52:04 | 00:00:00 | |
| DB0ND-19 | 2026-09-05 00:21:27 | 48.88693 | 10.60796 | 69° | 5km/h | 28363m | 6.8m/s | -46.2°C | 0.9% | 16.0hPa | 2.5V | 00:00:00 | 00:00:00 | 00:00:00 | |
| DO3MHA-11 | 2026-09-05 00:21:26 | 48.88693 | 10.60796 | 70° | 9km/h | 28363m | 6.7m/s | -46.1°C | 3.1% | 16.0hPa | 2.5V | 00:00:00 | 01:52:04 | 00:00:00 | |
| OE5MMP-10 | 2026-09-05 00:21:25 | 48.88693 | 10.60794 | 49° | 5km/h | 28357m | 5.3m/s | -46.1°C | 3.1% | 16.0hPa | 2.5V | 00:00:00 | 01:52:03 | 08:30:00 | |
| DL6DJ-15 | 2026-09-05 00:21:24 | 48.88692 | 10.60793 | 36° | 4km/h | 28352m | 4.8m/s | -46.2°C | 0.8% | 16.1hPa | 2.5V | 00:00:00 | 00:00:00 | 00:00:00 | |
| DM0DOS-11 | 2026-09-05 00:21:23 | 48.88704 | 10.60786 | 125° | 16km/h | 28318m | 6.1m/s | -46.5°C | 3.1% | 16.1hPa | 2.5V | 08:30:00 | 01:51:56 | 00:00:00 | |
| HSKMA3-T | 2026-09-05 00:21:22 | 48.88692 | 10.60793 | 194° | 5km/h | 28340m | 6.5m/s | -46.3°C | 0.3% | 16.1hPa | 2.6V | 18:12:15 | 01:52:00 | 00:00:00 | |
| DL1XH-west | 2026-09-05 00:21:18 | 48.88704 | 10.60786 | 125° | 16km/h | 28318m | 6.1m/s | -46.5°C | 0.3% | 16.1hPa | 2.5V | 18:12:15 | 01:51:56 | 00:00:00 | |
| BIOWL1-15 | 2026-09-05 00:21:17 | 48.88705 | 10.60780 | 102° | 18km/h | 28313m | 5.4m/s | 0°C | 0% | 0hPa | 2.5V | 18:12:15 | 01:51:55 | 00:00:00 | |
| DF8AY | 2026-09-05 00:21:12 | 48.88699 | 10.60760 | 17° | 7km/h | 28285m | 5.9m/s | -46.6°C | 0.3% | 16.2hPa | 2.5V | 18:12:15 | 01:51:50 | 00:00:00 | |
| DM0DOS-11 | 2026-09-05 00:21:12 | 48.88698 | 10.60758 | 182° | 2km/h | 28262m | 6.6m/s | -46.7°C | 3.2% | 16.2hPa | 2.6V | 08:30:00 | 01:51:46 | 00:00:00 | |
| HSKMA3-T | 2026-09-05 00:21:11 | 48.88698 | 10.60760 | 29° | 4km/h | 28279m | 6.3m/s | -46.7°C | 0.3% | 16.2hPa | 2.5V | 18:12:15 | 01:51:49 | 00:00:00 | |
| DL1XH-west | 2026-09-05 00:21:07 | 48.88698 | 10.60759 | 235° | 2km/h | 28255m | 6.1m/s | -46.7°C | 0.3% | 16.3hPa | 2.5V | 18:12:15 | 01:51:45 | 00:00:00 | |
| BIOWL1-15 | 2026-09-05 00:21:07 | 48.88698 | 10.60759 | 134° | 2km/h | 28249m | 5m/s | 0°C | 0% | 0hPa | 2.5V | 18:12:15 | 01:51:44 | 00:00:00 | |
| HARRO8 | 2026-09-05 00:21:06 | 48.88699 | 10.60758 | 124° | 4km/h | 28245m | 5.3m/s | -46.6°C | 0.9% | 16.3hPa | 2.6V | 00:00:00 | 00:00:00 | 00:00:00 | |
| OE5WHR-10 | 2026-09-05 00:21:05 | 48.88699 | 10.60758 | 125° | 5km/h | 28245m | 5.3m/s | -46.6°C | 3.2% | 16.2hPa | 2.6V | 00:00:00 | 01:51:43 | 00:00:00 | |
| DM0DOS-11 | 2026-09-05 00:21:01 | 48.88705 | 10.60741 | 296° | 2km/h | 28203m | 5.1m/s | -46.7°C | 3.2% | 16.4hPa | 2.6V | 08:30:00 | 01:51:36 | 00:00:00 | |
| HSKMA3-T | 2026-09-05 00:21:01 | 48.88704 | 10.60744 | 119° | 9km/h | 28221m | 5.8m/s | -46.7°C | 0.3% | 16.4hPa | 2.5V | 18:12:15 | 01:51:39 | 00:00:00 | |
| DF8AY | 2026-09-05 00:21:00 | 48.88705 | 10.60742 | 106° | 4km/h | 28215m | 6.6m/s | -46.7°C | 0.3% | 16.4hPa | 2.5V | 18:12:15 | 01:51:38 | 00:00:00 | |
| DK7TD | 2026-09-05 00:20:56 | 48.88705 | 10.60743 | 180° | 4km/h | 28191m | 6.4m/s | -46.8°C | 0.4% | 16.4hPa | 2.5V | 18:12:15 | 01:51:34 | 00:00:00 | |
| DB0ND-19 | 2026-09-05 00:20:56 | 48.88706 | 10.60742 | 148° | 4km/h | 28185m | 5.3m/s | -46.8°C | 0.9% | 16.5hPa | 2.6V | 00:00:00 | 00:00:00 | 00:00:00 | |
| OE5MMP-10 | 2026-09-05 00:20:55 | 48.88706 | 10.60742 | 149° | 7km/h | 28185m | 5.2m/s | -46.7°C | 3.2% | 16.4hPa | 2.6V | 00:00:00 | 01:51:33 | 00:00:00 | |
| DM0DOS-11 | 2026-09-05 00:20:53 | 48.88708 | 10.60720 | 124° | 15km/h | 28145m | 5.8m/s | -46.8°C | 3.2% | 16.6hPa | 2.6V | 08:30:00 | 01:51:26 | 00:00:00 | |
| HSKMA3-T | 2026-09-05 00:20:50 | 48.88706 | 10.60730 | 94° | 11km/h | 28157m | 5.3m/s | -46.8°C | 0.4% | 16.5hPa | 2.5V | 18:12:15 | 01:51:28 | 00:00:00 | |
| PETON7-10 | 2026-09-05 00:20:50 | 48.88706 | 10.60730 | 94° | 9km/h | 28157m | 5.3m/s | -46.7°C | 3.2% | 16.4hPa | 2.6V | 00:00:00 | 01:51:28 | 00:00:00 | |
| DO3MHA-12 | 2026-09-05 00:20:48 | 48.88708 | 10.60720 | 125° | 9km/h | 28145m | 5.8m/s | -46.7°C | 3.2% | 16.5hPa | 2.6V | 00:00:00 | 01:51:26 | 08:30:00 | |
| DL1NUX | 2026-09-05 00:20:47 | 48.88713 | 10.60714 | 148° | 9km/h | 28134m | 5.2m/s | -46.8°C | 3.2% | 16.6hPa | 2.5V | 08:30:00 | 01:51:24 | 00:00:00 | |
| DL1XH-west | 2026-09-05 00:20:46 | 48.88713 | 10.60714 | 148° | 9km/h | 28134m | 5.2m/s | -46.8°C | 0.4% | 16.6hPa | 2.5V | 18:12:15 | 01:51:24 | 00:00:00 | |
| NBG1-10 | 2026-09-05 00:20:46 | 48.88713 | 10.60714 | 149° | 11km/h | 28135m | 5.2m/s | -46.7°C | 3.2% | 16.5hPa | 2.5V | 00:00:00 | 01:51:24 | 00:00:00 | |
| DF1GD-15 | 2026-09-05 00:20:45 | 48.88713 | 10.60714 | 149° | 9km/h | 28135m | 5.2m/s | -46.8°C | 1.0% | 16.6hPa | 2.5V | 00:00:00 | 00:00:00 | 00:00:00 | |
| OE5MMP-10 | 2026-09-05 00:20:44 | 48.88714 | 10.60714 | 311° | 9km/h | 28123m | 5.9m/s | -46.7°C | 3.2% | 16.6hPa | 2.5V | 00:00:00 | 01:51:22 | 00:00:00 | |
| OE5WHR-10 | 2026-09-05 00:20:42 | 48.88710 | 10.60718 | 326° | 11km/h | 28112m | 4.8m/s | -46.7°C | 3.2% | 16.6hPa | 2.6V | 00:00:00 | 00:00:00 | 00:00:00 | |
| DM0DOS-11 | 2026-09-05 00:20:41 | 48.88709 | 10.60723 | 181° | 9km/h | 28089m | 5.4m/s | -46.7°C | 3.2% | 16.7hPa | 2.5V | 08:30:00 | 01:51:16 | 00:00:00 | |
| HSKMA3-T | 2026-09-05 00:20:40 | 48.88707 | 10.60722 | 308° | 4km/h | 28100m | 6m/s | -46.8°C | 0.3% | 16.7hPa | 2.5V | 18:12:15 | 01:51:18 | 00:00:00 | |
| DO3MHA-12 | 2026-09-05 00:20:38 | 48.88709 | 10.60723 | 182° | 7km/h | 28089m | 5.3m/s | -46.6°C | 3.2% | 16.7hPa | 2.6V | 00:00:00 | 01:51:16 | 00:00:00 | |
| DL1NUX | 2026-09-05 00:20:37 | 48.88714 | 10.60724 | 189° | 11km/h | 28077m | 6.3m/s | -46.6°C | 3.2% | 16.7hPa | 2.6V | 08:30:00 | 01:51:14 | 00:00:00 | |
| DK7TD | 2026-09-05 00:20:36 | 48.88714 | 10.60724 | 190° | 11km/h | 28077m | 6.3m/s | -46.7°C | 0.3% | 16.7hPa | 2.6V | 18:12:15 | 01:51:14 | 00:00:00 | |
| DL1XH-west | 2026-09-05 00:20:35 | 48.88717 | 10.60724 | 189° | 9km/h | 28071m | 5.2m/s | -46.6°C | 0.3% | 16.7hPa | 2.5V | 18:12:15 | 01:51:13 | 00:00:00 | |
| PETON7-10 | 2026-09-05 00:20:35 | 48.88717 | 10.60724 | 189° | 11km/h | 28072m | 5.2m/s | -46.6°C | 3.2% | 16.7hPa | 2.5V | 00:00:00 | 00:00:00 | 00:00:00 | |
| DF3TZ-5 | 2026-09-05 00:20:34 | 48.88719 | 10.60724 | 170° | 7km/h | 28067m | 5.1m/s | -46.6°C | 0.9% | 16.7hPa | 2.5V | 00:00:00 | 00:00:00 | 00:00:00 | |
| DM0DOS-11 | 2026-09-05 00:20:33 | 48.88723 | 10.60715 | 271° | 5km/h | 28030m | 5.8m/s | -46.7°C | 3.1% | 16.9hPa | 2.5V | 08:30:00 | 01:51:06 | 00:00:00 | |
| HSKMA3-T | 2026-09-05 00:20:29 | 48.88723 | 10.60714 | 14° | 2km/h | 28036m | 6.8m/s | -46.6°C | 0.3% | 16.8hPa | 2.5V | 18:12:15 | 01:51:07 | 00:00:00 | |
| AA1-15 | 2026-09-05 00:20:28 | 48.88723 | 10.60715 | 272° | 5km/h | 28030m | 5.8m/s | 0°C | 0% | 0hPa | 2.5V | 18:12:15 | 01:51:06 | 00:00:00 | |
| DL1NUX | 2026-09-05 00:20:28 | 48.88725 | 10.60720 | 219° | 9km/h | 28018m | 7m/s | -46.7°C | 3.2% | 16.9hPa | 2.6V | 08:30:00 | 01:51:04 | 00:00:00 | |
| DL1XH-west | 2026-09-05 00:20:25 | 48.88727 | 10.60722 | 200° | 13km/h | 28012m | 6.2m/s | -46.7°C | 0.3% | 16.9hPa | 2.6V | 18:12:15 | 01:51:03 | 00:00:00 | |
| DF1GD-15 | 2026-09-05 00:20:24 | 48.88727 | 10.60722 | 201° | 13km/h | 28012m | 6.2m/s | -46.7°C | 0.9% | 16.9hPa | 2.5V | 00:00:00 | 00:00:00 | 00:00:00 | |
| DM7RM-13 | 2026-09-05 00:20:23 | 48.88730 | 10.60723 | 194° | 16km/h | 28006m | 5.8m/s | -46.7°C | 0.9% | 16.9hPa | 2.5V | 00:00:00 | 00:00:00 | 00:00:00 | |
| DL6DJ-15 | 2026-09-05 00:20:22 | 48.88739 | 10.60726 | 188° | 16km/h | 27994m | 5.9m/s | -46.7°C | 0.9% | 16.9hPa | 2.5V | 00:00:00 | 00:00:00 | 00:00:00 | |
| DM0DOS-11 | 2026-09-05 00:20:21 | 48.88754 | 10.60715 | 113° | 20km/h | 27970m | 5.6m/s | -46.7°C | 3.2% | 17hPa | 2.5V | 08:30:00 | 01:50:56 | 00:00:00 | |
| HSKMA3-T | 2026-09-05 00:20:19 | 48.88751 | 10.60721 | 132° | 18km/h | 27976m | 6.8m/s | -46.7°C | 0.3% | 17hPa | 2.5V | 18:12:15 | 01:50:57 | 00:00:00 | |
| DF8AY | 2026-09-05 00:20:18 | 48.88753 | 10.60715 | 113° | 20km/h | 27970m | 5.6m/s | -46.7°C | 0.3% | 17hPa | 2.5V | 18:12:15 | 01:50:56 | 00:00:00 | |
| DO3MHA-12 | 2026-09-05 00:20:18 | 48.88753 | 10.60714 | 114° | 13km/h | 27970m | 5.5m/s | -46.6°C | 3.2% | 17.0hPa | 2.5V | 00:00:00 | 01:50:56 | 00:00:00 | |
| DL1NUX | 2026-09-05 00:20:17 | 48.88755 | 10.60700 | 83° | 16km/h | 27960m | 5.9m/s | -46.7°C | 3.2% | 17hPa | 2.5V | 08:30:00 | 01:50:54 | 00:00:00 | |
| DL1XH-west | 2026-09-05 00:20:15 | 48.88754 | 10.60695 | 67° | 11km/h | 27953m | 6.5m/s | -46.7°C | 0.3% | 17hPa | 2.6V | 18:12:15 | 01:50:53 | 00:00:00 | |
| DM0DOS-11 | 2026-09-05 00:20:13 | 48.88763 | 10.60697 | 189° | 16km/h | 27913m | 5.7m/s | -46.6°C | 3.2% | 17.1hPa | 2.5V | 08:30:00 | 01:50:46 | 00:00:00 | |
| HSKMA3-T | 2026-09-05 00:20:08 | 48.88763 | 10.60697 | 190° | 16km/h | 27913m | 5.7m/s | -46.6°C | 0.3% | 17.1hPa | 2.5V | 18:12:15 | 01:50:46 | 00:00:00 | |
| DF8AY | 2026-09-05 00:20:07 | 48.88767 | 10.60698 | 193° | 15km/h | 27907m | 6.5m/s | -46.7°C | 0.3% | 17.2hPa | 2.5V | 18:12:15 | 01:50:45 | 00:00:00 | |
| DL1NUX | 2026-09-05 00:20:07 | 48.88771 | 10.60699 | 191° | 13km/h | 27901m | 5.6m/s | -46.6°C | 3.2% | 17.2hPa | 2.5V | 08:30:00 | 01:50:44 | 00:00:00 | |
| DL1XH-west | 2026-09-05 00:20:05 | 48.88774 | 10.60699 | 177° | 11km/h | 27896m | 5.1m/s | -46.7°C | 0.3% | 17.2hPa | 2.5V | 18:12:15 | 01:50:43 | 00:00:00 | |
| PETON7-10 | 2026-09-05 00:20:05 | 48.88773 | 10.60699 | 178° | 7km/h | 27896m | 5.0m/s | -46.6°C | 3.2% | 17.1hPa | 2.6V | 00:00:00 | 01:50:43 | 00:00:00 | |
| OE5MMP-10 | 2026-09-05 00:20:03 | 48.88778 | 10.60696 | 135° | 7km/h | 27884m | 6.5m/s | -46.7°C | 3.2% | 17.2hPa | 2.6V | 00:00:00 | 01:50:41 | 00:00:00 | |
| DM7RM-13 | 2026-09-05 00:20:02 | 48.88778 | 10.60696 | 135° | 13km/h | 27884m | 6.6m/s | -46.7°C | 0.9% | 17.2hPa | 2.6V | 00:00:00 | 00:00:00 | 00:00:00 | |
| DM0DOS-11 | 2026-09-05 00:20:01 | 48.88780 | 10.60683 | 341° | 4km/h | 27854m | 5m/s | -46.7°C | 3.2% | 17.3hPa | 2.6V | 08:30:00 | 01:50:36 | 00:00:00 | |
| HSKMA3-T | 2026-09-05 00:19:58 | 48.88780 | 10.60683 | 342° | 4km/h | 27854m | 5m/s | -46.7°C | 0.3% | 17.3hPa | 2.6V | 18:12:15 | 01:50:36 | 00:00:00 | |
| DO3MHA-12 | 2026-09-05 00:19:58 | 48.88780 | 10.60683 | 342° | 5km/h | 27854m | 4.9m/s | -46.7°C | 3.2% | 17.3hPa | 2.5V | 00:00:00 | 01:50:36 | 00:00:00 | |
| DL1NUX | 2026-09-05 00:19:57 | 48.88779 | 10.60684 | 157° | 2km/h | 27843m | 6.5m/s | -46.8°C | 3.2% | 17.3hPa | 2.5V | 08:30:00 | 01:50:34 | 00:00:00 | |
| DF8AY | 2026-09-05 00:19:56 | 48.88779 | 10.60684 | 158° | 2km/h | 27843m | 6.5m/s | -46.8°C | 0.4% | 17.4hPa | 2.5V | 18:12:15 | 01:50:34 | 00:00:00 | |
| DL1XH-west | 2026-09-05 00:19:54 | 48.88782 | 10.60682 | 145° | 9km/h | 27831m | 5.5m/s | -46.8°C | 0.4% | 17.4hPa | 2.6V | 18:12:15 | 01:50:32 | 00:00:00 | |
| DB0ND-19 | 2026-09-05 00:19:53 | 48.88784 | 10.60680 | 150° | 9km/h | 27826m | 5.3m/s | -46.8°C | 0.9% | 17.4hPa | 2.5V | 00:00:00 | 00:00:00 | 00:00:00 | |
| DL6DJ-15 | 2026-09-05 00:19:51 | 48.88788 | 10.60677 | 164° | 5km/h | 27813m | 6.1m/s | -46.7°C | 0.9% | 17.4hPa | 2.5V | 00:00:00 | 00:00:00 | 00:00:00 | |
| SONDE2-11 | 2026-09-05 00:19:49 | 48.88790 | 10.60675 | 97° | 4km/h | 27802m | 6.5m/s | -46.7°C | 0.9% | 17.5hPa | 2.5V | 00:00:00 | 00:00:00 | 00:00:00 | |
| DL1XH1-15 | 2026-09-05 00:19:48 | 48.88786 | 10.60668 | 21° | 13km/h | 27783m | 6.4m/s | -46.6°C | 3.1% | 17.5hPa | 2.5V | 08:30:00 | 01:50:24 | 00:00:00 | |
| HSKMA3-T | 2026-09-05 00:19:47 | 48.88788 | 10.60670 | 40° | 11km/h | 27789m | 5.5m/s | -46.6°C | 0.3% | 17.5hPa | 2.6V | 18:12:15 | 01:50:25 | 00:00:00 | |
| DF8AY | 2026-09-05 00:19:45 | 48.88782 | 10.60667 | 5° | 15km/h | 27777m | 6.9m/s | -46.6°C | 0.3% | 17.5hPa | 2.5V | 18:12:15 | 01:50:23 | 00:00:00 | |
| DL1XH-west | 2026-09-05 00:19:44 | 48.88778 | 10.60667 | 356° | 15km/h | 27770m | 5.5m/s | -46.6°C | 0.3% | 17.5hPa | 2.5V | 18:12:15 | 01:50:22 | 00:00:00 | |
| DK7TD | 2026-09-05 00:19:43 | 48.88775 | 10.60667 | 357° | 13km/h | 27765m | 5.1m/s | -46.7°C | 0.3% | 17.6hPa | 2.6V | 18:12:15 | 01:50:21 | 00:00:00 | |
| OE5MMP-10 | 2026-09-05 00:19:43 | 48.88775 | 10.60667 | 357° | 7km/h | 27765m | 5.1m/s | 0°C | 0% | 0hPa | 2.6V | 00:00:00 | 01:50:21 | 00:00:00 | |
| DB0UT-7 | 2026-09-05 00:19:42 | 48.88772 | 10.60667 | 7° | 7km/h | 27760m | 6.5m/s | -46.6°C | 3.1% | 17.5hPa | 2.6V | 00:00:00 | 00:00:00 | 00:00:00 | |
| OE5DRO-10 | 2026-09-05 00:19:41 | 48.88770 | 10.60666 | 42° | 7km/h | 27753m | 5.8m/s | -46.6°C | 3.1% | 17.5hPa | 2.6V | 00:00:00 | 00:00:00 | 00:00:00 | |
| NBG1-10 | 2026-09-05 00:19:40 | 48.88770 | 10.60664 | 112° | 7km/h | 27748m | 5.0m/s | -46.6°C | 3.2% | 17.5hPa | 2.6V | 00:00:00 | 01:50:18 | 00:00:00 | |
| DO3MHA-12 | 2026-09-05 00:19:38 | 48.88772 | 10.60663 | 185° | 9km/h | 27737m | 6.7m/s | -46.6°C | 3.2% | 17.6hPa | 2.6V | 00:00:00 | 01:50:16 | 00:00:00 | |
| DL1NUX | 2026-09-05 00:19:37 | 48.88775 | 10.60665 | 236° | 5km/h | 27725m | 4.7m/s | -46.6°C | 3.1% | 17.7hPa | 2.6V | 08:30:00 | 01:50:14 | 00:00:00 | |
| HSKMA3-T | 2026-09-05 00:19:36 | 48.88775 | 10.60665 | 237° | 5km/h | 27725m | 4.7m/s | -46.6°C | 0.3% | 17.7hPa | 2.6V | 18:12:15 | 01:50:14 | 00:00:00 | |
| DF8AY | 2026-09-05 00:19:35 | 48.88775 | 10.60667 | 285° | 2km/h | 27720m | 4.4m/s | -46.7°C | 0.3% | 17.7hPa | 2.5V | 18:12:15 | 01:50:13 | 00:00:00 | |
| PETON7-10 | 2026-09-05 00:19:35 | 48.88775 | 10.60667 | 285° | 9km/h | 27721m | 4.4m/s | -46.6°C | 3.1% | 17.6hPa | 2.5V | 00:00:00 | 00:00:00 | 00:00:00 | |
| DM0DOS-11 | 2026-09-05 00:19:33 | 48.88762 | 10.60649 | 15° | 7km/h | 27679m | 5.3m/s | -46.9°C | 3.2% | 17.8hPa | 2.5V | 08:30:00 | 01:50:06 | 00:00:00 | |
| DL1XH-west | 2026-09-05 00:19:33 | 48.88773 | 10.60665 | 44° | 9km/h | 27709m | 6.7m/s | -46.7°C | 0.3% | 17.7hPa | 2.5V | 18:12:15 | 01:50:11 | 00:00:00 | |
| DK7TD | 2026-09-05 00:19:32 | 48.88771 | 10.60662 | 49° | 15km/h | 27702m | 6.4m/s | -46.7°C | 0.3% | 17.7hPa | 2.6V | 18:12:15 | 01:50:10 | 00:00:00 | |
| DL1XH1-15 | 2026-09-05 00:19:28 | 48.88759 | 10.60648 | 38° | 4km/h | 27667m | 6.7m/s | -46.9°C | 3.1% | 17.8hPa | 2.6V | 08:30:00 | 01:50:04 | 00:00:00 | |
| HSKMA3-T | 2026-09-05 00:19:26 | 48.88759 | 10.60648 | 38° | 4km/h | 27667m | 6.7m/s | -46.9°C | 0.3% | 17.8hPa | 2.6V | 18:12:15 | 01:50:04 | 00:00:00 | |
| DF8AY | 2026-09-05 00:19:24 | 48.88758 | 10.60644 | 97° | 7km/h | 27655m | 5.5m/s | -46.9°C | 0.3% | 17.8hPa | 2.5V | 18:12:15 | 01:50:02 | 00:00:00 | |
| DL1XH-west | 2026-09-05 00:19:23 | 48.88759 | 10.60642 | 111° | 7km/h | 27649m | 5.4m/s | -47°C | 0.3% | 17.9hPa | 2.5V | 18:12:15 | 01:50:01 | 00:00:00 | |
| DK7TD | 2026-09-05 00:19:22 | 48.88760 | 10.60639 | 132° | 5km/h | 27644m | 6.2m/s | -47°C | 0.3% | 17.9hPa | 2.5V | 18:12:15 | 01:50:00 | 00:00:00 | |
| HSKMA3-T | 2026-09-05 00:19:15 | 48.88756 | 10.60631 | 45° | 9km/h | 27604m | 4.7m/s | -47.2°C | 0.3% | 18hPa | 2.6V | 18:12:15 | 01:49:53 | 00:00:00 | |
| DF8AY | 2026-09-05 00:19:13 | 48.88747 | 10.60636 | 346° | 9km/h | 27562m | 5.3m/s | -47.3°C | 0.3% | 18.1hPa | 2.5V | 18:12:15 | 01:49:46 | 00:00:00 | |
| DL1XH-west | 2026-09-05 00:19:13 | 48.88753 | 10.60628 | 352° | 4km/h | 27592m | 6.4m/s | -47.2°C | 0.4% | 18hPa | 2.5V | 18:12:15 | 01:49:51 | 00:00:00 | |
| DK7TD | 2026-09-05 00:19:11 | 48.88752 | 10.60631 | 301° | 7km/h | 27580m | 4.7m/s | -47.2°C | 0.3% | 18.1hPa | 2.5V | 18:12:15 | 01:49:49 | 00:00:00 | |
| HSKMA3-T | 2026-09-05 00:19:04 | 48.88739 | 10.60643 | 325° | 9km/h | 27541m | 4.4m/s | -47.3°C | 0.4% | 18.1hPa | 2.6V | 18:12:15 | 01:49:42 | 00:00:00 | |
| DL1XH-west | 2026-09-05 00:19:02 | 48.88736 | 10.60644 | 28° | 5km/h | 27529m | 6.5m/s | -47.3°C | 0.4% | 18.2hPa | 2.5V | 18:12:15 | 01:49:40 | 00:00:00 | |
| DM0DOS-11 | 2026-09-05 00:19:01 | 48.88734 | 10.60637 | 216° | 2km/h | 27506m | 6.4m/s | -47.4°C | 3.2% | 18.2hPa | 2.5V | 08:30:00 | 01:49:36 | 00:00:00 | |
| DK7TD | 2026-09-05 00:19:00 | 48.88734 | 10.60640 | 85° | 7km/h | 27517m | 5.2m/s | -47.4°C | 0.3% | 18.2hPa | 2.6V | 18:12:15 | 01:49:38 | 00:00:00 | |
| HSKMA3-T | 2026-09-05 00:18:53 | 48.88725 | 10.60653 | 341° | 22km/h | 27478m | 6m/s | -47.7°C | 0.4% | 18.3hPa | 2.6V | 18:12:15 | 01:49:31 | 00:00:00 | |
| DF8AY | 2026-09-05 00:18:52 | 48.88720 | 10.60655 | 347° | 24km/h | 27472m | 5.1m/s | -47.7°C | 0.4% | 18.4hPa | 2.5V | 18:12:15 | 01:49:30 | 00:00:00 | |
| DM0DOS-11 | 2026-09-05 00:18:51 | 48.88702 | 10.60668 | 306° | 13km/h | 27450m | 5.3m/s | -47.8°C | 3.3% | 18.4hPa | 2.6V | 08:30:00 | 01:49:26 | 00:00:00 | |
| DL1XH-west | 2026-09-05 00:18:51 | 48.88714 | 10.60657 | 345° | 24km/h | 27467m | 4.8m/s | -47.8°C | 0.4% | 18.3hPa | 2.5V | 18:12:15 | 01:49:29 | 00:00:00 | |
| DK7TD | 2026-09-05 00:18:50 | 48.88709 | 10.60660 | 336° | 22km/h | 27462m | 6.2m/s | -47.8°C | 0.4% | 18.4hPa | 2.5V | 18:12:15 | 01:49:28 | 00:00:00 | |
| DL6DJ-15 | 2026-09-05 00:18:49 | 48.88702 | 10.60668 | 306° | 13km/h | 27450m | 5.3m/s | -47.8°C | 0.9% | 18.4hPa | 2.6V | 00:00:00 | 00:00:00 | 00:00:00 | |
| SONDE2-11 | 2026-09-05 00:18:47 | 48.88700 | 10.60672 | 292° | 9km/h | 27444m | 6.2m/s | -47.8°C | 0.9% | 18.4hPa | 2.6V | 00:00:00 | 00:00:00 | 00:00:00 | |
| DF7PN | 2026-09-05 00:18:44 | 48.88701 | 10.60676 | 208° | 4km/h | 27427m | 5.0m/s | -47.8°C | 0.9% | 18.5hPa | 2.6V | 00:00:00 | 00:00:00 | 00:00:00 | |
| HSKMA3-T | 2026-09-05 00:18:43 | 48.88702 | 10.60678 | 223° | 7km/h | 27421m | 6.1m/s | -47.8°C | 0.4% | 18.5hPa | 2.6V | 18:12:15 | 01:49:21 | 00:00:00 | |
| DC4HF-4 | 2026-09-05 00:18:43 | 48.88703 | 10.60680 | 247° | 7km/h | 27415m | 6.4m/s | -47.9°C | 0.9% | 18.5hPa | 2.6V | 00:00:00 | 00:00:00 | 00:00:00 | |
| SONCRA | 2026-09-05 00:18:42 | 48.88703 | 10.60680 | 247° | 7km/h | 27415m | 6.4m/s | -47.9°C | 0.9% | 18.5hPa | 2.6V | 00:00:00 | 00:00:00 | 00:00:00 | |
| DM0DOS-11 | 2026-09-05 00:18:41 | 48.88699 | 10.60693 | 336° | 15km/h | 27391m | 6.3m/s | -47.9°C | 3.3% | 18.6hPa | 2.6V | 08:30:00 | 01:49:16 | 00:00:00 | |
| DF8AY | 2026-09-05 00:18:41 | 48.88704 | 10.60683 | 268° | 9km/h | 27409m | 5.4m/s | -47.9°C | 0.3% | 18.6hPa | 2.5V | 18:12:15 | 01:49:19 | 00:00:00 | |
| DL1XH-west | 2026-09-05 00:18:40 | 48.88703 | 10.60687 | 291° | 11km/h | 27403m | 5.3m/s | -47.9°C | 0.4% | 18.5hPa | 2.5V | 18:12:15 | 01:49:18 | 00:00:00 | |
| DK7TD | 2026-09-05 00:18:39 | 48.88702 | 10.60691 | 315° | 11km/h | 27397m | 6.7m/s | -47.9°C | 0.4% | 18.6hPa | 2.5V | 18:12:15 | 01:49:17 | 00:00:00 | |
| DO3MHA-12 | 2026-09-05 00:18:38 | 48.88699 | 10.60693 | 337° | 15km/h | 27391m | 6.3m/s | -47.9°C | 3.3% | 18.5hPa | 2.5V | 00:00:00 | 01:49:16 | 00:00:00 | |
| DL1NUX | 2026-09-05 00:18:37 | 48.88691 | 10.60698 | 333° | 18km/h | 27380m | 5.2m/s | -48°C | 3.3% | 18.6hPa | 2.5V | 08:30:00 | 01:49:14 | 00:00:00 | |
| HSKMA3-T | 2026-09-05 00:18:33 | 48.88685 | 10.60710 | 266° | 9km/h | 27363m | 5.3m/s | -47.9°C | 0.4% | 18.6hPa | 2.5V | 18:12:15 | 01:49:11 | 00:00:00 | |
| BIOWL1-15 | 2026-09-05 00:18:31 | 48.88704 | 10.60725 | 220° | 16km/h | 27326m | 4.3m/s | 0°C | 0% | 0hPa | 2.6V | 18:12:15 | 01:49:05 | 00:00:00 | |
| DL1XH-west | 2026-09-05 00:18:30 | 48.88691 | 10.60717 | 193° | 16km/h | 27344m | 6.3m/s | -47.9°C | 0.4% | 18.7hPa | 2.5V | 18:12:15 | 01:49:08 | 00:00:00 | |
| DL1XH1-15 | 2026-09-05 00:18:28 | 48.88707 | 10.60729 | 232° | 13km/h | 27321m | 5.9m/s | -48.1°C | 3.3% | 18.8hPa | 2.6V | 08:30:00 | 01:49:04 | 00:00:00 | |
| DK7TD | 2026-09-05 00:18:28 | 48.88700 | 10.60721 | 208° | 20km/h | 27331m | 5.6m/s | -48.1°C | 0.4% | 18.7hPa | 2.5V | 18:12:15 | 01:49:06 | 00:00:00 | |
| HSKMA3-T | 2026-09-05 00:18:23 | 48.88706 | 10.60741 | 306° | 15km/h | 27303m | 5.5m/s | -48.2°C | 0.4% | 18.8hPa | 2.5V | 18:12:15 | 01:49:01 | 00:00:00 | |
| BIOWL9-15 | 2026-09-05 00:18:22 | 48.88703 | 10.60747 | 301° | 18km/h | 27297m | 6.2m/s | -48.3°C | 0.9% | 18.9hPa | 2.5V | 00:00:00 | 00:00:00 | 00:00:00 | |
| OE5MMP-10 | 2026-09-05 00:18:21 | 48.88701 | 10.60754 | 292° | 24km/h | 27291m | 6.3m/s | 0°C | 0% | 0hPa | 2.5V | 00:00:00 | 01:48:59 | 00:00:00 | |
| DM0DOS-11 | 2026-09-05 00:18:20 | 48.88700 | 10.60781 | 251° | 22km/h | 27275m | 6m/s | -48.2°C | 3.3% | 18.9hPa | 2.5V | 08:30:00 | 01:48:56 | 00:00:00 | |
| DL1XH-west | 2026-09-05 00:18:19 | 48.88699 | 10.60772 | 265° | 26km/h | 27281m | 4.3m/s | -48.2°C | 0.4% | 18.9hPa | 2.5V | 18:12:15 | 01:48:57 | 00:00:00 | |
| DK7TD | 2026-09-05 00:18:17 | 48.88703 | 10.60788 | 235° | 20km/h | 27269m | 6.8m/s | -48.2°C | 0.4% | 18.9hPa | 2.5V | 18:12:15 | 01:48:55 | 00:00:00 | |
| DL1NUX | 2026-09-05 00:18:17 | 48.88706 | 10.60794 | 218° | 20km/h | 27263m | 6m/s | -48.2°C | 3.3% | 18.9hPa | 2.6V | 08:30:00 | 01:48:54 | 00:00:00 | |
| DB0NH | 2026-09-05 00:18:17 | 48.88703 | 10.60788 | 236° | 15km/h | 27269m | 6.7m/s | -48.2°C | 3.3% | 18.9hPa | 2.5V | 00:00:00 | 01:48:55 | 00:00:00 | |
| DJ8HS-15 | 2026-09-05 00:18:16 | 48.88706 | 10.60794 | 219° | 16km/h | 27263m | 6.0m/s | -48.2°C | 3.3% | 18.9hPa | 2.5V | 00:00:00 | 01:48:54 | 00:00:00 | |
| BIOWL1-15 | 2026-09-05 00:18:16 | 48.88715 | 10.60803 | 214° | 24km/h | 27251m | 6.2m/s | 0°C | 0% | 0hPa | 2.5V | 18:12:15 | 01:48:52 | 00:00:00 | |
| AZAK | 2026-09-05 00:18:15 | 48.88715 | 10.60803 | 215° | 24km/h | 27251m | 6.2m/s | -48.2°C | 0.9% | 19.0hPa | 2.5V | 00:00:00 | 00:00:00 | 00:00:00 | |
| DM0DOS-11 | 2026-09-05 00:18:13 | 48.88732 | 10.60839 | 262° | 9km/h | 27217m | 6m/s | -48.5°C | 3.3% | 19.1hPa | 2.5V | 08:30:00 | 01:48:46 | 00:00:00 | |
| HSKMA3-T | 2026-09-05 00:18:12 | 48.88724 | 10.60815 | 231° | 26km/h | 27239m | 5.2m/s | -48.3°C | 0.4% | 19hPa | 2.5V | 18:12:15 | 01:48:50 | 00:00:00 | |
| DL1XH-west | 2026-09-05 00:18:09 | 48.88731 | 10.60835 | 252° | 13km/h | 27223m | 6.8m/s | -48.5°C | 0.4% | 19.1hPa | 2.5V | 18:12:15 | 01:48:47 | 00:00:00 | |
| DK7TD | 2026-09-05 00:18:07 | 48.88732 | 10.60842 | 272° | 7km/h | 27211m | 5.3m/s | -48.6°C | 0.4% | 19.1hPa | 2.5V | 18:12:15 | 01:48:45 | 00:00:00 | |
| DC4HF-4 | 2026-09-05 00:18:07 | 48.88732 | 10.60845 | 264° | 5km/h | 27205m | 6.2m/s | -48.7°C | 0.9% | 19.1hPa | 2.5V | 00:00:00 | 00:00:00 | 00:00:00 | |
| OE5DRO-10 | 2026-09-05 00:18:06 | 48.88732 | 10.60845 | 265° | 11km/h | 27206m | 6.2m/s | -48.6°C | 3.3% | 19.1hPa | 2.5V | 00:00:00 | 00:00:00 | 00:00:00 | |
| EDDB2-11 | 2026-09-05 00:18:05 | 48.88733 | 10.60848 | 254° | 9km/h | 27199m | 6.3m/s | -48.7°C | 0.9% | 19.1hPa | 2.5V | 00:00:00 | 00:00:00 | 00:00:00 | |
| DO9HM | 2026-09-05 00:18:04 | 48.88734 | 10.60851 | 238° | 13km/h | 27193m | 5.4m/s | -48.8°C | 1.0% | 19.1hPa | 2.5V | 00:00:00 | 00:00:00 | 00:00:00 | |
| PETON7-10 | 2026-09-05 00:18:03 | 48.88736 | 10.60855 | 223° | 11km/h | 27188m | 6.3m/s | 0°C | 0% | 0hPa | 2.5V | 00:00:00 | 00:00:00 | 00:00:00 | |
| DM0DOS-11 | 2026-09-05 00:18:02 | 48.88753 | 10.60873 | 225° | 20km/h | 27158m | 5.6m/s | -49°C | 3.4% | 19.3hPa | 2.5V | 08:30:00 | 01:48:36 | 00:00:00 | |
| HSKMA3-T | 2026-09-05 00:18:01 | 48.88742 | 10.60861 | 206° | 16km/h | 27175m | 4.9m/s | -48.9°C | 0.4% | 19.2hPa | 2.5V | 18:12:15 | 01:48:39 | 00:00:00 | |
| DL1XH-west | 2026-09-05 00:17:58 | 48.88753 | 10.60873 | 226° | 20km/h | 27158m | 5.6m/s | -49°C | 0.5% | 19.3hPa | 2.5V | 18:12:15 | 01:48:36 | 00:00:00 | |
| DO3MHA-12 | 2026-09-05 00:17:58 | 48.88753 | 10.60873 | 226° | 9km/h | 27158m | 5.5m/s | -48.9°C | 3.4% | 19.2hPa | 2.5V | 00:00:00 | 01:48:36 | 00:00:00 | |
| DL1NUX | 2026-09-05 00:17:57 | 48.88759 | 10.60883 | 224° | 15km/h | 27147m | 6.6m/s | -49°C | 3.4% | 19.2hPa | 2.5V | 08:30:00 | 01:48:34 | 00:00:00 | |
| DK7TD | 2026-09-05 00:17:57 | 48.88756 | 10.60878 | 228° | 18km/h | 27152m | 5.2m/s | -49°C | 0.5% | 19.3hPa | 2.5V | 18:12:15 | 01:48:35 | 00:00:00 | |
| SO1NDE-10 | 2026-09-05 00:17:57 | 48.88756 | 10.60878 | 228° | 11km/h | 27153m | 5.2m/s | -48.9°C | 3.4% | 19.2hPa | 2.5V | 00:00:00 | 01:48:35 | 00:00:00 | |
| DJ8HS-15 | 2026-09-05 00:17:56 | 48.88759 | 10.60882 | 225° | 11km/h | 27147m | 6.5m/s | -49.0°C | 3.4% | 19.2hPa | 2.6V | 00:00:00 | 01:48:34 | 00:00:00 | |
| AZAK | 2026-09-05 00:17:55 | 48.88763 | 10.60886 | 192° | 5km/h | 27135m | 5.3m/s | -49.2°C | 0.9% | 19.3hPa | 2.6V | 00:00:00 | 00:00:00 | 00:00:00 | |
| DO3MHA-11 | 2026-09-05 00:17:54 | 48.88763 | 10.60886 | 192° | 7km/h | 27135m | 5.2m/s | -49.1°C | 3.4% | 19.3hPa | 2.6V | 00:00:00 | 01:48:32 | 08:30:00 | |
| DM0DOS-11 | 2026-09-05 00:17:52 | 48.88772 | 10.60885 | 156° | 11km/h | 27099m | 5.9m/s | -49.4°C | 3.5% | 19.4hPa | 2.6V | 08:30:00 | 01:48:26 | 00:00:00 | |
| DL1NUX | 2026-09-05 00:17:52 | 48.88778 | 10.60884 | 189° | 13km/h | 27088m | 6.3m/s | -49.4°C | 3.5% | 19.4hPa | 2.5V | 08:30:00 | 01:48:24 | 00:00:00 | |
| BIOWL1-15 | 2026-09-05 00:17:51 | 48.88767 | 10.60887 | 189° | 5km/h | 27117m | 5.1m/s | 0°C | 0% | 0hPa | 2.5V | 18:12:15 | 01:48:29 | 00:00:00 | |
| HSKMA3-T | 2026-09-05 00:17:50 | 48.88768 | 10.60887 | 171° | 7km/h | 27112m | 4.8m/s | -49.3°C | 0.5% | 19.4hPa | 2.5V | 18:12:15 | 01:48:28 | 00:00:00 | |
| DL1XH-west | 2026-09-05 00:17:48 | 48.88772 | 10.60885 | 156° | 11km/h | 27100m | 5.9m/s | -49.4°C | 0.6% | 19.4hPa | 2.6V | 18:12:15 | 01:48:26 | 00:00:00 | |
| DK7TD | 2026-09-05 00:17:47 | 48.88775 | 10.60884 | 171° | 11km/h | 27094m | 5.1m/s | -49.4°C | 0.5% | 19.4hPa | 2.5V | 18:12:15 | 01:48:25 | 00:00:00 | |
| DL6DJ-15 | 2026-09-05 00:17:47 | 48.88778 | 10.60884 | 189° | 11km/h | 27088m | 6.3m/s | -49.4°C | 1.0% | 19.4hPa | 2.6V | 00:00:00 | 00:00:00 | 00:00:00 | |
| SONDE2-11 | 2026-09-05 00:17:45 | 48.88781 | 10.60885 | 204° | 15km/h | 27082m | 5.9m/s | -49.5°C | 1.0% | 19.5hPa | 2.6V | 00:00:00 | 00:00:00 | 00:00:00 | |
| DM0DOS-11 | 2026-09-05 00:17:42 | 48.88803 | 10.60891 | 173° | 9km/h | 27042m | 6.3m/s | -49.6°C | 3.5% | 19.6hPa | 2.6V | 08:30:00 | 01:48:16 | 00:00:00 | |
| HSKMA3-T | 2026-09-05 00:17:39 | 48.88801 | 10.60892 | 166° | 11km/h | 27049m | 5.9m/s | -49.6°C | 0.5% | 19.6hPa | 2.5V | 18:12:15 | 01:48:17 | 00:00:00 | |
| DL1XH-west | 2026-09-05 00:17:37 | 48.88805 | 10.60891 | 177° | 9km/h | 27037m | 5.2m/s | -49.6°C | 0.5% | 19.6hPa | 2.6V | 18:12:15 | 01:48:15 | 00:00:00 | |
| DL1NUX | 2026-09-05 00:17:36 | 48.88808 | 10.60891 | 170° | 9km/h | 27032m | 4.8m/s | -49.6°C | 3.5% | 19.6hPa | 2.5V | 08:30:00 | 01:48:14 | 00:00:00 | |
| DK7TD | 2026-09-05 00:17:36 | 48.88808 | 10.60891 | 171° | 9km/h | 27032m | 4.9m/s | -49.6°C | 0.5% | 19.6hPa | 2.5V | 18:12:15 | 01:48:14 | 00:00:00 | |
| DJ8HS-15 | 2026-09-05 00:17:36 | 48.88808 | 10.60891 | 171° | 11km/h | 27032m | 4.8m/s | -49.5°C | 3.5% | 19.6hPa | 2.5V | 00:00:00 | 01:48:14 | 00:00:00 | |
| AZAK | 2026-09-05 00:17:34 | 48.88814 | 10.60886 | 151° | 11km/h | 27014m | 5.3m/s | -49.6°C | 1.0% | 19.7hPa | 2.5V | 00:00:00 | 00:00:00 | 00:00:00 | |
| PETON7-10 | 2026-09-05 00:17:33 | 48.88814 | 10.60886 | 150° | 11km/h | 27014m | 5.2m/s | 0°C | 0% | 0hPa | 2.5V | 00:00:00 | 00:00:00 | 00:00:00 | |
| DM0DOS-11 | 2026-09-05 00:17:32 | 48.88826 | 10.60887 | 183° | 11km/h | 26985m | 6.5m/s | -49.8°C | 3.6% | 19.8hPa | 2.5V | 08:30:00 | 01:48:06 | 00:00:00 | |
| BIOWL1-15 | 2026-09-05 00:17:29 | 48.88824 | 10.60886 | 198° | 11km/h | 26991m | 5.2m/s | 0°C | 0% | 0hPa | 2.5V | 18:12:15 | 01:48:07 | 00:00:00 | |
| DL1XH-west | 2026-09-05 00:17:27 | 48.88829 | 10.60887 | 170° | 11km/h | 26979m | 6m/s | -49.8°C | 0.5% | 19.8hPa | 2.6V | 18:12:15 | 01:48:05 | 00:00:00 | |
| DL1XH1-15 | 2026-09-05 00:17:26 | 48.88832 | 10.60886 | 163° | 13km/h | 26973m | 5.6m/s | -49.8°C | 3.6% | 19.8hPa | 2.6V | 08:30:00 | 01:48:04 | 00:00:00 | |
| DK7TD | 2026-09-05 00:17:26 | 48.88832 | 10.60886 | 163° | 13km/h | 26973m | 5.6m/s | -49.8°C | 0.6% | 19.8hPa | 2.6V | 18:12:15 | 01:48:04 | 00:00:00 | |
| DO3MHA-11 | 2026-09-05 00:17:24 | 48.88837 | 10.60883 | 162° | 11km/h | 26961m | 5.4m/s | -49.7°C | 3.6% | 19.8hPa | 2.5V | 00:00:00 | 01:48:02 | 00:00:00 | |
| DL1ZP-14 | 2026-09-05 00:17:23 | 48.88842 | 10.60879 | 134° | 11km/h | 26951m | 6.0m/s | -49.8°C | 1.0% | 19.9hPa | 2.6V | 00:00:00 | 00:00:00 | 00:00:00 | |
| DM0DOS-11 | 2026-09-05 00:17:22 | 48.88850 | 10.60859 | 122° | 13km/h | 26927m | 6.6m/s | -49.9°C | 3.6% | 19.9hPa | 2.5V | 08:30:00 | 01:47:56 | 00:00:00 | |
| HSKMA3-T | 2026-09-05 00:17:18 | 48.88850 | 10.60859 | 123° | 13km/h | 26927m | 6.6m/s | -49.9°C | 0.6% | 19.9hPa | 2.5V | 18:12:15 | 01:47:56 | 00:00:00 | |
| PETON7-10 | 2026-09-05 00:17:18 | 48.88850 | 10.60858 | 123° | 13km/h | 26927m | 6.6m/s | 0°C | 0% | 0hPa | 2.6V | 00:00:00 | 00:00:00 | 00:00:00 | |
| DL1NUX | 2026-09-05 00:17:16 | 48.88853 | 10.60853 | 148° | 7km/h | 26915m | 5.4m/s | -49.9°C | 3.6% | 20hPa | 2.6V | 08:30:00 | 01:47:54 | 00:00:00 | |
| DL1XH-west | 2026-09-05 00:17:16 | 48.88854 | 10.60853 | 149° | 7km/h | 26915m | 5.4m/s | -49.9°C | 0.7% | 20hPa | 2.6V | 18:12:15 | 01:47:54 | 00:00:00 | |
| DF8AY | 2026-09-05 00:17:15 | 48.88855 | 10.60852 | 151° | 9km/h | 26909m | 6.6m/s | -49.9°C | 0.6% | 20hPa | 2.6V | 18:12:15 | 01:47:53 | 00:00:00 | |
| DO3MHA-11 | 2026-09-05 00:17:14 | 48.88857 | 10.60850 | 152° | 16km/h | 26903m | 5.9m/s | -49.8°C | 3.7% | 20.0hPa | 2.5V | 00:00:00 | 01:47:52 | 00:00:00 | |
| DM0DOS-11 | 2026-09-05 00:17:12 | 48.88875 | 10.60842 | 151° | 15km/h | 26870m | 6.4m/s | -49.9°C | 3.6% | 20.1hPa | 2.5V | 08:30:00 | 01:47:46 | 00:00:00 | |
| DL1XH1-15 | 2026-09-05 00:17:11 | 48.88882 | 10.60833 | 131° | 18km/h | 26858m | 5.1m/s | -49.9°C | 3.6% | 20.1hPa | 2.6V | 08:30:00 | 01:47:44 | 00:00:00 | |
| HSKMA3-T | 2026-09-05 00:17:07 | 48.88878 | 10.60838 | 138° | 18km/h | 26864m | 6.1m/s | -49.9°C | 0.6% | 20.1hPa | 2.5V | 18:12:15 | 01:47:45 | 00:00:00 | |
| DL1XH-west | 2026-09-05 00:17:06 | 48.88882 | 10.60833 | 132° | 18km/h | 26858m | 5.1m/s | -49.9°C | 0.6% | 20.1hPa | 2.6V | 18:12:15 | 01:47:44 | 00:00:00 | |
| DK7TD | 2026-09-05 00:17:05 | 48.88885 | 10.60828 | 132° | 18km/h | 26853m | 5m/s | -49.9°C | 0.6% | 20.2hPa | 2.6V | 18:12:15 | 01:47:43 | 00:00:00 | |
| DO3MHA-11 | 2026-09-05 00:17:04 | 48.88888 | 10.60824 | 138° | 15km/h | 26847m | 6.4m/s | -49.9°C | 3.7% | 20.2hPa | 2.5V | 00:00:00 | 01:47:42 | 00:00:00 | |
| EDDB2-11 | 2026-09-05 00:17:03 | 48.88890 | 10.60821 | 155° | 9km/h | 26841m | 5.5m/s | -50.0°C | 1.0% | 20.2hPa | 2.5V | 00:00:00 | 00:00:00 | 00:00:00 | |
| DM0DOS-11 | 2026-09-05 00:17:02 | 48.88906 | 10.60817 | 160° | 18km/h | 26814m | 5.3m/s | -49.9°C | 3.6% | 20.3hPa | 2.5V | 08:30:00 | 01:47:36 | 00:00:00 | |
| HSKMA3-T | 2026-09-05 00:16:57 | 48.88911 | 10.60814 | 158° | 18km/h | 26809m | 5m/s | -49.9°C | 0.6% | 20.3hPa | 2.5V | 18:12:15 | 01:47:35 | 00:00:00 | |
| DL1NUX | 2026-09-05 00:16:56 | 48.88914 | 10.60812 | 160° | 16km/h | 26804m | 6.4m/s | -49.9°C | 3.6% | 20.3hPa | 2.5V | 08:30:00 | 01:47:34 | 00:00:00 | |
| DL1XH-west | 2026-09-05 00:16:56 | 48.88915 | 10.60812 | 160° | 16km/h | 26804m | 6.4m/s | -49.9°C | 0.6% | 20.3hPa | 2.5V | 18:12:15 | 01:47:34 | 00:00:00 | |
| DK7TD | 2026-09-05 00:16:55 | 48.88918 | 10.60810 | 164° | 15km/h | 26797m | 5.9m/s | -49.9°C | 0.6% | 20.3hPa | 2.6V | 18:12:15 | 01:47:33 | 00:00:00 | |
| DF8AY | 2026-09-05 00:16:53 | 48.88925 | 10.60806 | 153° | 13km/h | 26787m | 5.8m/s | -49.9°C | 0.7% | 20.4hPa | 2.5V | 18:12:15 | 01:47:31 | 00:00:00 | |
| DM0DOS-11 | 2026-09-05 00:16:52 | 48.88940 | 10.60793 | 167° | 9km/h | 26758m | 5.1m/s | -49.9°C | 3.6% | 20.4hPa | 2.6V | 08:30:00 | 01:47:26 | 00:00:00 | |
| DL1ZP-14 | 2026-09-05 00:16:52 | 48.88931 | 10.60800 | 143° | 15km/h | 26775m | 5.1m/s | -49.9°C | 1.0% | 20.4hPa | 2.5V | 00:00:00 | 00:00:00 | 00:00:00 | |
| BIOWL9-15 | 2026-09-05 00:16:50 | 48.88937 | 10.60795 | 156° | 11km/h | 26764m | 6.5m/s | -49.9°C | 1.0% | 20.4hPa | 2.5V | 00:00:00 | 00:00:00 | 00:00:00 | |
| DB0ND-19 | 2026-09-05 00:16:47 | 48.88942 | 10.60792 | 162° | 9km/h | 26754m | 4.6m/s | -49.9°C | 1.0% | 20.5hPa | 2.5V | 00:00:00 | 00:00:00 | 00:00:00 | |
| DL1NUX | 2026-09-05 00:16:46 | 48.88944 | 10.60791 | 147° | 11km/h | 26748m | 5.4m/s | -49.9°C | 3.6% | 20.5hPa | 2.5V | 08:30:00 | 01:47:24 | 00:00:00 | |
| HSKMA3-T | 2026-09-05 00:16:46 | 48.88944 | 10.60791 | 148° | 11km/h | 26748m | 5.4m/s | -49.9°C | 0.6% | 20.5hPa | 2.5V | 18:12:15 | 01:47:24 | 00:00:00 | |
| DL1XH-west | 2026-09-05 00:16:45 | 48.88947 | 10.60787 | 134° | 15km/h | 26742m | 6.3m/s | -49.9°C | 0.6% | 20.5hPa | 2.5V | 18:12:15 | 01:47:23 | 00:00:00 | |
| DK7TD | 2026-09-05 00:16:44 | 48.88949 | 10.60782 | 125° | 18km/h | 26736m | 5.9m/s | -49.9°C | 0.5% | 20.6hPa | 2.6V | 18:12:15 | 01:47:22 | 00:00:00 | |
| DO3MHA-11 | 2026-09-05 00:16:44 | 48.88949 | 10.60782 | 126° | 15km/h | 26737m | 5.9m/s | -49.8°C | 3.5% | 20.5hPa | 2.6V | 00:00:00 | 01:47:22 | 00:00:00 | |
| SONDE2-11 | 2026-09-05 00:16:43 | 48.88954 | 10.60769 | 117° | 18km/h | 26726m | 5.1m/s | -49.9°C | 1.0% | 20.6hPa | 2.6V | 00:00:00 | 00:00:00 | 00:00:00 | |
| DM0DOS-11 | 2026-09-05 00:16:42 | 48.88960 | 10.60751 | 116° | 9km/h | 26703m | 6.4m/s | -50.1°C | 3.6% | 20.6hPa | 2.6V | 08:30:00 | 01:47:16 | 00:00:00 | |
| DF8AY | 2026-09-05 00:16:41 | 48.88956 | 10.60763 | 116° | 16km/h | 26720m | 6.6m/s | -50°C | 0.6% | 20.6hPa | 2.5V | 18:12:15 | 01:47:19 | 00:00:00 | |
| DF7PN | 2026-09-05 00:16:40 | 48.88959 | 10.60755 | 113° | 9km/h | 26709m | 5.5m/s | -50.0°C | 1.0% | 20.6hPa | 2.5V | 00:00:00 | 00:00:00 | 00:00:00 | |
| DO3MHA-12 | 2026-09-05 00:16:38 | 48.88960 | 10.60751 | 117° | 11km/h | 26703m | 6.4m/s | -50.0°C | 3.6% | 20.6hPa | 2.5V | 00:00:00 | 01:47:16 | 00:00:00 | |
| DF1GD-15 | 2026-09-05 00:16:37 | 48.88960 | 10.60751 | 118° | 9km/h | 26703m | 6.4m/s | -50.1°C | 1.1% | 20.7hPa | 2.5V | 00:00:00 | 00:00:00 | 00:00:00 | |
| DL1NUX | 2026-09-05 00:16:36 | 48.88963 | 10.60744 | 129° | 11km/h | 26691m | 4.8m/s | -50.1°C | 3.6% | 20.7hPa | 2.5V | 08:30:00 | 01:47:14 | 00:00:00 | |
| HSKMA3-T | 2026-09-05 00:16:36 | 48.88963 | 10.60744 | 130° | 11km/h | 26691m | 4.8m/s | -50.1°C | 0.6% | 20.7hPa | 2.5V | 18:12:15 | 01:47:14 | 00:00:00 | |
| DF8AY | 2026-09-05 00:16:34 | 48.88973 | 10.60725 | 94° | 20km/h | 26652m | 5.2m/s | -50.4°C | 0.7% | 20.8hPa | 2.5V | 18:12:15 | 01:47:07 | 00:00:00 | |
| DL1XH-west | 2026-09-05 00:16:34 | 48.88967 | 10.60740 | 159° | 7km/h | 26680m | 6.6m/s | -50.3°C | 0.7% | 20.7hPa | 2.5V | 18:12:15 | 01:47:12 | 00:00:00 | |
| DO3MHA-11 | 2026-09-05 00:16:34 | 48.88967 | 10.60740 | 159° | 13km/h | 26681m | 6.6m/s | -50.2°C | 3.7% | 20.6hPa | 2.5V | 00:00:00 | 01:47:12 | 00:00:00 | |
| DM0DOS-11 | 2026-09-05 00:16:32 | 48.88973 | 10.60717 | 91° | 22km/h | 26647m | 4.8m/s | -50.4°C | 3.7% | 20.8hPa | 2.5V | 08:30:00 | 01:47:06 | 00:00:00 | |
| OE5DRO-10 | 2026-09-05 00:16:31 | 48.88971 | 10.60736 | 115° | 13km/h | 26665m | 5.6m/s | -50.3°C | 3.7% | 20.7hPa | 2.6V | 00:00:00 | 00:00:00 | 00:00:00 | |
| AZAK | 2026-09-05 00:16:30 | 48.88971 | 10.60736 | 116° | 9km/h | 26665m | 5.7m/s | -50.3°C | 1.0% | 20.7hPa | 2.6V | 00:00:00 | 00:00:00 | 00:00:00 | |
| DO3MHA-12 | 2026-09-05 00:16:28 | 48.88973 | 10.60717 | 92° | 13km/h | 26647m | 4.8m/s | -50.3°C | 3.7% | 20.8hPa | 2.6V | 00:00:00 | 01:47:06 | 00:00:00 | |
| DL1NUX | 2026-09-05 00:16:26 | 48.88973 | 10.60702 | 87° | 15km/h | 26636m | 5.9m/s | -50.4°C | 3.7% | 20.9hPa | 2.6V | 08:30:00 | 01:47:04 | 00:00:00 | |
| HSKMA3-T | 2026-09-05 00:16:25 | 48.88973 | 10.60697 | 91° | 11km/h | 26630m | 5.3m/s | -50.4°C | 0.7% | 20.9hPa | 2.5V | 18:12:15 | 01:47:03 | 00:00:00 | |
| DL1XH-west | 2026-09-05 00:16:24 | 48.88973 | 10.60693 | 105° | 9km/h | 26625m | 4.9m/s | -50.4°C | 0.6% | 20.9hPa | 2.5V | 18:12:15 | 01:47:02 | 00:00:00 | |
| DK7TD | 2026-09-05 00:16:23 | 48.88974 | 10.60690 | 119° | 9km/h | 26619m | 6.6m/s | -50.4°C | 0.7% | 20.9hPa | 2.5V | 18:12:15 | 01:47:01 | 00:00:00 | |
| DF8AY | 2026-09-05 00:16:19 | 48.88983 | 10.60682 | 184° | 11km/h | 26596m | 6.3m/s | -50.4°C | 0.7% | 21hPa | 2.5V | 18:12:15 | 01:46:57 | 00:00:00 | |
| DC4HF-4 | 2026-09-05 00:16:19 | 48.88985 | 10.60682 | 190° | 7km/h | 26591m | 4.8m/s | -50.4°C | 1.0% | 21.0hPa | 2.5V | 00:00:00 | 00:00:00 | 00:00:00 | |
| DO3MHA-12 | 2026-09-05 00:16:18 | 48.88985 | 10.60682 | 191° | 11km/h | 26591m | 4.8m/s | -50.4°C | 3.7% | 21.0hPa | 2.5V | 00:00:00 | 01:46:56 | 08:30:00 | |
| DL1NUX | 2026-09-05 00:16:16 | 48.88989 | 10.60681 | 132° | 7km/h | 26580m | 6.2m/s | -50.5°C | 3.7% | 21hPa | 2.6V | 08:30:00 | 01:46:54 | 00:00:00 | |
| DL1XH-west | 2026-09-05 00:16:14 | 48.88990 | 10.60673 | 90° | 15km/h | 26569m | 5.4m/s | -50.5°C | 0.7% | 21.1hPa | 2.5V | 18:12:15 | 01:46:52 | 00:00:00 | |
| DK7TD | 2026-09-05 00:16:13 | 48.88990 | 10.60667 | 77° | 15km/h | 26563m | 5.8m/s | -50.5°C | 0.7% | 21.1hPa | 2.5V | 18:12:15 | 01:46:51 | 00:00:00 | |
| DF8AY | 2026-09-05 00:16:07 | 48.88983 | 10.60644 | 95° | 5km/h | 26530m | 4.5m/s | -50.6°C | 0.7% | 21.2hPa | 2.5V | 18:12:15 | 01:46:45 | 00:00:00 | |
| DL1XH1-15 | 2026-09-05 00:16:06 | 48.88983 | 10.60643 | 133° | 2km/h | 26525m | 5.4m/s | -50.6°C | 3.8% | 21.2hPa | 2.6V | 08:30:00 | 01:46:44 | 00:00:00 | |
| HSKMA3-T | 2026-09-05 00:16:04 | 48.88984 | 10.60644 | 254° | 4km/h | 26513m | 5.3m/s | -50.6°C | 0.7% | 21.3hPa | 2.5V | 18:12:15 | 01:46:42 | 00:00:00 | |
| DL1XH-west | 2026-09-05 00:16:03 | 48.88984 | 10.60646 | 264° | 4km/h | 26508m | 4.8m/s | -50.5°C | 0.7% | 21.3hPa | 2.5V | 18:12:15 | 01:46:41 | 00:00:00 | |
| DK7TD | 2026-09-05 00:16:02 | 48.88984 | 10.60646 | 89° | 2km/h | 26503m | 6m/s | -50.5°C | 0.7% | 21.3hPa | 2.5V | 18:12:15 | 01:46:40 | 00:00:00 | |
| DF8AY | 2026-09-05 00:15:56 | 48.88976 | 10.60623 | 30° | 13km/h | 26470m | 5.5m/s | -50.3°C | 0.7% | 21.4hPa | 2.5V | 18:12:15 | 01:46:34 | 00:00:00 | |
| DL1NUX | 2026-09-05 00:15:56 | 48.88976 | 10.60623 | 29° | 13km/h | 26470m | 5.5m/s | -50.3°C | 3.8% | 21.4hPa | 2.5V | 08:30:00 | 01:46:34 | 00:00:00 | |
| HSKMA3-T | 2026-09-05 00:15:54 | 48.88971 | 10.60619 | 24° | 13km/h | 26459m | 6.3m/s | -50.2°C | 0.6% | 21.4hPa | 2.6V | 18:12:15 | 01:46:32 | 00:00:00 | |
| DL1XH-west | 2026-09-05 00:15:53 | 48.88968 | 10.60617 | 21° | 11km/h | 26453m | 4.9m/s | -50.1°C | 0.6% | 21.5hPa | 2.5V | 18:12:15 | 01:46:31 | 00:00:00 | |
| DK7TD | 2026-09-05 00:15:52 | 48.88965 | 10.60616 | 9° | 9km/h | 26448m | 4.6m/s | -50.1°C | 0.7% | 21.5hPa | 2.5V | 18:12:15 | 01:46:30 | 00:00:00 | |
| DL1ZP-14 | 2026-09-05 00:15:50 | 48.88960 | 10.60620 | 302° | 5km/h | 26432m | 4.7m/s | -50.0°C | 1.0% | 21.5hPa | 2.6V | 00:00:00 | 00:00:00 | 00:00:00 | |
| DM0DOS-11 | 2026-09-05 00:15:49 | 48.88959 | 10.60622 | 286° | 4km/h | 26426m | 5.2m/s | -49.9°C | 3.6% | 21.5hPa | 2.6V | 08:30:00 | 01:46:26 | 00:00:00 | |
| DF8AY | 2026-09-05 00:15:46 | 48.88960 | 10.60618 | 101° | 7km/h | 26410m | 4.7m/s | -49.9°C | 0.6% | 21.6hPa | 2.5V | 18:12:15 | 01:46:23 | 00:00:00 | |
| HSKMA3-T | 2026-09-05 00:15:44 | 48.88960 | 10.60616 | 82° | 5km/h | 26405m | 6.1m/s | -49.8°C | 0.5% | 21.6hPa | 2.6V | 18:12:15 | 01:46:22 | 00:00:00 | |
| DO3MHA-11 | 2026-09-05 00:15:44 | 48.88960 | 10.60616 | 83° | 9km/h | 26405m | 6.1m/s | -49.8°C | 3.5% | 21.5hPa | 2.6V | 00:00:00 | 01:46:22 | 00:00:00 | |
| DM0DOS-11 | 2026-09-05 00:15:43 | 48.88949 | 10.60612 | 347° | 11km/h | 26371m | 4.4m/s | -50°C | 3.6% | 21.7hPa | 2.6V | 08:30:00 | 01:46:16 | 00:00:00 | |
| DL1XH-west | 2026-09-05 00:15:42 | 48.88958 | 10.60613 | 12° | 7km/h | 26393m | 5.4m/s | -49.9°C | 0.6% | 21.6hPa | 2.5V | 18:12:15 | 01:46:20 | 00:00:00 | |
| DK7TD | 2026-09-05 00:15:41 | 48.88956 | 10.60613 | 5° | 9km/h | 26387m | 5.8m/s | -49.9°C | 0.5% | 21.7hPa | 2.5V | 18:12:15 | 01:46:19 | 00:00:00 | |
| SONDE2-11 | 2026-09-05 00:15:41 | 48.88954 | 10.60612 | 7° | 9km/h | 26382m | 6.2m/s | -49.9°C | 1.0% | 21.7hPa | 2.5V | 00:00:00 | 00:00:00 | 00:00:00 | |
| DL1XH1-15 | 2026-09-05 00:15:40 | 48.88940 | 10.60620 | 320° | 13km/h | 26354m | 4.6m/s | -50.1°C | 3.7% | 21.8hPa | 2.5V | 08:30:00 | 01:46:13 | 00:00:00 | |
| DF8AY | 2026-09-05 00:15:34 | 48.88938 | 10.60623 | 326° | 9km/h | 26349m | 6.1m/s | -50.2°C | 0.7% | 21.8hPa | 2.5V | 18:12:15 | 01:46:12 | 00:00:00 | |
| HSKMA3-T | 2026-09-05 00:15:33 | 48.88936 | 10.60624 | 338° | 7km/h | 26344m | 4.9m/s | -50.2°C | 0.6% | 21.8hPa | 2.6V | 18:12:15 | 01:46:11 | 00:00:00 | |
| DL1XH-west | 2026-09-05 00:15:31 | 48.88934 | 10.60626 | 328° | 5km/h | 26334m | 5.9m/s | -50.2°C | 0.6% | 21.9hPa | 2.5V | 18:12:15 | 01:46:09 | 00:00:00 | |
| DK7TD | 2026-09-05 00:15:30 | 48.88933 | 10.60627 | 308° | 5km/h | 26328m | 5.8m/s | -50.2°C | 0.7% | 21.9hPa | 2.5V | 18:12:15 | 01:46:08 | 00:00:00 | |
| DK5PH-5 | 2026-09-05 00:15:29 | 48.88932 | 10.60629 | 307° | 7km/h | 26323m | 4.8m/s | -50.1°C | 3.7% | 21.9hPa | 2.5V | 00:00:00 | 01:46:07 | 08:30:00 | |
| DO3MHA-12 | 2026-09-05 00:15:28 | 48.88931 | 10.60630 | 318° | 9km/h | 26318m | 4.3m/s | -50.2°C | 3.7% | 21.8hPa | 2.5V | 00:00:00 | 01:46:06 | 00:00:00 | |
| SO1NDE-10 | 2026-09-05 00:15:27 | 48.88930 | 10.60631 | 347° | 7km/h | 26313m | 6.0m/s | -50.2°C | 3.7% | 21.9hPa | 2.5V | 00:00:00 | 01:46:05 | 00:00:00 | |
| DL1XH1-15 | 2026-09-05 00:15:26 | 48.88927 | 10.60630 | 24° | 7km/h | 26301m | 4.7m/s | -50.2°C | 3.7% | 22hPa | 2.5V | 08:30:00 | 01:46:03 | 00:00:00 | |
| HSKMA3-T | 2026-09-05 00:15:23 | 48.88924 | 10.60630 | 337° | 7km/h | 26291m | 6.4m/s | -50.2°C | 0.6% | 22hPa | 2.5V | 18:12:15 | 01:46:01 | 00:00:00 | |
| DL1XH-west | 2026-09-05 00:15:21 | 48.88920 | 10.60635 | 318° | 13km/h | 26280m | 4.9m/s | -50.2°C | 0.6% | 22hPa | 2.6V | 18:12:15 | 01:45:59 | 00:00:00 | |
| DK7TD | 2026-09-05 00:15:20 | 48.88917 | 10.60638 | 326° | 13km/h | 26275m | 5.5m/s | -50.2°C | 0.7% | 22.1hPa | 2.5V | 18:12:15 | 01:45:58 | 00:00:00 | |
| DO3MHA-12 | 2026-09-05 00:15:18 | 48.88912 | 10.60640 | 8° | 5km/h | 26264m | 5.1m/s | -50.2°C | 3.7% | 22.0hPa | 2.5V | 00:00:00 | 01:45:56 | 00:00:00 | |
| DO9HM | 2026-09-05 00:15:17 | 48.88912 | 10.60640 | 9° | 9km/h | 26264m | 5.1m/s | -50.3°C | 1.1% | 22.1hPa | 2.6V | 00:00:00 | 00:00:00 | 00:00:00 | |
| DL1NUX | 2026-09-05 00:15:16 | 48.88908 | 10.60637 | 56° | 5km/h | 26255m | 5m/s | -50.3°C | 3.7% | 22.1hPa | 2.6V | 08:30:00 | 01:45:54 | 00:00:00 | |
| DB0ND-19 | 2026-09-05 00:15:15 | 48.88908 | 10.60634 | 122° | 4km/h | 26244m | 5.3m/s | -50.3°C | 1.0% | 22.2hPa | 2.5V | 00:00:00 | 00:00:00 | 00:00:00 | |
| DO3MHA-11 | 2026-09-05 00:15:14 | 48.88908 | 10.60634 | 123° | 5km/h | 26244m | 5.3m/s | -50.2°C | 3.7% | 22.1hPa | 2.5V | 00:00:00 | 01:45:52 | 00:00:00 | |
| DM0DOS-11 | 2026-09-05 00:15:13 | 48.88911 | 10.60627 | 274° | 4km/h | 26212m | 6m/s | -50.2°C | 3.7% | 22.3hPa | 2.5V | 08:30:00 | 01:45:46 | 00:00:00 | |
| HSKMA3-T | 2026-09-05 00:15:13 | 48.88909 | 10.60633 | 125° | 5km/h | 26238m | 5.1m/s | -50.3°C | 0.7% | 22.2hPa | 2.5V | 18:12:15 | 01:45:51 | 00:00:00 | |
| DF8AY | 2026-09-05 00:15:12 | 48.88910 | 10.60631 | 111° | 5km/h | 26233m | 5.8m/s | -50.3°C | 0.7% | 22.2hPa | 2.5V | 18:12:15 | 01:45:50 | 00:00:00 | |
| DL1NUX | 2026-09-05 00:15:11 | 48.88910 | 10.60632 | 309° | 7km/h | 26202m | 5m/s | -50.2°C | 3.7% | 22.3hPa | 2.6V | 08:30:00 | 01:45:44 | 00:00:00 | |
| DL1XH-west | 2026-09-05 00:15:10 | 48.88910 | 10.60627 | 100° | 4km/h | 26223m | 4.4m/s | -50.3°C | 0.7% | 22.2hPa | 2.6V | 18:12:15 | 01:45:48 | 00:00:00 | |
| SONDE2-11 | 2026-09-05 00:15:10 | 48.88910 | 10.60627 | 218° | 0km/h | 26218m | 6.0m/s | -50.3°C | 1.0% | 22.2hPa | 2.6V | 00:00:00 | 00:00:00 | 00:00:00 | |
| DO3MHA-12 | 2026-09-05 00:15:08 | 48.88910 | 10.60627 | 275° | 7km/h | 26212m | 6.0m/s | -50.2°C | 3.7% | 22.2hPa | 2.6V | 00:00:00 | 01:45:46 | 00:00:00 | |
| AZAK | 2026-09-05 00:15:07 | 48.88911 | 10.60627 | 276° | 5km/h | 26212m | 6.0m/s | -50.3°C | 1.1% | 22.3hPa | 2.6V | 00:00:00 | 00:00:00 | 00:00:00 | |
| DL1XH1-15 | 2026-09-05 00:15:06 | 48.88908 | 10.60633 | 344° | 7km/h | 26196m | 5.9m/s | -50.2°C | 3.7% | 22.3hPa | 2.6V | 08:30:00 | 01:45:43 | 00:00:00 | |
| HSKMA3-T | 2026-09-05 00:15:02 | 48.88904 | 10.60629 | 69° | 5km/h | 26181m | 5.5m/s | -50.1°C | 0.6% | 22.4hPa | 2.5V | 18:12:15 | 01:45:40 | 00:00:00 | |
| DM0DOS-11 | 2026-09-05 00:15:01 | 48.88909 | 10.60620 | 132° | 13km/h | 26159m | 6m/s | -50.1°C | 3.6% | 22.4hPa | 2.5V | 08:30:00 | 01:45:36 | 00:00:00 | |
| DL1XH1-15 | 2026-09-05 00:15:00 | 48.88915 | 10.60611 | 153° | 7km/h | 26144m | 6.1m/s | -50.1°C | 3.6% | 22.5hPa | 2.6V | 08:30:00 | 01:45:33 | 00:00:00 | |
| DK5PH-5 | 2026-09-05 00:14:59 | 48.88907 | 10.60623 | 139° | 15km/h | 26165m | 5.6m/s | -50.1°C | 3.7% | 22.4hPa | 2.6V | 00:00:00 | 01:45:37 | 00:00:00 | |
| DL1XH-west | 2026-09-05 00:14:59 | 48.88907 | 10.60623 | 139° | 11km/h | 26164m | 5.6m/s | -50.1°C | 0.6% | 22.4hPa | 2.6V | 18:12:15 | 01:45:37 | 00:00:00 | |
| DO3MHA-12 | 2026-09-05 00:14:58 | 48.88909 | 10.60619 | 133° | 7km/h | 26159m | 5.9m/s | -50.1°C | 3.6% | 22.4hPa | 2.6V | 00:00:00 | 01:45:36 | 00:00:00 | |
| DO9HM | 2026-09-05 00:14:57 | 48.88911 | 10.60616 | 131° | 13km/h | 26154m | 4.8m/s | -50.1°C | 1.1% | 22.5hPa | 2.6V | 00:00:00 | 00:00:00 | 00:00:00 | |
| DJ8HS-15 | 2026-09-05 00:14:56 | 48.88913 | 10.60613 | 137° | 7km/h | 26149m | 4.2m/s | -50.1°C | 3.7% | 22.5hPa | 2.6V | 00:00:00 | 01:45:34 | 00:00:00 | |
| DO3MHA-11 | 2026-09-05 00:14:54 | 48.88917 | 10.60610 | 176° | 5km/h | 26138m | 5.3m/s | -50.1°C | 3.6% | 22.5hPa | 2.6V | 00:00:00 | 01:45:32 | 08:30:00 | |
| DM0DOS-11 | 2026-09-05 00:14:53 | 48.88915 | 10.60603 | 47° | 5km/h | 26107m | 6.1m/s | -50.1°C | 3.7% | 22.6hPa | 2.6V | 08:30:00 | 01:45:26 | 00:00:00 | |
| HARRO8 | 2026-09-05 00:14:53 | 48.88918 | 10.60610 | 112° | 0km/h | 26128m | 6.1m/s | -50.1°C | 1.0% | 22.5hPa | 2.5V | 00:00:00 | 00:00:00 | 00:00:00 | |
| DM7RM-13 | 2026-09-05 00:14:52 | 48.88918 | 10.60610 | 178° | 4km/h | 26133m | 4.4m/s | -50.1°C | 1.1% | 22.5hPa | 2.5V | 00:00:00 | 00:00:00 | 00:00:00 | |
| DL1NUX | 2026-09-05 00:14:51 | 48.88914 | 10.60601 | 90° | 4km/h | 26096m | 4.7m/s | -50.1°C | 3.7% | 22.7hPa | 2.5V | 08:30:00 | 01:45:24 | 00:00:00 | |
| HSKMA3-T | 2026-09-05 00:14:51 | 48.88918 | 10.60608 | 63° | 5km/h | 26122m | 5.3m/s | -50.1°C | 0.7% | 22.6hPa | 2.5V | 18:12:15 | 01:45:29 | 00:00:00 | |
| DL1XH-west | 2026-09-05 00:14:48 | 48.88915 | 10.60603 | 47° | 5km/h | 26107m | 6.1m/s | -50.1°C | 0.7% | 22.6hPa | 2.6V | 18:12:15 | 01:45:26 | 00:00:00 | |
| AZAK | 2026-09-05 00:14:48 | 48.88915 | 10.60603 | 48° | 5km/h | 26107m | 6.1m/s | -50.1°C | 1.1% | 22.6hPa | 2.6V | 00:00:00 | 00:00:00 | 00:00:00 | |
| OE5WHR-10 | 2026-09-05 00:14:47 | 48.88915 | 10.60601 | 53° | 11km/h | 26102m | 4.9m/s | -50.0°C | 3.6% | 22.6hPa | 2.6V | 00:00:00 | 00:00:00 | 00:00:00 | |
| OE5DXL-15 | 2026-09-05 00:14:46 | 48.88914 | 10.60601 | 91° | 13km/h | 26097m | 4.6m/s | -50.0°C | 3.7% | 22.6hPa | 2.6V | 00:00:00 | 00:00:00 | 00:00:00 | |
| S52SK | 2026-09-05 00:14:45 | 48.88914 | 10.60601 | 91° | 4km/h | 26097m | 4.7m/s | -50.1°C | 0% | 22.7hPa | 2.6V | 00:00:00 | 00:00:00 | 00:00:00 | |
| DO3MHA-11 | 2026-09-05 00:14:44 | 48.88915 | 10.60596 | 97° | 9km/h | 26086m | 5.8m/s | -50.0°C | 3.6% | 22.6hPa | 2.6V | 00:00:00 | 01:45:22 | 00:00:00 | |
| DM0DOS-11 | 2026-09-05 00:14:43 | 48.88919 | 10.60577 | 102° | 7km/h | 26054m | 6m/s | -50.1°C | 3.7% | 22.8hPa | 2.6V | 08:30:00 | 01:45:16 | 00:00:00 | |
| DF8AY | 2026-09-05 00:14:41 | 48.88917 | 10.60584 | 119° | 9km/h | 26069m | 5.8m/s | -50.1°C | 0.7% | 22.8hPa | 2.5V | 18:12:15 | 01:45:19 | 00:00:00 | |
| HSKMA3-T | 2026-09-05 00:14:40 | 48.88918 | 10.60582 | 121° | 7km/h | 26064m | 4.6m/s | -50.1°C | 0.6% | 22.8hPa | 2.5V | 18:12:15 | 01:45:18 | 00:00:00 | |
| DL1XH-west | 2026-09-05 00:14:38 | 48.88919 | 10.60577 | 103° | 7km/h | 26054m | 6m/s | -50.2°C | 0.6% | 22.8hPa | 2.6V | 18:12:15 | 01:45:16 | 00:00:00 | |
| DO3MHA-12 | 2026-09-05 00:14:38 | 48.88919 | 10.60577 | 103° | 9km/h | 26054m | 5.9m/s | -50.1°C | 3.7% | 22.8hPa | 2.5V | 00:00:00 | 01:45:16 | 00:00:00 | |
| OE5DRO-10 | 2026-09-05 00:14:37 | 48.88919 | 10.60573 | 97° | 15km/h | 26049m | 5.1m/s | -50.1°C | 3.7% | 22.7hPa | 2.5V | 00:00:00 | 00:00:00 | 00:00:00 | |
| DJ8HS-15 | 2026-09-05 00:14:36 | 48.88920 | 10.60570 | 103° | 15km/h | 26044m | 4.0m/s | -50.1°C | 3.7% | 22.8hPa | 2.5V | 00:00:00 | 01:45:14 | 00:00:00 | |
| DF7PN | 2026-09-05 00:14:35 | 48.88921 | 10.60566 | 115° | 9km/h | 26040m | 4.4m/s | -50.2°C | 1.0% | 22.9hPa | 2.6V | 00:00:00 | 00:00:00 | 00:00:00 | |
| DO3MHA-11 | 2026-09-05 00:14:34 | 48.88922 | 10.60563 | 135° | 11km/h | 26035m | 5.9m/s | -50.2°C | 3.7% | 22.8hPa | 2.6V | 00:00:00 | 01:45:12 | 00:00:00 | |
| DM0DOS-11 | 2026-09-05 00:14:33 | 48.88928 | 10.60549 | 101° | 11km/h | 26002m | 6.1m/s | -50.3°C | 3.7% | 23hPa | 2.6V | 08:30:00 | 01:45:06 | 00:00:00 | |
| DF8AY | 2026-09-05 00:14:31 | 48.88926 | 10.60559 | 132° | 5km/h | 26020m | 5.9m/s | -50.3°C | 0.7% | 22.9hPa | 2.5V | 18:12:15 | 01:45:09 | 00:00:00 | |
| HSKMA3-T | 2026-09-05 00:14:30 | 48.88927 | 10.60553 | 95° | 11km/h | 26008m | 5.2m/s | -50.3°C | 0.7% | 23hPa | 2.5V | 18:12:15 | 01:45:07 | 00:00:00 | |
| DL1XH-west | 2026-09-05 00:14:28 | 48.88928 | 10.60549 | 102° | 11km/h | 26003m | 6.1m/s | -50.3°C | 0.6% | 23hPa | 2.6V | 18:12:15 | 01:45:06 | 00:00:00 | |
| DO3MHA-12 | 2026-09-05 00:14:28 | 48.88928 | 10.60549 | 102° | 18km/h | 26003m | 6.1m/s | -50.3°C | 3.7% | 22.9hPa | 2.5V | 00:00:00 | 01:45:06 | 00:00:00 | |
| DL1NUX | 2026-09-05 00:14:26 | 48.88930 | 10.60539 | 111° | 16km/h | 25992m | 4.4m/s | -50.4°C | 3.7% | 23hPa | 2.5V | 08:30:00 | 01:45:04 | 00:00:00 | |
| DO3MHA-11 | 2026-09-05 00:14:24 | 48.88933 | 10.60525 | 103° | 16km/h | 25982m | 6.2m/s | -50.3°C | 3.8% | 23.0hPa | 2.5V | 00:00:00 | 01:45:02 | 00:00:00 | |
| HARRO8 | 2026-09-05 00:14:22 | 48.88936 | 10.60500 | 107° | 20km/h | 25967m | 5.7m/s | -50.4°C | 1.1% | 23.1hPa | 2.5V | 00:00:00 | 00:00:00 | 00:00:00 | |
| DM0DOS-11 | 2026-09-05 00:14:21 | 48.88943 | 10.60483 | 126° | 15km/h | 25952m | 4.5m/s | -50.4°C | 3.8% | 23.2hPa | 2.5V | 08:30:00 | 01:44:56 | 00:00:00 | |
| DF8AY | 2026-09-05 00:14:20 | 48.88938 | 10.60493 | 120° | 18km/h | 25961m | 5.6m/s | -50.4°C | 0.7% | 23.2hPa | 2.5V | 18:12:15 | 01:44:58 | 00:00:00 | |
| HSKMA3-T | 2026-09-05 00:14:19 | 48.88941 | 10.60487 | 128° | 16km/h | 25956m | 4m/s | -50.4°C | 0.7% | 23.1hPa | 2.5V | 18:12:15 | 01:44:57 | 00:00:00 | |
| DL1XH-west | 2026-09-05 00:14:18 | 48.88943 | 10.60483 | 126° | 15km/h | 25952m | 4.5m/s | -50.4°C | 0.7% | 23.2hPa | 2.5V | 18:12:15 | 01:44:56 | 00:00:00 | |
| DO3MHA-12 | 2026-09-05 00:14:18 | 48.88943 | 10.60483 | 127° | 13km/h | 25952m | 4.4m/s | -50.3°C | 3.8% | 23.1hPa | 2.5V | 00:00:00 | 01:44:56 | 00:00:00 | |
| DB0NH | 2026-09-05 00:14:17 | 48.88945 | 10.60478 | 113° | 15km/h | 25947m | 5.9m/s | -50.3°C | 3.7% | 23.1hPa | 2.5V | 00:00:00 | 01:44:55 | 00:00:00 | |
| DL1XH1-15 | 2026-09-05 00:14:16 | 48.88945 | 10.60469 | 72° | 13km/h | 25935m | 5.6m/s | -50.3°C | 3.7% | 23.2hPa | 2.5V | 08:30:00 | 01:44:53 | 00:00:00 | |
| DL1NUX | 2026-09-05 00:14:16 | 48.88945 | 10.60474 | 91° | 11km/h | 25940m | 5.8m/s | -50.3°C | 3.8% | 23.2hPa | 2.6V | 08:30:00 | 01:44:54 | 00:00:00 | |
| DJ8HS-15 | 2026-09-05 00:14:16 | 48.88945 | 10.60474 | 92° | 15km/h | 25941m | 5.7m/s | -50.3°C | 3.8% | 23.1hPa | 2.5V | 00:00:00 | 01:44:54 | 00:00:00 | |
| DO3MHA-11 | 2026-09-05 00:14:14 | 48.88943 | 10.60464 | 65° | 13km/h | 25930m | 4.8m/s | -50.2°C | 3.7% | 23.2hPa | 2.5V | 00:00:00 | 01:44:52 | 00:00:00 | |
| DM0DOS-11 | 2026-09-05 00:14:13 | 48.88942 | 10.60438 | 95° | 16km/h | 25899m | 5.7m/s | -50.1°C | 3.7% | 23.4hPa | 2.5V | 08:30:00 | 01:44:46 | 00:00:00 | |
| DB0ND-19 | 2026-09-05 00:14:12 | 48.88941 | 10.60456 | 71° | 9km/h | 25919m | 6.1m/s | -50.2°C | 1.1% | 23.3hPa | 2.6V | 00:00:00 | 00:00:00 | 00:00:00 | |
| DM7RM-13 | 2026-09-05 00:14:11 | 48.88941 | 10.60456 | 72° | 11km/h | 25920m | 6.1m/s | -50.2°C | 1.1% | 23.3hPa | 2.6V | 00:00:00 | 00:00:00 | 00:00:00 | |
| DL1XH1-15 | 2026-09-05 00:14:10 | 48.88942 | 10.60419 | 89° | 15km/h | 25883m | 5.7m/s | -50.1°C | 3.7% | 23.4hPa | 2.6V | 08:30:00 | 01:44:43 | 00:00:00 | |
| DF8AY | 2026-09-05 00:14:09 | 48.88942 | 10.60444 | 102° | 13km/h | 25904m | 5.7m/s | -50.2°C | 0.7% | 23.3hPa | 2.5V | 18:12:15 | 01:44:47 | 00:00:00 | |
| HSKMA3-T | 2026-09-05 00:14:08 | 48.88942 | 10.60438 | 96° | 16km/h | 25899m | 5.7m/s | -50.2°C | 0.7% | 23.4hPa | 2.5V | 18:12:15 | 01:44:46 | 00:00:00 | |
| DL1XH-west | 2026-09-05 00:14:07 | 48.88942 | 10.60432 | 92° | 18km/h | 25893m | 5.1m/s | -50.1°C | 0.6% | 23.4hPa | 2.5V | 18:12:15 | 01:44:45 | 00:00:00 | |
| DL1NUX | 2026-09-05 00:14:06 | 48.88942 | 10.60425 | 89° | 18km/h | 25888m | 5m/s | -50.1°C | 3.6% | 23.4hPa | 2.6V | 08:30:00 | 01:44:44 | 00:00:00 | |
| OE5MMP-10 | 2026-09-05 00:14:06 | 48.88942 | 10.60425 | 90° | 13km/h | 25888m | 4.9m/s | 0°C | 0% | 0hPa | 2.5V | 00:00:00 | 01:44:44 | 00:00:00 | |
| AZAK | 2026-09-05 00:14:05 | 48.88942 | 10.60425 | 91° | 18km/h | 25888m | 5.0m/s | -50.1°C | 1.0% | 23.4hPa | 2.5V | 00:00:00 | 00:00:00 | 00:00:00 | |
| DO3MHA-11 | 2026-09-05 00:14:04 | 48.88942 | 10.60414 | 80° | 15km/h | 25878m | 5.0m/s | -50.0°C | 3.6% | 23.4hPa | 2.5V | 00:00:00 | 01:44:42 | 00:00:00 | |
| DK5PH-5 | 2026-09-05 00:14:03 | 48.88941 | 10.60411 | 57° | 13km/h | 25873m | 4.3m/s | -50.0°C | 3.6% | 23.4hPa | 2.5V | 00:00:00 | 01:44:41 | 00:00:00 | |
| DM0DOS-11 | 2026-09-05 00:14:02 | 48.88930 | 10.60388 | 70° | 16km/h | 25848m | 5.5m/s | -50.1°C | 3.6% | 23.5hPa | 2.5V | 08:30:00 | 01:44:36 | 00:00:00 | |
| DL1XH1-15 | 2026-09-05 00:14:00 | 48.88930 | 10.60371 | 108° | 16km/h | 25832m | 5m/s | -50.1°C | 3.6% | 23.6hPa | 2.6V | 08:30:00 | 01:44:33 | 00:00:00 | |
| DF8AY | 2026-09-05 00:13:58 | 48.88930 | 10.60388 | 70° | 16km/h | 25848m | 5.5m/s | -50.1°C | 0.6% | 23.5hPa | 2.5V | 18:12:15 | 01:44:36 | 00:00:00 | |
| DL1XH-west | 2026-09-05 00:13:57 | 48.88929 | 10.60382 | 86° | 15km/h | 25843m | 6m/s | -50.1°C | 0.6% | 23.6hPa | 2.5V | 18:12:15 | 01:44:35 | 00:00:00 | |
| EDDB2-11 | 2026-09-05 00:13:57 | 48.88929 | 10.60376 | 102° | 15km/h | 25837m | 5.3m/s | -50.1°C | 1.0% | 23.6hPa | 2.5V | 00:00:00 | 00:00:00 | 00:00:00 | |
| DL1NUX | 2026-09-05 00:13:56 | 48.88929 | 10.60376 | 102° | 15km/h | 25837m | 5.3m/s | -50.1°C | 3.6% | 23.6hPa | 2.5V | 08:30:00 | 01:44:34 | 00:00:00 | |
| DJ8HS-15 | 2026-09-05 00:13:56 | 48.88929 | 10.60376 | 103° | 13km/h | 25837m | 5.3m/s | -50.0°C | 3.6% | 23.6hPa | 2.6V | 00:00:00 | 01:44:34 | 00:00:00 | |
| DO9HM | 2026-09-05 00:13:55 | 48.88929 | 10.60376 | 103° | 15km/h | 25837m | 5.3m/s | -50.1°C | 1.1% | 23.6hPa | 2.6V | 00:00:00 | 00:00:00 | 00:00:00 | |
| DO3MHA-11 | 2026-09-05 00:13:54 | 48.88932 | 10.60364 | 106° | 15km/h | 25827m | 5.0m/s | -50.0°C | 3.6% | 23.6hPa | 2.6V | 00:00:00 | 01:44:32 | 00:00:00 | |
| DM0DOS-11 | 2026-09-05 00:13:52 | 48.88931 | 10.60329 | 59° | 7km/h | 25795m | 5.1m/s | -50.2°C | 3.7% | 23.7hPa | 2.6V | 08:30:00 | 01:44:26 | 00:00:00 | |
| DF8AY | 2026-09-05 00:13:49 | 48.88931 | 10.60329 | 59° | 7km/h | 25795m | 5.1m/s | -50.2°C | 0.7% | 23.7hPa | 2.6V | 18:12:15 | 01:44:26 | 00:00:00 | |
| HSKMA3-T | 2026-09-05 00:13:47 | 48.88930 | 10.60327 | 43° | 7km/h | 25790m | 5.2m/s | -50.3°C | 0.6% | 23.8hPa | 2.5V | 18:12:15 | 01:44:25 | 00:00:00 | |
| DL1NUX | 2026-09-05 00:13:46 | 48.88928 | 10.60325 | 40° | 9km/h | 25784m | 5.9m/s | -50.3°C | 3.7% | 23.8hPa | 2.5V | 08:30:00 | 01:44:24 | 00:00:00 | |
| DL1XH1-15 | 2026-09-05 00:13:46 | 48.88926 | 10.60322 | 44° | 11km/h | 25779m | 4.8m/s | -50.3°C | 3.7% | 23.8hPa | 2.5V | 08:30:00 | 01:44:23 | 00:00:00 | |
| DL1XH-west | 2026-09-05 00:13:46 | 48.88928 | 10.60325 | 41° | 9km/h | 25785m | 5.9m/s | -50.3°C | 0.7% | 23.8hPa | 2.5V | 18:12:15 | 01:44:24 | 00:00:00 | |
| DL1ZP-14 | 2026-09-05 00:13:45 | 48.88926 | 10.60322 | 44° | 9km/h | 25779m | 4.9m/s | -50.3°C | 1.1% | 23.8hPa | 2.5V | 00:00:00 | 00:00:00 | 00:00:00 | |
| DO3MHA-11 | 2026-09-05 00:13:44 | 48.88925 | 10.60319 | 56° | 13km/h | 25775m | 4.6m/s | -50.3°C | 3.7% | 23.7hPa | 2.5V | 00:00:00 | 01:44:22 | 00:00:00 | |
| DB0ND-19 | 2026-09-05 00:13:41 | 48.88924 | 10.60311 | 109° | 9km/h | 25759m | 4.8m/s | -50.3°C | 1.1% | 23.9hPa | 2.5V | 00:00:00 | 00:00:00 | 00:00:00 | |
| DL1XH1-15 | 2026-09-05 00:13:40 | 48.88927 | 10.60273 | 84° | 11km/h | 25726m | 4.8m/s | -50.2°C | 3.7% | 24hPa | 2.5V | 08:30:00 | 01:44:13 | 00:00:00 | |
| DB0UT-7 | 2026-09-05 00:13:40 | 48.88925 | 10.60306 | 106° | 11km/h | 25753m | 6.1m/s | -50.2°C | 3.7% | 23.8hPa | 2.6V | 00:00:00 | 00:00:00 | 00:00:00 | |
| DM0DOS-11 | 2026-09-05 00:13:39 | 48.88926 | 10.60292 | 93° | 20km/h | 25742m | 4.9m/s | -50.3°C | 3.7% | 23.9hPa | 2.6V | 08:30:00 | 01:44:16 | 00:00:00 | |
| HSKMA3-T | 2026-09-05 00:13:37 | 48.88927 | 10.60285 | 91° | 18km/h | 25737m | 4.9m/s | -50.3°C | 0.7% | 24hPa | 2.5V | 18:12:15 | 01:44:15 | 00:00:00 | |
| DL1NUX | 2026-09-05 00:13:36 | 48.88927 | 10.60278 | 91° | 15km/h | 25731m | 6m/s | -50.2°C | 3.7% | 24hPa | 2.5V | 08:30:00 | 01:44:14 | 00:00:00 | |
| DL1XH-west | 2026-09-05 00:13:36 | 48.88927 | 10.60278 | 91° | 15km/h | 25731m | 6m/s | -50.2°C | 0.7% | 24hPa | 2.5V | 18:12:15 | 01:44:14 | 00:00:00 | |
| DK7TD | 2026-09-05 00:13:35 | 48.88927 | 10.60273 | 84° | 11km/h | 25726m | 4.8m/s | -50.2°C | 0.7% | 24hPa | 2.5V | 18:12:15 | 01:44:13 | 00:00:00 | |
| OE5WHR-10 | 2026-09-05 00:13:35 | 48.88927 | 10.60273 | 85° | 11km/h | 25726m | 4.7m/s | -50.2°C | 3.7% | 23.9hPa | 2.5V | 00:00:00 | 00:00:00 | 00:00:00 | |
| DO3MHA-11 | 2026-09-05 00:13:34 | 48.88926 | 10.60269 | 73° | 9km/h | 25721m | 4.1m/s | -50.2°C | 3.6% | 24.0hPa | 2.6V | 00:00:00 | 01:44:12 | 00:00:00 | |
| DM0DOS-11 | 2026-09-05 00:13:33 | 48.88916 | 10.60247 | 67° | 5km/h | 25692m | 6m/s | -50.3°C | 3.7% | 24.1hPa | 2.6V | 08:30:00 | 01:44:06 | 00:00:00 | |
| DF7PN | 2026-09-05 00:13:33 | 48.88925 | 10.60266 | 58° | 9km/h | 25717m | 5.2m/s | -50.2°C | 1.0% | 24.0hPa | 2.5V | 00:00:00 | 00:00:00 | 00:00:00 | |
| DK5PH-5 | 2026-09-05 00:13:31 | 48.88921 | 10.60258 | 52° | 11km/h | 25706m | 4.8m/s | -50.3°C | 3.7% | 24.0hPa | 2.5V | 00:00:00 | 01:44:09 | 00:00:00 | |
| DL1XH1-15 | 2026-09-05 00:13:30 | 48.88919 | 10.60245 | 171° | 9km/h | 25675m | 4.9m/s | -50.2°C | 3.7% | 24.2hPa | 2.5V | 08:30:00 | 01:44:03 | 00:00:00 | |
| HSKMA3-T | 2026-09-05 00:13:27 | 48.88916 | 10.60246 | 153° | 4km/h | 25686m | 6.2m/s | -50.3°C | 0.7% | 24.1hPa | 2.6V | 18:12:15 | 01:44:05 | 00:00:00 | |
| DL1NUX | 2026-09-05 00:13:26 | 48.88918 | 10.60246 | 182° | 7km/h | 25680m | 5.3m/s | -50.3°C | 3.7% | 24.2hPa | 2.5V | 08:30:00 | 01:44:04 | 00:00:00 | |
| DL1XH-west | 2026-09-05 00:13:26 | 48.88917 | 10.60246 | 183° | 7km/h | 25681m | 5.3m/s | -50.3°C | 0.6% | 24.2hPa | 2.5V | 18:12:15 | 01:44:04 | 00:00:00 | |
| DK7TD | 2026-09-05 00:13:25 | 48.88919 | 10.60245 | 172° | 9km/h | 25675m | 4.9m/s | -50.3°C | 0.6% | 24.2hPa | 2.5V | 18:12:15 | 01:44:03 | 00:00:00 | |
| AZAK | 2026-09-05 00:13:25 | 48.88919 | 10.60245 | 173° | 9km/h | 25676m | 4.9m/s | -50.3°C | 1.0% | 24.2hPa | 2.5V | 00:00:00 | 00:00:00 | 00:00:00 | |
| DO3MHA-11 | 2026-09-05 00:13:24 | 48.88922 | 10.60244 | 151° | 11km/h | 25670m | 6.0m/s | -50.2°C | 3.7% | 24.1hPa | 2.5V | 00:00:00 | 01:44:02 | 08:30:00 | |
| OE5DRO-10 | 2026-09-05 00:13:21 | 48.88927 | 10.60233 | 109° | 11km/h | 25655m | 5.5m/s | -50.1°C | 3.6% | 24.2hPa | 2.6V | 00:00:00 | 00:00:00 | 00:00:00 | |
| DL1XH1-15 | 2026-09-05 00:13:20 | 48.88925 | 10.60209 | 74° | 13km/h | 25622m | 4.2m/s | -50.1°C | 3.6% | 24.4hPa | 2.5V | 08:30:00 | 01:43:53 | 00:00:00 | |
| PG1ADW-2 | 2026-09-05 00:13:20 | 48.88927 | 10.60229 | 101° | 13km/h | 25649m | 5.7m/s | -50.0°C | 3.6% | 24.2hPa | 2.5V | 00:00:00 | 00:00:00 | 08:30:00 | |
| DM0DOS-11 | 2026-09-05 00:13:19 | 48.88927 | 10.60222 | 75° | 9km/h | 25638m | 5.1m/s | -50°C | 3.6% | 24.3hPa | 2.5V | 08:30:00 | 01:43:56 | 00:00:00 | |
| HSKMA3-T | 2026-09-05 00:13:17 | 48.88926 | 10.60214 | 72° | 13km/h | 25627m | 5.3m/s | -50°C | 0.6% | 24.3hPa | 2.6V | 18:12:15 | 01:43:54 | 00:00:00 | |
| DL1NUX | 2026-09-05 00:13:16 | 48.88926 | 10.60214 | 71° | 13km/h | 25627m | 5.3m/s | -50°C | 3.6% | 24.3hPa | 2.6V | 08:30:00 | 01:43:54 | 00:00:00 | |
| DL1XH-west | 2026-09-05 00:13:15 | 48.88925 | 10.60209 | 74° | 13km/h | 25622m | 4.2m/s | -50.1°C | 0.6% | 24.4hPa | 2.5V | 18:12:15 | 01:43:53 | 00:00:00 | |
| DK7TD | 2026-09-05 00:13:14 | 48.88924 | 10.60205 | 78° | 9km/h | 25617m | 6.1m/s | -50.1°C | 0.5% | 24.4hPa | 2.5V | 18:12:15 | 01:43:52 | 00:00:00 | |
| OE5WHR-10 | 2026-09-05 00:13:14 | 48.88924 | 10.60205 | 78° | 16km/h | 25617m | 6.1m/s | -50.1°C | 3.5% | 24.4hPa | 2.5V | 00:00:00 | 00:00:00 | 00:00:00 | |
| DM0DOS-11 | 2026-09-05 00:13:13 | 48.88924 | 10.60186 | 73° | 13km/h | 25584m | 4.7m/s | -50.2°C | 3.6% | 24.5hPa | 2.5V | 08:30:00 | 01:43:46 | 00:00:00 | |
| DF1GD-15 | 2026-09-05 00:13:13 | 48.88924 | 10.60205 | 79° | 9km/h | 25617m | 6.1m/s | -50.1°C | 1.0% | 24.4hPa | 2.6V | 00:00:00 | 00:00:00 | 00:00:00 | |
| DL1XH1-15 | 2026-09-05 00:13:10 | 48.88918 | 10.60175 | 38° | 16km/h | 25567m | 4.5m/s | -50.2°C | 3.6% | 24.6hPa | 2.6V | 08:30:00 | 01:43:43 | 00:00:00 | |
| DB0UT-7 | 2026-09-05 00:13:10 | 48.88925 | 10.60194 | 99° | 20km/h | 25594m | 5.9m/s | -50.1°C | 3.6% | 24.4hPa | 2.6V | 00:00:00 | 01:43:48 | 00:00:00 | |
| DO3MHA-12 | 2026-09-05 00:13:08 | 48.88924 | 10.60186 | 74° | 18km/h | 25584m | 4.6m/s | -50.1°C | 3.6% | 24.5hPa | 2.6V | 00:00:00 | 01:43:46 | 00:00:00 | |
| DL1NUX | 2026-09-05 00:13:06 | 48.88921 | 10.60178 | 41° | 13km/h | 25572m | 5.4m/s | -50.2°C | 3.5% | 24.6hPa | 2.6V | 08:30:00 | 01:43:44 | 00:00:00 | |
| HSKMA3-T | 2026-09-05 00:13:06 | 48.88921 | 10.60178 | 41° | 13km/h | 25572m | 5.4m/s | -50.2°C | 0.5% | 24.6hPa | 2.6V | 18:12:15 | 01:43:44 | 00:00:00 | |
| DF8AY | 2026-09-05 00:13:05 | 48.88906 | 10.60149 | 63° | 26km/h | 25545m | 5.1m/s | -50.5°C | 0.6% | 24.7hPa | 2.5V | 18:12:15 | 01:43:39 | 00:00:00 | |
| DL1XH-west | 2026-09-05 00:13:04 | 48.88915 | 10.60170 | 45° | 18km/h | 25563m | 4.9m/s | -50.3°C | 0.6% | 24.6hPa | 2.5V | 18:12:15 | 01:43:42 | 00:00:00 | |
| NBG1-10 | 2026-09-05 00:13:04 | 48.88915 | 10.60170 | 46° | 22km/h | 25563m | 4.8m/s | -50.2°C | 3.6% | 24.6hPa | 2.6V | 00:00:00 | 01:43:42 | 00:00:00 | |
| OE5DRO-10 | 2026-09-05 00:13:02 | 48.88909 | 10.60157 | 60° | 22km/h | 25551m | 5.9m/s | -50.4°C | 3.6% | 24.6hPa | 2.6V | 00:00:00 | 00:00:00 | 00:00:00 | |
| DK5PH-5 | 2026-09-05 00:13:01 | 48.88906 | 10.60149 | 63° | 22km/h | 25546m | 5.0m/s | -50.5°C | 3.6% | 24.6hPa | 2.6V | 00:00:00 | 01:43:39 | 00:00:00 | |
| DL1XH1-15 | 2026-09-05 00:13:00 | 48.88893 | 10.60102 | 69° | 24km/h | 25512m | 5m/s | -50.7°C | 3.6% | 24.8hPa | 2.6V | 08:30:00 | 01:43:33 | 00:00:00 | |
| PG1ADW-2 | 2026-09-05 00:13:00 | 48.88903 | 10.60140 | 64° | 22km/h | 25540m | 6.1m/s | -50.5°C | 3.6% | 24.6hPa | 2.5V | 00:00:00 | 01:43:38 | 00:00:00 | |
| DO3MHA-12 | 2026-09-05 00:12:58 | 48.88899 | 10.60126 | 68° | 22km/h | 25529m | 4.6m/s | -50.6°C | 3.7% | 24.7hPa | 2.5V | 00:00:00 | 01:43:36 | 00:00:00 | |
| DL1NUX | 2026-09-05 00:12:56 | 48.88895 | 10.60110 | 70° | 24km/h | 25518m | 5.9m/s | -50.7°C | 3.7% | 24.8hPa | 2.5V | 08:30:00 | 01:43:34 | 00:00:00 | |
| HSKMA3-T | 2026-09-05 00:12:56 | 48.88895 | 10.60110 | 71° | 24km/h | 25518m | 5.9m/s | -50.7°C | 0.7% | 24.8hPa | 2.5V | 18:12:15 | 01:43:34 | 00:00:00 | |
| DF8AY | 2026-09-05 00:12:55 | 48.88893 | 10.60102 | 69° | 24km/h | 25512m | 5m/s | -50.7°C | 0.6% | 24.8hPa | 2.6V | 18:12:15 | 01:43:33 | 00:00:00 | |
| DL1XH-west | 2026-09-05 00:12:53 | 48.88888 | 10.60087 | 55° | 18km/h | 25501m | 6.3m/s | -50.8°C | 0.7% | 24.8hPa | 2.5V | 18:12:15 | 01:43:31 | 00:00:00 | |
| OE5WHR-10 | 2026-09-05 00:12:53 | 48.88888 | 10.60087 | 55° | 20km/h | 25502m | 6.3m/s | -50.8°C | 3.7% | 24.8hPa | 2.5V | 00:00:00 | 01:43:31 | 00:00:00 | |
| DF1GD-15 | 2026-09-05 00:12:52 | 48.88888 | 10.60087 | 56° | 18km/h | 25502m | 6.3m/s | -50.8°C | 1.1% | 24.8hPa | 2.5V | 00:00:00 | 00:00:00 | 00:00:00 | |
| DL1XH1-15 | 2026-09-05 00:12:50 | 48.88853 | 10.60045 | 32° | 22km/h | 25456m | 5.5m/s | -50.9°C | 3.7% | 25hPa | 2.5V | 08:30:00 | 01:43:23 | 00:00:00 | |
| DF3TZ-5 | 2026-09-05 00:12:49 | 48.88868 | 10.60061 | 38° | 26km/h | 25473m | 4.8m/s | -50.9°C | 1.1% | 24.9hPa | 2.6V | 00:00:00 | 00:00:00 | 00:00:00 | |
| DO3MHA-12 | 2026-09-05 00:12:48 | 48.88868 | 10.60061 | 39° | 24km/h | 25474m | 4.8m/s | -50.8°C | 3.7% | 24.9hPa | 2.6V | 00:00:00 | 01:43:26 | 00:00:00 | |
| S52SK | 2026-09-05 00:12:47 | 48.88868 | 10.60061 | 40° | 26km/h | 25474m | 4.8m/s | -50.9°C | 0% | 24.9hPa | 2.5V | 00:00:00 | 00:00:00 | 00:00:00 | |
| DL1NUX | 2026-09-05 00:12:46 | 48.88857 | 10.60050 | 33° | 24km/h | 25462m | 6.2m/s | -50.9°C | 3.7% | 25hPa | 2.5V | 08:30:00 | 01:43:24 | 00:00:00 | |
| HSKMA3-T | 2026-09-05 00:12:45 | 48.88853 | 10.60045 | 33° | 22km/h | 25456m | 5.5m/s | -50.9°C | 0.7% | 25hPa | 2.5V | 18:12:15 | 01:43:23 | 00:00:00 | |
| DL1XH-west | 2026-09-05 00:12:43 | 48.88844 | 10.60035 | 39° | 24km/h | 25444m | 6.1m/s | -51°C | 0.7% | 25.1hPa | 2.6V | 18:12:15 | 01:43:21 | 00:00:00 | |
| DK7TD | 2026-09-05 00:12:42 | 48.88839 | 10.60030 | 39° | 24km/h | 25439m | 4.4m/s | -51°C | 0.7% | 25.1hPa | 2.5V | 18:12:15 | 01:43:20 | 00:00:00 | |
| S52SK | 2026-09-05 00:12:41 | 48.88839 | 10.60030 | 40° | 24km/h | 25439m | 4.4m/s | -51.0°C | 0% | 25.1hPa | 2.5V | 00:00:00 | 00:00:00 | 00:00:00 | |
| DL1XH1-15 | 2026-09-05 00:12:40 | 48.88802 | 10.60003 | 35° | 24km/h | 25402m | 4.3m/s | -51°C | 3.8% | 25.2hPa | 2.5V | 08:30:00 | 01:43:13 | 00:00:00 | |
| PG1ADW-2 | 2026-09-05 00:12:40 | 48.88829 | 10.60019 | 28° | 18km/h | 25429m | 6.2m/s | -51.0°C | 3.8% | 25.1hPa | 2.5V | 00:00:00 | 00:00:00 | 00:00:00 | |
| DB0ND-19 | 2026-09-05 00:12:39 | 48.88824 | 10.60016 | 18° | 20km/h | 25423m | 5.8m/s | -51.1°C | 1.1% | 25.1hPa | 2.5V | 00:00:00 | 00:00:00 | 00:00:00 | |
| DO3MHA-12 | 2026-09-05 00:12:38 | 48.88819 | 10.60013 | 15° | 18km/h | 25418m | 4.7m/s | -51.0°C | 3.8% | 25.1hPa | 2.5V | 00:00:00 | 01:43:16 | 00:00:00 | |
| DL1NUX | 2026-09-05 00:12:36 | 48.88807 | 10.60007 | 26° | 24km/h | 25407m | 5.7m/s | -51°C | 3.8% | 25.2hPa | 2.5V | 08:30:00 | 01:43:14 | 00:00:00 | |
| HSKMA3-T | 2026-09-05 00:12:34 | 48.88798 | 10.59998 | 41° | 20km/h | 25397m | 4.5m/s | -51°C | 0.7% | 25.2hPa | 2.5V | 18:12:15 | 01:43:12 | 00:00:00 | |
| DL1XH-west | 2026-09-05 00:12:33 | 48.88795 | 10.59993 | 46° | 16km/h | 25392m | 6m/s | -51.1°C | 0.7% | 25.2hPa | 2.6V | 18:12:15 | 01:43:11 | 00:00:00 | |
| DK7TD | 2026-09-05 00:12:32 | 48.88792 | 10.59989 | 44° | 13km/h | 25386m | 5.9m/s | -51.1°C | 0.7% | 25.3hPa | 2.6V | 18:12:15 | 01:43:10 | 00:00:00 | |
| NBG1-10 | 2026-09-05 00:12:31 | 48.88790 | 10.59985 | 41° | 16km/h | 25381m | 4.9m/s | -51.1°C | 3.8% | 25.3hPa | 2.5V | 00:00:00 | 01:43:09 | 00:00:00 | |
| DL1XH1-15 | 2026-09-05 00:12:30 | 48.88769 | 10.59959 | 42° | 18km/h | 25349m | 6m/s | -51.3°C | 3.9% | 25.4hPa | 2.5V | 08:30:00 | 01:43:03 | 00:00:00 | |
| SONCRA | 2026-09-05 00:12:29 | 48.88784 | 10.59979 | 37° | 16km/h | 25370m | 6.6m/s | -51.2°C | 1.1% | 25.3hPa | 2.6V | 00:00:00 | 00:00:00 | 00:00:00 | |
| OE5WHR-10 | 2026-09-05 00:12:28 | 48.88781 | 10.59975 | 39° | 16km/h | 25364m | 5.3m/s | -51.2°C | 3.8% | 25.3hPa | 2.6V | 00:00:00 | 00:00:00 | 00:00:00 | |
| DL1NUX | 2026-09-05 00:12:26 | 48.88773 | 10.59964 | 41° | 22km/h | 25354m | 5.1m/s | -51.3°C | 3.9% | 25.4hPa | 2.6V | 08:30:00 | 01:43:04 | 00:00:00 | |
| HSKMA3-T | 2026-09-05 00:12:24 | 48.88765 | 10.59954 | 42° | 16km/h | 25343m | 5.6m/s | -51.3°C | 0.8% | 25.4hPa | 2.5V | 18:12:15 | 01:43:02 | 00:00:00 | |
| DF8AY | 2026-09-05 00:12:23 | 48.88763 | 10.59951 | 37° | 15km/h | 25338m | 4.5m/s | -51.4°C | 0.8% | 25.5hPa | 2.5V | 18:12:15 | 01:43:01 | 00:00:00 | |
| DL1XH-west | 2026-09-05 00:12:22 | 48.88759 | 10.59947 | 34° | 15km/h | 25332m | 6.4m/s | -51.4°C | 0.8% | 25.5hPa | 2.6V | 18:12:15 | 01:43:00 | 00:00:00 | |
| DK7TD | 2026-09-05 00:12:21 | 48.88756 | 10.59944 | 33° | 16km/h | 25326m | 6m/s | -51.4°C | 0.7% | 25.5hPa | 2.6V | 18:12:15 | 01:42:59 | 00:00:00 | |
| DL1XH1-15 | 2026-09-05 00:12:20 | 48.88740 | 10.59924 | 42° | 20km/h | 25291m | 5.9m/s | -51.5°C | 3.9% | 25.6hPa | 2.6V | 08:30:00 | 01:42:53 | 00:00:00 | |
| BIOWL1-15 | 2026-09-05 00:12:18 | 48.88740 | 10.59924 | 43° | 20km/h | 25291m | 5.9m/s | -51.5°C | 0.8% | 25.6hPa | 2.6V | 18:12:15 | 01:42:53 | 00:00:00 | |
| DO3MHA-12 | 2026-09-05 00:12:18 | 48.88747 | 10.59935 | 40° | 16km/h | 25309m | 5.6m/s | -51.4°C | 3.9% | 25.5hPa | 2.5V | 00:00:00 | 01:42:56 | 00:00:00 | |
| DL1NUX | 2026-09-05 00:12:16 | 48.88743 | 10.59928 | 45° | 16km/h | 25297m | 6.1m/s | -51.5°C | 3.9% | 25.6hPa | 2.6V | 08:30:00 | 01:42:54 | 00:00:00 | |
| HSKMA3-T | 2026-09-05 00:12:14 | 48.88736 | 10.59918 | 38° | 22km/h | 25286m | 4.5m/s | -51.5°C | 0.8% | 25.7hPa | 2.5V | 18:12:15 | 01:42:52 | 00:00:00 | |
| DF8AY | 2026-09-05 00:12:13 | 48.88731 | 10.59914 | 33° | 20km/h | 25282m | 4.2m/s | -51.4°C | 0.8% | 25.7hPa | 2.5V | 18:12:15 | 01:42:51 | 00:00:00 | |
| DL1XH-west | 2026-09-05 00:12:12 | 48.88727 | 10.59910 | 26° | 18km/h | 25276m | 6.2m/s | -51.4°C | 0.8% | 25.7hPa | 2.5V | 18:12:15 | 01:42:50 | 00:00:00 | |
| DM0DOS-11 | 2026-09-05 00:12:12 | 48.88708 | 10.59907 | 0° | 20km/h | 25250m | 5.5m/s | -51.2°C | 3.8% | 25.8hPa | 2.5V | 08:30:00 | 01:42:45 | 00:00:00 | |
| DK7TD | 2026-09-05 00:12:11 | 48.88723 | 10.59908 | 14° | 15km/h | 25271m | 5.6m/s | -51.4°C | 0.8% | 25.7hPa | 2.6V | 18:12:15 | 01:42:49 | 00:00:00 | |
| DB0UT-7 | 2026-09-05 00:12:10 | 48.88720 | 10.59907 | 3° | 11km/h | 25266m | 4.5m/s | -51.3°C | 3.9% | 25.7hPa | 2.6V | 00:00:00 | 01:42:48 | 00:00:00 | |
| DL1XH1-15 | 2026-09-05 00:12:09 | 48.88698 | 10.59907 | 0° | 20km/h | 25240m | 4.8m/s | -51.2°C | 3.8% | 25.8hPa | 2.6V | 08:30:00 | 01:42:43 | 00:00:00 | |
| HSKMA3-T | 2026-09-05 00:12:03 | 48.88690 | 10.59907 | 358° | 13km/h | 25229m | 5.9m/s | -51.2°C | 0.8% | 25.9hPa | 2.5V | 18:12:15 | 01:42:41 | 00:00:00 | |
| DK7TD | 2026-09-05 00:12:01 | 48.88685 | 10.59907 | 22° | 7km/h | 25219m | 4.4m/s | -51.2°C | 0.7% | 25.9hPa | 2.5V | 18:12:15 | 01:42:39 | 00:00:00 | |
| HSKMA3-T | 2026-09-05 00:11:52 | 48.88661 | 10.59901 | 357° | 15km/h | 25169m | 4.7m/s | -51.3°C | 0.8% | 26.1hPa | 2.5V | 18:12:15 | 01:42:30 | 00:00:00 | |
| DK7TD | 2026-09-05 00:11:50 | 48.88655 | 10.59902 | 340° | 11km/h | 25160m | 5.5m/s | -51.3°C | 0.7% | 26.2hPa | 2.5V | 18:12:15 | 01:42:28 | 00:00:00 | |
| DF3TZ-5 | 2026-09-05 00:11:47 | 48.88650 | 10.59910 | 324° | 4km/h | 25137m | 6.0m/s | -51.2°C | 1.1% | 26.3hPa | 2.6V | 00:00:00 | 00:00:00 | 00:00:00 | |
| HARRO8 | 2026-09-05 00:11:46 | 48.88650 | 10.59910 | 324° | 4km/h | 25137m | 6.0m/s | -51.2°C | 1.1% | 26.3hPa | 2.6V | 00:00:00 | 00:00:00 | 00:00:00 | |
| BIOWL1-15 | 2026-09-05 00:11:43 | 48.88645 | 10.59911 | 341° | 9km/h | 25121m | 5.8m/s | -51.2°C | 0.8% | 26.4hPa | 2.6V | 18:12:15 | 01:42:21 | 00:00:00 | |
| DF8AY | 2026-09-05 00:11:42 | 48.88643 | 10.59913 | 323° | 9km/h | 25116m | 5.8m/s | -51.3°C | 0.8% | 26.4hPa | 2.5V | 18:12:15 | 01:42:20 | 00:00:00 | |
| DM0DOS-11 | 2026-09-05 00:11:42 | 48.88633 | 10.59922 | 339° | 9km/h | 25088m | 4.5m/s | -51.4°C | 3.9% | 26.5hPa | 2.6V | 08:30:00 | 01:42:15 | 00:00:00 | |
| HSKMA3-T | 2026-09-05 00:11:41 | 48.88641 | 10.59915 | 314° | 11km/h | 25110m | 5.1m/s | -51.3°C | 0.8% | 26.4hPa | 2.5V | 18:12:15 | 01:42:19 | 00:00:00 | |
| DL1XH-west | 2026-09-05 00:11:40 | 48.88639 | 10.59918 | 321° | 9km/h | 25105m | 5.6m/s | -51.4°C | 0.8% | 26.4hPa | 2.5V | 18:12:15 | 01:42:18 | 00:00:00 | |
| DK7TD | 2026-09-05 00:11:39 | 48.88637 | 10.59920 | 334° | 9km/h | 25098m | 6.3m/s | -51.4°C | 0.8% | 26.4hPa | 2.5V | 18:12:15 | 01:42:17 | 00:00:00 | |
| BIOWL9-15 | 2026-09-05 00:11:38 | 48.88635 | 10.59921 | 343° | 9km/h | 25093m | 4.9m/s | -51.4°C | 1.1% | 26.5hPa | 2.5V | 00:00:00 | 00:00:00 | 00:00:00 | |
| DB0ND-19 | 2026-09-05 00:11:37 | 48.88633 | 10.59922 | 339° | 9km/h | 25088m | 4.5m/s | -51.4°C | 1.1% | 26.5hPa | 2.5V | 00:00:00 | 00:00:00 | 00:00:00 | |
| DJ8HS-15 | 2026-09-05 00:11:36 | 48.88630 | 10.59924 | 328° | 9km/h | 25084m | 5.7m/s | -51.3°C | 3.9% | 26.4hPa | 2.5V | 00:00:00 | 01:42:14 | 00:00:00 | |
| OE5MMP-10 | 2026-09-05 00:11:34 | 48.88625 | 10.59930 | 319° | 11km/h | 25073m | 4.4m/s | 0°C | 0% | 0hPa | 2.6V | 00:00:00 | 01:42:12 | 00:00:00 | |
| DM0DOS-11 | 2026-09-05 00:11:32 | 48.88602 | 10.59946 | 292° | 7km/h | 25037m | 4.7m/s | -51.2°C | 3.8% | 26.7hPa | 2.6V | 08:30:00 | 01:42:05 | 00:00:00 | |
| HSKMA3-T | 2026-09-05 00:11:31 | 48.88614 | 10.59939 | 348° | 18km/h | 25058m | 5.2m/s | -51.4°C | 0.8% | 26.6hPa | 2.5V | 18:12:15 | 01:42:09 | 00:00:00 | |
| DL1XH-west | 2026-09-05 00:11:30 | 48.88610 | 10.59940 | 351° | 18km/h | 25053m | 4.5m/s | -51.3°C | 0.8% | 26.6hPa | 2.5V | 18:12:15 | 01:42:08 | 00:00:00 | |
| DK7TD | 2026-09-05 00:11:29 | 48.88606 | 10.59941 | 345° | 15km/h | 25048m | 5.1m/s | -51.3°C | 0.7% | 26.6hPa | 2.5V | 18:12:15 | 01:42:07 | 00:00:00 | |
| BIOWL1-15 | 2026-09-05 00:11:22 | 48.88613 | 10.59948 | 25° | 4km/h | 24977m | 5.4m/s | -51.3°C | 0.7% | 26.9hPa | 2.6V | 18:12:15 | 01:41:54 | 00:00:00 | |
| DM0DOS-11 | 2026-09-05 00:11:22 | 48.88614 | 10.59948 | 331° | 0km/h | 24983m | 6.6m/s | -51.3°C | 3.7% | 26.9hPa | 2.5V | 08:30:00 | 01:41:55 | 00:00:00 | |
| HSKMA3-T | 2026-09-05 00:11:20 | 48.88611 | 10.59945 | 191° | 7km/h | 24999m | 5.4m/s | -51.2°C | 0.7% | 26.8hPa | 2.5V | 18:12:15 | 01:41:58 | 00:00:00 | |
| DL1XH-west | 2026-09-05 00:11:19 | 48.88613 | 10.59946 | 209° | 5km/h | 24994m | 4.4m/s | -51.2°C | 0.7% | 26.9hPa | 2.5V | 18:12:15 | 01:41:57 | 00:00:00 | |
| DK7TD | 2026-09-05 00:11:18 | 48.88614 | 10.59947 | 221° | 4km/h | 24989m | 5m/s | -51.2°C | 0.7% | 26.9hPa | 2.5V | 18:12:15 | 01:41:56 | 00:00:00 | |
| BIOWL1-15 | 2026-09-05 00:11:18 | 48.88612 | 10.59950 | 230° | 7km/h | 24956m | 4.6m/s | -51.5°C | 0.8% | 27hPa | 2.5V | 18:12:15 | 01:41:50 | 00:00:00 | |
| DO3MHA-12 | 2026-09-05 00:11:18 | 48.88614 | 10.59947 | 221° | 5km/h | 24989m | 4.9m/s | -51.2°C | 3.7% | 26.8hPa | 2.5V | 00:00:00 | 01:41:56 | 00:00:00 | |
| DL1NUX | 2026-09-05 00:11:16 | 48.88614 | 10.59947 | 25° | 4km/h | 24977m | 5.4m/s | -51.3°C | 3.8% | 26.9hPa | 2.6V | 08:30:00 | 01:41:54 | 00:00:00 | |
| OE5DXL-15 | 2026-09-05 00:11:16 | 48.88613 | 10.59947 | 26° | 15km/h | 24977m | 5.4m/s | -51.3°C | 3.8% | 26.9hPa | 2.5V | 00:00:00 | 00:00:00 | 00:00:00 | |
| DF2AP-13 | 2026-09-05 00:11:15 | 48.88612 | 10.59947 | 18° | 16km/h | 24972m | 4.6m/s | -51.4°C | 3.8% | 26.9hPa | 2.5V | 00:00:00 | 01:41:53 | 00:00:00 | |
| DO3MHA-11 | 2026-09-05 00:11:14 | 48.88612 | 10.59947 | 332° | 13km/h | 24967m | 5.5m/s | -51.4°C | 3.8% | 26.9hPa | 2.5V | 00:00:00 | 01:41:52 | 00:00:00 | |
| DM0DOS-11 | 2026-09-05 00:11:12 | 48.88628 | 10.59947 | 164° | 22km/h | 24928m | 6.3m/s | -51.5°C | 3.8% | 27.1hPa | 2.5V | 08:30:00 | 01:41:45 | 00:00:00 | |
| DF8AY | 2026-09-05 00:11:10 | 48.88616 | 10.59952 | 177° | 11km/h | 24945m | 6.5m/s | -51.5°C | 0.7% | 27.1hPa | 2.6V | 18:12:15 | 01:41:48 | 00:00:00 | |
| DL1XH-west | 2026-09-05 00:11:09 | 48.88619 | 10.59951 | 164° | 15km/h | 24939m | 5.5m/s | -51.5°C | 0.8% | 27.1hPa | 2.5V | 18:12:15 | 01:41:47 | 00:00:00 | |
| DK7TD | 2026-09-05 00:11:07 | 48.88628 | 10.59947 | 164° | 22km/h | 24928m | 6.3m/s | -51.5°C | 0.7% | 27.1hPa | 2.5V | 18:12:15 | 01:41:45 | 00:00:00 | |
| DL1NUX | 2026-09-05 00:11:06 | 48.88634 | 10.59945 | 166° | 24km/h | 24922m | 5.1m/s | -51.5°C | 3.8% | 27.2hPa | 2.6V | 08:30:00 | 01:41:44 | 00:00:00 | |
| DB0ND-19 | 2026-09-05 00:11:06 | 48.88634 | 10.59945 | 166° | 22km/h | 24923m | 5.1m/s | -51.5°C | 1.1% | 27.2hPa | 2.5V | 00:00:00 | 00:00:00 | 00:00:00 | |
| DO3MHA-11 | 2026-09-05 00:11:04 | 48.88644 | 10.59940 | 156° | 13km/h | 24913m | 5.6m/s | -51.5°C | 3.8% | 27.1hPa | 2.5V | 00:00:00 | 01:41:42 | 00:00:00 | |
| DL6DJ-15 | 2026-09-05 00:11:03 | 48.88648 | 10.59936 | 143° | 16km/h | 24907m | 5.7m/s | -51.6°C | 1.1% | 27.2hPa | 2.5V | 00:00:00 | 00:00:00 | 00:00:00 | |
| DM0DOS-11 | 2026-09-05 00:11:02 | 48.88667 | 10.59922 | 167° | 9km/h | 24875m | 6.2m/s | -51.8°C | 3.9% | 27.4hPa | 2.5V | 08:30:00 | 01:41:35 | 00:00:00 | |
| DF8AY | 2026-09-05 00:11:00 | 48.88661 | 10.59923 | 168° | 13km/h | 24885m | 5.1m/s | -51.7°C | 0.8% | 27.3hPa | 2.6V | 18:12:15 | 01:41:37 | 00:00:00 | |
| DL1XH1-15 | 2026-09-05 00:11:00 | 48.88671 | 10.59919 | 145° | 11km/h | 24864m | 4.9m/s | -51.7°C | 3.9% | 27.4hPa | 2.6V | 08:30:00 | 01:41:33 | 00:00:00 | |
| HSKMA3-T | 2026-09-05 00:10:58 | 48.88664 | 10.59922 | 174° | 11km/h | 24881m | 4.6m/s | -51.8°C | 0.8% | 27.3hPa | 2.5V | 18:12:15 | 01:41:36 | 00:00:00 | |
| SONDE2-11 | 2026-09-05 00:10:57 | 48.88669 | 10.59921 | 153° | 9km/h | 24869m | 5.6m/s | -51.7°C | 1.1% | 27.4hPa | 2.5V | 00:00:00 | 00:00:00 | 00:00:00 | |
| DL1NUX | 2026-09-05 00:10:56 | 48.88668 | 10.59921 | 153° | 9km/h | 24869m | 5.6m/s | -51.7°C | 3.9% | 27.4hPa | 2.5V | 08:30:00 | 01:41:34 | 00:00:00 | |
| DK7TD | 2026-09-05 00:10:56 | 48.88669 | 10.59921 | 153° | 9km/h | 24869m | 5.6m/s | -51.7°C | 0.8% | 27.4hPa | 2.5V | 18:12:15 | 01:41:34 | 00:00:00 | |
| DJ8HS-15 | 2026-09-05 00:10:56 | 48.88669 | 10.59921 | 154° | 16km/h | 24870m | 5.5m/s | -51.7°C | 3.9% | 27.3hPa | 2.6V | 00:00:00 | 01:41:34 | 00:00:00 | |
| DO3MHA-11 | 2026-09-05 00:10:54 | 48.88673 | 10.59916 | 149° | 22km/h | 24859m | 5.6m/s | -51.7°C | 3.9% | 27.4hPa | 2.6V | 00:00:00 | 01:41:32 | 00:00:00 | |
| DM0DOS-11 | 2026-09-05 00:10:52 | 48.88701 | 10.59880 | 127° | 26km/h | 24819m | 5.8m/s | -51.8°C | 3.9% | 27.6hPa | 2.5V | 08:30:00 | 01:41:25 | 00:00:00 | |
| NBG1-10 | 2026-09-05 00:10:52 | 48.88680 | 10.59910 | 154° | 15km/h | 24847m | 5.3m/s | -51.7°C | 3.9% | 27.4hPa | 2.5V | 00:00:00 | 01:41:30 | 00:00:00 | |
| DL1XH1-15 | 2026-09-05 00:10:50 | 48.88709 | 10.59865 | 130° | 24km/h | 24808m | 4.6m/s | -52°C | 3.9% | 27.6hPa | 2.5V | 08:30:00 | 01:41:23 | 00:00:00 | |
| DF8AY | 2026-09-05 00:10:49 | 48.88693 | 10.59895 | 130° | 24km/h | 24829m | 5.6m/s | -51.8°C | 0.7% | 27.6hPa | 2.6V | 18:12:15 | 01:41:27 | 00:00:00 | |
| DL1XH-west | 2026-09-05 00:10:49 | 48.88701 | 10.59880 | 128° | 26km/h | 24819m | 5.8m/s | -51.8°C | 0.8% | 27.6hPa | 2.5V | 18:12:15 | 01:41:25 | 00:00:00 | |
| HSKMA3-T | 2026-09-05 00:10:48 | 48.88697 | 10.59888 | 126° | 26km/h | 24824m | 4.6m/s | -51.8°C | 0.7% | 27.6hPa | 2.6V | 18:12:15 | 01:41:26 | 00:00:00 | |
| DL1NUX | 2026-09-05 00:10:46 | 48.88705 | 10.59873 | 131° | 26km/h | 24813m | 5.8m/s | -51.9°C | 3.9% | 27.6hPa | 2.5V | 08:30:00 | 01:41:24 | 00:00:00 | |
| DK7TD | 2026-09-05 00:10:45 | 48.88709 | 10.59865 | 131° | 24km/h | 24808m | 4.6m/s | -52°C | 0.8% | 27.6hPa | 2.5V | 18:12:15 | 01:41:23 | 00:00:00 | |
| DF3TZ-5 | 2026-09-05 00:10:45 | 48.88713 | 10.59859 | 126° | 22km/h | 24803m | 6.2m/s | -52.0°C | 1.1% | 27.6hPa | 2.6V | 00:00:00 | 00:00:00 | 00:00:00 | |
| DO3MHA-11 | 2026-09-05 00:10:44 | 48.88713 | 10.59858 | 127° | 11km/h | 24803m | 6.1m/s | -52.0°C | 3.9% | 27.6hPa | 2.6V | 00:00:00 | 01:41:22 | 00:00:00 | |
| S52SK | 2026-09-05 00:10:43 | 48.88713 | 10.59858 | 128° | 22km/h | 24803m | 6.2m/s | -52.0°C | 0% | 27.6hPa | 2.6V | 00:00:00 | 00:00:00 | 00:00:00 | |
| DM0DOS-11 | 2026-09-05 00:10:42 | 48.88728 | 10.59843 | 169° | 4km/h | 24763m | 5.6m/s | -52.2°C | 4.1% | 27.8hPa | 2.6V | 08:30:00 | 01:41:15 | 00:00:00 | |
| DJTTGO | 2026-09-05 00:10:41 | 48.88718 | 10.59847 | 129° | 15km/h | 24792m | 4.8m/s | -52.1°C | 1.1% | 27.7hPa | 2.5V | 00:00:00 | 00:00:00 | 00:00:00 | |
| DL1XH1-15 | 2026-09-05 00:10:40 | 48.88731 | 10.59841 | 142° | 7km/h | 24753m | 5.7m/s | -52.2°C | 4% | 27.9hPa | 2.5V | 08:30:00 | 01:41:13 | 00:00:00 | |
| HSKMA3-T | 2026-09-05 00:10:38 | 48.88727 | 10.59843 | 195° | 7km/h | 24769m | 6.1m/s | -52.2°C | 0.9% | 27.8hPa | 2.6V | 18:12:15 | 01:41:16 | 00:00:00 | |
| BIOWL1-15 | 2026-09-05 00:10:37 | 48.88728 | 10.59843 | 170° | 4km/h | 24763m | 5.6m/s | -52.2°C | 0.9% | 27.8hPa | 2.6V | 18:12:15 | 01:41:15 | 00:00:00 | |
| DL1NUX | 2026-09-05 00:10:36 | 48.88729 | 10.59843 | 144° | 5km/h | 24758m | 4.5m/s | -52.2°C | 4.1% | 27.9hPa | 2.5V | 08:30:00 | 01:41:14 | 00:00:00 | |
| DK7TD | 2026-09-05 00:10:35 | 48.88731 | 10.59841 | 142° | 7km/h | 24753m | 5.7m/s | -52.2°C | 0.9% | 27.9hPa | 2.5V | 18:12:15 | 01:41:13 | 00:00:00 | |
| DB0ND-19 | 2026-09-05 00:10:35 | 48.88731 | 10.59841 | 142° | 7km/h | 24753m | 5.7m/s | -52.2°C | 1.2% | 27.9hPa | 2.6V | 00:00:00 | 00:00:00 | 00:00:00 | |
| DO3MHA-11 | 2026-09-05 00:10:34 | 48.88733 | 10.59839 | 146° | 13km/h | 24747m | 6.0m/s | -52.1°C | 4.0% | 27.9hPa | 2.6V | 00:00:00 | 01:41:12 | 00:00:00 | |
| AM1SDL-15 | 2026-09-05 00:10:33 | 48.88738 | 10.59832 | 132° | 11km/h | 24737m | 5.0m/s | -52.1°C | 4.0% | 27.9hPa | 2.6V | 00:00:00 | 01:41:10 | 00:00:00 | |
| DM0DOS-11 | 2026-09-05 00:10:32 | 48.88749 | 10.59808 | 149° | 11km/h | 24708m | 5.7m/s | -52°C | 3.9% | 28hPa | 2.6V | 08:30:00 | 01:41:05 | 00:00:00 | |
| S52SK | 2026-09-05 00:10:32 | 48.88738 | 10.59832 | 133° | 16km/h | 24737m | 5.0m/s | -52.1°C | 0% | 27.9hPa | 2.6V | 00:00:00 | 00:00:00 | 00:00:00 | |
| DK5PH-5 | 2026-09-05 00:10:31 | 48.88741 | 10.59827 | 121° | 18km/h | 24731m | 6.2m/s | -52.0°C | 4.0% | 27.9hPa | 2.6V | 00:00:00 | 01:41:09 | 08:30:00 | |
| DL1XH1-15 | 2026-09-05 00:10:30 | 48.88754 | 10.59805 | 160° | 7km/h | 24697m | 6.2m/s | -52°C | 3.9% | 28.1hPa | 2.5V | 08:30:00 | 01:41:03 | 00:00:00 | |
| DF8AY | 2026-09-05 00:10:28 | 48.88747 | 10.59811 | 132° | 13km/h | 24714m | 6.4m/s | -52°C | 0.8% | 28.1hPa | 2.6V | 18:12:15 | 01:41:06 | 00:00:00 | |
| HSKMA3-T | 2026-09-05 00:10:27 | 48.88749 | 10.59808 | 149° | 11km/h | 24708m | 5.7m/s | -52°C | 0.8% | 28hPa | 2.6V | 18:12:15 | 01:41:05 | 00:00:00 | |
| DL1NUX | 2026-09-05 00:10:26 | 48.88751 | 10.59806 | 161° | 9km/h | 24703m | 5.1m/s | -52°C | 3.9% | 28.1hPa | 2.6V | 08:30:00 | 01:41:04 | 00:00:00 | |
| BIOWL1-15 | 2026-09-05 00:10:25 | 48.88753 | 10.59805 | 160° | 7km/h | 24697m | 6.2m/s | -52°C | 0.8% | 28.1hPa | 2.5V | 18:12:15 | 01:41:03 | 00:00:00 | |
| DK7TD | 2026-09-05 00:10:24 | 48.88755 | 10.59804 | 151° | 5km/h | 24692m | 5.4m/s | -52°C | 0.8% | 28.1hPa | 2.5V | 18:12:15 | 01:41:02 | 00:00:00 | |
| DO3MHA-11 | 2026-09-05 00:10:24 | 48.88755 | 10.59804 | 152° | 15km/h | 24692m | 5.3m/s | -52.0°C | 3.9% | 28.1hPa | 2.5V | 00:00:00 | 01:41:02 | 08:30:00 | |
| DM7RM-13 | 2026-09-05 00:10:23 | 48.88755 | 10.59804 | 152° | 5km/h | 24692m | 5.4m/s | -52.0°C | 1.2% | 28.1hPa | 2.6V | 00:00:00 | 00:00:00 | 00:00:00 | |
| DM0DOS-11 | 2026-09-05 00:10:22 | 48.88765 | 10.59779 | 93° | 22km/h | 24653m | 4.8m/s | -52.1°C | 4% | 28.3hPa | 2.6V | 08:30:00 | 01:40:55 | 00:00:00 | |
| DL1XH1-15 | 2026-09-05 00:10:20 | 48.88766 | 10.59762 | 106° | 22km/h | 24642m | 6.6m/s | -52.1°C | 4% | 28.4hPa | 2.6V | 08:30:00 | 01:40:53 | 00:00:00 | |
| HSKMA3-T | 2026-09-05 00:10:17 | 48.88765 | 10.59779 | 94° | 22km/h | 24653m | 4.8m/s | -52.1°C | 0.9% | 28.3hPa | 2.6V | 18:12:15 | 01:40:55 | 00:00:00 | |
| DL1NUX | 2026-09-05 00:10:16 | 48.88765 | 10.59770 | 98° | 24km/h | 24648m | 5.4m/s | -52.1°C | 4% | 28.4hPa | 2.6V | 08:30:00 | 01:40:54 | 00:00:00 | |
| DK7TD | 2026-09-05 00:10:13 | 48.88771 | 10.59748 | 130° | 20km/h | 24631m | 4.4m/s | -52.1°C | 0.9% | 28.4hPa | 2.5V | 18:12:15 | 01:40:51 | 00:00:00 | |
| OE5DRO-10 | 2026-09-05 00:10:11 | 48.88777 | 10.59737 | 126° | 15km/h | 24621m | 5.8m/s | -52.1°C | 4.0% | 28.4hPa | 2.6V | 00:00:00 | 00:00:00 | 00:00:00 | |
| DB0UT-7 | 2026-09-05 00:10:10 | 48.88779 | 10.59733 | 110° | 15km/h | 24615m | 5.7m/s | -52.1°C | 4.0% | 28.4hPa | 2.6V | 00:00:00 | 01:40:48 | 08:30:00 | |
| DL1XH1-15 | 2026-09-05 00:10:09 | 48.88780 | 10.59694 | 86° | 22km/h | 24583m | 6.6m/s | -52°C | 3.9% | 28.6hPa | 2.6V | 08:30:00 | 01:40:42 | 00:00:00 | |
| DL1XH-west | 2026-09-05 00:10:07 | 48.88780 | 10.59717 | 94° | 16km/h | 24599m | 6m/s | -52.1°C | 0.8% | 28.6hPa | 2.5V | 18:12:15 | 01:40:45 | 00:00:00 | |
| DL1NUX | 2026-09-05 00:10:06 | 48.88780 | 10.59710 | 96° | 18km/h | 24593m | 5.1m/s | -52°C | 3.9% | 28.6hPa | 2.5V | 08:30:00 | 01:40:44 | 00:00:00 | |
| HSKMA3-T | 2026-09-05 00:10:06 | 48.88780 | 10.59710 | 97° | 18km/h | 24593m | 5.1m/s | -52°C | 0.8% | 28.6hPa | 2.5V | 18:12:15 | 01:40:44 | 00:00:00 | |
| AM1SDL-15 | 2026-09-05 00:10:06 | 48.88780 | 10.59710 | 97° | 15km/h | 24594m | 5.0m/s | -52.0°C | 3.9% | 28.5hPa | 2.5V | 00:00:00 | 01:40:44 | 00:00:00 | |
| DO3MHA-11 | 2026-09-05 00:10:04 | 48.88780 | 10.59694 | 87° | 13km/h | 24583m | 6.6m/s | -51.9°C | 3.9% | 28.6hPa | 2.5V | 00:00:00 | 01:40:42 | 00:00:00 | |
| DM7RM-13 | 2026-09-05 00:10:03 | 48.88780 | 10.59694 | 88° | 22km/h | 24583m | 6.6m/s | -52.0°C | 1.2% | 28.6hPa | 2.5V | 00:00:00 | 00:00:00 | 00:00:00 | |
| DM0DOS-11 | 2026-09-05 00:10:02 | 48.88777 | 10.59659 | 20° | 7km/h | 24543m | 5.5m/s | -51.8°C | 3.9% | 28.8hPa | 2.5V | 08:30:00 | 01:40:35 | 00:00:00 | |
| DK7TD | 2026-09-05 00:10:02 | 48.88779 | 10.59678 | 84° | 20km/h | 24572m | 4.7m/s | -52°C | 0.8% | 28.7hPa | 2.5V | 18:12:15 | 01:40:40 | 00:00:00 | |
| DL6DJ-15 | 2026-09-05 00:10:01 | 48.88779 | 10.59665 | 91° | 11km/h | 24560m | 5.8m/s | -51.9°C | 1.1% | 28.7hPa | 2.6V | 00:00:00 | 00:00:00 | 00:00:00 | |
| PG1ADW-2 | 2026-09-05 00:10:00 | 48.88779 | 10.59665 | 92° | 13km/h | 24561m | 5.7m/s | -51.9°C | 4.0% | 28.6hPa | 2.6V | 00:00:00 | 00:00:00 | 00:00:00 | |
| DL1XH1-15 | 2026-09-05 00:09:59 | 48.88771 | 10.59653 | 58° | 9km/h | 24528m | 6m/s | -51.9°C | 3.9% | 28.9hPa | 2.6V | 08:30:00 | 01:40:32 | 00:00:00 | |
| DL1XH-west | 2026-09-05 00:09:56 | 48.88775 | 10.59657 | 25° | 9km/h | 24538m | 4.2m/s | -51.8°C | 0.8% | 28.8hPa | 2.5V | 18:12:15 | 01:40:34 | 00:00:00 | |
| HSKMA3-T | 2026-09-05 00:09:55 | 48.88773 | 10.59656 | 37° | 9km/h | 24533m | 5.3m/s | -51.8°C | 0.8% | 28.9hPa | 2.6V | 18:12:15 | 01:40:33 | 00:00:00 | |
| DK7TD | 2026-09-05 00:09:51 | 48.88768 | 10.59637 | 69° | 18km/h | 24511m | 6.6m/s | -52°C | 0.8% | 28.9hPa | 2.5V | 18:12:15 | 01:40:29 | 00:00:00 | |
| DL1XH1-15 | 2026-09-05 00:09:49 | 48.88750 | 10.59602 | 13° | 13km/h | 24472m | 6.5m/s | -52.1°C | 4% | 29.1hPa | 2.6V | 08:30:00 | 01:40:22 | 00:00:00 | |
| DL1XH-west | 2026-09-05 00:09:46 | 48.88755 | 10.59607 | 49° | 13km/h | 24483m | 5.5m/s | -52.1°C | 0.8% | 29.1hPa | 2.5V | 18:12:15 | 01:40:24 | 00:00:00 | |
| HSKMA3-T | 2026-09-05 00:09:44 | 48.88750 | 10.59602 | 14° | 13km/h | 24472m | 6.5m/s | -52.1°C | 0.9% | 29.1hPa | 2.6V | 18:12:15 | 01:40:22 | 00:00:00 | |
| DO3MHA-11 | 2026-09-05 00:09:44 | 48.88750 | 10.59602 | 14° | 16km/h | 24472m | 6.5m/s | -52.0°C | 4.0% | 29.1hPa | 2.6V | 00:00:00 | 01:40:22 | 00:00:00 | |
| DM0DOS-11 | 2026-09-05 00:09:42 | 48.88723 | 10.59599 | 17° | 18km/h | 24433m | 6m/s | -52°C | 3.9% | 29.3hPa | 2.6V | 08:30:00 | 01:40:15 | 00:00:00 | |
| DK7TD | 2026-09-05 00:09:40 | 48.88734 | 10.59602 | 359° | 15km/h | 24450m | 5.9m/s | -52°C | 0.9% | 29.2hPa | 2.5V | 18:12:15 | 01:40:18 | 00:00:00 | |
| DB0UT-7 | 2026-09-05 00:09:40 | 48.88734 | 10.59602 | 360° | 15km/h | 24450m | 5.9m/s | -52.0°C | 4.0% | 29.2hPa | 2.6V | 00:00:00 | 00:00:00 | 00:00:00 | |
| DL1XH1-15 | 2026-09-05 00:09:39 | 48.88710 | 10.59588 | 45° | 18km/h | 24418m | 6.5m/s | -51.9°C | 3.9% | 29.4hPa | 2.6V | 08:30:00 | 01:40:12 | 00:00:00 | |
| DO3MHA-12 | 2026-09-05 00:09:38 | 48.88727 | 10.59601 | 13° | 15km/h | 24440m | 5.5m/s | -51.9°C | 3.9% | 29.2hPa | 2.5V | 00:00:00 | 01:40:16 | 00:00:00 | |
| DL1NUX | 2026-09-05 00:09:36 | 48.88718 | 10.59597 | 25° | 20km/h | 24428m | 4.5m/s | -51.9°C | 4% | 29.3hPa | 2.5V | 08:30:00 | 01:40:14 | 00:00:00 | |
| DL1XH-west | 2026-09-05 00:09:35 | 48.88714 | 10.59593 | 34° | 20km/h | 24424m | 4.6m/s | -51.9°C | 0.8% | 29.3hPa | 2.5V | 18:12:15 | 01:40:13 | 00:00:00 | |
| DF8AY | 2026-09-05 00:09:34 | 48.88707 | 10.59583 | 62° | 16km/h | 24412m | 5.9m/s | -51.8°C | 0.8% | 29.4hPa | 2.6V | 18:12:15 | 01:40:11 | 00:00:00 | |
| HSKMA3-T | 2026-09-05 00:09:34 | 48.88710 | 10.59588 | 46° | 18km/h | 24418m | 6.5m/s | -51.9°C | 0.8% | 29.4hPa | 2.6V | 18:12:15 | 01:40:12 | 00:00:00 | |
| BIOWL1-15 | 2026-09-05 00:09:34 | 48.88704 | 10.59574 | 60° | 13km/h | 24401m | 6m/s | -51.8°C | 0.8% | 29.4hPa | 2.6V | 18:12:15 | 01:40:09 | 00:00:00 | |
| DK7TD | 2026-09-05 00:09:30 | 48.88703 | 10.59570 | 39° | 11km/h | 24396m | 5.3m/s | -51.8°C | 0.8% | 29.5hPa | 2.5V | 18:12:15 | 01:40:08 | 00:00:00 | |
| DL6DJ-15 | 2026-09-05 00:09:30 | 48.88700 | 10.59569 | 15° | 7km/h | 24391m | 4.8m/s | -51.8°C | 1.1% | 29.5hPa | 2.6V | 00:00:00 | 00:00:00 | 00:00:00 | |
| DO3MHA-12 | 2026-09-05 00:09:28 | 48.88698 | 10.59568 | 355° | 11km/h | 24386m | 5.6m/s | -51.7°C | 3.8% | 29.5hPa | 2.6V | 00:00:00 | 01:40:06 | 00:00:00 | |
| DL1NUX | 2026-09-05 00:09:26 | 48.88695 | 10.59571 | 326° | 7km/h | 24374m | 5.1m/s | -51.8°C | 3.9% | 29.6hPa | 2.6V | 08:30:00 | 01:40:04 | 00:00:00 | |
| DL1XH-west | 2026-09-05 00:09:25 | 48.88693 | 10.59572 | 340° | 9km/h | 24369m | 5.1m/s | -51.8°C | 0.7% | 29.6hPa | 2.5V | 18:12:15 | 01:40:03 | 00:00:00 | |
| HSKMA3-T | 2026-09-05 00:09:24 | 48.88690 | 10.59573 | 354° | 13km/h | 24363m | 6.2m/s | -51.8°C | 0.7% | 29.6hPa | 2.5V | 18:12:15 | 01:40:02 | 00:00:00 | |
| DF8AY | 2026-09-05 00:09:22 | 48.88684 | 10.59571 | 28° | 15km/h | 24353m | 4.8m/s | -51.8°C | 0.7% | 29.7hPa | 2.6V | 18:12:15 | 01:40:00 | 00:00:00 | |
| DM0DOS-11 | 2026-09-05 00:09:22 | 48.88678 | 10.59549 | 75° | 15km/h | 24325m | 5.6m/s | -52°C | 3.9% | 29.8hPa | 2.6V | 08:30:00 | 01:39:55 | 00:00:00 | |
| DM7RM-13 | 2026-09-05 00:09:21 | 48.88684 | 10.59571 | 29° | 15km/h | 24353m | 4.8m/s | -51.8°C | 1.1% | 29.7hPa | 2.6V | 00:00:00 | 00:00:00 | 00:00:00 | |
| PG1ADW-2 | 2026-09-05 00:09:20 | 48.88680 | 10.59564 | 68° | 9km/h | 24342m | 5.4m/s | -51.8°C | 3.9% | 29.7hPa | 2.6V | 00:00:00 | 00:00:00 | 00:00:00 | |
| DL1XH1-15 | 2026-09-05 00:09:19 | 48.88677 | 10.59535 | 142° | 5km/h | 24304m | 5.7m/s | -52°C | 3.9% | 29.9hPa | 2.5V | 08:30:00 | 01:39:51 | 00:00:00 | |
| DK7TD | 2026-09-05 00:09:19 | 48.88679 | 10.59559 | 82° | 13km/h | 24336m | 4.6m/s | -51.9°C | 0.8% | 29.8hPa | 2.5V | 18:12:15 | 01:39:57 | 00:00:00 | |
| DL1XH-west | 2026-09-05 00:09:14 | 48.88676 | 10.59537 | 102° | 7km/h | 24310m | 6.5m/s | -52°C | 0.8% | 29.9hPa | 2.5V | 18:12:15 | 01:39:52 | 00:00:00 | |
| HSKMA3-T | 2026-09-05 00:09:13 | 48.88677 | 10.59535 | 142° | 5km/h | 24304m | 5.7m/s | -52°C | 0.8% | 29.9hPa | 2.5V | 18:12:15 | 01:39:51 | 00:00:00 | |
| DF8AY | 2026-09-05 00:09:11 | 48.88678 | 10.59535 | 211° | 2km/h | 24293m | 6.2m/s | -52°C | 0.8% | 29.9hPa | 2.6V | 18:12:15 | 01:39:49 | 00:00:00 | |
| DL1NUX | 2026-09-05 00:09:11 | 48.88677 | 10.59526 | 107° | 13km/h | 24266m | 5.2m/s | -52°C | 3.9% | 30.1hPa | 2.6V | 08:30:00 | 01:39:44 | 00:00:00 | |
| DK7TD | 2026-09-05 00:09:09 | 48.88677 | 10.59534 | 34° | 4km/h | 24283m | 4.4m/s | -52°C | 0.8% | 30hPa | 2.6V | 18:12:15 | 01:39:47 | 00:00:00 | |
| BIOWL1-15 | 2026-09-05 00:09:08 | 48.88677 | 10.59533 | 70° | 5km/h | 24278m | 5.3m/s | -52°C | 0.8% | 30hPa | 2.5V | 18:12:15 | 01:39:46 | 00:00:00 | |
| DL1XH-west | 2026-09-05 00:09:03 | 48.88680 | 10.59510 | 103° | 15km/h | 24250m | 5.1m/s | -52°C | 0.8% | 30.1hPa | 2.5V | 18:12:15 | 01:39:41 | 00:00:00 | |
| HSKMA3-T | 2026-09-05 00:09:02 | 48.88681 | 10.59504 | 107° | 15km/h | 24245m | 4.9m/s | -52°C | 0.8% | 30.1hPa | 2.5V | 18:12:15 | 01:39:40 | 00:00:00 | |
| DF8AY | 2026-09-05 00:09:00 | 48.88685 | 10.59494 | 131° | 16km/h | 24233m | 6m/s | -52°C | 0.8% | 30.2hPa | 2.6V | 18:12:15 | 01:39:38 | 00:00:00 | |
| DK7TD | 2026-09-05 00:08:59 | 48.88688 | 10.59490 | 141° | 16km/h | 24228m | 4.8m/s | -52°C | 0.7% | 30.2hPa | 2.6V | 18:12:15 | 01:39:37 | 00:00:00 | |
| BIOWL1-15 | 2026-09-05 00:08:53 | 48.88700 | 10.59477 | 139° | 13km/h | 24197m | 5.5m/s | -52.1°C | 0.8% | 30.4hPa | 2.6V | 18:12:15 | 01:39:31 | 00:00:00 | |
| DL1XH-west | 2026-09-05 00:08:52 | 48.88703 | 10.59473 | 129° | 16km/h | 24191m | 4.9m/s | -52.1°C | 0.8% | 30.4hPa | 2.5V | 18:12:15 | 01:39:30 | 00:00:00 | |
| DM0DOS-11 | 2026-09-05 00:08:52 | 48.88709 | 10.59435 | 102° | 26km/h | 24163m | 6.3m/s | -52.4°C | 4% | 30.5hPa | 2.6V | 08:30:00 | 01:39:25 | 00:00:00 | |
| HSKMA3-T | 2026-09-05 00:08:51 | 48.88705 | 10.59467 | 117° | 18km/h | 24186m | 5.4m/s | -52.1°C | 0.8% | 30.4hPa | 2.5V | 18:12:15 | 01:39:29 | 00:00:00 | |
| DF8AY | 2026-09-05 00:08:49 | 48.88708 | 10.59453 | 97° | 22km/h | 24174m | 5.5m/s | -52.3°C | 0.8% | 30.5hPa | 2.6V | 18:12:15 | 01:39:27 | 00:00:00 | |
| DK7TD | 2026-09-05 00:08:48 | 48.88708 | 10.59444 | 96° | 24km/h | 24169m | 4.8m/s | -52.3°C | 0.9% | 30.5hPa | 2.6V | 18:12:15 | 01:39:26 | 00:00:00 | |
| EDDB2-11 | 2026-09-05 00:08:46 | 48.88711 | 10.59425 | 108° | 26km/h | 24158m | 5.3m/s | -52.4°C | 1.1% | 30.6hPa | 2.6V | 00:00:00 | 00:00:00 | 00:00:00 | |
| BIOWL1-15 | 2026-09-05 00:08:43 | 48.88718 | 10.59393 | 108° | 16km/h | 24136m | 5.1m/s | -52.4°C | 0.9% | 30.7hPa | 2.6V | 18:12:15 | 01:39:20 | 00:00:00 | |
| DM0DOS-11 | 2026-09-05 00:08:42 | 48.88723 | 10.59367 | 75° | 15km/h | 24108m | 6.1m/s | -52.5°C | 4% | 30.8hPa | 2.6V | 08:30:00 | 01:39:15 | 00:00:00 | |
| DL1XH-west | 2026-09-05 00:08:41 | 48.88720 | 10.59387 | 114° | 15km/h | 24130m | 6.4m/s | -52.4°C | 0.9% | 30.7hPa | 2.5V | 18:12:15 | 01:39:19 | 00:00:00 | |
| DL1NUX | 2026-09-05 00:08:41 | 48.88722 | 10.59361 | 68° | 18km/h | 24103m | 5.4m/s | -52.5°C | 4% | 30.8hPa | 2.6V | 08:30:00 | 01:39:14 | 00:00:00 | |
| HSKMA3-T | 2026-09-05 00:08:40 | 48.88721 | 10.59382 | 119° | 15km/h | 24125m | 5.2m/s | -52.5°C | 0.9% | 30.7hPa | 2.5V | 18:12:15 | 01:39:18 | 00:00:00 | |
| DF8AY | 2026-09-05 00:08:39 | 48.88723 | 10.59377 | 112° | 13km/h | 24120m | 4.5m/s | -52.5°C | 0.8% | 30.8hPa | 2.5V | 18:12:15 | 01:39:17 | 00:00:00 | |
| DK7TD | 2026-09-05 00:08:38 | 48.88724 | 10.59373 | 95° | 13km/h | 24115m | 6m/s | -52.5°C | 0.9% | 30.8hPa | 2.6V | 18:12:15 | 01:39:16 | 00:00:00 | |
| BIOWL1-15 | 2026-09-05 00:08:32 | 48.88717 | 10.59327 | 82° | 26km/h | 24080m | 5.5m/s | -52.5°C | 0.8% | 30.9hPa | 2.6V | 18:12:15 | 01:39:10 | 00:00:00 | |
| DM0DOS-11 | 2026-09-05 00:08:32 | 48.88713 | 10.59292 | 96° | 7km/h | 24052m | 5.4m/s | -52.4°C | 3.9% | 31.1hPa | 2.6V | 08:30:00 | 01:39:05 | 00:00:00 | |
| DL1XH-west | 2026-09-05 00:08:31 | 48.88715 | 10.59309 | 75° | 22km/h | 24069m | 4.9m/s | -52.4°C | 0.8% | 31hPa | 2.5V | 18:12:15 | 01:39:08 | 00:00:00 | |
| HSKMA3-T | 2026-09-05 00:08:29 | 48.88713 | 10.59302 | 77° | 16km/h | 24064m | 4.9m/s | -52.4°C | 0.8% | 31hPa | 2.5V | 18:12:15 | 01:39:07 | 00:00:00 | |
| DF8AY | 2026-09-05 00:08:28 | 48.88713 | 10.59296 | 85° | 13km/h | 24058m | 6.5m/s | -52.4°C | 0.8% | 31hPa | 2.6V | 18:12:15 | 01:39:06 | 00:00:00 | |
| DK7TD | 2026-09-05 00:08:27 | 48.88713 | 10.59292 | 97° | 7km/h | 24052m | 5.4m/s | -52.4°C | 0.8% | 31.1hPa | 2.6V | 18:12:15 | 01:39:05 | 00:00:00 | |
| DL1NUX | 2026-09-05 00:08:26 | 48.88713 | 10.59290 | 86° | 5km/h | 24047m | 4.6m/s | -52.4°C | 3.9% | 31.1hPa | 2.6V | 08:30:00 | 01:39:04 | 00:00:00 | |
| DF1GD-15 | 2026-09-05 00:08:25 | 48.88713 | 10.59290 | 87° | 5km/h | 24048m | 4.6m/s | -52.4°C | 1.2% | 31.1hPa | 2.6V | 00:00:00 | 00:00:00 | 00:00:00 | |
| DO3MHA-11 | 2026-09-05 00:08:23 | 48.88708 | 10.59285 | 30° | 16km/h | 24030m | 5.2m/s | -52.4°C | 4.0% | 31.1hPa | 2.6V | 00:00:00 | 01:39:01 | 00:00:00 | |
| DM0DOS-11 | 2026-09-05 00:08:22 | 48.88598 | 10.59192 | 5° | 18km/h | 23863m | 6.2m/s | -52.9°C | 4.2% | 32hPa | 2.6V | 08:30:00 | 01:38:30 | 00:00:00 | |
| BIOWL1-15 | 2026-09-05 00:08:21 | 48.88585 | 10.59189 | 40° | 7km/h | 23841m | 5.3m/s | -52.9°C | 0.9% | 32.1hPa | 2.6V | 18:12:15 | 01:38:26 | 00:00:00 | |
| DL1XH1-15 | 2026-09-05 00:08:21 | 48.88594 | 10.59192 | 3° | 16km/h | 23857m | 4.8m/s | -52.9°C | 0% | 32hPa | 2.5V | 08:30:00 | 01:38:29 | 00:00:00 | |
| SONCRA | 2026-09-05 00:08:21 | 48.88700 | 10.59273 | 52° | 20km/h | 24013m | 5.2m/s | -52.6°C | 1.2% | 31.3hPa | 2.5V | 00:00:00 | 00:00:00 | 00:00:00 | |
| DL1XH-west | 2026-09-05 00:08:20 | 48.88594 | 10.59192 | 3° | 16km/h | 23857m | 4.8m/s | -52.9°C | 1% | 32hPa | 2.5V | 18:12:15 | 01:38:29 | 00:00:00 | |
| PG1ADW-2 | 2026-09-05 00:08:20 | 48.88699 | 10.59273 | 53° | 20km/h | 24013m | 5.1m/s | -52.6°C | 4.0% | 31.2hPa | 2.6V | 00:00:00 | 00:00:00 | 00:00:00 | |
| DM7RM-13 | 2026-09-05 00:08:19 | 48.88700 | 10.59272 | 53° | 22km/h | 24013m | 5.2m/s | -52.6°C | 1.2% | 31.3hPa | 2.6V | 00:00:00 | 00:00:00 | 00:00:00 | |
| DF8AY | 2026-09-05 00:08:18 | 48.88611 | 10.59195 | 2° | 15km/h | 23879m | 6m/s | -52.9°C | 0.9% | 31.9hPa | 2.6V | 18:12:15 | 01:38:33 | 00:00:00 | |
| DK7TD | 2026-09-05 00:08:17 | 48.88621 | 10.59192 | 353° | 13km/h | 23895m | 5.8m/s | -52.9°C | 0.9% | 31.8hPa | 2.6V | 18:12:15 | 01:38:36 | 00:00:00 | |
| HARRO8 | 2026-09-05 00:08:17 | 48.88671 | 10.59214 | 8° | 20km/h | 23956m | 5.2m/s | -52.8°C | 1.2% | 31.5hPa | 2.5V | 00:00:00 | 00:00:00 | 00:00:00 | |
| DL1XH-west | 2026-09-05 00:08:16 | 48.88590 | 10.59191 | 8° | 13km/h | 23853m | 4.7m/s | -52.9°C | 1% | 32hPa | 2.5V | 18:12:15 | 01:38:28 | 00:00:00 | |
| DK7TD | 2026-09-05 00:08:16 | 48.88618 | 10.59193 | 347° | 15km/h | 23890m | 4.5m/s | -52.9°C | 1% | 31.9hPa | 2.5V | 18:12:15 | 01:38:35 | 00:00:00 | |
| AM1SDL-15 | 2026-09-05 00:08:16 | 48.88655 | 10.59206 | 22° | 16km/h | 23940m | 4.5m/s | -52.8°C | 4.1% | 31.6hPa | 2.6V | 00:00:00 | 01:38:44 | 00:00:00 | |
| S52SK | 2026-09-05 00:08:15 | 48.88655 | 10.59206 | 23° | 22km/h | 23940m | 4.5m/s | -52.8°C | 0% | 31.6hPa | 2.6V | 00:00:00 | 00:00:00 | 00:00:00 | |
| DL1NUX | 2026-09-05 00:08:14 | 48.88622 | 10.59192 | 352° | 13km/h | 23895m | 5.8m/s | -52.9°C | 4.1% | 31.8hPa | 2.6V | 08:30:00 | 01:38:36 | 00:00:00 | |
| IW2NTF | 2026-09-05 00:08:14 | 48.88587 | 10.59190 | 19° | 11km/h | 23847m | 6.5m/s | -52.9°C | 0% | 32.1hPa | 2.6V | 00:00:00 | 01:38:27 | 00:00:00 | |
| DK7TD | 2026-09-05 00:08:08 | 48.88614 | 10.59194 | 351° | 15km/h | 23885m | 5.2m/s | -52.9°C | 0.9% | 31.9hPa | 2.5V | 18:12:15 | 01:38:34 | 00:00:00 | |
| HSKMA3-T | 2026-09-05 00:08:06 | 48.88587 | 10.59190 | 19° | 11km/h | 23847m | 6.5m/s | -52.9°C | 1% | 32.1hPa | 2.6V | 18:12:15 | 01:38:27 | 00:00:00 | |
| DM0DOS-11 | 2026-09-05 00:08:05 | 48.88594 | 10.59192 | 3° | 16km/h | 23857m | 4.8m/s | -52.9°C | 4.2% | 32hPa | 2.5V | 08:30:00 | 01:38:29 | 00:00:00 | |
| DL1ZP-14 | 2026-09-05 00:08:04 | 48.88640 | 10.59200 | 11° | 18km/h | 23923m | 4.9m/s | -52.8°C | 1.2% | 31.7hPa | 2.6V | 00:00:00 | 00:00:00 | 00:00:00 | |
| SONCRA | 2026-09-05 00:08:00 | 48.88587 | 10.59190 | 19° | 9km/h | 23847m | 6.5m/s | -52.9°C | 1.2% | 32.1hPa | 2.6V | 00:00:00 | 00:00:00 | 00:00:00 | |
| DL1XH1-15 | 2026-09-05 00:07:58 | 48.88583 | 10.59189 | 297° | 7km/h | 23820m | 4.2m/s | -52.8°C | 0% | 32.2hPa | 2.6V | 08:30:00 | 01:38:22 | 00:00:00 | |
| DL1NUX | 2026-09-05 00:07:55 | 48.88585 | 10.59189 | 40° | 7km/h | 23841m | 5.3m/s | -52.9°C | 4.2% | 32.1hPa | 2.6V | 08:30:00 | 01:38:26 | 00:00:00 | |
| IW2NTF | 2026-09-05 00:07:52 | 48.88582 | 10.59191 | 313° | 7km/h | 23816m | 5.3m/s | -52.8°C | 0% | 32.2hPa | 2.6V | 00:00:00 | 01:38:21 | 00:00:00 | |
| DF8AY | 2026-09-05 00:07:47 | 48.88584 | 10.59187 | 53° | 4km/h | 23836m | 4.9m/s | -52.9°C | 0.9% | 32.1hPa | 2.6V | 18:12:15 | 01:38:25 | 00:00:00 | |
| DK7TD | 2026-09-05 00:07:46 | 48.88584 | 10.59187 | 351° | 2km/h | 23830m | 6m/s | -52.9°C | 0.9% | 32.2hPa | 2.5V | 18:12:15 | 01:38:24 | 00:00:00 | |
| DL1XH-west | 2026-09-05 00:07:45 | 48.88584 | 10.59187 | 293° | 4km/h | 23825m | 5.2m/s | -52.9°C | 0.9% | 32.2hPa | 2.5V | 18:12:15 | 01:38:23 | 00:00:00 | |
| EDDB2-11 | 2026-09-05 00:07:44 | 48.88583 | 10.59189 | 297° | 5km/h | 23820m | 4.2m/s | -52.8°C | 1.2% | 32.2hPa | 2.6V | 00:00:00 | 00:00:00 | 00:00:00 | |
| HSKMA3-T | 2026-09-05 00:07:41 | 48.88579 | 10.59193 | 356° | 7km/h | 23804m | 5m/s | -52.8°C | 0.9% | 32.3hPa | 2.6V | 18:12:15 | 01:38:19 | 00:00:00 | |
| DB0UT-7 | 2026-09-05 00:07:40 | 48.88577 | 10.59193 | 354° | 9km/h | 23799m | 5.2m/s | -52.7°C | 4.1% | 32.3hPa | 2.6V | 00:00:00 | 00:00:00 | 00:00:00 | |
| DL1NUX | 2026-09-05 00:07:39 | 48.88570 | 10.59196 | 340° | 15km/h | 23788m | 4.9m/s | -52.8°C | 4.1% | 32.4hPa | 2.6V | 08:30:00 | 01:38:16 | 00:00:00 | |
| OE5DRO-10 | 2026-09-05 00:07:39 | 48.88574 | 10.59194 | 346° | 9km/h | 23794m | 6.1m/s | -52.7°C | 4.1% | 32.3hPa | 2.5V | 00:00:00 | 00:00:00 | 00:00:00 | |
| IW2NTF | 2026-09-05 00:07:38 | 48.88558 | 10.59196 | 20° | 7km/h | 23763m | 4.7m/s | -52.9°C | 0% | 32.5hPa | 2.6V | 00:00:00 | 01:38:11 | 00:00:00 | |
| DK7TD | 2026-09-05 00:07:36 | 48.88564 | 10.59198 | 354° | 11km/h | 23778m | 5.9m/s | -52.8°C | 0.9% | 32.4hPa | 2.6V | 18:12:15 | 01:38:14 | 00:00:00 | |
| DL1XH-west | 2026-09-05 00:07:34 | 48.88560 | 10.59197 | 29° | 7km/h | 23767m | 4.6m/s | -52.9°C | 1% | 32.5hPa | 2.6V | 18:12:15 | 01:38:12 | 00:00:00 | |
| HSKMA3-T | 2026-09-05 00:07:30 | 48.88554 | 10.59198 | 312° | 7km/h | 23747m | 5.1m/s | -52.9°C | 1% | 32.6hPa | 2.5V | 18:12:15 | 01:38:08 | 00:00:00 | |
| DL1NUX | 2026-09-05 00:07:29 | 48.88552 | 10.59201 | 301° | 5km/h | 23736m | 4.7m/s | -52.9°C | 4.2% | 32.6hPa | 2.6V | 08:30:00 | 01:38:06 | 00:00:00 | |
| DK7TD | 2026-09-05 00:07:26 | 48.88550 | 10.59206 | 299° | 9km/h | 23726m | 6.2m/s | -52.9°C | 1% | 32.7hPa | 2.6V | 18:12:15 | 01:38:04 | 00:00:00 | |
| BIOWL1-15 | 2026-09-05 00:07:25 | 48.88538 | 10.59213 | 352° | 7km/h | 23689m | 5.6m/s | -52.7°C | 1% | 32.9hPa | 2.5V | 18:12:15 | 01:37:57 | 00:00:00 | |
| DF8AY | 2026-09-05 00:07:25 | 48.88549 | 10.59209 | 305° | 11km/h | 23720m | 5.4m/s | -52.8°C | 0.9% | 32.7hPa | 2.6V | 18:12:15 | 01:38:03 | 00:00:00 | |
| DL1XH-west | 2026-09-05 00:07:24 | 48.88547 | 10.59212 | 314° | 11km/h | 23715m | 4.5m/s | -52.8°C | 1% | 32.8hPa | 2.5V | 18:12:15 | 01:38:02 | 00:00:00 | |
| DO3MHA-11 | 2026-09-05 00:07:23 | 48.88545 | 10.59214 | 332° | 7km/h | 23710m | 5.9m/s | -52.7°C | 4.2% | 32.7hPa | 2.6V | 00:00:00 | 01:38:01 | 08:30:00 | |
| DL1XH1-15 | 2026-09-05 00:07:22 | 48.88535 | 10.59218 | 263° | 5km/h | 23675m | 5.5m/s | -52.6°C | 0% | 33hPa | 2.6V | 08:30:00 | 01:37:54 | 00:00:00 | |
| HSKMA3-T | 2026-09-05 00:07:20 | 48.88540 | 10.59213 | 17° | 7km/h | 23695m | 5m/s | -52.7°C | 1% | 32.9hPa | 2.6V | 18:12:15 | 01:37:58 | 00:00:00 | |
| PG1ADW-2 | 2026-09-05 00:07:20 | 48.88540 | 10.59213 | 18° | 7km/h | 23695m | 5.0m/s | -52.7°C | 4.2% | 32.8hPa | 2.6V | 00:00:00 | 00:00:00 | 08:30:00 | |
| DL1NUX | 2026-09-05 00:07:19 | 48.88536 | 10.59214 | 321° | 7km/h | 23684m | 4.6m/s | -52.7°C | 4.2% | 32.9hPa | 2.6V | 08:30:00 | 01:37:56 | 00:00:00 | |
| DK7TD | 2026-09-05 00:07:16 | 48.88535 | 10.59218 | 264° | 5km/h | 23675m | 5.5m/s | -52.6°C | 1% | 33hPa | 2.6V | 18:12:15 | 01:37:54 | 00:00:00 | |
| DF8AY | 2026-09-05 00:07:15 | 48.88535 | 10.59220 | 230° | 5km/h | 23669m | 5.5m/s | -52.6°C | 0.9% | 33hPa | 2.6V | 18:12:15 | 01:37:53 | 00:00:00 | |
| DL1XH-west | 2026-09-05 00:07:14 | 48.88537 | 10.59222 | 217° | 7km/h | 23664m | 4.6m/s | -52.5°C | 0.9% | 33hPa | 2.6V | 18:12:15 | 01:37:52 | 00:00:00 | |
| DO3MHA-11 | 2026-09-05 00:07:13 | 48.88538 | 10.59224 | 227° | 7km/h | 23660m | 3.9m/s | -52.5°C | 4.1% | 33.0hPa | 2.6V | 00:00:00 | 01:37:51 | 00:00:00 | |
| DM0DOS-11 | 2026-09-05 00:07:12 | 48.88541 | 10.59231 | 255° | 13km/h | 23650m | 5.5m/s | -52.5°C | 4.1% | 33.1hPa | 2.6V | 08:30:00 | 01:37:49 | 00:00:00 | |
| DF8AY | 2026-09-05 00:07:10 | 48.88545 | 10.59250 | 110° | 2km/h | 23614m | 4.4m/s | -52.3°C | 0.9% | 33.3hPa | 2.6V | 18:12:15 | 01:37:42 | 00:00:00 | |
| HSKMA3-T | 2026-09-05 00:07:10 | 48.88541 | 10.59236 | 258° | 13km/h | 23645m | 4.5m/s | -52.5°C | 0.9% | 33.1hPa | 2.6V | 18:12:15 | 01:37:48 | 00:00:00 | |
| BIOWL1-15 | 2026-09-05 00:07:09 | 48.88542 | 10.59241 | 254° | 13km/h | 23639m | 5.8m/s | -52.4°C | 0.8% | 33.1hPa | 2.6V | 18:12:15 | 01:37:47 | 00:00:00 | |
| OE5WHR-10 | 2026-09-05 00:07:09 | 48.88542 | 10.59241 | 254° | 9km/h | 23640m | 5.8m/s | -52.4°C | 4.0% | 33.1hPa | 2.6V | 00:00:00 | 00:00:00 | 08:30:00 | |
| DL1XH1-15 | 2026-09-05 00:07:08 | 48.88545 | 10.59249 | 246° | 4km/h | 23624m | 5.8m/s | -52.4°C | 0% | 33.2hPa | 2.6V | 08:30:00 | 01:37:44 | 00:00:00 | |
| DK7TD | 2026-09-05 00:07:05 | 48.88545 | 10.59250 | 263° | 2km/h | 23619m | 5.2m/s | 0°C | 0% | 33.2hPa | 2.6V | 18:12:15 | 01:37:43 | 00:00:00 | |
| DL1XH-west | 2026-09-05 00:07:03 | 48.88546 | 10.59249 | 124° | 5km/h | 23608m | 6.1m/s | -52.3°C | 0.9% | 33.3hPa | 2.6V | 18:12:15 | 01:37:41 | 00:00:00 | |
| DO3MHA-11 | 2026-09-05 00:07:03 | 48.88546 | 10.59249 | 124° | 9km/h | 23609m | 6.0m/s | -52.2°C | 4.0% | 33.2hPa | 2.6V | 00:00:00 | 01:37:41 | 00:00:00 | |
| DM0DOS-11 | 2026-09-05 00:07:02 | 48.88549 | 10.59244 | 140° | 11km/h | 23597m | 4.5m/s | -52.2°C | 4% | 33.4hPa | 2.6V | 08:30:00 | 01:37:39 | 00:00:00 | |
| BIOWL1-15 | 2026-09-05 00:06:59 | 48.88558 | 10.59242 | 194° | 11km/h | 23577m | 5.1m/s | -52.2°C | 0.8% | 33.4hPa | 2.5V | 18:12:15 | 01:37:35 | 00:00:00 | |
| HSKMA3-T | 2026-09-05 00:06:59 | 48.88553 | 10.59241 | 177° | 9km/h | 23587m | 5.2m/s | -52.1°C | 0.8% | 33.4hPa | 2.6V | 18:12:15 | 01:37:37 | 00:00:00 | |
| BIOWL9-15 | 2026-09-05 00:06:59 | 48.88572 | 10.59246 | 174° | 5km/h | 23547m | 3.6m/s | -52.2°C | 1.2% | 33.6hPa | 2.5V | 00:00:00 | 00:00:00 | 00:00:00 | |
| DO3MHA-12 | 2026-09-05 00:06:58 | 48.88555 | 10.59241 | 194° | 9km/h | 23582m | 4.0m/s | -52.1°C | 3.9% | 33.4hPa | 2.5V | 00:00:00 | 01:37:36 | 00:00:00 | |
| DL1XH1-15 | 2026-09-05 00:06:57 | 48.88560 | 10.59243 | 188° | 11km/h | 23572m | 5.7m/s | -52.2°C | 0% | 33.5hPa | 2.5V | 08:30:00 | 01:37:34 | 00:00:00 | |
| SO1NDE-10 | 2026-09-05 00:06:57 | 48.88558 | 10.59242 | 194° | 15km/h | 23577m | 5.0m/s | -52.1°C | 3.9% | 33.4hPa | 2.6V | 00:00:00 | 01:37:35 | 00:00:00 | |
| DJ8HS-15 | 2026-09-05 00:06:56 | 48.88560 | 10.59243 | 189° | 13km/h | 23572m | 5.7m/s | -52.1°C | 3.9% | 33.4hPa | 2.6V | 00:00:00 | 01:37:34 | 00:00:00 | |
| IW2NTF | 2026-09-05 00:06:55 | 48.88573 | 10.59245 | 151° | 9km/h | 23542m | 5.6m/s | 0°C | 0% | 0hPa | 2.6V | 00:00:00 | 01:37:28 | 00:00:00 | |
| DK7TD | 2026-09-05 00:06:54 | 48.88566 | 10.59244 | 188° | 9km/h | 23562m | 4.9m/s | 0°C | 0% | 0hPa | 2.6V | 18:12:15 | 01:37:32 | 00:00:00 | |
| DO3MHA-11 | 2026-09-05 00:06:53 | 48.88568 | 10.59244 | 197° | 13km/h | 23556m | 5.8m/s | -52.1°C | 4.0% | 33.5hPa | 2.6V | 00:00:00 | 01:37:31 | 00:00:00 | |
| DM0DOS-11 | 2026-09-05 00:06:52 | 48.88572 | 10.59246 | 174° | 7km/h | 23547m | 3.6m/s | -52.2°C | 4% | 33.6hPa | 2.5V | 08:30:00 | 01:37:29 | 00:00:00 | |
| DL1XH-west | 2026-09-05 00:06:52 | 48.88570 | 10.59245 | 199° | 7km/h | 23551m | 4.2m/s | -52.2°C | 0.8% | 33.6hPa | 2.6V | 18:12:15 | 01:37:30 | 00:00:00 | |
| DL1NUX | 2026-09-05 00:06:49 | 48.88579 | 10.59238 | 138° | 16km/h | 23532m | 4.8m/s | -52.3°C | 4% | 33.7hPa | 2.6V | 08:30:00 | 01:37:26 | 00:00:00 | |
| HSKMA3-T | 2026-09-05 00:06:49 | 48.88576 | 10.59242 | 141° | 15km/h | 23537m | 5.4m/s | -52.3°C | 0.8% | 33.7hPa | 2.6V | 18:12:15 | 01:37:27 | 00:00:00 | |
| DK7TD | 2026-09-05 00:06:44 | 48.88591 | 10.59225 | 154° | 13km/h | 23513m | 4.1m/s | 0°C | 0% | 0hPa | 2.6V | 18:12:15 | 01:37:22 | 00:00:00 | |
| BIOWL1-15 | 2026-09-05 00:06:44 | 48.88597 | 10.59220 | 156° | 16km/h | 23502m | 5.5m/s | -52.4°C | 0.9% | 33.8hPa | 2.6V | 18:12:15 | 01:37:20 | 00:00:00 | |
| DF2AP-13 | 2026-09-05 00:06:44 | 48.88591 | 10.59225 | 154° | 16km/h | 23513m | 4.1m/s | -52.3°C | 4.0% | 33.7hPa | 2.6V | 00:00:00 | 01:37:22 | 00:00:00 | |
| DO3MHA-11 | 2026-09-05 00:06:43 | 48.88594 | 10.59223 | 156° | 16km/h | 23508m | 5.7m/s | -52.3°C | 3.9% | 33.8hPa | 2.6V | 00:00:00 | 01:37:21 | 00:00:00 | |
| DM0DOS-11 | 2026-09-05 00:06:42 | 48.88601 | 10.59218 | 157° | 15km/h | 23497m | 4.9m/s | -52.5°C | 4% | 33.9hPa | 2.6V | 08:30:00 | 01:37:19 | 00:00:00 | |
| DL1XH-west | 2026-09-05 00:06:41 | 48.88601 | 10.59218 | 158° | 15km/h | 23497m | 4.9m/s | -52.5°C | 0.8% | 33.9hPa | 2.6V | 18:12:15 | 01:37:19 | 00:00:00 | |
| PG1ADW-2 | 2026-09-05 00:06:40 | 48.88604 | 10.59216 | 161° | 16km/h | 23492m | 5.7m/s | -52.5°C | 4.1% | 33.8hPa | 2.6V | 00:00:00 | 00:00:00 | 00:00:00 | |
| DL1NUX | 2026-09-05 00:06:39 | 48.88610 | 10.59212 | 142° | 13km/h | 23482m | 3.8m/s | -52.6°C | 4.1% | 33.9hPa | 2.6V | 08:30:00 | 01:37:16 | 00:00:00 | |
| HSKMA3-T | 2026-09-05 00:06:38 | 48.88610 | 10.59212 | 142° | 13km/h | 23482m | 3.8m/s | -52.7°C | 0.9% | 33.9hPa | 2.6V | 18:12:15 | 01:37:16 | 00:00:00 | |
| DL1XH1-15 | 2026-09-05 00:06:38 | 48.88615 | 10.59203 | 122° | 20km/h | 23472m | 5.8m/s | -52.6°C | 0% | 34hPa | 2.6V | 08:30:00 | 01:37:14 | 00:00:00 | |
| DF8AY | 2026-09-05 00:06:33 | 48.88622 | 10.59178 | 110° | 24km/h | 23456m | 5.6m/s | -52.7°C | 0.9% | 34.1hPa | 2.6V | 18:12:15 | 01:37:11 | 00:00:00 | |
| DO3MHA-11 | 2026-09-05 00:06:33 | 48.88622 | 10.59178 | 110° | 16km/h | 23457m | 5.6m/s | -52.6°C | 4.1% | 34.1hPa | 2.6V | 00:00:00 | 01:37:11 | 00:00:00 | |
| BIOWL1-15 | 2026-09-05 00:06:33 | 48.88627 | 10.59162 | 118° | 22km/h | 23447m | 4.9m/s | -52.7°C | 0.9% | 34.1hPa | 2.6V | 18:12:15 | 01:37:09 | 00:00:00 | |
| DM0DOS-11 | 2026-09-05 00:06:32 | 48.88626 | 10.59162 | 117° | 22km/h | 23447m | 4.9m/s | -52.7°C | 4.1% | 34.1hPa | 2.6V | 08:30:00 | 01:37:09 | 00:00:00 | |
| DL1XH-west | 2026-09-05 00:06:30 | 48.88630 | 10.59155 | 126° | 22km/h | 23442m | 5.5m/s | -52.7°C | 1% | 34.1hPa | 2.6V | 18:12:15 | 01:37:08 | 00:00:00 | |
| DL1ZP-14 | 2026-09-05 00:06:30 | 48.88630 | 10.59155 | 125° | 22km/h | 23442m | 5.5m/s | -52.7°C | 1.2% | 34.1hPa | 2.6V | 00:00:00 | 00:00:00 | 00:00:00 | |
| DL1NUX | 2026-09-05 00:06:29 | 48.88636 | 10.59143 | 137° | 18km/h | 23432m | 4.3m/s | -52.7°C | 4.1% | 34.2hPa | 2.6V | 08:30:00 | 01:37:06 | 00:00:00 | |
| HSKMA3-T | 2026-09-05 00:06:28 | 48.88636 | 10.59143 | 137° | 18km/h | 23432m | 4.3m/s | -52.7°C | 0.9% | 34.2hPa | 2.6V | 18:12:15 | 01:37:06 | 00:00:00 | |
| NBG1-10 | 2026-09-05 00:06:28 | 48.88636 | 10.59143 | 138° | 9km/h | 23433m | 4.3m/s | -52.7°C | 4.1% | 34.2hPa | 2.6V | 00:00:00 | 01:37:06 | 00:00:00 | |
| DL1XH1-15 | 2026-09-05 00:06:27 | 48.88643 | 10.59134 | 129° | 7km/h | 23417m | 4.1m/s | -52.7°C | 0% | 34.3hPa | 2.6V | 08:30:00 | 01:37:03 | 00:00:00 | |
| SO1NDE-10 | 2026-09-05 00:06:27 | 48.88639 | 10.59139 | 138° | 9km/h | 23428m | 5.9m/s | -52.7°C | 4.1% | 34.2hPa | 2.5V | 00:00:00 | 01:37:05 | 00:00:00 | |
| OE5WHR-10 | 2026-09-05 00:06:26 | 48.88641 | 10.59136 | 135° | 7km/h | 23422m | 4.7m/s | -52.7°C | 4.2% | 34.2hPa | 2.5V | 00:00:00 | 01:37:04 | 00:00:00 | |
| DO3MHA-11 | 2026-09-05 00:06:23 | 48.88645 | 10.59128 | 120° | 15km/h | 23408m | 4.7m/s | -52.6°C | 4.1% | 34.3hPa | 2.5V | 00:00:00 | 01:37:01 | 00:00:00 | |
| DM0DOS-11 | 2026-09-05 00:06:22 | 48.88648 | 10.59117 | 100° | 16km/h | 23399m | 4.4m/s | -52.6°C | 4.1% | 34.4hPa | 2.6V | 08:30:00 | 01:36:59 | 00:00:00 | |
| DL1XH-west | 2026-09-05 00:06:20 | 48.88648 | 10.59104 | 79° | 18km/h | 23388m | 4.9m/s | -52.5°C | 0.9% | 34.4hPa | 2.6V | 18:12:15 | 01:36:57 | 00:00:00 | |
| HSKMA3-T | 2026-09-05 00:06:17 | 48.88647 | 10.59092 | 87° | 15km/h | 23379m | 5.1m/s | -52.5°C | 0.9% | 34.5hPa | 2.5V | 18:12:15 | 01:36:55 | 00:00:00 | |
| SONDE2-11 | 2026-09-05 00:06:17 | 48.88647 | 10.59086 | 103° | 13km/h | 23374m | 5.1m/s | -52.4°C | 1.2% | 34.5hPa | 2.6V | 00:00:00 | 00:00:00 | 00:00:00 | |
| DJ8HS-15 | 2026-09-05 00:06:16 | 48.88647 | 10.59086 | 104° | 7km/h | 23374m | 5.1m/s | -52.4°C | 4.0% | 34.5hPa | 2.6V | 00:00:00 | 01:36:54 | 00:00:00 | |
| DM7RM-13 | 2026-09-05 00:06:15 | 48.88647 | 10.59086 | 104° | 13km/h | 23374m | 5.1m/s | -52.4°C | 1.2% | 34.5hPa | 2.6V | 00:00:00 | 00:00:00 | 00:00:00 | |
| DL1XH1-15 | 2026-09-05 00:06:14 | 48.88651 | 10.59072 | 116° | 4km/h | 23339m | 5.5m/s | -52.3°C | 0% | 34.7hPa | 2.6V | 08:30:00 | 01:36:47 | 00:00:00 | |
| DF2AP-13 | 2026-09-05 00:06:14 | 48.88649 | 10.59079 | 131° | 7km/h | 23365m | 4.2m/s | -52.3°C | 4.1% | 34.5hPa | 2.6V | 00:00:00 | 01:36:52 | 00:00:00 | |
| DO3MHA-11 | 2026-09-05 00:06:13 | 48.88651 | 10.59076 | 127° | 5km/h | 23360m | 5.5m/s | -52.3°C | 4.0% | 34.5hPa | 2.6V | 00:00:00 | 01:36:51 | 00:00:00 | |
| DM0DOS-11 | 2026-09-05 00:06:12 | 48.88651 | 10.59074 | 59° | 2km/h | 23350m | 4.1m/s | -52.3°C | 4% | 34.6hPa | 2.6V | 08:30:00 | 01:36:49 | 00:00:00 | |
| DF8AY | 2026-09-05 00:06:10 | 48.88651 | 10.59073 | 88° | 2km/h | 23345m | 5.6m/s | -52.3°C | 0.9% | 34.7hPa | 2.6V | 18:12:15 | 01:36:48 | 00:00:00 | |
| DL1NUX | 2026-09-05 00:06:09 | 48.88652 | 10.59071 | 103° | 5km/h | 23334m | 4.5m/s | -52.3°C | 4.1% | 34.8hPa | 2.6V | 08:30:00 | 01:36:46 | 00:00:00 | |
| DL1XH-west | 2026-09-05 00:06:08 | 48.88652 | 10.59071 | 103° | 5km/h | 23334m | 4.5m/s | -52.3°C | 0.9% | 34.8hPa | 2.6V | 18:12:15 | 01:36:46 | 00:00:00 | |
| HSKMA3-T | 2026-09-05 00:06:07 | 48.88652 | 10.59068 | 92° | 7km/h | 23329m | 6m/s | -52.3°C | 0.9% | 34.8hPa | 2.6V | 18:12:15 | 01:36:45 | 00:00:00 | |
| HARRO8 | 2026-09-05 00:06:05 | 48.88652 | 10.59057 | 108° | 9km/h | 23314m | 5.8m/s | -52.3°C | 1.2% | 34.9hPa | 2.6V | 00:00:00 | 00:00:00 | 00:00:00 | |
| DL1XH1-15 | 2026-09-05 00:06:03 | 48.88662 | 10.59048 | 189° | 5km/h | 23288m | 4.7m/s | -52.3°C | 0% | 35hPa | 2.6V | 08:30:00 | 01:36:37 | 00:00:00 | |
| BIOWL1-15 | 2026-09-05 00:06:02 | 48.88656 | 10.59050 | 151° | 11km/h | 23303m | 4.4m/s | -52.3°C | 0.9% | 34.9hPa | 2.5V | 18:12:15 | 01:36:40 | 00:00:00 | |
| DF8AY | 2026-09-05 00:05:59 | 48.88662 | 10.59048 | 190° | 5km/h | 23288m | 4.7m/s | -52.3°C | 0.9% | 35hPa | 2.6V | 18:12:15 | 01:36:37 | 00:00:00 | |
| DL1NUX | 2026-09-05 00:05:59 | 48.88663 | 10.59048 | 193° | 5km/h | 23283m | 4.6m/s | -52.2°C | 4% | 35hPa | 2.6V | 08:30:00 | 01:36:36 | 00:00:00 | |
| DL1XH-west | 2026-09-05 00:05:57 | 48.88664 | 10.59049 | 190° | 5km/h | 23278m | 5.9m/s | -52.2°C | 0.8% | 0hPa | 2.6V | 18:12:15 | 01:36:35 | 00:00:00 | |
| HSKMA3-T | 2026-09-05 00:05:56 | 48.88666 | 10.59049 | 175° | 5km/h | 23273m | 4.7m/s | -52.2°C | 0.9% | 35.1hPa | 2.6V | 18:12:15 | 01:36:34 | 00:00:00 | |
| DJ8HS-15 | 2026-09-05 00:05:56 | 48.88666 | 10.59049 | 176° | 5km/h | 23273m | 4.6m/s | -52.2°C | 4.0% | 35.0hPa | 2.6V | 00:00:00 | 01:36:34 | 00:00:00 | |
| NBG1-10 | 2026-09-05 00:05:55 | 48.88667 | 10.59048 | 144° | 7km/h | 23268m | 5.6m/s | -52.2°C | 4.0% | 35.0hPa | 2.6V | 00:00:00 | 01:36:33 | 00:00:00 | |
| DM7RM-13 | 2026-09-05 00:05:54 | 48.88667 | 10.59048 | 145° | 4km/h | 23268m | 5.6m/s | -52.2°C | 1.2% | 35.1hPa | 2.6V | 00:00:00 | 00:00:00 | 00:00:00 | |
| DO3MHA-11 | 2026-09-05 00:05:53 | 48.88667 | 10.59046 | 93° | 7km/h | 23257m | 4.3m/s | -52.1°C | 3.9% | 35.1hPa | 2.6V | 00:00:00 | 01:36:31 | 08:30:00 | |
| DL1XH1-15 | 2026-09-05 00:05:52 | 48.88675 | 10.59047 | 238° | 7km/h | 23225m | 4.9m/s | -52.2°C | 0% | 35.3hPa | 2.6V | 08:30:00 | 01:36:25 | 00:00:00 | |
| DF8AY | 2026-09-05 00:05:49 | 48.88672 | 10.59043 | 199° | 9km/h | 23237m | 5.2m/s | -52.2°C | 0.8% | 35.3hPa | 2.6V | 18:12:15 | 01:36:27 | 00:00:00 | |
| DL1NUX | 2026-09-05 00:05:49 | 48.88674 | 10.59044 | 218° | 7km/h | 23231m | 6m/s | -52.2°C | 3.9% | 35.3hPa | 2.6V | 08:30:00 | 01:36:26 | 00:00:00 | |
| DL1XH-west | 2026-09-05 00:05:47 | 48.88675 | 10.59047 | 239° | 7km/h | 23226m | 4.9m/s | -52.2°C | 0.8% | 0hPa | 2.6V | 18:12:15 | 01:36:25 | 00:00:00 | |
| HSKMA3-T | 2026-09-05 00:05:45 | 48.88678 | 10.59053 | 240° | 11km/h | 23216m | 5.9m/s | -52.2°C | 0.8% | 35.4hPa | 2.5V | 18:12:15 | 01:36:23 | 00:00:00 | |
| SONCRA | 2026-09-05 00:05:45 | 48.88678 | 10.59053 | 239° | 9km/h | 23216m | 5.9m/s | -52.2°C | 1.1% | 35.4hPa | 2.6V | 00:00:00 | 00:00:00 | 00:00:00 | |
| DF2AP-13 | 2026-09-05 00:05:44 | 48.88679 | 10.59056 | 232° | 9km/h | 23210m | 5.1m/s | 0°C | 0% | 0hPa | 2.6V | 00:00:00 | 01:36:22 | 00:00:00 | |
| DO3MHA-11 | 2026-09-05 00:05:43 | 48.88681 | 10.59059 | 227° | 5km/h | 23205m | 4.6m/s | -52.2°C | 3.9% | 35.4hPa | 2.6V | 00:00:00 | 01:36:21 | 00:00:00 | |
| DL1XH1-15 | 2026-09-05 00:05:42 | 48.88682 | 10.59059 | 143° | 5km/h | 23174m | 5.3m/s | -52.3°C | 0% | 35.6hPa | 2.6V | 08:30:00 | 01:36:15 | 00:00:00 | |
| DF8AY | 2026-09-05 00:05:39 | 48.88682 | 10.59061 | 60° | 4km/h | 23185m | 4.2m/s | -52.3°C | 0.9% | 35.5hPa | 2.6V | 18:12:15 | 01:36:17 | 00:00:00 | |
| DL1NUX | 2026-09-05 00:05:39 | 48.88681 | 10.59060 | 101° | 4km/h | 23179m | 5.8m/s | -52.3°C | 3.9% | 35.6hPa | 2.6V | 08:30:00 | 01:36:16 | 00:00:00 | |
| DL1XH-west | 2026-09-05 00:05:36 | 48.88683 | 10.59057 | 154° | 7km/h | 23169m | 4.6m/s | -52.3°C | 0.8% | 0hPa | 2.6V | 18:12:15 | 01:36:14 | 00:00:00 | |
| HSKMA3-T | 2026-09-05 00:05:35 | 48.88685 | 10.59056 | 158° | 5km/h | 23164m | 6m/s | -52.4°C | 0.8% | 35.7hPa | 2.6V | 18:12:15 | 01:36:13 | 00:00:00 | |
| HARRO8 | 2026-09-05 00:05:34 | 48.88688 | 10.59056 | 191° | 7km/h | 23153m | 5.4m/s | -52.5°C | 1.2% | 35.7hPa | 2.6V | 00:00:00 | 00:00:00 | 00:00:00 | |
| DO3MHA-11 | 2026-09-05 00:05:33 | 48.88688 | 10.59056 | 192° | 7km/h | 23153m | 5.3m/s | -52.4°C | 4.0% | 35.7hPa | 2.6V | 00:00:00 | 01:36:11 | 00:00:00 | |
| DL1XH1-15 | 2026-09-05 00:05:32 | 48.88698 | 10.59063 | 240° | 4km/h | 23122m | 5.8m/s | 0°C | 0% | 0hPa | 2.6V | 08:30:00 | 01:36:05 | 00:00:00 | |
| DM0DOS-11 | 2026-09-05 00:05:32 | 48.88693 | 10.59058 | 200° | 11km/h | 23142m | 4.4m/s | -52.6°C | 4% | 35.8hPa | 2.6V | 08:30:00 | 01:36:09 | 00:00:00 | |
| BIOWL1-15 | 2026-09-05 00:05:31 | 48.88697 | 10.59061 | 210° | 5km/h | 23132m | 5.8m/s | -52.7°C | 0.9% | 35.8hPa | 2.5V | 18:12:15 | 01:36:07 | 00:00:00 | |
| DK5PH-5 | 2026-09-05 00:05:30 | 48.88695 | 10.59060 | 205° | 13km/h | 23138m | 4.8m/s | -52.6°C | 4.0% | 35.8hPa | 2.6V | 00:00:00 | 01:36:08 | 00:00:00 | |
| DL1NUX | 2026-09-05 00:05:29 | 48.88697 | 10.59062 | 232° | 4km/h | 23127m | 4.8m/s | -52.8°C | 4.1% | 35.9hPa | 2.6V | 08:30:00 | 01:36:06 | 00:00:00 | |
| DF8AY | 2026-09-05 00:05:28 | 48.88697 | 10.59062 | 232° | 4km/h | 23127m | 4.8m/s | -52.8°C | 1% | 35.9hPa | 2.6V | 18:12:15 | 01:36:06 | 00:00:00 | |
| DL1XH-west | 2026-09-05 00:05:25 | 48.88700 | 10.59067 | 243° | 7km/h | 23111m | 4.5m/s | 0°C | 0% | 0hPa | 2.6V | 18:12:15 | 01:36:03 | 00:00:00 | |
| HSKMA3-T | 2026-09-05 00:05:24 | 48.88700 | 10.59070 | 247° | 7km/h | 23106m | 5.6m/s | -52.8°C | 0.9% | 36hPa | 2.6V | 18:12:15 | 01:36:02 | 00:00:00 | |
| DB0ND-19 | 2026-09-05 00:05:24 | 48.88700 | 10.59070 | 247° | 5km/h | 23106m | 5.6m/s | -52.8°C | 1.2% | 36.0hPa | 2.6V | 00:00:00 | 00:00:00 | 00:00:00 | |
| DO3MHA-11 | 2026-09-05 00:05:23 | 48.88701 | 10.59072 | 233° | 15km/h | 23100m | 5.4m/s | -52.7°C | 4.1% | 36.0hPa | 2.6V | 00:00:00 | 01:36:01 | 00:00:00 | |
| DM0DOS-11 | 2026-09-05 00:05:22 | 48.88704 | 10.59074 | 188° | 11km/h | 23089m | 5.9m/s | -52.7°C | 4.1% | 36.1hPa | 2.6V | 08:30:00 | 01:35:59 | 00:00:00 | |
| DL1XH1-15 | 2026-09-05 00:05:22 | 48.88722 | 10.59073 | 163° | 18km/h | 23070m | 6m/s | 0°C | 0% | 0hPa | 2.6V | 00:00:00 | 01:35:55 | 00:00:00 | |
| NBG1-10 | 2026-09-05 00:05:22 | 48.88702 | 10.59073 | 199° | 16km/h | 23095m | 5.1m/s | -52.7°C | 4.1% | 36.0hPa | 2.6V | 00:00:00 | 01:36:00 | 00:00:00 | |
| OE5DRO-10 | 2026-09-05 00:05:21 | 48.88704 | 10.59073 | 189° | 15km/h | 23090m | 5.9m/s | -52.7°C | 4.1% | 36.0hPa | 2.6V | 00:00:00 | 00:00:00 | 00:00:00 | |
| PG1ADW-2 | 2026-09-05 00:05:20 | 48.88708 | 10.59074 | 186° | 15km/h | 23084m | 5.3m/s | -52.7°C | 4.1% | 36.1hPa | 2.6V | 00:00:00 | 00:00:00 | 00:00:00 | |
| DL1NUX | 2026-09-05 00:05:19 | 48.88717 | 10.59074 | 173° | 20km/h | 23075m | 4.2m/s | -52.7°C | 4.1% | 36.2hPa | 2.5V | 08:30:00 | 01:35:56 | 00:00:00 | |
| DF8AY | 2026-09-05 00:05:18 | 48.88717 | 10.59074 | 174° | 20km/h | 23075m | 4.2m/s | -52.7°C | 0.9% | 36.2hPa | 2.5V | 18:12:15 | 01:35:56 | 00:00:00 | |
| BIOWL1-15 | 2026-09-05 00:05:18 | 48.88769 | 10.59006 | 114° | 13km/h | 22977m | 5.5m/s | -52.6°C | 0.9% | 36.7hPa | 2.6V | 18:12:15 | 01:35:37 | 00:00:00 | |
| DL1XH-west | 2026-09-05 00:05:14 | 48.88730 | 10.59063 | 126° | 13km/h | 23054m | 5m/s | 0°C | 0% | 0hPa | 2.6V | 18:12:15 | 01:35:52 | 00:00:00 | |
| DO3MHA-11 | 2026-09-05 00:05:13 | 48.88732 | 10.59059 | 133° | 13km/h | 23049m | 6.1m/s | -52.5°C | 4.1% | 36.3hPa | 2.6V | 00:00:00 | 01:35:51 | 00:00:00 | |
| DL1XH1-15 | 2026-09-05 00:05:12 | 48.88745 | 10.59046 | 144° | 15km/h | 23018m | 5.4m/s | 0°C | 0% | 0hPa | 2.6V | 00:00:00 | 01:35:45 | 00:00:00 | |
| DM0DOS-11 | 2026-09-05 00:05:12 | 48.88736 | 10.59056 | 158° | 9km/h | 23038m | 4m/s | -52.5°C | 4.1% | 36.4hPa | 2.6V | 08:30:00 | 01:35:49 | 00:00:00 | |
| DL1NUX | 2026-09-05 00:05:09 | 48.88743 | 10.59049 | 140° | 15km/h | 23023m | 5.2m/s | -52.5°C | 4% | 36.5hPa | 2.6V | 08:30:00 | 01:35:46 | 00:00:00 | |
| DF8AY | 2026-09-05 00:05:07 | 48.88746 | 10.59046 | 145° | 15km/h | 23018m | 5.4m/s | -52.4°C | 0.8% | 36.5hPa | 2.6V | 18:12:15 | 01:35:45 | 00:00:00 | |
| BIOWL1-15 | 2026-09-05 00:05:06 | 48.88770 | 10.59002 | 127° | 11km/h | 22972m | 4.4m/s | -52.6°C | 0.9% | 36.8hPa | 2.6V | 18:12:15 | 01:35:36 | 00:00:00 | |
| HSKMA3-T | 2026-09-05 00:05:03 | 48.88759 | 10.59031 | 134° | 20km/h | 22997m | 6m/s | -52.4°C | 0.9% | 36.6hPa | 2.6V | 18:12:15 | 01:35:41 | 00:00:00 | |
| DO3MHA-11 | 2026-09-05 00:05:03 | 48.88759 | 10.59031 | 134° | 16km/h | 22997m | 5.9m/s | -52.4°C | 4.0% | 36.5hPa | 2.6V | 00:00:00 | 01:35:41 | 00:00:00 | |
| DM0DOS-11 | 2026-09-05 00:05:02 | 48.88765 | 10.59018 | 116° | 20km/h | 22987m | 4.2m/s | -52.5°C | 4% | 36.7hPa | 2.6V | 08:30:00 | 01:35:39 | 00:00:00 | |
| DF8AY | 2026-09-05 00:04:57 | 48.88772 | 10.58999 | 137° | 11km/h | 22967m | 4.6m/s | -52.6°C | 0.9% | 36.8hPa | 2.6V | 18:12:15 | 01:35:35 | 00:00:00 | |
| SO1NDE-10 | 2026-09-05 00:04:57 | 48.88772 | 10.58999 | 138° | 22km/h | 22968m | 4.6m/s | -52.6°C | 4.1% | 36.7hPa | 2.6V | 00:00:00 | 01:35:35 | 00:00:00 | |
| IW2NTF | 2026-09-05 00:04:56 | 48.88784 | 10.58978 | 128° | 24km/h | 22947m | 4.9m/s | 0°C | 0% | 0hPa | 2.6V | 00:00:00 | 01:35:31 | 00:00:00 | |
| HSKMA3-T | 2026-09-05 00:04:53 | 48.88784 | 10.58978 | 128° | 24km/h | 22947m | 4.9m/s | -52.5°C | 0.9% | 36.9hPa | 2.6V | 18:12:15 | 01:35:31 | 00:00:00 | |
| DO3MHA-11 | 2026-09-05 00:04:53 | 48.88784 | 10.58978 | 129° | 22km/h | 22947m | 4.9m/s | -52.5°C | 4.1% | 36.9hPa | 2.6V | 00:00:00 | 01:35:31 | 00:00:00 | |
| DM0DOS-11 | 2026-09-05 00:04:52 | 48.88792 | 10.58965 | 132° | 20km/h | 22935m | 5.6m/s | -52.5°C | 4.1% | 37hPa | 2.6V | 08:30:00 | 01:35:29 | 00:00:00 | |
| DF8AY | 2026-09-05 00:04:47 | 48.88804 | 10.58939 | 120° | 24km/h | 22914m | 5.5m/s | -52.4°C | 0.8% | 37.1hPa | 2.6V | 18:12:15 | 01:35:25 | 00:00:00 | |
| OE5DXL-15 | 2026-09-05 00:04:47 | 48.88808 | 10.58930 | 122° | 22km/h | 22909m | 5.5m/s | -52.3°C | 4.0% | 37.1hPa | 2.6V | 00:00:00 | 00:00:00 | 08:30:00 | |
| SONDE2-11 | 2026-09-05 00:04:46 | 48.88818 | 10.58909 | 132° | 22km/h | 22893m | 3.9m/s | -52.4°C | 1.2% | 37.2hPa | 2.6V | 00:00:00 | 00:00:00 | 00:00:00 | |
| OE5DRO-10 | 2026-09-05 00:04:43 | 48.88818 | 10.58909 | 133° | 24km/h | 22893m | 3.9m/s | -52.4°C | 4.0% | 37.2hPa | 2.6V | 00:00:00 | 00:00:00 | 00:00:00 | |
| DM0DOS-11 | 2026-09-05 00:04:42 | 48.88826 | 10.58895 | 128° | 27km/h | 22882m | 6.1m/s | -52.5°C | 4% | 37.3hPa | 2.6V | 08:30:00 | 01:35:19 | 00:00:00 | |
| HSKMA3-T | 2026-09-05 00:04:42 | 48.88822 | 10.58902 | 132° | 26km/h | 22888m | 5.9m/s | -52.4°C | 0.8% | 37.2hPa | 2.6V | 18:12:15 | 01:35:20 | 00:00:00 | |
| IW2NTF | 2026-09-05 00:04:40 | 48.88835 | 10.58878 | 125° | 26km/h | 22871m | 5.1m/s | 0°C | 0% | 0hPa | 2.6V | 00:00:00 | 01:35:17 | 00:00:00 | |
| DF8AY | 2026-09-05 00:04:37 | 48.88857 | 10.58811 | 116° | 24km/h | 22823m | 6m/s | -52.4°C | 0.8% | 37.6hPa | 2.7V | 18:12:15 | 01:35:08 | 00:00:00 | |
| BIOWL1-15 | 2026-09-05 00:04:36 | 48.88895 | 10.58727 | 138° | 16km/h | 22756m | 6.6m/s | 0°C | 0% | 0hPa | 2.6V | 18:12:15 | 01:34:56 | 00:00:00 | |
| DJ8HS-15 | 2026-09-05 00:04:36 | 48.88844 | 10.58859 | 125° | 22km/h | 22855m | 4.1m/s | -52.4°C | 4.0% | 37.4hPa | 2.6V | 00:00:00 | 01:35:14 | 08:30:00 | |
| DM0DOS-11 | 2026-09-05 00:04:34 | 48.88855 | 10.58819 | 112° | 26km/h | 22829m | 5.8m/s | -52.4°C | 3.9% | 37.6hPa | 2.6V | 08:30:00 | 01:35:09 | 00:00:00 | |
| HSKMA3-T | 2026-09-05 00:04:33 | 48.88853 | 10.58829 | 109° | 26km/h | 22834m | 4.2m/s | -52.4°C | 0.8% | 37.5hPa | 2.6V | 18:12:15 | 01:35:10 | 00:00:00 | |
| DO3MHA-11 | 2026-09-05 00:04:33 | 48.88851 | 10.58838 | 108° | 24km/h | 22839m | 4.9m/s | -52.4°C | 4.0% | 37.5hPa | 2.6V | 00:00:00 | 01:35:11 | 00:00:00 | |
| DF3TZ-5 | 2026-09-05 00:04:32 | 48.88853 | 10.58829 | 108° | 26km/h | 22834m | 4.2m/s | -52.4°C | 1.2% | 37.5hPa | 2.6V | 00:00:00 | 00:00:00 | 00:00:00 | |
| HARRO8 | 2026-09-05 00:04:31 | 48.88855 | 10.58819 | 112° | 24km/h | 22829m | 5.8m/s | -52.4°C | 1.1% | 37.6hPa | 2.6V | 00:00:00 | 00:00:00 | 00:00:00 | |
| DL1NUX | 2026-09-05 00:04:30 | 48.88863 | 10.58797 | 122° | 22km/h | 22812m | 4.7m/s | -52.4°C | 4% | 37.7hPa | 2.6V | 08:30:00 | 01:35:06 | 00:00:00 | |
| DF8AY | 2026-09-05 00:04:28 | 48.88888 | 10.58738 | 128° | 22km/h | 22767m | 4.9m/s | -52.5°C | 0.8% | 37.9hPa | 2.6V | 18:12:15 | 01:34:58 | 00:00:00 | |
| DO3MHA-12 | 2026-09-05 00:04:28 | 48.88863 | 10.58797 | 123° | 22km/h | 22812m | 4.7m/s | -52.3°C | 4.0% | 37.6hPa | 2.6V | 00:00:00 | 01:35:06 | 00:00:00 | |
| DM0DOS-11 | 2026-09-05 00:04:27 | 48.88885 | 10.58745 | 128° | 24km/h | 22772m | 6.2m/s | -52.5°C | 3.9% | 37.9hPa | 2.6V | 08:30:00 | 01:34:59 | 00:00:00 | |
| HSKMA3-T | 2026-09-05 00:04:27 | 48.88881 | 10.58752 | 129° | 22km/h | 22778m | 5.4m/s | -52.4°C | 0.8% | 37.9hPa | 2.6V | 18:12:15 | 01:35:00 | 00:00:00 | |
| SO1NDE-10 | 2026-09-05 00:04:27 | 48.88866 | 10.58789 | 121° | 18km/h | 22807m | 5.9m/s | -52.3°C | 3.9% | 37.6hPa | 2.6V | 00:00:00 | 01:35:05 | 00:00:00 | |
| DL1ZP-14 | 2026-09-05 00:04:26 | 48.88869 | 10.58782 | 117° | 24km/h | 22801m | 5.7m/s | -52.4°C | 1.1% | 37.7hPa | 2.6V | 00:00:00 | 00:00:00 | 00:00:00 | |
| OE5DRO-10 | 2026-09-05 00:04:24 | 48.88875 | 10.58765 | 122° | 18km/h | 22790m | 6.5m/s | -52.3°C | 3.9% | 37.8hPa | 2.6V | 00:00:00 | 00:00:00 | 00:00:00 | |
| DB0ND-19 | 2026-09-05 00:04:23 | 48.88881 | 10.58752 | 129° | 22km/h | 22778m | 5.4m/s | -52.4°C | 1.2% | 37.9hPa | 2.6V | 00:00:00 | 00:00:00 | 00:00:00 | |
| PG1ADW-2 | 2026-09-05 00:04:20 | 48.88888 | 10.58738 | 129° | 16km/h | 22767m | 4.9m/s | -52.5°C | 3.9% | 37.9hPa | 2.6V | 00:00:00 | 00:00:00 | 08:30:00 | |
| DL1NUX | 2026-09-05 00:04:19 | 48.88895 | 10.58727 | 138° | 16km/h | 22756m | 6.6m/s | -52.6°C | 3.9% | 38hPa | 2.6V | 08:30:00 | 01:34:56 | 00:00:00 | |
| DF8AY | 2026-09-05 00:04:14 | 48.88911 | 10.58706 | 134° | 18km/h | 22728m | 4.9m/s | -52.8°C | 0.8% | 38.1hPa | 2.6V | 18:12:15 | 01:34:51 | 00:00:00 | |
| HSKMA3-T | 2026-09-05 00:04:11 | 48.88918 | 10.58697 | 146° | 18km/h | 22716m | 5.7m/s | -52.9°C | 0.8% | 38.2hPa | 2.6V | 18:12:15 | 01:34:49 | 00:00:00 | |
| BIOWL1-15 | 2026-09-05 00:04:11 | 48.88930 | 10.58683 | 135° | 20km/h | 22700m | 5.3m/s | 0°C | 0% | 0hPa | 2.6V | 18:12:15 | 01:34:46 | 00:00:00 | |
| DL1NUX | 2026-09-05 00:04:09 | 48.88930 | 10.58683 | 135° | 20km/h | 22700m | 5.3m/s | -53°C | 4% | 38.3hPa | 2.6V | 08:30:00 | 01:34:46 | 00:00:00 | |
| DF8AY | 2026-09-05 00:04:03 | 48.88936 | 10.58661 | 71° | 13km/h | 22673m | 5.4m/s | -53.4°C | 0.8% | 38.5hPa | 2.6V | 18:12:15 | 01:34:41 | 00:00:00 | |
| DO3MHA-11 | 2026-09-05 00:04:03 | 48.88936 | 10.58661 | 72° | 13km/h | 22674m | 5.3m/s | -53.3°C | 4.0% | 38.4hPa | 2.5V | 00:00:00 | 01:34:41 | 00:00:00 | |
| DM0DOS-11 | 2026-09-05 00:04:02 | 48.88934 | 10.58650 | 87° | 16km/h | 22663m | 4.6m/s | -53.6°C | 4.1% | 38.5hPa | 2.5V | 08:30:00 | 01:34:39 | 00:00:00 | |
| HSKMA3-T | 2026-09-05 00:04:01 | 48.88934 | 10.58650 | 87° | 16km/h | 22663m | 4.6m/s | -53.6°C | 0.9% | 38.5hPa | 2.5V | 18:12:15 | 01:34:39 | 00:00:00 | |
| DK5PH-5 | 2026-09-05 00:04:00 | 48.88934 | 10.58643 | 99° | 16km/h | 22659m | 4.3m/s | -53.5°C | 4.1% | 38.5hPa | 2.6V | 00:00:00 | 01:34:38 | 00:00:00 | |
| DL1NUX | 2026-09-05 00:03:59 | 48.88937 | 10.58633 | 123° | 13km/h | 22648m | 5.5m/s | -53.6°C | 4.1% | 38.6hPa | 2.6V | 08:30:00 | 01:34:36 | 00:00:00 | |
| BIOWL1-15 | 2026-09-05 00:03:57 | 48.88941 | 10.58624 | 96° | 9km/h | 22633m | 5.7m/s | 0°C | 0% | 0hPa | 2.6V | 18:12:15 | 01:34:33 | 00:00:00 | |
| DF8AY | 2026-09-05 00:03:53 | 48.88940 | 10.58616 | 81° | 11km/h | 22622m | 4.9m/s | -53.8°C | 0.9% | 38.8hPa | 2.6V | 18:12:15 | 01:34:31 | 00:00:00 | |
| DO3MHA-11 | 2026-09-05 00:03:53 | 48.88940 | 10.58616 | 81° | 15km/h | 22622m | 4.8m/s | -53.7°C | 4.1% | 38.8hPa | 2.6V | 00:00:00 | 01:34:31 | 00:00:00 | |
| DM0DOS-11 | 2026-09-05 00:03:52 | 48.88940 | 10.58607 | 96° | 13km/h | 22611m | 5.3m/s | -53.8°C | 4.1% | 38.9hPa | 2.6V | 08:30:00 | 01:34:29 | 00:00:00 | |
| IW2NTF | 2026-09-05 00:03:51 | 48.88940 | 10.58575 | 85° | 16km/h | 22584m | 5.1m/s | 0°C | 0% | 0hPa | 2.7V | 00:00:00 | 01:34:24 | 00:00:00 | |
| HSKMA3-T | 2026-09-05 00:03:50 | 48.88940 | 10.58602 | 98° | 15km/h | 22605m | 5.3m/s | -53.9°C | 0.9% | 38.9hPa | 2.6V | 18:12:15 | 01:34:28 | 00:00:00 | |
| BIOWL1-15 | 2026-09-05 00:03:47 | 48.88940 | 10.58582 | 83° | 18km/h | 22589m | 4.2m/s | 0°C | 0% | 0hPa | 2.6V | 18:12:15 | 01:34:25 | 00:00:00 | |
| DF8AY | 2026-09-05 00:03:43 | 48.88942 | 10.58559 | 113° | 16km/h | 22569m | 4.8m/s | -54.6°C | 1.1% | 39.1hPa | 2.6V | 18:12:15 | 01:34:21 | 00:00:00 | |
| NBG1-10 | 2026-09-05 00:03:43 | 48.88942 | 10.58558 | 113° | 16km/h | 22569m | 4.7m/s | -54.5°C | 4.4% | 39.1hPa | 2.6V | 00:00:00 | 01:34:21 | 08:30:00 | |
| DM0DOS-11 | 2026-09-05 00:03:42 | 48.88944 | 10.58546 | 95° | 18km/h | 22558m | 5.7m/s | -54.6°C | 4.4% | 39.2hPa | 2.6V | 08:30:00 | 01:34:19 | 00:00:00 | |
| HSKMA3-T | 2026-09-05 00:03:39 | 48.88944 | 10.58532 | 81° | 18km/h | 22547m | 4.9m/s | -54.5°C | 1.1% | 39.3hPa | 2.6V | 18:12:15 | 01:34:17 | 00:00:00 | |
| BIOWL1-15 | 2026-09-05 00:03:37 | 48.88941 | 10.58512 | 71° | 18km/h | 22531m | 5.1m/s | 0°C | 0% | 0hPa | 2.6V | 18:12:15 | 01:34:14 | 00:00:00 | |
| EDDB2-11 | 2026-09-05 00:03:36 | 48.88939 | 10.58505 | 67° | 18km/h | 22525m | 6.6m/s | -54.4°C | 1.3% | 39.4hPa | 2.6V | 00:00:00 | 00:00:00 | 00:00:00 | |
| DB0UT-7 | 2026-09-05 00:03:35 | 48.88939 | 10.58505 | 68° | 15km/h | 22525m | 6.5m/s | -54.4°C | 4.4% | 39.3hPa | 2.6V | 00:00:00 | 00:00:00 | 00:00:00 | |
| DL1NUX | 2026-09-05 00:03:34 | 48.88931 | 10.58457 | 69° | 20km/h | 22486m | 5.6m/s | -54.3°C | 4.4% | 39.6hPa | 2.6V | 08:30:00 | 01:34:06 | 00:00:00 | |
| DM0DOS-11 | 2026-09-05 00:03:33 | 48.88934 | 10.58477 | 84° | 16km/h | 22502m | 4.3m/s | -54.4°C | 4.4% | 39.5hPa | 2.6V | 08:30:00 | 01:34:09 | 00:00:00 | |
| DF8AY | 2026-09-05 00:03:32 | 48.88934 | 10.58484 | 81° | 18km/h | 22508m | 5.9m/s | -54.4°C | 1.1% | 39.5hPa | 2.6V | 18:12:15 | 01:34:10 | 00:00:00 | |
| HSKMA3-T | 2026-09-05 00:03:29 | 48.88932 | 10.58464 | 75° | 18km/h | 22492m | 6.3m/s | -54.3°C | 1.1% | 39.6hPa | 2.6V | 18:12:15 | 01:34:07 | 00:00:00 | |
| DO3MHA-12 | 2026-09-05 00:03:28 | 48.88931 | 10.58457 | 70° | 13km/h | 22487m | 5.6m/s | -54.3°C | 4.4% | 39.6hPa | 2.6V | 00:00:00 | 01:34:06 | 00:00:00 | |
| SO1NDE-10 | 2026-09-05 00:03:27 | 48.88929 | 10.58450 | 66° | 13km/h | 22481m | 4.4m/s | -54.2°C | 4.4% | 39.6hPa | 2.6V | 00:00:00 | 01:34:05 | 00:00:00 | |
| DL1ZP-14 | 2026-09-05 00:03:24 | 48.88924 | 10.58435 | 66° | 7km/h | 22465m | 5.4m/s | -54.2°C | 1.3% | 39.7hPa | 2.6V | 00:00:00 | 00:00:00 | 00:00:00 | |
| DO3MHA-11 | 2026-09-05 00:03:23 | 48.88923 | 10.58432 | 76° | 13km/h | 22460m | 4.5m/s | -54.2°C | 4.4% | 39.8hPa | 2.6V | 00:00:00 | 01:34:01 | 00:00:00 | |
| DM0DOS-11 | 2026-09-05 00:03:22 | 48.88923 | 10.58427 | 67° | 9km/h | 22450m | 6.1m/s | -54.1°C | 4.4% | 39.8hPa | 2.6V | 08:30:00 | 01:33:59 | 00:00:00 | |
| DF8AY | 2026-09-05 00:03:22 | 48.88923 | 10.58430 | 76° | 7km/h | 22455m | 4.7m/s | -54.2°C | 1% | 39.8hPa | 2.6V | 18:12:15 | 01:34:00 | 00:00:00 | |
| IW2NTF | 2026-09-05 00:03:20 | 48.88921 | 10.58423 | 64° | 15km/h | 22444m | 5.1m/s | 0°C | 0% | 0hPa | 2.6V | 00:00:00 | 01:33:58 | 00:00:00 | |
| PG1ADW-2 | 2026-09-05 00:03:20 | 48.88921 | 10.58423 | 65° | 15km/h | 22445m | 5.0m/s | -54.1°C | 4.4% | 39.8hPa | 2.6V | 00:00:00 | 00:00:00 | 00:00:00 | |
| DL1NUX | 2026-09-05 00:03:19 | 48.88918 | 10.58411 | 68° | 18km/h | 22435m | 5.1m/s | -54°C | 4.4% | 39.9hPa | 2.6V | 08:30:00 | 01:33:56 | 00:00:00 | |
| HSKMA3-T | 2026-09-05 00:03:18 | 48.88918 | 10.58411 | 68° | 18km/h | 22435m | 5.1m/s | -54.1°C | 1% | 39.9hPa | 2.6V | 18:12:15 | 01:33:56 | 00:00:00 | |
| DO3MHA-12 | 2026-09-05 00:03:18 | 48.88918 | 10.58411 | 69° | 15km/h | 22435m | 5.0m/s | -54.0°C | 4.4% | 39.9hPa | 2.6V | 00:00:00 | 01:33:56 | 00:00:00 | |
| DB0NH | 2026-09-05 00:03:17 | 48.88916 | 10.58405 | 75° | 13km/h | 22430m | 6.0m/s | -54.0°C | 4.4% | 39.9hPa | 2.6V | 00:00:00 | 01:33:55 | 00:00:00 | |
| DJ8HS-15 | 2026-09-05 00:03:16 | 48.88915 | 10.58399 | 79° | 13km/h | 22424m | 4.9m/s | -53.9°C | 4.3% | 40.0hPa | 2.6V | 00:00:00 | 01:33:54 | 00:00:00 | |
| DM0DOS-11 | 2026-09-05 00:03:15 | 48.88906 | 10.58374 | 38° | 15km/h | 22399m | 4.5m/s | -53.8°C | 4.3% | 40.1hPa | 2.6V | 08:30:00 | 01:33:49 | 00:00:00 | |
| DF8AY | 2026-09-05 00:03:11 | 48.88903 | 10.58372 | 27° | 11km/h | 22394m | 6.1m/s | -53.8°C | 1% | 40.2hPa | 2.6V | 18:12:15 | 01:33:48 | 00:00:00 | |
| OE5DRO-10 | 2026-09-05 00:03:11 | 48.88906 | 10.58374 | 39° | 16km/h | 22399m | 4.5m/s | -53.7°C | 4.3% | 40.1hPa | 2.7V | 00:00:00 | 00:00:00 | 00:00:00 | |
| DL1NUX | 2026-09-05 00:03:10 | 48.88898 | 10.58371 | 351° | 9km/h | 22383m | 4.9m/s | -53.7°C | 4.3% | 40.3hPa | 2.7V | 08:30:00 | 01:33:46 | 00:00:00 | |
| HSKMA3-T | 2026-09-05 00:03:08 | 48.88899 | 10.58371 | 351° | 9km/h | 22383m | 4.9m/s | -53.7°C | 1% | 40.3hPa | 2.7V | 18:12:15 | 01:33:46 | 00:00:00 | |
| DO3MHA-12 | 2026-09-05 00:03:08 | 48.88899 | 10.58371 | 352° | 13km/h | 22383m | 4.8m/s | -53.7°C | 4.3% | 40.2hPa | 2.6V | 00:00:00 | 01:33:46 | 00:00:00 | |
| EDDB2-11 | 2026-09-05 00:03:05 | 48.88886 | 10.58372 | 3° | 13km/h | 22362m | 5.4m/s | -53.6°C | 1.2% | 40.4hPa | 2.6V | 00:00:00 | 00:00:00 | 00:00:00 | |
| DL1NUX | 2026-09-05 00:03:04 | 48.88867 | 10.58359 | 37° | 16km/h | 22330m | 4.8m/s | -53.9°C | 4.3% | 40.6hPa | 2.6V | 08:30:00 | 01:33:36 | 00:00:00 | |
| AZAK | 2026-09-05 00:03:03 | 48.88885 | 10.58372 | 4° | 13km/h | 22362m | 5.4m/s | -53.6°C | 1.2% | 40.4hPa | 2.7V | 00:00:00 | 00:00:00 | 00:00:00 | |
| DM0DOS-11 | 2026-09-05 00:03:03 | 48.88877 | 10.58369 | 26° | 13km/h | 22346m | 5.4m/s | -53.7°C | 4.2% | 40.5hPa | 2.6V | 08:30:00 | 01:33:39 | 00:00:00 | |
| DL1ZP-14 | 2026-09-05 00:03:00 | 48.88849 | 10.58345 | 1° | 11km/h | 22298m | 5.8m/s | -54.0°C | 1.3% | 40.8hPa | 2.7V | 00:00:00 | 00:00:00 | 00:00:00 | |
| DO3MHA-11 | 2026-09-05 00:02:58 | 48.88852 | 10.58345 | 14° | 11km/h | 22304m | 4.7m/s | -53.9°C | 4.4% | 40.7hPa | 2.6V | 00:00:00 | 01:33:31 | 08:30:00 | |
| HSKMA3-T | 2026-09-05 00:02:57 | 48.88864 | 10.58355 | 39° | 15km/h | 22325m | 5.9m/s | -53.9°C | 1% | 40.6hPa | 2.7V | 18:12:15 | 01:33:35 | 00:00:00 | |
| DM0DOS-11 | 2026-09-05 00:02:56 | 48.88847 | 10.58345 | 346° | 9km/h | 22292m | 5.9m/s | -54°C | 4.3% | 40.8hPa | 2.6V | 08:30:00 | 01:33:29 | 00:00:00 | |
| BIOWL9-15 | 2026-09-05 00:02:54 | 48.88844 | 10.58346 | 337° | 9km/h | 22287m | 4.5m/s | -53.9°C | 1.3% | 40.9hPa | 2.6V | 00:00:00 | 00:00:00 | 00:00:00 | |
| DB0ND-19 | 2026-09-05 00:02:53 | 48.88842 | 10.58348 | 340° | 11km/h | 22282m | 6.1m/s | -53.9°C | 1.3% | 40.9hPa | 2.6V | 00:00:00 | 00:00:00 | 00:00:00 | |
| DO3MHA-12 | 2026-09-05 00:02:52 | 48.88839 | 10.58349 | 344° | 11km/h | 22277m | 5.1m/s | -53.8°C | 4.3% | 40.9hPa | 2.6V | 00:00:00 | 01:33:26 | 08:30:00 | |
| IW2NTF | 2026-09-05 00:02:51 | 48.88831 | 10.58355 | 319° | 11km/h | 22260m | 5.3m/s | 0°C | 0% | 0hPa | 2.6V | 00:00:00 | 01:33:23 | 00:00:00 | |
| AZAK | 2026-09-05 00:02:50 | 48.88829 | 10.58357 | 313° | 9km/h | 22256m | 4.2m/s | -53.7°C | 1.3% | 41.1hPa | 2.6V | 00:00:00 | 00:00:00 | 00:00:00 | |
| DL1NUX | 2026-09-05 00:02:49 | 48.88839 | 10.58349 | 343° | 13km/h | 22276m | 5.2m/s | -53.8°C | 4.3% | 41hPa | 2.6V | 08:30:00 | 01:33:26 | 00:00:00 | |
| DO3MHA-11 | 2026-09-05 00:02:49 | 48.88827 | 10.58360 | 321° | 5km/h | 22251m | 4.6m/s | -53.6°C | 4.2% | 41.1hPa | 2.6V | 00:00:00 | 01:33:21 | 00:00:00 | |
| DF8AY | 2026-09-05 00:02:49 | 48.88839 | 10.58349 | 344° | 13km/h | 22276m | 5.2m/s | -53.8°C | 1% | 41hPa | 2.6V | 18:12:15 | 01:33:26 | 00:00:00 | |
| HSKMA3-T | 2026-09-05 00:02:47 | 48.88836 | 10.58351 | 342° | 13km/h | 22271m | 5m/s | -53.8°C | 1% | 41hPa | 2.6V | 18:12:15 | 01:33:25 | 00:00:00 | |
| DF7PN | 2026-09-05 00:02:46 | 48.88819 | 10.58364 | 352° | 9km/h | 22235m | 4.6m/s | -53.6°C | 1.3% | 41.2hPa | 2.7V | 00:00:00 | 00:00:00 | 00:00:00 | |
| DM0DOS-11 | 2026-09-05 00:02:45 | 48.88822 | 10.58363 | 348° | 11km/h | 22240m | 5.1m/s | -53.6°C | 4.2% | 41.2hPa | 2.7V | 08:30:00 | 01:33:19 | 00:00:00 | |
| DL1NUX | 2026-09-05 00:02:44 | 48.88816 | 10.58365 | 326° | 2km/h | 22224m | 5.5m/s | -53.5°C | 4.2% | 41.3hPa | 2.6V | 08:30:00 | 01:33:16 | 00:00:00 | |
| SONDE2-11 | 2026-09-05 00:02:43 | 48.88817 | 10.58365 | 347° | 5km/h | 22230m | 6.1m/s | -53.6°C | 1.2% | 41.2hPa | 2.6V | 00:00:00 | 00:00:00 | 00:00:00 | |
| SONCRA | 2026-09-05 00:02:42 | 48.88817 | 10.58365 | 347° | 5km/h | 22230m | 6.1m/s | -53.6°C | 1.2% | 41.2hPa | 2.6V | 00:00:00 | 00:00:00 | 00:00:00 | |
| DO3MHA-12 | 2026-09-05 00:02:41 | 48.88816 | 10.58365 | 327° | 4km/h | 22224m | 5.5m/s | -53.5°C | 4.2% | 41.2hPa | 2.6V | 00:00:00 | 01:33:16 | 00:00:00 | |
| IW2NTF | 2026-09-05 00:02:40 | 48.88817 | 10.58365 | 138° | 2km/h | 22208m | 4.6m/s | 0°C | 0% | 0hPa | 2.6V | 00:00:00 | 01:33:13 | 00:00:00 | |
| DJ8HS-15 | 2026-09-05 00:02:38 | 48.88817 | 10.58365 | 143° | 5km/h | 22214m | 6.1m/s | -53.4°C | 4.2% | 41.3hPa | 2.7V | 00:00:00 | 01:33:14 | 00:00:00 | |
| HSKMA3-T | 2026-09-05 00:02:37 | 48.88816 | 10.58365 | 184° | 2km/h | 22219m | 4.6m/s | -53.5°C | 0.9% | 41.3hPa | 2.6V | 18:12:15 | 01:33:15 | 00:00:00 | |
| DO9HM | 2026-09-05 00:02:37 | 48.88816 | 10.58365 | 143° | 2km/h | 22214m | 6.2m/s | -53.5°C | 1.3% | 41.4hPa | 2.6V | 00:00:00 | 00:00:00 | 00:00:00 | |
| DF8AY | 2026-09-05 00:02:36 | 48.88818 | 10.58371 | 287° | 7km/h | 22187m | 5.3m/s | -53.4°C | 0.9% | 41.5hPa | 2.6V | 18:12:15 | 01:33:09 | 00:00:00 | |
| DM0DOS-11 | 2026-09-05 00:02:36 | 48.88818 | 10.58371 | 287° | 7km/h | 22187m | 5.3m/s | -53.4°C | 4.1% | 41.5hPa | 2.6V | 08:30:00 | 01:33:09 | 00:00:00 | |
| DB0UT-7 | 2026-09-05 00:02:36 | 48.88817 | 10.58364 | 139° | 7km/h | 22208m | 4.5m/s | -53.4°C | 4.2% | 41.3hPa | 2.6V | 00:00:00 | 00:00:00 | 00:00:00 | |
| EDDB2-11 | 2026-09-05 00:02:35 | 48.88818 | 10.58366 | 249° | 4km/h | 22198m | 6.4m/s | -53.4°C | 1.2% | 41.4hPa | 2.6V | 00:00:00 | 00:00:00 | 00:00:00 | |
| DL1NUX | 2026-09-05 00:02:34 | 48.88814 | 10.58376 | 324° | 5km/h | 22171m | 4.6m/s | -53.4°C | 4.1% | 41.6hPa | 2.6V | 08:30:00 | 01:33:06 | 00:00:00 | |
| DO3MHA-11 | 2026-09-05 00:02:33 | 48.88818 | 10.58366 | 250° | 5km/h | 22198m | 6.3m/s | -53.3°C | 4.1% | 41.4hPa | 2.6V | 00:00:00 | 01:33:11 | 00:00:00 | |
| DK5PH-5 | 2026-09-05 00:02:30 | 48.88817 | 10.58373 | 313° | 11km/h | 22182m | 5.9m/s | -53.4°C | 4.1% | 41.5hPa | 2.6V | 00:00:00 | 01:33:08 | 00:00:00 | |
| DC4HF-4 | 2026-09-05 00:02:29 | 48.88820 | 10.58381 | 207° | 7km/h | 22124m | 4.9m/s | -53.6°C | 1.2% | 41.9hPa | 2.6V | 00:00:00 | 00:00:00 | 00:00:00 | |
| DO3MHA-12 | 2026-09-05 00:02:28 | 48.88814 | 10.58376 | 325° | 5km/h | 22172m | 4.6m/s | -53.3°C | 4.1% | 41.6hPa | 2.6V | 00:00:00 | 01:33:06 | 00:00:00 | |
| HSKMA3-T | 2026-09-05 00:02:27 | 48.88813 | 10.58378 | 303° | 5km/h | 22166m | 6.4m/s | -53.4°C | 0.9% | 41.7hPa | 2.6V | 18:12:15 | 01:33:05 | 00:00:00 | |
| SO1NDE-10 | 2026-09-05 00:02:27 | 48.88813 | 10.58378 | 303° | 13km/h | 22166m | 6.3m/s | -53.3°C | 4.1% | 41.6hPa | 2.6V | 00:00:00 | 01:33:05 | 00:00:00 | |
| AM1SDL-15 | 2026-09-05 00:02:26 | 48.88813 | 10.58379 | 250° | 5km/h | 22160m | 5.4m/s | -53.3°C | 4.2% | 41.7hPa | 2.6V | 00:00:00 | 01:33:04 | 00:00:00 | |
| DL1NUX | 2026-09-05 00:02:23 | 48.88822 | 10.58383 | 213° | 7km/h | 22118m | 5.4m/s | -53.6°C | 4.1% | 42hPa | 2.6V | 08:30:00 | 01:32:56 | 00:00:00 | |
| DM0DOS-11 | 2026-09-05 00:02:23 | 48.88817 | 10.58380 | 171° | 5km/h | 22135m | 5.1m/s | -53.5°C | 4.1% | 41.9hPa | 2.6V | 08:30:00 | 01:32:59 | 00:00:00 | |
| PG1ADW-2 | 2026-09-05 00:02:22 | 48.88819 | 10.58380 | 195° | 13km/h | 22129m | 5.9m/s | -53.5°C | 4.1% | 41.8hPa | 2.6V | 00:00:00 | 01:32:58 | 00:00:00 | |
| DF8AY | 2026-09-05 00:02:21 | 48.88817 | 10.58380 | 171° | 5km/h | 22135m | 5.1m/s | -53.5°C | 0.9% | 41.9hPa | 2.6V | 18:12:15 | 01:32:59 | 00:00:00 | |
| DB0ND-19 | 2026-09-05 00:02:21 | 48.88822 | 10.58383 | 213° | 5km/h | 22118m | 5.4m/s | -53.6°C | 1.2% | 42.0hPa | 2.6V | 00:00:00 | 00:00:00 | 00:00:00 | |
| DO3MHA-12 | 2026-09-05 00:02:20 | 48.88822 | 10.58383 | 214° | 9km/h | 22119m | 5.4m/s | -53.6°C | 4.1% | 41.9hPa | 2.6V | 00:00:00 | 01:32:56 | 00:00:00 | |
| DB0NH | 2026-09-05 00:02:19 | 48.88823 | 10.58384 | 213° | 18km/h | 22113m | 5.9m/s | -53.6°C | 4.1% | 42.0hPa | 2.6V | 00:00:00 | 01:32:55 | 00:00:00 | |
| DJ8HS-15 | 2026-09-05 00:02:18 | 48.88824 | 10.58385 | 207° | 16km/h | 22108m | 4.7m/s | -53.6°C | 4.1% | 42.0hPa | 2.6V | 00:00:00 | 01:32:54 | 00:00:00 | |
| HSKMA3-T | 2026-09-05 00:02:17 | 48.88824 | 10.58385 | 207° | 4km/h | 22107m | 4.7m/s | -53.7°C | 0.9% | 42hPa | 2.6V | 18:12:15 | 01:32:54 | 00:00:00 | |
| DO3MHA-11 | 2026-09-05 00:02:17 | 48.88828 | 10.58386 | 173° | 15km/h | 22093m | 4.4m/s | -53.8°C | 4.2% | 42.1hPa | 2.6V | 00:00:00 | 01:32:51 | 00:00:00 | |
| DM0DOS-11 | 2026-09-05 00:02:16 | 48.88832 | 10.58383 | 128° | 11km/h | 22082m | 5.7m/s | -53.9°C | 4.2% | 42.2hPa | 2.6V | 08:30:00 | 01:32:49 | 00:00:00 | |
| DL1NUX | 2026-09-05 00:02:13 | 48.88839 | 10.58370 | 136° | 16km/h | 22065m | 5.6m/s | -54°C | 4.3% | 42.3hPa | 2.7V | 08:30:00 | 01:32:46 | 00:00:00 | |
| DM7RM-13 | 2026-09-05 00:02:12 | 48.88838 | 10.58370 | 137° | 16km/h | 22066m | 5.6m/s | -54.0°C | 1.3% | 42.3hPa | 2.6V | 00:00:00 | 00:00:00 | 00:00:00 | |
| DF8AY | 2026-09-05 00:02:11 | 48.88833 | 10.58379 | 125° | 15km/h | 22076m | 5m/s | -53.9°C | 0.9% | 42.2hPa | 2.6V | 18:12:15 | 01:32:48 | 00:00:00 | |
| HSKMA3-T | 2026-09-05 00:02:07 | 48.88845 | 10.58361 | 133° | 16km/h | 22056m | 5.1m/s | -54.1°C | 1% | 42.4hPa | 2.6V | 18:12:15 | 01:32:44 | 00:00:00 | |
| DB0UT-7 | 2026-09-05 00:02:05 | 48.88847 | 10.58356 | 126° | 22km/h | 22050m | 5.9m/s | -54.1°C | 4.3% | 42.4hPa | 2.6V | 00:00:00 | 01:32:43 | 00:00:00 | |
| NBG1-10 | 2026-09-05 00:02:04 | 48.88850 | 10.58350 | 122° | 22km/h | 22045m | 4.8m/s | -54.1°C | 4.3% | 42.4hPa | 2.6V | 00:00:00 | 01:32:42 | 00:00:00 | |
| DL1NUX | 2026-09-05 00:02:03 | 48.88870 | 10.58305 | 110° | 29km/h | 22015m | 5m/s | -54.2°C | 4.4% | 42.6hPa | 2.6V | 08:30:00 | 01:32:36 | 00:00:00 | |
| HARRO8 | 2026-09-05 00:02:02 | 48.88875 | 10.58284 | 107° | 26km/h | 22007m | 5.1m/s | -54.3°C | 1.3% | 42.7hPa | 2.6V | 00:00:00 | 00:00:00 | 00:00:00 | |
| DJ8HS-15 | 2026-09-05 00:02:01 | 48.88875 | 10.58284 | 108° | 24km/h | 22007m | 5.1m/s | -54.2°C | 4.4% | 42.7hPa | 2.6V | 00:00:00 | 01:32:34 | 00:00:00 | |
| DF8AY | 2026-09-05 00:02:00 | 48.88867 | 10.58315 | 119° | 27km/h | 22021m | 6.1m/s | -54.2°C | 1.1% | 42.6hPa | 2.6V | 18:12:15 | 01:32:37 | 00:00:00 | |
| DO9HM | 2026-09-05 00:01:59 | 48.88877 | 10.58275 | 113° | 26km/h | 22001m | 5.4m/s | -54.2°C | 1.4% | 42.7hPa | 2.6V | 00:00:00 | 00:00:00 | 00:00:00 | |
| OE5WHR-10 | 2026-09-05 00:01:58 | 48.88879 | 10.58266 | 117° | 20km/h | 21996m | 4.7m/s | -54.2°C | 4.4% | 42.7hPa | 2.6V | 00:00:00 | 00:00:00 | 00:00:00 | |
| DC4HF-4 | 2026-09-05 00:01:57 | 48.88882 | 10.58258 | 116° | 24km/h | 21992m | 4.4m/s | -54.2°C | 1.3% | 42.8hPa | 2.6V | 00:00:00 | 00:00:00 | 00:00:00 | |
| DM0DOS-11 | 2026-09-05 00:01:56 | 48.88887 | 10.58240 | 113° | 27km/h | 21981m | 4.7m/s | -54.1°C | 4.4% | 42.9hPa | 2.6V | 08:30:00 | 01:32:29 | 00:00:00 | |
| HSKMA3-T | 2026-09-05 00:01:56 | 48.88875 | 10.58284 | 108° | 27km/h | 22006m | 5.1m/s | -54.3°C | 1% | 42.7hPa | 2.6V | 18:12:15 | 01:32:34 | 00:00:00 | |
| DL1ZP-14 | 2026-09-05 00:01:55 | 48.88890 | 10.58231 | 113° | 26km/h | 21977m | 4.3m/s | -54.1°C | 1.3% | 42.9hPa | 2.6V | 00:00:00 | 00:00:00 | 00:00:00 | |
| DL1NUX | 2026-09-05 00:01:53 | 48.88895 | 10.58214 | 113° | 22km/h | 21966m | 4.4m/s | -54.1°C | 4.4% | 43hPa | 2.6V | 08:30:00 | 01:32:26 | 00:00:00 | |
| AM1SDL-15 | 2026-09-05 00:01:52 | 48.88893 | 10.58222 | 115° | 20km/h | 21972m | 5.7m/s | -54.1°C | 4.4% | 42.9hPa | 2.6V | 00:00:00 | 01:32:27 | 00:00:00 | |
| BIOWL9-15 | 2026-09-05 00:01:51 | 48.88895 | 10.58214 | 113° | 22km/h | 21967m | 4.4m/s | -54.1°C | 1.3% | 43.0hPa | 2.6V | 00:00:00 | 00:00:00 | 00:00:00 | |
| DO3MHA-12 | 2026-09-05 00:01:50 | 48.88895 | 10.58214 | 114° | 22km/h | 21967m | 4.3m/s | -54.1°C | 4.4% | 42.9hPa | 2.6V | 00:00:00 | 01:32:26 | 00:00:00 | |
| DF8AY | 2026-09-05 00:01:49 | 48.88893 | 10.58222 | 115° | 24km/h | 21972m | 5.8m/s | -54.1°C | 1.1% | 0hPa | 2.6V | 18:12:15 | 01:32:27 | 00:00:00 | |
| OE5DXL-15 | 2026-09-05 00:01:48 | 48.88899 | 10.58197 | 108° | 18km/h | 21957m | 5.5m/s | -54.0°C | 4.3% | 43.0hPa | 2.7V | 00:00:00 | 00:00:00 | 00:00:00 | |
| DF2AP-13 | 2026-09-05 00:01:46 | 48.88903 | 10.58180 | 109° | 16km/h | 21948m | 5.2m/s | -54.0°C | 4.4% | 43.1hPa | 2.6V | 00:00:00 | 00:00:00 | 00:00:00 | |
| HSKMA3-T | 2026-09-05 00:01:45 | 48.88901 | 10.58188 | 106° | 26km/h | 21952m | 4.3m/s | -54.1°C | 1% | 43.1hPa | 2.6V | 18:12:15 | 01:32:23 | 00:00:00 | |
| DM0DOS-11 | 2026-09-05 00:01:43 | 48.88909 | 10.58157 | 112° | 22km/h | 21932m | 5.8m/s | -54°C | 4.3% | 43.2hPa | 2.6V | 08:30:00 | 01:32:19 | 00:00:00 | |
| DL1NUX | 2026-09-05 00:01:43 | 48.88914 | 10.58135 | 113° | 16km/h | 21917m | 5.9m/s | -54°C | 4.3% | 43.3hPa | 2.6V | 08:30:00 | 01:32:16 | 00:00:00 | |
| PG1ADW-2 | 2026-09-05 00:01:43 | 48.88911 | 10.58149 | 110° | 16km/h | 21927m | 4.6m/s | -53.9°C | 4.3% | 43.2hPa | 2.6V | 00:00:00 | 00:00:00 | 00:00:00 | |
| DF7PN | 2026-09-05 00:01:41 | 48.88914 | 10.58135 | 113° | 16km/h | 21917m | 5.9m/s | -54.0°C | 1.3% | 43.3hPa | 2.6V | 00:00:00 | 00:00:00 | 00:00:00 | |
| SONCRA | 2026-09-05 00:01:40 | 48.88916 | 10.58130 | 119° | 13km/h | 21911m | 5.0m/s | -53.9°C | 1.3% | 43.3hPa | 2.6V | 00:00:00 | 00:00:00 | 00:00:00 | |
| AM1SDL-15 | 2026-09-05 00:01:39 | 48.88919 | 10.58120 | 115° | 15km/h | 21902m | 5.4m/s | -53.9°C | 4.3% | 43.4hPa | 2.6V | 00:00:00 | 01:32:13 | 08:30:00 | |
| DF8AY | 2026-09-05 00:01:38 | 48.88914 | 10.58135 | 113° | 16km/h | 21917m | 5.9m/s | -54°C | 1% | 0hPa | 2.6V | 18:12:15 | 01:32:16 | 00:00:00 | |
| DO3MHA-11 | 2026-09-05 00:01:38 | 48.88922 | 10.58107 | 101° | 16km/h | 21892m | 3.9m/s | -53.9°C | 4.2% | 43.4hPa | 2.7V | 00:00:00 | 01:32:11 | 00:00:00 | |
| DM0DOS-11 | 2026-09-05 00:01:37 | 48.88923 | 10.58086 | 86° | 18km/h | 21876m | 4.8m/s | -53.9°C | 4.2% | 43.6hPa | 2.7V | 08:30:00 | 01:32:08 | 00:00:00 | |
| NBG1-10 | 2026-09-05 00:01:37 | 48.88923 | 10.58093 | 91° | 13km/h | 21882m | 5.2m/s | -53.9°C | 4.2% | 43.5hPa | 2.5V | 00:00:00 | 01:32:09 | 00:00:00 | |
| HSKMA3-T | 2026-09-05 00:01:34 | 48.88921 | 10.58114 | 107° | 18km/h | 21896m | 4.9m/s | -53.9°C | 1% | 43.5hPa | 2.5V | 18:12:15 | 01:32:12 | 00:00:00 | |
| DK5PH-5 | 2026-09-05 00:01:34 | 48.88923 | 10.58086 | 87° | 13km/h | 21877m | 4.8m/s | -53.9°C | 4.2% | 43.5hPa | 2.7V | 00:00:00 | 01:32:08 | 00:00:00 | |
| DL1NUX | 2026-09-05 00:01:33 | 48.88922 | 10.58071 | 82° | 22km/h | 21866m | 4.4m/s | -53.9°C | 4.2% | 43.7hPa | 2.6V | 08:30:00 | 01:32:06 | 00:00:00 | |
| DO3MHA-12 | 2026-09-05 00:01:31 | 48.88922 | 10.58071 | 83° | 15km/h | 21866m | 4.4m/s | -53.9°C | 4.2% | 43.6hPa | 2.6V | 00:00:00 | 01:32:06 | 00:00:00 | |
| DM7RM-13 | 2026-09-05 00:01:30 | 48.88921 | 10.58063 | 85° | 18km/h | 21862m | 3.9m/s | -53.9°C | 1.3% | 43.7hPa | 2.6V | 00:00:00 | 00:00:00 | 00:00:00 | |
| DF3TZ-5 | 2026-09-05 00:01:29 | 48.88921 | 10.58051 | 90° | 11km/h | 21852m | 5.1m/s | -53.9°C | 1.3% | 43.8hPa | 2.6V | 00:00:00 | 00:00:00 | 00:00:00 | |
| DF8AY | 2026-09-05 00:01:28 | 48.88922 | 10.58071 | 83° | 22km/h | 21866m | 4.4m/s | -53.9°C | 1% | 0hPa | 2.6V | 18:12:15 | 01:32:06 | 00:00:00 | |
| HARRO8 | 2026-09-05 00:01:27 | 48.88921 | 10.58051 | 90° | 11km/h | 21852m | 5.1m/s | -53.9°C | 1.3% | 43.8hPa | 2.6V | 00:00:00 | 00:00:00 | 00:00:00 | |
| DO3MHA-11 | 2026-09-05 00:01:26 | 48.88921 | 10.58044 | 95° | 15km/h | 21843m | 5.1m/s | -53.8°C | 4.2% | 43.8hPa | 2.6V | 00:00:00 | 01:32:01 | 08:30:00 | |
| AM1SDL-15 | 2026-09-05 00:01:25 | 48.88921 | 10.58040 | 88° | 20km/h | 21838m | 4.9m/s | -53.8°C | 4.1% | 43.8hPa | 2.6V | 00:00:00 | 01:32:00 | 00:00:00 | |
| HSKMA3-T | 2026-09-05 00:01:24 | 48.88921 | 10.58047 | 97° | 9km/h | 21847m | 4m/s | -53.9°C | 0.9% | 43.8hPa | 2.6V | 18:12:15 | 01:32:02 | 00:00:00 | |
| AZAK | 2026-09-05 00:01:23 | 48.88920 | 10.58029 | 78° | 15km/h | 21829m | 4.8m/s | -53.9°C | 1.2% | 43.9hPa | 2.6V | 00:00:00 | 00:00:00 | 00:00:00 | |
| DO3MHA-12 | 2026-09-05 00:01:22 | 48.88919 | 10.58019 | 77° | 13km/h | 21818m | 4.2m/s | -54.0°C | 4.2% | 43.9hPa | 2.6V | 00:00:00 | 01:31:56 | 08:30:00 | |
| DC4HF-4 | 2026-09-05 00:01:21 | 48.88917 | 10.58006 | 87° | 16km/h | 21809m | 5.2m/s | -54.2°C | 1.3% | 44.1hPa | 2.6V | 00:00:00 | 00:00:00 | 00:00:00 | |
| DB0NH | 2026-09-05 00:01:19 | 48.88918 | 10.58013 | 83° | 11km/h | 21814m | 5.0m/s | -54.1°C | 4.2% | 44.0hPa | 2.6V | 00:00:00 | 01:31:55 | 00:00:00 | |
| DF8AY | 2026-09-05 00:01:18 | 48.88914 | 10.57982 | 25° | 9km/h | 21782m | 5.6m/s | 0°C | 0% | 0hPa | 2.6V | 18:12:15 | 01:31:48 | 00:00:00 | |
| DM0DOS-11 | 2026-09-05 00:01:16 | 48.88914 | 10.57982 | 24° | 9km/h | 21782m | 5.6m/s | -54.1°C | 4.1% | 44.2hPa | 2.6V | 08:30:00 | 01:31:48 | 00:00:00 | |
| DO9HM | 2026-09-05 00:01:15 | 48.88918 | 10.57988 | 88° | 11km/h | 21796m | 5.0m/s | -54.1°C | 1.3% | 44.2hPa | 2.6V | 00:00:00 | 00:00:00 | 00:00:00 | |
| DF1GD-15 | 2026-09-05 00:01:14 | 48.88917 | 10.57985 | 61° | 5km/h | 21791m | 4.4m/s | -54.1°C | 1.3% | 44.2hPa | 2.6V | 00:00:00 | 00:00:00 | 00:00:00 | |
| HSKMA3-T | 2026-09-05 00:01:13 | 48.88917 | 10.57988 | 87° | 11km/h | 21796m | 5m/s | -54.1°C | 0.9% | 44.2hPa | 2.6V | 18:12:15 | 01:31:51 | 00:00:00 | |
| OE5WHR-10 | 2026-09-05 00:01:13 | 48.88914 | 10.57982 | 25° | 9km/h | 21782m | 5.6m/s | -54.0°C | 4.1% | 44.2hPa | 2.6V | 00:00:00 | 00:00:00 | 00:00:00 | |
| IW2NTF | 2026-09-05 00:01:12 | 48.88909 | 10.57978 | 33° | 13km/h | 21772m | 4.2m/s | 0°C | 0% | 0hPa | 2.7V | 00:00:00 | 01:31:46 | 00:00:00 | |
| DF7PN | 2026-09-05 00:01:11 | 48.88906 | 10.57975 | 35° | 11km/h | 21768m | 4.5m/s | -54.2°C | 1.2% | 44.4hPa | 2.6V | 00:00:00 | 00:00:00 | 00:00:00 | |
| SONDE2-11 | 2026-09-05 00:01:10 | 48.88904 | 10.57973 | 37° | 7km/h | 21763m | 5.4m/s | -54.3°C | 1.3% | 44.4hPa | 2.6V | 00:00:00 | 00:00:00 | 00:00:00 | |
| SONCRA | 2026-09-05 00:01:09 | 48.88904 | 10.57973 | 37° | 7km/h | 21763m | 5.4m/s | -54.3°C | 1.3% | 44.4hPa | 2.6V | 00:00:00 | 00:00:00 | 00:00:00 | |
| DF8AY | 2026-09-05 00:01:08 | 48.88903 | 10.57971 | 53° | 5km/h | 21758m | 4.2m/s | 0°C | 0% | 0hPa | 2.6V | 18:12:15 | 01:31:43 | 00:00:00 | |
| DB0UT-7 | 2026-09-05 00:01:07 | 48.88903 | 10.57971 | 53° | 9km/h | 21758m | 4.2m/s | -54.4°C | 4.2% | 44.3hPa | 2.6V | 00:00:00 | 01:31:43 | 08:30:00 | |
| DL1NUX | 2026-09-05 00:01:05 | 48.88899 | 10.57952 | 63° | 5km/h | 21724m | 4.4m/s | -55.2°C | 4.6% | 44.7hPa | 2.6V | 08:30:00 | 01:31:36 | 00:00:00 | |
| DM0DOS-11 | 2026-09-05 00:01:05 | 48.88901 | 10.57958 | 78° | 9km/h | 21738m | 5.1m/s | -55.1°C | 4.5% | 44.5hPa | 2.5V | 08:30:00 | 01:31:39 | 00:00:00 | |
| HSKMA3-T | 2026-09-05 00:01:02 | 48.88901 | 10.57962 | 80° | 11km/h | 21743m | 4.6m/s | -54.9°C | 1.1% | 44.5hPa | 2.6V | 18:12:15 | 01:31:40 | 00:00:00 | |
| EDDB2-11 | 2026-09-05 00:01:01 | 48.88900 | 10.57956 | 74° | 5km/h | 21733m | 5.2m/s | -55.2°C | 1.4% | 44.6hPa | 2.6V | 00:00:00 | 00:00:00 | 00:00:00 | |
| AZAK | 2026-09-05 00:01:00 | 48.88900 | 10.57956 | 75° | 5km/h | 21733m | 5.2m/s | -55.2°C | 1.4% | 44.6hPa | 2.6V | 00:00:00 | 00:00:00 | 00:00:00 | |
| NBG1-10 | 2026-09-05 00:00:58 | 48.88899 | 10.57952 | 64° | 11km/h | 21725m | 4.4m/s | -55.2°C | 4.6% | 44.6hPa | 2.6V | 00:00:00 | 01:31:36 | 00:00:00 | |
| SO1NDE-10 | 2026-09-05 00:00:57 | 48.88898 | 10.57949 | 67° | 11km/h | 21720m | 5.6m/s | -55.2°C | 4.6% | 44.6hPa | 2.6V | 00:00:00 | 01:31:35 | 00:00:00 | |
| DM0DOS-11 | 2026-09-05 00:00:56 | 48.88893 | 10.57926 | 69° | 13km/h | 21691m | 5.4m/s | -55.2°C | 4.6% | 44.9hPa | 2.6V | 08:30:00 | 01:31:29 | 00:00:00 | |
| DJ8HS-15 | 2026-09-05 00:00:56 | 48.88897 | 10.57945 | 71° | 11km/h | 21715m | 4.6m/s | -55.3°C | 4.7% | 44.7hPa | 2.6V | 00:00:00 | 01:31:34 | 00:00:00 | |
| DL1NUX | 2026-09-05 00:00:53 | 48.88891 | 10.57915 | 108° | 7km/h | 21676m | 5.2m/s | -55.1°C | 4.6% | 45hPa | 2.6V | 08:30:00 | 01:31:26 | 00:00:00 | |
| DO3MHA-11 | 2026-09-05 00:00:52 | 48.88894 | 10.57930 | 71° | 13km/h | 21696m | 4.6m/s | -55.1°C | 4.6% | 44.8hPa | 2.7V | 00:00:00 | 01:31:30 | 00:00:00 | |
| HSKMA3-T | 2026-09-05 00:00:51 | 48.88893 | 10.57926 | 69° | 13km/h | 21691m | 5.4m/s | -55.2°C | 1.2% | 44.9hPa | 2.6V | 18:12:15 | 01:31:29 | 00:00:00 | |
| DO9HM | 2026-09-05 00:00:51 | 48.88893 | 10.57926 | 70° | 13km/h | 21691m | 5.4m/s | -55.2°C | 1.4% | 44.9hPa | 2.6V | 00:00:00 | 00:00:00 | 00:00:00 | |
| DF1GD-15 | 2026-09-05 00:00:50 | 48.88893 | 10.57926 | 70° | 13km/h | 21691m | 5.4m/s | -55.2°C | 1.4% | 44.9hPa | 2.6V | 00:00:00 | 00:00:00 | 00:00:00 | |
| DL1ZP-14 | 2026-09-05 00:00:49 | 48.88891 | 10.57915 | 108° | 5km/h | 21676m | 5.2m/s | -55.1°C | 1.3% | 45.0hPa | 2.6V | 00:00:00 | 00:00:00 | 00:00:00 | |
| DM7RM-13 | 2026-09-05 00:00:48 | 48.88892 | 10.57912 | 148° | 9km/h | 21672m | 4.3m/s | -55.1°C | 1.4% | 45.0hPa | 2.7V | 00:00:00 | 00:00:00 | 00:00:00 | |
| BIOWL9-15 | 2026-09-05 00:00:47 | 48.88898 | 10.57908 | 147° | 15km/h | 21662m | 5.9m/s | -55.0°C | 1.4% | 45.1hPa | 2.7V | 00:00:00 | 00:00:00 | 00:00:00 | |
| DB0ND-19 | 2026-09-05 00:00:46 | 48.88898 | 10.57908 | 147° | 15km/h | 21662m | 5.9m/s | -55.0°C | 1.4% | 45.1hPa | 2.7V | 00:00:00 | 00:00:00 | 00:00:00 | |
| IW2NTF | 2026-09-05 00:00:44 | 48.88912 | 10.57895 | 186° | 9km/h | 21636m | 4.8m/s | 0°C | 0% | 0hPa | 2.7V | 00:00:00 | 01:31:18 | 00:00:00 | |
| DL1NUX | 2026-09-05 00:00:43 | 48.88915 | 10.57896 | 182° | 5km/h | 21626m | 5.8m/s | -54.9°C | 4.5% | 45.3hPa | 2.6V | 08:30:00 | 01:31:16 | 00:00:00 | |
| DM0DOS-11 | 2026-09-05 00:00:43 | 48.88910 | 10.57896 | 164° | 9km/h | 21641m | 5.9m/s | -54.9°C | 4.6% | 45.2hPa | 2.7V | 08:30:00 | 01:31:19 | 00:00:00 | |
| HSKMA3-T | 2026-09-05 00:00:41 | 48.88909 | 10.57896 | 164° | 9km/h | 21641m | 5.9m/s | -54.9°C | 1.2% | 45.2hPa | 2.7V | 18:12:15 | 01:31:19 | 00:00:00 | |
| DC4HF-4 | 2026-09-05 00:00:41 | 48.88912 | 10.57895 | 186° | 7km/h | 21636m | 4.8m/s | -54.9°C | 1.4% | 45.2hPa | 2.7V | 00:00:00 | 00:00:00 | 00:00:00 | |
| DO3MHA-12 | 2026-09-05 00:00:40 | 48.88915 | 10.57896 | 183° | 11km/h | 21626m | 5.8m/s | -54.8°C | 4.5% | 45.3hPa | 2.7V | 00:00:00 | 01:31:16 | 00:00:00 | |
| DJ8HS-15 | 2026-09-05 00:00:39 | 48.88918 | 10.57895 | 138° | 13km/h | 21616m | 4.6m/s | -54.8°C | 4.5% | 45.3hPa | 2.7V | 00:00:00 | 01:31:14 | 00:00:00 | |
| DB0UT-7 | 2026-09-05 00:00:38 | 48.88919 | 10.57894 | 137° | 18km/h | 21611m | 5.6m/s | -54.7°C | 4.5% | 45.4hPa | 2.6V | 00:00:00 | 00:00:00 | 00:00:00 | |
| DM0DOS-11 | 2026-09-05 00:00:36 | 48.88927 | 10.57883 | 148° | 20km/h | 21591m | 4.3m/s | -54.7°C | 4.5% | 45.6hPa | 2.6V | 08:30:00 | 01:31:09 | 00:00:00 | |
| IW2NTF | 2026-09-05 00:00:34 | 48.88932 | 10.57880 | 159° | 22km/h | 21587m | 4.6m/s | 0°C | 0% | 0hPa | 2.7V | 00:00:00 | 01:31:08 | 00:00:00 | |
| DL1NUX | 2026-09-05 00:00:34 | 48.88942 | 10.57878 | 189° | 18km/h | 21576m | 4.9m/s | -54.6°C | 4.5% | 45.7hPa | 2.6V | 08:30:00 | 01:31:06 | 00:00:00 | |
| DO9HM | 2026-09-05 00:00:34 | 48.88927 | 10.57883 | 149° | 20km/h | 21591m | 4.3m/s | -54.7°C | 1.4% | 45.6hPa | 2.7V | 00:00:00 | 00:00:00 | 00:00:00 | |
| DF1GD-15 | 2026-09-05 00:00:33 | 48.88927 | 10.57883 | 149° | 20km/h | 21591m | 4.3m/s | -54.7°C | 1.4% | 45.6hPa | 2.7V | 00:00:00 | 00:00:00 | 00:00:00 | |
| DK5PH-5 | 2026-09-05 00:00:32 | 48.88932 | 10.57880 | 160° | 18km/h | 21587m | 4.5m/s | -54.6°C | 4.5% | 45.5hPa | 2.7V | 00:00:00 | 01:31:08 | 00:00:00 | |
| HSKMA3-T | 2026-09-05 00:00:30 | 48.88932 | 10.57880 | 159° | 22km/h | 21587m | 4.6m/s | -54.7°C | 1.1% | 45.6hPa | 2.7V | 18:12:15 | 01:31:08 | 00:00:00 | |
| EDDB2-11 | 2026-09-05 00:00:30 | 48.88937 | 10.57878 | 172° | 20km/h | 21582m | 5.7m/s | -54.6°C | 1.3% | 45.7hPa | 2.7V | 00:00:00 | 00:00:00 | 00:00:00 | |
| OE5WHR-10 | 2026-09-05 00:00:28 | 48.88942 | 10.57878 | 190° | 18km/h | 21576m | 4.8m/s | -54.6°C | 4.5% | 45.6hPa | 2.7V | 00:00:00 | 01:31:06 | 00:00:00 | |
| SO1NDE-10 | 2026-09-05 00:00:27 | 48.88946 | 10.57880 | 202° | 20km/h | 21572m | 4.1m/s | -54.5°C | 4.5% | 45.6hPa | 2.7V | 00:00:00 | 01:31:05 | 00:00:00 | |
| DM7RM-13 | 2026-09-05 00:00:26 | 48.88949 | 10.57882 | 206° | 15km/h | 21567m | 5.1m/s | -54.6°C | 1.4% | 45.7hPa | 2.7V | 00:00:00 | 00:00:00 | 00:00:00 | |
| DF3TZ-5 | 2026-09-05 00:00:25 | 48.88958 | 10.57885 | 184° | 7km/h | 21552m | 4.7m/s | -54.5°C | 1.3% | 45.9hPa | 2.7V | 00:00:00 | 00:00:00 | 00:00:00 | |
| IW2NTF | 2026-09-05 00:00:23 | 48.88967 | 10.57887 | 174° | 13km/h | 21533m | 4.7m/s | 0°C | 0% | 0hPa | 2.7V | 00:00:00 | 01:30:57 | 00:00:00 | |
| DL1NUX | 2026-09-05 00:00:23 | 48.88971 | 10.57886 | 164° | 16km/h | 21527m | 5.7m/s | -54.4°C | 4.4% | 46hPa | 2.7V | 08:30:00 | 01:30:56 | 00:00:00 | |
| DO3MHA-11 | 2026-09-05 00:00:23 | 48.88960 | 10.57886 | 188° | 22km/h | 21547m | 5.6m/s | -54.4°C | 4.4% | 45.8hPa | 2.6V | 00:00:00 | 01:31:00 | 00:00:00 | |
| DM0DOS-11 | 2026-09-05 00:00:22 | 48.88962 | 10.57886 | 195° | 9km/h | 21541m | 5m/s | -54.4°C | 4.4% | 45.9hPa | 2.6V | 08:30:00 | 01:30:59 | 00:00:00 | |
| DJTTGO | 2026-09-05 00:00:22 | 48.88962 | 10.57886 | 197° | 9km/h | 21541m | 5.1m/s | -54.4°C | 1.3% | 45.9hPa | 2.7V | 00:00:00 | 00:00:00 | 00:00:00 | |
| AZAK | 2026-09-05 00:00:21 | 48.88967 | 10.57887 | 176° | 13km/h | 21533m | 4.7m/s | -54.4°C | 1.3% | 46.0hPa | 2.7V | 00:00:00 | 00:00:00 | 00:00:00 | |
| DB0NH | 2026-09-05 00:00:20 | 48.88975 | 10.57884 | 165° | 27km/h | 21523m | 4.3m/s | -54.3°C | 4.4% | 46.0hPa | 2.7V | 00:00:00 | 01:30:55 | 00:00:00 | |
| HSKMA3-T | 2026-09-05 00:00:19 | 48.88967 | 10.57887 | 175° | 13km/h | 21533m | 4.7m/s | -54.4°C | 1% | 46hPa | 2.7V | 18:12:15 | 01:30:57 | 00:00:00 | |
| DJ8HS-15 | 2026-09-05 00:00:19 | 48.88980 | 10.57882 | 170° | 24km/h | 21518m | 5.0m/s | -54.2°C | 4.3% | 46.0hPa | 2.6V | 00:00:00 | 01:30:54 | 00:00:00 | |
| BIOWL9-15 | 2026-09-05 00:00:18 | 48.89021 | 10.57887 | 191° | 22km/h | 21481m | 6.1m/s | -54.2°C | 1.3% | 46.3hPa | 2.6V | 00:00:00 | 00:00:00 | 00:00:00 | |
| DM0DOS-11 | 2026-09-05 00:00:17 | 48.89010 | 10.57885 | 184° | 24km/h | 21491m | 4.8m/s | -54.2°C | 4.3% | 46.3hPa | 2.6V | 08:30:00 | 01:30:49 | 00:00:00 | |
| DB0ND-19 | 2026-09-05 00:00:15 | 48.88992 | 10.57882 | 185° | 24km/h | 21507m | 4.8m/s | -54.2°C | 1.3% | 46.2hPa | 2.7V | 00:00:00 | 00:00:00 | 00:00:00 | |
| DL1NUX | 2026-09-05 00:00:13 | 48.89027 | 10.57889 | 193° | 22km/h | 21476m | 4.9m/s | -54.2°C | 4.3% | 46.4hPa | 2.7V | 08:30:00 | 01:30:46 | 00:00:00 | |
| DL6DJ-15 | 2026-09-05 00:00:11 | 48.89016 | 10.57886 | 187° | 22km/h | 21487m | 4.4m/s | -54.2°C | 1.3% | 46.3hPa | 2.6V | 00:00:00 | 00:00:00 | 00:00:00 | |
| HSKMA3-T | 2026-09-05 00:00:09 | 48.89021 | 10.57887 | 191° | 22km/h | 21481m | 6.1m/s | -54.2°C | 1% | 46.3hPa | 2.6V | 18:12:15 | 01:30:47 | 00:00:00 | |
| DO3MHA-12 | 2026-09-05 00:00:08 | 48.89027 | 10.57889 | 194° | 24km/h | 21476m | 4.9m/s | -54.2°C | 4.3% | 46.3hPa | 2.7V | 00:00:00 | 01:30:46 | 00:00:00 | |
| OE5WHR-10 | 2026-09-05 00:00:07 | 48.89032 | 10.57890 | 190° | 29km/h | 21471m | 4.7m/s | -54.2°C | 4.3% | 46.4hPa | 2.7V | 00:00:00 | 00:00:00 | 08:30:00 | |
| DB0UT-7 | 2026-09-05 00:00:06 | 48.89042 | 10.57891 | 174° | 31km/h | 21461m | 4.3m/s | -54.3°C | 4.3% | 46.5hPa | 2.7V | 00:00:00 | 01:30:43 | 00:00:00 | |
| SONDE2-11 | 2026-09-05 00:00:05 | 48.89047 | 10.57890 | 173° | 18km/h | 21456m | 4.6m/s | -54.4°C | 1.3% | 46.5hPa | 2.7V | 00:00:00 | 00:00:00 | 00:00:00 | |
| IW2NTF | 2026-09-05 00:00:04 | 48.89058 | 10.57889 | 180° | 22km/h | 21445m | 4.7m/s | 0°C | 0% | 0hPa | 2.7V | 00:00:00 | 01:30:40 | 00:00:00 | |
| DM0DOS-11 | 2026-09-05 00:00:03 | 48.89063 | 10.57889 | 177° | 26km/h | 21441m | 5.3m/s | -54.6°C | 4.4% | 46.6hPa | 2.6V | 08:30:00 | 01:30:39 | 00:00:00 | |
| DL1NUX | 2026-09-05 00:00:00 | 48.89086 | 10.57887 | 178° | 33km/h | 21425m | 5.3m/s | -54.5°C | 4.4% | 46.8hPa | 2.6V | 08:30:00 | 01:30:36 | 00:00:00 | |
| DK5PH-5 | 2026-09-05 00:00:00 | 48.89070 | 10.57889 | 176° | 33km/h | 21435m | 5.6m/s | -54.5°C | 4.4% | 46.6hPa | 2.6V | 00:00:00 | 01:30:38 | 08:30:00 | |
| HSKMA3-T | 2026-09-04 23:59:58 | 48.89086 | 10.57887 | 179° | 33km/h | 21425m | 5.3m/s | -54.5°C | 1% | 46.8hPa | 2.6V | 18:12:15 | 01:30:36 | 00:00:00 | |
| DO3MHA-12 | 2026-09-04 23:59:58 | 48.89086 | 10.57887 | 179° | 31km/h | 21426m | 5.3m/s | -54.5°C | 4.4% | 46.7hPa | 2.7V | 00:00:00 | 01:30:36 | 00:00:00 | |
| SO1NDE-10 | 2026-09-04 23:59:57 | 48.89094 | 10.57887 | 183° | 33km/h | 21420m | 5.5m/s | -54.5°C | 4.3% | 46.8hPa | 2.7V | 00:00:00 | 01:30:35 | 00:00:00 | |
| DM0DOS-11 | 2026-09-04 23:59:56 | 48.89140 | 10.57882 | 168° | 29km/h | 21389m | 4.9m/s | -54.4°C | 4.4% | 47hPa | 2.7V | 08:30:00 | 01:30:29 | 00:00:00 | |
| OE5DRO-10 | 2026-09-04 23:59:55 | 48.89110 | 10.57888 | 181° | 31km/h | 21410m | 5.2m/s | -54.4°C | 4.4% | 46.8hPa | 2.6V | 00:00:00 | 00:00:00 | 00:00:00 | |
| HARRO8 | 2026-09-04 23:59:53 | 48.89133 | 10.57884 | 169° | 29km/h | 21395m | 5.6m/s | -54.4°C | 1.3% | 47.0hPa | 2.6V | 00:00:00 | 00:00:00 | 00:00:00 | |
| NBG1-10 | 2026-09-04 23:59:52 | 48.89133 | 10.57884 | 170° | 33km/h | 21395m | 5.6m/s | -54.4°C | 4.4% | 47.0hPa | 2.6V | 00:00:00 | 01:30:30 | 00:00:00 | |
| DL1NUX | 2026-09-04 23:59:50 | 48.89162 | 10.57871 | 155° | 33km/h | 21374m | 5.1m/s | -54.3°C | 4.4% | 47.1hPa | 2.6V | 08:30:00 | 01:30:26 | 00:00:00 | |
| DF1GD-15 | 2026-09-04 23:59:49 | 48.89147 | 10.57879 | 165° | 29km/h | 21385m | 4.5m/s | -54.4°C | 1.4% | 47.1hPa | 2.6V | 00:00:00 | 00:00:00 | 00:00:00 | |
| HSKMA3-T | 2026-09-04 23:59:48 | 48.89162 | 10.57871 | 155° | 33km/h | 21374m | 5.1m/s | -54.3°C | 1.1% | 47.1hPa | 2.6V | 18:12:15 | 01:30:26 | 00:00:00 | |
| DO3MHA-12 | 2026-09-04 23:59:48 | 48.89162 | 10.57871 | 156° | 33km/h | 21374m | 5.1m/s | -54.3°C | 4.4% | 47.1hPa | 2.6V | 00:00:00 | 01:30:26 | 08:30:00 | |
| DB0NH | 2026-09-04 23:59:47 | 48.89170 | 10.57866 | 156° | 35km/h | 21369m | 4.4m/s | -54.3°C | 4.4% | 47.1hPa | 2.6V | 00:00:00 | 01:30:25 | 08:30:00 | |
| OE5DXL-15 | 2026-09-04 23:59:46 | 48.89177 | 10.57860 | 158° | 35km/h | 21364m | 5.6m/s | -54.3°C | 4.4% | 47.2hPa | 2.7V | 00:00:00 | 00:00:00 | 00:00:00 | |
| BIOWL9-15 | 2026-09-04 23:59:44 | 48.89200 | 10.57848 | 158° | 31km/h | 21349m | 5.8m/s | -54.3°C | 1.3% | 47.3hPa | 2.7V | 00:00:00 | 00:00:00 | 00:00:00 | |
| DF2AP-13 | 2026-09-04 23:59:43 | 48.89199 | 10.57848 | 159° | 35km/h | 21349m | 5.7m/s | -54.2°C | 4.3% | 47.3hPa | 2.7V | 00:00:00 | 01:30:21 | 00:00:00 | |
| DM0DOS-11 | 2026-09-04 23:59:42 | 48.89215 | 10.57840 | 162° | 33km/h | 21339m | 5m/s | -54.3°C | 4.3% | 47.4hPa | 2.7V | 08:30:00 | 01:30:19 | 00:00:00 | |
| DL1NUX | 2026-09-04 23:59:40 | 48.89239 | 10.57830 | 164° | 35km/h | 21324m | 4.8m/s | -54.4°C | 4.4% | 47.5hPa | 2.6V | 08:30:00 | 01:30:16 | 00:00:00 | |
| OE5WHR-10 | 2026-09-04 23:59:40 | 48.89223 | 10.57836 | 166° | 33km/h | 21334m | 5.5m/s | -54.3°C | 4.3% | 47.4hPa | 2.6V | 00:00:00 | 00:00:00 | 00:00:00 | |
| DL6DJ-15 | 2026-09-04 23:59:39 | 48.89231 | 10.57833 | 166° | 31km/h | 21329m | 3.9m/s | -54.4°C | 1.3% | 47.5hPa | 2.6V | 00:00:00 | 00:00:00 | 00:00:00 | |
| DO3MHA-12 | 2026-09-04 23:59:38 | 48.89239 | 10.57830 | 165° | 37km/h | 21325m | 4.8m/s | -54.4°C | 4.4% | 47.4hPa | 2.6V | 00:00:00 | 01:30:16 | 00:00:00 | |
| HSKMA3-T | 2026-09-04 23:59:37 | 48.89247 | 10.57826 | 161° | 37km/h | 21319m | 5.7m/s | -54.5°C | 1% | 47.5hPa | 2.6V | 18:12:15 | 01:30:15 | 00:00:00 | |
| DJ8HS-15 | 2026-09-04 23:59:36 | 48.89256 | 10.57821 | 159° | 35km/h | 21314m | 5.0m/s | -54.5°C | 4.5% | 47.5hPa | 2.6V | 00:00:00 | 01:30:14 | 00:00:00 | |
| DB0UT-7 | 2026-09-04 23:59:35 | 48.89265 | 10.57815 | 159° | 33km/h | 21309m | 5.7m/s | -54.5°C | 4.5% | 47.6hPa | 2.7V | 00:00:00 | 00:00:00 | 00:00:00 | |
| OE5DRO-10 | 2026-09-04 23:59:34 | 48.89274 | 10.57810 | 158° | 33km/h | 21303m | 5.5m/s | -54.5°C | 4.5% | 47.6hPa | 2.6V | 00:00:00 | 00:00:00 | 00:00:00 | |
| DL1NUX | 2026-09-04 23:59:33 | 48.89321 | 10.57770 | 149° | 31km/h | 21273m | 5.5m/s | -54.4°C | 4.3% | 47.9hPa | 2.6V | 08:30:00 | 01:30:06 | 00:00:00 | |
| SONCRA | 2026-09-04 23:59:33 | 48.89291 | 10.57798 | 151° | 35km/h | 21293m | 5.0m/s | -54.5°C | 1.3% | 47.7hPa | 2.6V | 00:00:00 | 00:00:00 | 00:00:00 | |
| DK5PH-5 | 2026-09-04 23:59:30 | 48.89306 | 10.57784 | 147° | 33km/h | 21283m | 4.3m/s | -54.4°C | 4.4% | 47.8hPa | 2.6V | 00:00:00 | 01:30:08 | 00:00:00 | |
| DF1GD-15 | 2026-09-04 23:59:29 | 48.89314 | 10.57776 | 148° | 33km/h | 21278m | 5.0m/s | -54.4°C | 1.3% | 47.9hPa | 2.6V | 00:00:00 | 00:00:00 | 00:00:00 | |
| DO3MHA-12 | 2026-09-04 23:59:28 | 48.89321 | 10.57770 | 150° | 33km/h | 21273m | 5.4m/s | -54.3°C | 4.3% | 47.8hPa | 2.6V | 00:00:00 | 01:30:06 | 00:00:00 | |
| SO1NDE-10 | 2026-09-04 23:59:27 | 48.89327 | 10.57764 | 152° | 33km/h | 21268m | 4.2m/s | -54.3°C | 4.3% | 47.9hPa | 2.6V | 00:00:00 | 01:30:05 | 00:00:00 | |
| DM0DOS-11 | 2026-09-04 23:59:26 | 48.89368 | 10.57727 | 141° | 35km/h | 21238m | 3.9m/s | -54.2°C | 4.3% | 48.2hPa | 2.6V | 08:30:00 | 01:29:59 | 00:00:00 | |
| HSKMA3-T | 2026-09-04 23:59:26 | 48.89334 | 10.57759 | 153° | 29km/h | 21263m | 5.4m/s | -54.4°C | 1% | 48hPa | 2.6V | 18:12:15 | 01:30:04 | 00:00:00 | |
| DO3MHA-11 | 2026-09-04 23:59:26 | 48.89334 | 10.57759 | 154° | 35km/h | 21263m | 5.3m/s | -54.3°C | 4.3% | 47.9hPa | 2.7V | 00:00:00 | 01:30:04 | 00:00:00 | |
| DM7RM-13 | 2026-09-04 23:59:24 | 48.89340 | 10.57754 | 153° | 31km/h | 21258m | 5.5m/s | -54.4°C | 1.4% | 48.0hPa | 2.7V | 00:00:00 | 00:00:00 | 00:00:00 | |
| DL1NUX | 2026-09-04 23:59:23 | 48.89389 | 10.57699 | 138° | 37km/h | 21223m | 4.7m/s | -54.1°C | 4.3% | 48.3hPa | 2.7V | 08:30:00 | 01:29:56 | 00:00:00 | |
| DO9HM | 2026-09-04 23:59:23 | 48.89355 | 10.57741 | 148° | 33km/h | 21248m | 5.6m/s | -54.3°C | 1.3% | 48.1hPa | 2.6V | 00:00:00 | 00:00:00 | 00:00:00 | |
| HARRO8 | 2026-09-04 23:59:22 | 48.89368 | 10.57727 | 141° | 33km/h | 21238m | 3.9m/s | -54.3°C | 1.3% | 48.2hPa | 2.6V | 00:00:00 | 00:00:00 | 00:00:00 | |
| PG1ADW-2 | 2026-09-04 23:59:20 | 48.89375 | 10.57718 | 140° | 33km/h | 21234m | 5.4m/s | -54.2°C | 4.3% | 48.1hPa | 2.6V | 00:00:00 | 00:00:00 | 00:00:00 | |
| NBG1-10 | 2026-09-04 23:59:19 | 48.89382 | 10.57708 | 139° | 31km/h | 21228m | 4.9m/s | -54.1°C | 4.3% | 48.2hPa | 2.7V | 00:00:00 | 01:29:57 | 00:00:00 | |
| DO3MHA-12 | 2026-09-04 23:59:18 | 48.89389 | 10.57699 | 139° | 31km/h | 21224m | 4.6m/s | -54.1°C | 4.3% | 48.2hPa | 2.7V | 00:00:00 | 01:29:56 | 00:00:00 | |
| AZAK | 2026-09-04 23:59:17 | 48.89395 | 10.57690 | 139° | 35km/h | 21218m | 6.0m/s | -54.1°C | 1.3% | 48.3hPa | 2.6V | 00:00:00 | 00:00:00 | 00:00:00 | |
| DO3MHA-11 | 2026-09-04 23:59:16 | 48.89402 | 10.57681 | 138° | 31km/h | 21213m | 4.5m/s | -54.0°C | 4.3% | 48.3hPa | 2.6V | 00:00:00 | 01:29:54 | 00:00:00 | |
| HSKMA3-T | 2026-09-04 23:59:15 | 48.89408 | 10.57673 | 137° | 31km/h | 21208m | 4.7m/s | -54.1°C | 1% | 48.4hPa | 2.6V | 18:12:15 | 01:29:53 | 00:00:00 | |
| OE5DRO-10 | 2026-09-04 23:59:15 | 48.89408 | 10.57673 | 137° | 31km/h | 21209m | 4.6m/s | -54.0°C | 4.3% | 48.3hPa | 2.7V | 00:00:00 | 00:00:00 | 00:00:00 | |
| DL1NUX | 2026-09-04 23:59:13 | 48.89446 | 10.57615 | 120° | 29km/h | 21173m | 5.7m/s | -54.4°C | 4.3% | 48.6hPa | 2.7V | 08:30:00 | 01:29:46 | 00:00:00 | |
| BIOWL9-15 | 2026-09-04 23:59:13 | 48.89426 | 10.57647 | 138° | 31km/h | 21193m | 4.6m/s | -54.2°C | 1.3% | 48.5hPa | 2.6V | 00:00:00 | 00:00:00 | 00:00:00 | |
| DM0DOS-11 | 2026-09-04 23:59:12 | 48.89432 | 10.57639 | 138° | 31km/h | 21188m | 5.9m/s | -54.3°C | 4.4% | 48.5hPa | 2.6V | 08:30:00 | 01:29:49 | 00:00:00 | |
| OE5WHR-10 | 2026-09-04 23:59:12 | 48.89425 | 10.57647 | 139° | 31km/h | 21193m | 4.5m/s | -54.2°C | 4.3% | 48.5hPa | 2.6V | 00:00:00 | 01:29:50 | 00:00:00 | |
| DO3MHA-12 | 2026-09-04 23:59:08 | 48.89446 | 10.57615 | 121° | 33km/h | 21173m | 5.7m/s | -54.4°C | 4.3% | 48.6hPa | 2.6V | 00:00:00 | 01:29:46 | 00:00:00 | |
| DM0DOS-11 | 2026-09-04 23:59:06 | 48.89478 | 10.57539 | 132° | 37km/h | 21135m | 5m/s | -54.3°C | 4.2% | 48.9hPa | 2.6V | 08:30:00 | 01:29:39 | 00:00:00 | |
| DO3MHA-11 | 2026-09-04 23:59:06 | 48.89453 | 10.57593 | 116° | 33km/h | 21162m | 4.4m/s | -54.4°C | 4.4% | 48.7hPa | 2.6V | 00:00:00 | 01:29:44 | 00:00:00 | |
| DB0UT-7 | 2026-09-04 23:59:05 | 48.89457 | 10.57581 | 118° | 31km/h | 21157m | 5.7m/s | -54.4°C | 4.3% | 48.7hPa | 2.6V | 00:00:00 | 01:29:43 | 00:00:00 | |
| HSKMA3-T | 2026-09-04 23:59:04 | 48.89461 | 10.57570 | 122° | 33km/h | 21151m | 5.3m/s | -54.4°C | 1.1% | 48.8hPa | 2.6V | 18:12:15 | 01:29:42 | 00:00:00 | |
| DL1NUX | 2026-09-04 23:59:03 | 48.89496 | 10.57513 | 137° | 29km/h | 21120m | 4.5m/s | -54.3°C | 4.2% | 49.1hPa | 2.6V | 08:30:00 | 01:29:36 | 00:00:00 | |
| SONDE2-11 | 2026-09-04 23:59:02 | 48.89471 | 10.57549 | 130° | 35km/h | 21141m | 6.1m/s | -54.3°C | 1.3% | 48.9hPa | 2.6V | 00:00:00 | 00:00:00 | 00:00:00 | |
| HSKMA3-T | 2026-09-04 23:58:53 | 48.89514 | 10.57465 | 108° | 29km/h | 21094m | 6m/s | -54.6°C | 1% | 49.2hPa | 2.6V | 18:12:15 | 01:29:31 | 00:00:00 | |
| DM0DOS-11 | 2026-09-04 23:58:52 | 48.89519 | 10.57444 | 109° | 29km/h | 21083m | 5.4m/s | -54.8°C | 4.4% | 49.3hPa | 2.7V | 08:30:00 | 01:29:29 | 00:00:00 | |
| HARRO8 | 2026-09-04 23:58:50 | 48.89521 | 10.57433 | 112° | 29km/h | 21078m | 6.0m/s | -54.8°C | 1.4% | 49.4hPa | 2.6V | 00:00:00 | 00:00:00 | 00:00:00 | |
| DO3MHA-12 | 2026-09-04 23:58:48 | 48.89528 | 10.57412 | 119° | 27km/h | 21068m | 4.2m/s | -54.8°C | 4.4% | 49.4hPa | 2.6V | 00:00:00 | 01:29:26 | 00:00:00 | |
| DM0DOS-11 | 2026-09-04 23:58:47 | 48.89549 | 10.57349 | 101° | 33km/h | 21033m | 4.8m/s | -54.7°C | 4.4% | 49.7hPa | 2.7V | 08:30:00 | 01:29:19 | 00:00:00 | |
| NBG1-10 | 2026-09-04 23:58:46 | 48.89534 | 10.57396 | 126° | 31km/h | 21058m | 4.5m/s | -54.8°C | 4.4% | 49.5hPa | 2.7V | 00:00:00 | 01:29:24 | 08:30:00 | |
| OE5DRO-10 | 2026-09-04 23:58:44 | 48.89541 | 10.57381 | 122° | 29km/h | 21048m | 5.6m/s | -54.7°C | 4.4% | 49.5hPa | 2.6V | 00:00:00 | 00:00:00 | 08:30:00 | |
| DL1NUX | 2026-09-04 23:58:43 | 48.89552 | 10.57312 | 100° | 33km/h | 21018m | 5m/s | -54.8°C | 4.4% | 49.9hPa | 2.6V | 08:30:00 | 01:29:16 | 00:00:00 | |
| HSKMA3-T | 2026-09-04 23:58:43 | 48.89544 | 10.57372 | 114° | 29km/h | 21043m | 5m/s | -54.8°C | 1.1% | 49.7hPa | 2.6V | 18:12:15 | 01:29:21 | 00:00:00 | |
| DF2AP-13 | 2026-09-04 23:58:43 | 48.89544 | 10.57372 | 115° | 31km/h | 21043m | 4.9m/s | -54.7°C | 4.4% | 49.6hPa | 2.6V | 00:00:00 | 01:29:21 | 00:00:00 | |
| DB0ND-19 | 2026-09-04 23:58:41 | 48.89549 | 10.57349 | 101° | 31km/h | 21033m | 4.8m/s | -54.7°C | 1.4% | 49.7hPa | 2.6V | 00:00:00 | 00:00:00 | 00:00:00 | |
| PG1ADW-2 | 2026-09-04 23:58:40 | 48.89550 | 10.57337 | 97° | 31km/h | 21028m | 5.6m/s | -54.7°C | 4.3% | 49.7hPa | 2.6V | 00:00:00 | 00:00:00 | 00:00:00 | |
| DO9HM | 2026-09-04 23:58:39 | 48.89550 | 10.57337 | 98° | 33km/h | 21028m | 5.7m/s | -54.8°C | 1.4% | 49.8hPa | 2.6V | 00:00:00 | 00:00:00 | 00:00:00 | |
| DO3MHA-12 | 2026-09-04 23:58:38 | 48.89552 | 10.57312 | 101° | 29km/h | 21018m | 4.9m/s | -54.8°C | 4.4% | 49.8hPa | 2.6V | 00:00:00 | 01:29:16 | 00:00:00 | |
| DL6DJ-15 | 2026-09-04 23:58:37 | 48.89554 | 10.57300 | 105° | 35km/h | 21013m | 5.6m/s | -54.9°C | 1.3% | 49.9hPa | 2.6V | 00:00:00 | 00:00:00 | 00:00:00 | |
| DJ8HS-15 | 2026-09-04 23:58:36 | 48.89557 | 10.57287 | 112° | 31km/h | 21008m | 4.9m/s | -54.9°C | 4.4% | 49.9hPa | 2.6V | 00:00:00 | 01:29:14 | 08:30:00 | |
| DB0UT-7 | 2026-09-04 23:58:35 | 48.89560 | 10.57275 | 115° | 37km/h | 21003m | 5.9m/s | -54.9°C | 4.4% | 49.9hPa | 2.6V | 00:00:00 | 00:00:00 | 00:00:00 | |
| DL1NUX | 2026-09-04 23:58:33 | 48.89575 | 10.57205 | 91° | 27km/h | 20967m | 5.6m/s | -55.3°C | 4.6% | 50.2hPa | 2.6V | 08:30:00 | 01:29:06 | 00:00:00 | |
| DM0DOS-11 | 2026-09-04 23:58:32 | 48.89571 | 10.57237 | 108° | 27km/h | 20982m | 5.6m/s | -55.2°C | 4.5% | 50.1hPa | 2.6V | 08:30:00 | 01:29:09 | 00:00:00 | |
| HSKMA3-T | 2026-09-04 23:58:32 | 48.89569 | 10.57246 | 112° | 26km/h | 20987m | 4.5m/s | -55.2°C | 1.2% | 50hPa | 2.6V | 18:12:15 | 01:29:10 | 00:00:00 | |
| SONCRA | 2026-09-04 23:58:31 | 48.89573 | 10.57226 | 103° | 27km/h | 20977m | 4.7m/s | -55.3°C | 1.4% | 50.2hPa | 2.7V | 00:00:00 | 00:00:00 | 00:00:00 | |
| DK5PH-5 | 2026-09-04 23:58:30 | 48.89573 | 10.57226 | 104° | 35km/h | 20978m | 4.7m/s | -55.2°C | 4.5% | 50.1hPa | 2.7V | 00:00:00 | 01:29:08 | 00:00:00 | |
| DO3MHA-12 | 2026-09-04 23:58:28 | 48.89575 | 10.57205 | 92° | 31km/h | 20967m | 5.5m/s | -55.2°C | 4.6% | 50.2hPa | 2.6V | 00:00:00 | 01:29:06 | 00:00:00 | |
| SO1NDE-10 | 2026-09-04 23:58:27 | 48.89575 | 10.57195 | 88° | 37km/h | 20962m | 4.8m/s | -55.3°C | 4.5% | 50.2hPa | 2.6V | 00:00:00 | 01:29:05 | 08:30:00 | |
| DM0DOS-11 | 2026-09-04 23:58:26 | 48.89574 | 10.57124 | 91° | 29km/h | 20931m | 4.6m/s | -55.3°C | 4.5% | 50.5hPa | 2.6V | 08:30:00 | 01:28:59 | 00:00:00 | |
| EDDB2-11 | 2026-09-04 23:58:26 | 48.89575 | 10.57171 | 89° | 33km/h | 20951m | 4.8m/s | -55.3°C | 1.4% | 50.3hPa | 2.7V | 00:00:00 | 00:00:00 | 00:00:00 | |
| DL1NUX | 2026-09-04 23:58:23 | 48.89577 | 10.57087 | 101° | 33km/h | 20916m | 4m/s | -55.3°C | 4.5% | 50.6hPa | 2.7V | 08:30:00 | 01:28:56 | 00:00:00 | |
| HSKMA3-T | 2026-09-04 23:58:21 | 48.89574 | 10.57124 | 92° | 29km/h | 20931m | 4.6m/s | -55.3°C | 1.1% | 50.5hPa | 2.6V | 18:12:15 | 01:28:59 | 00:00:00 | |
| PG1ADW-2 | 2026-09-04 23:58:20 | 48.89575 | 10.57112 | 96° | 38km/h | 20925m | 6.0m/s | -55.2°C | 4.5% | 50.5hPa | 2.6V | 00:00:00 | 01:28:58 | 08:30:00 | |
| HARRO8 | 2026-09-04 23:58:19 | 48.89576 | 10.57100 | 99° | 33km/h | 20920m | 4.7m/s | -55.3°C | 1.4% | 50.6hPa | 2.7V | 00:00:00 | 00:00:00 | 00:00:00 | |
| DO3MHA-12 | 2026-09-04 23:58:18 | 48.89577 | 10.57087 | 102° | 37km/h | 20916m | 4.0m/s | -55.3°C | 4.5% | 50.6hPa | 2.7V | 00:00:00 | 01:28:56 | 08:30:00 | |
| DB0NH | 2026-09-04 23:58:17 | 48.89579 | 10.57075 | 103° | 40km/h | 20911m | 5.5m/s | -55.3°C | 4.5% | 50.7hPa | 2.6V | 00:00:00 | 01:28:55 | 00:00:00 | |
| DJ8HS-15 | 2026-09-04 23:58:16 | 48.89580 | 10.57063 | 105° | 40km/h | 20906m | 4.7m/s | -55.3°C | 4.5% | 50.7hPa | 2.7V | 00:00:00 | 01:28:54 | 00:00:00 | |
| AZAK | 2026-09-04 23:58:15 | 48.89583 | 10.57051 | 106° | 33km/h | 20901m | 4.6m/s | -55.3°C | 1.4% | 50.8hPa | 2.7V | 00:00:00 | 00:00:00 | 00:00:00 | |
| DL1NUX | 2026-09-04 23:58:13 | 48.89586 | 10.56949 | 86° | 44km/h | 20866m | 5.5m/s | -55.8°C | 4.7% | 51hPa | 2.7V | 08:30:00 | 01:28:46 | 00:00:00 | |
| NBG1-10 | 2026-09-04 23:58:13 | 48.89587 | 10.57024 | 101° | 40km/h | 20891m | 4.7m/s | -55.5°C | 4.5% | 50.8hPa | 2.6V | 00:00:00 | 01:28:51 | 00:00:00 | |
| DM0DOS-11 | 2026-09-04 23:58:12 | 48.89589 | 10.56995 | 89° | 38km/h | 20880m | 5.5m/s | -55.6°C | 4.6% | 50.9hPa | 2.6V | 08:30:00 | 01:28:49 | 00:00:00 | |
| HSKMA3-T | 2026-09-04 23:58:10 | 48.89588 | 10.56980 | 85° | 38km/h | 20875m | 4.3m/s | -55.7°C | 1.2% | 51hPa | 2.6V | 18:12:15 | 01:28:48 | 00:00:00 | |
| DO3MHA-12 | 2026-09-04 23:58:08 | 48.89586 | 10.56949 | 87° | 42km/h | 20866m | 5.5m/s | -55.7°C | 4.7% | 51.0hPa | 2.6V | 00:00:00 | 01:28:46 | 00:00:00 | |
| DM0DOS-11 | 2026-09-04 23:58:06 | 48.89592 | 10.56836 | 95° | 42km/h | 20830m | 4.5m/s | -55.8°C | 4.7% | 51.3hPa | 2.6V | 08:30:00 | 01:28:39 | 00:00:00 | |
| DO3MHA-11 | 2026-09-04 23:58:06 | 48.89586 | 10.56915 | 94° | 42km/h | 20856m | 4.3m/s | -55.8°C | 4.7% | 51.1hPa | 2.6V | 00:00:00 | 01:28:44 | 00:00:00 | |
| OE5WHR-10 | 2026-09-04 23:58:04 | 48.89588 | 10.56882 | 97° | 38km/h | 20846m | 4.9m/s | -55.8°C | 4.7% | 51.2hPa | 2.6V | 00:00:00 | 01:28:42 | 00:00:00 | |
| DM7RM-13 | 2026-09-04 23:58:02 | 48.89589 | 10.56868 | 98° | 40km/h | 20841m | 4.7m/s | -55.9°C | 1.5% | 51.3hPa | 2.6V | 00:00:00 | 00:00:00 | 00:00:00 | |
| DF7PN | 2026-09-04 23:58:01 | 48.89592 | 10.56836 | 95° | 42km/h | 20830m | 4.5m/s | -55.8°C | 1.4% | 51.3hPa | 2.6V | 00:00:00 | 00:00:00 | 00:00:00 | |
| DL1NUX | 2026-09-04 23:58:00 | 48.89592 | 10.56788 | 83° | 40km/h | 20816m | 5.1m/s | -55.7°C | 4.7% | 51.4hPa | 2.6V | 08:30:00 | 01:28:36 | 00:00:00 | |
| HSKMA3-T | 2026-09-04 23:57:59 | 48.89592 | 10.56804 | 87° | 42km/h | 20821m | 5.6m/s | -55.7°C | 1.2% | 51.4hPa | 2.6V | 18:12:15 | 01:28:37 | 00:00:00 | |
| EDDB2-11 | 2026-09-04 23:57:54 | 48.89585 | 10.56724 | 80° | 40km/h | 20795m | 5.6m/s | -55.5°C | 1.4% | 51.6hPa | 2.6V | 00:00:00 | 00:00:00 | 00:00:00 | |
| DL1NUX | 2026-09-04 23:57:53 | 48.89577 | 10.56633 | 80° | 38km/h | 20765m | 5.8m/s | -55.4°C | 4.6% | 51.9hPa | 2.6V | 08:30:00 | 01:28:26 | 00:00:00 | |
| DM0DOS-11 | 2026-09-04 23:57:52 | 48.89581 | 10.56679 | 81° | 40km/h | 20780m | 5.9m/s | -55.5°C | 4.7% | 51.7hPa | 2.7V | 08:30:00 | 01:28:29 | 00:00:00 | |
| HSKMA3-T | 2026-09-04 23:57:49 | 48.89578 | 10.56648 | 83° | 40km/h | 20770m | 4m/s | -55.4°C | 1.2% | 51.8hPa | 2.6V | 18:12:15 | 01:28:27 | 00:00:00 | |
| HARRO8 | 2026-09-04 23:57:48 | 48.89575 | 10.56619 | 78° | 37km/h | 20760m | 4.8m/s | -55.4°C | 1.4% | 51.9hPa | 2.7V | 00:00:00 | 00:00:00 | 00:00:00 | |
| DB0NH | 2026-09-04 23:57:47 | 48.89575 | 10.56619 | 79° | 35km/h | 20760m | 4.8m/s | -55.4°C | 4.6% | 51.9hPa | 2.7V | 00:00:00 | 01:28:25 | 00:00:00 | |
| DM0DOS-11 | 2026-09-04 23:57:46 | 48.89564 | 10.56532 | 78° | 37km/h | 20729m | 5.2m/s | -55.2°C | 4.5% | 52.2hPa | 2.7V | 08:30:00 | 01:28:19 | 00:00:00 | |
| DO3MHA-11 | 2026-09-04 23:57:46 | 48.89573 | 10.56605 | 79° | 37km/h | 20755m | 4.2m/s | -55.4°C | 4.6% | 51.9hPa | 2.7V | 00:00:00 | 01:28:24 | 00:00:00 | |
| DF1GD-15 | 2026-09-04 23:57:45 | 48.89573 | 10.56605 | 79° | 37km/h | 20755m | 4.2m/s | -55.4°C | 1.5% | 51.9hPa | 2.6V | 00:00:00 | 00:00:00 | 00:00:00 | |
| DL1NUX | 2026-09-04 23:57:43 | 48.89560 | 10.56492 | 84° | 37km/h | 20714m | 4.2m/s | -55.1°C | 4.5% | 52.3hPa | 2.6V | 08:30:00 | 01:28:16 | 00:00:00 | |
| HSKMA3-T | 2026-09-04 23:57:38 | 48.89560 | 10.56492 | 84° | 37km/h | 20714m | 4.2m/s | -55.1°C | 1.1% | 52.3hPa | 2.6V | 18:12:15 | 01:28:16 | 00:00:00 | |
| DO3MHA-12 | 2026-09-04 23:57:38 | 48.89560 | 10.56492 | 85° | 35km/h | 20714m | 4.1m/s | -55.1°C | 4.5% | 52.3hPa | 2.7V | 00:00:00 | 01:28:16 | 00:00:00 | |
| DJ8HS-15 | 2026-09-04 23:57:36 | 48.89558 | 10.56465 | 81° | 33km/h | 20704m | 5.6m/s | -55.0°C | 4.4% | 52.3hPa | 2.7V | 00:00:00 | 01:28:14 | 00:00:00 | |
| DL6DJ-15 | 2026-09-04 23:57:35 | 48.89557 | 10.56453 | 77° | 33km/h | 20699m | 5.1m/s | -55.1°C | 1.4% | 52.4hPa | 2.6V | 00:00:00 | 00:00:00 | 00:00:00 | |
| AZAK | 2026-09-04 23:57:33 | 48.89555 | 10.56440 | 78° | 35km/h | 20694m | 5.6m/s | -55.1°C | 1.4% | 52.4hPa | 2.6V | 00:00:00 | 00:00:00 | 00:00:00 | |
| DM0DOS-11 | 2026-09-04 23:57:32 | 48.89549 | 10.56398 | 75° | 37km/h | 20679m | 5.4m/s | -55°C | 4.4% | 52.6hPa | 2.6V | 08:30:00 | 01:28:09 | 00:00:00 | |
| DL1NUX | 2026-09-04 23:57:30 | 48.89541 | 10.56361 | 70° | 35km/h | 20665m | 5.1m/s | -55.1°C | 4.4% | 52.7hPa | 2.6V | 08:30:00 | 01:28:06 | 00:00:00 | |
| HSKMA3-T | 2026-09-04 23:57:27 | 48.89538 | 10.56348 | 74° | 37km/h | 20659m | 5.3m/s | -55.2°C | 1.1% | 52.7hPa | 2.6V | 18:12:15 | 01:28:05 | 00:00:00 | |
| SO1NDE-10 | 2026-09-04 23:57:27 | 48.89538 | 10.56348 | 75° | 29km/h | 20660m | 5.3m/s | -55.1°C | 4.5% | 52.7hPa | 2.6V | 00:00:00 | 01:28:05 | 00:00:00 | |
| DM0DOS-11 | 2026-09-04 23:57:26 | 48.89530 | 10.56274 | 87° | 31km/h | 20630m | 5.8m/s | -55.1°C | 4.4% | 53hPa | 2.6V | 08:30:00 | 01:27:59 | 00:00:00 | |
| DO3MHA-11 | 2026-09-04 23:57:26 | 48.89536 | 10.56335 | 78° | 31km/h | 20654m | 4.6m/s | -55.1°C | 4.4% | 52.7hPa | 2.6V | 00:00:00 | 01:28:04 | 00:00:00 | |
| DF1GD-15 | 2026-09-04 23:57:24 | 48.89534 | 10.56322 | 80° | 35km/h | 20650m | 4.6m/s | -55.1°C | 1.4% | 52.8hPa | 2.6V | 00:00:00 | 00:00:00 | 00:00:00 | |
| OE5WHR-10 | 2026-09-04 23:57:23 | 48.89531 | 10.56297 | 83° | 29km/h | 20640m | 4.4m/s | -55.1°C | 4.5% | 52.8hPa | 2.6V | 00:00:00 | 00:00:00 | 00:00:00 | |
| DM7RM-13 | 2026-09-04 23:57:21 | 48.89530 | 10.56286 | 85° | 29km/h | 20636m | 4.6m/s | -55.1°C | 1.4% | 52.9hPa | 2.6V | 00:00:00 | 00:00:00 | 00:00:00 | |
| PG1ADW-2 | 2026-09-04 23:57:20 | 48.89530 | 10.56262 | 89° | 27km/h | 20625m | 4.2m/s | -55.0°C | 4.4% | 53.0hPa | 2.6V | 00:00:00 | 00:00:00 | 00:00:00 | |
| DL1NUX | 2026-09-04 23:57:19 | 48.89529 | 10.56239 | 80° | 29km/h | 20615m | 5.1m/s | -55°C | 4.5% | 53.1hPa | 2.7V | 08:30:00 | 01:27:56 | 00:00:00 | |
| HSKMA3-T | 2026-09-04 23:57:17 | 48.89527 | 10.56228 | 76° | 29km/h | 20611m | 4.3m/s | -55°C | 1% | 53.1hPa | 2.6V | 18:12:15 | 01:27:55 | 00:00:00 | |
| DB0NH | 2026-09-04 23:57:17 | 48.89527 | 10.56228 | 77° | 27km/h | 20611m | 4.2m/s | -54.9°C | 4.4% | 53.1hPa | 2.7V | 00:00:00 | 01:27:55 | 00:00:00 | |
| DJ8HS-15 | 2026-09-04 23:57:16 | 48.89525 | 10.56217 | 75° | 27km/h | 20606m | 5.8m/s | -54.9°C | 4.4% | 53.1hPa | 2.7V | 00:00:00 | 01:27:54 | 00:00:00 | |
| AZAK | 2026-09-04 23:57:14 | 48.89520 | 10.56193 | 72° | 31km/h | 20596m | 4.6m/s | -55.0°C | 1.3% | 53.2hPa | 2.7V | 00:00:00 | 00:00:00 | 00:00:00 | |
| DF2AP-13 | 2026-09-04 23:57:13 | 48.89518 | 10.56182 | 68° | 27km/h | 20590m | 5.7m/s | -54.9°C | 4.3% | 53.2hPa | 2.7V | 00:00:00 | 01:27:51 | 00:00:00 | |
| DL1ZP-14 | 2026-09-04 23:57:11 | 48.89512 | 10.56163 | 70° | 26km/h | 20581m | 3.9m/s | -55.1°C | 1.3% | 53.4hPa | 2.6V | 00:00:00 | 00:00:00 | 00:00:00 | |
| DL1NUX | 2026-09-04 23:57:09 | 48.89508 | 10.56133 | 81° | 26km/h | 20566m | 4.6m/s | -55.3°C | 4.4% | 53.5hPa | 2.7V | 08:30:00 | 01:27:46 | 00:00:00 | |
| HSKMA3-T | 2026-09-04 23:57:06 | 48.89506 | 10.56114 | 80° | 24km/h | 20556m | 4.5m/s | -55.4°C | 1% | 53.5hPa | 2.6V | 18:12:15 | 01:27:44 | 00:00:00 | |
| DO3MHA-11 | 2026-09-04 23:57:06 | 48.89506 | 10.56114 | 81° | 26km/h | 20556m | 4.4m/s | -55.4°C | 4.4% | 53.5hPa | 2.7V | 00:00:00 | 01:27:44 | 00:00:00 | |
| DL6DJ-15 | 2026-09-04 23:57:04 | 48.89502 | 10.56086 | 75° | 26km/h | 20541m | 4.3m/s | -55.6°C | 1.4% | 53.7hPa | 2.7V | 00:00:00 | 00:00:00 | 00:00:00 | |
| OE5WHR-10 | 2026-09-04 23:57:01 | 48.89498 | 10.56068 | 64° | 26km/h | 20532m | 4.6m/s | -55.7°C | 4.6% | 53.7hPa | 2.7V | 00:00:00 | 00:00:00 | 00:00:00 | |
| PG1ADW-2 | 2026-09-04 23:57:00 | 48.89495 | 10.56060 | 61° | 27km/h | 20527m | 4.6m/s | -55.7°C | 4.7% | 53.8hPa | 2.7V | 00:00:00 | 01:27:38 | 00:00:00 | |
| DL1NUX | 2026-09-04 23:56:59 | 48.89489 | 10.56042 | 68° | 29km/h | 20516m | 5m/s | -55.8°C | 4.7% | 53.9hPa | 2.7V | 08:30:00 | 01:27:36 | 00:00:00 | |
| HSKMA3-T | 2026-09-04 23:56:55 | 48.89483 | 10.56008 | 79° | 29km/h | 20503m | 4.7m/s | -55.7°C | 1.2% | 54hPa | 2.6V | 18:12:15 | 01:27:33 | 00:00:00 | |
| DB0UT-7 | 2026-09-04 23:56:54 | 48.89482 | 10.55998 | 84° | 24km/h | 20499m | 3.9m/s | -55.6°C | 4.7% | 54.0hPa | 2.7V | 00:00:00 | 01:27:32 | 00:00:00 | |
| DM0DOS-11 | 2026-09-04 23:56:52 | 48.89482 | 10.55965 | 98° | 31km/h | 20484m | 4.6m/s | -55.7°C | 4.7% | 54.2hPa | 2.7V | 08:30:00 | 01:27:29 | 00:00:00 | |
| DL1NUX | 2026-09-04 23:56:49 | 48.89487 | 10.55932 | 105° | 26km/h | 20471m | 5.4m/s | -55.7°C | 4.6% | 54.3hPa | 2.6V | 08:30:00 | 01:27:26 | 00:00:00 | |
| DO3MHA-12 | 2026-09-04 23:56:48 | 48.89487 | 10.55932 | 106° | 26km/h | 20471m | 5.4m/s | -55.6°C | 4.6% | 54.3hPa | 2.6V | 00:00:00 | 01:27:26 | 08:30:00 | |
| DB0NH | 2026-09-04 23:56:47 | 48.89489 | 10.55923 | 104° | 24km/h | 20466m | 4.9m/s | -55.6°C | 4.7% | 54.3hPa | 2.7V | 00:00:00 | 01:27:25 | 00:00:00 | |
| DM0DOS-11 | 2026-09-04 23:56:46 | 48.89482 | 10.55869 | 66° | 27km/h | 20436m | 4.1m/s | -55.5°C | 4.5% | 54.6hPa | 2.7V | 08:30:00 | 01:27:19 | 00:00:00 | |
| HSKMA3-T | 2026-09-04 23:56:45 | 48.89490 | 10.55905 | 88° | 24km/h | 20455m | 5m/s | -55.6°C | 1.2% | 54.4hPa | 2.6V | 18:12:15 | 01:27:23 | 00:00:00 | |
| DF2AP-13 | 2026-09-04 23:56:43 | 48.89488 | 10.55887 | 72° | 24km/h | 20446m | 5.8m/s | -55.5°C | 4.5% | 54.5hPa | 2.6V | 00:00:00 | 01:27:21 | 00:00:00 | |
| PG1ADW-2 | 2026-09-04 23:56:40 | 48.89480 | 10.55859 | 72° | 24km/h | 20431m | 5.8m/s | -55.4°C | 4.5% | 54.6hPa | 2.6V | 00:00:00 | 00:00:00 | 00:00:00 | |
| DL1NUX | 2026-09-04 23:56:39 | 48.89477 | 10.55837 | 84° | 29km/h | 20421m | 4.1m/s | -55.5°C | 4.5% | 54.7hPa | 2.6V | 08:30:00 | 01:27:16 | 00:00:00 | |
| HSKMA3-T | 2026-09-04 23:56:34 | 48.89478 | 10.55800 | 97° | 22km/h | 20402m | 5.5m/s | -55.4°C | 1% | 54.9hPa | 2.6V | 18:12:15 | 01:27:12 | 00:00:00 | |
| NBG1-10 | 2026-09-04 23:56:34 | 48.89478 | 10.55800 | 97° | 26km/h | 20402m | 5.4m/s | -55.4°C | 4.4% | 54.9hPa | 2.6V | 00:00:00 | 01:27:12 | 00:00:00 | |
| DL6DJ-15 | 2026-09-04 23:56:33 | 48.89478 | 10.55792 | 94° | 22km/h | 20397m | 5.1m/s | -55.4°C | 1.4% | 55.0hPa | 2.6V | 00:00:00 | 00:00:00 | 00:00:00 | |
| DM0DOS-11 | 2026-09-04 23:56:32 | 48.89479 | 10.55776 | 86° | 18km/h | 20387m | 5.6m/s | -55.4°C | 4.4% | 55hPa | 2.6V | 08:30:00 | 01:27:09 | 00:00:00 | |
| DK5PH-5 | 2026-09-04 23:56:30 | 48.89478 | 10.55769 | 79° | 26km/h | 20382m | 5.1m/s | -55.3°C | 4.4% | 55.0hPa | 2.6V | 00:00:00 | 01:27:08 | 00:00:00 | |
| DL1NUX | 2026-09-04 23:56:29 | 48.89476 | 10.55756 | 71° | 20km/h | 20372m | 5.8m/s | -55.3°C | 4.4% | 55.1hPa | 2.6V | 08:30:00 | 01:27:06 | 00:00:00 | |
| DO3MHA-12 | 2026-09-04 23:56:28 | 48.89475 | 10.55756 | 72° | 26km/h | 20372m | 5.8m/s | -55.3°C | 4.4% | 55.1hPa | 2.6V | 00:00:00 | 01:27:06 | 00:00:00 | |
| SONDE2-11 | 2026-09-04 23:56:27 | 48.89472 | 10.55740 | 70° | 24km/h | 20361m | 4.7m/s | -55.3°C | 1.3% | 55.2hPa | 2.6V | 00:00:00 | 00:00:00 | 00:00:00 | |
| DM0DOS-11 | 2026-09-04 23:56:26 | 48.89463 | 10.55693 | 80° | 29km/h | 20336m | 4.5m/s | -55.7°C | 4.4% | 55.5hPa | 2.6V | 08:30:00 | 01:26:59 | 00:00:00 | |
| HSKMA3-T | 2026-09-04 23:56:23 | 48.89466 | 10.55714 | 75° | 26km/h | 20347m | 4.9m/s | -55.4°C | 1% | 55.4hPa | 2.6V | 18:12:15 | 01:27:01 | 00:00:00 | |
| PG1ADW-2 | 2026-09-04 23:56:20 | 48.89462 | 10.55682 | 83° | 27km/h | 20331m | 5.4m/s | -55.8°C | 4.5% | 55.4hPa | 2.7V | 00:00:00 | 00:00:00 | 00:00:00 | |
| DL1NUX | 2026-09-04 23:56:19 | 48.89461 | 10.55663 | 87° | 24km/h | 20321m | 4.5m/s | -56.2°C | 4.6% | 55.6hPa | 2.6V | 08:30:00 | 01:26:56 | 00:00:00 | |
| HSKMA3-T | 2026-09-04 23:56:13 | 48.89455 | 10.55620 | 71° | 22km/h | 20295m | 4.9m/s | -56.5°C | 1.2% | 55.8hPa | 2.7V | 18:12:15 | 01:26:51 | 00:00:00 | |
| DF2AP-13 | 2026-09-04 23:56:13 | 48.89455 | 10.55620 | 71° | 29km/h | 20296m | 4.8m/s | -56.4°C | 4.7% | 55.8hPa | 2.6V | 00:00:00 | 01:26:51 | 00:00:00 | |
| DM0DOS-11 | 2026-09-04 23:56:12 | 48.89451 | 10.55603 | 69° | 26km/h | 20287m | 5.4m/s | -56.5°C | 4.7% | 55.9hPa | 2.6V | 08:30:00 | 01:26:49 | 00:00:00 | |
| DL1ZP-14 | 2026-09-04 23:56:09 | 48.89444 | 10.55572 | 76° | 29km/h | 20271m | 5.7m/s | -56.7°C | 1.5% | 56.0hPa | 2.7V | 00:00:00 | 00:00:00 | 00:00:00 | |
| DO3MHA-12 | 2026-09-04 23:56:08 | 48.89444 | 10.55572 | 77° | 33km/h | 20271m | 5.7m/s | -56.7°C | 4.8% | 56.0hPa | 2.6V | 00:00:00 | 01:26:46 | 00:00:00 | |
| DM0DOS-11 | 2026-09-04 23:56:06 | 48.89434 | 10.55485 | 79° | 35km/h | 20235m | 4.1m/s | -56.7°C | 4.8% | 56.4hPa | 2.6V | 08:30:00 | 01:26:39 | 00:00:00 | |
| HSKMA3-T | 2026-09-04 23:56:03 | 48.89437 | 10.55511 | 80° | 35km/h | 20245m | 5.3m/s | -56.7°C | 1.3% | 56.3hPa | 2.7V | 18:12:15 | 01:26:41 | 00:00:00 | |
| DL6DJ-15 | 2026-09-04 23:56:02 | 48.89436 | 10.55498 | 80° | 33km/h | 20240m | 5.4m/s | -56.7°C | 1.4% | 56.3hPa | 2.6V | 00:00:00 | 00:00:00 | 00:00:00 | |
| DF7PN | 2026-09-04 23:55:57 | 48.89419 | 10.55425 | 62° | 27km/h | 20209m | 5.3m/s | -56.7°C | 1.5% | 56.6hPa | 2.6V | 00:00:00 | 00:00:00 | 00:00:00 | |
| SONDE2-11 | 2026-09-04 23:55:56 | 48.89416 | 10.55416 | 58° | 26km/h | 20204m | 3.9m/s | -56.7°C | 1.5% | 56.6hPa | 2.6V | 00:00:00 | 00:00:00 | 00:00:00 | |
| DM0DOS-11 | 2026-09-04 23:55:54 | 48.89397 | 10.55363 | 80° | 26km/h | 20175m | 4m/s | -56.7°C | 4.8% | 56.9hPa | 2.6V | 08:30:00 | 01:26:27 | 00:00:00 | |
| HSKMA3-T | 2026-09-04 23:55:52 | 48.89404 | 10.55389 | 57° | 27km/h | 20190m | 4.5m/s | -56.7°C | 1.2% | 56.8hPa | 2.7V | 18:12:15 | 01:26:30 | 00:00:00 | |
| DO9HM | 2026-09-04 23:55:52 | 48.89404 | 10.55389 | 58° | 27km/h | 20190m | 4.5m/s | -56.7°C | 1.5% | 56.7hPa | 2.6V | 00:00:00 | 00:00:00 | 00:00:00 | |
| AZAK | 2026-09-04 23:55:51 | 48.89404 | 10.55389 | 58° | 27km/h | 20190m | 4.5m/s | -56.7°C | 1.5% | 56.7hPa | 2.6V | 00:00:00 | 00:00:00 | 00:00:00 | |
| DL1NUX | 2026-09-04 23:55:49 | 48.89396 | 10.55353 | 81° | 27km/h | 20170m | 5m/s | -56.7°C | 4.8% | 56.9hPa | 2.6V | 08:30:00 | 01:26:26 | 00:00:00 | |
| DF3TZ-5 | 2026-09-04 23:55:44 | 48.89389 | 10.55312 | 71° | 26km/h | 20150m | 5.9m/s | -56.6°C | 1.5% | 57.1hPa | 2.7V | 00:00:00 | 00:00:00 | 00:00:00 | |
| HSKMA3-T | 2026-09-04 23:55:42 | 48.89384 | 10.55295 | 61° | 22km/h | 20141m | 4m/s | -56.5°C | 1.3% | 57.2hPa | 2.7V | 18:12:15 | 01:26:20 | 00:00:00 | |
| DF1GD-15 | 2026-09-04 23:55:42 | 48.89384 | 10.55295 | 62° | 22km/h | 20141m | 4.0m/s | -56.5°C | 1.5% | 57.2hPa | 2.6V | 00:00:00 | 00:00:00 | 00:00:00 | |
| PG1ADW-2 | 2026-09-04 23:55:40 | 48.89377 | 10.55281 | 46° | 20km/h | 20131m | 5.3m/s | -56.4°C | 4.8% | 57.2hPa | 2.6V | 00:00:00 | 01:26:18 | 00:00:00 | |
| DL1NUX | 2026-09-04 23:55:39 | 48.89368 | 10.55269 | 40° | 22km/h | 20120m | 5.6m/s | -56.4°C | 4.8% | 57.4hPa | 2.6V | 08:30:00 | 01:26:16 | 00:00:00 | |
| HSKMA3-T | 2026-09-04 23:55:31 | 48.89348 | 10.55225 | 62° | 18km/h | 20085m | 5.8m/s | -56.3°C | 1.2% | 57.7hPa | 2.7V | 18:12:15 | 01:26:09 | 00:00:00 | |
| DK5PH-5 | 2026-09-04 23:55:30 | 48.89345 | 10.55219 | 58° | 15km/h | 20081m | 4.1m/s | -56.2°C | 4.8% | 57.7hPa | 2.7V | 00:00:00 | 01:26:08 | 08:30:00 | |
| DL1NUX | 2026-09-04 23:55:29 | 48.89339 | 10.55207 | 45° | 18km/h | 20070m | 4.4m/s | -56.1°C | 4.7% | 57.8hPa | 2.6V | 08:30:00 | 01:26:06 | 00:00:00 | |
| DO3MHA-12 | 2026-09-04 23:55:28 | 48.89339 | 10.55207 | 46° | 16km/h | 20071m | 4.4m/s | -56.1°C | 4.7% | 57.8hPa | 2.6V | 00:00:00 | 01:26:06 | 00:00:00 | |
| SO1NDE-10 | 2026-09-04 23:55:27 | 48.89336 | 10.55203 | 43° | 13km/h | 20066m | 5.4m/s | -56.1°C | 4.7% | 57.8hPa | 2.6V | 00:00:00 | 01:26:05 | 00:00:00 | |
| DO3MHA-11 | 2026-09-04 23:55:26 | 48.89333 | 10.55198 | 41° | 16km/h | 20060m | 5.5m/s | -56.1°C | 4.7% | 57.9hPa | 2.6V | 00:00:00 | 01:26:04 | 00:00:00 | |
| SONDE2-11 | 2026-09-04 23:55:25 | 48.89327 | 10.55190 | 41° | 16km/h | 20050m | 5.8m/s | -56.1°C | 1.4% | 58.0hPa | 2.6V | 00:00:00 | 00:00:00 | 00:00:00 | |
| DB0UT-7 | 2026-09-04 23:55:21 | 48.89316 | 10.55176 | 48° | 7km/h | 20035m | 5.9m/s | -56.1°C | 4.7% | 58.1hPa | 2.6V | 00:00:00 | 00:00:00 | 00:00:00 | |
| DL1NUX | 2026-09-04 23:55:19 | 48.89310 | 10.55162 | 58° | 15km/h | 20020m | 4.7m/s | -56.3°C | 4.8% | 58.3hPa | 2.6V | 08:30:00 | 01:25:56 | 00:00:00 | |
| HSKMA3-T | 2026-09-04 23:55:19 | 48.89310 | 10.55162 | 59° | 15km/h | 20020m | 4.7m/s | -56.3°C | 1.2% | 58.3hPa | 2.6V | 18:12:15 | 01:25:56 | 00:00:00 | |
| DO3MHA-12 | 2026-09-04 23:55:19 | 48.89310 | 10.55162 | 59° | 15km/h | 20020m | 4.7m/s | -56.3°C | 4.8% | 58.2hPa | 2.6V | 00:00:00 | 01:25:56 | 08:30:00 | |
| DB0NH | 2026-09-04 23:55:17 | 48.89308 | 10.55157 | 59° | 9km/h | 20015m | 5.5m/s | -56.3°C | 4.8% | 58.3hPa | 2.6V | 00:00:00 | 01:25:55 | 08:30:00 | |
| DJ8HS-15 | 2026-09-04 23:55:16 | 48.89305 | 10.55151 | 60° | 11km/h | 20010m | 4.2m/s | -56.2°C | 4.8% | 58.4hPa | 2.7V | 00:00:00 | 01:25:54 | 00:00:00 | |
| OE5WHR-10 | 2026-09-04 23:55:14 | 48.89301 | 10.55138 | 63° | 9km/h | 20001m | 5.5m/s | -56.2°C | 4.8% | 58.4hPa | 2.7V | 00:00:00 | 01:25:52 | 00:00:00 | |
| HARRO8 | 2026-09-04 23:55:13 | 48.89298 | 10.55130 | 60° | 9km/h | 19991m | 4.0m/s | -56.2°C | 1.5% | 58.5hPa | 2.7V | 00:00:00 | 00:00:00 | 00:00:00 | |
| OE5DRO-10 | 2026-09-04 23:55:11 | 48.89297 | 10.55127 | 55° | 9km/h | 19986m | 4.7m/s | -56.2°C | 4.8% | 58.5hPa | 2.7V | 00:00:00 | 00:00:00 | 00:00:00 | |
| AZAK | 2026-09-04 23:55:10 | 48.89297 | 10.55127 | 55° | 9km/h | 19986m | 4.7m/s | -56.2°C | 1.4% | 58.6hPa | 2.7V | 00:00:00 | 00:00:00 | 00:00:00 | |
| DL1NUX | 2026-09-04 23:55:09 | 48.89291 | 10.55116 | 53° | 13km/h | 19972m | 4.4m/s | -56.1°C | 4.8% | 58.7hPa | 2.7V | 08:30:00 | 01:25:46 | 00:00:00 | |
| HSKMA3-T | 2026-09-04 23:55:07 | 48.89289 | 10.55112 | 56° | 11km/h | 19967m | 5.5m/s | -56.1°C | 1.2% | 58.7hPa | 2.6V | 18:12:15 | 01:25:45 | 00:00:00 | |
| DL1ZP-14 | 2026-09-04 23:55:07 | 48.89288 | 10.55109 | 56° | 7km/h | 19961m | 5.3m/s | -56.1°C | 1.4% | 58.8hPa | 2.6V | 00:00:00 | 00:00:00 | 00:00:00 | |
| DO3MHA-11 | 2026-09-04 23:55:06 | 48.89288 | 10.55109 | 57° | 7km/h | 19962m | 5.2m/s | -56.0°C | 4.8% | 58.8hPa | 2.6V | 00:00:00 | 01:25:44 | 00:00:00 | |
| DB0ND-19 | 2026-09-04 23:55:04 | 48.89283 | 10.55102 | 31° | 11km/h | 19946m | 5.1m/s | -56.0°C | 1.4% | 59.0hPa | 2.6V | 00:00:00 | 00:00:00 | 00:00:00 | |
| PG1ADW-2 | 2026-09-04 23:55:00 | 48.89276 | 10.55097 | 13° | 5km/h | 19932m | 5.8m/s | -55.9°C | 4.7% | 59.1hPa | 2.6V | 00:00:00 | 00:00:00 | 00:00:00 | |
| DM0DOS-11 | 2026-09-04 23:54:59 | 48.89272 | 10.55095 | 103° | 4km/h | 19907m | 4.9m/s | -55.7°C | 4.6% | 59.3hPa | 2.6V | 08:30:00 | 01:25:33 | 00:00:00 | |
| DL1NUX | 2026-09-04 23:54:59 | 48.89273 | 10.55097 | 351° | 4km/h | 19922m | 4.1m/s | -55.8°C | 4.7% | 59.2hPa | 2.7V | 08:30:00 | 01:25:36 | 00:00:00 | |
| HSKMA3-T | 2026-09-04 23:54:56 | 48.89272 | 10.55096 | 66° | 4km/h | 19912m | 4.8m/s | -55.8°C | 1.2% | 59.3hPa | 2.6V | 18:12:15 | 01:25:34 | 00:00:00 | |
| DF7PN | 2026-09-04 23:54:55 | 48.89273 | 10.55093 | 127° | 5km/h | 19902m | 6.0m/s | -55.7°C | 1.4% | 59.4hPa | 2.7V | 00:00:00 | 00:00:00 | 00:00:00 | |
| SONCRA | 2026-09-04 23:54:54 | 48.89274 | 10.55091 | 132° | 7km/h | 19896m | 4.7m/s | -55.7°C | 1.4% | 59.5hPa | 2.7V | 00:00:00 | 00:00:00 | 00:00:00 | |
| OE5WHR-10 | 2026-09-04 23:54:53 | 48.89274 | 10.55091 | 133° | 7km/h | 19896m | 4.7m/s | -55.6°C | 4.6% | 59.4hPa | 2.7V | 00:00:00 | 00:00:00 | 00:00:00 | |
| OE5DRO-10 | 2026-09-04 23:54:52 | 48.89275 | 10.55088 | 118° | 7km/h | 19891m | 5.8m/s | -55.6°C | 4.7% | 59.4hPa | 2.7V | 00:00:00 | 00:00:00 | 00:00:00 | |
| DH7VM-15 | 2026-09-04 23:54:50 | 48.89276 | 10.55086 | 98° | 7km/h | 19885m | 5.1m/s | -55.6°C | 1.4% | 59.5hPa | 2.7V | 00:00:00 | 00:00:00 | 00:00:00 | |
| DL1NUX | 2026-09-04 23:54:49 | 48.89275 | 10.55081 | 351° | 4km/h | 19870m | 4.1m/s | -55.6°C | 4.7% | 59.7hPa | 2.7V | 08:30:00 | 01:25:26 | 00:00:00 | |
| DO3MHA-12 | 2026-09-04 23:54:48 | 48.89275 | 10.55081 | 352° | 7km/h | 19871m | 4.1m/s | -55.6°C | 4.7% | 59.6hPa | 2.7V | 00:00:00 | 01:25:26 | 00:00:00 | |
| OE5DXL-15 | 2026-09-04 23:54:47 | 48.89272 | 10.55082 | 349° | 11km/h | 19861m | 5.9m/s | -55.6°C | 4.6% | 59.7hPa | 2.6V | 00:00:00 | 00:00:00 | 00:00:00 | |
| DO3MHA-11 | 2026-09-04 23:54:46 | 48.89272 | 10.55082 | 349° | 7km/h | 19861m | 5.9m/s | -55.6°C | 4.6% | 59.7hPa | 2.6V | 00:00:00 | 01:25:24 | 00:00:00 | |
| HSKMA3-T | 2026-09-04 23:54:46 | 48.89270 | 10.55082 | 358° | 7km/h | 19856m | 5m/s | -55.6°C | 1.1% | 59.8hPa | 2.6V | 18:12:15 | 01:25:23 | 00:00:00 | |
| DF2AP-13 | 2026-09-04 23:54:43 | 48.89267 | 10.55082 | 12° | 13km/h | 19846m | 4.8m/s | -55.5°C | 4.6% | 59.8hPa | 2.6V | 00:00:00 | 01:25:21 | 00:00:00 | |
| DF3TZ-5 | 2026-09-04 23:54:42 | 48.89267 | 10.55082 | 191° | 0km/h | 19841m | 6.3m/s | -55.5°C | 1.4% | 60.0hPa | 2.6V | 00:00:00 | 00:00:00 | 00:00:00 | |
| HARRO8 | 2026-09-04 23:54:41 | 48.89268 | 10.55082 | 177° | 7km/h | 19835m | 4.5m/s | -55.5°C | 1.4% | 60.0hPa | 2.6V | 00:00:00 | 00:00:00 | 00:00:00 | |
| PG1ADW-2 | 2026-09-04 23:54:40 | 48.89271 | 10.55081 | 165° | 11km/h | 19831m | 4.6m/s | -55.4°C | 4.7% | 60.0hPa | 2.6V | 00:00:00 | 00:00:00 | 00:00:00 | |
| DL1NUX | 2026-09-04 23:54:39 | 48.89275 | 10.55077 | 134° | 11km/h | 19819m | 5.4m/s | -55.4°C | 4.7% | 60.1hPa | 2.6V | 08:30:00 | 01:25:16 | 00:00:00 | |
| DO3MHA-12 | 2026-09-04 23:54:38 | 48.89275 | 10.55077 | 135° | 9km/h | 19819m | 5.4m/s | -55.4°C | 4.7% | 60.1hPa | 2.7V | 00:00:00 | 01:25:16 | 00:00:00 | |
| DM0DOS-11 | 2026-09-04 23:54:36 | 48.89280 | 10.55060 | 83° | 11km/h | 19788m | 5.5m/s | -55.2°C | 4.6% | 60.4hPa | 2.7V | 08:30:00 | 01:25:10 | 00:00:00 | |
| HSKMA3-T | 2026-09-04 23:54:35 | 48.89280 | 10.55068 | 118° | 7km/h | 19803m | 5.1m/s | -55.3°C | 1.1% | 60.3hPa | 2.6V | 18:12:15 | 01:25:13 | 00:00:00 | |
| DB0ND-19 | 2026-09-04 23:54:33 | 48.89280 | 10.55059 | 83° | 9km/h | 19788m | 5.5m/s | -55.2°C | 1.4% | 60.5hPa | 2.6V | 00:00:00 | 00:00:00 | 00:00:00 | |
| OE5WHR-10 | 2026-09-04 23:54:32 | 48.89280 | 10.55059 | 84° | 15km/h | 19788m | 5.4m/s | -55.2°C | 4.6% | 60.4hPa | 2.6V | 00:00:00 | 00:00:00 | 00:00:00 | |
| DK5PH-5 | 2026-09-04 23:54:30 | 48.89281 | 10.55051 | 116° | 18km/h | 19779m | 4.5m/s | -55.1°C | 4.5% | 60.5hPa | 2.6V | 00:00:00 | 01:25:08 | 00:00:00 | |
| DL1NUX | 2026-09-04 23:54:29 | 48.89285 | 10.55046 | 164° | 13km/h | 19768m | 5.2m/s | -55.1°C | 4.5% | 60.6hPa | 2.6V | 08:30:00 | 01:25:06 | 00:00:00 | |
| HSKMA3-T | 2026-09-04 23:54:24 | 48.89297 | 10.55042 | 139° | 7km/h | 19748m | 5.6m/s | -54.9°C | 1% | 60.9hPa | 2.6V | 18:12:15 | 01:25:02 | 00:00:00 | |
| HSKMA3-T | 2026-09-04 23:54:14 | 48.89330 | 10.54995 | 148° | 22km/h | 19692m | 3.8m/s | -54.7°C | 0.9% | 61.3hPa | 2.6V | 18:12:15 | 01:24:51 | 00:00:00 | |
| DF2AP-13 | 2026-09-04 23:54:13 | 48.89330 | 10.54995 | 148° | 26km/h | 19692m | 3.8m/s | -54.7°C | 4.2% | 61.3hPa | 2.6V | 00:00:00 | 01:24:51 | 00:00:00 | |
| HARRO8 | 2026-09-04 23:54:11 | 48.89340 | 10.54980 | 120° | 16km/h | 19677m | 4.5m/s | -54.7°C | 1.3% | 61.5hPa | 2.6V | 00:00:00 | 00:00:00 | 00:00:00 | |
| DL1NUX | 2026-09-04 23:54:09 | 48.89345 | 10.54967 | 123° | 22km/h | 19666m | 5.4m/s | -54.6°C | 4.2% | 61.6hPa | 2.6V | 08:30:00 | 01:24:46 | 00:00:00 | |
| HSKMA3-T | 2026-09-04 23:54:02 | 48.89365 | 10.54925 | 127° | 26km/h | 19637m | 5.4m/s | -54.9°C | 1% | 61.9hPa | 2.7V | 18:12:15 | 01:24:40 | 00:00:00 | |
| DB0ND-19 | 2026-09-04 23:54:02 | 48.89369 | 10.54917 | 130° | 27km/h | 19632m | 5.1m/s | -55.0°C | 1.4% | 62.0hPa | 2.6V | 00:00:00 | 00:00:00 | 00:00:00 | |
| DK5PH-5 | 2026-09-04 23:54:00 | 48.89373 | 10.54909 | 132° | 33km/h | 19627m | 4.7m/s | -55.1°C | 4.4% | 62.0hPa | 2.6V | 00:00:00 | 01:24:38 | 00:00:00 | |
| DL1NUX | 2026-09-04 23:53:59 | 48.89383 | 10.54894 | 133° | 26km/h | 19617m | 3.8m/s | -55.2°C | 4.4% | 62.1hPa | 2.6V | 08:30:00 | 01:24:36 | 00:00:00 | |
| DK7TD | 2026-09-04 23:53:54 | 48.89401 | 10.54862 | 125° | 27km/h | 19597m | 5.5m/s | -55.2°C | 1% | 62.3hPa | 2.7V | 18:12:15 | 01:24:32 | 00:00:00 | |
| HSKMA3-T | 2026-09-04 23:53:51 | 48.89411 | 10.54835 | 116° | 29km/h | 19582m | 5.6m/s | -55.4°C | 1.1% | 62.4hPa | 2.6V | 18:12:15 | 01:24:29 | 00:00:00 | |
| OE5WHR-10 | 2026-09-04 23:53:50 | 48.89414 | 10.54825 | 118° | 35km/h | 19578m | 4.7m/s | -55.5°C | 4.5% | 62.4hPa | 2.6V | 00:00:00 | 00:00:00 | 00:00:00 | |
| DL1NUX | 2026-09-04 23:53:49 | 48.89421 | 10.54804 | 118° | 31km/h | 19568m | 5.5m/s | -55.7°C | 4.5% | 62.6hPa | 2.7V | 08:30:00 | 01:24:26 | 00:00:00 | |
| DK7TD | 2026-09-04 23:53:44 | 48.89439 | 10.54760 | 124° | 38km/h | 19548m | 3.6m/s | -55.8°C | 1.1% | 62.8hPa | 2.6V | 18:12:15 | 01:24:22 | 00:00:00 | |
| HSKMA3-T | 2026-09-04 23:53:40 | 48.89458 | 10.54708 | 113° | 40km/h | 19531m | 4.5m/s | -55.7°C | 1.1% | 62.9hPa | 2.7V | 18:12:15 | 01:24:18 | 00:00:00 | |
| PG1ADW-2 | 2026-09-04 23:53:40 | 48.89458 | 10.54708 | 113° | 33km/h | 19531m | 4.5m/s | -55.6°C | 4.5% | 62.9hPa | 2.6V | 00:00:00 | 00:00:00 | 00:00:00 | |
| DL1NUX | 2026-09-04 23:53:39 | 48.89466 | 10.54679 | 113° | 42km/h | 19522m | 4.2m/s | -55.7°C | 4.5% | 63hPa | 2.6V | 08:30:00 | 01:24:16 | 00:00:00 | |
| DK7TD | 2026-09-04 23:53:34 | 48.89479 | 10.54628 | 108° | 31km/h | 19503m | 5m/s | -55.7°C | 1% | 63.2hPa | 2.6V | 18:12:15 | 01:24:12 | 00:00:00 | |
| HSKMA3-T | 2026-09-04 23:53:29 | 48.89491 | 10.54570 | 101° | 29km/h | 19479m | 5.2m/s | -55.8°C | 1% | 63.5hPa | 2.7V | 18:12:15 | 01:24:07 | 00:00:00 | |
| DK7TD | 2026-09-04 23:53:23 | 48.89500 | 10.54498 | 97° | 29km/h | 19449m | 5.8m/s | -56.1°C | 1.1% | 63.8hPa | 2.6V | 18:12:15 | 01:24:01 | 00:00:00 | |
| HSKMA3-T | 2026-09-04 23:53:18 | 48.89499 | 10.54445 | 83° | 33km/h | 19427m | 4.3m/s | -56.5°C | 1.2% | 64hPa | 2.6V | 18:12:15 | 01:23:56 | 00:00:00 | |
| DK7TD | 2026-09-04 23:53:12 | 48.89490 | 10.54373 | 84° | 29km/h | 19398m | 3.9m/s | -56.6°C | 1.2% | 64.3hPa | 2.6V | 18:12:15 | 01:23:50 | 00:00:00 | |
| HSKMA3-T | 2026-09-04 23:53:07 | 48.89482 | 10.54319 | 74° | 31km/h | 19375m | 4.4m/s | -56.6°C | 1.2% | 64.5hPa | 2.6V | 18:12:15 | 01:23:45 | 00:00:00 | |
| DK7TD | 2026-09-04 23:53:02 | 48.89467 | 10.54261 | 67° | 33km/h | 19353m | 5.1m/s | -56.6°C | 1.2% | 64.7hPa | 2.6V | 18:12:15 | 01:23:40 | 00:00:00 | |
| DB0ND-19 | 2026-09-04 23:53:00 | 48.89456 | 10.54227 | 61° | 31km/h | 19338m | 4.2m/s | -56.5°C | 1.5% | 64.9hPa | 2.7V | 00:00:00 | 00:00:00 | 00:00:00 | |
| DL1NUX | 2026-09-04 23:52:59 | 48.89452 | 10.54217 | 64° | 29km/h | 19334m | 4m/s | -56.5°C | 4.8% | 64.9hPa | 2.7V | 08:30:00 | 01:23:36 | 00:00:00 | |
| HSKMA3-T | 2026-09-04 23:52:56 | 48.89447 | 10.54196 | 72° | 27km/h | 19325m | 4.1m/s | -56.5°C | 1.2% | 65hPa | 2.6V | 18:12:15 | 01:23:34 | 00:00:00 | |
| DK7TD | 2026-09-04 23:52:52 | 48.89437 | 10.54160 | 62° | 26km/h | 19306m | 4.9m/s | -56.4°C | 1.2% | 65.2hPa | 2.7V | 18:12:15 | 01:23:30 | 00:00:00 | |
| DC4HF-4 | 2026-09-04 23:52:52 | 48.89434 | 10.54151 | 61° | 27km/h | 19302m | 4.7m/s | -56.4°C | 1.5% | 65.2hPa | 2.6V | 00:00:00 | 00:00:00 | 00:00:00 | |
| SONCRA | 2026-09-04 23:52:50 | 48.89426 | 10.54133 | 51° | 27km/h | 19293m | 5.3m/s | -56.3°C | 1.5% | 65.3hPa | 2.6V | 00:00:00 | 00:00:00 | 00:00:00 | |
| DL1NUX | 2026-09-04 23:52:49 | 48.89421 | 10.54125 | 46° | 27km/h | 19288m | 4.5m/s | -56.3°C | 4.8% | 65.4hPa | 2.6V | 08:30:00 | 01:23:26 | 00:00:00 | |
| HSKMA3-T | 2026-09-04 23:52:45 | 48.89409 | 10.54101 | 59° | 27km/h | 19274m | 4.6m/s | -56.2°C | 1.2% | 65.5hPa | 2.6V | 18:12:15 | 01:23:23 | 00:00:00 | |
| DK7TD | 2026-09-04 23:52:41 | 48.89394 | 10.54066 | 56° | 27km/h | 19257m | 4.5m/s | -56.1°C | 1.1% | 65.7hPa | 2.7V | 18:12:15 | 01:23:19 | 00:00:00 | |
| PG1ADW-2 | 2026-09-04 23:52:40 | 48.89390 | 10.54056 | 59° | 22km/h | 19252m | 5.6m/s | -56.0°C | 4.8% | 65.7hPa | 2.6V | 00:00:00 | 00:00:00 | 00:00:00 | |
| DL1NUX | 2026-09-04 23:52:39 | 48.89383 | 10.54038 | 58° | 27km/h | 19243m | 3.6m/s | -55.9°C | 4.7% | 65.9hPa | 2.6V | 08:30:00 | 01:23:16 | 00:00:00 | |
| HSKMA3-T | 2026-09-04 23:52:35 | 48.89371 | 10.54015 | 49° | 22km/h | 19228m | 4.3m/s | -55.8°C | 1.2% | 66hPa | 2.6V | 18:12:15 | 01:23:13 | 00:00:00 | |
| DK7TD | 2026-09-04 23:52:30 | 48.89358 | 10.53988 | 59° | 16km/h | 19204m | 4m/s | -55.6°C | 1.2% | 0hPa | 2.7V | 18:12:15 | 01:23:08 | 00:00:00 | |
| DL1NUX | 2026-09-04 23:52:29 | 48.89354 | 10.53975 | 72° | 22km/h | 19193m | 4.9m/s | -55.5°C | 4.6% | 66.4hPa | 2.6V | 08:30:00 | 01:23:06 | 00:00:00 | |
| HSKMA3-T | 2026-09-04 23:52:24 | 48.89344 | 10.53946 | 51° | 20km/h | 19173m | 4.7m/s | -55.3°C | 1.1% | 66.6hPa | 2.6V | 18:12:15 | 01:23:02 | 00:00:00 | |
| DK7TD | 2026-09-04 23:52:20 | 48.89332 | 10.53925 | 36° | 16km/h | 19155m | 5m/s | -55.2°C | 1% | 0hPa | 2.7V | 18:12:15 | 01:22:58 | 00:00:00 | |
| PG1ADW-2 | 2026-09-04 23:52:20 | 48.89332 | 10.53925 | 37° | 20km/h | 19155m | 4.9m/s | -55.1°C | 4.4% | 66.7hPa | 2.7V | 00:00:00 | 00:00:00 | 08:30:00 | |
| DL1NUX | 2026-09-04 23:52:19 | 48.89324 | 10.53918 | 24° | 20km/h | 19144m | 3.4m/s | -55.1°C | 4.4% | 66.8hPa | 2.6V | 08:30:00 | 01:22:56 | 00:00:00 | |
| HSKMA3-T | 2026-09-04 23:52:14 | 48.89311 | 10.53897 | 77° | 24km/h | 19125m | 4.8m/s | -55.1°C | 1.1% | 67.1hPa | 2.7V | 18:12:15 | 01:22:52 | 00:00:00 | |
| DK7TD | 2026-09-04 23:52:10 | 48.89305 | 10.53861 | 64° | 26km/h | 19107m | 4m/s | -55.2°C | 1.1% | 0hPa | 2.6V | 18:12:15 | 01:22:48 | 00:00:00 | |
| NBG1-10 | 2026-09-04 23:52:10 | 48.89305 | 10.53861 | 65° | 22km/h | 19107m | 4.0m/s | -55.1°C | 4.6% | 67.2hPa | 2.6V | 00:00:00 | 01:22:48 | 00:00:00 | |
| DL1NUX | 2026-09-04 23:52:09 | 48.89298 | 10.53842 | 58° | 31km/h | 19097m | 5.4m/s | -55.1°C | 4.5% | 67.4hPa | 2.7V | 08:30:00 | 01:22:46 | 00:00:00 | |
| HSKMA3-T | 2026-09-04 23:52:03 | 48.89285 | 10.53807 | 91° | 9km/h | 19074m | 5m/s | -55°C | 1% | 67.6hPa | 2.6V | 18:12:15 | 01:22:41 | 00:00:00 | |
| OE5WHR-10 | 2026-09-04 23:52:03 | 48.89285 | 10.53807 | 91° | 22km/h | 19075m | 4.9m/s | -54.9°C | 4.5% | 67.6hPa | 2.6V | 00:00:00 | 01:22:41 | 00:00:00 | |
| DK5PH-5 | 2026-09-04 23:52:00 | 48.89287 | 10.53794 | 98° | 26km/h | 19059m | 4.1m/s | -54.8°C | 4.5% | 67.7hPa | 2.6V | 00:00:00 | 01:22:38 | 00:00:00 | |
| DL1NUX | 2026-09-04 23:51:59 | 48.89288 | 10.53778 | 90° | 24km/h | 19049m | 5.9m/s | -54.8°C | 4.4% | 67.9hPa | 2.6V | 08:30:00 | 01:22:36 | 00:00:00 | |
| DK7TD | 2026-09-04 23:51:59 | 48.89287 | 10.53786 | 93° | 22km/h | 19054m | 4.4m/s | -54.8°C | 1.1% | 0hPa | 2.7V | 18:12:15 | 01:22:37 | 00:00:00 | |
| HSKMA3-T | 2026-09-04 23:51:53 | 48.89282 | 10.53738 | 69° | 22km/h | 19020m | 6.2m/s | -54.6°C | 1% | 68.2hPa | 2.7V | 18:12:15 | 01:22:31 | 00:00:00 | |
| DM7RM-13 | 2026-09-04 23:51:50 | 48.89279 | 10.53719 | 88° | 26km/h | 19009m | 4.1m/s | -54.5°C | 1.4% | 68.3hPa | 2.6V | 00:00:00 | 00:00:00 | 00:00:00 | |
| DL1NUX | 2026-09-04 23:51:49 | 48.89281 | 10.53691 | 103° | 24km/h | 18994m | 5m/s | -54.4°C | 4.3% | 68.5hPa | 2.6V | 08:30:00 | 01:22:26 | 00:00:00 | |
| DK7TD | 2026-09-04 23:51:48 | 48.89281 | 10.53691 | 104° | 24km/h | 18994m | 5.1m/s | 0°C | 0% | 0hPa | 2.6V | 18:12:15 | 01:22:26 | 00:00:00 | |
| DF7PN | 2026-09-04 23:51:48 | 48.89281 | 10.53691 | 103° | 24km/h | 18994m | 5.1m/s | -54.4°C | 1.3% | 68.5hPa | 2.6V | 00:00:00 | 00:00:00 | 00:00:00 | |
| SONDE2-11 | 2026-09-04 23:51:47 | 48.89283 | 10.53682 | 101° | 24km/h | 18988m | 6.2m/s | -54.4°C | 1.4% | 68.5hPa | 2.6V | 00:00:00 | 00:00:00 | 00:00:00 | |
| HSKMA3-T | 2026-09-04 23:51:43 | 48.89284 | 10.53646 | 91° | 18km/h | 18969m | 5m/s | -54.2°C | 0.9% | 68.7hPa | 2.6V | 18:12:15 | 01:22:21 | 00:00:00 | |
| BIOWL1-15 | 2026-09-04 23:51:39 | 48.89286 | 10.53588 | 96° | 29km/h | 18940m | 5.9m/s | 0°C | 0% | 69hPa | 2.6V | 18:12:15 | 01:22:15 | 00:00:00 | |
| HSKMA3-T | 2026-09-04 23:51:33 | 48.89288 | 10.53544 | 98° | 33km/h | 18918m | 6m/s | -54.3°C | 0.9% | 69.3hPa | 2.6V | 18:12:15 | 01:22:11 | 00:00:00 | |
| BIOWL1-15 | 2026-09-04 23:51:26 | 48.89305 | 10.53441 | 95° | 35km/h | 18875m | 5.1m/s | 0°C | 0% | 69.8hPa | 2.7V | 18:12:15 | 01:22:02 | 00:00:00 | |
| HSKMA3-T | 2026-09-04 23:51:23 | 48.89307 | 10.53412 | 97° | 40km/h | 18866m | 4.8m/s | -55.3°C | 1.1% | 69.9hPa | 2.6V | 18:12:15 | 01:22:00 | 00:00:00 | |
| OE5WHR-10 | 2026-09-04 23:51:22 | 48.89308 | 10.53397 | 101° | 40km/h | 18861m | 5.3m/s | -55.4°C | 4.4% | 69.9hPa | 2.6V | 00:00:00 | 00:00:00 | 00:00:00 | |
| DM0DOS-11 | 2026-09-04 23:51:19 | 48.89324 | 10.53309 | 107° | 37km/h | 18831m | 4.3m/s | -55.6°C | 4.4% | 70.2hPa | 2.6V | 08:30:00 | 01:21:53 | 00:00:00 | |
| BIOWL1-15 | 2026-09-04 23:51:15 | 48.89329 | 10.53283 | 104° | 33km/h | 18823m | 5.4m/s | 0°C | 0% | 70.3hPa | 2.7V | 18:12:15 | 01:21:51 | 00:00:00 | |
| HSKMA3-T | 2026-09-04 23:51:12 | 48.89331 | 10.53271 | 102° | 33km/h | 18818m | 4.1m/s | -56.1°C | 1.2% | 70.4hPa | 2.6V | 18:12:15 | 01:21:50 | 00:00:00 | |
| DL1NUX | 2026-09-04 23:51:09 | 48.89339 | 10.53213 | 102° | 44km/h | 18799m | 5.3m/s | -56.2°C | 4.6% | 70.6hPa | 2.7V | 08:30:00 | 01:21:46 | 00:00:00 | |
| HSKMA3-T | 2026-09-04 23:51:02 | 48.89355 | 10.53114 | 107° | 40km/h | 18770m | 5.6m/s | -56.2°C | 1.1% | 70.9hPa | 2.7V | 18:12:15 | 01:21:40 | 00:00:00 | |
| BIOWL1-15 | 2026-09-04 23:51:01 | 48.89365 | 10.53062 | 105° | 38km/h | 18753m | 4.6m/s | 0°C | 0% | 71.1hPa | 2.7V | 18:12:15 | 01:21:36 | 00:00:00 | |
| DK5PH-5 | 2026-09-04 23:51:00 | 48.89360 | 10.53088 | 107° | 47km/h | 18762m | 3.2m/s | -56.2°C | 4.5% | 70.9hPa | 2.6V | 00:00:00 | 01:21:38 | 08:30:00 | |
| DL1NUX | 2026-09-04 23:50:59 | 48.89365 | 10.53062 | 105° | 38km/h | 18753m | 4.6m/s | -56.5°C | 4.6% | 71.1hPa | 2.7V | 08:30:00 | 01:21:36 | 00:00:00 | |
| BIOWL1-15 | 2026-09-04 23:50:51 | 48.89378 | 10.52933 | 97° | 55km/h | 18721m | 3.6m/s | 0°C | 0% | 71.5hPa | 2.6V | 18:12:15 | 01:21:29 | 00:00:00 | |
| DL1NUX | 2026-09-04 23:50:49 | 48.89383 | 10.52875 | 94° | 42km/h | 18708m | 4.3m/s | -57.3°C | 4.9% | 71.6hPa | 2.6V | 08:30:00 | 01:21:26 | 00:00:00 | |
| DF7PN | 2026-09-04 23:50:46 | 48.89385 | 10.52845 | 98° | 37km/h | 18700m | 5.0m/s | -57.4°C | 1.6% | 71.7hPa | 2.6V | 00:00:00 | 00:00:00 | 00:00:00 | |
| SONCRA | 2026-09-04 23:50:45 | 48.89386 | 10.52830 | 99° | 38km/h | 18696m | 3.8m/s | -57.4°C | 1.6% | 71.8hPa | 2.6V | 00:00:00 | 00:00:00 | 00:00:00 | |
| OE5DRO-10 | 2026-09-04 23:50:44 | 48.89387 | 10.52815 | 96° | 49km/h | 18692m | 4.2m/s | -57.3°C | 4.9% | 71.7hPa | 2.6V | 00:00:00 | 00:00:00 | 00:00:00 | |
| DF2AP-13 | 2026-09-04 23:50:43 | 48.89388 | 10.52798 | 92° | 47km/h | 18687m | 4.5m/s | -57.4°C | 4.9% | 71.8hPa | 2.7V | 00:00:00 | 01:21:21 | 00:00:00 | |
| DL1NUX | 2026-09-04 23:50:42 | 48.89385 | 10.52675 | 86° | 55km/h | 18662m | 4.8m/s | -57.5°C | 4.9% | 72.2hPa | 2.7V | 08:30:00 | 01:21:15 | 00:00:00 | |
| HSKMA3-T | 2026-09-04 23:50:41 | 48.89387 | 10.52740 | 88° | 57km/h | 18675m | 4.9m/s | -57.5°C | 1.3% | 71.9hPa | 2.6V | 18:12:15 | 01:21:18 | 00:00:00 | |
| BIOWL1-15 | 2026-09-04 23:50:40 | 48.89385 | 10.52654 | 87° | 53km/h | 18658m | 3.2m/s | 0°C | 0% | 72.2hPa | 2.7V | 18:12:15 | 01:21:14 | 00:00:00 | |
| PG1ADW-2 | 2026-09-04 23:50:39 | 48.89386 | 10.52718 | 89° | 47km/h | 18671m | 4.1m/s | -57.4°C | 4.9% | 72.0hPa | 2.7V | 00:00:00 | 00:00:00 | 00:00:00 | |
| DO3MHA-12 | 2026-09-04 23:50:38 | 48.89386 | 10.52696 | 89° | 47km/h | 18667m | 3.9m/s | -57.5°C | 4.9% | 72.0hPa | 2.7V | 00:00:00 | 01:21:16 | 00:00:00 | |
| DJ8HS-15 | 2026-09-04 23:50:36 | 48.89384 | 10.52654 | 88° | 46km/h | 18658m | 3.2m/s | -57.5°C | 4.9% | 72.1hPa | 2.7V | 00:00:00 | 01:21:14 | 00:00:00 | |
| DF3TZ-5 | 2026-09-04 23:50:34 | 48.89386 | 10.52599 | 98° | 44km/h | 18645m | 4.1m/s | -57.5°C | 1.5% | 72.3hPa | 2.6V | 00:00:00 | 00:00:00 | 00:00:00 | |
| HARRO8 | 2026-09-04 23:50:33 | 48.89386 | 10.52599 | 98° | 44km/h | 18645m | 4.1m/s | -57.5°C | 1.5% | 72.3hPa | 2.6V | 00:00:00 | 00:00:00 | 00:00:00 | |
| DL1NUX | 2026-09-04 23:50:32 | 48.89399 | 10.52496 | 97° | 51km/h | 18620m | 3.5m/s | -57.7°C | 5% | 72.6hPa | 2.6V | 08:30:00 | 01:21:05 | 00:00:00 | |
| HSKMA3-T | 2026-09-04 23:50:30 | 48.89392 | 10.52550 | 102° | 44km/h | 18632m | 3.9m/s | -57.6°C | 1.4% | 72.5hPa | 2.7V | 18:12:15 | 01:21:08 | 00:00:00 | |
| BIOWL1-15 | 2026-09-04 23:50:28 | 48.89401 | 10.52457 | 90° | 49km/h | 18611m | 3.8m/s | 0°C | 0% | 72.7hPa | 2.7V | 18:12:15 | 01:21:03 | 00:00:00 | |
| DO3MHA-12 | 2026-09-04 23:50:28 | 48.89397 | 10.52515 | 102° | 46km/h | 18624m | 3.4m/s | -57.7°C | 5.0% | 72.5hPa | 2.6V | 00:00:00 | 01:21:06 | 00:00:00 | |
| SO1NDE-10 | 2026-09-04 23:50:27 | 48.89399 | 10.52496 | 98° | 40km/h | 18621m | 3.4m/s | -57.6°C | 5.0% | 72.5hPa | 2.6V | 00:00:00 | 01:21:05 | 00:00:00 | |
| DO3MHA-11 | 2026-09-04 23:50:26 | 48.89401 | 10.52476 | 94° | 44km/h | 18616m | 4.9m/s | -57.6°C | 5.0% | 72.6hPa | 2.6V | 00:00:00 | 01:21:04 | 00:00:00 | |
| OE5DRO-10 | 2026-09-04 23:50:25 | 48.89401 | 10.52457 | 90° | 44km/h | 18612m | 3.7m/s | -57.6°C | 5.0% | 72.6hPa | 2.6V | 00:00:00 | 00:00:00 | 00:00:00 | |
| DO9HM | 2026-09-04 23:50:24 | 48.89401 | 10.52439 | 91° | 47km/h | 18608m | 3.6m/s | -57.7°C | 1.7% | 72.8hPa | 2.6V | 00:00:00 | 00:00:00 | 00:00:00 | |
| DL1NUX | 2026-09-04 23:50:22 | 48.89410 | 10.52330 | 108° | 42km/h | 18577m | 5.3m/s | -58.1°C | 5.1% | 73.1hPa | 2.6V | 08:30:00 | 01:20:55 | 00:00:00 | |
| HSKMA3-T | 2026-09-04 23:50:20 | 48.89404 | 10.52375 | 98° | 38km/h | 18590m | 4.8m/s | -57.9°C | 1.4% | 73hPa | 2.7V | 18:12:15 | 01:20:58 | 00:00:00 | |
| DB0ND-19 | 2026-09-04 23:50:20 | 48.89405 | 10.52360 | 99° | 38km/h | 18586m | 3.9m/s | -58.0°C | 1.7% | 73.0hPa | 2.6V | 00:00:00 | 00:00:00 | 00:00:00 | |
| PG1ADW-2 | 2026-09-04 23:50:19 | 48.89405 | 10.52360 | 100° | 40km/h | 18586m | 3.9m/s | -57.9°C | 5.1% | 72.9hPa | 2.6V | 00:00:00 | 01:20:57 | 00:00:00 | |
| DO3MHA-12 | 2026-09-04 23:50:18 | 48.89407 | 10.52345 | 105° | 44km/h | 18582m | 3.8m/s | -58.0°C | 5.1% | 73.0hPa | 2.6V | 00:00:00 | 01:20:56 | 00:00:00 | |
| OE5WHR-10 | 2026-09-04 23:50:17 | 48.89410 | 10.52330 | 109° | 40km/h | 18578m | 5.3m/s | -58.0°C | 5.1% | 73.0hPa | 2.6V | 00:00:00 | 00:00:00 | 00:00:00 | |
| DF7PN | 2026-09-04 23:50:16 | 48.89417 | 10.52298 | 107° | 44km/h | 18569m | 4.5m/s | -58.1°C | 1.7% | 73.2hPa | 2.6V | 00:00:00 | 00:00:00 | 00:00:00 | |
| SONDE2-11 | 2026-09-04 23:50:14 | 48.89420 | 10.52281 | 101° | 46km/h | 18564m | 5.1m/s | -58.1°C | 1.7% | 73.2hPa | 2.6V | 00:00:00 | 00:00:00 | 00:00:00 | |
| DF2AP-13 | 2026-09-04 23:50:13 | 48.89422 | 10.52264 | 98° | 40km/h | 18559m | 4.1m/s | -58.1°C | 5.2% | 73.2hPa | 2.6V | 00:00:00 | 01:20:51 | 00:00:00 | |
| DL1NUX | 2026-09-04 23:50:12 | 48.89425 | 10.52163 | 89° | 40km/h | 18533m | 4.5m/s | -57.9°C | 5% | 73.6hPa | 2.6V | 08:30:00 | 01:20:45 | 00:00:00 | |
| HSKMA3-T | 2026-09-04 23:50:10 | 48.89425 | 10.52195 | 90° | 44km/h | 18543m | 4m/s | -58°C | 1.4% | 73.5hPa | 2.7V | 18:12:15 | 01:20:47 | 00:00:00 | |
| BIOWL1-15 | 2026-09-04 23:50:10 | 48.89425 | 10.52163 | 90° | 40km/h | 18533m | 4.6m/s | 0°C | 0% | 73.6hPa | 2.6V | 18:12:15 | 01:20:45 | 00:00:00 | |
| DO3MHA-12 | 2026-09-04 23:50:08 | 48.89425 | 10.52178 | 89° | 35km/h | 18538m | 5.4m/s | -57.9°C | 5.0% | 73.5hPa | 2.6V | 00:00:00 | 01:20:46 | 00:00:00 | |
| DO3MHA-11 | 2026-09-04 23:50:06 | 48.89425 | 10.52147 | 94° | 35km/h | 18528m | 5.4m/s | -57.8°C | 5.0% | 73.6hPa | 2.6V | 00:00:00 | 01:20:44 | 00:00:00 | |
| DF3TZ-5 | 2026-09-04 23:50:03 | 48.89429 | 10.52096 | 93° | 31km/h | 18511m | 4.6m/s | -57.8°C | 1.6% | 73.9hPa | 2.6V | 00:00:00 | 00:00:00 | 00:00:00 | |
| DL1NUX | 2026-09-04 23:50:02 | 48.89430 | 10.52030 | 88° | 38km/h | 18489m | 5.5m/s | -57.9°C | 5% | 74.1hPa | 2.6V | 08:30:00 | 01:20:35 | 00:00:00 | |
| HSKMA3-T | 2026-09-04 23:49:58 | 48.89430 | 10.52044 | 91° | 37km/h | 18494m | 3.8m/s | -57.8°C | 1.4% | 74.1hPa | 2.7V | 18:12:15 | 01:20:36 | 00:00:00 | |
| BIOWL1-15 | 2026-09-04 23:49:56 | 48.89429 | 10.52015 | 85° | 40km/h | 18484m | 4.1m/s | 0°C | 0% | 0hPa | 2.6V | 18:12:15 | 01:20:34 | 00:00:00 | |
| OE5WHR-10 | 2026-09-04 23:49:56 | 48.89429 | 10.52014 | 85° | 40km/h | 18485m | 4.1m/s | -57.8°C | 5.0% | 74.1hPa | 2.6V | 00:00:00 | 01:20:34 | 00:00:00 | |
| DL1NUX | 2026-09-04 23:49:52 | 48.89429 | 10.51882 | 86° | 42km/h | 18447m | 5.4m/s | -58.6°C | 5.3% | 74.6hPa | 2.6V | 08:30:00 | 01:20:25 | 00:00:00 | |
| HSKMA3-T | 2026-09-04 23:49:48 | 48.89430 | 10.51897 | 87° | 38km/h | 18451m | 3.5m/s | -58.6°C | 1.5% | 74.6hPa | 2.6V | 18:12:15 | 01:20:26 | 00:00:00 | |
| BIOWL1-15 | 2026-09-04 23:49:44 | 48.89427 | 10.51812 | 86° | 44km/h | 18429m | 4.7m/s | 0°C | 0% | 0hPa | 2.6V | 18:12:15 | 01:20:21 | 00:00:00 | |
| DF2AP-13 | 2026-09-04 23:49:44 | 48.89427 | 10.51812 | 86° | 37km/h | 18430m | 4.7m/s | -58.5°C | 5.4% | 74.8hPa | 2.6V | 00:00:00 | 01:20:21 | 00:00:00 | |
| DL1NUX | 2026-09-04 23:49:42 | 48.89421 | 10.51720 | 83° | 35km/h | 18403m | 4.7m/s | -58.4°C | 5.3% | 75.2hPa | 2.6V | 08:30:00 | 01:20:15 | 00:00:00 | |
| HSKMA3-T | 2026-09-04 23:49:37 | 48.89421 | 10.51720 | 83° | 35km/h | 18403m | 4.7m/s | -58.4°C | 1.5% | 75.2hPa | 2.6V | 18:12:15 | 01:20:15 | 00:00:00 | |
| DJ8HS-15 | 2026-09-04 23:49:36 | 48.89420 | 10.51707 | 85° | 35km/h | 18399m | 4.4m/s | -58.3°C | 5.3% | 75.2hPa | 2.7V | 00:00:00 | 01:20:14 | 08:30:00 | |
| DB0UT-7 | 2026-09-04 23:49:35 | 48.89419 | 10.51694 | 84° | 33km/h | 18394m | 5.0m/s | -58.3°C | 5.3% | 75.2hPa | 2.7V | 00:00:00 | 00:00:00 | 00:00:00 | |
| OE5WHR-10 | 2026-09-04 23:49:34 | 48.89418 | 10.51680 | 86° | 35km/h | 18390m | 3.3m/s | -58.2°C | 5.3% | 75.3hPa | 2.6V | 00:00:00 | 00:00:00 | 08:30:00 | |
| DL1NUX | 2026-09-04 23:49:32 | 48.89411 | 10.51585 | 85° | 33km/h | 18356m | 4.9m/s | -58.1°C | 5.2% | 75.7hPa | 2.6V | 08:30:00 | 01:20:05 | 00:00:00 | |
| HSKMA3-T | 2026-09-04 23:49:26 | 48.89411 | 10.51572 | 90° | 33km/h | 18352m | 3.8m/s | -58.1°C | 1.5% | 75.8hPa | 2.6V | 18:12:15 | 01:20:04 | 00:00:00 | |
| DO3MHA-11 | 2026-09-04 23:49:26 | 48.89411 | 10.51572 | 90° | 35km/h | 18352m | 3.7m/s | -58.0°C | 5.2% | 75.7hPa | 2.7V | 00:00:00 | 01:20:04 | 00:00:00 | |
| NBG1-10 | 2026-09-04 23:49:25 | 48.89411 | 10.51560 | 92° | 31km/h | 18348m | 4.6m/s | -58.0°C | 5.2% | 75.8hPa | 2.7V | 00:00:00 | 01:20:03 | 00:00:00 | |
| DL1NUX | 2026-09-04 23:49:22 | 48.89420 | 10.51455 | 91° | 35km/h | 18312m | 4.3m/s | -58°C | 5.1% | 76.2hPa | 2.7V | 08:30:00 | 01:19:55 | 00:00:00 | |
| BIOWL1-15 | 2026-09-04 23:49:20 | 48.89419 | 10.51468 | 97° | 33km/h | 18317m | 5.1m/s | 0°C | 0% | 0hPa | 2.6V | 18:12:15 | 01:19:56 | 00:00:00 | |
| HSKMA3-T | 2026-09-04 23:49:16 | 48.89419 | 10.51442 | 85° | 33km/h | 18308m | 4.1m/s | -57.9°C | 1.4% | 76.3hPa | 2.7V | 18:12:15 | 01:19:54 | 00:00:00 | |
| DO3MHA-11 | 2026-09-04 23:49:16 | 48.89419 | 10.51442 | 86° | 31km/h | 18308m | 4.1m/s | -57.9°C | 5.1% | 76.3hPa | 2.7V | 00:00:00 | 01:19:54 | 08:30:00 | |
| DK5PH-5 | 2026-09-04 23:49:15 | 48.89418 | 10.51430 | 81° | 27km/h | 18304m | 5.5m/s | -57.9°C | 5.1% | 76.3hPa | 2.6V | 00:00:00 | 01:19:53 | 00:00:00 | |
| DJ8HS-15 | 2026-09-04 23:49:14 | 48.89417 | 10.51418 | 77° | 31km/h | 18298m | 4.7m/s | -57.9°C | 5.1% | 76.4hPa | 2.7V | 00:00:00 | 01:19:52 | 00:00:00 | |
| OE5WHR-10 | 2026-09-04 23:49:13 | 48.89415 | 10.51407 | 72° | 29km/h | 18294m | 4.4m/s | -57.9°C | 5.1% | 76.4hPa | 2.7V | 00:00:00 | 00:00:00 | 00:00:00 | |
| DL1NUX | 2026-09-04 23:49:12 | 48.89410 | 10.51340 | 100° | 31km/h | 18268m | 4.4m/s | -57.8°C | 5.2% | 76.8hPa | 2.7V | 08:30:00 | 01:19:45 | 00:00:00 | |
| HSKMA3-T | 2026-09-04 23:49:05 | 48.89413 | 10.51315 | 98° | 35km/h | 18258m | 4.3m/s | -57.8°C | 1.4% | 76.9hPa | 2.6V | 18:12:15 | 01:19:43 | 00:00:00 | |
| HSKMA3-T | 2026-09-04 23:48:53 | 48.89422 | 10.51180 | 105° | 27km/h | 18205m | 4.7m/s | -57.4°C | 1.4% | 77.6hPa | 2.7V | 18:12:15 | 01:19:31 | 00:00:00 | |
| BIOWL1-15 | 2026-09-04 23:48:52 | 48.89423 | 10.51169 | 99° | 27km/h | 18200m | 5.1m/s | 0°C | 0% | 0hPa | 2.6V | 18:12:15 | 01:19:30 | 00:00:00 | |
| NBG1-10 | 2026-09-04 23:48:52 | 48.89423 | 10.51169 | 100° | 31km/h | 18201m | 5.0m/s | -57.3°C | 5.1% | 77.6hPa | 2.6V | 00:00:00 | 01:19:30 | 08:30:00 | |
| OE5DRO-10 | 2026-09-04 23:48:50 | 48.89424 | 10.51149 | 89° | 29km/h | 18191m | 5.0m/s | -57.2°C | 5.0% | 77.7hPa | 2.6V | 00:00:00 | 00:00:00 | 00:00:00 | |
| DO3MHA-12 | 2026-09-04 23:48:48 | 48.89423 | 10.51130 | 84° | 27km/h | 18182m | 4.1m/s | -57.2°C | 5.0% | 77.8hPa | 2.7V | 00:00:00 | 01:19:26 | 00:00:00 | |
| DB0NH | 2026-09-04 23:48:47 | 48.89422 | 10.51120 | 79° | 33km/h | 18177m | 5.5m/s | -57.2°C | 5.0% | 77.9hPa | 2.6V | 00:00:00 | 01:19:25 | 00:00:00 | |
| OE5WHR-10 | 2026-09-04 23:48:46 | 48.89421 | 10.51110 | 79° | 33km/h | 18172m | 4.1m/s | -57.1°C | 5.1% | 77.9hPa | 2.6V | 00:00:00 | 01:19:24 | 00:00:00 | |
| DM7RM-13 | 2026-09-04 23:48:44 | 48.89420 | 10.51100 | 84° | 27km/h | 18168m | 3.3m/s | -57.2°C | 1.7% | 78.0hPa | 2.6V | 00:00:00 | 00:00:00 | 00:00:00 | |
| DK5PH-5 | 2026-09-04 23:48:43 | 48.89420 | 10.51081 | 103° | 35km/h | 18159m | 4.6m/s | -57.1°C | 5.1% | 78.1hPa | 2.6V | 00:00:00 | 01:19:21 | 00:00:00 | |
| DL1NUX | 2026-09-04 23:48:42 | 48.89436 | 10.51015 | 108° | 31km/h | 18130m | 5.5m/s | -57°C | 5% | 78.5hPa | 2.6V | 08:30:00 | 01:19:15 | 00:00:00 | |
| BIOWL1-15 | 2026-09-04 23:48:42 | 48.89431 | 10.51038 | 110° | 33km/h | 18140m | 4.6m/s | 0°C | 0% | 0hPa | 2.6V | 18:12:15 | 01:19:17 | 00:00:00 | |
| HSKMA3-T | 2026-09-04 23:48:41 | 48.89425 | 10.51061 | 113° | 31km/h | 18150m | 5.1m/s | -57.1°C | 1.4% | 78.2hPa | 2.7V | 18:12:15 | 01:19:19 | 00:00:00 | |
| SONCRA | 2026-09-04 23:48:41 | 48.89425 | 10.51061 | 113° | 29km/h | 18150m | 5.1m/s | -57.1°C | 1.7% | 78.2hPa | 2.7V | 00:00:00 | 00:00:00 | 00:00:00 | |
| DO9HM | 2026-09-04 23:48:40 | 48.89425 | 10.51061 | 114° | 31km/h | 18150m | 5.1m/s | -57.1°C | 1.7% | 78.2hPa | 2.7V | 00:00:00 | 00:00:00 | 00:00:00 | |
| DO3MHA-12 | 2026-09-04 23:48:38 | 48.89434 | 10.51026 | 109° | 33km/h | 18135m | 4.6m/s | -57.0°C | 5.0% | 78.4hPa | 2.7V | 00:00:00 | 01:19:16 | 00:00:00 | |
| DO3MHA-11 | 2026-09-04 23:48:36 | 48.89438 | 10.51004 | 107° | 33km/h | 18126m | 4.1m/s | -56.9°C | 4.9% | 78.5hPa | 2.7V | 00:00:00 | 01:19:14 | 00:00:00 | |
| AZAK | 2026-09-04 23:48:35 | 48.89440 | 10.50993 | 104° | 29km/h | 18121m | 5.0m/s | -57.0°C | 1.6% | 78.6hPa | 2.7V | 00:00:00 | 00:00:00 | 00:00:00 | |
| DL1NUX | 2026-09-04 23:48:32 | 48.89452 | 10.50891 | 108° | 38km/h | 18079m | 4.3m/s | -56.7°C | 4.8% | 79.2hPa | 2.7V | 08:30:00 | 01:19:05 | 00:00:00 | |
| HSKMA3-T | 2026-09-04 23:48:31 | 48.89445 | 10.50943 | 97° | 33km/h | 18099m | 5.5m/s | -56.9°C | 1.3% | 78.9hPa | 2.6V | 18:12:15 | 01:19:09 | 00:00:00 | |
| BIOWL1-15 | 2026-09-04 23:48:27 | 48.89455 | 10.50877 | 114° | 38km/h | 18073m | 5.8m/s | 0°C | 0% | 0hPa | 2.6V | 18:12:15 | 01:19:04 | 00:00:00 | |
| SO1NDE-10 | 2026-09-04 23:48:27 | 48.89452 | 10.50891 | 109° | 44km/h | 18079m | 4.3m/s | -56.7°C | 4.8% | 79.1hPa | 2.6V | 00:00:00 | 01:19:05 | 00:00:00 | |
| DO3MHA-11 | 2026-09-04 23:48:26 | 48.89455 | 10.50877 | 114° | 38km/h | 18074m | 5.8m/s | -56.6°C | 4.8% | 79.2hPa | 2.6V | 00:00:00 | 01:19:04 | 00:00:00 | |
| OE5WHR-10 | 2026-09-04 23:48:25 | 48.89460 | 10.50864 | 119° | 40km/h | 18068m | 4.9m/s | -56.6°C | 4.8% | 79.2hPa | 2.6V | 00:00:00 | 00:00:00 | 00:00:00 | |
| DM7RM-13 | 2026-09-04 23:48:24 | 48.89460 | 10.50864 | 120° | 38km/h | 18068m | 4.9m/s | -56.7°C | 1.6% | 79.3hPa | 2.7V | 00:00:00 | 00:00:00 | 00:00:00 | |
| DL1ZP-14 | 2026-09-04 23:48:23 | 48.89474 | 10.50823 | 115° | 38km/h | 18052m | 5.0m/s | -56.6°C | 1.6% | 79.4hPa | 2.7V | 00:00:00 | 00:00:00 | 00:00:00 | |
| DM0DOS-11 | 2026-09-04 23:48:20 | 48.89486 | 10.50755 | 99° | 42km/h | 18028m | 5.2m/s | -56.6°C | 4.8% | 79.8hPa | 2.7V | 08:30:00 | 01:18:55 | 00:00:00 | |
| HSKMA3-T | 2026-09-04 23:48:17 | 48.89486 | 10.50755 | 100° | 42km/h | 18028m | 5.2m/s | -56.6°C | 1.2% | 79.8hPa | 2.7V | 18:12:15 | 01:18:55 | 00:00:00 | |
| BIOWL1-15 | 2026-09-04 23:48:15 | 48.89498 | 10.50690 | 112° | 42km/h | 18008m | 5.3m/s | 0°C | 0% | 0hPa | 2.6V | 18:12:15 | 01:18:51 | 00:00:00 | |
| AZAK | 2026-09-04 23:48:14 | 48.89494 | 10.50706 | 111° | 44km/h | 18014m | 5.4m/s | -56.6°C | 1.5% | 79.9hPa | 2.6V | 00:00:00 | 00:00:00 | 00:00:00 | |
| DF2AP-13 | 2026-09-04 23:48:13 | 48.89498 | 10.50690 | 113° | 49km/h | 18009m | 5.2m/s | -56.6°C | 4.7% | 79.9hPa | 2.6V | 00:00:00 | 01:18:51 | 00:00:00 | |
| OE5DRO-10 | 2026-09-04 23:48:12 | 48.89502 | 10.50675 | 113° | 46km/h | 18004m | 5.1m/s | -56.6°C | 4.7% | 80.0hPa | 2.7V | 00:00:00 | 00:00:00 | 00:00:00 | |
| DF7PN | 2026-09-04 23:48:11 | 48.89510 | 10.50646 | 109° | 40km/h | 17993m | 4.4m/s | -56.8°C | 1.6% | 80.2hPa | 2.7V | 00:00:00 | 00:00:00 | 00:00:00 | |
| SONDE2-11 | 2026-09-04 23:48:10 | 48.89513 | 10.50632 | 110° | 37km/h | 17988m | 6.1m/s | -56.8°C | 1.6% | 80.2hPa | 2.7V | 00:00:00 | 00:00:00 | 00:00:00 | |
| DM0DOS-11 | 2026-09-04 23:48:09 | 48.89524 | 10.50574 | 103° | 47km/h | 17967m | 5.4m/s | -56.8°C | 5% | 80.5hPa | 2.7V | 08:30:00 | 01:18:43 | 00:00:00 | |
| BIOWL1-15 | 2026-09-04 23:48:03 | 48.89531 | 10.50537 | 107° | 53km/h | 17958m | 5.6m/s | 0°C | 0% | 0hPa | 2.6V | 18:12:15 | 01:18:41 | 00:00:00 | |
| DC4HF-4 | 2026-09-04 23:48:03 | 48.89531 | 10.50537 | 106° | 51km/h | 17958m | 5.6m/s | -56.8°C | 1.6% | 80.6hPa | 2.6V | 00:00:00 | 00:00:00 | 00:00:00 | |
| DL1NUX | 2026-09-04 23:48:02 | 48.89557 | 10.50421 | 103° | 49km/h | 17927m | 4.5m/s | -56.8°C | 4.8% | 81hPa | 2.6V | 08:30:00 | 01:18:35 | 00:00:00 | |
| HSKMA3-T | 2026-09-04 23:48:02 | 48.89535 | 10.50517 | 109° | 53km/h | 17952m | 5.2m/s | -56.8°C | 1.3% | 80.7hPa | 2.6V | 18:12:15 | 01:18:40 | 00:00:00 | |
| HARRO8 | 2026-09-04 23:47:58 | 48.89556 | 10.50421 | 103° | 49km/h | 17927m | 4.6m/s | -56.8°C | 1.6% | 81.0hPa | 2.6V | 00:00:00 | 00:00:00 | 00:00:00 | |
| DM0DOS-11 | 2026-09-04 23:47:57 | 48.89563 | 10.50370 | 98° | 44km/h | 17913m | 4.7m/s | -56.9°C | 4.8% | 81.2hPa | 2.6V | 08:30:00 | 01:18:32 | 00:00:00 | |
| SO1NDE-10 | 2026-09-04 23:47:57 | 48.89556 | 10.50421 | 104° | 55km/h | 17927m | 4.5m/s | -56.8°C | 4.8% | 81.0hPa | 2.6V | 00:00:00 | 01:18:35 | 00:00:00 | |
| DO3MHA-11 | 2026-09-04 23:47:56 | 48.89559 | 10.50403 | 103° | 49km/h | 17923m | 5.5m/s | -56.8°C | 4.8% | 81.1hPa | 2.6V | 00:00:00 | 01:18:34 | 00:00:00 | |
| AZAK | 2026-09-04 23:47:53 | 48.89564 | 10.50353 | 97° | 46km/h | 17908m | 5.4m/s | -56.9°C | 1.6% | 81.3hPa | 2.6V | 00:00:00 | 00:00:00 | 00:00:00 | |
| DL1NUX | 2026-09-04 23:47:52 | 48.89577 | 10.50234 | 98° | 58km/h | 17879m | 5.5m/s | -56.8°C | 4.8% | 81.7hPa | 2.6V | 08:30:00 | 01:18:25 | 00:00:00 | |
| HSKMA3-T | 2026-09-04 23:47:51 | 48.89567 | 10.50316 | 98° | 51km/h | 17898m | 4.5m/s | -56.9°C | 1.3% | 81.4hPa | 2.7V | 18:12:15 | 01:18:29 | 00:00:00 | |
| DO3MHA-12 | 2026-09-04 23:47:48 | 48.89575 | 10.50256 | 101° | 58km/h | 17884m | 4.3m/s | -56.7°C | 4.8% | 81.5hPa | 2.6V | 00:00:00 | 01:18:26 | 08:30:00 | |
| DB0NH | 2026-09-04 23:47:47 | 48.89577 | 10.50234 | 99° | 58km/h | 17879m | 5.4m/s | -56.7°C | 4.8% | 81.6hPa | 2.6V | 00:00:00 | 01:18:25 | 00:00:00 | |
| DM0DOS-11 | 2026-09-04 23:47:46 | 48.89583 | 10.50164 | 97° | 62km/h | 17863m | 5.9m/s | -56.7°C | 4.9% | 81.9hPa | 2.7V | 08:30:00 | 01:18:22 | 00:00:00 | |
| DB0ND-19 | 2026-09-04 23:47:44 | 48.89583 | 10.50164 | 97° | 60km/h | 17863m | 5.9m/s | -56.7°C | 1.6% | 81.9hPa | 2.7V | 00:00:00 | 00:00:00 | 00:00:00 | |
| OE5WHR-10 | 2026-09-04 23:47:43 | 48.89585 | 10.50141 | 98° | 57km/h | 17858m | 4.6m/s | -56.7°C | 4.9% | 81.9hPa | 2.7V | 00:00:00 | 01:18:21 | 00:00:00 | |
| DF7PN | 2026-09-04 23:47:40 | 48.89589 | 10.50054 | 87° | 55km/h | 17839m | 4.3m/s | -56.7°C | 1.6% | 82.2hPa | 2.7V | 00:00:00 | 00:00:00 | 00:00:00 | |
| SONDE2-11 | 2026-09-04 23:47:39 | 48.89588 | 10.50033 | 87° | 53km/h | 17834m | 4.9m/s | -56.7°C | 1.6% | 82.2hPa | 2.7V | 00:00:00 | 00:00:00 | 00:00:00 | |
| DO3MHA-12 | 2026-09-04 23:47:38 | 48.89588 | 10.50033 | 88° | 55km/h | 17834m | 4.8m/s | -56.6°C | 4.8% | 82.2hPa | 2.7V | 00:00:00 | 01:18:16 | 00:00:00 | |
| DO3MHA-11 | 2026-09-04 23:47:36 | 48.89588 | 10.49995 | 90° | 57km/h | 17824m | 4.8m/s | -56.7°C | 4.8% | 82.3hPa | 2.7V | 00:00:00 | 01:18:14 | 00:00:00 | |
| DM0DOS-11 | 2026-09-04 23:47:35 | 48.89587 | 10.49958 | 89° | 51km/h | 17814m | 5.1m/s | -56.9°C | 4.9% | 82.5hPa | 2.7V | 08:30:00 | 01:18:12 | 00:00:00 | |
| DB0UT-7 | 2026-09-04 23:47:35 | 48.89587 | 10.49976 | 90° | 60km/h | 17819m | 5.3m/s | -56.8°C | 4.9% | 82.4hPa | 2.6V | 00:00:00 | 00:00:00 | 00:00:00 | |
| OE5DRO-10 | 2026-09-04 23:47:34 | 48.89587 | 10.49958 | 90° | 60km/h | 17814m | 5.0m/s | -56.8°C | 4.9% | 82.5hPa | 2.6V | 00:00:00 | 00:00:00 | 00:00:00 | |
| DL1NUX | 2026-09-04 23:47:32 | 48.89595 | 10.49800 | 86° | 64km/h | 17778m | 4.8m/s | -57.1°C | 5% | 82.9hPa | 2.6V | 08:30:00 | 01:18:05 | 00:00:00 | |
| DM0DOS-11 | 2026-09-04 23:47:29 | 48.89589 | 10.49730 | 79° | 60km/h | 17764m | 4.8m/s | -57.1°C | 5% | 83.2hPa | 2.7V | 08:30:00 | 01:18:02 | 00:00:00 | |
| DO3MHA-12 | 2026-09-04 23:47:28 | 48.89595 | 10.49824 | 91° | 62km/h | 17784m | 5.0m/s | -57.0°C | 5.0% | 82.9hPa | 2.6V | 00:00:00 | 01:18:06 | 00:00:00 | |
| HARRO8 | 2026-09-04 23:47:27 | 48.89593 | 10.49776 | 83° | 62km/h | 17774m | 5.0m/s | -57.1°C | 1.7% | 83.0hPa | 2.6V | 00:00:00 | 00:00:00 | 00:00:00 | |
| DO3MHA-11 | 2026-09-04 23:47:26 | 48.89593 | 10.49776 | 84° | 60km/h | 17774m | 4.9m/s | -57.0°C | 5.0% | 83.0hPa | 2.6V | 00:00:00 | 01:18:04 | 00:00:00 | |
| DJ8HS-15 | 2026-09-04 23:47:25 | 48.89591 | 10.49752 | 83° | 62km/h | 17769m | 4.7m/s | -57.1°C | 5.0% | 83.0hPa | 2.6V | 00:00:00 | 01:18:03 | 00:00:00 | |
| DL1NUX | 2026-09-04 23:47:22 | 48.89574 | 10.49570 | 87° | 60km/h | 17730m | 4.9m/s | -56.9°C | 4.9% | 83.6hPa | 2.6V | 08:30:00 | 01:17:55 | 00:00:00 | |
| HSKMA3-T | 2026-09-04 23:47:21 | 48.89580 | 10.49661 | 79° | 62km/h | 17748m | 4.5m/s | -57.1°C | 1.4% | 83.3hPa | 2.6V | 18:12:15 | 01:17:59 | 00:00:00 | |
| PG1ADW-2 | 2026-09-04 23:47:19 | 48.89576 | 10.49615 | 87° | 62km/h | 17738m | 5.1m/s | -56.9°C | 4.9% | 83.4hPa | 2.7V | 00:00:00 | 00:00:00 | 00:00:00 | |
| DO3MHA-12 | 2026-09-04 23:47:18 | 48.89575 | 10.49592 | 89° | 62km/h | 17734m | 3.3m/s | -56.9°C | 4.9% | 83.5hPa | 2.7V | 00:00:00 | 01:17:56 | 00:00:00 | |
| DB0NH | 2026-09-04 23:47:17 | 48.89574 | 10.49569 | 88° | 60km/h | 17730m | 4.9m/s | -56.8°C | 4.9% | 83.5hPa | 2.6V | 00:00:00 | 01:17:55 | 00:00:00 | |
| DO3MHA-11 | 2026-09-04 23:47:16 | 48.89573 | 10.49546 | 85° | 62km/h | 17725m | 5.5m/s | -56.8°C | 4.8% | 83.6hPa | 2.6V | 00:00:00 | 01:17:54 | 00:00:00 | |
| DL6DJ-15 | 2026-09-04 23:47:14 | 48.89565 | 10.49473 | 76° | 62km/h | 17711m | 5.2m/s | -56.8°C | 1.6% | 83.8hPa | 2.6V | 00:00:00 | 00:00:00 | 00:00:00 | |
| DF2AP-13 | 2026-09-04 23:47:13 | 48.89565 | 10.49473 | 77° | 58km/h | 17711m | 5.2m/s | 0°C | 0% | 0hPa | 2.6V | 00:00:00 | 01:17:51 | 00:00:00 | |
| DL1NUX | 2026-09-04 23:47:12 | 48.89546 | 10.49336 | 80° | 60km/h | 17681m | 4.4m/s | -56.9°C | 4.9% | 84.2hPa | 2.6V | 08:30:00 | 01:17:45 | 00:00:00 | |
| AZAK | 2026-09-04 23:47:12 | 48.89561 | 10.49449 | 78° | 60km/h | 17706m | 4.9m/s | -56.8°C | 1.6% | 83.9hPa | 2.6V | 00:00:00 | 00:00:00 | 00:00:00 | |
| DM0DOS-11 | 2026-09-04 23:47:09 | 48.89537 | 10.49269 | 74° | 60km/h | 17668m | 4m/s | -56.9°C | 4.9% | 84.4hPa | 2.6V | 08:30:00 | 01:17:42 | 00:00:00 | |
| HSKMA3-T | 2026-09-04 23:47:09 | 48.89552 | 10.49382 | 79° | 60km/h | 17691m | 5.7m/s | -56.8°C | 1.4% | 84.1hPa | 2.7V | 18:12:15 | 01:17:47 | 00:00:00 | |
| DF7PN | 2026-09-04 23:47:09 | 48.89549 | 10.49359 | 80° | 62km/h | 17686m | 4.9m/s | -56.8°C | 1.7% | 84.2hPa | 2.6V | 00:00:00 | 00:00:00 | 00:00:00 | |
| SONDE2-11 | 2026-09-04 23:47:08 | 48.89546 | 10.49336 | 80° | 60km/h | 17681m | 4.4m/s | -56.9°C | 1.7% | 84.3hPa | 2.6V | 00:00:00 | 00:00:00 | 00:00:00 | |
| DO3MHA-11 | 2026-09-04 23:47:06 | 48.89543 | 10.49313 | 80° | 62km/h | 17677m | 4.7m/s | -56.9°C | 4.9% | 84.2hPa | 2.6V | 00:00:00 | 01:17:44 | 00:00:00 | |
| DJ8HS-15 | 2026-09-04 23:47:05 | 48.89540 | 10.49291 | 77° | 58km/h | 17672m | 3.5m/s | -56.9°C | 4.9% | 84.3hPa | 2.6V | 00:00:00 | 01:17:43 | 00:00:00 | |
| DL1NUX | 2026-09-04 23:47:03 | 48.89505 | 10.49108 | 78° | 57km/h | 17638m | 4.7m/s | -57°C | 4.9% | 84.8hPa | 2.7V | 08:30:00 | 01:17:35 | 00:00:00 | |
| DM7RM-13 | 2026-09-04 23:47:01 | 48.89527 | 10.49222 | 72° | 68km/h | 17659m | 4.4m/s | -57.0°C | 1.7% | 84.6hPa | 2.6V | 00:00:00 | 00:00:00 | 00:00:00 | |
| DM0DOS-11 | 2026-09-04 23:46:59 | 48.89496 | 10.49041 | 77° | 60km/h | 17623m | 4.1m/s | -57°C | 4.9% | 85hPa | 2.6V | 08:30:00 | 01:17:32 | 00:00:00 | |
| HSKMA3-T | 2026-09-04 23:46:58 | 48.89508 | 10.49130 | 76° | 57km/h | 17642m | 4.1m/s | -57°C | 1.5% | 84.8hPa | 2.7V | 18:12:15 | 01:17:36 | 00:00:00 | |
| HARRO8 | 2026-09-04 23:46:56 | 48.89499 | 10.49064 | 79° | 60km/h | 17628m | 4.7m/s | -57.0°C | 1.7% | 84.9hPa | 2.6V | 00:00:00 | 00:00:00 | 00:00:00 | |
| DL1NUX | 2026-09-04 23:46:52 | 48.89473 | 10.48903 | 76° | 53km/h | 17590m | 3.7m/s | -57.2°C | 5% | 85.5hPa | 2.6V | 08:30:00 | 01:17:25 | 00:00:00 | |
| DC4HF-4 | 2026-09-04 23:46:51 | 48.89485 | 10.48980 | 73° | 49km/h | 17608m | 4.5m/s | -57.1°C | 1.7% | 85.2hPa | 2.7V | 00:00:00 | 00:00:00 | 00:00:00 | |
| AZAK | 2026-09-04 23:46:50 | 48.89485 | 10.48980 | 75° | 51km/h | 17608m | 4.5m/s | -57.1°C | 1.7% | 85.2hPa | 2.7V | 00:00:00 | 00:00:00 | 00:00:00 | |
| DM0DOS-11 | 2026-09-04 23:46:49 | 48.89461 | 10.48846 | 69° | 51km/h | 17577m | 4.1m/s | -57.3°C | 5.1% | 85.6hPa | 2.7V | 08:30:00 | 01:17:22 | 00:00:00 | |
| HSKMA3-T | 2026-09-04 23:46:47 | 48.89473 | 10.48903 | 77° | 53km/h | 17590m | 3.7m/s | -57.2°C | 1.5% | 85.5hPa | 2.6V | 18:12:15 | 01:17:25 | 00:00:00 | |
| DB0NH | 2026-09-04 23:46:47 | 48.89473 | 10.48903 | 77° | 46km/h | 17590m | 3.6m/s | -57.2°C | 5.0% | 85.4hPa | 2.6V | 00:00:00 | 01:17:25 | 00:00:00 | |
| OE5DXL-15 | 2026-09-04 23:46:46 | 48.89469 | 10.48883 | 75° | 46km/h | 17586m | 4.8m/s | -57.3°C | 5.1% | 85.5hPa | 2.6V | 00:00:00 | 00:00:00 | 08:30:00 | |
| DJ8HS-15 | 2026-09-04 23:46:45 | 48.89466 | 10.48864 | 72° | 46km/h | 17581m | 4.7m/s | -57.3°C | 5.1% | 85.5hPa | 2.7V | 00:00:00 | 01:17:23 | 00:00:00 | |
| DF1GD-15 | 2026-09-04 23:46:44 | 48.89466 | 10.48864 | 72° | 51km/h | 17581m | 4.7m/s | -57.4°C | 1.8% | 85.6hPa | 2.7V | 00:00:00 | 00:00:00 | 00:00:00 | |
| DK5PH-5 | 2026-09-04 23:46:43 | 48.89456 | 10.48827 | 70° | 46km/h | 17572m | 5.0m/s | -57.3°C | 5.0% | 85.7hPa | 2.7V | 00:00:00 | 01:17:21 | 00:00:00 | |
| DL1NUX | 2026-09-04 23:46:42 | 48.89436 | 10.48716 | 80° | 44km/h | 17545m | 5.4m/s | -57.2°C | 5% | 86hPa | 2.7V | 08:30:00 | 01:17:15 | 00:00:00 | |
| DF2AP-13 | 2026-09-04 23:46:41 | 48.89447 | 10.48788 | 74° | 49km/h | 17564m | 3.8m/s | 0°C | 0% | 0hPa | 2.6V | 00:00:00 | 01:17:19 | 00:00:00 | |
| NBG1-10 | 2026-09-04 23:46:40 | 48.89444 | 10.48768 | 74° | 42km/h | 17560m | 5.4m/s | -57.2°C | 5.0% | 85.8hPa | 2.6V | 00:00:00 | 01:17:18 | 00:00:00 | |
| DM0DOS-11 | 2026-09-04 23:46:39 | 48.89430 | 10.48667 | 76° | 42km/h | 17531m | 5.3m/s | -57.1°C | 5% | 86.2hPa | 2.6V | 08:30:00 | 01:17:12 | 00:00:00 | |
| PG1ADW-2 | 2026-09-04 23:46:39 | 48.89441 | 10.48750 | 77° | 60km/h | 17554m | 4.8m/s | -57.1°C | 5.0% | 85.9hPa | 2.6V | 00:00:00 | 00:00:00 | 00:00:00 | |
| DF7PN | 2026-09-04 23:46:38 | 48.89436 | 10.48716 | 80° | 44km/h | 17546m | 5.4m/s | -57.2°C | 1.7% | 86.1hPa | 2.6V | 00:00:00 | 00:00:00 | 00:00:00 | |
| SONDE2-11 | 2026-09-04 23:46:37 | 48.89434 | 10.48699 | 80° | 44km/h | 17541m | 4.6m/s | -57.2°C | 1.7% | 86.1hPa | 2.6V | 00:00:00 | 00:00:00 | 00:00:00 | |
| DO3MHA-11 | 2026-09-04 23:46:36 | 48.89434 | 10.48699 | 81° | 42km/h | 17541m | 4.5m/s | -57.1°C | 5.0% | 86.1hPa | 2.6V | 00:00:00 | 01:17:14 | 00:00:00 | |
| DB0UT-7 | 2026-09-04 23:46:35 | 48.89432 | 10.48682 | 80° | 42km/h | 17536m | 4.6m/s | -57.1°C | 5.0% | 86.1hPa | 2.6V | 00:00:00 | 00:00:00 | 08:30:00 | |
| DL1NUX | 2026-09-04 23:46:32 | 48.89408 | 10.48559 | 78° | 42km/h | 17501m | 4m/s | -57.2°C | 4.9% | 86.7hPa | 2.7V | 08:30:00 | 01:17:05 | 00:00:00 | |
| AZAK | 2026-09-04 23:46:31 | 48.89421 | 10.48621 | 72° | 44km/h | 17517m | 4.3m/s | -57.1°C | 1.7% | 86.4hPa | 2.6V | 00:00:00 | 00:00:00 | 00:00:00 | |
| DM0DOS-11 | 2026-09-04 23:46:29 | 48.89404 | 10.48508 | 84° | 47km/h | 17486m | 4.9m/s | -57.2°C | 5% | 86.9hPa | 2.6V | 08:30:00 | 01:17:02 | 00:00:00 | |
| DO3MHA-12 | 2026-09-04 23:46:28 | 48.89411 | 10.48574 | 76° | 44km/h | 17505m | 4.3m/s | -57.1°C | 5.0% | 86.6hPa | 2.6V | 00:00:00 | 01:17:06 | 00:00:00 | |
| DO3MHA-11 | 2026-09-04 23:46:26 | 48.89406 | 10.48543 | 81° | 46km/h | 17496m | 5.4m/s | -57.1°C | 5.0% | 86.7hPa | 2.6V | 00:00:00 | 01:17:04 | 00:00:00 | |
| DJ8HS-15 | 2026-09-04 23:46:25 | 48.89405 | 10.48526 | 83° | 42km/h | 17491m | 4.6m/s | -57.2°C | 5.0% | 86.7hPa | 2.6V | 00:00:00 | 01:17:03 | 00:00:00 | |
| DF1GD-15 | 2026-09-04 23:46:24 | 48.89405 | 10.48526 | 84° | 46km/h | 17491m | 4.7m/s | -57.2°C | 1.8% | 86.8hPa | 2.6V | 00:00:00 | 00:00:00 | 00:00:00 | |
| DL1NUX | 2026-09-04 23:46:22 | 48.89394 | 10.48390 | 78° | 37km/h | 17454m | 4.4m/s | -57.5°C | 5% | 87.3hPa | 2.6V | 08:30:00 | 01:16:55 | 00:00:00 | |
| DM0DOS-11 | 2026-09-04 23:46:19 | 48.89389 | 10.48350 | 82° | 37km/h | 17442m | 4.2m/s | -57.6°C | 5.1% | 87.5hPa | 2.7V | 08:30:00 | 01:16:52 | 00:00:00 | |
| DL1ZP-14 | 2026-09-04 23:46:18 | 48.89396 | 10.48405 | 80° | 40km/h | 17459m | 5.2m/s | -57.4°C | 1.7% | 87.2hPa | 2.6V | 00:00:00 | 00:00:00 | 00:00:00 | |
| DB0NH | 2026-09-04 23:46:17 | 48.89394 | 10.48390 | 79° | 44km/h | 17454m | 4.4m/s | -57.4°C | 5.0% | 87.3hPa | 2.6V | 00:00:00 | 01:16:55 | 08:30:00 | |
| OE5DXL-15 | 2026-09-04 23:46:16 | 48.89392 | 10.48377 | 77° | 44km/h | 17451m | 3.2m/s | -57.5°C | 5.1% | 87.3hPa | 2.7V | 00:00:00 | 00:00:00 | 00:00:00 | |
| DC4HF-4 | 2026-09-04 23:46:15 | 48.89390 | 10.48364 | 77° | 35km/h | 17446m | 5.1m/s | -57.6°C | 1.8% | 87.4hPa | 2.7V | 00:00:00 | 00:00:00 | 00:00:00 | |
| DK5PH-5 | 2026-09-04 23:46:13 | 48.89388 | 10.48336 | 87° | 46km/h | 17438m | 4.0m/s | -57.6°C | 5.1% | 87.5hPa | 2.7V | 00:00:00 | 01:16:51 | 08:30:00 | |
| DL6DJ-15 | 2026-09-04 23:46:12 | 48.89387 | 10.48306 | 89° | 40km/h | 17429m | 4.0m/s | -57.7°C | 1.8% | 87.7hPa | 2.6V | 00:00:00 | 00:00:00 | 00:00:00 | |
| DL1NUX | 2026-09-04 23:46:11 | 48.89384 | 10.48224 | 89° | 42km/h | 17407m | 4.6m/s | -57.7°C | 5.2% | 88hPa | 2.6V | 08:30:00 | 01:16:44 | 00:00:00 | |
| HSKMA3-T | 2026-09-04 23:46:10 | 48.89387 | 10.48290 | 87° | 42km/h | 17425m | 4.9m/s | -57.7°C | 1.6% | 87.7hPa | 2.6V | 18:12:15 | 01:16:48 | 00:00:00 | |
| DM0DOS-11 | 2026-09-04 23:46:09 | 48.89384 | 10.48192 | 87° | 42km/h | 17397m | 5.2m/s | -57.7°C | 5.2% | 88.1hPa | 2.6V | 08:30:00 | 01:16:42 | 00:00:00 | |
| DO3MHA-12 | 2026-09-04 23:46:08 | 48.89385 | 10.48258 | 86° | 44km/h | 17416m | 3.6m/s | -57.6°C | 5.2% | 87.8hPa | 2.7V | 00:00:00 | 01:16:46 | 00:00:00 | |
| DF7PN | 2026-09-04 23:46:07 | 48.89384 | 10.48224 | 89° | 42km/h | 17407m | 4.6m/s | -57.7°C | 1.8% | 88.0hPa | 2.7V | 00:00:00 | 00:00:00 | 00:00:00 | |
| SONDE2-11 | 2026-09-04 23:46:06 | 48.89384 | 10.48208 | 89° | 42km/h | 17402m | 4.8m/s | -57.7°C | -1.0% | 88.0hPa | 2.7V | 00:00:00 | 00:00:00 | 00:00:00 | |
| DB0UT-7 | 2026-09-04 23:46:05 | 48.89384 | 10.48208 | 90° | 49km/h | 17402m | 4.7m/s | -57.6°C | 5.2% | 88.0hPa | 2.7V | 00:00:00 | 01:16:43 | 00:00:00 | |
| DF1GD-15 | 2026-09-04 23:46:04 | 48.89384 | 10.48208 | 90° | 42km/h | 17402m | 4.8m/s | -57.7°C | 1.8% | 88.0hPa | 2.7V | 00:00:00 | 00:00:00 | 00:00:00 | |
| DL1NUX | 2026-09-04 23:46:00 | 48.89389 | 10.48036 | 98° | 47km/h | 17357m | 5.7m/s | -58.1°C | 5.3% | 88.7hPa | 2.7V | 08:30:00 | 01:16:33 | 00:00:00 | |
| DM0DOS-11 | 2026-09-04 23:45:59 | 48.89391 | 10.48018 | 99° | 47km/h | 17352m | 4m/s | -58.1°C | 5.4% | 88.7hPa | 2.6V | 08:30:00 | 01:16:32 | 00:00:00 | |
| HSKMA3-T | 2026-09-04 23:45:57 | 48.89387 | 10.48073 | 94° | 47km/h | 17366m | 3.9m/s | 0°C | 0% | 88.5hPa | 2.6V | 18:12:15 | 01:16:35 | 00:00:00 | |
| HARRO8 | 2026-09-04 23:45:54 | 48.89393 | 10.48000 | 97° | 46km/h | 17348m | 4.1m/s | -58.1°C | 1.9% | 88.8hPa | 2.7V | 00:00:00 | 00:00:00 | 00:00:00 | |
| DO9HM | 2026-09-04 23:45:50 | 48.89395 | 10.47964 | 92° | 49km/h | 17339m | 4.4m/s | -58.1°C | 1.9% | 88.9hPa | 2.7V | 00:00:00 | 00:00:00 | 00:00:00 | |
| DM0DOS-11 | 2026-09-04 23:45:49 | 48.89404 | 10.47835 | 102° | 55km/h | 17307m | 4.1m/s | -58.1°C | 5.3% | 89.4hPa | 2.7V | 08:30:00 | 01:16:22 | 00:00:00 | |
| HSKMA3-T | 2026-09-04 23:45:46 | 48.89400 | 10.47874 | 99° | 49km/h | 17317m | 5.1m/s | 0°C | 0% | 89.2hPa | 2.6V | 18:12:15 | 01:16:24 | 00:00:00 | |
| DO3MHA-11 | 2026-09-04 23:45:46 | 48.89399 | 10.47874 | 100° | 55km/h | 17317m | 5.1m/s | -58.0°C | 5.3% | 89.2hPa | 2.6V | 00:00:00 | 01:16:24 | 00:00:00 | |
| DJ8HS-15 | 2026-09-04 23:45:45 | 48.89402 | 10.47855 | 100° | 60km/h | 17312m | 4.7m/s | -58.0°C | 5.3% | 89.2hPa | 2.6V | 00:00:00 | 01:16:23 | 00:00:00 | |
| DK5PH-5 | 2026-09-04 23:45:43 | 48.89407 | 10.47815 | 105° | 62km/h | 17303m | 5.5m/s | -58.1°C | 5.4% | 89.4hPa | 2.6V | 00:00:00 | 01:16:21 | 00:00:00 | |
| DL1NUX | 2026-09-04 23:45:42 | 48.89420 | 10.47752 | 104° | 58km/h | 17289m | 4.6m/s | -58.1°C | 5.3% | 89.6hPa | 2.6V | 08:30:00 | 01:16:18 | 00:00:00 | |
| DB0ND-19 | 2026-09-04 23:45:41 | 48.89419 | 10.47752 | 104° | 57km/h | 17289m | 4.6m/s | -58.1°C | 1.9% | 89.6hPa | 2.6V | 00:00:00 | 00:00:00 | 00:00:00 | |
| OE5DRO-10 | 2026-09-04 23:45:40 | 48.89419 | 10.47751 | 105° | 62km/h | 17289m | 4.6m/s | -58.1°C | 5.3% | 89.6hPa | 2.6V | 00:00:00 | 00:00:00 | 00:00:00 | |
| DM0DOS-11 | 2026-09-04 23:45:39 | 48.89438 | 10.47625 | 97° | 55km/h | 17261m | 4.2m/s | -58.1°C | 5.3% | 90hPa | 2.6V | 08:30:00 | 01:16:12 | 00:00:00 | |
| HSKMA3-T | 2026-09-04 23:45:36 | 48.89434 | 10.47667 | 102° | 55km/h | 17270m | 5.5m/s | 0°C | 0% | 0hPa | 2.6V | 18:12:15 | 01:16:14 | 00:00:00 | |
| DO3MHA-11 | 2026-09-04 23:45:36 | 48.89434 | 10.47667 | 102° | 60km/h | 17270m | 5.4m/s | -58.0°C | 5.3% | 89.8hPa | 2.6V | 00:00:00 | 01:16:14 | 00:00:00 | |
| SONCRA | 2026-09-04 23:45:35 | 48.89438 | 10.47625 | 97° | 55km/h | 17261m | 4.2m/s | -58.1°C | 1.9% | 90.0hPa | 2.6V | 00:00:00 | 00:00:00 | 00:00:00 | |
| NBG1-10 | 2026-09-04 23:45:34 | 48.89438 | 10.47625 | 98° | 64km/h | 17261m | 4.1m/s | -58.0°C | 5.3% | 90.0hPa | 2.6V | 00:00:00 | 01:16:12 | 00:00:00 | |
| DL1NUX | 2026-09-04 23:45:32 | 48.89455 | 10.47488 | 102° | 69km/h | 17232m | 4.8m/s | -58.1°C | 5.3% | 90.4hPa | 2.6V | 08:30:00 | 01:16:06 | 00:00:00 | |
| DM0DOS-11 | 2026-09-04 23:45:29 | 48.89470 | 10.47384 | 98° | 68km/h | 17215m | 5m/s | -58.1°C | 5.2% | 90.7hPa | 2.6V | 08:30:00 | 01:16:02 | 00:00:00 | |
| HSKMA3-T | 2026-09-04 23:45:25 | 48.89467 | 10.47410 | 102° | 69km/h | 17220m | 4.2m/s | 0°C | 0% | 0hPa | 2.7V | 18:12:15 | 01:16:03 | 00:00:00 | |
| DJ8HS-15 | 2026-09-04 23:45:25 | 48.89467 | 10.47410 | 103° | 66km/h | 17220m | 4.2m/s | -58.1°C | 5.3% | 90.6hPa | 2.6V | 00:00:00 | 01:16:03 | 00:00:00 | |
| DF3TZ-5 | 2026-09-04 23:45:23 | 48.89472 | 10.47359 | 93° | 64km/h | 17211m | 4.1m/s | -58.1°C | 1.9% | 90.7hPa | 2.6V | 00:00:00 | 00:00:00 | 00:00:00 | |
| DL1NUX | 2026-09-04 23:45:22 | 48.89473 | 10.47249 | 91° | 55km/h | 17189m | 4.2m/s | -58.1°C | 5.1% | 91hPa | 2.6V | 08:30:00 | 01:15:56 | 00:00:00 | |
| OE5DRO-10 | 2026-09-04 23:45:21 | 48.89473 | 10.47312 | 91° | 64km/h | 17202m | 5.1m/s | -58.0°C | 5.1% | 90.8hPa | 2.7V | 00:00:00 | 00:00:00 | 00:00:00 | |
| DM0DOS-11 | 2026-09-04 23:45:19 | 48.89477 | 10.47153 | 97° | 69km/h | 17172m | 4.9m/s | -58.2°C | 5.1% | 91.3hPa | 2.7V | 08:30:00 | 01:15:52 | 00:00:00 | |
| DO3MHA-12 | 2026-09-04 23:45:18 | 48.89473 | 10.47249 | 92° | 68km/h | 17190m | 4.1m/s | -58.1°C | 5.1% | 91.0hPa | 2.6V | 00:00:00 | 01:15:56 | 00:00:00 | |
| DO3MHA-11 | 2026-09-04 23:45:17 | 48.89474 | 10.47204 | 93° | 69km/h | 17181m | 3.7m/s | -58.1°C | 5.1% | 91.1hPa | 2.6V | 00:00:00 | 01:15:54 | 00:00:00 | |
| DL1NUX | 2026-09-04 23:45:12 | 48.89493 | 10.46988 | 96° | 66km/h | 17146m | 4m/s | -58.9°C | 5.4% | 91.7hPa | 2.7V | 08:30:00 | 01:15:46 | 00:00:00 | |
| DK5PH-5 | 2026-09-04 23:45:12 | 48.89483 | 10.47097 | 99° | 71km/h | 17162m | 5.3m/s | -58.4°C | 5.2% | 91.4hPa | 2.6V | 00:00:00 | 01:15:50 | 00:00:00 | |
| DL6DJ-15 | 2026-09-04 23:45:10 | 48.89491 | 10.47014 | 97° | 69km/h | 17150m | 4.9m/s | -58.8°C | 1.9% | 91.6hPa | 2.6V | 00:00:00 | 00:00:00 | 00:00:00 | |
| DM0DOS-11 | 2026-09-04 23:45:09 | 48.89493 | 10.46894 | 84° | 62km/h | 17128m | 4m/s | -59.5°C | 5.8% | 92hPa | 2.6V | 08:30:00 | 01:15:42 | 00:00:00 | |
| AZAK | 2026-09-04 23:45:07 | 48.89494 | 10.46964 | 95° | 62km/h | 17142m | 4.2m/s | -59.1°C | 2.0% | 91.7hPa | 2.6V | 00:00:00 | 00:00:00 | 00:00:00 | |
| DO3MHA-11 | 2026-09-04 23:45:06 | 48.89495 | 10.46940 | 90° | 69km/h | 17137m | 5.0m/s | -59.3°C | 5.6% | 91.8hPa | 2.6V | 00:00:00 | 01:15:44 | 00:00:00 | |
| DB0UT-7 | 2026-09-04 23:45:05 | 48.89494 | 10.46917 | 87° | 71km/h | 17132m | 4.5m/s | -59.4°C | 5.7% | 91.8hPa | 2.6V | 00:00:00 | 01:15:43 | 00:00:00 | |
| SONCRA | 2026-09-04 23:45:04 | 48.89492 | 10.46871 | 85° | 60km/h | 17123m | 5.2m/s | -59.5°C | 2.1% | 92.1hPa | 2.6V | 00:00:00 | 00:00:00 | 00:00:00 | |
| SONDE2-11 | 2026-09-04 23:45:03 | 48.89492 | 10.46871 | 85° | 60km/h | 17123m | 5.2m/s | -59.5°C | -1.0% | 92.1hPa | 2.6V | 00:00:00 | 00:00:00 | 00:00:00 | |
| NBG1-10 | 2026-09-04 23:45:01 | 48.89490 | 10.46821 | 89° | 73km/h | 17115m | 3.8m/s | -59.5°C | 5.8% | 92.1hPa | 2.6V | 00:00:00 | 01:15:39 | 00:00:00 | |
| DL1NUX | 2026-09-04 23:44:59 | 48.89489 | 10.46615 | 88° | 77km/h | 17082m | 5.7m/s | -59.5°C | 5.8% | 92.6hPa | 2.6V | 08:30:00 | 01:15:32 | 00:00:00 | |
| DO3MHA-12 | 2026-09-04 23:44:58 | 48.89489 | 10.46736 | 90° | 75km/h | 17100m | 4.1m/s | -59.5°C | 5.8% | 92.3hPa | 2.6V | 00:00:00 | 01:15:36 | 00:00:00 | |
| DM0DOS-11 | 2026-09-04 23:44:57 | 48.89489 | 10.46586 | 85° | 75km/h | 17077m | 4.5m/s | -59.5°C | 5.9% | 92.7hPa | 2.6V | 08:30:00 | 01:15:31 | 00:00:00 | |
| HSKMA3-T | 2026-09-04 23:44:55 | 48.89490 | 10.46644 | 90° | 78km/h | 17086m | 4m/s | 0°C | 0% | 0hPa | 2.6V | 18:12:15 | 01:15:33 | 00:00:00 | |
| HARRO8 | 2026-09-04 23:44:52 | 48.89484 | 10.46531 | 82° | 69km/h | 17068m | 5.2m/s | -59.4°C | 2.0% | 92.8hPa | 2.6V | 00:00:00 | 00:00:00 | 00:00:00 | |
| DO3MHA-12 | 2026-09-04 23:44:48 | 48.89477 | 10.46453 | 83° | 75km/h | 17054m | 5.4m/s | -59.3°C | 5.7% | 93.0hPa | 2.6V | 00:00:00 | 01:15:26 | 08:30:00 | |
| DM0DOS-11 | 2026-09-04 23:44:47 | 48.89470 | 10.46309 | 88° | 78km/h | 17029m | 5.8m/s | -59.1°C | 5.7% | 93.4hPa | 2.6V | 08:30:00 | 01:15:21 | 00:00:00 | |
| HSKMA3-T | 2026-09-04 23:44:45 | 48.89472 | 10.46368 | 87° | 75km/h | 17040m | 5.1m/s | 0°C | 0% | 0hPa | 2.7V | 18:12:15 | 01:15:23 | 00:00:00 | |
| DJ8HS-15 | 2026-09-04 23:44:45 | 48.89472 | 10.46368 | 87° | 71km/h | 17040m | 5.0m/s | -59.1°C | 5.7% | 93.2hPa | 2.6V | 00:00:00 | 01:15:23 | 00:00:00 | |
| OE5WHR-10 | 2026-09-04 23:44:44 | 48.89471 | 10.46339 | 89° | 73km/h | 17035m | 4.9m/s | -59.1°C | 5.7% | 93.3hPa | 2.6V | 00:00:00 | 01:15:22 | 00:00:00 | |
| OE5DRO-10 | 2026-09-04 23:44:43 | 48.89470 | 10.46309 | 89° | 71km/h | 17030m | 5.8m/s | -59.0°C | 5.7% | 93.4hPa | 2.6V | 00:00:00 | 00:00:00 | 00:00:00 | |
| DK5PH-5 | 2026-09-04 23:44:42 | 48.89470 | 10.46278 | 88° | 71km/h | 17025m | 4.5m/s | -59.0°C | 5.7% | 93.5hPa | 2.6V | 00:00:00 | 01:15:20 | 00:00:00 | |
| DL6DJ-15 | 2026-09-04 23:44:39 | 48.89465 | 10.46164 | 84° | 68km/h | 17007m | 4.1m/s | -58.9°C | 2.0% | 93.8hPa | 2.7V | 00:00:00 | 00:00:00 | 00:00:00 | |
| DO3MHA-12 | 2026-09-04 23:44:38 | 48.89465 | 10.46164 | 85° | 68km/h | 17007m | 4.1m/s | -58.8°C | 5.6% | 93.7hPa | 2.7V | 00:00:00 | 01:15:16 | 00:00:00 | |
| DM0DOS-11 | 2026-09-04 23:44:37 | 48.89453 | 10.46035 | 81° | 68km/h | 16983m | 6m/s | -58.7°C | 5.6% | 94.1hPa | 2.7V | 08:30:00 | 01:15:11 | 00:00:00 | |
| DM7RM-13 | 2026-09-04 23:44:37 | 48.89463 | 10.46138 | 84° | 68km/h | 17002m | 5.0m/s | -58.9°C | 0% | 93.8hPa | 2.7V | 00:00:00 | 00:00:00 | 00:00:00 | |
| DO3MHA-11 | 2026-09-04 23:44:36 | 48.89461 | 10.46113 | 82° | 69km/h | 16997m | 5.1m/s | -58.8°C | 5.6% | 93.8hPa | 2.7V | 00:00:00 | 01:15:14 | 00:00:00 | |
| DB0UT-7 | 2026-09-04 23:44:35 | 48.89458 | 10.46087 | 81° | 69km/h | 16993m | 3.8m/s | -58.8°C | 5.6% | 93.9hPa | 2.7V | 00:00:00 | 00:00:00 | 00:00:00 | |
| SONCRA | 2026-09-04 23:44:33 | 48.89451 | 10.46010 | 82° | 66km/h | 16978m | 4.8m/s | -58.7°C | 2.0% | 94.2hPa | 2.7V | 00:00:00 | 00:00:00 | 00:00:00 | |
| SONDE2-11 | 2026-09-04 23:44:32 | 48.89451 | 10.46010 | 82° | 66km/h | 16978m | 4.8m/s | -58.7°C | -1.0% | 94.2hPa | 2.7V | 00:00:00 | 00:00:00 | 00:00:00 | |
| AM1SDL-15 | 2026-09-04 23:44:29 | 48.89443 | 10.45931 | 82° | 69km/h | 16963m | 3.8m/s | -58.5°C | 5.6% | 94.4hPa | 2.7V | 00:00:00 | 01:15:07 | 00:00:00 | |
| DO3MHA-12 | 2026-09-04 23:44:28 | 48.89440 | 10.45904 | 83° | 69km/h | 16959m | 5.6m/s | -58.5°C | 5.5% | 94.4hPa | 2.7V | 00:00:00 | 01:15:06 | 00:00:00 | |
| DC4HF-4 | 2026-09-04 23:44:27 | 48.89436 | 10.45851 | 82° | 69km/h | 16949m | 5.0m/s | -58.5°C | 2.0% | 94.6hPa | 2.7V | 00:00:00 | 00:00:00 | 00:00:00 | |
| DM0DOS-11 | 2026-09-04 23:44:26 | 48.89429 | 10.45772 | 82° | 68km/h | 16934m | 5.9m/s | -58.3°C | 5.5% | 94.9hPa | 2.7V | 08:30:00 | 01:15:01 | 00:00:00 | |
| DO3MHA-11 | 2026-09-04 23:44:26 | 48.89436 | 10.45851 | 83° | 69km/h | 16949m | 4.9m/s | -58.4°C | 5.5% | 94.6hPa | 2.6V | 00:00:00 | 01:15:04 | 00:00:00 | |
| DJ8HS-15 | 2026-09-04 23:44:25 | 48.89434 | 10.45824 | 82° | 69km/h | 16944m | 5.0m/s | -58.4°C | 5.5% | 94.7hPa | 2.6V | 00:00:00 | 01:15:03 | 00:00:00 | |
| OE5DRO-10 | 2026-09-04 23:44:24 | 48.89431 | 10.45797 | 82° | 69km/h | 16939m | 4.4m/s | -58.3°C | 5.5% | 94.7hPa | 2.6V | 00:00:00 | 00:00:00 | 00:00:00 | |
| OE5WHR-10 | 2026-09-04 23:44:23 | 48.89429 | 10.45771 | 83° | 69km/h | 16934m | 5.9m/s | 0°C | 0% | 0hPa | 2.6V | 00:00:00 | 00:00:00 | 00:00:00 | |
| DF1GD-15 | 2026-09-04 23:44:22 | 48.89429 | 10.45771 | 83° | 68km/h | 16934m | 5.9m/s | -58.3°C | 2.0% | 94.9hPa | 2.6V | 00:00:00 | 00:00:00 | 00:00:00 | |
| HARRO8 | 2026-09-04 23:44:21 | 48.89422 | 10.45696 | 81° | 68km/h | 16919m | 5.4m/s | -58.2°C | 2.0% | 95.0hPa | 2.6V | 00:00:00 | 00:00:00 | 00:00:00 | |
| DO9HM | 2026-09-04 23:44:18 | 48.89417 | 10.45642 | 84° | 73km/h | 16910m | 4.8m/s | -58.1°C | 2.0% | 95.2hPa | 2.6V | 00:00:00 | 00:00:00 | 00:00:00 | |
| DB0NH | 2026-09-04 23:44:17 | 48.89415 | 10.45614 | 85° | 69km/h | 16905m | 5.3m/s | -58.0°C | 5.5% | 95.2hPa | 2.6V | 00:00:00 | 01:14:55 | 00:00:00 | |
| OE5DXL-15 | 2026-09-04 23:44:16 | 48.89413 | 10.45586 | 85° | 69km/h | 16900m | 4.8m/s | -58.0°C | 5.5% | 95.3hPa | 2.6V | 00:00:00 | 00:00:00 | 00:00:00 | |
| DM0DOS-11 | 2026-09-04 23:44:15 | 48.89407 | 10.45502 | 82° | 73km/h | 16885m | 3.8m/s | -58°C | 5.5% | 95.6hPa | 2.6V | 08:30:00 | 01:14:51 | 00:00:00 | |
| DO3MHA-11 | 2026-09-04 23:44:15 | 48.89411 | 10.45558 | 84° | 69km/h | 16895m | 5.8m/s | -58.0°C | 5.5% | 95.4hPa | 2.7V | 00:00:00 | 01:14:53 | 00:00:00 | |
| DL1ZP-14 | 2026-09-04 23:44:14 | 48.89409 | 10.45530 | 82° | 73km/h | 16890m | 4.4m/s | -58.0°C | 2.0% | 95.5hPa | 2.6V | 00:00:00 | 00:00:00 | 00:00:00 | |
| DK5PH-5 | 2026-09-04 23:44:12 | 48.89404 | 10.45475 | 84° | 69km/h | 16881m | 5.5m/s | -57.9°C | 5.5% | 95.6hPa | 2.6V | 00:00:00 | 01:14:50 | 00:00:00 | |
| DO3MHA-12 | 2026-09-04 23:44:08 | 48.89395 | 10.45373 | 80° | 69km/h | 16860m | 4.4m/s | -57.8°C | 5.5% | 96.0hPa | 2.6V | 00:00:00 | 01:14:46 | 00:00:00 | |
| DB0ND-19 | 2026-09-04 23:44:07 | 48.89392 | 10.45347 | 80° | 68km/h | 16856m | 4.6m/s | -57.8°C | 2.0% | 96.1hPa | 2.6V | 00:00:00 | 00:00:00 | 00:00:00 | |
| DM0DOS-11 | 2026-09-04 23:44:05 | 48.89383 | 10.45242 | 82° | 73km/h | 16836m | 5.4m/s | -57.6°C | 5.4% | 96.3hPa | 2.6V | 08:30:00 | 01:14:41 | 00:00:00 | |
| AM1SDL-15 | 2026-09-04 23:44:05 | 48.89385 | 10.45269 | 84° | 68km/h | 16841m | 5.1m/s | -57.6°C | 5.4% | 96.2hPa | 2.7V | 00:00:00 | 01:14:42 | 00:00:00 | |
| DF7PN | 2026-09-04 23:44:02 | 48.89380 | 10.45215 | 82° | 73km/h | 16830m | 4.8m/s | -57.6°C | 1.9% | 96.4hPa | 2.7V | 00:00:00 | 00:00:00 | 00:00:00 | |
| SONDE2-11 | 2026-09-04 23:44:01 | 48.89378 | 10.45187 | 83° | 71km/h | 16825m | 6.0m/s | -57.5°C | -1.0% | -1.0hPa | 2.7V | 00:00:00 | 00:00:00 | 00:00:00 | |
| DO3MHA-12 | 2026-09-04 23:43:58 | 48.89371 | 10.45108 | 81° | 68km/h | 16810m | 4.9m/s | -57.3°C | 5.3% | 96.7hPa | 2.7V | 00:00:00 | 01:14:36 | 00:00:00 | |
| OE5WHR-10 | 2026-09-04 23:43:57 | 48.89368 | 10.45082 | 81° | 68km/h | 16805m | 4.2m/s | 0°C | 0% | 0hPa | 2.7V | 00:00:00 | 00:00:00 | 00:00:00 | |
| DM7RM-13 | 2026-09-04 23:43:56 | 48.89365 | 10.45058 | 82° | 64km/h | 16800m | 5.8m/s | -57.3°C | 1.9% | 96.9hPa | 2.7V | 00:00:00 | 00:00:00 | 00:00:00 | |
| DM0DOS-11 | 2026-09-04 23:43:55 | 48.89358 | 10.44986 | 80° | 66km/h | 16785m | 4.7m/s | -57.2°C | 5.3% | 97.1hPa | 2.7V | 08:30:00 | 01:14:31 | 00:00:00 | |
| DF3TZ-5 | 2026-09-04 23:43:50 | 48.89350 | 10.44909 | 82° | 69km/h | 16770m | 4.4m/s | -57.1°C | 1.9% | 97.4hPa | 2.7V | 00:00:00 | 00:00:00 | 00:00:00 | |
| HARRO8 | 2026-09-04 23:43:49 | 48.89348 | 10.44881 | 82° | 73km/h | 16765m | 5.6m/s | -57.0°C | 1.9% | 97.4hPa | 2.7V | 00:00:00 | 00:00:00 | 00:00:00 | |
| DO3MHA-12 | 2026-09-04 23:43:48 | 48.89345 | 10.44852 | 82° | 69km/h | 16760m | 5.0m/s | -56.9°C | 5.2% | 97.4hPa | 2.7V | 00:00:00 | 01:14:26 | 00:00:00 | |
| DB0NH | 2026-09-04 23:43:47 | 48.89342 | 10.44823 | 81° | 69km/h | 16755m | 4.2m/s | -56.9°C | 5.2% | 97.5hPa | 2.6V | 00:00:00 | 01:14:25 | 00:00:00 | |
| OE5DXL-15 | 2026-09-04 23:43:46 | 48.89338 | 10.44795 | 81° | 69km/h | 16751m | 5.5m/s | -56.9°C | 5.2% | 97.6hPa | 2.6V | 00:00:00 | 00:00:00 | 00:00:00 | |
| DM0DOS-11 | 2026-09-04 23:43:45 | 48.89330 | 10.44719 | 79° | 64km/h | 16735m | 5m/s | -56.8°C | 5.2% | 97.8hPa | 2.7V | 08:30:00 | 01:14:21 | 00:00:00 | |
| DJ8HS-15 | 2026-09-04 23:43:45 | 48.89335 | 10.44769 | 81° | 68km/h | 16745m | 5.5m/s | -56.8°C | 5.2% | 97.7hPa | 2.7V | 00:00:00 | 01:14:23 | 00:00:00 | |
| AZAK | 2026-09-04 23:43:44 | 48.89335 | 10.44769 | 81° | 69km/h | 16745m | 5.6m/s | -56.9°C | 1.9% | 97.7hPa | 2.7V | 00:00:00 | 00:00:00 | 00:00:00 | |
| OE9MKV-15 | 2026-09-04 23:43:43 | 48.89329 | 10.44719 | 80° | 69km/h | 16735m | 5.0m/s | 0°C | 0% | 0hPa | 2.7V | 00:00:00 | 01:14:21 | 00:00:00 | |
| DK5PH-5 | 2026-09-04 23:43:42 | 48.89327 | 10.44694 | 81° | 69km/h | 16730m | 4.9m/s | -56.7°C | 5.3% | 97.9hPa | 2.7V | 00:00:00 | 01:14:20 | 00:00:00 | |
| DF1GD-15 | 2026-09-04 23:43:41 | 48.89326 | 10.44694 | 81° | 66km/h | 16730m | 5.0m/s | -56.8°C | 2.0% | 98.0hPa | 2.7V | 00:00:00 | 00:00:00 | 00:00:00 | |
| AM1SDL-15 | 2026-09-04 23:43:40 | 48.89321 | 10.44644 | 83° | 69km/h | 16721m | 5.4m/s | -56.7°C | 5.3% | 98.0hPa | 2.7V | 00:00:00 | 01:14:18 | 00:00:00 | |
| DO3MHA-12 | 2026-09-04 23:43:38 | 48.89317 | 10.44593 | 83° | 71km/h | 16711m | 4.0m/s | -56.7°C | 5.2% | 98.2hPa | 2.7V | 00:00:00 | 01:14:16 | 00:00:00 | |
| DL1NUX | 2026-09-04 23:43:37 | 48.89294 | 10.44429 | 74° | 73km/h | 16682m | 5.5m/s | -56.6°C | 5.2% | 98.7hPa | 2.7V | 08:30:00 | 01:14:10 | 00:00:00 | |
| DB0ND-19 | 2026-09-04 23:43:36 | 48.89312 | 10.44539 | 78° | 73km/h | 16701m | 4.9m/s | -56.7°C | 1.9% | 98.4hPa | 2.6V | 00:00:00 | 00:00:00 | 00:00:00 | |
| DM0DOS-11 | 2026-09-04 23:43:35 | 48.89299 | 10.44456 | 75° | 73km/h | 16687m | 4.1m/s | -56.6°C | 5.2% | 98.6hPa | 2.6V | 08:30:00 | 01:14:11 | 00:00:00 | |
| DB0UT-7 | 2026-09-04 23:43:35 | 48.89308 | 10.44511 | 77° | 66km/h | 16697m | 4.8m/s | -56.6°C | 5.2% | 98.4hPa | 2.6V | 00:00:00 | 00:00:00 | 00:00:00 | |
| DM7RM-13 | 2026-09-04 23:43:34 | 48.89308 | 10.44511 | 78° | 75km/h | 16697m | 4.9m/s | -56.7°C | 1.9% | 98.5hPa | 2.6V | 00:00:00 | 00:00:00 | 00:00:00 | |
| DO3MHA-11 | 2026-09-04 23:43:33 | 48.89299 | 10.44456 | 76° | 68km/h | 16687m | 4.0m/s | -56.5°C | 5.2% | 98.6hPa | 2.6V | 00:00:00 | 01:14:11 | 00:00:00 | |
| SO1NDE-10 | 2026-09-04 23:43:32 | 48.89294 | 10.44429 | 75° | 68km/h | 16682m | 5.5m/s | -56.5°C | 5.2% | 98.6hPa | 2.6V | 00:00:00 | 01:14:10 | 00:00:00 | |
| DF7PN | 2026-09-04 23:43:31 | 48.89289 | 10.44403 | 75° | 71km/h | 16677m | 5.1m/s | -56.5°C | 1.9% | 98.8hPa | 2.6V | 00:00:00 | 00:00:00 | 00:00:00 | |
| SONDE2-11 | 2026-09-04 23:43:30 | 48.89285 | 10.44376 | 75° | 69km/h | 16672m | 4.1m/s | -56.5°C | -1.0% | -1.0hPa | 2.6V | 00:00:00 | 00:00:00 | 00:00:00 | |
| DO3MHA-12 | 2026-09-04 23:43:28 | 48.89277 | 10.44326 | 81° | 66km/h | 16661m | 6.1m/s | -56.4°C | 5.2% | 99.0hPa | 2.6V | 00:00:00 | 01:14:06 | 00:00:00 | |
| DL1NUX | 2026-09-04 23:43:27 | 48.89270 | 10.44180 | 88° | 68km/h | 16627m | 5.6m/s | -56.3°C | 5.2% | 99.6hPa | 2.6V | 08:30:00 | 01:14:00 | 00:00:00 | |
| OE5DRO-10 | 2026-09-04 23:43:27 | 48.89275 | 10.44303 | 84° | 69km/h | 16655m | 4.9m/s | -56.4°C | 5.2% | 99.1hPa | 2.6V | 00:00:00 | 00:00:00 | 00:00:00 | |
| AM1SDL-15 | 2026-09-04 23:43:26 | 48.89273 | 10.44279 | 84° | 69km/h | 16650m | 5.8m/s | -56.4°C | 5.2% | 99.1hPa | 2.6V | 00:00:00 | 01:14:04 | 00:00:00 | |
| DJ8HS-15 | 2026-09-04 23:43:25 | 48.89272 | 10.44255 | 86° | 69km/h | 16645m | 4.2m/s | -56.4°C | 5.2% | 99.3hPa | 2.6V | 00:00:00 | 01:14:03 | 00:00:00 | |
| DM0DOS-11 | 2026-09-04 23:43:24 | 48.89270 | 10.44206 | 87° | 66km/h | 16633m | 7.3m/s | -56.4°C | 5.1% | 99.5hPa | 2.6V | 08:30:00 | 01:14:01 | 00:00:00 | |
| DO3MHA-11 | 2026-09-04 23:43:23 | 48.89270 | 10.44206 | 88° | 69km/h | 16633m | 7.3m/s | -56.3°C | 5.1% | 99.4hPa | 2.6V | 00:00:00 | 01:14:01 | 00:00:00 | |
| NBG1-10 | 2026-09-04 23:43:22 | 48.89269 | 10.44180 | 89° | 66km/h | 16627m | 5.6m/s | -56.3°C | 5.2% | 99.5hPa | 2.6V | 00:00:00 | 01:14:00 | 00:00:00 | |
| DF1GD-15 | 2026-09-04 23:43:20 | 48.89268 | 10.44154 | 87° | 69km/h | 16621m | 5.2m/s | -56.3°C | 2.0% | 99.7hPa | 2.6V | 00:00:00 | 00:00:00 | 00:00:00 | |
| DF3TZ-5 | 2026-09-04 23:43:19 | 48.89265 | 10.44101 | 82° | 71km/h | 16610m | 4.8m/s | -56.3°C | 2.0% | 99.8hPa | 2.6V | 00:00:00 | 00:00:00 | 00:00:00 | |
| DO3MHA-12 | 2026-09-04 23:43:18 | 48.89263 | 10.44073 | 84° | 71km/h | 16605m | 5.6m/s | -56.3°C | 5.2% | 99.9hPa | 2.6V | 00:00:00 | 01:13:56 | 08:30:00 | |
| DL1NUX | 2026-09-04 23:43:17 | 48.89258 | 10.43910 | 88° | 69km/h | 16574m | 6m/s | -56.2°C | 5.2% | 100.4hPa | 2.6V | 08:30:00 | 01:13:50 | 00:00:00 | |
| DB0NH | 2026-09-04 23:43:17 | 48.89261 | 10.44045 | 87° | 64km/h | 16599m | 5.3m/s | -56.2°C | 5.2% | 100.0hPa | 2.6V | 00:00:00 | 01:13:55 | 00:00:00 | |
| OE5DXL-15 | 2026-09-04 23:43:16 | 48.89260 | 10.44018 | 89° | 64km/h | 16595m | 4.2m/s | -56.2°C | 5.2% | 100.0hPa | 2.6V | 00:00:00 | 00:00:00 | 00:00:00 | |
| DO9HM | 2026-09-04 23:43:15 | 48.89260 | 10.44018 | 89° | 73km/h | 16595m | 4.2m/s | -56.3°C | 2.0% | 100.1hPa | 2.6V | 00:00:00 | 00:00:00 | 00:00:00 | |
| DM0DOS-11 | 2026-09-04 23:43:14 | 48.89259 | 10.43936 | 87° | 69km/h | 16580m | 4.6m/s | -56.2°C | 5.2% | 100.3hPa | 2.6V | 08:30:00 | 01:13:51 | 00:00:00 | |
| DO3MHA-11 | 2026-09-04 23:43:13 | 48.89258 | 10.43936 | 88° | 66km/h | 16580m | 4.5m/s | -56.2°C | 5.2% | 100.2hPa | 2.6V | 00:00:00 | 01:13:51 | 08:30:00 | |
| DK5PH-5 | 2026-09-04 23:43:12 | 48.89258 | 10.43910 | 89° | 62km/h | 16575m | 6.0m/s | -56.1°C | 5.2% | 100.3hPa | 2.6V | 00:00:00 | 01:13:50 | 00:00:00 | |
| OE5WHR-10 | 2026-09-04 23:43:09 | 48.89257 | 10.43828 | 88° | 62km/h | 16560m | 5.6m/s | 0°C | 0% | 0hPa | 2.7V | 00:00:00 | 00:00:00 | 00:00:00 | |
| DO3MHA-12 | 2026-09-04 23:43:08 | 48.89256 | 10.43802 | 87° | 64km/h | 16554m | 5.6m/s | -56.0°C | 5.1% | 100.7hPa | 2.7V | 00:00:00 | 01:13:46 | 00:00:00 | |
| DJ8HS-15 | 2026-09-04 23:43:05 | 48.89255 | 10.43726 | 93° | 60km/h | 16540m | 5.0m/s | -55.9°C | 5.1% | 100.9hPa | 2.7V | 00:00:00 | 01:13:43 | 08:30:00 | |
| DM0DOS-11 | 2026-09-04 23:43:04 | 48.89257 | 10.43677 | 95° | 62km/h | 16530m | 5.7m/s | -55.9°C | 5% | 101.1hPa | 2.6V | 08:30:00 | 01:13:41 | 00:00:00 | |
| DL1NUX | 2026-09-04 23:43:02 | 48.89260 | 10.43630 | 93° | 62km/h | 16520m | 3.7m/s | -55.8°C | 5% | 101.3hPa | 2.6V | 08:30:00 | 01:13:39 | 00:00:00 | |
| DF7PN | 2026-09-04 23:43:00 | 48.89261 | 10.43606 | 94° | 62km/h | 16516m | 4.1m/s | -55.8°C | 2.0% | 101.3hPa | 2.6V | 00:00:00 | 00:00:00 | 00:00:00 | |
| SONCRA | 2026-09-04 23:42:59 | 48.89263 | 10.43582 | 96° | 62km/h | 16512m | 5.3m/s | -55.8°C | 2.0% | 101.4hPa | 2.6V | 00:00:00 | 00:00:00 | 00:00:00 | |
| DO3MHA-12 | 2026-09-04 23:42:58 | 48.89264 | 10.43558 | 97° | 58km/h | 16506m | 4.8m/s | -55.8°C | 4.9% | 101.4hPa | 2.6V | 00:00:00 | 01:13:36 | 00:00:00 | |
| DM0DOS-11 | 2026-09-04 23:42:54 | 48.89271 | 10.43442 | 95° | 58km/h | 16482m | 5m/s | -56.3°C | 5.1% | 101.8hPa | 2.6V | 08:30:00 | 01:13:31 | 00:00:00 | |
| DL1NUX | 2026-09-04 23:42:52 | 48.89273 | 10.43398 | 93° | 57km/h | 16473m | 5.1m/s | -56.4°C | 5.2% | 102hPa | 2.7V | 08:30:00 | 01:13:29 | 00:00:00 | |
| DB0UT-7 | 2026-09-04 23:42:52 | 48.89272 | 10.43420 | 96° | 66km/h | 16478m | 3.9m/s | -56.3°C | 5.1% | 101.9hPa | 2.6V | 00:00:00 | 01:13:30 | 00:00:00 | |
| DO3MHA-11 | 2026-09-04 23:42:51 | 48.89273 | 10.43398 | 94° | 58km/h | 16474m | 5.0m/s | -56.3°C | 5.2% | 101.9hPa | 2.6V | 00:00:00 | 01:13:29 | 00:00:00 | |
| NBG1-10 | 2026-09-04 23:42:49 | 48.89274 | 10.43356 | 92° | 68km/h | 16464m | 3.7m/s | -56.4°C | 5.2% | 102.1hPa | 2.6V | 00:00:00 | 01:13:27 | 00:00:00 | |
| DM0DOS-11 | 2026-09-04 23:42:48 | 48.89283 | 10.43221 | 94° | 62km/h | 16438m | 3.1m/s | -57.2°C | 5.6% | 102.5hPa | 2.6V | 08:30:00 | 01:13:21 | 00:00:00 | |
| DO3MHA-12 | 2026-09-04 23:42:48 | 48.89275 | 10.43335 | 94° | 62km/h | 16460m | 4.9m/s | -56.5°C | 5.2% | 102.2hPa | 2.6V | 00:00:00 | 01:13:26 | 00:00:00 | |
| OE5WHR-10 | 2026-09-04 23:42:47 | 48.89276 | 10.43314 | 97° | 68km/h | 16455m | 4.8m/s | 0°C | 0% | 0hPa | 2.7V | 00:00:00 | 00:00:00 | 00:00:00 | |
| OE5DXL-15 | 2026-09-04 23:42:46 | 48.89278 | 10.43291 | 98° | 69km/h | 16450m | 4.0m/s | -56.8°C | 5.4% | 102.3hPa | 2.7V | 00:00:00 | 00:00:00 | 00:00:00 | |
| DJ8HS-15 | 2026-09-04 23:42:45 | 48.89280 | 10.43268 | 97° | 68km/h | 16446m | 5.0m/s | -57.0°C | 5.5% | 102.4hPa | 2.7V | 00:00:00 | 01:13:23 | 00:00:00 | |
| DL1NUX | 2026-09-04 23:42:42 | 48.89285 | 10.43173 | 96° | 64km/h | 16429m | 4.7m/s | -57.5°C | 5.7% | 102.7hPa | 2.7V | 08:30:00 | 01:13:19 | 00:00:00 | |
| DK5PH-5 | 2026-09-04 23:42:42 | 48.89284 | 10.43197 | 96° | 71km/h | 16434m | 4.7m/s | -57.3°C | 5.7% | 102.6hPa | 2.6V | 00:00:00 | 01:13:20 | 00:00:00 | |
| DL1ZP-14 | 2026-09-04 23:42:41 | 48.89287 | 10.43148 | 95° | 64km/h | 16424m | 4.4m/s | -57.6°C | 2.4% | 102.8hPa | 2.6V | 00:00:00 | 00:00:00 | 00:00:00 | |
| DF1GD-15 | 2026-09-04 23:42:39 | 48.89287 | 10.43148 | 97° | 66km/h | 16425m | 4.4m/s | -57.6°C | 2.4% | 102.8hPa | 2.6V | 00:00:00 | 00:00:00 | 00:00:00 | |
| DO3MHA-12 | 2026-09-04 23:42:38 | 48.89289 | 10.43097 | 93° | 68km/h | 16415m | 4.8m/s | -57.6°C | 5.8% | 102.9hPa | 2.6V | 00:00:00 | 01:13:16 | 00:00:00 | |
| DO9HM | 2026-09-04 23:42:35 | 48.89292 | 10.43022 | 96° | 64km/h | 16402m | 6.4m/s | -57.8°C | 2.4% | 103.2hPa | 2.6V | 00:00:00 | 00:00:00 | 00:00:00 | |
| DM0DOS-11 | 2026-09-04 23:42:33 | 48.89296 | 10.42973 | 98° | 64km/h | 16391m | 5.2m/s | -57.8°C | 5.8% | 103.3hPa | 2.6V | 08:30:00 | 01:13:11 | 00:00:00 | |
| DO3MHA-11 | 2026-09-04 23:42:31 | 48.89301 | 10.42923 | 98° | 75km/h | 16381m | 4.5m/s | -57.7°C | 5.7% | 103.4hPa | 2.6V | 00:00:00 | 01:13:09 | 00:00:00 | |
| OE5DRO-10 | 2026-09-04 23:42:30 | 48.89303 | 10.42896 | 98° | 75km/h | 16376m | 5.2m/s | -57.7°C | 5.7% | 103.5hPa | 2.6V | 00:00:00 | 00:00:00 | 00:00:00 | |
| DF7PN | 2026-09-04 23:42:29 | 48.89305 | 10.42868 | 97° | 75km/h | 16371m | 3.6m/s | -57.7°C | 2.4% | 103.7hPa | 2.6V | 00:00:00 | 00:00:00 | 00:00:00 | |
| DM0DOS-11 | 2026-09-04 23:42:28 | 48.89312 | 10.42690 | 93° | 77km/h | 16346m | 3.8m/s | -58°C | 5.9% | 104.1hPa | 2.6V | 08:30:00 | 01:13:01 | 00:00:00 | |
| DO3MHA-12 | 2026-09-04 23:42:28 | 48.89307 | 10.42839 | 96° | 75km/h | 16368m | 4.4m/s | -57.7°C | 5.7% | 103.7hPa | 2.6V | 00:00:00 | 01:13:06 | 00:00:00 | |
| DJ8HS-15 | 2026-09-04 23:42:25 | 48.89310 | 10.42749 | 93° | 77km/h | 16354m | 5.3m/s | -57.9°C | 5.8% | 103.9hPa | 2.6V | 00:00:00 | 01:13:03 | 00:00:00 | |
| OE5WHR-10 | 2026-09-04 23:42:24 | 48.89311 | 10.42719 | 94° | 75km/h | 16349m | 3.6m/s | 0°C | 0% | 0hPa | 2.6V | 00:00:00 | 01:13:02 | 00:00:00 | |
| DB0UT-7 | 2026-09-04 23:42:22 | 48.89314 | 10.42661 | 94° | 75km/h | 16341m | 4.8m/s | -58.0°C | 5.8% | 104.1hPa | 2.6V | 00:00:00 | 00:00:00 | 00:00:00 | |
| DL1NUX | 2026-09-04 23:42:21 | 48.89325 | 10.42495 | 96° | 77km/h | 16316m | 4.5m/s | -58.2°C | 5.9% | 104.6hPa | 2.6V | 08:30:00 | 01:12:54 | 00:00:00 | |
| DO3MHA-11 | 2026-09-04 23:42:21 | 48.89314 | 10.42633 | 94° | 75km/h | 16337m | 3.8m/s | -58.0°C | 5.8% | 104.2hPa | 2.6V | 00:00:00 | 01:12:59 | 00:00:00 | |
| AZAK | 2026-09-04 23:42:20 | 48.89314 | 10.42633 | 94° | 71km/h | 16337m | 3.9m/s | -58.0°C | 2.4% | 104.3hPa | 2.6V | 00:00:00 | 00:00:00 | 00:00:00 | |
| DF1GD-15 | 2026-09-04 23:42:19 | 48.89316 | 10.42606 | 95° | 69km/h | 16333m | 3.8m/s | -58.0°C | 2.5% | 104.3hPa | 2.6V | 00:00:00 | 00:00:00 | 00:00:00 | |
| DM0DOS-11 | 2026-09-04 23:42:18 | 48.89330 | 10.42375 | 93° | 80km/h | 16299m | 3.5m/s | -58.2°C | 5.9% | 104.8hPa | 2.6V | 08:30:00 | 01:12:50 | 00:00:00 | |
| DO3MHA-12 | 2026-09-04 23:42:18 | 48.89320 | 10.42552 | 99° | 77km/h | 16324m | 4.0m/s | -58.2°C | 5.9% | 104.4hPa | 2.6V | 00:00:00 | 01:12:56 | 00:00:00 | |
| DB0NH | 2026-09-04 23:42:17 | 48.89322 | 10.42523 | 98° | 77km/h | 16321m | 3.1m/s | -58.2°C | 5.9% | 104.5hPa | 2.6V | 00:00:00 | 01:12:55 | 00:00:00 | |
| OE5DXL-15 | 2026-09-04 23:42:16 | 48.89325 | 10.42495 | 97° | 77km/h | 16317m | 4.5m/s | -58.2°C | 5.9% | 104.5hPa | 2.6V | 00:00:00 | 01:12:54 | 08:30:00 | |
| DO9HM | 2026-09-04 23:42:13 | 48.89327 | 10.42436 | 94° | 78km/h | 16308m | 3.7m/s | -58.2°C | 2.5% | 104.7hPa | 2.6V | 00:00:00 | 00:00:00 | 00:00:00 | |
| DK5PH-5 | 2026-09-04 23:42:12 | 48.89330 | 10.42375 | 94° | 77km/h | 16300m | 3.4m/s | -58.2°C | 5.9% | 104.8hPa | 2.6V | 00:00:00 | 01:12:50 | 00:00:00 | |
| DO3MHA-11 | 2026-09-04 23:42:11 | 48.89330 | 10.42345 | 92° | 75km/h | 16296m | 3.5m/s | -58.2°C | 5.9% | 104.8hPa | 2.6V | 00:00:00 | 01:12:49 | 00:00:00 | |
| DL1NUX | 2026-09-04 23:42:10 | 48.89337 | 10.42169 | 95° | 73km/h | 16273m | 4.1m/s | -58.8°C | 6.2% | 105.3hPa | 2.6V | 08:30:00 | 01:12:43 | 00:00:00 | |
| DL1ZP-14 | 2026-09-04 23:42:10 | 48.89331 | 10.42284 | 91° | 77km/h | 16289m | 3.6m/s | -58.3°C | 2.4% | 105.0hPa | 2.7V | 00:00:00 | 00:00:00 | 00:00:00 | |
| OE5DRO-10 | 2026-09-04 23:42:09 | 48.89331 | 10.42284 | 92° | 75km/h | 16289m | 3.6m/s | -58.2°C | 5.8% | 105.0hPa | 2.7V | 00:00:00 | 00:00:00 | 00:00:00 | |
| DM0DOS-11 | 2026-09-04 23:42:07 | 48.89344 | 10.42086 | 99° | 73km/h | 16261m | 3.8m/s | -59°C | 6.3% | 105.5hPa | 2.6V | 08:30:00 | 01:12:40 | 00:00:00 | |
| DJ8HS-15 | 2026-09-04 23:42:05 | 48.89337 | 10.42169 | 96° | 77km/h | 16273m | 4.1m/s | -58.7°C | 6.2% | 105.2hPa | 2.6V | 00:00:00 | 01:12:43 | 00:00:00 | |
| DB0ND-19 | 2026-09-04 23:42:04 | 48.89341 | 10.42114 | 98° | 71km/h | 16266m | 4.2m/s | -58.9°C | 2.6% | 105.4hPa | 2.6V | 00:00:00 | 00:00:00 | 00:00:00 | |
| DC4HF-4 | 2026-09-04 23:42:03 | 48.89365 | 10.41796 | 95° | 75km/h | 16226m | 4.2m/s | -59.2°C | 2.7% | 106.0hPa | 2.6V | 00:00:00 | 00:00:00 | 00:00:00 | |
| DO3MHA-11 | 2026-09-04 23:42:01 | 48.89347 | 10.42058 | 100° | 77km/h | 16258m | 3.3m/s | -59.0°C | 6.3% | 105.5hPa | 2.6V | 00:00:00 | 01:12:39 | 00:00:00 | |
| AZAK | 2026-09-04 23:42:00 | 48.89347 | 10.42058 | 100° | 75km/h | 16258m | 3.3m/s | -59.0°C | 2.6% | 105.5hPa | 2.6V | 00:00:00 | 00:00:00 | 00:00:00 | |
| DO3MHA-12 | 2026-09-04 23:41:58 | 48.89354 | 10.41973 | 97° | 77km/h | 16247m | 3.9m/s | -59.0°C | 6.3% | 105.6hPa | 2.6V | 00:00:00 | 01:12:36 | 00:00:00 | |
| DM0DOS-11 | 2026-09-04 23:41:57 | 48.89365 | 10.41796 | 95° | 75km/h | 16226m | 4.2m/s | -59.2°C | 6.4% | 106hPa | 2.6V | 08:30:00 | 01:12:30 | 00:00:00 | |
| SONDE2-11 | 2026-09-04 23:41:57 | 48.89357 | 10.41943 | 96° | 78km/h | 16243m | 3.7m/s | 0°C | -1.0% | -1.0hPa | 2.6V | 00:00:00 | 00:00:00 | 00:00:00 | |
| DB0UT-7 | 2026-09-04 23:41:52 | 48.89365 | 10.41796 | 96° | 77km/h | 16226m | 4.2m/s | -59.1°C | 6.4% | 106.0hPa | 2.6V | 00:00:00 | 01:12:30 | 08:30:00 | |
| DO3MHA-11 | 2026-09-04 23:41:51 | 48.89367 | 10.41767 | 96° | 78km/h | 16223m | 2.6m/s | -59.1°C | 6.4% | 106.1hPa | 2.7V | 00:00:00 | 01:12:29 | 00:00:00 | |
| OE5DRO-10 | 2026-09-04 23:41:50 | 48.89369 | 10.41737 | 95° | 75km/h | 16220m | 3.8m/s | -59.1°C | 6.4% | 106.2hPa | 2.7V | 00:00:00 | 00:00:00 | 00:00:00 | |
| DO3MHA-12 | 2026-09-04 23:41:48 | 48.89371 | 10.41677 | 93° | 77km/h | 16212m | 2.1m/s | -59.1°C | 6.4% | 106.3hPa | 2.7V | 00:00:00 | 01:12:26 | 08:30:00 | |
| DM0DOS-11 | 2026-09-04 23:41:47 | 48.89376 | 10.41494 | 91° | 77km/h | 16194m | 2.6m/s | -59.2°C | 6.4% | 106.6hPa | 2.6V | 08:30:00 | 01:12:20 | 00:00:00 | |
| DF3TZ-5 | 2026-09-04 23:41:46 | 48.89374 | 10.41585 | 93° | 78km/h | 16203m | 2.6m/s | -59.1°C | 2.7% | 106.5hPa | 2.6V | 00:00:00 | 00:00:00 | 00:00:00 | |
| DJ8HS-15 | 2026-09-04 23:41:45 | 48.89374 | 10.41585 | 94° | 75km/h | 16203m | 2.6m/s | -59.1°C | 6.4% | 106.4hPa | 2.6V | 00:00:00 | 01:12:23 | 00:00:00 | |
| NBG1-10 | 2026-09-04 23:41:43 | 48.89376 | 10.41524 | 92° | 77km/h | 16197m | 3.5m/s | -59.1°C | 6.4% | 106.6hPa | 2.6V | 00:00:00 | 01:12:21 | 00:00:00 | |
| AZAK | 2026-09-04 23:41:42 | 48.89377 | 10.41465 | 94° | 75km/h | 16191m | 3.6m/s | -59.1°C | 2.7% | 106.7hPa | 2.6V | 00:00:00 | 00:00:00 | 00:00:00 | |
| DO3MHA-11 | 2026-09-04 23:41:41 | 48.89377 | 10.41465 | 93° | 71km/h | 16191m | 3.5m/s | -59.1°C | 6.3% | 106.6hPa | 2.6V | 00:00:00 | 01:12:19 | 08:30:00 | |
| DL1ZP-14 | 2026-09-04 23:41:39 | 48.89381 | 10.41384 | 93° | 68km/h | 16180m | 4.0m/s | -59.1°C | 2.6% | 106.8hPa | 2.7V | 00:00:00 | 00:00:00 | 00:00:00 | |
| DO3MHA-12 | 2026-09-04 23:41:38 | 48.89381 | 10.41384 | 94° | 73km/h | 16180m | 4.0m/s | -59.1°C | 6.3% | 106.8hPa | 2.6V | 00:00:00 | 01:12:16 | 00:00:00 | |
| DF1GD-15 | 2026-09-04 23:41:37 | 48.89380 | 10.41384 | 94° | 69km/h | 16180m | 4.0m/s | -59.1°C | 2.7% | 106.8hPa | 2.6V | 00:00:00 | 00:00:00 | 00:00:00 | |
| DM0DOS-11 | 2026-09-04 23:41:32 | 48.89384 | 10.41219 | 90° | 75km/h | 16160m | 4.4m/s | -59.1°C | 6.3% | 107.2hPa | 2.6V | 08:30:00 | 01:12:10 | 00:00:00 | |
| DL6DJ-15 | 2026-09-04 23:41:32 | 48.89384 | 10.41219 | 90° | 75km/h | 16160m | 4.4m/s | -59.1°C | 2.6% | 107.2hPa | 2.6V | 00:00:00 | 00:00:00 | 00:00:00 | |
| DO3MHA-11 | 2026-09-04 23:41:31 | 48.89384 | 10.41190 | 91° | 78km/h | 16156m | 3.2m/s | -59.1°C | 6.4% | 107.2hPa | 2.6V | 00:00:00 | 01:12:09 | 00:00:00 | |
| OE5WHR-10 | 2026-09-04 23:41:30 | 48.89384 | 10.41160 | 92° | 75km/h | 16153m | 4.0m/s | 0°C | 0% | 0hPa | 2.6V | 00:00:00 | 00:00:00 | 00:00:00 | |
| DO3MHA-12 | 2026-09-04 23:41:28 | 48.89385 | 10.41100 | 93° | 77km/h | 16146m | 2.6m/s | -59.0°C | 6.4% | 107.4hPa | 2.6V | 00:00:00 | 01:12:06 | 00:00:00 | |
| DM0DOS-11 | 2026-09-04 23:41:27 | 48.89389 | 10.40919 | 92° | 73km/h | 16126m | 2.8m/s | -58.9°C | 6.3% | 107.8hPa | 2.6V | 08:30:00 | 01:12:00 | 00:00:00 | |
| DF7PN | 2026-09-04 23:41:27 | 48.89386 | 10.41069 | 91° | 80km/h | 16142m | 4.2m/s | -59.0°C | 2.7% | 107.5hPa | 2.7V | 00:00:00 | 00:00:00 | 00:00:00 | |
| DJ8HS-15 | 2026-09-04 23:41:25 | 48.89387 | 10.41007 | 92° | 77km/h | 16136m | 2.4m/s | -58.9°C | 6.3% | 107.6hPa | 2.7V | 00:00:00 | 01:12:03 | 00:00:00 | |
| DB0UT-7 | 2026-09-04 23:41:22 | 48.89389 | 10.40919 | 93° | 75km/h | 16126m | 2.7m/s | -58.9°C | 6.3% | 107.7hPa | 2.7V | 00:00:00 | 00:00:00 | 00:00:00 | |
| DO3MHA-11 | 2026-09-04 23:41:21 | 48.89390 | 10.40891 | 91° | 77km/h | 16123m | 4.2m/s | -58.9°C | 6.2% | 107.8hPa | 2.7V | 00:00:00 | 01:11:59 | 00:00:00 | |
| AZAK | 2026-09-04 23:41:20 | 48.89390 | 10.40891 | 92° | 73km/h | 16123m | 4.3m/s | -58.9°C | 2.6% | 107.8hPa | 2.7V | 00:00:00 | 00:00:00 | 00:00:00 | |
| DO3MHA-12 | 2026-09-04 23:41:18 | 48.89389 | 10.40807 | 89° | 78km/h | 16112m | 3.8m/s | -59.2°C | 6.4% | 108.0hPa | 2.7V | 00:00:00 | 01:11:56 | 00:00:00 | |
| DM0DOS-11 | 2026-09-04 23:41:17 | 48.89390 | 10.40626 | 94° | 78km/h | 16091m | 3.1m/s | -59.2°C | 6.4% | 108.4hPa | 2.6V | 08:30:00 | 01:11:50 | 00:00:00 | |
| DB0NH | 2026-09-04 23:41:17 | 48.89388 | 10.40778 | 89° | 75km/h | 16108m | 3.2m/s | -59.2°C | 6.4% | 108.1hPa | 2.6V | 00:00:00 | 01:11:55 | 00:00:00 | |
| OE5DXL-15 | 2026-09-04 23:41:16 | 48.89388 | 10.40749 | 89° | 75km/h | 16104m | 4.1m/s | -59.2°C | 6.5% | 108.1hPa | 2.6V | 00:00:00 | 00:00:00 | 00:00:00 | |
| DF3TZ-5 | 2026-09-04 23:41:15 | 48.89388 | 10.40687 | 90° | 80km/h | 16099m | 2.9m/s | -59.2°C | 2.7% | 108.2hPa | 2.6V | 00:00:00 | 00:00:00 | 00:00:00 | |
| HARRO8 | 2026-09-04 23:41:14 | 48.89388 | 10.40687 | 90° | 80km/h | 16099m | 2.9m/s | -59.2°C | 2.7% | 108.2hPa | 2.6V | 00:00:00 | 00:00:00 | 00:00:00 | |
| DK5PH-5 | 2026-09-04 23:41:12 | 48.89390 | 10.40626 | 95° | 75km/h | 16092m | 3.1m/s | -59.1°C | 6.4% | 108.4hPa | 2.6V | 00:00:00 | 01:11:50 | 00:00:00 | |
| DO3MHA-11 | 2026-09-04 23:41:11 | 48.89391 | 10.40596 | 95° | 77km/h | 16089m | 3.1m/s | -59.1°C | 6.4% | 108.4hPa | 2.6V | 00:00:00 | 01:11:49 | 00:00:00 | |
| NBG1-10 | 2026-09-04 23:41:10 | 48.89393 | 10.40566 | 95° | 73km/h | 16085m | 3.7m/s | -59.1°C | 6.4% | 108.5hPa | 2.6V | 00:00:00 | 01:11:48 | 00:00:00 | |
| OE5WHR-10 | 2026-09-04 23:41:09 | 48.89395 | 10.40536 | 96° | 73km/h | 16082m | 2.6m/s | 0°C | 0% | 0hPa | 2.6V | 00:00:00 | 01:11:47 | 00:00:00 | |
| DO3MHA-12 | 2026-09-04 23:41:08 | 48.89397 | 10.40505 | 97° | 75km/h | 16079m | 3.1m/s | -59.1°C | 6.5% | 108.5hPa | 2.6V | 00:00:00 | 01:11:46 | 00:00:00 | |
| DM0DOS-11 | 2026-09-04 23:41:07 | 48.89402 | 10.40333 | 88° | 73km/h | 16058m | 4.8m/s | -59.1°C | 6.5% | 109hPa | 2.6V | 08:30:00 | 01:11:40 | 00:00:00 | |
| BIOWL1-15 | 2026-09-04 23:40:59 | 48.89397 | 10.40138 | 91° | 71km/h | 16032m | 3.2m/s | -59.2°C | 3.1% | 109.4hPa | 2.6V | 18:12:15 | 01:11:33 | 00:00:00 | |
| DO3MHA-12 | 2026-09-04 23:40:58 | 48.89398 | 10.40221 | 87° | 71km/h | 16043m | 3.2m/s | -59.2°C | 6.6% | 109.2hPa | 2.6V | 00:00:00 | 01:11:36 | 00:00:00 | |
| DF1GD-15 | 2026-09-04 23:40:57 | 48.89398 | 10.40221 | 88° | 73km/h | 16043m | 3.3m/s | -59.3°C | 2.9% | 109.2hPa | 2.6V | 00:00:00 | 00:00:00 | 00:00:00 | |
| DM0DOS-11 | 2026-09-04 23:40:56 | 48.89396 | 10.40057 | 88° | 69km/h | 16021m | 3.7m/s | -59.2°C | 6.5% | 109.6hPa | 2.6V | 08:30:00 | 01:11:30 | 00:00:00 | |
| SONDE2-11 | 2026-09-04 23:40:56 | 48.89396 | 10.40057 | 88° | 68km/h | 16021m | 3.7m/s | 0°C | -1.0% | -1.0hPa | 2.7V | 00:00:00 | 00:00:00 | 00:00:00 | |
| DC4HF-4 | 2026-09-04 23:40:50 | 48.89395 | 10.40004 | 89° | 69km/h | 16013m | 3.3m/s | -59.1°C | 2.8% | 109.7hPa | 2.7V | 00:00:00 | 00:00:00 | 00:00:00 | |
| DL1NUX | 2026-09-04 23:40:49 | 48.89392 | 10.39835 | 89° | 77km/h | 15990m | 4.4m/s | -59.1°C | 6.3% | 110.2hPa | 2.7V | 08:30:00 | 01:11:22 | 00:00:00 | |
| OE5WHR-10 | 2026-09-04 23:40:48 | 48.89394 | 10.39950 | 87° | 73km/h | 16005m | 3.5m/s | 0°C | 0% | 0hPa | 2.6V | 00:00:00 | 00:00:00 | 00:00:00 | |
| DB0NH | 2026-09-04 23:40:47 | 48.89393 | 10.39921 | 88° | 71km/h | 16002m | 3.3m/s | -59.1°C | 6.3% | 109.9hPa | 2.6V | 00:00:00 | 01:11:25 | 00:00:00 | |
| OE5DXL-15 | 2026-09-04 23:40:46 | 48.89392 | 10.39893 | 89° | 71km/h | 15998m | 4.5m/s | -59.0°C | 6.3% | 110.0hPa | 2.6V | 00:00:00 | 00:00:00 | 00:00:00 | |
| DM0DOS-11 | 2026-09-04 23:40:45 | 48.89391 | 10.39777 | 88° | 75km/h | 15982m | 3.8m/s | -59.2°C | 6.4% | 110.3hPa | 2.6V | 08:30:00 | 01:11:20 | 00:00:00 | |
| BIOWL1-15 | 2026-09-04 23:40:45 | 48.89391 | 10.39806 | 89° | 77km/h | 15986m | 3.9m/s | -59.1°C | 3.1% | 110.2hPa | 2.7V | 18:12:15 | 01:11:21 | 00:00:00 | |
| BIOWL1-15 | 2026-09-04 23:40:36 | 48.89379 | 10.39557 | 85° | 71km/h | 15951m | 3.4m/s | -59.4°C | 3.2% | 110.9hPa | 2.7V | 18:12:15 | 01:11:12 | 00:00:00 | |
| DM0DOS-11 | 2026-09-04 23:40:35 | 48.89376 | 10.39502 | 84° | 73km/h | 15944m | 4.6m/s | -59.4°C | 6.6% | 111hPa | 2.6V | 08:30:00 | 01:11:10 | 00:00:00 | |
| OE5DRO-10 | 2026-09-04 23:40:34 | 48.89379 | 10.39557 | 85° | 69km/h | 15952m | 3.4m/s | -59.4°C | 6.7% | 110.8hPa | 2.6V | 00:00:00 | 00:00:00 | 00:00:00 | |
| DO9HM | 2026-09-04 23:40:31 | 48.89371 | 10.39447 | 82° | 71km/h | 15935m | 4.2m/s | -59.3°C | 2.9% | 111.1hPa | 2.6V | 00:00:00 | 00:00:00 | 00:00:00 | |
| DL6DJ-15 | 2026-09-04 23:40:30 | 48.89371 | 10.39448 | 80° | 71km/h | 15935m | 4.2m/s | -59.3°C | 2.9% | 111.1hPa | 2.6V | 00:00:00 | 00:00:00 | 00:00:00 | |
| DM7RM-13 | 2026-09-04 23:40:29 | 48.89371 | 10.39447 | 82° | 71km/h | 15935m | 4.2m/s | -59.3°C | 2.9% | 111.1hPa | 2.6V | 00:00:00 | 00:00:00 | 00:00:00 | |
| DO3MHA-12 | 2026-09-04 23:40:28 | 48.89366 | 10.39394 | 83° | 68km/h | 15927m | 4.3m/s | -59.2°C | 6.6% | 111.3hPa | 2.6V | 00:00:00 | 01:11:06 | 00:00:00 | |
| DM0DOS-11 | 2026-09-04 23:40:25 | 48.89353 | 10.39242 | 85° | 66km/h | 15900m | 3.5m/s | -59.2°C | 6.4% | 111.8hPa | 2.6V | 08:30:00 | 01:11:00 | 00:00:00 | |
| BIOWL1-15 | 2026-09-04 23:40:22 | 48.89328 | 10.38893 | 82° | 68km/h | 15845m | 4.9m/s | -59.1°C | 3.1% | 112.8hPa | 2.7V | 18:12:15 | 01:10:47 | 00:00:00 | |
| DB0UT-7 | 2026-09-04 23:40:22 | 48.89353 | 10.39242 | 86° | 69km/h | 15901m | 3.5m/s | -59.1°C | 6.4% | 111.8hPa | 2.6V | 00:00:00 | 00:00:00 | 00:00:00 | |
| DO3MHA-11 | 2026-09-04 23:40:21 | 48.89352 | 10.39216 | 85° | 71km/h | 15896m | 4.9m/s | -59.1°C | 6.4% | 111.8hPa | 2.7V | 00:00:00 | 01:10:59 | 00:00:00 | |
| AZAK | 2026-09-04 23:40:20 | 48.89350 | 10.39190 | 84° | 71km/h | 15892m | 4.2m/s | -59.1°C | 2.7% | 111.9hPa | 2.7V | 00:00:00 | 00:00:00 | 00:00:00 | |
| DO3MHA-12 | 2026-09-04 23:40:18 | 48.89345 | 10.39135 | 84° | 71km/h | 15883m | 5.4m/s | -59.0°C | 6.4% | 112.1hPa | 2.7V | 00:00:00 | 01:10:56 | 08:30:00 | |
| DB0NH | 2026-09-04 23:40:17 | 48.89343 | 10.39108 | 84° | 71km/h | 15878m | 4.3m/s | -59.0°C | 6.5% | 112.1hPa | 2.6V | 00:00:00 | 01:10:55 | 00:00:00 | |
| OE5DXL-15 | 2026-09-04 23:40:16 | 48.89342 | 10.39081 | 85° | 71km/h | 15874m | 3.0m/s | -59.0°C | 6.5% | 112.2hPa | 2.6V | 00:00:00 | 00:00:00 | 00:00:00 | |
| DC4HF-4 | 2026-09-04 23:40:15 | 48.89333 | 10.38973 | 84° | 69km/h | 15857m | 5.1m/s | -59.0°C | 2.8% | 112.6hPa | 2.6V | 00:00:00 | 00:00:00 | 00:00:00 | |
| DM0DOS-11 | 2026-09-04 23:40:15 | 48.89333 | 10.38973 | 84° | 71km/h | 15857m | 5.1m/s | -59°C | 6.5% | 112.6hPa | 2.6V | 08:30:00 | 01:10:50 | 00:00:00 | |
| DK5PH-5 | 2026-09-04 23:40:12 | 48.89333 | 10.38973 | 85° | 71km/h | 15858m | 5.1m/s | -58.9°C | 6.5% | 112.5hPa | 2.6V | 00:00:00 | 01:10:50 | 00:00:00 | |
| DO3MHA-11 | 2026-09-04 23:40:11 | 48.89332 | 10.38946 | 85° | 68km/h | 15853m | 3.2m/s | -59.0°C | 6.6% | 112.6hPa | 2.6V | 00:00:00 | 01:10:49 | 08:30:00 | |
| DO9HM | 2026-09-04 23:40:09 | 48.89328 | 10.38893 | 83° | 68km/h | 15845m | 4.9m/s | -59.1°C | 2.9% | 112.8hPa | 2.6V | 00:00:00 | 00:00:00 | 00:00:00 | |
| DO3MHA-12 | 2026-09-04 23:40:08 | 48.89325 | 10.38867 | 82° | 68km/h | 15840m | 3.7m/s | -59.0°C | 6.5% | 112.8hPa | 2.6V | 00:00:00 | 01:10:46 | 00:00:00 | |
| DJ8HS-15 | 2026-09-04 23:40:05 | 48.89319 | 10.38792 | 84° | 71km/h | 15828m | 4.1m/s | -59.0°C | 6.4% | 113.1hPa | 2.6V | 00:00:00 | 01:10:43 | 08:30:00 | |
| DM0DOS-11 | 2026-09-04 23:40:04 | 48.89312 | 10.38718 | 81° | 66km/h | 15815m | 4m/s | -59°C | 6.3% | 113.3hPa | 2.6V | 08:30:00 | 01:10:40 | 00:00:00 | |
| BIOWL1-15 | 2026-09-04 23:40:00 | 48.89303 | 10.38500 | 90° | 73km/h | 15776m | 4.5m/s | -58.9°C | 3.1% | 114hPa | 2.7V | 18:12:15 | 01:10:32 | 00:00:00 | |
| AZAK | 2026-09-04 23:39:59 | 48.89306 | 10.38640 | 88° | 71km/h | 15801m | 4.7m/s | -58.9°C | 2.7% | 113.6hPa | 2.6V | 00:00:00 | 00:00:00 | 00:00:00 | |
| DO3MHA-12 | 2026-09-04 23:39:58 | 48.89306 | 10.38612 | 88° | 73km/h | 15797m | 4.4m/s | -58.9°C | 6.4% | 113.6hPa | 2.6V | 00:00:00 | 01:10:36 | 00:00:00 | |
| OE5DRO-10 | 2026-09-04 23:39:56 | 48.89304 | 10.38556 | 88° | 75km/h | 15787m | 4.7m/s | -58.9°C | 6.4% | 113.7hPa | 2.6V | 00:00:00 | 00:00:00 | 00:00:00 | |
| DM0DOS-11 | 2026-09-04 23:39:54 | 48.89302 | 10.38444 | 87° | 73km/h | 15767m | 5.2m/s | -58.9°C | 6.4% | 114.2hPa | 2.6V | 08:30:00 | 01:10:30 | 00:00:00 | |
| BIOWL1-15 | 2026-09-04 23:39:50 | 48.89301 | 10.38388 | 88° | 73km/h | 15758m | 4.8m/s | -59°C | 3.1% | 114.3hPa | 2.6V | 18:12:15 | 01:10:28 | 00:00:00 | |
| DO9HM | 2026-09-04 23:39:49 | 48.89301 | 10.38360 | 91° | 75km/h | 15754m | 5.3m/s | -59.1°C | 2.8% | 114.4hPa | 2.7V | 00:00:00 | 00:00:00 | 00:00:00 | |
| DO3MHA-12 | 2026-09-04 23:39:48 | 48.89301 | 10.38330 | 91° | 77km/h | 15749m | 4.7m/s | -59.1°C | 6.6% | 114.5hPa | 2.7V | 00:00:00 | 01:10:26 | 00:00:00 | |
| DB0NH | 2026-09-04 23:39:47 | 48.89301 | 10.38301 | 90° | 78km/h | 15744m | 4.6m/s | -59.1°C | 6.6% | 114.6hPa | 2.6V | 00:00:00 | 01:10:25 | 00:00:00 | |
| OE5DXL-15 | 2026-09-04 23:39:46 | 48.89300 | 10.38271 | 89° | 78km/h | 15739m | 5.0m/s | -59.1°C | 6.6% | 114.7hPa | 2.6V | 00:00:00 | 00:00:00 | 00:00:00 | |
| DJ8HS-15 | 2026-09-04 23:39:45 | 48.89300 | 10.38242 | 89° | 77km/h | 15735m | 4.2m/s | -59.1°C | 6.7% | 114.7hPa | 2.6V | 00:00:00 | 01:10:23 | 00:00:00 | |
| DM0DOS-11 | 2026-09-04 23:39:44 | 48.89302 | 10.38154 | 95° | 77km/h | 15720m | 3.8m/s | -59.3°C | 6.7% | 115hPa | 2.6V | 08:30:00 | 01:10:20 | 00:00:00 | |
| BIOWL1-15 | 2026-09-04 23:39:40 | 48.89312 | 10.38011 | 96° | 75km/h | 15698m | 4.7m/s | -59.4°C | 3.3% | 115.5hPa | 2.6V | 18:12:15 | 01:10:15 | 00:00:00 | |
| AZAK | 2026-09-04 23:39:40 | 48.89308 | 10.38068 | 97° | 75km/h | 15707m | 4.0m/s | -59.4°C | 3.0% | 115.3hPa | 2.6V | 00:00:00 | 00:00:00 | 00:00:00 | |
| DO3MHA-12 | 2026-09-04 23:39:38 | 48.89310 | 10.38039 | 98° | 77km/h | 15702m | 5.1m/s | -59.4°C | 6.7% | 115.3hPa | 2.6V | 00:00:00 | 01:10:16 | 00:00:00 | |
| OE5DRO-10 | 2026-09-04 23:39:37 | 48.89312 | 10.38010 | 97° | 80km/h | 15698m | 4.6m/s | -59.4°C | 6.7% | 115.4hPa | 2.6V | 00:00:00 | 00:00:00 | 00:00:00 | |
| DF1GD-15 | 2026-09-04 23:39:36 | 48.89312 | 10.38010 | 97° | 75km/h | 15698m | 4.7m/s | -59.4°C | 3.0% | 115.5hPa | 2.6V | 00:00:00 | 00:00:00 | 00:00:00 | |
| DM0DOS-11 | 2026-09-04 23:39:34 | 48.89316 | 10.37868 | 91° | 78km/h | 15674m | 4.5m/s | -59.3°C | 6.7% | 115.9hPa | 2.6V | 08:30:00 | 01:10:10 | 00:00:00 | |
| BIOWL1-15 | 2026-09-04 23:39:29 | 48.89317 | 10.37746 | 91° | 80km/h | 15655m | 4.4m/s | -59.2°C | 3.2% | 116.2hPa | 2.7V | 18:12:15 | 01:10:06 | 00:00:00 | |
| DO9HM | 2026-09-04 23:39:28 | 48.89317 | 10.37746 | 92° | 80km/h | 15655m | 4.4m/s | -59.2°C | 2.9% | 116.2hPa | 2.6V | 00:00:00 | 00:00:00 | 00:00:00 | |
| DM7RM-13 | 2026-09-04 23:39:27 | 48.89317 | 10.37746 | 92° | 80km/h | 15655m | 4.4m/s | -59.2°C | 2.9% | 116.2hPa | 2.6V | 00:00:00 | 00:00:00 | 00:00:00 | |
| DJ8HS-15 | 2026-09-04 23:39:25 | 48.89319 | 10.37653 | 92° | 84km/h | 15640m | 5.8m/s | -59.1°C | 6.5% | 116.4hPa | 2.6V | 00:00:00 | 01:10:03 | 00:00:00 | |
| DM0DOS-11 | 2026-09-04 23:39:24 | 48.89321 | 10.37561 | 92° | 82km/h | 15624m | 5m/s | -59.2°C | 6.7% | 116.8hPa | 2.6V | 08:30:00 | 01:10:00 | 00:00:00 | |
| DL1NUX | 2026-09-04 23:39:22 | 48.89322 | 10.37529 | 92° | 82km/h | 15620m | 4.5m/s | -59.3°C | 6.7% | 116.9hPa | 2.6V | 08:30:00 | 01:09:59 | 00:00:00 | |
| DB0UT-7 | 2026-09-04 23:39:22 | 48.89321 | 10.37561 | 93° | 86km/h | 15625m | 4.9m/s | -59.2°C | 6.7% | 116.8hPa | 2.6V | 00:00:00 | 00:00:00 | 00:00:00 | |
| AZAK | 2026-09-04 23:39:21 | 48.89323 | 10.37467 | 91° | 82km/h | 15610m | 4.7m/s | -59.3°C | 2.9% | 117.1hPa | 2.6V | 00:00:00 | 00:00:00 | 00:00:00 | |
| DB0NH | 2026-09-04 23:39:18 | 48.89323 | 10.37402 | 91° | 88km/h | 15601m | 5.7m/s | -59.2°C | 6.6% | 117.2hPa | 2.6V | 00:00:00 | 01:09:55 | 00:00:00 | |
| OE5DXL-15 | 2026-09-04 23:39:16 | 48.89324 | 10.37369 | 91° | 88km/h | 15595m | 4.9m/s | -59.1°C | 6.6% | 117.3hPa | 2.6V | 00:00:00 | 00:00:00 | 00:00:00 | |
| DM0DOS-11 | 2026-09-04 23:39:13 | 48.89324 | 10.37235 | 90° | 88km/h | 15575m | 5.2m/s | -59°C | 6.5% | 117.7hPa | 2.6V | 08:30:00 | 01:09:50 | 00:00:00 | |
| BIOWL1-15 | 2026-09-04 23:39:10 | 48.89324 | 10.37169 | 90° | 86km/h | 15565m | 5.7m/s | -59°C | 3.2% | 117.9hPa | 2.6V | 18:12:15 | 01:09:48 | 00:00:00 | |
| HARRO8 | 2026-09-04 23:39:10 | 48.89324 | 10.37136 | 89° | 84km/h | 15560m | 4.7m/s | -59.0°C | 2.9% | 118.0hPa | 2.6V | 00:00:00 | 00:00:00 | 00:00:00 | |
| DO3MHA-12 | 2026-09-04 23:39:08 | 48.89324 | 10.37103 | 90° | 86km/h | 15556m | 3.7m/s | -59.0°C | 6.6% | 118.0hPa | 2.6V | 00:00:00 | 01:09:46 | 00:00:00 | |
| DM0DOS-11 | 2026-09-04 23:39:07 | 48.89330 | 10.36906 | 93° | 88km/h | 15526m | 5.5m/s | -58.9°C | 6.5% | 118.6hPa | 2.6V | 08:30:00 | 01:09:40 | 00:00:00 | |
| DM7RM-13 | 2026-09-04 23:39:06 | 48.89324 | 10.37071 | 92° | 86km/h | 15552m | 5.3m/s | -59.0°C | 2.9% | 118.2hPa | 2.6V | 00:00:00 | 00:00:00 | 00:00:00 | |
| DJ8HS-15 | 2026-09-04 23:39:05 | 48.89326 | 10.37005 | 94° | 88km/h | 15541m | 5.1m/s | -58.9°C | 6.5% | 118.3hPa | 2.6V | 00:00:00 | 01:09:43 | 00:00:00 | |
| DL1ZP-14 | 2026-09-04 23:39:04 | 48.89329 | 10.36939 | 92° | 86km/h | 15531m | 4.5m/s | -58.9°C | 2.9% | 118.6hPa | 2.7V | 00:00:00 | 00:00:00 | 00:00:00 | |
| DC4HF-4 | 2026-09-04 23:39:02 | 48.89330 | 10.36906 | 93° | 86km/h | 15526m | 5.5m/s | -58.9°C | 2.8% | 118.6hPa | 2.7V | 00:00:00 | 00:00:00 | 00:00:00 | |
| DO3MHA-11 | 2026-09-04 23:39:01 | 48.89331 | 10.36873 | 94° | 89km/h | 15521m | 5.0m/s | -58.9°C | 6.5% | 118.7hPa | 2.7V | 00:00:00 | 01:09:39 | 00:00:00 | |
| DL1NUX | 2026-09-04 23:38:59 | 48.89328 | 10.36634 | 89° | 89km/h | 15487m | 4.2m/s | -59.1°C | 6.7% | 119.4hPa | 2.7V | 08:30:00 | 01:09:32 | 00:00:00 | |
| BIOWL1-15 | 2026-09-04 23:38:59 | 48.89333 | 10.36805 | 90° | 88km/h | 15511m | 5.7m/s | -59°C | 3.2% | 118.9hPa | 2.7V | 18:12:15 | 01:09:37 | 00:00:00 | |
| DL6DJ-15 | 2026-09-04 23:38:57 | 48.89329 | 10.36703 | 86° | 89km/h | 15497m | 5.3m/s | -59.1°C | 2.9% | 119.2hPa | 2.6V | 00:00:00 | 00:00:00 | 00:00:00 | |
| DF1GD-15 | 2026-09-04 23:38:55 | 48.89330 | 10.36703 | 88° | 89km/h | 15498m | 5.3m/s | -59.1°C | 2.9% | 119.2hPa | 2.6V | 00:00:00 | 00:00:00 | 00:00:00 | |
| DM0DOS-11 | 2026-09-04 23:38:54 | 48.89328 | 10.36567 | 89° | 88km/h | 15477m | 5m/s | -59.2°C | 6.7% | 119.5hPa | 2.6V | 08:30:00 | 01:09:30 | 00:00:00 | |
| BIOWL1-15 | 2026-09-04 23:38:50 | 48.89330 | 10.36431 | 92° | 89km/h | 15458m | 4.3m/s | -59.1°C | 3.3% | 120hPa | 2.7V | 18:12:15 | 01:09:26 | 00:00:00 | |
| OE5WHR-10 | 2026-09-04 23:38:50 | 48.89328 | 10.36499 | 93° | 88km/h | 15467m | 5.7m/s | 0°C | 0% | 0hPa | 2.6V | 00:00:00 | 01:09:28 | 00:00:00 | |
| DO9HM | 2026-09-04 23:38:48 | 48.89330 | 10.36431 | 93° | 89km/h | 15459m | 4.3m/s | -59.1°C | 3.0% | 120.0hPa | 2.6V | 00:00:00 | 00:00:00 | 00:00:00 | |
| DB0NH | 2026-09-04 23:38:47 | 48.89330 | 10.36397 | 91° | 89km/h | 15454m | 5.4m/s | -59.1°C | 6.7% | 120.0hPa | 2.6V | 00:00:00 | 01:09:25 | 00:00:00 | |
| OE5DXL-15 | 2026-09-04 23:38:46 | 48.89330 | 10.36363 | 89° | 89km/h | 15448m | 4.6m/s | -59.0°C | 6.8% | 120.1hPa | 2.6V | 00:00:00 | 00:00:00 | 00:00:00 | |
| DJ8HS-15 | 2026-09-04 23:38:45 | 48.89329 | 10.36329 | 88° | 89km/h | 15444m | 4.7m/s | -59.0°C | 6.7% | 120.2hPa | 2.6V | 00:00:00 | 01:09:23 | 00:00:00 | |
| DM0DOS-11 | 2026-09-04 23:38:44 | 48.89326 | 10.36223 | 86° | 91km/h | 15429m | 4.6m/s | -58.9°C | 6.6% | 120.5hPa | 2.6V | 08:30:00 | 01:09:20 | 00:00:00 | |
| BIOWL1-15 | 2026-09-04 23:38:38 | 48.89311 | 10.35877 | 88° | 91km/h | 15380m | 4.9m/s | -58.6°C | 3.2% | 121.5hPa | 2.6V | 18:12:15 | 01:09:10 | 00:00:00 | |
| DO3MHA-12 | 2026-09-04 23:38:38 | 48.89319 | 10.36086 | 87° | 89km/h | 15409m | 5.1m/s | -58.7°C | 6.6% | 120.8hPa | 2.6V | 00:00:00 | 01:09:16 | 00:00:00 | |
| AZAK | 2026-09-04 23:38:37 | 48.89319 | 10.36086 | 88° | 89km/h | 15409m | 5.1m/s | -58.8°C | 2.9% | 120.9hPa | 2.6V | 00:00:00 | 00:00:00 | 00:00:00 | |
| DM0DOS-11 | 2026-09-04 23:38:34 | 48.89310 | 10.35877 | 87° | 91km/h | 15380m | 4.9m/s | -58.6°C | 6.5% | 121.5hPa | 2.6V | 08:30:00 | 01:09:10 | 00:00:00 | |
| DL1NUX | 2026-09-04 23:38:32 | 48.89309 | 10.35741 | 89° | 86km/h | 15360m | 5.5m/s | -58.6°C | 6.5% | 121.8hPa | 2.7V | 08:30:00 | 01:09:06 | 00:00:00 | |
| DO3MHA-11 | 2026-09-04 23:38:31 | 48.89310 | 10.35842 | 89° | 86km/h | 15375m | 4.5m/s | -58.5°C | 6.5% | 121.5hPa | 2.6V | 00:00:00 | 01:09:09 | 00:00:00 | |
| DO3MHA-12 | 2026-09-04 23:38:28 | 48.89308 | 10.35741 | 90° | 86km/h | 15360m | 5.5m/s | -58.5°C | 6.5% | 121.8hPa | 2.6V | 00:00:00 | 01:09:06 | 00:00:00 | |
| DL6DJ-15 | 2026-09-04 23:38:26 | 48.89307 | 10.35643 | 86° | 82km/h | 15346m | 5.0m/s | -58.6°C | 2.9% | 122.1hPa | 2.6V | 00:00:00 | 00:00:00 | 00:00:00 | |
| SO1NDE-10 | 2026-09-04 23:38:25 | 48.89306 | 10.35643 | 87° | 86km/h | 15346m | 4.9m/s | -58.5°C | 6.5% | 122.0hPa | 2.6V | 00:00:00 | 01:09:03 | 00:00:00 | |
| DM0DOS-11 | 2026-09-04 23:38:23 | 48.89301 | 10.35545 | 83° | 89km/h | 15331m | 4m/s | -58.6°C | 6.6% | 122.4hPa | 2.6V | 08:30:00 | 01:09:00 | 00:00:00 | |
| DL1NUX | 2026-09-04 23:38:22 | 48.89292 | 10.35410 | 85° | 88km/h | 15312m | 5.1m/s | -58.6°C | 6.6% | 122.8hPa | 2.7V | 08:30:00 | 01:08:56 | 00:00:00 | |
| DB0UT-7 | 2026-09-04 23:38:22 | 48.89301 | 10.35545 | 84° | 86km/h | 15331m | 4.0m/s | -58.6°C | 6.6% | 122.3hPa | 2.7V | 00:00:00 | 00:00:00 | 00:00:00 | |
| BIOWL1-15 | 2026-09-04 23:38:22 | 48.89301 | 10.35545 | 84° | 89km/h | 15331m | 4m/s | -58.6°C | 3.2% | 122.4hPa | 2.6V | 18:12:15 | 01:09:00 | 00:00:00 | |
| DO3MHA-11 | 2026-09-04 23:38:21 | 48.89298 | 10.35511 | 84° | 86km/h | 15327m | 4.2m/s | -58.6°C | 6.6% | 122.4hPa | 2.7V | 00:00:00 | 01:08:59 | 00:00:00 | |
| SONCRA | 2026-09-04 23:38:20 | 48.89294 | 10.35443 | 84° | 88km/h | 15317m | 4.6m/s | -58.6°C | 2.9% | 122.6hPa | 2.7V | 00:00:00 | 00:00:00 | 00:00:00 | |
| DO3MHA-12 | 2026-09-04 23:38:18 | 48.89292 | 10.35410 | 86° | 84km/h | 15312m | 5.0m/s | -58.5°C | 6.6% | 122.7hPa | 2.7V | 00:00:00 | 01:08:56 | 00:00:00 | |
| DM0DOS-11 | 2026-09-04 23:38:17 | 48.89287 | 10.35217 | 89° | 84km/h | 15284m | 4.6m/s | -58.3°C | 6.6% | 123.3hPa | 2.7V | 08:30:00 | 01:08:50 | 00:00:00 | |
| DB0NH | 2026-09-04 23:38:17 | 48.89290 | 10.35376 | 86° | 86km/h | 15307m | 4.5m/s | -58.5°C | 6.6% | 122.8hPa | 2.7V | 00:00:00 | 01:08:55 | 00:00:00 | |
| OE5DXL-15 | 2026-09-04 23:38:16 | 48.89288 | 10.35343 | 87° | 86km/h | 15303m | 3.6m/s | -58.5°C | 6.5% | 122.9hPa | 2.7V | 00:00:00 | 00:00:00 | 00:00:00 | |
| DH7VM-15 | 2026-09-04 23:38:14 | 48.89288 | 10.35311 | 89° | 82km/h | 15298m | 5.6m/s | -58.5°C | 2.9% | 123.0hPa | 2.7V | 00:00:00 | 00:00:00 | 00:00:00 | |
| DF1GD-15 | 2026-09-04 23:38:13 | 48.89287 | 10.35280 | 90° | 82km/h | 15293m | 4.0m/s | -58.4°C | 3.0% | 123.1hPa | 2.7V | 00:00:00 | 00:00:00 | 00:00:00 | |
| DK5PH-5 | 2026-09-04 23:38:12 | 48.89287 | 10.35217 | 90° | 86km/h | 15284m | 4.6m/s | -58.3°C | 6.6% | 123.3hPa | 2.7V | 00:00:00 | 01:08:50 | 00:00:00 | |
| DL1NUX | 2026-09-04 23:38:12 | 48.89281 | 10.35087 | 81° | 84km/h | 15266m | 4m/s | -58.2°C | 6.6% | 123.7hPa | 2.6V | 08:30:00 | 01:08:46 | 00:00:00 | |
| DO3MHA-11 | 2026-09-04 23:38:11 | 48.89286 | 10.35184 | 89° | 86km/h | 15280m | 3.5m/s | -58.3°C | 6.6% | 123.3hPa | 2.7V | 00:00:00 | 01:08:49 | 00:00:00 | |
| OE5WHR-10 | 2026-09-04 23:38:09 | 48.89284 | 10.35119 | 85° | 88km/h | 15271m | 4.9m/s | 0°C | 0% | 0hPa | 2.6V | 00:00:00 | 00:00:00 | 00:00:00 | |
| HARRO8 | 2026-09-04 23:38:08 | 48.89278 | 10.35055 | 79° | 86km/h | 15262m | 4.8m/s | -58.2°C | 3.0% | 123.7hPa | 2.6V | 00:00:00 | 00:00:00 | 00:00:00 | |
| DJ8HS-15 | 2026-09-04 23:38:05 | 48.89269 | 10.34989 | 80° | 88km/h | 15252m | 4.0m/s | -58.0°C | 6.6% | 123.9hPa | 2.6V | 00:00:00 | 01:08:43 | 00:00:00 | |
| DM0DOS-11 | 2026-09-04 23:38:04 | 48.89259 | 10.34890 | 83° | 84km/h | 15240m | 4.3m/s | -58°C | 6.5% | 124.2hPa | 2.7V | 08:30:00 | 01:08:40 | 00:00:00 | |
| DL1ZP-14 | 2026-09-04 23:38:01 | 48.89257 | 10.34858 | 83° | 82km/h | 15235m | 4.5m/s | -58.0°C | 3.0% | 124.3hPa | 2.7V | 00:00:00 | 00:00:00 | 00:00:00 | |
| DL6DJ-15 | 2026-09-04 23:37:55 | 48.89245 | 10.34630 | 81° | 89km/h | 15203m | 4.0m/s | -57.8°C | 3.1% | 124.9hPa | 2.7V | 00:00:00 | 00:00:00 | 00:00:00 | |
| DM0DOS-11 | 2026-09-04 23:37:54 | 48.89236 | 10.34562 | 78° | 89km/h | 15195m | 4.7m/s | -57.8°C | 6.5% | 125.1hPa | 2.7V | 08:30:00 | 01:08:30 | 00:00:00 | |
| SO1NDE-10 | 2026-09-04 23:37:54 | 48.89245 | 10.34630 | 82° | 88km/h | 15203m | 3.9m/s | -57.8°C | 6.6% | 124.9hPa | 2.7V | 00:00:00 | 01:08:32 | 00:00:00 | |
| DL1NUX | 2026-09-04 23:37:52 | 48.89215 | 10.34395 | 81° | 86km/h | 15174m | 4.9m/s | -57.8°C | 6.6% | 125.5hPa | 2.7V | 08:30:00 | 01:08:25 | 00:00:00 | |
| DC4HF-4 | 2026-09-04 23:37:50 | 48.89227 | 10.34495 | 78° | 88km/h | 15186m | 4.4m/s | -57.8°C | 3.0% | -1.0hPa | 2.6V | 00:00:00 | 00:00:00 | 00:00:00 | |
| SONCRA | 2026-09-04 23:37:49 | 48.89219 | 10.34428 | 80° | 88km/h | 15178m | 3.5m/s | -57.8°C | 3.1% | 125.4hPa | 2.6V | 00:00:00 | 00:00:00 | 00:00:00 | |
| DO3MHA-12 | 2026-09-04 23:37:48 | 48.89219 | 10.34428 | 81° | 88km/h | 15178m | 3.4m/s | -57.7°C | 6.6% | 125.4hPa | 2.6V | 00:00:00 | 01:08:26 | 00:00:00 | |
| DB0NH | 2026-09-04 23:37:47 | 48.89215 | 10.34395 | 82° | 89km/h | 15174m | 4.8m/s | -57.7°C | 6.6% | 125.4hPa | 2.7V | 00:00:00 | 01:08:25 | 00:00:00 | |
| OE5DXL-15 | 2026-09-04 23:37:46 | 48.89212 | 10.34362 | 83° | 89km/h | 15169m | 4.2m/s | -57.7°C | 6.6% | 125.5hPa | 2.7V | 00:00:00 | 00:00:00 | 08:30:00 | |
| DJ8HS-15 | 2026-09-04 23:37:45 | 48.89210 | 10.34330 | 84° | 88km/h | 15165m | 4.2m/s | -57.7°C | 6.6% | 125.6hPa | 2.7V | 00:00:00 | 01:08:23 | 00:00:00 | |
| DM0DOS-11 | 2026-09-04 23:37:44 | 48.89203 | 10.34231 | 82° | 88km/h | 15152m | 4.6m/s | -57.7°C | 6.5% | 126hPa | 2.7V | 08:30:00 | 01:08:20 | 00:00:00 | |
| BIOWL1-15 | 2026-09-04 23:37:43 | 48.89200 | 10.34197 | 81° | 88km/h | 15148m | 4.2m/s | -57.7°C | 3.6% | 126hPa | 2.7V | 18:12:15 | 01:08:19 | 00:00:00 | |
| DK5PH-5 | 2026-09-04 23:37:42 | 48.89203 | 10.34230 | 83° | 89km/h | 15153m | 4.6m/s | -57.6°C | 6.5% | 125.9hPa | 2.7V | 00:00:00 | 01:08:20 | 00:00:00 | |
| DO3MHA-11 | 2026-09-04 23:37:41 | 48.89200 | 10.34197 | 82° | 89km/h | 15148m | 4.2m/s | -57.6°C | 6.5% | 125.9hPa | 2.7V | 00:00:00 | 01:08:19 | 00:00:00 | |
| DO3MHA-12 | 2026-09-04 23:37:38 | 48.89189 | 10.34095 | 82° | 89km/h | 15135m | 3.7m/s | -57.6°C | 6.5% | 126.2hPa | 2.6V | 00:00:00 | 01:08:16 | 00:00:00 | |
| HARRO8 | 2026-09-04 23:37:37 | 48.89182 | 10.34026 | 81° | 89km/h | 15127m | 4.6m/s | -57.6°C | 3.1% | 126.4hPa | 2.6V | 00:00:00 | 00:00:00 | 00:00:00 | |
| DM0DOS-11 | 2026-09-04 23:37:34 | 48.89171 | 10.33889 | 84° | 88km/h | 15111m | 4.2m/s | -57.5°C | 6.6% | 126.8hPa | 2.6V | 08:30:00 | 01:08:10 | 00:00:00 | |
| DL1NUX | 2026-09-04 23:37:32 | 48.89162 | 10.33758 | 84° | 86km/h | 15093m | 4.7m/s | -58°C | 6.8% | 127.1hPa | 2.6V | 08:30:00 | 01:08:06 | 00:00:00 | |
| BIOWL1-15 | 2026-09-04 23:37:23 | 48.89128 | 10.33317 | 83° | 86km/h | 15040m | 4.5m/s | -58.6°C | 4.5% | 128.2hPa | 2.6V | 18:12:15 | 01:07:53 | 00:00:00 | |
| OE5DRO-10 | 2026-09-04 23:37:23 | 48.89149 | 10.33590 | 83° | 89km/h | 15072m | 4.1m/s | -58.3°C | 7.1% | 127.5hPa | 2.6V | 00:00:00 | 00:00:00 | 00:00:00 | |
| DL1NUX | 2026-09-04 23:37:22 | 48.89134 | 10.33418 | 84° | 89km/h | 15051m | 3.9m/s | -58.6°C | 7.5% | 127.9hPa | 2.6V | 08:30:00 | 01:07:56 | 00:00:00 | |
| DO3MHA-11 | 2026-09-04 23:37:22 | 48.89142 | 10.33520 | 82° | 88km/h | 15064m | 4.7m/s | -58.4°C | 7.3% | 127.7hPa | 2.7V | 00:00:00 | 01:07:59 | 00:00:00 | |
| NBG1-10 | 2026-09-04 23:37:19 | 48.89136 | 10.33452 | 84° | 88km/h | 15056m | 4.7m/s | -58.5°C | 7.4% | 127.8hPa | 2.7V | 00:00:00 | 01:07:57 | 00:00:00 | |
| SONCRA | 2026-09-04 23:37:18 | 48.89132 | 10.33384 | 84° | 88km/h | 15048m | 2.7m/s | -58.6°C | 3.7% | 128.1hPa | 2.6V | 00:00:00 | 00:00:00 | 00:00:00 | |
| DB0NH | 2026-09-04 23:37:17 | 48.89132 | 10.33384 | 85° | 88km/h | 15048m | 2.6m/s | -58.6°C | 7.4% | 128.0hPa | 2.6V | 00:00:00 | 01:07:55 | 08:30:00 | |
| OE5DXL-15 | 2026-09-04 23:37:16 | 48.89130 | 10.33350 | 84° | 88km/h | 15045m | 4.2m/s | -58.6°C | 7.4% | 128.0hPa | 2.7V | 00:00:00 | 00:00:00 | 00:00:00 | |
| DC4HF-4 | 2026-09-04 23:37:14 | 48.89125 | 10.33285 | 81° | 86km/h | 15036m | 3.5m/s | 0°C | -1.0% | -1.0hPa | 2.7V | 00:00:00 | 00:00:00 | 00:00:00 | |
| AZAK | 2026-09-04 23:37:13 | 48.89125 | 10.33284 | 83° | 86km/h | 15036m | 3.5m/s | -58.6°C | 3.7% | 128.3hPa | 2.7V | 00:00:00 | 00:00:00 | 00:00:00 | |
| DK5PH-5 | 2026-09-04 23:37:12 | 48.89119 | 10.33218 | 83° | 88km/h | 15028m | 3.6m/s | -58.5°C | 7.5% | 128.4hPa | 2.7V | 00:00:00 | 01:07:50 | 08:30:00 | |
| DM0DOS-11 | 2026-09-04 23:37:11 | 48.89109 | 10.33115 | 81° | 91km/h | 15016m | 3.1m/s | -58.4°C | 7.4% | 128.7hPa | 2.6V | 08:30:00 | 01:07:47 | 00:00:00 | |
| DO3MHA-11 | 2026-09-04 23:37:11 | 48.89116 | 10.33184 | 83° | 89km/h | 15024m | 3.7m/s | -58.4°C | 7.5% | 128.4hPa | 2.6V | 00:00:00 | 01:07:49 | 08:30:00 | |
| DL1NUX | 2026-09-04 23:37:09 | 48.89096 | 10.32946 | 82° | 88km/h | 14996m | 4.1m/s | -58.4°C | 7.3% | 129.1hPa | 2.6V | 08:30:00 | 01:07:42 | 00:00:00 | |
| BIOWL1-15 | 2026-09-04 23:37:09 | 48.89106 | 10.33081 | 82° | 91km/h | 15012m | 3.9m/s | -58.4°C | 4.4% | 128.8hPa | 2.7V | 18:12:15 | 01:07:46 | 00:00:00 | |
| DO3MHA-12 | 2026-09-04 23:37:08 | 48.89106 | 10.33081 | 83° | 88km/h | 15012m | 3.9m/s | -58.3°C | 7.3% | 128.7hPa | 2.6V | 00:00:00 | 01:07:46 | 00:00:00 | |
| DF3TZ-5 | 2026-09-04 23:37:06 | 48.89101 | 10.33013 | 84° | 88km/h | 15004m | 2.7m/s | -58.4°C | 3.6% | 128.9hPa | 2.6V | 00:00:00 | 00:00:00 | 00:00:00 | |
| HARRO8 | 2026-09-04 23:37:05 | 48.89099 | 10.32979 | 83° | 86km/h | 15001m | 4.4m/s | -58.4°C | 3.6% | 129.0hPa | 2.6V | 00:00:00 | 00:00:00 | 00:00:00 | |
| PG1ADW-2 | 2026-09-04 23:37:05 | 48.89099 | 10.32979 | 84° | 88km/h | 15001m | 4.4m/s | -58.3°C | 7.3% | 128.9hPa | 2.6V | 00:00:00 | 01:07:43 | 08:30:00 | |
| OE5DRO-10 | 2026-09-04 23:37:04 | 48.89096 | 10.32946 | 83° | 88km/h | 14997m | 4.1m/s | -58.3°C | 7.3% | 129.0hPa | 2.6V | 00:00:00 | 00:00:00 | 00:00:00 | |
| DO9HM | 2026-09-04 23:37:03 | 48.89096 | 10.32946 | 84° | 88km/h | 14997m | 4.1m/s | -58.4°C | 3.7% | 129.1hPa | 2.6V | 00:00:00 | 00:00:00 | 00:00:00 | |
| DM7RM-13 | 2026-09-04 23:37:02 | 48.89093 | 10.32913 | 84° | 88km/h | 14993m | 3.7m/s | -58.4°C | 3.7% | 129.1hPa | 2.6V | 00:00:00 | 00:00:00 | 00:00:00 | |
| DL1ZP-14 | 2026-09-04 23:36:59 | 48.89082 | 10.32781 | 80° | 82km/h | 14976m | 4.3m/s | -58.4°C | 3.6% | 129.5hPa | 2.6V | 00:00:00 | 00:00:00 | 00:00:00 | |
| DO3MHA-12 | 2026-09-04 23:36:58 | 48.89079 | 10.32749 | 81° | 86km/h | 14973m | 3.6m/s | -58.3°C | 7.2% | 129.5hPa | 2.6V | 00:00:00 | 01:07:36 | 00:00:00 | |
| DL1NUX | 2026-09-04 23:36:57 | 48.89059 | 10.32555 | 80° | 88km/h | 14950m | 3.5m/s | -58.3°C | 7.6% | 130hPa | 2.6V | 08:30:00 | 01:07:30 | 00:00:00 | |
| BIOWL1-15 | 2026-09-04 23:36:55 | 48.89069 | 10.32654 | 82° | 86km/h | 14961m | 3m/s | -58.3°C | 4.6% | 129.8hPa | 2.7V | 18:12:15 | 01:07:33 | 00:00:00 | |
| DB0ND-19 | 2026-09-04 23:36:53 | 48.89059 | 10.32555 | 80° | 86km/h | 14950m | 3.5m/s | -58.3°C | 3.8% | 130.0hPa | 2.6V | 00:00:00 | 00:00:00 | 00:00:00 | |
| DL6DJ-15 | 2026-09-04 23:36:52 | 48.89059 | 10.32555 | 80° | 86km/h | 14950m | 3.5m/s | -58.3°C | 3.8% | 130.0hPa | 2.6V | 00:00:00 | 00:00:00 | 00:00:00 | |
| DO3MHA-11 | 2026-09-04 23:36:51 | 48.89055 | 10.32521 | 81° | 88km/h | 14946m | 3.8m/s | -58.3°C | 7.6% | 130.1hPa | 2.6V | 00:00:00 | 01:07:29 | 00:00:00 | |
| DF1GD-15 | 2026-09-04 23:36:50 | 48.89055 | 10.32521 | 82° | 88km/h | 14946m | 3.8m/s | -58.3°C | 3.9% | 130.1hPa | 2.6V | 00:00:00 | 00:00:00 | 00:00:00 | |
| DO3MHA-12 | 2026-09-04 23:36:48 | 48.89045 | 10.32419 | 81° | 84km/h | 14934m | 4.7m/s | -58.4°C | 7.9% | 130.3hPa | 2.6V | 00:00:00 | 01:07:26 | 00:00:00 | |
| DL1NUX | 2026-09-04 23:36:47 | 48.89025 | 10.32224 | 81° | 80km/h | 14911m | 4.1m/s | -58.7°C | 7.9% | 130.8hPa | 2.6V | 08:30:00 | 01:07:20 | 00:00:00 | |
| SONCRA | 2026-09-04 23:36:47 | 48.89037 | 10.32352 | 80° | 86km/h | 14927m | 3.2m/s | -58.7°C | 4.1% | 130.5hPa | 2.6V | 00:00:00 | 00:00:00 | 00:00:00 | |
| BIOWL1-15 | 2026-09-04 23:36:45 | 48.89028 | 10.32255 | 82° | 82km/h | 14915m | 4m/s | -58.7°C | 5.1% | 130.7hPa | 2.6V | 18:12:15 | 01:07:21 | 00:00:00 | |
| DO9HM | 2026-09-04 23:36:43 | 48.89030 | 10.32287 | 84° | 84km/h | 14919m | 3.6m/s | -58.7°C | 4.2% | 130.7hPa | 2.7V | 00:00:00 | 00:00:00 | 00:00:00 | |
| DK5PH-5 | 2026-09-04 23:36:42 | 48.89025 | 10.32224 | 82° | 91km/h | 14911m | 4.1m/s | -58.7°C | 7.9% | 130.8hPa | 2.7V | 00:00:00 | 01:07:20 | 00:00:00 | |
| DM0DOS-11 | 2026-09-04 23:36:41 | 48.89020 | 10.32163 | 83° | 80km/h | 14904m | 4.9m/s | -58.7°C | 7.9% | 131hPa | 2.7V | 08:30:00 | 01:07:18 | 00:00:00 | |
| DO3MHA-11 | 2026-09-04 23:36:41 | 48.89022 | 10.32194 | 83° | 86km/h | 14908m | 2.9m/s | -58.7°C | 7.9% | 130.9hPa | 2.6V | 00:00:00 | 01:07:19 | 00:00:00 | |
| DO3MHA-12 | 2026-09-04 23:36:38 | 48.89016 | 10.32101 | 86° | 91km/h | 14895m | 4.8m/s | -58.6°C | 7.9% | 131.1hPa | 2.6V | 00:00:00 | 01:07:16 | 00:00:00 | |
| DL1NUX | 2026-09-04 23:36:37 | 48.89010 | 10.31897 | 88° | 95km/h | 14870m | 3.8m/s | -58.6°C | 7.9% | 131.7hPa | 2.6V | 08:30:00 | 01:07:10 | 00:00:00 | |
| BIOWL1-15 | 2026-09-04 23:36:33 | 48.89010 | 10.31933 | 89° | 93km/h | 14873m | 3.6m/s | 0°C | 0% | 131.7hPa | 2.7V | 18:12:15 | 01:07:11 | 00:00:00 | |
| DO3MHA-11 | 2026-09-04 23:36:31 | 48.89009 | 10.31861 | 87° | 93km/h | 14866m | 3.8m/s | -58.5°C | 7.9% | 131.7hPa | 2.6V | 00:00:00 | 01:07:09 | 00:00:00 | |
| DF1GD-15 | 2026-09-04 23:36:29 | 48.89008 | 10.31824 | 87° | 95km/h | 14863m | 2.2m/s | -58.6°C | 4.1% | 131.9hPa | 2.6V | 00:00:00 | 00:00:00 | 00:00:00 | |
| DM0DOS-11 | 2026-09-04 23:36:28 | 48.88999 | 10.31577 | 88° | 91km/h | 14839m | 3.3m/s | -58.5°C | 7.9% | 132.4hPa | 2.6V | 08:30:00 | 01:07:01 | 00:00:00 | |
| BIOWL1-15 | 2026-09-04 23:36:19 | 48.88997 | 10.31431 | 90° | 100km/h | 14825m | 4.2m/s | 0°C | 0% | 0hPa | 2.6V | 18:12:15 | 01:06:57 | 00:00:00 | |
| DO3MHA-12 | 2026-09-04 23:36:18 | 48.88997 | 10.31392 | 91° | 97km/h | 14822m | 2.4m/s | -58.6°C | 8.2% | 132.7hPa | 2.6V | 00:00:00 | 01:06:56 | 00:00:00 | |
| DL1NUX | 2026-09-04 23:36:17 | 48.88997 | 10.31168 | 89° | 93km/h | 14803m | 3.1m/s | -58.8°C | 8.2% | 133.1hPa | 2.6V | 08:30:00 | 01:06:50 | 00:00:00 | |
| BIOWL1-15 | 2026-09-04 23:36:08 | 48.88992 | 10.30949 | 87° | 97km/h | 14783m | 4.1m/s | 0°C | 0% | 0hPa | 2.6V | 18:12:15 | 01:06:44 | 00:00:00 | |
| DO3MHA-12 | 2026-09-04 23:36:08 | 48.88993 | 10.31024 | 88° | 97km/h | 14790m | 4.0m/s | -58.8°C | 8.3% | 133.4hPa | 2.6V | 00:00:00 | 01:06:46 | 00:00:00 | |
| OE5DRO-10 | 2026-09-04 23:36:07 | 48.88992 | 10.30987 | 88° | 99km/h | 14786m | 2.9m/s | -58.7°C | 8.3% | 133.5hPa | 2.6V | 00:00:00 | 00:00:00 | 00:00:00 | |
| DJ8HS-15 | 2026-09-04 23:36:05 | 48.88990 | 10.30912 | 88° | 99km/h | 14779m | 3.0m/s | -58.7°C | 8.2% | 133.6hPa | 2.6V | 00:00:00 | 01:06:43 | 00:00:00 | |
| DF3TZ-5 | 2026-09-04 23:36:04 | 48.88990 | 10.30875 | 88° | 97km/h | 14775m | 4.3m/s | -58.7°C | 4.4% | 133.7hPa | 2.7V | 00:00:00 | 00:00:00 | 00:00:00 | |
| DO9HM | 2026-09-04 23:36:03 | 48.88989 | 10.30837 | 90° | 99km/h | 14772m | 2.9m/s | -58.7°C | 4.4% | 133.8hPa | 2.7V | 00:00:00 | 00:00:00 | 00:00:00 | |
| DO3MHA-11 | 2026-09-04 23:36:01 | 48.88988 | 10.30762 | 88° | 99km/h | 14766m | 3.7m/s | -58.6°C | 8.2% | 133.9hPa | 2.7V | 00:00:00 | 01:06:39 | 00:00:00 | |
| DM0DOS-11 | 2026-09-04 23:35:59 | 48.88984 | 10.30651 | 87° | 97km/h | 14754m | 3.5m/s | -58.8°C | 8.3% | 134.2hPa | 2.7V | 08:30:00 | 01:06:36 | 00:00:00 | |
| DL1NUX | 2026-09-04 23:35:59 | 48.88977 | 10.30500 | 86° | 102km/h | 14740m | 4.4m/s | -59°C | 8.5% | 134.4hPa | 2.6V | 08:30:00 | 01:06:32 | 00:00:00 | |
| BIOWL1-15 | 2026-09-04 23:35:53 | 48.88976 | 10.30461 | 88° | 104km/h | 14737m | 3m/s | 0°C | 0% | 0hPa | 2.6V | 18:12:15 | 01:06:31 | 00:00:00 | |
| DB0ND-19 | 2026-09-04 23:35:51 | 48.88975 | 10.30341 | 90° | 100km/h | 14727m | 3.1m/s | -59.1°C | 4.7% | 134.8hPa | 2.6V | 00:00:00 | 00:00:00 | 00:00:00 | |
| DL6DJ-15 | 2026-09-04 23:35:50 | 48.88975 | 10.30341 | 90° | 100km/h | 14727m | 3.1m/s | -59.1°C | 4.7% | 134.8hPa | 2.6V | 00:00:00 | 00:00:00 | 00:00:00 | |
| DM0DOS-11 | 2026-09-04 23:35:49 | 48.88979 | 10.30225 | 93° | 100km/h | 14717m | 1.9m/s | -59.1°C | 8.8% | 134.9hPa | 2.6V | 08:30:00 | 01:06:25 | 00:00:00 | |
| DL1NUX | 2026-09-04 23:35:48 | 48.88979 | 10.30077 | 85° | 97km/h | 14705m | 3.2m/s | -59°C | 8.8% | 135.2hPa | 2.6V | 08:30:00 | 01:06:21 | 00:00:00 | |
| DF7PN | 2026-09-04 23:35:45 | 48.88980 | 10.30151 | 90° | 95km/h | 14711m | 3.7m/s | -59.1°C | 4.8% | 135.1hPa | 2.6V | 00:00:00 | 00:00:00 | 00:00:00 | |
| SONCRA | 2026-09-04 23:35:44 | 48.88980 | 10.30114 | 87° | 95km/h | 14708m | 2.9m/s | -59.1°C | 4.9% | 135.2hPa | 2.6V | 00:00:00 | 00:00:00 | 00:00:00 | |
| BIOWL1-15 | 2026-09-04 23:35:43 | 48.88978 | 10.30077 | 86° | 97km/h | 14705m | 3.2m/s | 0°C | 0% | 0hPa | 2.6V | 18:12:15 | 01:06:21 | 00:00:00 | |
| DK5PH-5 | 2026-09-04 23:35:42 | 48.88976 | 10.30039 | 86° | 99km/h | 14701m | 3.6m/s | -59.0°C | 8.8% | 135.2hPa | 2.6V | 00:00:00 | 01:06:20 | 00:00:00 | |
| DO3MHA-11 | 2026-09-04 23:35:41 | 48.88975 | 10.30001 | 86° | 97km/h | 14698m | 3.5m/s | -59.0°C | 8.9% | 135.3hPa | 2.6V | 00:00:00 | 01:06:19 | 08:30:00 | |
| NBG1-10 | 2026-09-04 23:35:40 | 48.88973 | 10.29963 | 86° | 99km/h | 14695m | 2.7m/s | -59.0°C | 8.8% | 135.4hPa | 2.7V | 00:00:00 | 01:06:18 | 00:00:00 | |
| DM7RM-13 | 2026-09-04 23:35:39 | 48.88972 | 10.29963 | 87° | 99km/h | 14695m | 2.8m/s | -59.0°C | 4.9% | 135.5hPa | 2.7V | 00:00:00 | 00:00:00 | 00:00:00 | |
| DO3MHA-12 | 2026-09-04 23:35:38 | 48.88969 | 10.29888 | 87° | 97km/h | 14688m | 3.1m/s | -59.0°C | 8.7% | 135.6hPa | 2.7V | 00:00:00 | 01:06:16 | 00:00:00 | |
| DM0DOS-11 | 2026-09-04 23:35:34 | 48.88965 | 10.29666 | 88° | 95km/h | 14668m | 2.8m/s | -59°C | 8.8% | 136.1hPa | 2.7V | 08:30:00 | 01:06:10 | 00:00:00 | |
| DF3TZ-5 | 2026-09-04 23:35:33 | 48.88966 | 10.29703 | 88° | 95km/h | 14671m | 3.7m/s | -59.0°C | 4.9% | 135.9hPa | 2.6V | 00:00:00 | 00:00:00 | 00:00:00 | |
| AZAK | 2026-09-04 23:35:32 | 48.88964 | 10.29629 | 90° | 97km/h | 14664m | 4.1m/s | -59.0°C | 4.9% | 136.1hPa | 2.6V | 00:00:00 | 00:00:00 | 00:00:00 | |
| DO3MHA-11 | 2026-09-04 23:35:31 | 48.88964 | 10.29629 | 89° | 99km/h | 14664m | 4.0m/s | -58.9°C | 8.9% | 136.0hPa | 2.6V | 00:00:00 | 01:06:09 | 00:00:00 | |
| DL1NUX | 2026-09-04 23:35:30 | 48.88956 | 10.29404 | 85° | 99km/h | 14644m | 3.9m/s | -59°C | 9.2% | 136.5hPa | 2.6V | 08:30:00 | 01:06:03 | 00:00:00 | |
| BIOWL1-15 | 2026-09-04 23:35:24 | 48.88951 | 10.29289 | 85° | 100km/h | 14634m | 3.8m/s | 0°C | 0% | 0hPa | 2.6V | 18:12:15 | 01:06:00 | 00:00:00 | |
| SO1NDE-10 | 2026-09-04 23:35:24 | 48.88955 | 10.29366 | 86° | 100km/h | 14641m | 3.6m/s | -58.9°C | 9.3% | 136.5hPa | 2.6V | 00:00:00 | 01:06:02 | 08:30:00 | |
| DO9HM | 2026-09-04 23:35:22 | 48.88950 | 10.29288 | 86° | 100km/h | 14634m | 3.8m/s | -59.0°C | 5.2% | 136.7hPa | 2.6V | 00:00:00 | 00:00:00 | 00:00:00 | |
| DO3MHA-11 | 2026-09-04 23:35:21 | 48.88948 | 10.29250 | 85° | 100km/h | 14631m | 3.4m/s | -59.0°C | 9.2% | 136.8hPa | 2.6V | 00:00:00 | 01:05:59 | 00:00:00 | |
| DL1NUX | 2026-09-04 23:35:20 | 48.88936 | 10.29021 | 86° | 100km/h | 14609m | 4.1m/s | -59.2°C | 9.4% | 137.3hPa | 2.6V | 08:30:00 | 01:05:53 | 00:00:00 | |
| DB0ND-19 | 2026-09-04 23:35:20 | 48.88944 | 10.29174 | 84° | 100km/h | 14624m | 4.5m/s | -59.1°C | 5.3% | 137.0hPa | 2.6V | 00:00:00 | 00:00:00 | 00:00:00 | |
| AM1SDL-15 | 2026-09-04 23:35:19 | 48.88943 | 10.29174 | 85° | 100km/h | 14624m | 4.4m/s | 0°C | 0% | 0hPa | 2.6V | 00:00:00 | 01:05:57 | 00:00:00 | |
| DO3MHA-12 | 2026-09-04 23:35:18 | 48.88941 | 10.29136 | 85° | 100km/h | 14620m | 2.7m/s | -59.1°C | 9.4% | 137.0hPa | 2.6V | 00:00:00 | 01:05:56 | 00:00:00 | |
| DB0NH | 2026-09-04 23:35:17 | 48.88939 | 10.29097 | 86° | 102km/h | 14617m | 4.5m/s | -59.2°C | 9.4% | 137.1hPa | 2.6V | 00:00:00 | 01:05:55 | 00:00:00 | |
| OE5DXL-15 | 2026-09-04 23:35:16 | 48.88938 | 10.29059 | 87° | 102km/h | 14613m | 3.4m/s | -59.1°C | 9.5% | 137.1hPa | 2.6V | 00:00:00 | 00:00:00 | 00:00:00 | |
| DM0DOS-11 | 2026-09-04 23:35:15 | 48.88930 | 10.28829 | 86° | 100km/h | 14590m | 3.8m/s | -59.2°C | 9.6% | 137.7hPa | 2.6V | 08:30:00 | 01:05:48 | 00:00:00 | |
| SONCRA | 2026-09-04 23:35:14 | 48.88934 | 10.28944 | 87° | 100km/h | 14601m | 3.4m/s | -59.2°C | 5.4% | 137.4hPa | 2.6V | 00:00:00 | 00:00:00 | 00:00:00 | |
| DK5PH-5 | 2026-09-04 23:35:12 | 48.88932 | 10.28906 | 88° | 102km/h | 14597m | 4.6m/s | -59.1°C | 9.5% | 137.5hPa | 2.6V | 00:00:00 | 01:05:50 | 00:00:00 | |
| DO3MHA-11 | 2026-09-04 23:35:11 | 48.88932 | 10.28868 | 88° | 100km/h | 14594m | 3.0m/s | -59.1°C | 9.6% | 137.6hPa | 2.6V | 00:00:00 | 01:05:49 | 00:00:00 | |
| OE5DRO-10 | 2026-09-04 23:35:09 | 48.88928 | 10.28791 | 84° | 102km/h | 14586m | 4.0m/s | -59.1°C | 9.7% | 137.7hPa | 2.6V | 00:00:00 | 00:00:00 | 00:00:00 | |
| DL1NUX | 2026-09-04 23:35:08 | 48.88905 | 10.28565 | 81° | 102km/h | 14564m | 3.8m/s | -59.2°C | 9.9% | 138.2hPa | 2.6V | 08:30:00 | 01:05:41 | 00:00:00 | |
| DO3MHA-12 | 2026-09-04 23:35:08 | 48.88925 | 10.28753 | 82° | 100km/h | 14583m | 3.1m/s | -59.2°C | 9.7% | 137.8hPa | 2.7V | 00:00:00 | 01:05:46 | 00:00:00 | |
| NBG1-10 | 2026-09-04 23:35:07 | 48.88921 | 10.28714 | 81° | 102km/h | 14579m | 3.9m/s | -59.2°C | 9.7% | 137.9hPa | 2.7V | 00:00:00 | 01:05:45 | 00:00:00 | |
| DF1GD-15 | 2026-09-04 23:35:06 | 48.88921 | 10.28714 | 82° | 100km/h | 14579m | 3.9m/s | -59.2°C | 5.6% | 137.9hPa | 2.7V | 00:00:00 | 00:00:00 | 00:00:00 | |
| DJ8HS-15 | 2026-09-04 23:35:05 | 48.88912 | 10.28640 | 81° | 104km/h | 14572m | 2.9m/s | -59.2°C | 9.8% | 138.1hPa | 2.7V | 00:00:00 | 01:05:43 | 00:00:00 | |
| DF3TZ-5 | 2026-09-04 23:35:02 | 48.88901 | 10.28526 | 82° | 102km/h | 14561m | 2.8m/s | -59.3°C | 5.7% | 138.4hPa | 2.8V | 00:00:00 | 00:00:00 | 00:00:00 | |
| DM0DOS-11 | 2026-09-04 23:35:01 | 48.88895 | 10.28447 | 84° | 102km/h | 14554m | 3.6m/s | -59.2°C | 9.9% | 138.5hPa | 2.8V | 08:30:00 | 01:05:38 | 00:00:00 | |
| DO3MHA-11 | 2026-09-04 23:35:01 | 48.88897 | 10.28486 | 84° | 102km/h | 14558m | 3.9m/s | -59.2°C | 9.9% | 138.4hPa | 2.8V | 00:00:00 | 01:05:39 | 00:00:00 | |
| DO9HM | 2026-09-04 23:35:00 | 48.88898 | 10.28486 | 84° | 102km/h | 14558m | 3.9m/s | -59.2°C | 5.8% | 138.4hPa | 2.8V | 00:00:00 | 00:00:00 | 00:00:00 | |
| DL1NUX | 2026-09-04 23:34:58 | 48.88870 | 10.28177 | 79° | 102km/h | 14529m | 4m/s | -59.2°C | 10% | 139.1hPa | 2.8V | 08:30:00 | 01:05:31 | 00:00:00 | |
| DO3MHA-12 | 2026-09-04 23:34:58 | 48.88889 | 10.28369 | 84° | 104km/h | 14547m | 4.4m/s | -59.2°C | 10.1% | 138.6hPa | 2.6V | 00:00:00 | 01:05:36 | 00:00:00 | |
| DM0DOS-11 | 2026-09-04 23:34:55 | 48.88855 | 10.28057 | 78° | 108km/h | 14517m | 4.7m/s | -59.3°C | 10.2% | 139.3hPa | 2.6V | 08:30:00 | 01:05:28 | 00:00:00 | |
| DL1ZP-14 | 2026-09-04 23:34:55 | 48.88875 | 10.28215 | 80° | 99km/h | 14533m | 2.7m/s | -59.2°C | 6.0% | 139.0hPa | 2.6V | 00:00:00 | 00:00:00 | 00:00:00 | |
| DB0ND-19 | 2026-09-04 23:34:49 | 48.88845 | 10.27977 | 79° | 106km/h | 14508m | 4.2m/s | -59.4°C | 6.2% | 139.6hPa | 2.6V | 00:00:00 | 00:00:00 | 00:00:00 | |
| DO3MHA-12 | 2026-09-04 23:34:48 | 48.88845 | 10.27977 | 80° | 102km/h | 14508m | 4.2m/s | -59.4°C | 10.4% | 139.5hPa | 2.6V | 00:00:00 | 01:05:26 | 00:00:00 | |
| DL1NUX | 2026-09-04 23:34:47 | 48.88820 | 10.27742 | 81° | 102km/h | 14485m | 4.3m/s | -59.8°C | 10.9% | 140hPa | 2.6V | 08:30:00 | 01:05:20 | 00:00:00 | |
| BIOWL1-15 | 2026-09-04 23:34:47 | 48.88812 | 10.27666 | 81° | 100km/h | 14478m | 4.6m/s | 0°C | 0% | 0hPa | 2.7V | 18:12:15 | 01:05:18 | 00:00:00 | |
| OE5DXL-15 | 2026-09-04 23:34:46 | 48.88836 | 10.27897 | 81° | 106km/h | 14501m | 2.5m/s | -59.4°C | 10.5% | 139.7hPa | 2.7V | 00:00:00 | 00:00:00 | 00:00:00 | |
| DM0DOS-11 | 2026-09-04 23:34:45 | 48.88812 | 10.27666 | 80° | 100km/h | 14478m | 4.6m/s | -60°C | 11.3% | 140.2hPa | 2.7V | 08:30:00 | 01:05:18 | 00:00:00 | |
| DJ8HS-15 | 2026-09-04 23:34:45 | 48.88832 | 10.27857 | 81° | 104km/h | 14498m | 4.4m/s | -59.5°C | 10.5% | 139.8hPa | 2.6V | 00:00:00 | 01:05:23 | 00:00:00 | |
| AM1SDL-15 | 2026-09-04 23:34:43 | 48.88824 | 10.27781 | 82° | 104km/h | 14490m | 4.3m/s | 0°C | 0% | 0hPa | 2.6V | 00:00:00 | 01:05:21 | 00:00:00 | |
| DK5PH-5 | 2026-09-04 23:34:42 | 48.88820 | 10.27742 | 82° | 106km/h | 14486m | 4.3m/s | -59.7°C | 10.9% | 140.0hPa | 2.6V | 00:00:00 | 01:05:20 | 00:00:00 | |
| DO3MHA-11 | 2026-09-04 23:34:41 | 48.88816 | 10.27704 | 82° | 104km/h | 14482m | 2.5m/s | -59.9°C | 11.2% | 140.1hPa | 2.6V | 00:00:00 | 01:05:19 | 00:00:00 | |
| DO9HM | 2026-09-04 23:34:40 | 48.88816 | 10.27704 | 82° | 102km/h | 14482m | 2.6m/s | -60.0°C | 6.8% | 140.1hPa | 2.6V | 00:00:00 | 00:00:00 | 00:00:00 | |
| DO3MHA-12 | 2026-09-04 23:34:38 | 48.88803 | 10.27589 | 81° | 106km/h | 14472m | 3.2m/s | -60.0°C | 11.5% | 140.3hPa | 2.6V | 00:00:00 | 01:05:16 | 00:00:00 | |
| DM7RM-13 | 2026-09-04 23:34:37 | 48.88803 | 10.27589 | 81° | 104km/h | 14472m | 3.3m/s | -60.1°C | 7.0% | 140.3hPa | 2.6V | 00:00:00 | 00:00:00 | 00:00:00 | |
| NBG1-10 | 2026-09-04 23:34:34 | 48.88787 | 10.27426 | 83° | 108km/h | 14457m | 4.0m/s | -60.2°C | 11.8% | 140.6hPa | 2.6V | 00:00:00 | 01:05:12 | 00:00:00 | |
| DL1NUX | 2026-09-04 23:34:32 | 48.88763 | 10.27190 | 80° | 106km/h | 14433m | 3.4m/s | -60.4°C | 12.5% | 141.2hPa | 2.6V | 08:30:00 | 01:05:06 | 00:00:00 | |
| DM0DOS-11 | 2026-09-04 23:34:31 | 48.88771 | 10.27270 | 81° | 102km/h | 14442m | 4.3m/s | -60.4°C | 12.3% | 141hPa | 2.7V | 08:30:00 | 01:05:08 | 00:00:00 | |
| DO3MHA-11 | 2026-09-04 23:34:31 | 48.88775 | 10.27308 | 82° | 106km/h | 14446m | 3.1m/s | -60.3°C | 12.2% | 140.9hPa | 2.8V | 00:00:00 | 01:05:09 | 00:00:00 | |
| HARRO8 | 2026-09-04 23:34:30 | 48.88771 | 10.27270 | 81° | 102km/h | 14442m | 4.3m/s | -60.4°C | 7.6% | 141.0hPa | 2.8V | 00:00:00 | 00:00:00 | 00:00:00 | |
| AZAK | 2026-09-04 23:34:29 | 48.88767 | 10.27230 | 82° | 104km/h | 14438m | 4.3m/s | -60.4°C | 7.7% | 141.1hPa | 2.8V | 00:00:00 | 00:00:00 | 00:00:00 | |
| DO3MHA-12 | 2026-09-04 23:34:28 | 48.88763 | 10.27190 | 81° | 108km/h | 14434m | 3.4m/s | -60.4°C | 12.5% | 141.2hPa | 2.8V | 00:00:00 | 01:05:06 | 00:00:00 | |
| DH7VM-15 | 2026-09-04 23:34:27 | 48.88762 | 10.27190 | 81° | 106km/h | 14434m | 3.4m/s | -60.4°C | 7.8% | 141.2hPa | 2.8V | 00:00:00 | 00:00:00 | 00:00:00 | |
| Es werden nur die letzten 3500 von 4334 Frames angezeigt. GPX/KML und Diagramme bleiben verfügbar. | |||||||||||||||